<?xml version="1.0" encoding="UTF-8" standalone="no" ?>
<gpx xmlns="http://www.topografix.com/GPX/1/1" xmlns:xsi="http://www.w3.org/2001/XMLSchema-instance" xsi:schemaLocation="http://www.topografix.com/GPX/1/1 http://www.topografix.com/GPX/1/1/gpx.xsd" version="1.1" creator="VisuGPX - https://www.visugpx.com">
  <metadata>
    <name>Boucle Romilly Fay Quincey Gélannes 49,1KM</name>
    <desc><![CDATA[Boucle Romilly Fay Quincey Gélannes 49,1KM]]></desc>
  </metadata>
  <trk>
    <name><![CDATA[2014-09-20 14:56]]></name>
    <desc><![CDATA[<h1>OruxMaps</h1><br /><hr align="center" width="480" style="height: 2px; width: 517px"/><h2>Nom: 2014-09-20 14:56</h2><br /><p>Temps de départ: 09/20/2014 14:57</p><p>Temps d'arrivée: 09/20/2014 18:04</p><p>Distance: 49,1 km (03:06)</p><p>Temps déplacement: 02:57</p><p>Vitesse moyenne: 15,8 km/h</p><p>Vitesse moyenne: 16,6 km/h</p><p>Vitess Max.: 45,9 km/h</p><p>Altitude minimale: 66 m</p><p>Altitude maximale: 191 m</p><p>Vitesse d'élévation: 429,7 m/h</p><p>Vitesse de descente: -835,2 m/h</p><p>Gain Altitude: 389 m</p><p>Perte Altitude: -382 m</p><p>Temps d'élévation: 00:54</p><p>Temps de descente: 00:27</p><hr align="center" width="480" style="height: 2px; width: 517px"/>]]></desc>
    <trkseg>
      <trkpt lat="48.50051" lon="3.72652">
        <ele>69.33</ele>
        <time>2014-09-20T12:57:38Z</time>
      </trkpt>
      <trkpt lat="48.50052" lon="3.72661">
        <ele>70.48</ele>
        <time>2014-09-20T12:57:41Z</time>
      </trkpt>
      <trkpt lat="48.50052" lon="3.72668">
        <ele>71.09</ele>
        <time>2014-09-20T12:57:43Z</time>
      </trkpt>
      <trkpt lat="48.50053" lon="3.72677">
        <ele>71.68</ele>
        <time>2014-09-20T12:57:45Z</time>
      </trkpt>
      <trkpt lat="48.50053" lon="3.72686">
        <ele>72.44</ele>
        <time>2014-09-20T12:57:47Z</time>
      </trkpt>
      <trkpt lat="48.50054" lon="3.72695">
        <ele>72.87</ele>
        <time>2014-09-20T12:57:49Z</time>
      </trkpt>
      <trkpt lat="48.50054" lon="3.72705">
        <ele>72.81</ele>
        <time>2014-09-20T12:57:51Z</time>
      </trkpt>
      <trkpt lat="48.50054" lon="3.72716">
        <ele>72.35</ele>
        <time>2014-09-20T12:57:53Z</time>
      </trkpt>
      <trkpt lat="48.50054" lon="3.72728">
        <ele>71.78</ele>
        <time>2014-09-20T12:57:55Z</time>
      </trkpt>
      <trkpt lat="48.50055" lon="3.7274">
        <ele>71.29</ele>
        <time>2014-09-20T12:57:57Z</time>
      </trkpt>
      <trkpt lat="48.50057" lon="3.72751">
        <ele>71</ele>
        <time>2014-09-20T12:57:59Z</time>
      </trkpt>
      <trkpt lat="48.50061" lon="3.72763">
        <ele>70.88</ele>
        <time>2014-09-20T12:58:01Z</time>
      </trkpt>
      <trkpt lat="48.50062" lon="3.72775">
        <ele>70.75</ele>
        <time>2014-09-20T12:58:03Z</time>
      </trkpt>
      <trkpt lat="48.50063" lon="3.72787">
        <ele>70.74</ele>
        <time>2014-09-20T12:58:05Z</time>
      </trkpt>
      <trkpt lat="48.50062" lon="3.72799">
        <ele>70.67</ele>
        <time>2014-09-20T12:58:07Z</time>
      </trkpt>
      <trkpt lat="48.50062" lon="3.72811">
        <ele>70.47</ele>
        <time>2014-09-20T12:58:09Z</time>
      </trkpt>
      <trkpt lat="48.50063" lon="3.72822">
        <ele>70.25</ele>
        <time>2014-09-20T12:58:11Z</time>
      </trkpt>
      <trkpt lat="48.50064" lon="3.72833">
        <ele>70.02</ele>
        <time>2014-09-20T12:58:13Z</time>
      </trkpt>
      <trkpt lat="48.50065" lon="3.72844">
        <ele>69.91</ele>
        <time>2014-09-20T12:58:15Z</time>
      </trkpt>
      <trkpt lat="48.50065" lon="3.72854">
        <ele>69.9</ele>
        <time>2014-09-20T12:58:17Z</time>
      </trkpt>
      <trkpt lat="48.50066" lon="3.72864">
        <ele>69.94</ele>
        <time>2014-09-20T12:58:19Z</time>
      </trkpt>
      <trkpt lat="48.50067" lon="3.72874">
        <ele>70.02</ele>
        <time>2014-09-20T12:58:21Z</time>
      </trkpt>
      <trkpt lat="48.50066" lon="3.72882">
        <ele>70.14</ele>
        <time>2014-09-20T12:58:23Z</time>
      </trkpt>
      <trkpt lat="48.50064" lon="3.7289">
        <ele>70.2</ele>
        <time>2014-09-20T12:58:25Z</time>
      </trkpt>
      <trkpt lat="48.50059" lon="3.72893">
        <ele>70.16</ele>
        <time>2014-09-20T12:58:27Z</time>
      </trkpt>
      <trkpt lat="48.50053" lon="3.72895">
        <ele>69.99</ele>
        <time>2014-09-20T12:58:29Z</time>
      </trkpt>
      <trkpt lat="48.50046" lon="3.72896">
        <ele>69.71</ele>
        <time>2014-09-20T12:58:31Z</time>
      </trkpt>
      <trkpt lat="48.5004" lon="3.72897">
        <ele>69.2</ele>
        <time>2014-09-20T12:58:33Z</time>
      </trkpt>
      <trkpt lat="48.50033" lon="3.72898">
        <ele>68.68</ele>
        <time>2014-09-20T12:58:35Z</time>
      </trkpt>
      <trkpt lat="48.50026" lon="3.729">
        <ele>68.28</ele>
        <time>2014-09-20T12:58:37Z</time>
      </trkpt>
      <trkpt lat="48.50018" lon="3.72902">
        <ele>67.97</ele>
        <time>2014-09-20T12:58:39Z</time>
      </trkpt>
      <trkpt lat="48.5001" lon="3.72904">
        <ele>67.78</ele>
        <time>2014-09-20T12:58:41Z</time>
      </trkpt>
      <trkpt lat="48.50002" lon="3.72906">
        <ele>67.62</ele>
        <time>2014-09-20T12:58:43Z</time>
      </trkpt>
      <trkpt lat="48.49993" lon="3.72908">
        <ele>67.54</ele>
        <time>2014-09-20T12:58:45Z</time>
      </trkpt>
      <trkpt lat="48.49985" lon="3.7291">
        <ele>67.58</ele>
        <time>2014-09-20T12:58:47Z</time>
      </trkpt>
      <trkpt lat="48.49976" lon="3.72911">
        <ele>67.74</ele>
        <time>2014-09-20T12:58:49Z</time>
      </trkpt>
      <trkpt lat="48.49967" lon="3.72912">
        <ele>67.96</ele>
        <time>2014-09-20T12:58:51Z</time>
      </trkpt>
      <trkpt lat="48.49958" lon="3.72913">
        <ele>68.19</ele>
        <time>2014-09-20T12:58:53Z</time>
      </trkpt>
      <trkpt lat="48.49949" lon="3.72913">
        <ele>68.41</ele>
        <time>2014-09-20T12:58:55Z</time>
      </trkpt>
      <trkpt lat="48.49941" lon="3.72914">
        <ele>68.59</ele>
        <time>2014-09-20T12:58:57Z</time>
      </trkpt>
      <trkpt lat="48.49932" lon="3.72915">
        <ele>68.67</ele>
        <time>2014-09-20T12:58:59Z</time>
      </trkpt>
      <trkpt lat="48.49924" lon="3.72916">
        <ele>68.7</ele>
        <time>2014-09-20T12:59:01Z</time>
      </trkpt>
      <trkpt lat="48.49915" lon="3.72917">
        <ele>68.68</ele>
        <time>2014-09-20T12:59:03Z</time>
      </trkpt>
      <trkpt lat="48.49907" lon="3.72918">
        <ele>68.59</ele>
        <time>2014-09-20T12:59:05Z</time>
      </trkpt>
      <trkpt lat="48.49902" lon="3.72919">
        <ele>68.55</ele>
        <time>2014-09-20T12:59:06Z</time>
      </trkpt>
      <trkpt lat="48.49897" lon="3.7292">
        <ele>68.52</ele>
        <time>2014-09-20T12:59:07Z</time>
      </trkpt>
      <trkpt lat="48.49893" lon="3.72922">
        <ele>68.5</ele>
        <time>2014-09-20T12:59:08Z</time>
      </trkpt>
      <trkpt lat="48.49888" lon="3.72923">
        <ele>68.48</ele>
        <time>2014-09-20T12:59:09Z</time>
      </trkpt>
      <trkpt lat="48.49884" lon="3.72925">
        <ele>68.47</ele>
        <time>2014-09-20T12:59:10Z</time>
      </trkpt>
      <trkpt lat="48.49879" lon="3.72927">
        <ele>68.46</ele>
        <time>2014-09-20T12:59:11Z</time>
      </trkpt>
      <trkpt lat="48.49875" lon="3.7293">
        <ele>68.45</ele>
        <time>2014-09-20T12:59:12Z</time>
      </trkpt>
      <trkpt lat="48.4987" lon="3.72932">
        <ele>68.42</ele>
        <time>2014-09-20T12:59:13Z</time>
      </trkpt>
      <trkpt lat="48.49866" lon="3.72935">
        <ele>68.37</ele>
        <time>2014-09-20T12:59:14Z</time>
      </trkpt>
      <trkpt lat="48.49861" lon="3.72938">
        <ele>68.34</ele>
        <time>2014-09-20T12:59:15Z</time>
      </trkpt>
      <trkpt lat="48.49857" lon="3.72941">
        <ele>68.31</ele>
        <time>2014-09-20T12:59:16Z</time>
      </trkpt>
      <trkpt lat="48.49852" lon="3.72944">
        <ele>68.31</ele>
        <time>2014-09-20T12:59:17Z</time>
      </trkpt>
      <trkpt lat="48.49848" lon="3.72947">
        <ele>68.29</ele>
        <time>2014-09-20T12:59:18Z</time>
      </trkpt>
      <trkpt lat="48.49843" lon="3.72951">
        <ele>68.28</ele>
        <time>2014-09-20T12:59:19Z</time>
      </trkpt>
      <trkpt lat="48.49839" lon="3.72955">
        <ele>68.24</ele>
        <time>2014-09-20T12:59:20Z</time>
      </trkpt>
      <trkpt lat="48.49834" lon="3.72959">
        <ele>68.19</ele>
        <time>2014-09-20T12:59:21Z</time>
      </trkpt>
      <trkpt lat="48.4983" lon="3.72963">
        <ele>68.1</ele>
        <time>2014-09-20T12:59:22Z</time>
      </trkpt>
      <trkpt lat="48.49826" lon="3.72967">
        <ele>68.03</ele>
        <time>2014-09-20T12:59:23Z</time>
      </trkpt>
      <trkpt lat="48.49822" lon="3.72971">
        <ele>67.98</ele>
        <time>2014-09-20T12:59:24Z</time>
      </trkpt>
      <trkpt lat="48.49817" lon="3.72976">
        <ele>67.92</ele>
        <time>2014-09-20T12:59:25Z</time>
      </trkpt>
      <trkpt lat="48.49813" lon="3.72979">
        <ele>67.84</ele>
        <time>2014-09-20T12:59:26Z</time>
      </trkpt>
      <trkpt lat="48.49808" lon="3.72983">
        <ele>67.79</ele>
        <time>2014-09-20T12:59:27Z</time>
      </trkpt>
      <trkpt lat="48.49804" lon="3.72987">
        <ele>67.72</ele>
        <time>2014-09-20T12:59:28Z</time>
      </trkpt>
      <trkpt lat="48.49799" lon="3.72991">
        <ele>67.65</ele>
        <time>2014-09-20T12:59:29Z</time>
      </trkpt>
      <trkpt lat="48.49795" lon="3.72995">
        <ele>67.59</ele>
        <time>2014-09-20T12:59:30Z</time>
      </trkpt>
      <trkpt lat="48.4979" lon="3.72998">
        <ele>67.53</ele>
        <time>2014-09-20T12:59:31Z</time>
      </trkpt>
      <trkpt lat="48.49785" lon="3.73002">
        <ele>67.48</ele>
        <time>2014-09-20T12:59:32Z</time>
      </trkpt>
      <trkpt lat="48.49781" lon="3.73005">
        <ele>67.42</ele>
        <time>2014-09-20T12:59:33Z</time>
      </trkpt>
      <trkpt lat="48.49776" lon="3.73009">
        <ele>67.37</ele>
        <time>2014-09-20T12:59:34Z</time>
      </trkpt>
      <trkpt lat="48.49771" lon="3.73012">
        <ele>67.33</ele>
        <time>2014-09-20T12:59:35Z</time>
      </trkpt>
      <trkpt lat="48.49767" lon="3.73015">
        <ele>67.28</ele>
        <time>2014-09-20T12:59:36Z</time>
      </trkpt>
      <trkpt lat="48.49762" lon="3.73019">
        <ele>67.24</ele>
        <time>2014-09-20T12:59:37Z</time>
      </trkpt>
      <trkpt lat="48.49757" lon="3.73022">
        <ele>67.19</ele>
        <time>2014-09-20T12:59:38Z</time>
      </trkpt>
      <trkpt lat="48.49752" lon="3.73025">
        <ele>67.15</ele>
        <time>2014-09-20T12:59:39Z</time>
      </trkpt>
      <trkpt lat="48.49748" lon="3.73028">
        <ele>67.09</ele>
        <time>2014-09-20T12:59:40Z</time>
      </trkpt>
      <trkpt lat="48.49743" lon="3.73031">
        <ele>67.03</ele>
        <time>2014-09-20T12:59:41Z</time>
      </trkpt>
      <trkpt lat="48.49738" lon="3.73034">
        <ele>66.98</ele>
        <time>2014-09-20T12:59:42Z</time>
      </trkpt>
      <trkpt lat="48.49734" lon="3.73037">
        <ele>66.94</ele>
        <time>2014-09-20T12:59:43Z</time>
      </trkpt>
      <trkpt lat="48.49729" lon="3.7304">
        <ele>66.89</ele>
        <time>2014-09-20T12:59:44Z</time>
      </trkpt>
      <trkpt lat="48.49725" lon="3.73044">
        <ele>66.87</ele>
        <time>2014-09-20T12:59:45Z</time>
      </trkpt>
      <trkpt lat="48.49721" lon="3.73047">
        <ele>66.84</ele>
        <time>2014-09-20T12:59:46Z</time>
      </trkpt>
      <trkpt lat="48.49716" lon="3.7305">
        <ele>66.78</ele>
        <time>2014-09-20T12:59:47Z</time>
      </trkpt>
      <trkpt lat="48.49712" lon="3.73053">
        <ele>66.72</ele>
        <time>2014-09-20T12:59:48Z</time>
      </trkpt>
      <trkpt lat="48.49705" lon="3.73057">
        <ele>66.61</ele>
        <time>2014-09-20T12:59:50Z</time>
      </trkpt>
      <trkpt lat="48.49701" lon="3.7306">
        <ele>66.56</ele>
        <time>2014-09-20T12:59:52Z</time>
      </trkpt>
      <trkpt lat="48.49696" lon="3.73064">
        <ele>66.53</ele>
        <time>2014-09-20T12:59:56Z</time>
      </trkpt>
      <trkpt lat="48.49696" lon="3.73072">
        <ele>66.72</ele>
        <time>2014-09-20T12:59:58Z</time>
      </trkpt>
      <trkpt lat="48.49699" lon="3.73084">
        <ele>66.76</ele>
        <time>2014-09-20T13:00:00Z</time>
      </trkpt>
      <trkpt lat="48.49702" lon="3.73096">
        <ele>66.77</ele>
        <time>2014-09-20T13:00:02Z</time>
      </trkpt>
      <trkpt lat="48.49706" lon="3.73108">
        <ele>66.8</ele>
        <time>2014-09-20T13:00:04Z</time>
      </trkpt>
      <trkpt lat="48.49709" lon="3.7312">
        <ele>66.81</ele>
        <time>2014-09-20T13:00:06Z</time>
      </trkpt>
      <trkpt lat="48.4971" lon="3.73128">
        <ele>66.81</ele>
        <time>2014-09-20T13:00:07Z</time>
      </trkpt>
      <trkpt lat="48.49711" lon="3.73136">
        <ele>66.82</ele>
        <time>2014-09-20T13:00:08Z</time>
      </trkpt>
      <trkpt lat="48.49713" lon="3.73144">
        <ele>66.8</ele>
        <time>2014-09-20T13:00:09Z</time>
      </trkpt>
      <trkpt lat="48.49715" lon="3.73151">
        <ele>66.78</ele>
        <time>2014-09-20T13:00:10Z</time>
      </trkpt>
      <trkpt lat="48.49716" lon="3.73159">
        <ele>66.77</ele>
        <time>2014-09-20T13:00:11Z</time>
      </trkpt>
      <trkpt lat="48.49718" lon="3.73166">
        <ele>66.76</ele>
        <time>2014-09-20T13:00:12Z</time>
      </trkpt>
      <trkpt lat="48.49719" lon="3.73173">
        <ele>66.75</ele>
        <time>2014-09-20T13:00:13Z</time>
      </trkpt>
      <trkpt lat="48.49721" lon="3.7318">
        <ele>66.77</ele>
        <time>2014-09-20T13:00:14Z</time>
      </trkpt>
      <trkpt lat="48.49722" lon="3.73187">
        <ele>66.78</ele>
        <time>2014-09-20T13:00:15Z</time>
      </trkpt>
      <trkpt lat="48.49724" lon="3.732">
        <ele>66.75</ele>
        <time>2014-09-20T13:00:17Z</time>
      </trkpt>
      <trkpt lat="48.49726" lon="3.73213">
        <ele>66.63</ele>
        <time>2014-09-20T13:00:19Z</time>
      </trkpt>
      <trkpt lat="48.49729" lon="3.73224">
        <ele>66.57</ele>
        <time>2014-09-20T13:00:21Z</time>
      </trkpt>
      <trkpt lat="48.49731" lon="3.73236">
        <ele>66.62</ele>
        <time>2014-09-20T13:00:23Z</time>
      </trkpt>
      <trkpt lat="48.49734" lon="3.73248">
        <ele>66.69</ele>
        <time>2014-09-20T13:00:25Z</time>
      </trkpt>
      <trkpt lat="48.49736" lon="3.73263">
        <ele>67.39</ele>
        <time>2014-09-20T13:00:27Z</time>
      </trkpt>
      <trkpt lat="48.49737" lon="3.7327">
        <ele>68.08</ele>
        <time>2014-09-20T13:00:28Z</time>
      </trkpt>
      <trkpt lat="48.49738" lon="3.73278">
        <ele>68.69</ele>
        <time>2014-09-20T13:00:29Z</time>
      </trkpt>
      <trkpt lat="48.4974" lon="3.73285">
        <ele>69.25</ele>
        <time>2014-09-20T13:00:30Z</time>
      </trkpt>
      <trkpt lat="48.49741" lon="3.73292">
        <ele>69.74</ele>
        <time>2014-09-20T13:00:31Z</time>
      </trkpt>
      <trkpt lat="48.49742" lon="3.73299">
        <ele>70.17</ele>
        <time>2014-09-20T13:00:32Z</time>
      </trkpt>
      <trkpt lat="48.49743" lon="3.73306">
        <ele>70.51</ele>
        <time>2014-09-20T13:00:33Z</time>
      </trkpt>
      <trkpt lat="48.49745" lon="3.73313">
        <ele>70.79</ele>
        <time>2014-09-20T13:00:34Z</time>
      </trkpt>
      <trkpt lat="48.49746" lon="3.7332">
        <ele>71.05</ele>
        <time>2014-09-20T13:00:35Z</time>
      </trkpt>
      <trkpt lat="48.49747" lon="3.73327">
        <ele>71.27</ele>
        <time>2014-09-20T13:00:36Z</time>
      </trkpt>
      <trkpt lat="48.49749" lon="3.73334">
        <ele>71.48</ele>
        <time>2014-09-20T13:00:37Z</time>
      </trkpt>
      <trkpt lat="48.4975" lon="3.73341">
        <ele>71.64</ele>
        <time>2014-09-20T13:00:38Z</time>
      </trkpt>
      <trkpt lat="48.49751" lon="3.73348">
        <ele>71.79</ele>
        <time>2014-09-20T13:00:39Z</time>
      </trkpt>
      <trkpt lat="48.49752" lon="3.73355">
        <ele>71.9</ele>
        <time>2014-09-20T13:00:40Z</time>
      </trkpt>
      <trkpt lat="48.49753" lon="3.73362">
        <ele>71.98</ele>
        <time>2014-09-20T13:00:41Z</time>
      </trkpt>
      <trkpt lat="48.49754" lon="3.73369">
        <ele>72.09</ele>
        <time>2014-09-20T13:00:42Z</time>
      </trkpt>
      <trkpt lat="48.49755" lon="3.73375">
        <ele>72.2</ele>
        <time>2014-09-20T13:00:43Z</time>
      </trkpt>
      <trkpt lat="48.49757" lon="3.73382">
        <ele>72.33</ele>
        <time>2014-09-20T13:00:44Z</time>
      </trkpt>
      <trkpt lat="48.49759" lon="3.73395">
        <ele>72.57</ele>
        <time>2014-09-20T13:00:46Z</time>
      </trkpt>
      <trkpt lat="48.4976" lon="3.73402">
        <ele>72.69</ele>
        <time>2014-09-20T13:00:47Z</time>
      </trkpt>
      <trkpt lat="48.49762" lon="3.73408">
        <ele>72.8</ele>
        <time>2014-09-20T13:00:48Z</time>
      </trkpt>
      <trkpt lat="48.49763" lon="3.73415">
        <ele>72.88</ele>
        <time>2014-09-20T13:00:49Z</time>
      </trkpt>
      <trkpt lat="48.49765" lon="3.73422">
        <ele>72.97</ele>
        <time>2014-09-20T13:00:50Z</time>
      </trkpt>
      <trkpt lat="48.49766" lon="3.73429">
        <ele>73.03</ele>
        <time>2014-09-20T13:00:51Z</time>
      </trkpt>
      <trkpt lat="48.49768" lon="3.73436">
        <ele>73.11</ele>
        <time>2014-09-20T13:00:52Z</time>
      </trkpt>
      <trkpt lat="48.49769" lon="3.73443">
        <ele>73.16</ele>
        <time>2014-09-20T13:00:53Z</time>
      </trkpt>
      <trkpt lat="48.49771" lon="3.7345">
        <ele>73.25</ele>
        <time>2014-09-20T13:00:54Z</time>
      </trkpt>
      <trkpt lat="48.49773" lon="3.73457">
        <ele>73.35</ele>
        <time>2014-09-20T13:00:55Z</time>
      </trkpt>
      <trkpt lat="48.49773" lon="3.73464">
        <ele>73.39</ele>
        <time>2014-09-20T13:00:56Z</time>
      </trkpt>
      <trkpt lat="48.4977" lon="3.7347">
        <ele>73.35</ele>
        <time>2014-09-20T13:00:57Z</time>
      </trkpt>
      <trkpt lat="48.49767" lon="3.73474">
        <ele>73.27</ele>
        <time>2014-09-20T13:00:58Z</time>
      </trkpt>
      <trkpt lat="48.49762" lon="3.73477">
        <ele>73.18</ele>
        <time>2014-09-20T13:00:59Z</time>
      </trkpt>
      <trkpt lat="48.49757" lon="3.73479">
        <ele>73.1</ele>
        <time>2014-09-20T13:01:00Z</time>
      </trkpt>
      <trkpt lat="48.49752" lon="3.7348">
        <ele>73.05</ele>
        <time>2014-09-20T13:01:01Z</time>
      </trkpt>
      <trkpt lat="48.49747" lon="3.73481">
        <ele>73.02</ele>
        <time>2014-09-20T13:01:02Z</time>
      </trkpt>
      <trkpt lat="48.49743" lon="3.73482">
        <ele>73</ele>
        <time>2014-09-20T13:01:03Z</time>
      </trkpt>
      <trkpt lat="48.49738" lon="3.73483">
        <ele>72.96</ele>
        <time>2014-09-20T13:01:04Z</time>
      </trkpt>
      <trkpt lat="48.49733" lon="3.73485">
        <ele>72.87</ele>
        <time>2014-09-20T13:01:05Z</time>
      </trkpt>
      <trkpt lat="48.49728" lon="3.73486">
        <ele>72.81</ele>
        <time>2014-09-20T13:01:06Z</time>
      </trkpt>
      <trkpt lat="48.49723" lon="3.73488">
        <ele>72.77</ele>
        <time>2014-09-20T13:01:07Z</time>
      </trkpt>
      <trkpt lat="48.49718" lon="3.73489">
        <ele>72.73</ele>
        <time>2014-09-20T13:01:08Z</time>
      </trkpt>
      <trkpt lat="48.49709" lon="3.73491">
        <ele>72.71</ele>
        <time>2014-09-20T13:01:09Z</time>
      </trkpt>
      <trkpt lat="48.49704" lon="3.73493">
        <ele>72.69</ele>
        <time>2014-09-20T13:01:10Z</time>
      </trkpt>
      <trkpt lat="48.497" lon="3.73494">
        <ele>72.67</ele>
        <time>2014-09-20T13:01:11Z</time>
      </trkpt>
      <trkpt lat="48.49695" lon="3.73496">
        <ele>72.66</ele>
        <time>2014-09-20T13:01:12Z</time>
      </trkpt>
      <trkpt lat="48.49691" lon="3.73497">
        <ele>72.65</ele>
        <time>2014-09-20T13:01:13Z</time>
      </trkpt>
      <trkpt lat="48.49682" lon="3.735">
        <ele>72.73</ele>
        <time>2014-09-20T13:01:15Z</time>
      </trkpt>
      <trkpt lat="48.49678" lon="3.73502">
        <ele>72.78</ele>
        <time>2014-09-20T13:01:16Z</time>
      </trkpt>
      <trkpt lat="48.49673" lon="3.73504">
        <ele>72.84</ele>
        <time>2014-09-20T13:01:17Z</time>
      </trkpt>
      <trkpt lat="48.49669" lon="3.73505">
        <ele>72.91</ele>
        <time>2014-09-20T13:01:18Z</time>
      </trkpt>
      <trkpt lat="48.49664" lon="3.73507">
        <ele>72.99</ele>
        <time>2014-09-20T13:01:19Z</time>
      </trkpt>
      <trkpt lat="48.4966" lon="3.73509">
        <ele>73.08</ele>
        <time>2014-09-20T13:01:20Z</time>
      </trkpt>
      <trkpt lat="48.49655" lon="3.7351">
        <ele>73.16</ele>
        <time>2014-09-20T13:01:21Z</time>
      </trkpt>
      <trkpt lat="48.49651" lon="3.73512">
        <ele>73.25</ele>
        <time>2014-09-20T13:01:22Z</time>
      </trkpt>
      <trkpt lat="48.49647" lon="3.73513">
        <ele>73.35</ele>
        <time>2014-09-20T13:01:23Z</time>
      </trkpt>
      <trkpt lat="48.49642" lon="3.73515">
        <ele>73.44</ele>
        <time>2014-09-20T13:01:24Z</time>
      </trkpt>
      <trkpt lat="48.49638" lon="3.73517">
        <ele>73.51</ele>
        <time>2014-09-20T13:01:25Z</time>
      </trkpt>
      <trkpt lat="48.49633" lon="3.73518">
        <ele>73.57</ele>
        <time>2014-09-20T13:01:26Z</time>
      </trkpt>
      <trkpt lat="48.49629" lon="3.73519">
        <ele>73.61</ele>
        <time>2014-09-20T13:01:27Z</time>
      </trkpt>
      <trkpt lat="48.49624" lon="3.73521">
        <ele>73.64</ele>
        <time>2014-09-20T13:01:28Z</time>
      </trkpt>
      <trkpt lat="48.49619" lon="3.73523">
        <ele>73.69</ele>
        <time>2014-09-20T13:01:29Z</time>
      </trkpt>
      <trkpt lat="48.49615" lon="3.73525">
        <ele>73.72</ele>
        <time>2014-09-20T13:01:30Z</time>
      </trkpt>
      <trkpt lat="48.4961" lon="3.73526">
        <ele>73.75</ele>
        <time>2014-09-20T13:01:31Z</time>
      </trkpt>
      <trkpt lat="48.49606" lon="3.73527">
        <ele>73.79</ele>
        <time>2014-09-20T13:01:32Z</time>
      </trkpt>
      <trkpt lat="48.49601" lon="3.73528">
        <ele>73.85</ele>
        <time>2014-09-20T13:01:33Z</time>
      </trkpt>
      <trkpt lat="48.49596" lon="3.7353">
        <ele>73.92</ele>
        <time>2014-09-20T13:01:34Z</time>
      </trkpt>
      <trkpt lat="48.49592" lon="3.73532">
        <ele>74</ele>
        <time>2014-09-20T13:01:35Z</time>
      </trkpt>
      <trkpt lat="48.49587" lon="3.73534">
        <ele>74.06</ele>
        <time>2014-09-20T13:01:36Z</time>
      </trkpt>
      <trkpt lat="48.49583" lon="3.73535">
        <ele>74.12</ele>
        <time>2014-09-20T13:01:37Z</time>
      </trkpt>
      <trkpt lat="48.49578" lon="3.73537">
        <ele>74.17</ele>
        <time>2014-09-20T13:01:38Z</time>
      </trkpt>
      <trkpt lat="48.49573" lon="3.73539">
        <ele>74.24</ele>
        <time>2014-09-20T13:01:39Z</time>
      </trkpt>
      <trkpt lat="48.49569" lon="3.73541">
        <ele>74.31</ele>
        <time>2014-09-20T13:01:40Z</time>
      </trkpt>
      <trkpt lat="48.49564" lon="3.73543">
        <ele>74.39</ele>
        <time>2014-09-20T13:01:41Z</time>
      </trkpt>
      <trkpt lat="48.4956" lon="3.73544">
        <ele>74.45</ele>
        <time>2014-09-20T13:01:42Z</time>
      </trkpt>
      <trkpt lat="48.49555" lon="3.73546">
        <ele>74.52</ele>
        <time>2014-09-20T13:01:43Z</time>
      </trkpt>
      <trkpt lat="48.49551" lon="3.73548">
        <ele>74.6</ele>
        <time>2014-09-20T13:01:44Z</time>
      </trkpt>
      <trkpt lat="48.49546" lon="3.7355">
        <ele>74.65</ele>
        <time>2014-09-20T13:01:45Z</time>
      </trkpt>
      <trkpt lat="48.49542" lon="3.73552">
        <ele>74.72</ele>
        <time>2014-09-20T13:01:46Z</time>
      </trkpt>
      <trkpt lat="48.49537" lon="3.73554">
        <ele>74.77</ele>
        <time>2014-09-20T13:01:47Z</time>
      </trkpt>
      <trkpt lat="48.49533" lon="3.73555">
        <ele>74.84</ele>
        <time>2014-09-20T13:01:48Z</time>
      </trkpt>
      <trkpt lat="48.49528" lon="3.73557">
        <ele>74.89</ele>
        <time>2014-09-20T13:01:49Z</time>
      </trkpt>
      <trkpt lat="48.49524" lon="3.73559">
        <ele>74.95</ele>
        <time>2014-09-20T13:01:50Z</time>
      </trkpt>
      <trkpt lat="48.4952" lon="3.73562">
        <ele>75.02</ele>
        <time>2014-09-20T13:01:51Z</time>
      </trkpt>
      <trkpt lat="48.49515" lon="3.73564">
        <ele>75.09</ele>
        <time>2014-09-20T13:01:52Z</time>
      </trkpt>
      <trkpt lat="48.49507" lon="3.73567">
        <ele>75.31</ele>
        <time>2014-09-20T13:01:54Z</time>
      </trkpt>
      <trkpt lat="48.49499" lon="3.7357">
        <ele>75.56</ele>
        <time>2014-09-20T13:01:56Z</time>
      </trkpt>
      <trkpt lat="48.4949" lon="3.73574">
        <ele>75.83</ele>
        <time>2014-09-20T13:01:58Z</time>
      </trkpt>
      <trkpt lat="48.49482" lon="3.73577">
        <ele>76.03</ele>
        <time>2014-09-20T13:02:00Z</time>
      </trkpt>
      <trkpt lat="48.49477" lon="3.73579">
        <ele>76.11</ele>
        <time>2014-09-20T13:02:01Z</time>
      </trkpt>
      <trkpt lat="48.49473" lon="3.7358">
        <ele>76.14</ele>
        <time>2014-09-20T13:02:02Z</time>
      </trkpt>
      <trkpt lat="48.49468" lon="3.73582">
        <ele>76.18</ele>
        <time>2014-09-20T13:02:03Z</time>
      </trkpt>
      <trkpt lat="48.49464" lon="3.73584">
        <ele>76.25</ele>
        <time>2014-09-20T13:02:04Z</time>
      </trkpt>
      <trkpt lat="48.49459" lon="3.73586">
        <ele>76.29</ele>
        <time>2014-09-20T13:02:05Z</time>
      </trkpt>
      <trkpt lat="48.49455" lon="3.73588">
        <ele>76.35</ele>
        <time>2014-09-20T13:02:06Z</time>
      </trkpt>
      <trkpt lat="48.4945" lon="3.7359">
        <ele>76.42</ele>
        <time>2014-09-20T13:02:07Z</time>
      </trkpt>
      <trkpt lat="48.49445" lon="3.73592">
        <ele>76.5</ele>
        <time>2014-09-20T13:02:08Z</time>
      </trkpt>
      <trkpt lat="48.49441" lon="3.73594">
        <ele>76.58</ele>
        <time>2014-09-20T13:02:09Z</time>
      </trkpt>
      <trkpt lat="48.49436" lon="3.73595">
        <ele>76.67</ele>
        <time>2014-09-20T13:02:10Z</time>
      </trkpt>
      <trkpt lat="48.49432" lon="3.73597">
        <ele>76.73</ele>
        <time>2014-09-20T13:02:11Z</time>
      </trkpt>
      <trkpt lat="48.49427" lon="3.73598">
        <ele>76.78</ele>
        <time>2014-09-20T13:02:12Z</time>
      </trkpt>
      <trkpt lat="48.49423" lon="3.736">
        <ele>76.82</ele>
        <time>2014-09-20T13:02:13Z</time>
      </trkpt>
      <trkpt lat="48.49418" lon="3.73602">
        <ele>76.85</ele>
        <time>2014-09-20T13:02:14Z</time>
      </trkpt>
      <trkpt lat="48.49414" lon="3.73604">
        <ele>76.87</ele>
        <time>2014-09-20T13:02:15Z</time>
      </trkpt>
      <trkpt lat="48.49409" lon="3.73605">
        <ele>76.86</ele>
        <time>2014-09-20T13:02:16Z</time>
      </trkpt>
      <trkpt lat="48.49404" lon="3.73607">
        <ele>76.85</ele>
        <time>2014-09-20T13:02:17Z</time>
      </trkpt>
      <trkpt lat="48.49399" lon="3.73608">
        <ele>76.84</ele>
        <time>2014-09-20T13:02:18Z</time>
      </trkpt>
      <trkpt lat="48.49395" lon="3.7361">
        <ele>76.84</ele>
        <time>2014-09-20T13:02:19Z</time>
      </trkpt>
      <trkpt lat="48.4939" lon="3.73611">
        <ele>76.86</ele>
        <time>2014-09-20T13:02:20Z</time>
      </trkpt>
      <trkpt lat="48.49385" lon="3.73613">
        <ele>76.88</ele>
        <time>2014-09-20T13:02:21Z</time>
      </trkpt>
      <trkpt lat="48.4938" lon="3.73615">
        <ele>76.89</ele>
        <time>2014-09-20T13:02:22Z</time>
      </trkpt>
      <trkpt lat="48.49376" lon="3.73616">
        <ele>76.9</ele>
        <time>2014-09-20T13:02:23Z</time>
      </trkpt>
      <trkpt lat="48.49371" lon="3.73618">
        <ele>76.88</ele>
        <time>2014-09-20T13:02:24Z</time>
      </trkpt>
      <trkpt lat="48.49366" lon="3.7362">
        <ele>76.84</ele>
        <time>2014-09-20T13:02:25Z</time>
      </trkpt>
      <trkpt lat="48.49361" lon="3.73621">
        <ele>76.81</ele>
        <time>2014-09-20T13:02:26Z</time>
      </trkpt>
      <trkpt lat="48.49357" lon="3.73623">
        <ele>76.77</ele>
        <time>2014-09-20T13:02:27Z</time>
      </trkpt>
      <trkpt lat="48.49352" lon="3.73625">
        <ele>76.73</ele>
        <time>2014-09-20T13:02:28Z</time>
      </trkpt>
      <trkpt lat="48.49347" lon="3.73627">
        <ele>76.68</ele>
        <time>2014-09-20T13:02:29Z</time>
      </trkpt>
      <trkpt lat="48.49342" lon="3.73628">
        <ele>76.64</ele>
        <time>2014-09-20T13:02:30Z</time>
      </trkpt>
      <trkpt lat="48.49337" lon="3.7363">
        <ele>76.59</ele>
        <time>2014-09-20T13:02:31Z</time>
      </trkpt>
      <trkpt lat="48.49332" lon="3.73632">
        <ele>76.52</ele>
        <time>2014-09-20T13:02:32Z</time>
      </trkpt>
      <trkpt lat="48.49327" lon="3.73634">
        <ele>76.48</ele>
        <time>2014-09-20T13:02:33Z</time>
      </trkpt>
      <trkpt lat="48.49322" lon="3.73636">
        <ele>76.41</ele>
        <time>2014-09-20T13:02:34Z</time>
      </trkpt>
      <trkpt lat="48.49318" lon="3.73638">
        <ele>76.37</ele>
        <time>2014-09-20T13:02:35Z</time>
      </trkpt>
      <trkpt lat="48.49313" lon="3.7364">
        <ele>76.31</ele>
        <time>2014-09-20T13:02:36Z</time>
      </trkpt>
      <trkpt lat="48.49308" lon="3.73642">
        <ele>76.24</ele>
        <time>2014-09-20T13:02:37Z</time>
      </trkpt>
      <trkpt lat="48.49303" lon="3.73644">
        <ele>76.16</ele>
        <time>2014-09-20T13:02:38Z</time>
      </trkpt>
      <trkpt lat="48.49298" lon="3.73646">
        <ele>76.1</ele>
        <time>2014-09-20T13:02:39Z</time>
      </trkpt>
      <trkpt lat="48.49293" lon="3.73648">
        <ele>76.06</ele>
        <time>2014-09-20T13:02:40Z</time>
      </trkpt>
      <trkpt lat="48.49287" lon="3.73649">
        <ele>76</ele>
        <time>2014-09-20T13:02:41Z</time>
      </trkpt>
      <trkpt lat="48.49282" lon="3.73651">
        <ele>75.96</ele>
        <time>2014-09-20T13:02:42Z</time>
      </trkpt>
      <trkpt lat="48.49278" lon="3.73653">
        <ele>75.9</ele>
        <time>2014-09-20T13:02:43Z</time>
      </trkpt>
      <trkpt lat="48.49273" lon="3.73655">
        <ele>75.83</ele>
        <time>2014-09-20T13:02:44Z</time>
      </trkpt>
      <trkpt lat="48.49267" lon="3.73656">
        <ele>75.76</ele>
        <time>2014-09-20T13:02:45Z</time>
      </trkpt>
      <trkpt lat="48.49262" lon="3.73656">
        <ele>75.7</ele>
        <time>2014-09-20T13:02:46Z</time>
      </trkpt>
      <trkpt lat="48.49257" lon="3.73657">
        <ele>75.63</ele>
        <time>2014-09-20T13:02:47Z</time>
      </trkpt>
      <trkpt lat="48.49252" lon="3.73659">
        <ele>75.58</ele>
        <time>2014-09-20T13:02:48Z</time>
      </trkpt>
      <trkpt lat="48.49247" lon="3.7366">
        <ele>75.54</ele>
        <time>2014-09-20T13:02:49Z</time>
      </trkpt>
      <trkpt lat="48.49243" lon="3.73661">
        <ele>75.51</ele>
        <time>2014-09-20T13:02:50Z</time>
      </trkpt>
      <trkpt lat="48.49238" lon="3.73662">
        <ele>75.47</ele>
        <time>2014-09-20T13:02:51Z</time>
      </trkpt>
      <trkpt lat="48.49233" lon="3.73663">
        <ele>75.43</ele>
        <time>2014-09-20T13:02:52Z</time>
      </trkpt>
      <trkpt lat="48.49229" lon="3.73664">
        <ele>75.41</ele>
        <time>2014-09-20T13:02:53Z</time>
      </trkpt>
      <trkpt lat="48.49224" lon="3.73666">
        <ele>75.41</ele>
        <time>2014-09-20T13:02:54Z</time>
      </trkpt>
      <trkpt lat="48.4922" lon="3.73669">
        <ele>75.42</ele>
        <time>2014-09-20T13:02:55Z</time>
      </trkpt>
      <trkpt lat="48.49216" lon="3.73673">
        <ele>75.44</ele>
        <time>2014-09-20T13:02:56Z</time>
      </trkpt>
      <trkpt lat="48.49214" lon="3.73679">
        <ele>75.49</ele>
        <time>2014-09-20T13:02:57Z</time>
      </trkpt>
      <trkpt lat="48.49213" lon="3.73686">
        <ele>75.57</ele>
        <time>2014-09-20T13:02:58Z</time>
      </trkpt>
      <trkpt lat="48.49213" lon="3.73692">
        <ele>75.61</ele>
        <time>2014-09-20T13:02:59Z</time>
      </trkpt>
      <trkpt lat="48.49213" lon="3.73699">
        <ele>75.62</ele>
        <time>2014-09-20T13:03:00Z</time>
      </trkpt>
      <trkpt lat="48.49214" lon="3.73706">
        <ele>75.57</ele>
        <time>2014-09-20T13:03:01Z</time>
      </trkpt>
      <trkpt lat="48.49215" lon="3.73713">
        <ele>75.53</ele>
        <time>2014-09-20T13:03:02Z</time>
      </trkpt>
      <trkpt lat="48.49216" lon="3.7372">
        <ele>75.53</ele>
        <time>2014-09-20T13:03:03Z</time>
      </trkpt>
      <trkpt lat="48.49218" lon="3.73727">
        <ele>75.56</ele>
        <time>2014-09-20T13:03:04Z</time>
      </trkpt>
      <trkpt lat="48.49219" lon="3.73734">
        <ele>75.6</ele>
        <time>2014-09-20T13:03:05Z</time>
      </trkpt>
      <trkpt lat="48.49221" lon="3.73741">
        <ele>75.63</ele>
        <time>2014-09-20T13:03:06Z</time>
      </trkpt>
      <trkpt lat="48.49222" lon="3.73747">
        <ele>75.66</ele>
        <time>2014-09-20T13:03:07Z</time>
      </trkpt>
      <trkpt lat="48.49223" lon="3.73754">
        <ele>75.67</ele>
        <time>2014-09-20T13:03:08Z</time>
      </trkpt>
      <trkpt lat="48.49224" lon="3.73761">
        <ele>75.69</ele>
        <time>2014-09-20T13:03:09Z</time>
      </trkpt>
      <trkpt lat="48.49225" lon="3.73768">
        <ele>75.7</ele>
        <time>2014-09-20T13:03:10Z</time>
      </trkpt>
      <trkpt lat="48.49226" lon="3.73775">
        <ele>75.73</ele>
        <time>2014-09-20T13:03:11Z</time>
      </trkpt>
      <trkpt lat="48.49227" lon="3.73782">
        <ele>75.83</ele>
        <time>2014-09-20T13:03:12Z</time>
      </trkpt>
      <trkpt lat="48.49224" lon="3.73793">
        <ele>76.21</ele>
        <time>2014-09-20T13:03:14Z</time>
      </trkpt>
      <trkpt lat="48.49217" lon="3.73799">
        <ele>76.64</ele>
        <time>2014-09-20T13:03:16Z</time>
      </trkpt>
      <trkpt lat="48.49209" lon="3.73801">
        <ele>76.9</ele>
        <time>2014-09-20T13:03:18Z</time>
      </trkpt>
      <trkpt lat="48.49201" lon="3.73801">
        <ele>77.02</ele>
        <time>2014-09-20T13:03:20Z</time>
      </trkpt>
      <trkpt lat="48.49192" lon="3.73802">
        <ele>77.11</ele>
        <time>2014-09-20T13:03:22Z</time>
      </trkpt>
      <trkpt lat="48.49183" lon="3.73803">
        <ele>77.16</ele>
        <time>2014-09-20T13:03:24Z</time>
      </trkpt>
      <trkpt lat="48.49175" lon="3.73804">
        <ele>77.23</ele>
        <time>2014-09-20T13:03:26Z</time>
      </trkpt>
      <trkpt lat="48.49166" lon="3.73806">
        <ele>77.32</ele>
        <time>2014-09-20T13:03:28Z</time>
      </trkpt>
      <trkpt lat="48.49158" lon="3.73806">
        <ele>77.37</ele>
        <time>2014-09-20T13:03:30Z</time>
      </trkpt>
      <trkpt lat="48.49149" lon="3.73807">
        <ele>77.37</ele>
        <time>2014-09-20T13:03:32Z</time>
      </trkpt>
      <trkpt lat="48.4914" lon="3.73808">
        <ele>77.35</ele>
        <time>2014-09-20T13:03:34Z</time>
      </trkpt>
      <trkpt lat="48.49136" lon="3.73808">
        <ele>77.35</ele>
        <time>2014-09-20T13:03:35Z</time>
      </trkpt>
      <trkpt lat="48.49131" lon="3.73809">
        <ele>77.34</ele>
        <time>2014-09-20T13:03:36Z</time>
      </trkpt>
      <trkpt lat="48.49126" lon="3.73809">
        <ele>77.34</ele>
        <time>2014-09-20T13:03:37Z</time>
      </trkpt>
      <trkpt lat="48.49121" lon="3.73809">
        <ele>77.34</ele>
        <time>2014-09-20T13:03:38Z</time>
      </trkpt>
      <trkpt lat="48.49117" lon="3.7381">
        <ele>77.33</ele>
        <time>2014-09-20T13:03:39Z</time>
      </trkpt>
      <trkpt lat="48.49112" lon="3.73811">
        <ele>77.31</ele>
        <time>2014-09-20T13:03:40Z</time>
      </trkpt>
      <trkpt lat="48.49107" lon="3.73812">
        <ele>77.29</ele>
        <time>2014-09-20T13:03:41Z</time>
      </trkpt>
      <trkpt lat="48.49102" lon="3.73813">
        <ele>77.27</ele>
        <time>2014-09-20T13:03:42Z</time>
      </trkpt>
      <trkpt lat="48.49098" lon="3.73814">
        <ele>77.26</ele>
        <time>2014-09-20T13:03:43Z</time>
      </trkpt>
      <trkpt lat="48.49093" lon="3.73814">
        <ele>77.25</ele>
        <time>2014-09-20T13:03:44Z</time>
      </trkpt>
      <trkpt lat="48.49088" lon="3.73814">
        <ele>77.25</ele>
        <time>2014-09-20T13:03:45Z</time>
      </trkpt>
      <trkpt lat="48.49084" lon="3.73815">
        <ele>77.24</ele>
        <time>2014-09-20T13:03:46Z</time>
      </trkpt>
      <trkpt lat="48.49079" lon="3.73816">
        <ele>77.24</ele>
        <time>2014-09-20T13:03:47Z</time>
      </trkpt>
      <trkpt lat="48.49074" lon="3.73816">
        <ele>77.24</ele>
        <time>2014-09-20T13:03:48Z</time>
      </trkpt>
      <trkpt lat="48.4907" lon="3.73817">
        <ele>77.23</ele>
        <time>2014-09-20T13:03:49Z</time>
      </trkpt>
      <trkpt lat="48.49065" lon="3.73817">
        <ele>77.23</ele>
        <time>2014-09-20T13:03:50Z</time>
      </trkpt>
      <trkpt lat="48.49061" lon="3.73818">
        <ele>77.23</ele>
        <time>2014-09-20T13:03:51Z</time>
      </trkpt>
      <trkpt lat="48.49056" lon="3.73819">
        <ele>77.23</ele>
        <time>2014-09-20T13:03:52Z</time>
      </trkpt>
      <trkpt lat="48.49052" lon="3.73819">
        <ele>77.25</ele>
        <time>2014-09-20T13:03:53Z</time>
      </trkpt>
      <trkpt lat="48.49047" lon="3.7382">
        <ele>77.27</ele>
        <time>2014-09-20T13:03:54Z</time>
      </trkpt>
      <trkpt lat="48.49038" lon="3.73821">
        <ele>77.3</ele>
        <time>2014-09-20T13:03:56Z</time>
      </trkpt>
      <trkpt lat="48.4903" lon="3.73823">
        <ele>77.31</ele>
        <time>2014-09-20T13:03:58Z</time>
      </trkpt>
      <trkpt lat="48.49021" lon="3.73824">
        <ele>77.32</ele>
        <time>2014-09-20T13:04:00Z</time>
      </trkpt>
      <trkpt lat="48.49012" lon="3.73825">
        <ele>77.32</ele>
        <time>2014-09-20T13:04:02Z</time>
      </trkpt>
      <trkpt lat="48.49007" lon="3.73826">
        <ele>77.3</ele>
        <time>2014-09-20T13:04:03Z</time>
      </trkpt>
      <trkpt lat="48.49003" lon="3.73827">
        <ele>77.28</ele>
        <time>2014-09-20T13:04:04Z</time>
      </trkpt>
      <trkpt lat="48.48998" lon="3.73828">
        <ele>77.27</ele>
        <time>2014-09-20T13:04:05Z</time>
      </trkpt>
      <trkpt lat="48.48994" lon="3.73829">
        <ele>77.26</ele>
        <time>2014-09-20T13:04:06Z</time>
      </trkpt>
      <trkpt lat="48.48989" lon="3.7383">
        <ele>77.25</ele>
        <time>2014-09-20T13:04:07Z</time>
      </trkpt>
      <trkpt lat="48.48985" lon="3.7383">
        <ele>77.24</ele>
        <time>2014-09-20T13:04:08Z</time>
      </trkpt>
      <trkpt lat="48.48976" lon="3.73831">
        <ele>77.26</ele>
        <time>2014-09-20T13:04:10Z</time>
      </trkpt>
      <trkpt lat="48.48967" lon="3.73832">
        <ele>77.29</ele>
        <time>2014-09-20T13:04:12Z</time>
      </trkpt>
      <trkpt lat="48.48959" lon="3.73833">
        <ele>77.31</ele>
        <time>2014-09-20T13:04:14Z</time>
      </trkpt>
      <trkpt lat="48.4895" lon="3.73835">
        <ele>77.29</ele>
        <time>2014-09-20T13:04:16Z</time>
      </trkpt>
      <trkpt lat="48.48941" lon="3.73836">
        <ele>77.26</ele>
        <time>2014-09-20T13:04:18Z</time>
      </trkpt>
      <trkpt lat="48.48932" lon="3.73837">
        <ele>77.25</ele>
        <time>2014-09-20T13:04:20Z</time>
      </trkpt>
      <trkpt lat="48.48924" lon="3.73839">
        <ele>77.24</ele>
        <time>2014-09-20T13:04:22Z</time>
      </trkpt>
      <trkpt lat="48.48915" lon="3.7384">
        <ele>77.23</ele>
        <time>2014-09-20T13:04:24Z</time>
      </trkpt>
      <trkpt lat="48.48906" lon="3.73842">
        <ele>77.23</ele>
        <time>2014-09-20T13:04:26Z</time>
      </trkpt>
      <trkpt lat="48.48898" lon="3.73843">
        <ele>77.23</ele>
        <time>2014-09-20T13:04:28Z</time>
      </trkpt>
      <trkpt lat="48.4889" lon="3.73844">
        <ele>77.23</ele>
        <time>2014-09-20T13:04:30Z</time>
      </trkpt>
      <trkpt lat="48.48881" lon="3.73845">
        <ele>77.23</ele>
        <time>2014-09-20T13:04:32Z</time>
      </trkpt>
      <trkpt lat="48.48876" lon="3.73845">
        <ele>77.25</ele>
        <time>2014-09-20T13:04:33Z</time>
      </trkpt>
      <trkpt lat="48.48872" lon="3.73846">
        <ele>77.3</ele>
        <time>2014-09-20T13:04:34Z</time>
      </trkpt>
      <trkpt lat="48.48867" lon="3.73847">
        <ele>77.35</ele>
        <time>2014-09-20T13:04:35Z</time>
      </trkpt>
      <trkpt lat="48.48859" lon="3.73848">
        <ele>77.43</ele>
        <time>2014-09-20T13:04:37Z</time>
      </trkpt>
      <trkpt lat="48.4885" lon="3.73849">
        <ele>77.47</ele>
        <time>2014-09-20T13:04:39Z</time>
      </trkpt>
      <trkpt lat="48.48841" lon="3.73849">
        <ele>77.47</ele>
        <time>2014-09-20T13:04:41Z</time>
      </trkpt>
      <trkpt lat="48.48836" lon="3.7385">
        <ele>77.46</ele>
        <time>2014-09-20T13:04:42Z</time>
      </trkpt>
      <trkpt lat="48.48832" lon="3.7385">
        <ele>77.45</ele>
        <time>2014-09-20T13:04:43Z</time>
      </trkpt>
      <trkpt lat="48.48827" lon="3.7385">
        <ele>77.45</ele>
        <time>2014-09-20T13:04:44Z</time>
      </trkpt>
      <trkpt lat="48.48823" lon="3.73851">
        <ele>77.42</ele>
        <time>2014-09-20T13:04:45Z</time>
      </trkpt>
      <trkpt lat="48.48818" lon="3.73851">
        <ele>77.39</ele>
        <time>2014-09-20T13:04:46Z</time>
      </trkpt>
      <trkpt lat="48.48813" lon="3.73852">
        <ele>77.38</ele>
        <time>2014-09-20T13:04:47Z</time>
      </trkpt>
      <trkpt lat="48.48809" lon="3.73853">
        <ele>77.37</ele>
        <time>2014-09-20T13:04:48Z</time>
      </trkpt>
      <trkpt lat="48.488" lon="3.73852">
        <ele>77.37</ele>
        <time>2014-09-20T13:04:50Z</time>
      </trkpt>
      <trkpt lat="48.48791" lon="3.73853">
        <ele>77.38</ele>
        <time>2014-09-20T13:04:52Z</time>
      </trkpt>
      <trkpt lat="48.48783" lon="3.73855">
        <ele>77.4</ele>
        <time>2014-09-20T13:04:54Z</time>
      </trkpt>
      <trkpt lat="48.48774" lon="3.73856">
        <ele>77.44</ele>
        <time>2014-09-20T13:04:56Z</time>
      </trkpt>
      <trkpt lat="48.48766" lon="3.73858">
        <ele>77.48</ele>
        <time>2014-09-20T13:04:58Z</time>
      </trkpt>
      <trkpt lat="48.48757" lon="3.73859">
        <ele>77.52</ele>
        <time>2014-09-20T13:05:00Z</time>
      </trkpt>
      <trkpt lat="48.48749" lon="3.7386">
        <ele>77.57</ele>
        <time>2014-09-20T13:05:02Z</time>
      </trkpt>
      <trkpt lat="48.4874" lon="3.73862">
        <ele>77.6</ele>
        <time>2014-09-20T13:05:04Z</time>
      </trkpt>
      <trkpt lat="48.48732" lon="3.73863">
        <ele>77.61</ele>
        <time>2014-09-20T13:05:06Z</time>
      </trkpt>
      <trkpt lat="48.48723" lon="3.73865">
        <ele>77.62</ele>
        <time>2014-09-20T13:05:08Z</time>
      </trkpt>
      <trkpt lat="48.48715" lon="3.73866">
        <ele>77.62</ele>
        <time>2014-09-20T13:05:10Z</time>
      </trkpt>
      <trkpt lat="48.48706" lon="3.73867">
        <ele>77.58</ele>
        <time>2014-09-20T13:05:12Z</time>
      </trkpt>
      <trkpt lat="48.48697" lon="3.73868">
        <ele>77.53</ele>
        <time>2014-09-20T13:05:14Z</time>
      </trkpt>
      <trkpt lat="48.48692" lon="3.73868">
        <ele>77.51</ele>
        <time>2014-09-20T13:05:15Z</time>
      </trkpt>
      <trkpt lat="48.48687" lon="3.73869">
        <ele>77.46</ele>
        <time>2014-09-20T13:05:16Z</time>
      </trkpt>
      <trkpt lat="48.48683" lon="3.73869">
        <ele>77.43</ele>
        <time>2014-09-20T13:05:17Z</time>
      </trkpt>
      <trkpt lat="48.48678" lon="3.7387">
        <ele>77.4</ele>
        <time>2014-09-20T13:05:18Z</time>
      </trkpt>
      <trkpt lat="48.48674" lon="3.73872">
        <ele>77.36</ele>
        <time>2014-09-20T13:05:19Z</time>
      </trkpt>
      <trkpt lat="48.48669" lon="3.73873">
        <ele>77.33</ele>
        <time>2014-09-20T13:05:20Z</time>
      </trkpt>
      <trkpt lat="48.48664" lon="3.73874">
        <ele>77.3</ele>
        <time>2014-09-20T13:05:21Z</time>
      </trkpt>
      <trkpt lat="48.4866" lon="3.73874">
        <ele>77.28</ele>
        <time>2014-09-20T13:05:22Z</time>
      </trkpt>
      <trkpt lat="48.48651" lon="3.73875">
        <ele>77.22</ele>
        <time>2014-09-20T13:05:24Z</time>
      </trkpt>
      <trkpt lat="48.48646" lon="3.73876">
        <ele>77.19</ele>
        <time>2014-09-20T13:05:25Z</time>
      </trkpt>
      <trkpt lat="48.48642" lon="3.73877">
        <ele>77.18</ele>
        <time>2014-09-20T13:05:26Z</time>
      </trkpt>
      <trkpt lat="48.48637" lon="3.73877">
        <ele>77.16</ele>
        <time>2014-09-20T13:05:27Z</time>
      </trkpt>
      <trkpt lat="48.48633" lon="3.73878">
        <ele>77.16</ele>
        <time>2014-09-20T13:05:28Z</time>
      </trkpt>
      <trkpt lat="48.48628" lon="3.73879">
        <ele>77.15</ele>
        <time>2014-09-20T13:05:29Z</time>
      </trkpt>
      <trkpt lat="48.48623" lon="3.73879">
        <ele>77.17</ele>
        <time>2014-09-20T13:05:30Z</time>
      </trkpt>
      <trkpt lat="48.48619" lon="3.7388">
        <ele>77.18</ele>
        <time>2014-09-20T13:05:31Z</time>
      </trkpt>
      <trkpt lat="48.48614" lon="3.73881">
        <ele>77.19</ele>
        <time>2014-09-20T13:05:32Z</time>
      </trkpt>
      <trkpt lat="48.4861" lon="3.73881">
        <ele>77.2</ele>
        <time>2014-09-20T13:05:33Z</time>
      </trkpt>
      <trkpt lat="48.48605" lon="3.73882">
        <ele>77.21</ele>
        <time>2014-09-20T13:05:34Z</time>
      </trkpt>
      <trkpt lat="48.48601" lon="3.73883">
        <ele>77.19</ele>
        <time>2014-09-20T13:05:35Z</time>
      </trkpt>
      <trkpt lat="48.48596" lon="3.73883">
        <ele>77.17</ele>
        <time>2014-09-20T13:05:36Z</time>
      </trkpt>
      <trkpt lat="48.48591" lon="3.73884">
        <ele>77.16</ele>
        <time>2014-09-20T13:05:37Z</time>
      </trkpt>
      <trkpt lat="48.48587" lon="3.73885">
        <ele>77.18</ele>
        <time>2014-09-20T13:05:38Z</time>
      </trkpt>
      <trkpt lat="48.48582" lon="3.73885">
        <ele>77.19</ele>
        <time>2014-09-20T13:05:39Z</time>
      </trkpt>
      <trkpt lat="48.48578" lon="3.73886">
        <ele>77.2</ele>
        <time>2014-09-20T13:05:40Z</time>
      </trkpt>
      <trkpt lat="48.48573" lon="3.73886">
        <ele>77.21</ele>
        <time>2014-09-20T13:05:41Z</time>
      </trkpt>
      <trkpt lat="48.48569" lon="3.73886">
        <ele>77.21</ele>
        <time>2014-09-20T13:05:42Z</time>
      </trkpt>
      <trkpt lat="48.48564" lon="3.73888">
        <ele>77.19</ele>
        <time>2014-09-20T13:05:43Z</time>
      </trkpt>
      <trkpt lat="48.4856" lon="3.73889">
        <ele>77.18</ele>
        <time>2014-09-20T13:05:44Z</time>
      </trkpt>
      <trkpt lat="48.48555" lon="3.73889">
        <ele>77.14</ele>
        <time>2014-09-20T13:05:45Z</time>
      </trkpt>
      <trkpt lat="48.4855" lon="3.7389">
        <ele>77.11</ele>
        <time>2014-09-20T13:05:46Z</time>
      </trkpt>
      <trkpt lat="48.48546" lon="3.7389">
        <ele>77.09</ele>
        <time>2014-09-20T13:05:47Z</time>
      </trkpt>
      <trkpt lat="48.48541" lon="3.73891">
        <ele>77.07</ele>
        <time>2014-09-20T13:05:48Z</time>
      </trkpt>
      <trkpt lat="48.48536" lon="3.73891">
        <ele>77.06</ele>
        <time>2014-09-20T13:05:49Z</time>
      </trkpt>
      <trkpt lat="48.48532" lon="3.73892">
        <ele>77.05</ele>
        <time>2014-09-20T13:05:50Z</time>
      </trkpt>
      <trkpt lat="48.48527" lon="3.73892">
        <ele>77.05</ele>
        <time>2014-09-20T13:05:51Z</time>
      </trkpt>
      <trkpt lat="48.48523" lon="3.73892">
        <ele>77.04</ele>
        <time>2014-09-20T13:05:52Z</time>
      </trkpt>
      <trkpt lat="48.48518" lon="3.73892">
        <ele>77.04</ele>
        <time>2014-09-20T13:05:53Z</time>
      </trkpt>
      <trkpt lat="48.48514" lon="3.73892">
        <ele>77.04</ele>
        <time>2014-09-20T13:05:54Z</time>
      </trkpt>
      <trkpt lat="48.48509" lon="3.73892">
        <ele>77.03</ele>
        <time>2014-09-20T13:05:55Z</time>
      </trkpt>
      <trkpt lat="48.48505" lon="3.73893">
        <ele>77.03</ele>
        <time>2014-09-20T13:05:56Z</time>
      </trkpt>
      <trkpt lat="48.485" lon="3.73893">
        <ele>77.03</ele>
        <time>2014-09-20T13:05:57Z</time>
      </trkpt>
      <trkpt lat="48.48495" lon="3.73894">
        <ele>77.03</ele>
        <time>2014-09-20T13:05:58Z</time>
      </trkpt>
      <trkpt lat="48.48491" lon="3.73894">
        <ele>77.03</ele>
        <time>2014-09-20T13:05:59Z</time>
      </trkpt>
      <trkpt lat="48.48486" lon="3.73895">
        <ele>77.03</ele>
        <time>2014-09-20T13:06:00Z</time>
      </trkpt>
      <trkpt lat="48.48482" lon="3.73896">
        <ele>77.03</ele>
        <time>2014-09-20T13:06:01Z</time>
      </trkpt>
      <trkpt lat="48.48473" lon="3.73897">
        <ele>77.07</ele>
        <time>2014-09-20T13:06:03Z</time>
      </trkpt>
      <trkpt lat="48.48464" lon="3.73899">
        <ele>77.12</ele>
        <time>2014-09-20T13:06:05Z</time>
      </trkpt>
      <trkpt lat="48.48456" lon="3.739">
        <ele>77.21</ele>
        <time>2014-09-20T13:06:07Z</time>
      </trkpt>
      <trkpt lat="48.48448" lon="3.73902">
        <ele>77.29</ele>
        <time>2014-09-20T13:06:09Z</time>
      </trkpt>
      <trkpt lat="48.48442" lon="3.73904">
        <ele>77.44</ele>
        <time>2014-09-20T13:06:11Z</time>
      </trkpt>
      <trkpt lat="48.48435" lon="3.73905">
        <ele>77.56</ele>
        <time>2014-09-20T13:06:13Z</time>
      </trkpt>
      <trkpt lat="48.48428" lon="3.73908">
        <ele>77.7</ele>
        <time>2014-09-20T13:06:15Z</time>
      </trkpt>
      <trkpt lat="48.48419" lon="3.73909">
        <ele>77.78</ele>
        <time>2014-09-20T13:06:17Z</time>
      </trkpt>
      <trkpt lat="48.48411" lon="3.7391">
        <ele>77.84</ele>
        <time>2014-09-20T13:06:19Z</time>
      </trkpt>
      <trkpt lat="48.48406" lon="3.7391">
        <ele>77.86</ele>
        <time>2014-09-20T13:06:20Z</time>
      </trkpt>
      <trkpt lat="48.48401" lon="3.7391">
        <ele>77.88</ele>
        <time>2014-09-20T13:06:21Z</time>
      </trkpt>
      <trkpt lat="48.48397" lon="3.7391">
        <ele>77.92</ele>
        <time>2014-09-20T13:06:22Z</time>
      </trkpt>
      <trkpt lat="48.48392" lon="3.73911">
        <ele>77.94</ele>
        <time>2014-09-20T13:06:23Z</time>
      </trkpt>
      <trkpt lat="48.48387" lon="3.73911">
        <ele>77.97</ele>
        <time>2014-09-20T13:06:24Z</time>
      </trkpt>
      <trkpt lat="48.48382" lon="3.73911">
        <ele>78.01</ele>
        <time>2014-09-20T13:06:25Z</time>
      </trkpt>
      <trkpt lat="48.48378" lon="3.73911">
        <ele>78.04</ele>
        <time>2014-09-20T13:06:26Z</time>
      </trkpt>
      <trkpt lat="48.48373" lon="3.73912">
        <ele>78.06</ele>
        <time>2014-09-20T13:06:27Z</time>
      </trkpt>
      <trkpt lat="48.48368" lon="3.73912">
        <ele>78.1</ele>
        <time>2014-09-20T13:06:28Z</time>
      </trkpt>
      <trkpt lat="48.48363" lon="3.73912">
        <ele>78.13</ele>
        <time>2014-09-20T13:06:29Z</time>
      </trkpt>
      <trkpt lat="48.48359" lon="3.73912">
        <ele>78.18</ele>
        <time>2014-09-20T13:06:30Z</time>
      </trkpt>
      <trkpt lat="48.48354" lon="3.73913">
        <ele>78.22</ele>
        <time>2014-09-20T13:06:31Z</time>
      </trkpt>
      <trkpt lat="48.4835" lon="3.73913">
        <ele>78.27</ele>
        <time>2014-09-20T13:06:32Z</time>
      </trkpt>
      <trkpt lat="48.48345" lon="3.73913">
        <ele>78.31</ele>
        <time>2014-09-20T13:06:33Z</time>
      </trkpt>
      <trkpt lat="48.48341" lon="3.73914">
        <ele>78.34</ele>
        <time>2014-09-20T13:06:34Z</time>
      </trkpt>
      <trkpt lat="48.48336" lon="3.73914">
        <ele>78.36</ele>
        <time>2014-09-20T13:06:35Z</time>
      </trkpt>
      <trkpt lat="48.48331" lon="3.73914">
        <ele>78.4</ele>
        <time>2014-09-20T13:06:36Z</time>
      </trkpt>
      <trkpt lat="48.48327" lon="3.73914">
        <ele>78.43</ele>
        <time>2014-09-20T13:06:37Z</time>
      </trkpt>
      <trkpt lat="48.48322" lon="3.73914">
        <ele>78.43</ele>
        <time>2014-09-20T13:06:38Z</time>
      </trkpt>
      <trkpt lat="48.48318" lon="3.73915">
        <ele>78.46</ele>
        <time>2014-09-20T13:06:39Z</time>
      </trkpt>
      <trkpt lat="48.48313" lon="3.73915">
        <ele>78.47</ele>
        <time>2014-09-20T13:06:40Z</time>
      </trkpt>
      <trkpt lat="48.48308" lon="3.73916">
        <ele>78.46</ele>
        <time>2014-09-20T13:06:41Z</time>
      </trkpt>
      <trkpt lat="48.48303" lon="3.73916">
        <ele>78.45</ele>
        <time>2014-09-20T13:06:42Z</time>
      </trkpt>
      <trkpt lat="48.48299" lon="3.73916">
        <ele>78.45</ele>
        <time>2014-09-20T13:06:43Z</time>
      </trkpt>
      <trkpt lat="48.48294" lon="3.73916">
        <ele>78.42</ele>
        <time>2014-09-20T13:06:44Z</time>
      </trkpt>
      <trkpt lat="48.48289" lon="3.73916">
        <ele>78.4</ele>
        <time>2014-09-20T13:06:45Z</time>
      </trkpt>
      <trkpt lat="48.48284" lon="3.73916">
        <ele>78.38</ele>
        <time>2014-09-20T13:06:46Z</time>
      </trkpt>
      <trkpt lat="48.48279" lon="3.73917">
        <ele>78.34</ele>
        <time>2014-09-20T13:06:47Z</time>
      </trkpt>
      <trkpt lat="48.48274" lon="3.73917">
        <ele>78.31</ele>
        <time>2014-09-20T13:06:48Z</time>
      </trkpt>
      <trkpt lat="48.48269" lon="3.73918">
        <ele>78.29</ele>
        <time>2014-09-20T13:06:49Z</time>
      </trkpt>
      <trkpt lat="48.48264" lon="3.73918">
        <ele>78.28</ele>
        <time>2014-09-20T13:06:50Z</time>
      </trkpt>
      <trkpt lat="48.48258" lon="3.73918">
        <ele>78.26</ele>
        <time>2014-09-20T13:06:51Z</time>
      </trkpt>
      <trkpt lat="48.48253" lon="3.73918">
        <ele>78.25</ele>
        <time>2014-09-20T13:06:52Z</time>
      </trkpt>
      <trkpt lat="48.48248" lon="3.73919">
        <ele>78.25</ele>
        <time>2014-09-20T13:06:53Z</time>
      </trkpt>
      <trkpt lat="48.48243" lon="3.73919">
        <ele>78.27</ele>
        <time>2014-09-20T13:06:54Z</time>
      </trkpt>
      <trkpt lat="48.48238" lon="3.73919">
        <ele>78.28</ele>
        <time>2014-09-20T13:06:55Z</time>
      </trkpt>
      <trkpt lat="48.48234" lon="3.7392">
        <ele>78.29</ele>
        <time>2014-09-20T13:06:56Z</time>
      </trkpt>
      <trkpt lat="48.48229" lon="3.7392">
        <ele>78.33</ele>
        <time>2014-09-20T13:06:57Z</time>
      </trkpt>
      <trkpt lat="48.48224" lon="3.7392">
        <ele>78.35</ele>
        <time>2014-09-20T13:06:58Z</time>
      </trkpt>
      <trkpt lat="48.48219" lon="3.73921">
        <ele>78.37</ele>
        <time>2014-09-20T13:06:59Z</time>
      </trkpt>
      <trkpt lat="48.48214" lon="3.73921">
        <ele>78.39</ele>
        <time>2014-09-20T13:07:00Z</time>
      </trkpt>
      <trkpt lat="48.48209" lon="3.73921">
        <ele>78.4</ele>
        <time>2014-09-20T13:07:01Z</time>
      </trkpt>
      <trkpt lat="48.48204" lon="3.73921">
        <ele>78.4</ele>
        <time>2014-09-20T13:07:02Z</time>
      </trkpt>
      <trkpt lat="48.48199" lon="3.73921">
        <ele>78.41</ele>
        <time>2014-09-20T13:07:03Z</time>
      </trkpt>
      <trkpt lat="48.48195" lon="3.73921">
        <ele>78.41</ele>
        <time>2014-09-20T13:07:04Z</time>
      </trkpt>
      <trkpt lat="48.4819" lon="3.73921">
        <ele>78.42</ele>
        <time>2014-09-20T13:07:05Z</time>
      </trkpt>
      <trkpt lat="48.48185" lon="3.73922">
        <ele>78.45</ele>
        <time>2014-09-20T13:07:06Z</time>
      </trkpt>
      <trkpt lat="48.48181" lon="3.73923">
        <ele>78.47</ele>
        <time>2014-09-20T13:07:07Z</time>
      </trkpt>
      <trkpt lat="48.48177" lon="3.73927">
        <ele>78.46</ele>
        <time>2014-09-20T13:07:08Z</time>
      </trkpt>
      <trkpt lat="48.48173" lon="3.73931">
        <ele>78.47</ele>
        <time>2014-09-20T13:07:09Z</time>
      </trkpt>
      <trkpt lat="48.4817" lon="3.73936">
        <ele>78.49</ele>
        <time>2014-09-20T13:07:10Z</time>
      </trkpt>
      <trkpt lat="48.48167" lon="3.73941">
        <ele>78.52</ele>
        <time>2014-09-20T13:07:11Z</time>
      </trkpt>
      <trkpt lat="48.48165" lon="3.73947">
        <ele>78.57</ele>
        <time>2014-09-20T13:07:12Z</time>
      </trkpt>
      <trkpt lat="48.48162" lon="3.73953">
        <ele>78.64</ele>
        <time>2014-09-20T13:07:13Z</time>
      </trkpt>
      <trkpt lat="48.4816" lon="3.73959">
        <ele>78.71</ele>
        <time>2014-09-20T13:07:14Z</time>
      </trkpt>
      <trkpt lat="48.48158" lon="3.73966">
        <ele>78.79</ele>
        <time>2014-09-20T13:07:15Z</time>
      </trkpt>
      <trkpt lat="48.48156" lon="3.73972">
        <ele>78.85</ele>
        <time>2014-09-20T13:07:16Z</time>
      </trkpt>
      <trkpt lat="48.48154" lon="3.73979">
        <ele>78.92</ele>
        <time>2014-09-20T13:07:17Z</time>
      </trkpt>
      <trkpt lat="48.48152" lon="3.73985">
        <ele>79</ele>
        <time>2014-09-20T13:07:18Z</time>
      </trkpt>
      <trkpt lat="48.4815" lon="3.73992">
        <ele>79.05</ele>
        <time>2014-09-20T13:07:19Z</time>
      </trkpt>
      <trkpt lat="48.48148" lon="3.73998">
        <ele>79.12</ele>
        <time>2014-09-20T13:07:20Z</time>
      </trkpt>
      <trkpt lat="48.48146" lon="3.74005">
        <ele>79.2</ele>
        <time>2014-09-20T13:07:21Z</time>
      </trkpt>
      <trkpt lat="48.48144" lon="3.74011">
        <ele>79.28</ele>
        <time>2014-09-20T13:07:22Z</time>
      </trkpt>
      <trkpt lat="48.48143" lon="3.74018">
        <ele>79.34</ele>
        <time>2014-09-20T13:07:23Z</time>
      </trkpt>
      <trkpt lat="48.48141" lon="3.74025">
        <ele>79.41</ele>
        <time>2014-09-20T13:07:24Z</time>
      </trkpt>
      <trkpt lat="48.48139" lon="3.74031">
        <ele>79.47</ele>
        <time>2014-09-20T13:07:25Z</time>
      </trkpt>
      <trkpt lat="48.48137" lon="3.74038">
        <ele>79.51</ele>
        <time>2014-09-20T13:07:26Z</time>
      </trkpt>
      <trkpt lat="48.48136" lon="3.74045">
        <ele>79.54</ele>
        <time>2014-09-20T13:07:27Z</time>
      </trkpt>
      <trkpt lat="48.48134" lon="3.74051">
        <ele>79.59</ele>
        <time>2014-09-20T13:07:28Z</time>
      </trkpt>
      <trkpt lat="48.48132" lon="3.74058">
        <ele>79.62</ele>
        <time>2014-09-20T13:07:29Z</time>
      </trkpt>
      <trkpt lat="48.4813" lon="3.74065">
        <ele>79.65</ele>
        <time>2014-09-20T13:07:30Z</time>
      </trkpt>
      <trkpt lat="48.48129" lon="3.74071">
        <ele>79.67</ele>
        <time>2014-09-20T13:07:31Z</time>
      </trkpt>
      <trkpt lat="48.48127" lon="3.74078">
        <ele>79.68</ele>
        <time>2014-09-20T13:07:32Z</time>
      </trkpt>
      <trkpt lat="48.48126" lon="3.74085">
        <ele>79.69</ele>
        <time>2014-09-20T13:07:33Z</time>
      </trkpt>
      <trkpt lat="48.48124" lon="3.74092">
        <ele>79.7</ele>
        <time>2014-09-20T13:07:34Z</time>
      </trkpt>
      <trkpt lat="48.48123" lon="3.74099">
        <ele>79.71</ele>
        <time>2014-09-20T13:07:35Z</time>
      </trkpt>
      <trkpt lat="48.48122" lon="3.74107">
        <ele>79.71</ele>
        <time>2014-09-20T13:07:36Z</time>
      </trkpt>
      <trkpt lat="48.48121" lon="3.74114">
        <ele>79.72</ele>
        <time>2014-09-20T13:07:37Z</time>
      </trkpt>
      <trkpt lat="48.48119" lon="3.74121">
        <ele>79.69</ele>
        <time>2014-09-20T13:07:38Z</time>
      </trkpt>
      <trkpt lat="48.48118" lon="3.74129">
        <ele>79.68</ele>
        <time>2014-09-20T13:07:39Z</time>
      </trkpt>
      <trkpt lat="48.48117" lon="3.74136">
        <ele>79.64</ele>
        <time>2014-09-20T13:07:40Z</time>
      </trkpt>
      <trkpt lat="48.48116" lon="3.74144">
        <ele>79.61</ele>
        <time>2014-09-20T13:07:41Z</time>
      </trkpt>
      <trkpt lat="48.48115" lon="3.74152">
        <ele>79.57</ele>
        <time>2014-09-20T13:07:42Z</time>
      </trkpt>
      <trkpt lat="48.48114" lon="3.74159">
        <ele>79.53</ele>
        <time>2014-09-20T13:07:43Z</time>
      </trkpt>
      <trkpt lat="48.48113" lon="3.74167">
        <ele>79.48</ele>
        <time>2014-09-20T13:07:44Z</time>
      </trkpt>
      <trkpt lat="48.48112" lon="3.74175">
        <ele>79.44</ele>
        <time>2014-09-20T13:07:45Z</time>
      </trkpt>
      <trkpt lat="48.4811" lon="3.74183">
        <ele>79.41</ele>
        <time>2014-09-20T13:07:46Z</time>
      </trkpt>
      <trkpt lat="48.48109" lon="3.74191">
        <ele>79.37</ele>
        <time>2014-09-20T13:07:47Z</time>
      </trkpt>
      <trkpt lat="48.48108" lon="3.74199">
        <ele>79.33</ele>
        <time>2014-09-20T13:07:48Z</time>
      </trkpt>
      <trkpt lat="48.48107" lon="3.74207">
        <ele>79.28</ele>
        <time>2014-09-20T13:07:49Z</time>
      </trkpt>
      <trkpt lat="48.48106" lon="3.74215">
        <ele>79.27</ele>
        <time>2014-09-20T13:07:50Z</time>
      </trkpt>
      <trkpt lat="48.48105" lon="3.74223">
        <ele>79.26</ele>
        <time>2014-09-20T13:07:51Z</time>
      </trkpt>
      <trkpt lat="48.48104" lon="3.74231">
        <ele>79.23</ele>
        <time>2014-09-20T13:07:52Z</time>
      </trkpt>
      <trkpt lat="48.48103" lon="3.74239">
        <ele>79.2</ele>
        <time>2014-09-20T13:07:53Z</time>
      </trkpt>
      <trkpt lat="48.48101" lon="3.74248">
        <ele>79.18</ele>
        <time>2014-09-20T13:07:54Z</time>
      </trkpt>
      <trkpt lat="48.481" lon="3.74256">
        <ele>79.17</ele>
        <time>2014-09-20T13:07:55Z</time>
      </trkpt>
      <trkpt lat="48.48099" lon="3.74265">
        <ele>79.16</ele>
        <time>2014-09-20T13:07:56Z</time>
      </trkpt>
      <trkpt lat="48.48098" lon="3.74273">
        <ele>79.15</ele>
        <time>2014-09-20T13:07:57Z</time>
      </trkpt>
      <trkpt lat="48.48096" lon="3.74281">
        <ele>79.17</ele>
        <time>2014-09-20T13:07:58Z</time>
      </trkpt>
      <trkpt lat="48.48095" lon="3.7429">
        <ele>79.18</ele>
        <time>2014-09-20T13:07:59Z</time>
      </trkpt>
      <trkpt lat="48.48094" lon="3.74298">
        <ele>79.22</ele>
        <time>2014-09-20T13:08:00Z</time>
      </trkpt>
      <trkpt lat="48.48093" lon="3.74306">
        <ele>79.25</ele>
        <time>2014-09-20T13:08:01Z</time>
      </trkpt>
      <trkpt lat="48.48092" lon="3.74314">
        <ele>79.29</ele>
        <time>2014-09-20T13:08:02Z</time>
      </trkpt>
      <trkpt lat="48.48091" lon="3.74322">
        <ele>79.35</ele>
        <time>2014-09-20T13:08:03Z</time>
      </trkpt>
      <trkpt lat="48.4809" lon="3.7433">
        <ele>79.4</ele>
        <time>2014-09-20T13:08:04Z</time>
      </trkpt>
      <trkpt lat="48.48089" lon="3.74338">
        <ele>79.45</ele>
        <time>2014-09-20T13:08:05Z</time>
      </trkpt>
      <trkpt lat="48.48087" lon="3.74346">
        <ele>79.5</ele>
        <time>2014-09-20T13:08:06Z</time>
      </trkpt>
      <trkpt lat="48.48086" lon="3.74354">
        <ele>79.55</ele>
        <time>2014-09-20T13:08:07Z</time>
      </trkpt>
      <trkpt lat="48.48085" lon="3.74361">
        <ele>79.6</ele>
        <time>2014-09-20T13:08:08Z</time>
      </trkpt>
      <trkpt lat="48.48084" lon="3.74369">
        <ele>79.63</ele>
        <time>2014-09-20T13:08:09Z</time>
      </trkpt>
      <trkpt lat="48.48081" lon="3.74375">
        <ele>79.63</ele>
        <time>2014-09-20T13:08:10Z</time>
      </trkpt>
      <trkpt lat="48.48077" lon="3.74381">
        <ele>79.58</ele>
        <time>2014-09-20T13:08:11Z</time>
      </trkpt>
      <trkpt lat="48.48072" lon="3.74383">
        <ele>79.49</ele>
        <time>2014-09-20T13:08:12Z</time>
      </trkpt>
      <trkpt lat="48.48066" lon="3.74383">
        <ele>79.38</ele>
        <time>2014-09-20T13:08:13Z</time>
      </trkpt>
      <trkpt lat="48.4806" lon="3.74381">
        <ele>79.29</ele>
        <time>2014-09-20T13:08:14Z</time>
      </trkpt>
      <trkpt lat="48.48055" lon="3.74379">
        <ele>79.22</ele>
        <time>2014-09-20T13:08:15Z</time>
      </trkpt>
      <trkpt lat="48.48049" lon="3.74377">
        <ele>79.2</ele>
        <time>2014-09-20T13:08:16Z</time>
      </trkpt>
      <trkpt lat="48.48043" lon="3.74376">
        <ele>79.18</ele>
        <time>2014-09-20T13:08:17Z</time>
      </trkpt>
      <trkpt lat="48.48038" lon="3.74374">
        <ele>79.14</ele>
        <time>2014-09-20T13:08:18Z</time>
      </trkpt>
      <trkpt lat="48.48033" lon="3.74372">
        <ele>79.11</ele>
        <time>2014-09-20T13:08:19Z</time>
      </trkpt>
      <trkpt lat="48.48027" lon="3.74371">
        <ele>79.09</ele>
        <time>2014-09-20T13:08:20Z</time>
      </trkpt>
      <trkpt lat="48.48022" lon="3.74369">
        <ele>79.08</ele>
        <time>2014-09-20T13:08:21Z</time>
      </trkpt>
      <trkpt lat="48.48017" lon="3.74366">
        <ele>79.06</ele>
        <time>2014-09-20T13:08:22Z</time>
      </trkpt>
      <trkpt lat="48.48012" lon="3.74364">
        <ele>79.06</ele>
        <time>2014-09-20T13:08:23Z</time>
      </trkpt>
      <trkpt lat="48.48006" lon="3.74362">
        <ele>79.05</ele>
        <time>2014-09-20T13:08:24Z</time>
      </trkpt>
      <trkpt lat="48.48001" lon="3.7436">
        <ele>79.04</ele>
        <time>2014-09-20T13:08:25Z</time>
      </trkpt>
      <trkpt lat="48.47996" lon="3.74358">
        <ele>79.04</ele>
        <time>2014-09-20T13:08:26Z</time>
      </trkpt>
      <trkpt lat="48.47991" lon="3.74355">
        <ele>79.06</ele>
        <time>2014-09-20T13:08:27Z</time>
      </trkpt>
      <trkpt lat="48.47986" lon="3.74353">
        <ele>79.1</ele>
        <time>2014-09-20T13:08:28Z</time>
      </trkpt>
      <trkpt lat="48.47981" lon="3.74351">
        <ele>79.13</ele>
        <time>2014-09-20T13:08:29Z</time>
      </trkpt>
      <trkpt lat="48.47976" lon="3.7435">
        <ele>79.13</ele>
        <time>2014-09-20T13:08:30Z</time>
      </trkpt>
      <trkpt lat="48.47971" lon="3.74348">
        <ele>79.13</ele>
        <time>2014-09-20T13:08:31Z</time>
      </trkpt>
      <trkpt lat="48.47966" lon="3.74346">
        <ele>79.13</ele>
        <time>2014-09-20T13:08:32Z</time>
      </trkpt>
      <trkpt lat="48.47961" lon="3.74344">
        <ele>79.13</ele>
        <time>2014-09-20T13:08:33Z</time>
      </trkpt>
      <trkpt lat="48.47956" lon="3.74342">
        <ele>79.1</ele>
        <time>2014-09-20T13:08:34Z</time>
      </trkpt>
      <trkpt lat="48.47951" lon="3.7434">
        <ele>79.09</ele>
        <time>2014-09-20T13:08:35Z</time>
      </trkpt>
      <trkpt lat="48.47945" lon="3.74338">
        <ele>79.05</ele>
        <time>2014-09-20T13:08:36Z</time>
      </trkpt>
      <trkpt lat="48.4794" lon="3.74336">
        <ele>79.02</ele>
        <time>2014-09-20T13:08:37Z</time>
      </trkpt>
      <trkpt lat="48.47935" lon="3.74334">
        <ele>78.99</ele>
        <time>2014-09-20T13:08:38Z</time>
      </trkpt>
      <trkpt lat="48.47929" lon="3.74332">
        <ele>78.98</ele>
        <time>2014-09-20T13:08:39Z</time>
      </trkpt>
      <trkpt lat="48.47924" lon="3.7433">
        <ele>78.94</ele>
        <time>2014-09-20T13:08:40Z</time>
      </trkpt>
      <trkpt lat="48.47919" lon="3.74328">
        <ele>78.91</ele>
        <time>2014-09-20T13:08:41Z</time>
      </trkpt>
      <trkpt lat="48.47913" lon="3.74326">
        <ele>78.87</ele>
        <time>2014-09-20T13:08:42Z</time>
      </trkpt>
      <trkpt lat="48.47908" lon="3.74324">
        <ele>78.83</ele>
        <time>2014-09-20T13:08:43Z</time>
      </trkpt>
      <trkpt lat="48.47903" lon="3.74322">
        <ele>78.81</ele>
        <time>2014-09-20T13:08:44Z</time>
      </trkpt>
      <trkpt lat="48.47898" lon="3.7432">
        <ele>78.81</ele>
        <time>2014-09-20T13:08:45Z</time>
      </trkpt>
      <trkpt lat="48.47892" lon="3.74318">
        <ele>78.79</ele>
        <time>2014-09-20T13:08:46Z</time>
      </trkpt>
      <trkpt lat="48.47887" lon="3.74316">
        <ele>78.77</ele>
        <time>2014-09-20T13:08:47Z</time>
      </trkpt>
      <trkpt lat="48.47882" lon="3.74314">
        <ele>78.76</ele>
        <time>2014-09-20T13:08:48Z</time>
      </trkpt>
      <trkpt lat="48.47877" lon="3.74312">
        <ele>78.75</ele>
        <time>2014-09-20T13:08:49Z</time>
      </trkpt>
      <trkpt lat="48.47872" lon="3.7431">
        <ele>78.72</ele>
        <time>2014-09-20T13:08:50Z</time>
      </trkpt>
      <trkpt lat="48.47867" lon="3.74307">
        <ele>78.7</ele>
        <time>2014-09-20T13:08:51Z</time>
      </trkpt>
      <trkpt lat="48.47862" lon="3.74306">
        <ele>78.68</ele>
        <time>2014-09-20T13:08:52Z</time>
      </trkpt>
      <trkpt lat="48.47857" lon="3.74304">
        <ele>78.67</ele>
        <time>2014-09-20T13:08:53Z</time>
      </trkpt>
      <trkpt lat="48.47852" lon="3.74303">
        <ele>78.66</ele>
        <time>2014-09-20T13:08:54Z</time>
      </trkpt>
      <trkpt lat="48.47848" lon="3.74302">
        <ele>78.68</ele>
        <time>2014-09-20T13:08:55Z</time>
      </trkpt>
      <trkpt lat="48.47839" lon="3.743">
        <ele>78.77</ele>
        <time>2014-09-20T13:08:57Z</time>
      </trkpt>
      <trkpt lat="48.47832" lon="3.74297">
        <ele>78.84</ele>
        <time>2014-09-20T13:08:59Z</time>
      </trkpt>
      <trkpt lat="48.47824" lon="3.74294">
        <ele>78.88</ele>
        <time>2014-09-20T13:09:01Z</time>
      </trkpt>
      <trkpt lat="48.47815" lon="3.7429">
        <ele>78.9</ele>
        <time>2014-09-20T13:09:03Z</time>
      </trkpt>
      <trkpt lat="48.47806" lon="3.74287">
        <ele>78.91</ele>
        <time>2014-09-20T13:09:05Z</time>
      </trkpt>
      <trkpt lat="48.47802" lon="3.74286">
        <ele>78.92</ele>
        <time>2014-09-20T13:09:06Z</time>
      </trkpt>
      <trkpt lat="48.47797" lon="3.74284">
        <ele>78.92</ele>
        <time>2014-09-20T13:09:07Z</time>
      </trkpt>
      <trkpt lat="48.47793" lon="3.74282">
        <ele>78.92</ele>
        <time>2014-09-20T13:09:08Z</time>
      </trkpt>
      <trkpt lat="48.47788" lon="3.74281">
        <ele>78.92</ele>
        <time>2014-09-20T13:09:09Z</time>
      </trkpt>
      <trkpt lat="48.47783" lon="3.74279">
        <ele>78.95</ele>
        <time>2014-09-20T13:09:10Z</time>
      </trkpt>
      <trkpt lat="48.47779" lon="3.74278">
        <ele>78.97</ele>
        <time>2014-09-20T13:09:11Z</time>
      </trkpt>
      <trkpt lat="48.47774" lon="3.74277">
        <ele>78.98</ele>
        <time>2014-09-20T13:09:12Z</time>
      </trkpt>
      <trkpt lat="48.47769" lon="3.74275">
        <ele>79.02</ele>
        <time>2014-09-20T13:09:13Z</time>
      </trkpt>
      <trkpt lat="48.47764" lon="3.74274">
        <ele>79.05</ele>
        <time>2014-09-20T13:09:14Z</time>
      </trkpt>
      <trkpt lat="48.4776" lon="3.74272">
        <ele>79.09</ele>
        <time>2014-09-20T13:09:15Z</time>
      </trkpt>
      <trkpt lat="48.47755" lon="3.74271">
        <ele>79.13</ele>
        <time>2014-09-20T13:09:16Z</time>
      </trkpt>
      <trkpt lat="48.4775" lon="3.7427">
        <ele>79.15</ele>
        <time>2014-09-20T13:09:17Z</time>
      </trkpt>
      <trkpt lat="48.47745" lon="3.74269">
        <ele>79.2</ele>
        <time>2014-09-20T13:09:18Z</time>
      </trkpt>
      <trkpt lat="48.47741" lon="3.74268">
        <ele>79.23</ele>
        <time>2014-09-20T13:09:19Z</time>
      </trkpt>
      <trkpt lat="48.47736" lon="3.74266">
        <ele>79.25</ele>
        <time>2014-09-20T13:09:20Z</time>
      </trkpt>
      <trkpt lat="48.47731" lon="3.74264">
        <ele>79.27</ele>
        <time>2014-09-20T13:09:21Z</time>
      </trkpt>
      <trkpt lat="48.47726" lon="3.74263">
        <ele>79.31</ele>
        <time>2014-09-20T13:09:22Z</time>
      </trkpt>
      <trkpt lat="48.47722" lon="3.74261">
        <ele>79.34</ele>
        <time>2014-09-20T13:09:23Z</time>
      </trkpt>
      <trkpt lat="48.47717" lon="3.74259">
        <ele>79.39</ele>
        <time>2014-09-20T13:09:24Z</time>
      </trkpt>
      <trkpt lat="48.47713" lon="3.74258">
        <ele>79.45</ele>
        <time>2014-09-20T13:09:25Z</time>
      </trkpt>
      <trkpt lat="48.47708" lon="3.74256">
        <ele>79.49</ele>
        <time>2014-09-20T13:09:26Z</time>
      </trkpt>
      <trkpt lat="48.47704" lon="3.74254">
        <ele>79.53</ele>
        <time>2014-09-20T13:09:27Z</time>
      </trkpt>
      <trkpt lat="48.47699" lon="3.74253">
        <ele>79.53</ele>
        <time>2014-09-20T13:09:28Z</time>
      </trkpt>
      <trkpt lat="48.47694" lon="3.74251">
        <ele>79.5</ele>
        <time>2014-09-20T13:09:29Z</time>
      </trkpt>
      <trkpt lat="48.4769" lon="3.74249">
        <ele>79.48</ele>
        <time>2014-09-20T13:09:30Z</time>
      </trkpt>
      <trkpt lat="48.47685" lon="3.74247">
        <ele>79.47</ele>
        <time>2014-09-20T13:09:31Z</time>
      </trkpt>
      <trkpt lat="48.4768" lon="3.74245">
        <ele>79.46</ele>
        <time>2014-09-20T13:09:32Z</time>
      </trkpt>
      <trkpt lat="48.47676" lon="3.74243">
        <ele>79.45</ele>
        <time>2014-09-20T13:09:33Z</time>
      </trkpt>
      <trkpt lat="48.47671" lon="3.74241">
        <ele>79.45</ele>
        <time>2014-09-20T13:09:34Z</time>
      </trkpt>
      <trkpt lat="48.47666" lon="3.7424">
        <ele>79.44</ele>
        <time>2014-09-20T13:09:35Z</time>
      </trkpt>
      <trkpt lat="48.47661" lon="3.74239">
        <ele>79.46</ele>
        <time>2014-09-20T13:09:36Z</time>
      </trkpt>
      <trkpt lat="48.47657" lon="3.74237">
        <ele>79.48</ele>
        <time>2014-09-20T13:09:37Z</time>
      </trkpt>
      <trkpt lat="48.47652" lon="3.74235">
        <ele>79.52</ele>
        <time>2014-09-20T13:09:38Z</time>
      </trkpt>
      <trkpt lat="48.47648" lon="3.74233">
        <ele>79.54</ele>
        <time>2014-09-20T13:09:39Z</time>
      </trkpt>
      <trkpt lat="48.47643" lon="3.74231">
        <ele>79.57</ele>
        <time>2014-09-20T13:09:40Z</time>
      </trkpt>
      <trkpt lat="48.47638" lon="3.74229">
        <ele>79.61</ele>
        <time>2014-09-20T13:09:41Z</time>
      </trkpt>
      <trkpt lat="48.47634" lon="3.74228">
        <ele>79.64</ele>
        <time>2014-09-20T13:09:42Z</time>
      </trkpt>
      <trkpt lat="48.47629" lon="3.74226">
        <ele>79.66</ele>
        <time>2014-09-20T13:09:43Z</time>
      </trkpt>
      <trkpt lat="48.47624" lon="3.74224">
        <ele>79.68</ele>
        <time>2014-09-20T13:09:44Z</time>
      </trkpt>
      <trkpt lat="48.4762" lon="3.74223">
        <ele>79.69</ele>
        <time>2014-09-20T13:09:45Z</time>
      </trkpt>
      <trkpt lat="48.47615" lon="3.74221">
        <ele>79.7</ele>
        <time>2014-09-20T13:09:46Z</time>
      </trkpt>
      <trkpt lat="48.47611" lon="3.7422">
        <ele>79.71</ele>
        <time>2014-09-20T13:09:47Z</time>
      </trkpt>
      <trkpt lat="48.47606" lon="3.74218">
        <ele>79.74</ele>
        <time>2014-09-20T13:09:48Z</time>
      </trkpt>
      <trkpt lat="48.47601" lon="3.74216">
        <ele>79.76</ele>
        <time>2014-09-20T13:09:49Z</time>
      </trkpt>
      <trkpt lat="48.47597" lon="3.74215">
        <ele>79.78</ele>
        <time>2014-09-20T13:09:50Z</time>
      </trkpt>
      <trkpt lat="48.47592" lon="3.74213">
        <ele>79.81</ele>
        <time>2014-09-20T13:09:51Z</time>
      </trkpt>
      <trkpt lat="48.47588" lon="3.74212">
        <ele>79.84</ele>
        <time>2014-09-20T13:09:52Z</time>
      </trkpt>
      <trkpt lat="48.47583" lon="3.7421">
        <ele>79.86</ele>
        <time>2014-09-20T13:09:53Z</time>
      </trkpt>
      <trkpt lat="48.47578" lon="3.74208">
        <ele>79.88</ele>
        <time>2014-09-20T13:09:54Z</time>
      </trkpt>
      <trkpt lat="48.47573" lon="3.74207">
        <ele>79.89</ele>
        <time>2014-09-20T13:09:55Z</time>
      </trkpt>
      <trkpt lat="48.47567" lon="3.74205">
        <ele>79.9</ele>
        <time>2014-09-20T13:09:56Z</time>
      </trkpt>
      <trkpt lat="48.47562" lon="3.74203">
        <ele>79.91</ele>
        <time>2014-09-20T13:09:57Z</time>
      </trkpt>
      <trkpt lat="48.47557" lon="3.74201">
        <ele>79.91</ele>
        <time>2014-09-20T13:09:58Z</time>
      </trkpt>
      <trkpt lat="48.47552" lon="3.74199">
        <ele>79.92</ele>
        <time>2014-09-20T13:09:59Z</time>
      </trkpt>
      <trkpt lat="48.47547" lon="3.74197">
        <ele>79.92</ele>
        <time>2014-09-20T13:10:00Z</time>
      </trkpt>
      <trkpt lat="48.47542" lon="3.74195">
        <ele>79.95</ele>
        <time>2014-09-20T13:10:01Z</time>
      </trkpt>
      <trkpt lat="48.47537" lon="3.74194">
        <ele>79.97</ele>
        <time>2014-09-20T13:10:02Z</time>
      </trkpt>
      <trkpt lat="48.47532" lon="3.74192">
        <ele>79.98</ele>
        <time>2014-09-20T13:10:03Z</time>
      </trkpt>
      <trkpt lat="48.47528" lon="3.74191">
        <ele>80.02</ele>
        <time>2014-09-20T13:10:04Z</time>
      </trkpt>
      <trkpt lat="48.47523" lon="3.74189">
        <ele>80.07</ele>
        <time>2014-09-20T13:10:05Z</time>
      </trkpt>
      <trkpt lat="48.47518" lon="3.74188">
        <ele>80.11</ele>
        <time>2014-09-20T13:10:06Z</time>
      </trkpt>
      <trkpt lat="48.47514" lon="3.74186">
        <ele>80.14</ele>
        <time>2014-09-20T13:10:07Z</time>
      </trkpt>
      <trkpt lat="48.47509" lon="3.74185">
        <ele>80.19</ele>
        <time>2014-09-20T13:10:08Z</time>
      </trkpt>
      <trkpt lat="48.47504" lon="3.74183">
        <ele>80.22</ele>
        <time>2014-09-20T13:10:09Z</time>
      </trkpt>
      <trkpt lat="48.475" lon="3.74181">
        <ele>80.25</ele>
        <time>2014-09-20T13:10:10Z</time>
      </trkpt>
      <trkpt lat="48.47495" lon="3.7418">
        <ele>80.27</ele>
        <time>2014-09-20T13:10:11Z</time>
      </trkpt>
      <trkpt lat="48.4749" lon="3.74178">
        <ele>80.31</ele>
        <time>2014-09-20T13:10:12Z</time>
      </trkpt>
      <trkpt lat="48.47485" lon="3.74177">
        <ele>80.34</ele>
        <time>2014-09-20T13:10:13Z</time>
      </trkpt>
      <trkpt lat="48.47481" lon="3.74175">
        <ele>80.39</ele>
        <time>2014-09-20T13:10:14Z</time>
      </trkpt>
      <trkpt lat="48.47476" lon="3.74174">
        <ele>80.45</ele>
        <time>2014-09-20T13:10:15Z</time>
      </trkpt>
      <trkpt lat="48.47471" lon="3.74172">
        <ele>80.49</ele>
        <time>2014-09-20T13:10:16Z</time>
      </trkpt>
      <trkpt lat="48.47467" lon="3.7417">
        <ele>80.53</ele>
        <time>2014-09-20T13:10:17Z</time>
      </trkpt>
      <trkpt lat="48.47462" lon="3.74169">
        <ele>80.58</ele>
        <time>2014-09-20T13:10:18Z</time>
      </trkpt>
      <trkpt lat="48.47457" lon="3.74167">
        <ele>80.61</ele>
        <time>2014-09-20T13:10:19Z</time>
      </trkpt>
      <trkpt lat="48.47453" lon="3.74165">
        <ele>80.67</ele>
        <time>2014-09-20T13:10:20Z</time>
      </trkpt>
      <trkpt lat="48.47448" lon="3.74164">
        <ele>80.71</ele>
        <time>2014-09-20T13:10:21Z</time>
      </trkpt>
      <trkpt lat="48.47444" lon="3.74162">
        <ele>80.76</ele>
        <time>2014-09-20T13:10:22Z</time>
      </trkpt>
      <trkpt lat="48.47439" lon="3.74161">
        <ele>80.85</ele>
        <time>2014-09-20T13:10:23Z</time>
      </trkpt>
      <trkpt lat="48.47435" lon="3.74159">
        <ele>80.95</ele>
        <time>2014-09-20T13:10:24Z</time>
      </trkpt>
      <trkpt lat="48.4743" lon="3.74158">
        <ele>81.04</ele>
        <time>2014-09-20T13:10:25Z</time>
      </trkpt>
      <trkpt lat="48.47426" lon="3.74156">
        <ele>81.14</ele>
        <time>2014-09-20T13:10:26Z</time>
      </trkpt>
      <trkpt lat="48.47421" lon="3.74154">
        <ele>81.24</ele>
        <time>2014-09-20T13:10:27Z</time>
      </trkpt>
      <trkpt lat="48.47417" lon="3.74153">
        <ele>81.33</ele>
        <time>2014-09-20T13:10:28Z</time>
      </trkpt>
      <trkpt lat="48.47413" lon="3.74151">
        <ele>81.43</ele>
        <time>2014-09-20T13:10:29Z</time>
      </trkpt>
      <trkpt lat="48.47408" lon="3.7415">
        <ele>81.53</ele>
        <time>2014-09-20T13:10:30Z</time>
      </trkpt>
      <trkpt lat="48.47403" lon="3.74148">
        <ele>81.61</ele>
        <time>2014-09-20T13:10:31Z</time>
      </trkpt>
      <trkpt lat="48.47398" lon="3.74146">
        <ele>81.69</ele>
        <time>2014-09-20T13:10:32Z</time>
      </trkpt>
      <trkpt lat="48.47393" lon="3.74144">
        <ele>81.75</ele>
        <time>2014-09-20T13:10:33Z</time>
      </trkpt>
      <trkpt lat="48.47388" lon="3.74143">
        <ele>81.82</ele>
        <time>2014-09-20T13:10:34Z</time>
      </trkpt>
      <trkpt lat="48.47383" lon="3.74141">
        <ele>81.89</ele>
        <time>2014-09-20T13:10:35Z</time>
      </trkpt>
      <trkpt lat="48.47377" lon="3.74139">
        <ele>81.98</ele>
        <time>2014-09-20T13:10:36Z</time>
      </trkpt>
      <trkpt lat="48.47372" lon="3.74137">
        <ele>82.04</ele>
        <time>2014-09-20T13:10:37Z</time>
      </trkpt>
      <trkpt lat="48.47368" lon="3.74136">
        <ele>82.11</ele>
        <time>2014-09-20T13:10:38Z</time>
      </trkpt>
      <trkpt lat="48.47363" lon="3.74134">
        <ele>82.19</ele>
        <time>2014-09-20T13:10:39Z</time>
      </trkpt>
      <trkpt lat="48.47358" lon="3.74133">
        <ele>82.25</ele>
        <time>2014-09-20T13:10:40Z</time>
      </trkpt>
      <trkpt lat="48.47354" lon="3.74131">
        <ele>82.32</ele>
        <time>2014-09-20T13:10:41Z</time>
      </trkpt>
      <trkpt lat="48.47349" lon="3.7413">
        <ele>82.37</ele>
        <time>2014-09-20T13:10:42Z</time>
      </trkpt>
      <trkpt lat="48.47345" lon="3.74128">
        <ele>82.41</ele>
        <time>2014-09-20T13:10:43Z</time>
      </trkpt>
      <trkpt lat="48.4734" lon="3.74126">
        <ele>82.47</ele>
        <time>2014-09-20T13:10:44Z</time>
      </trkpt>
      <trkpt lat="48.47336" lon="3.74125">
        <ele>82.51</ele>
        <time>2014-09-20T13:10:45Z</time>
      </trkpt>
      <trkpt lat="48.47332" lon="3.74123">
        <ele>82.56</ele>
        <time>2014-09-20T13:10:46Z</time>
      </trkpt>
      <trkpt lat="48.47323" lon="3.7412">
        <ele>82.68</ele>
        <time>2014-09-20T13:10:48Z</time>
      </trkpt>
      <trkpt lat="48.47315" lon="3.74117">
        <ele>82.79</ele>
        <time>2014-09-20T13:10:50Z</time>
      </trkpt>
      <trkpt lat="48.47306" lon="3.74114">
        <ele>82.85</ele>
        <time>2014-09-20T13:10:52Z</time>
      </trkpt>
      <trkpt lat="48.47297" lon="3.74111">
        <ele>82.93</ele>
        <time>2014-09-20T13:10:54Z</time>
      </trkpt>
      <trkpt lat="48.47289" lon="3.74108">
        <ele>82.97</ele>
        <time>2014-09-20T13:10:56Z</time>
      </trkpt>
      <trkpt lat="48.47281" lon="3.74105">
        <ele>83.02</ele>
        <time>2014-09-20T13:10:58Z</time>
      </trkpt>
      <trkpt lat="48.47272" lon="3.74102">
        <ele>83.07</ele>
        <time>2014-09-20T13:11:00Z</time>
      </trkpt>
      <trkpt lat="48.47264" lon="3.74099">
        <ele>83.14</ele>
        <time>2014-09-20T13:11:02Z</time>
      </trkpt>
      <trkpt lat="48.47256" lon="3.74096">
        <ele>83.22</ele>
        <time>2014-09-20T13:11:04Z</time>
      </trkpt>
      <trkpt lat="48.47247" lon="3.74093">
        <ele>83.29</ele>
        <time>2014-09-20T13:11:06Z</time>
      </trkpt>
      <trkpt lat="48.47239" lon="3.7409">
        <ele>83.3</ele>
        <time>2014-09-20T13:11:08Z</time>
      </trkpt>
      <trkpt lat="48.47231" lon="3.74087">
        <ele>83.33</ele>
        <time>2014-09-20T13:11:10Z</time>
      </trkpt>
      <trkpt lat="48.47223" lon="3.74084">
        <ele>83.37</ele>
        <time>2014-09-20T13:11:12Z</time>
      </trkpt>
      <trkpt lat="48.47215" lon="3.74082">
        <ele>83.42</ele>
        <time>2014-09-20T13:11:14Z</time>
      </trkpt>
      <trkpt lat="48.47207" lon="3.74079">
        <ele>83.47</ele>
        <time>2014-09-20T13:11:16Z</time>
      </trkpt>
      <trkpt lat="48.47199" lon="3.74076">
        <ele>83.49</ele>
        <time>2014-09-20T13:11:18Z</time>
      </trkpt>
      <trkpt lat="48.47191" lon="3.74073">
        <ele>83.55</ele>
        <time>2014-09-20T13:11:20Z</time>
      </trkpt>
      <trkpt lat="48.47182" lon="3.7407">
        <ele>83.61</ele>
        <time>2014-09-20T13:11:22Z</time>
      </trkpt>
      <trkpt lat="48.47174" lon="3.74068">
        <ele>83.66</ele>
        <time>2014-09-20T13:11:24Z</time>
      </trkpt>
      <trkpt lat="48.47166" lon="3.74065">
        <ele>83.69</ele>
        <time>2014-09-20T13:11:26Z</time>
      </trkpt>
      <trkpt lat="48.47158" lon="3.74062">
        <ele>83.71</ele>
        <time>2014-09-20T13:11:28Z</time>
      </trkpt>
      <trkpt lat="48.4715" lon="3.74059">
        <ele>83.76</ele>
        <time>2014-09-20T13:11:30Z</time>
      </trkpt>
      <trkpt lat="48.47142" lon="3.74056">
        <ele>83.79</ele>
        <time>2014-09-20T13:11:32Z</time>
      </trkpt>
      <trkpt lat="48.47134" lon="3.74053">
        <ele>83.81</ele>
        <time>2014-09-20T13:11:34Z</time>
      </trkpt>
      <trkpt lat="48.47126" lon="3.7405">
        <ele>83.82</ele>
        <time>2014-09-20T13:11:36Z</time>
      </trkpt>
      <trkpt lat="48.47118" lon="3.74047">
        <ele>83.86</ele>
        <time>2014-09-20T13:11:38Z</time>
      </trkpt>
      <trkpt lat="48.4711" lon="3.74045">
        <ele>83.94</ele>
        <time>2014-09-20T13:11:40Z</time>
      </trkpt>
      <trkpt lat="48.47102" lon="3.74042">
        <ele>84</ele>
        <time>2014-09-20T13:11:42Z</time>
      </trkpt>
      <trkpt lat="48.47094" lon="3.74039">
        <ele>84.08</ele>
        <time>2014-09-20T13:11:44Z</time>
      </trkpt>
      <trkpt lat="48.47086" lon="3.74036">
        <ele>84.19</ele>
        <time>2014-09-20T13:11:46Z</time>
      </trkpt>
      <trkpt lat="48.47078" lon="3.74033">
        <ele>84.32</ele>
        <time>2014-09-20T13:11:48Z</time>
      </trkpt>
      <trkpt lat="48.4707" lon="3.74031">
        <ele>84.45</ele>
        <time>2014-09-20T13:11:50Z</time>
      </trkpt>
      <trkpt lat="48.47063" lon="3.74028">
        <ele>84.57</ele>
        <time>2014-09-20T13:11:52Z</time>
      </trkpt>
      <trkpt lat="48.47055" lon="3.74025">
        <ele>84.69</ele>
        <time>2014-09-20T13:11:54Z</time>
      </trkpt>
      <trkpt lat="48.47047" lon="3.74022">
        <ele>84.79</ele>
        <time>2014-09-20T13:11:56Z</time>
      </trkpt>
      <trkpt lat="48.4704" lon="3.74018">
        <ele>84.89</ele>
        <time>2014-09-20T13:11:58Z</time>
      </trkpt>
      <trkpt lat="48.47032" lon="3.74015">
        <ele>85</ele>
        <time>2014-09-20T13:12:00Z</time>
      </trkpt>
      <trkpt lat="48.47024" lon="3.74012">
        <ele>85.1</ele>
        <time>2014-09-20T13:12:02Z</time>
      </trkpt>
      <trkpt lat="48.47015" lon="3.74009">
        <ele>85.2</ele>
        <time>2014-09-20T13:12:04Z</time>
      </trkpt>
      <trkpt lat="48.47007" lon="3.74006">
        <ele>85.26</ele>
        <time>2014-09-20T13:12:06Z</time>
      </trkpt>
      <trkpt lat="48.46998" lon="3.74003">
        <ele>85.33</ele>
        <time>2014-09-20T13:12:08Z</time>
      </trkpt>
      <trkpt lat="48.4699" lon="3.74">
        <ele>85.44</ele>
        <time>2014-09-20T13:12:10Z</time>
      </trkpt>
      <trkpt lat="48.46982" lon="3.73997">
        <ele>85.55</ele>
        <time>2014-09-20T13:12:12Z</time>
      </trkpt>
      <trkpt lat="48.46973" lon="3.73995">
        <ele>85.58</ele>
        <time>2014-09-20T13:12:14Z</time>
      </trkpt>
      <trkpt lat="48.46965" lon="3.73992">
        <ele>85.6</ele>
        <time>2014-09-20T13:12:16Z</time>
      </trkpt>
      <trkpt lat="48.46957" lon="3.73989">
        <ele>85.61</ele>
        <time>2014-09-20T13:12:18Z</time>
      </trkpt>
      <trkpt lat="48.46949" lon="3.73987">
        <ele>85.66</ele>
        <time>2014-09-20T13:12:20Z</time>
      </trkpt>
      <trkpt lat="48.46941" lon="3.73984">
        <ele>85.76</ele>
        <time>2014-09-20T13:12:22Z</time>
      </trkpt>
      <trkpt lat="48.46934" lon="3.73981">
        <ele>85.83</ele>
        <time>2014-09-20T13:12:24Z</time>
      </trkpt>
      <trkpt lat="48.46926" lon="3.73978">
        <ele>85.88</ele>
        <time>2014-09-20T13:12:26Z</time>
      </trkpt>
      <trkpt lat="48.46919" lon="3.73975">
        <ele>85.94</ele>
        <time>2014-09-20T13:12:28Z</time>
      </trkpt>
      <trkpt lat="48.46911" lon="3.73973">
        <ele>86.02</ele>
        <time>2014-09-20T13:12:30Z</time>
      </trkpt>
      <trkpt lat="48.46903" lon="3.7397">
        <ele>86.11</ele>
        <time>2014-09-20T13:12:32Z</time>
      </trkpt>
      <trkpt lat="48.46895" lon="3.73967">
        <ele>86.21</ele>
        <time>2014-09-20T13:12:34Z</time>
      </trkpt>
      <trkpt lat="48.46887" lon="3.73965">
        <ele>86.3</ele>
        <time>2014-09-20T13:12:36Z</time>
      </trkpt>
      <trkpt lat="48.46879" lon="3.73962">
        <ele>86.43</ele>
        <time>2014-09-20T13:12:38Z</time>
      </trkpt>
      <trkpt lat="48.46871" lon="3.73959">
        <ele>86.54</ele>
        <time>2014-09-20T13:12:40Z</time>
      </trkpt>
      <trkpt lat="48.46864" lon="3.73956">
        <ele>86.62</ele>
        <time>2014-09-20T13:12:42Z</time>
      </trkpt>
      <trkpt lat="48.46856" lon="3.73954">
        <ele>86.71</ele>
        <time>2014-09-20T13:12:44Z</time>
      </trkpt>
      <trkpt lat="48.46848" lon="3.73951">
        <ele>86.79</ele>
        <time>2014-09-20T13:12:46Z</time>
      </trkpt>
      <trkpt lat="48.4684" lon="3.73948">
        <ele>86.87</ele>
        <time>2014-09-20T13:12:48Z</time>
      </trkpt>
      <trkpt lat="48.46832" lon="3.73945">
        <ele>86.97</ele>
        <time>2014-09-20T13:12:50Z</time>
      </trkpt>
      <trkpt lat="48.46824" lon="3.73942">
        <ele>87.08</ele>
        <time>2014-09-20T13:12:52Z</time>
      </trkpt>
      <trkpt lat="48.46815" lon="3.73939">
        <ele>87.21</ele>
        <time>2014-09-20T13:12:54Z</time>
      </trkpt>
      <trkpt lat="48.46807" lon="3.73937">
        <ele>87.33</ele>
        <time>2014-09-20T13:12:56Z</time>
      </trkpt>
      <trkpt lat="48.46799" lon="3.73934">
        <ele>87.42</ele>
        <time>2014-09-20T13:12:58Z</time>
      </trkpt>
      <trkpt lat="48.46791" lon="3.73931">
        <ele>87.53</ele>
        <time>2014-09-20T13:13:00Z</time>
      </trkpt>
      <trkpt lat="48.46783" lon="3.73928">
        <ele>87.64</ele>
        <time>2014-09-20T13:13:02Z</time>
      </trkpt>
      <trkpt lat="48.46775" lon="3.73925">
        <ele>87.75</ele>
        <time>2014-09-20T13:13:04Z</time>
      </trkpt>
      <trkpt lat="48.46766" lon="3.73923">
        <ele>87.83</ele>
        <time>2014-09-20T13:13:06Z</time>
      </trkpt>
      <trkpt lat="48.46762" lon="3.73921">
        <ele>87.83</ele>
        <time>2014-09-20T13:13:07Z</time>
      </trkpt>
      <trkpt lat="48.46756" lon="3.73919">
        <ele>87.8</ele>
        <time>2014-09-20T13:13:08Z</time>
      </trkpt>
      <trkpt lat="48.46751" lon="3.73917">
        <ele>87.81</ele>
        <time>2014-09-20T13:13:09Z</time>
      </trkpt>
      <trkpt lat="48.46747" lon="3.73916">
        <ele>87.81</ele>
        <time>2014-09-20T13:13:10Z</time>
      </trkpt>
      <trkpt lat="48.46742" lon="3.73914">
        <ele>87.82</ele>
        <time>2014-09-20T13:13:11Z</time>
      </trkpt>
      <trkpt lat="48.46737" lon="3.73912">
        <ele>87.82</ele>
        <time>2014-09-20T13:13:12Z</time>
      </trkpt>
      <trkpt lat="48.46733" lon="3.73911">
        <ele>87.82</ele>
        <time>2014-09-20T13:13:13Z</time>
      </trkpt>
      <trkpt lat="48.46728" lon="3.73909">
        <ele>87.82</ele>
        <time>2014-09-20T13:13:14Z</time>
      </trkpt>
      <trkpt lat="48.46724" lon="3.73907">
        <ele>87.85</ele>
        <time>2014-09-20T13:13:15Z</time>
      </trkpt>
      <trkpt lat="48.46719" lon="3.73906">
        <ele>87.87</ele>
        <time>2014-09-20T13:13:16Z</time>
      </trkpt>
      <trkpt lat="48.46715" lon="3.73904">
        <ele>87.88</ele>
        <time>2014-09-20T13:13:17Z</time>
      </trkpt>
      <trkpt lat="48.4671" lon="3.73903">
        <ele>87.92</ele>
        <time>2014-09-20T13:13:18Z</time>
      </trkpt>
      <trkpt lat="48.46702" lon="3.739">
        <ele>87.99</ele>
        <time>2014-09-20T13:13:20Z</time>
      </trkpt>
      <trkpt lat="48.46693" lon="3.73897">
        <ele>88.12</ele>
        <time>2014-09-20T13:13:22Z</time>
      </trkpt>
      <trkpt lat="48.46685" lon="3.73894">
        <ele>88.24</ele>
        <time>2014-09-20T13:13:24Z</time>
      </trkpt>
      <trkpt lat="48.46676" lon="3.73891">
        <ele>88.39</ele>
        <time>2014-09-20T13:13:26Z</time>
      </trkpt>
      <trkpt lat="48.46668" lon="3.73887">
        <ele>88.49</ele>
        <time>2014-09-20T13:13:28Z</time>
      </trkpt>
      <trkpt lat="48.4666" lon="3.73884">
        <ele>88.58</ele>
        <time>2014-09-20T13:13:30Z</time>
      </trkpt>
      <trkpt lat="48.46652" lon="3.73881">
        <ele>88.69</ele>
        <time>2014-09-20T13:13:32Z</time>
      </trkpt>
      <trkpt lat="48.46644" lon="3.73878">
        <ele>88.72</ele>
        <time>2014-09-20T13:13:34Z</time>
      </trkpt>
      <trkpt lat="48.46635" lon="3.73875">
        <ele>88.73</ele>
        <time>2014-09-20T13:13:36Z</time>
      </trkpt>
      <trkpt lat="48.46626" lon="3.73872">
        <ele>88.77</ele>
        <time>2014-09-20T13:13:38Z</time>
      </trkpt>
      <trkpt lat="48.46618" lon="3.73869">
        <ele>88.86</ele>
        <time>2014-09-20T13:13:40Z</time>
      </trkpt>
      <trkpt lat="48.4661" lon="3.73866">
        <ele>88.96</ele>
        <time>2014-09-20T13:13:42Z</time>
      </trkpt>
      <trkpt lat="48.46602" lon="3.73863">
        <ele>89.1</ele>
        <time>2014-09-20T13:13:44Z</time>
      </trkpt>
      <trkpt lat="48.46594" lon="3.7386">
        <ele>89.23</ele>
        <time>2014-09-20T13:13:46Z</time>
      </trkpt>
      <trkpt lat="48.46586" lon="3.73857">
        <ele>89.29</ele>
        <time>2014-09-20T13:13:48Z</time>
      </trkpt>
      <trkpt lat="48.46578" lon="3.73854">
        <ele>89.38</ele>
        <time>2014-09-20T13:13:50Z</time>
      </trkpt>
      <trkpt lat="48.4657" lon="3.73851">
        <ele>89.47</ele>
        <time>2014-09-20T13:13:52Z</time>
      </trkpt>
      <trkpt lat="48.46562" lon="3.73848">
        <ele>89.61</ele>
        <time>2014-09-20T13:13:54Z</time>
      </trkpt>
      <trkpt lat="48.46554" lon="3.73846">
        <ele>89.73</ele>
        <time>2014-09-20T13:13:56Z</time>
      </trkpt>
      <trkpt lat="48.46546" lon="3.73843">
        <ele>89.88</ele>
        <time>2014-09-20T13:13:58Z</time>
      </trkpt>
      <trkpt lat="48.46539" lon="3.7384">
        <ele>90.02</ele>
        <time>2014-09-20T13:14:00Z</time>
      </trkpt>
      <trkpt lat="48.46531" lon="3.73838">
        <ele>90.18</ele>
        <time>2014-09-20T13:14:02Z</time>
      </trkpt>
      <trkpt lat="48.46523" lon="3.73835">
        <ele>90.31</ele>
        <time>2014-09-20T13:14:04Z</time>
      </trkpt>
      <trkpt lat="48.46515" lon="3.73832">
        <ele>90.43</ele>
        <time>2014-09-20T13:14:06Z</time>
      </trkpt>
      <trkpt lat="48.46507" lon="3.7383">
        <ele>90.56</ele>
        <time>2014-09-20T13:14:08Z</time>
      </trkpt>
      <trkpt lat="48.46499" lon="3.73827">
        <ele>90.63</ele>
        <time>2014-09-20T13:14:10Z</time>
      </trkpt>
      <trkpt lat="48.46491" lon="3.73824">
        <ele>90.66</ele>
        <time>2014-09-20T13:14:12Z</time>
      </trkpt>
      <trkpt lat="48.46483" lon="3.73822">
        <ele>90.73</ele>
        <time>2014-09-20T13:14:14Z</time>
      </trkpt>
      <trkpt lat="48.46475" lon="3.73819">
        <ele>90.84</ele>
        <time>2014-09-20T13:14:16Z</time>
      </trkpt>
      <trkpt lat="48.46467" lon="3.73816">
        <ele>90.97</ele>
        <time>2014-09-20T13:14:18Z</time>
      </trkpt>
      <trkpt lat="48.46459" lon="3.73813">
        <ele>91.01</ele>
        <time>2014-09-20T13:14:20Z</time>
      </trkpt>
      <trkpt lat="48.4645" lon="3.73811">
        <ele>90.99</ele>
        <time>2014-09-20T13:14:22Z</time>
      </trkpt>
      <trkpt lat="48.46441" lon="3.73808">
        <ele>90.97</ele>
        <time>2014-09-20T13:14:24Z</time>
      </trkpt>
      <trkpt lat="48.46433" lon="3.73805">
        <ele>90.95</ele>
        <time>2014-09-20T13:14:26Z</time>
      </trkpt>
      <trkpt lat="48.46424" lon="3.73802">
        <ele>90.96</ele>
        <time>2014-09-20T13:14:28Z</time>
      </trkpt>
      <trkpt lat="48.46416" lon="3.73799">
        <ele>91.04</ele>
        <time>2014-09-20T13:14:30Z</time>
      </trkpt>
      <trkpt lat="48.46407" lon="3.73796">
        <ele>91.08</ele>
        <time>2014-09-20T13:14:32Z</time>
      </trkpt>
      <trkpt lat="48.46399" lon="3.73793">
        <ele>91.14</ele>
        <time>2014-09-20T13:14:34Z</time>
      </trkpt>
      <trkpt lat="48.46391" lon="3.73791">
        <ele>91.22</ele>
        <time>2014-09-20T13:14:36Z</time>
      </trkpt>
      <trkpt lat="48.46382" lon="3.73788">
        <ele>91.29</ele>
        <time>2014-09-20T13:14:38Z</time>
      </trkpt>
      <trkpt lat="48.46374" lon="3.73785">
        <ele>91.35</ele>
        <time>2014-09-20T13:14:40Z</time>
      </trkpt>
      <trkpt lat="48.46366" lon="3.73781">
        <ele>91.39</ele>
        <time>2014-09-20T13:14:42Z</time>
      </trkpt>
      <trkpt lat="48.46358" lon="3.73778">
        <ele>91.4</ele>
        <time>2014-09-20T13:14:44Z</time>
      </trkpt>
      <trkpt lat="48.4635" lon="3.73775">
        <ele>91.39</ele>
        <time>2014-09-20T13:14:46Z</time>
      </trkpt>
      <trkpt lat="48.46341" lon="3.73772">
        <ele>91.36</ele>
        <time>2014-09-20T13:14:48Z</time>
      </trkpt>
      <trkpt lat="48.46333" lon="3.73767">
        <ele>91.3</ele>
        <time>2014-09-20T13:14:50Z</time>
      </trkpt>
      <trkpt lat="48.4633" lon="3.73763">
        <ele>91.26</ele>
        <time>2014-09-20T13:14:51Z</time>
      </trkpt>
      <trkpt lat="48.46327" lon="3.73757">
        <ele>91.18</ele>
        <time>2014-09-20T13:14:52Z</time>
      </trkpt>
      <trkpt lat="48.46325" lon="3.7375">
        <ele>91.04</ele>
        <time>2014-09-20T13:14:53Z</time>
      </trkpt>
      <trkpt lat="48.46325" lon="3.73743">
        <ele>90.91</ele>
        <time>2014-09-20T13:14:54Z</time>
      </trkpt>
      <trkpt lat="48.46326" lon="3.73735">
        <ele>90.79</ele>
        <time>2014-09-20T13:14:55Z</time>
      </trkpt>
      <trkpt lat="48.46327" lon="3.73727">
        <ele>90.68</ele>
        <time>2014-09-20T13:14:56Z</time>
      </trkpt>
      <trkpt lat="48.46327" lon="3.73719">
        <ele>90.56</ele>
        <time>2014-09-20T13:14:57Z</time>
      </trkpt>
      <trkpt lat="48.46328" lon="3.73711">
        <ele>90.45</ele>
        <time>2014-09-20T13:14:58Z</time>
      </trkpt>
      <trkpt lat="48.46329" lon="3.73703">
        <ele>90.32</ele>
        <time>2014-09-20T13:14:59Z</time>
      </trkpt>
      <trkpt lat="48.4633" lon="3.73694">
        <ele>90.2</ele>
        <time>2014-09-20T13:15:00Z</time>
      </trkpt>
      <trkpt lat="48.46331" lon="3.73686">
        <ele>90.08</ele>
        <time>2014-09-20T13:15:01Z</time>
      </trkpt>
      <trkpt lat="48.46331" lon="3.73677">
        <ele>89.94</ele>
        <time>2014-09-20T13:15:02Z</time>
      </trkpt>
      <trkpt lat="48.46332" lon="3.73668">
        <ele>89.81</ele>
        <time>2014-09-20T13:15:03Z</time>
      </trkpt>
      <trkpt lat="48.46333" lon="3.73658">
        <ele>89.67</ele>
        <time>2014-09-20T13:15:04Z</time>
      </trkpt>
      <trkpt lat="48.46334" lon="3.73649">
        <ele>89.53</ele>
        <time>2014-09-20T13:15:05Z</time>
      </trkpt>
      <trkpt lat="48.46334" lon="3.7364">
        <ele>89.38</ele>
        <time>2014-09-20T13:15:06Z</time>
      </trkpt>
      <trkpt lat="48.46335" lon="3.7363">
        <ele>89.24</ele>
        <time>2014-09-20T13:15:07Z</time>
      </trkpt>
      <trkpt lat="48.46336" lon="3.73621">
        <ele>89.11</ele>
        <time>2014-09-20T13:15:08Z</time>
      </trkpt>
      <trkpt lat="48.46337" lon="3.73611">
        <ele>88.99</ele>
        <time>2014-09-20T13:15:09Z</time>
      </trkpt>
      <trkpt lat="48.46337" lon="3.73602">
        <ele>88.85</ele>
        <time>2014-09-20T13:15:10Z</time>
      </trkpt>
      <trkpt lat="48.46338" lon="3.73593">
        <ele>88.72</ele>
        <time>2014-09-20T13:15:11Z</time>
      </trkpt>
      <trkpt lat="48.46339" lon="3.73584">
        <ele>88.6</ele>
        <time>2014-09-20T13:15:12Z</time>
      </trkpt>
      <trkpt lat="48.4634" lon="3.73575">
        <ele>88.48</ele>
        <time>2014-09-20T13:15:13Z</time>
      </trkpt>
      <trkpt lat="48.4634" lon="3.73566">
        <ele>88.37</ele>
        <time>2014-09-20T13:15:14Z</time>
      </trkpt>
      <trkpt lat="48.46341" lon="3.73557">
        <ele>88.26</ele>
        <time>2014-09-20T13:15:15Z</time>
      </trkpt>
      <trkpt lat="48.46342" lon="3.73548">
        <ele>88.15</ele>
        <time>2014-09-20T13:15:16Z</time>
      </trkpt>
      <trkpt lat="48.46342" lon="3.73539">
        <ele>88.04</ele>
        <time>2014-09-20T13:15:17Z</time>
      </trkpt>
      <trkpt lat="48.46343" lon="3.7353">
        <ele>87.94</ele>
        <time>2014-09-20T13:15:18Z</time>
      </trkpt>
      <trkpt lat="48.46344" lon="3.73521">
        <ele>87.84</ele>
        <time>2014-09-20T13:15:19Z</time>
      </trkpt>
      <trkpt lat="48.46344" lon="3.73512">
        <ele>87.71</ele>
        <time>2014-09-20T13:15:20Z</time>
      </trkpt>
      <trkpt lat="48.46345" lon="3.73503">
        <ele>87.59</ele>
        <time>2014-09-20T13:15:21Z</time>
      </trkpt>
      <trkpt lat="48.46346" lon="3.73494">
        <ele>87.47</ele>
        <time>2014-09-20T13:15:22Z</time>
      </trkpt>
      <trkpt lat="48.46347" lon="3.73485">
        <ele>87.36</ele>
        <time>2014-09-20T13:15:23Z</time>
      </trkpt>
      <trkpt lat="48.46347" lon="3.73477">
        <ele>87.25</ele>
        <time>2014-09-20T13:15:24Z</time>
      </trkpt>
      <trkpt lat="48.46348" lon="3.73468">
        <ele>87.17</ele>
        <time>2014-09-20T13:15:25Z</time>
      </trkpt>
      <trkpt lat="48.46349" lon="3.73459">
        <ele>87.09</ele>
        <time>2014-09-20T13:15:26Z</time>
      </trkpt>
      <trkpt lat="48.46349" lon="3.73451">
        <ele>87.02</ele>
        <time>2014-09-20T13:15:27Z</time>
      </trkpt>
      <trkpt lat="48.4635" lon="3.73442">
        <ele>86.97</ele>
        <time>2014-09-20T13:15:28Z</time>
      </trkpt>
      <trkpt lat="48.4635" lon="3.73434">
        <ele>86.94</ele>
        <time>2014-09-20T13:15:29Z</time>
      </trkpt>
      <trkpt lat="48.46351" lon="3.73425">
        <ele>86.88</ele>
        <time>2014-09-20T13:15:30Z</time>
      </trkpt>
      <trkpt lat="48.46351" lon="3.73417">
        <ele>86.85</ele>
        <time>2014-09-20T13:15:31Z</time>
      </trkpt>
      <trkpt lat="48.46352" lon="3.73409">
        <ele>86.82</ele>
        <time>2014-09-20T13:15:32Z</time>
      </trkpt>
      <trkpt lat="48.46353" lon="3.73401">
        <ele>86.79</ele>
        <time>2014-09-20T13:15:33Z</time>
      </trkpt>
      <trkpt lat="48.46353" lon="3.73393">
        <ele>86.78</ele>
        <time>2014-09-20T13:15:34Z</time>
      </trkpt>
      <trkpt lat="48.46354" lon="3.73385">
        <ele>86.74</ele>
        <time>2014-09-20T13:15:35Z</time>
      </trkpt>
      <trkpt lat="48.46354" lon="3.73377">
        <ele>86.71</ele>
        <time>2014-09-20T13:15:36Z</time>
      </trkpt>
      <trkpt lat="48.46354" lon="3.7337">
        <ele>86.69</ele>
        <time>2014-09-20T13:15:37Z</time>
      </trkpt>
      <trkpt lat="48.46355" lon="3.73362">
        <ele>86.68</ele>
        <time>2014-09-20T13:15:38Z</time>
      </trkpt>
      <trkpt lat="48.46356" lon="3.73355">
        <ele>86.64</ele>
        <time>2014-09-20T13:15:39Z</time>
      </trkpt>
      <trkpt lat="48.46356" lon="3.73347">
        <ele>86.61</ele>
        <time>2014-09-20T13:15:40Z</time>
      </trkpt>
      <trkpt lat="48.46357" lon="3.7334">
        <ele>86.57</ele>
        <time>2014-09-20T13:15:41Z</time>
      </trkpt>
      <trkpt lat="48.46357" lon="3.73332">
        <ele>86.51</ele>
        <time>2014-09-20T13:15:42Z</time>
      </trkpt>
      <trkpt lat="48.46358" lon="3.73325">
        <ele>86.46</ele>
        <time>2014-09-20T13:15:43Z</time>
      </trkpt>
      <trkpt lat="48.46358" lon="3.73318">
        <ele>86.43</ele>
        <time>2014-09-20T13:15:44Z</time>
      </trkpt>
      <trkpt lat="48.46359" lon="3.7331">
        <ele>86.4</ele>
        <time>2014-09-20T13:15:45Z</time>
      </trkpt>
      <trkpt lat="48.4636" lon="3.73303">
        <ele>86.38</ele>
        <time>2014-09-20T13:15:46Z</time>
      </trkpt>
      <trkpt lat="48.46361" lon="3.73296">
        <ele>86.37</ele>
        <time>2014-09-20T13:15:47Z</time>
      </trkpt>
      <trkpt lat="48.46361" lon="3.73289">
        <ele>86.36</ele>
        <time>2014-09-20T13:15:48Z</time>
      </trkpt>
      <trkpt lat="48.46362" lon="3.73282">
        <ele>86.35</ele>
        <time>2014-09-20T13:15:49Z</time>
      </trkpt>
      <trkpt lat="48.46362" lon="3.73275">
        <ele>86.35</ele>
        <time>2014-09-20T13:15:50Z</time>
      </trkpt>
      <trkpt lat="48.46362" lon="3.73268">
        <ele>86.34</ele>
        <time>2014-09-20T13:15:51Z</time>
      </trkpt>
      <trkpt lat="48.46363" lon="3.73261">
        <ele>86.31</ele>
        <time>2014-09-20T13:15:52Z</time>
      </trkpt>
      <trkpt lat="48.46363" lon="3.73254">
        <ele>86.29</ele>
        <time>2014-09-20T13:15:53Z</time>
      </trkpt>
      <trkpt lat="48.46363" lon="3.73247">
        <ele>86.28</ele>
        <time>2014-09-20T13:15:54Z</time>
      </trkpt>
      <trkpt lat="48.46364" lon="3.73241">
        <ele>86.26</ele>
        <time>2014-09-20T13:15:55Z</time>
      </trkpt>
      <trkpt lat="48.46364" lon="3.73227">
        <ele>86.2</ele>
        <time>2014-09-20T13:15:57Z</time>
      </trkpt>
      <trkpt lat="48.46365" lon="3.7322">
        <ele>86.16</ele>
        <time>2014-09-20T13:15:58Z</time>
      </trkpt>
      <trkpt lat="48.46366" lon="3.73207">
        <ele>86.1</ele>
        <time>2014-09-20T13:16:00Z</time>
      </trkpt>
      <trkpt lat="48.46367" lon="3.73194">
        <ele>86.07</ele>
        <time>2014-09-20T13:16:02Z</time>
      </trkpt>
      <trkpt lat="48.46368" lon="3.73181">
        <ele>86.05</ele>
        <time>2014-09-20T13:16:04Z</time>
      </trkpt>
      <trkpt lat="48.46369" lon="3.73168">
        <ele>86.07</ele>
        <time>2014-09-20T13:16:06Z</time>
      </trkpt>
      <trkpt lat="48.46371" lon="3.73155">
        <ele>86.14</ele>
        <time>2014-09-20T13:16:08Z</time>
      </trkpt>
      <trkpt lat="48.46372" lon="3.73143">
        <ele>86.22</ele>
        <time>2014-09-20T13:16:10Z</time>
      </trkpt>
      <trkpt lat="48.46373" lon="3.73131">
        <ele>86.27</ele>
        <time>2014-09-20T13:16:12Z</time>
      </trkpt>
      <trkpt lat="48.46374" lon="3.73119">
        <ele>86.29</ele>
        <time>2014-09-20T13:16:14Z</time>
      </trkpt>
      <trkpt lat="48.46373" lon="3.73107">
        <ele>86.31</ele>
        <time>2014-09-20T13:16:16Z</time>
      </trkpt>
      <trkpt lat="48.46372" lon="3.73094">
        <ele>86.32</ele>
        <time>2014-09-20T13:16:18Z</time>
      </trkpt>
      <trkpt lat="48.46371" lon="3.73082">
        <ele>86.28</ele>
        <time>2014-09-20T13:16:20Z</time>
      </trkpt>
      <trkpt lat="48.46369" lon="3.73069">
        <ele>86.21</ele>
        <time>2014-09-20T13:16:22Z</time>
      </trkpt>
      <trkpt lat="48.46368" lon="3.73062">
        <ele>86.17</ele>
        <time>2014-09-20T13:16:23Z</time>
      </trkpt>
      <trkpt lat="48.46367" lon="3.73056">
        <ele>86.13</ele>
        <time>2014-09-20T13:16:24Z</time>
      </trkpt>
      <trkpt lat="48.46366" lon="3.73049">
        <ele>86.11</ele>
        <time>2014-09-20T13:16:25Z</time>
      </trkpt>
      <trkpt lat="48.46365" lon="3.73042">
        <ele>86.09</ele>
        <time>2014-09-20T13:16:26Z</time>
      </trkpt>
      <trkpt lat="48.46364" lon="3.73036">
        <ele>86.05</ele>
        <time>2014-09-20T13:16:27Z</time>
      </trkpt>
      <trkpt lat="48.46363" lon="3.73029">
        <ele>86.02</ele>
        <time>2014-09-20T13:16:28Z</time>
      </trkpt>
      <trkpt lat="48.46362" lon="3.73022">
        <ele>85.99</ele>
        <time>2014-09-20T13:16:29Z</time>
      </trkpt>
      <trkpt lat="48.4636" lon="3.73016">
        <ele>85.98</ele>
        <time>2014-09-20T13:16:30Z</time>
      </trkpt>
      <trkpt lat="48.46359" lon="3.73009">
        <ele>85.97</ele>
        <time>2014-09-20T13:16:31Z</time>
      </trkpt>
      <trkpt lat="48.46358" lon="3.73002">
        <ele>85.96</ele>
        <time>2014-09-20T13:16:32Z</time>
      </trkpt>
      <trkpt lat="48.46356" lon="3.7299">
        <ele>85.94</ele>
        <time>2014-09-20T13:16:34Z</time>
      </trkpt>
      <trkpt lat="48.46354" lon="3.72977">
        <ele>85.94</ele>
        <time>2014-09-20T13:16:36Z</time>
      </trkpt>
      <trkpt lat="48.46352" lon="3.72964">
        <ele>85.89</ele>
        <time>2014-09-20T13:16:38Z</time>
      </trkpt>
      <trkpt lat="48.4635" lon="3.72951">
        <ele>85.88</ele>
        <time>2014-09-20T13:16:40Z</time>
      </trkpt>
      <trkpt lat="48.46348" lon="3.72938">
        <ele>85.86</ele>
        <time>2014-09-20T13:16:42Z</time>
      </trkpt>
      <trkpt lat="48.46346" lon="3.72926">
        <ele>85.82</ele>
        <time>2014-09-20T13:16:44Z</time>
      </trkpt>
      <trkpt lat="48.46345" lon="3.72913">
        <ele>85.78</ele>
        <time>2014-09-20T13:16:46Z</time>
      </trkpt>
      <trkpt lat="48.46342" lon="3.72901">
        <ele>85.8</ele>
        <time>2014-09-20T13:16:48Z</time>
      </trkpt>
      <trkpt lat="48.46337" lon="3.72892">
        <ele>85.74</ele>
        <time>2014-09-20T13:16:50Z</time>
      </trkpt>
      <trkpt lat="48.46329" lon="3.72888">
        <ele>85.62</ele>
        <time>2014-09-20T13:16:52Z</time>
      </trkpt>
      <trkpt lat="48.46321" lon="3.72889">
        <ele>85.56</ele>
        <time>2014-09-20T13:16:54Z</time>
      </trkpt>
      <trkpt lat="48.46314" lon="3.72891">
        <ele>85.57</ele>
        <time>2014-09-20T13:16:56Z</time>
      </trkpt>
      <trkpt lat="48.46307" lon="3.72889">
        <ele>85.57</ele>
        <time>2014-09-20T13:16:58Z</time>
      </trkpt>
      <trkpt lat="48.46302" lon="3.72881">
        <ele>85.53</ele>
        <time>2014-09-20T13:17:00Z</time>
      </trkpt>
      <trkpt lat="48.463" lon="3.72871">
        <ele>85.55</ele>
        <time>2014-09-20T13:17:02Z</time>
      </trkpt>
      <trkpt lat="48.46298" lon="3.7286">
        <ele>85.54</ele>
        <time>2014-09-20T13:17:04Z</time>
      </trkpt>
      <trkpt lat="48.46296" lon="3.72849">
        <ele>85.58</ele>
        <time>2014-09-20T13:17:06Z</time>
      </trkpt>
      <trkpt lat="48.46294" lon="3.72837">
        <ele>85.63</ele>
        <time>2014-09-20T13:17:08Z</time>
      </trkpt>
      <trkpt lat="48.46291" lon="3.72824">
        <ele>85.63</ele>
        <time>2014-09-20T13:17:10Z</time>
      </trkpt>
      <trkpt lat="48.46288" lon="3.72812">
        <ele>85.65</ele>
        <time>2014-09-20T13:17:12Z</time>
      </trkpt>
      <trkpt lat="48.46285" lon="3.728">
        <ele>85.71</ele>
        <time>2014-09-20T13:17:14Z</time>
      </trkpt>
      <trkpt lat="48.46282" lon="3.72788">
        <ele>85.72</ele>
        <time>2014-09-20T13:17:16Z</time>
      </trkpt>
      <trkpt lat="48.46278" lon="3.72776">
        <ele>85.75</ele>
        <time>2014-09-20T13:17:18Z</time>
      </trkpt>
      <trkpt lat="48.46275" lon="3.72765">
        <ele>85.83</ele>
        <time>2014-09-20T13:17:20Z</time>
      </trkpt>
      <trkpt lat="48.46271" lon="3.72754">
        <ele>85.94</ele>
        <time>2014-09-20T13:17:22Z</time>
      </trkpt>
      <trkpt lat="48.46266" lon="3.72745">
        <ele>86.05</ele>
        <time>2014-09-20T13:17:24Z</time>
      </trkpt>
      <trkpt lat="48.4626" lon="3.7274">
        <ele>86.17</ele>
        <time>2014-09-20T13:17:26Z</time>
      </trkpt>
      <trkpt lat="48.46252" lon="3.72739">
        <ele>86.2</ele>
        <time>2014-09-20T13:17:28Z</time>
      </trkpt>
      <trkpt lat="48.46244" lon="3.72738">
        <ele>86.23</ele>
        <time>2014-09-20T13:17:30Z</time>
      </trkpt>
      <trkpt lat="48.46235" lon="3.72737">
        <ele>86.28</ele>
        <time>2014-09-20T13:17:32Z</time>
      </trkpt>
      <trkpt lat="48.46227" lon="3.72735">
        <ele>86.35</ele>
        <time>2014-09-20T13:17:34Z</time>
      </trkpt>
      <trkpt lat="48.46219" lon="3.72735">
        <ele>86.43</ele>
        <time>2014-09-20T13:17:36Z</time>
      </trkpt>
      <trkpt lat="48.4621" lon="3.72734">
        <ele>86.47</ele>
        <time>2014-09-20T13:17:38Z</time>
      </trkpt>
      <trkpt lat="48.46202" lon="3.72732">
        <ele>86.54</ele>
        <time>2014-09-20T13:17:40Z</time>
      </trkpt>
      <trkpt lat="48.46193" lon="3.72732">
        <ele>86.58</ele>
        <time>2014-09-20T13:17:42Z</time>
      </trkpt>
      <trkpt lat="48.46185" lon="3.72731">
        <ele>86.53</ele>
        <time>2014-09-20T13:17:44Z</time>
      </trkpt>
      <trkpt lat="48.46177" lon="3.7273">
        <ele>86.51</ele>
        <time>2014-09-20T13:17:46Z</time>
      </trkpt>
      <trkpt lat="48.46168" lon="3.72729">
        <ele>86.56</ele>
        <time>2014-09-20T13:17:48Z</time>
      </trkpt>
      <trkpt lat="48.4616" lon="3.72728">
        <ele>86.62</ele>
        <time>2014-09-20T13:17:50Z</time>
      </trkpt>
      <trkpt lat="48.46151" lon="3.72727">
        <ele>86.71</ele>
        <time>2014-09-20T13:17:52Z</time>
      </trkpt>
      <trkpt lat="48.46143" lon="3.72726">
        <ele>86.83</ele>
        <time>2014-09-20T13:17:54Z</time>
      </trkpt>
      <trkpt lat="48.46135" lon="3.72726">
        <ele>86.94</ele>
        <time>2014-09-20T13:17:56Z</time>
      </trkpt>
      <trkpt lat="48.46127" lon="3.72725">
        <ele>86.95</ele>
        <time>2014-09-20T13:17:58Z</time>
      </trkpt>
      <trkpt lat="48.46118" lon="3.72724">
        <ele>86.97</ele>
        <time>2014-09-20T13:18:00Z</time>
      </trkpt>
      <trkpt lat="48.4611" lon="3.72723">
        <ele>87.02</ele>
        <time>2014-09-20T13:18:02Z</time>
      </trkpt>
      <trkpt lat="48.46101" lon="3.72723">
        <ele>87.18</ele>
        <time>2014-09-20T13:18:04Z</time>
      </trkpt>
      <trkpt lat="48.46092" lon="3.72723">
        <ele>87.38</ele>
        <time>2014-09-20T13:18:06Z</time>
      </trkpt>
      <trkpt lat="48.46083" lon="3.72723">
        <ele>87.63</ele>
        <time>2014-09-20T13:18:08Z</time>
      </trkpt>
      <trkpt lat="48.46079" lon="3.72722">
        <ele>87.75</ele>
        <time>2014-09-20T13:18:09Z</time>
      </trkpt>
      <trkpt lat="48.46074" lon="3.72722">
        <ele>87.9</ele>
        <time>2014-09-20T13:18:10Z</time>
      </trkpt>
      <trkpt lat="48.4607" lon="3.72722">
        <ele>88</ele>
        <time>2014-09-20T13:18:11Z</time>
      </trkpt>
      <trkpt lat="48.46065" lon="3.72722">
        <ele>88.14</ele>
        <time>2014-09-20T13:18:12Z</time>
      </trkpt>
      <trkpt lat="48.4606" lon="3.72722">
        <ele>88.26</ele>
        <time>2014-09-20T13:18:13Z</time>
      </trkpt>
      <trkpt lat="48.46056" lon="3.72721">
        <ele>88.4</ele>
        <time>2014-09-20T13:18:14Z</time>
      </trkpt>
      <trkpt lat="48.46051" lon="3.72721">
        <ele>88.53</ele>
        <time>2014-09-20T13:18:15Z</time>
      </trkpt>
      <trkpt lat="48.46047" lon="3.72721">
        <ele>88.66</ele>
        <time>2014-09-20T13:18:16Z</time>
      </trkpt>
      <trkpt lat="48.46042" lon="3.72721">
        <ele>88.77</ele>
        <time>2014-09-20T13:18:17Z</time>
      </trkpt>
      <trkpt lat="48.46033" lon="3.72719">
        <ele>88.9</ele>
        <time>2014-09-20T13:18:19Z</time>
      </trkpt>
      <trkpt lat="48.46025" lon="3.72718">
        <ele>88.85</ele>
        <time>2014-09-20T13:18:21Z</time>
      </trkpt>
      <trkpt lat="48.4602" lon="3.72718">
        <ele>88.82</ele>
        <time>2014-09-20T13:18:22Z</time>
      </trkpt>
      <trkpt lat="48.46015" lon="3.72718">
        <ele>88.77</ele>
        <time>2014-09-20T13:18:23Z</time>
      </trkpt>
      <trkpt lat="48.46011" lon="3.72718">
        <ele>88.73</ele>
        <time>2014-09-20T13:18:24Z</time>
      </trkpt>
      <trkpt lat="48.46006" lon="3.72717">
        <ele>88.71</ele>
        <time>2014-09-20T13:18:25Z</time>
      </trkpt>
      <trkpt lat="48.46002" lon="3.72717">
        <ele>88.66</ele>
        <time>2014-09-20T13:18:26Z</time>
      </trkpt>
      <trkpt lat="48.45997" lon="3.72717">
        <ele>88.68</ele>
        <time>2014-09-20T13:18:27Z</time>
      </trkpt>
      <trkpt lat="48.45993" lon="3.72717">
        <ele>88.69</ele>
        <time>2014-09-20T13:18:28Z</time>
      </trkpt>
      <trkpt lat="48.45984" lon="3.72715">
        <ele>88.66</ele>
        <time>2014-09-20T13:18:30Z</time>
      </trkpt>
      <trkpt lat="48.45975" lon="3.72713">
        <ele>88.69</ele>
        <time>2014-09-20T13:18:32Z</time>
      </trkpt>
      <trkpt lat="48.45971" lon="3.72712">
        <ele>88.68</ele>
        <time>2014-09-20T13:18:33Z</time>
      </trkpt>
      <trkpt lat="48.45962" lon="3.7271">
        <ele>88.66</ele>
        <time>2014-09-20T13:18:35Z</time>
      </trkpt>
      <trkpt lat="48.45953" lon="3.72708">
        <ele>88.78</ele>
        <time>2014-09-20T13:18:37Z</time>
      </trkpt>
      <trkpt lat="48.45944" lon="3.72706">
        <ele>88.96</ele>
        <time>2014-09-20T13:18:39Z</time>
      </trkpt>
      <trkpt lat="48.4594" lon="3.72706">
        <ele>89.08</ele>
        <time>2014-09-20T13:18:40Z</time>
      </trkpt>
      <trkpt lat="48.45935" lon="3.72705">
        <ele>89.24</ele>
        <time>2014-09-20T13:18:41Z</time>
      </trkpt>
      <trkpt lat="48.45926" lon="3.72703">
        <ele>89.52</ele>
        <time>2014-09-20T13:18:43Z</time>
      </trkpt>
      <trkpt lat="48.45918" lon="3.72701">
        <ele>89.79</ele>
        <time>2014-09-20T13:18:45Z</time>
      </trkpt>
      <trkpt lat="48.45909" lon="3.72699">
        <ele>90</ele>
        <time>2014-09-20T13:18:47Z</time>
      </trkpt>
      <trkpt lat="48.45901" lon="3.72697">
        <ele>90.19</ele>
        <time>2014-09-20T13:18:49Z</time>
      </trkpt>
      <trkpt lat="48.45892" lon="3.72695">
        <ele>90.36</ele>
        <time>2014-09-20T13:18:51Z</time>
      </trkpt>
      <trkpt lat="48.45887" lon="3.72695">
        <ele>90.43</ele>
        <time>2014-09-20T13:18:52Z</time>
      </trkpt>
      <trkpt lat="48.45883" lon="3.72694">
        <ele>90.5</ele>
        <time>2014-09-20T13:18:53Z</time>
      </trkpt>
      <trkpt lat="48.45878" lon="3.72693">
        <ele>90.58</ele>
        <time>2014-09-20T13:18:54Z</time>
      </trkpt>
      <trkpt lat="48.45874" lon="3.72692">
        <ele>90.67</ele>
        <time>2014-09-20T13:18:55Z</time>
      </trkpt>
      <trkpt lat="48.45869" lon="3.72691">
        <ele>90.76</ele>
        <time>2014-09-20T13:18:56Z</time>
      </trkpt>
      <trkpt lat="48.45865" lon="3.7269">
        <ele>90.83</ele>
        <time>2014-09-20T13:18:57Z</time>
      </trkpt>
      <trkpt lat="48.45856" lon="3.72688">
        <ele>90.96</ele>
        <time>2014-09-20T13:18:59Z</time>
      </trkpt>
      <trkpt lat="48.45847" lon="3.72686">
        <ele>91.08</ele>
        <time>2014-09-20T13:19:01Z</time>
      </trkpt>
      <trkpt lat="48.45838" lon="3.72685">
        <ele>91.19</ele>
        <time>2014-09-20T13:19:03Z</time>
      </trkpt>
      <trkpt lat="48.4583" lon="3.72683">
        <ele>91.27</ele>
        <time>2014-09-20T13:19:05Z</time>
      </trkpt>
      <trkpt lat="48.45822" lon="3.72682">
        <ele>91.37</ele>
        <time>2014-09-20T13:19:07Z</time>
      </trkpt>
      <trkpt lat="48.45813" lon="3.7268">
        <ele>91.48</ele>
        <time>2014-09-20T13:19:09Z</time>
      </trkpt>
      <trkpt lat="48.45805" lon="3.72679">
        <ele>91.52</ele>
        <time>2014-09-20T13:19:11Z</time>
      </trkpt>
      <trkpt lat="48.45797" lon="3.72677">
        <ele>91.57</ele>
        <time>2014-09-20T13:19:13Z</time>
      </trkpt>
      <trkpt lat="48.4579" lon="3.72677">
        <ele>91.59</ele>
        <time>2014-09-20T13:19:15Z</time>
      </trkpt>
      <trkpt lat="48.45781" lon="3.72675">
        <ele>91.59</ele>
        <time>2014-09-20T13:19:17Z</time>
      </trkpt>
      <trkpt lat="48.45776" lon="3.72674">
        <ele>91.62</ele>
        <time>2014-09-20T13:19:18Z</time>
      </trkpt>
      <trkpt lat="48.45771" lon="3.72673">
        <ele>91.7</ele>
        <time>2014-09-20T13:19:19Z</time>
      </trkpt>
      <trkpt lat="48.45766" lon="3.72673">
        <ele>91.81</ele>
        <time>2014-09-20T13:19:20Z</time>
      </trkpt>
      <trkpt lat="48.45762" lon="3.72672">
        <ele>91.91</ele>
        <time>2014-09-20T13:19:21Z</time>
      </trkpt>
      <trkpt lat="48.45753" lon="3.72671">
        <ele>92.16</ele>
        <time>2014-09-20T13:19:23Z</time>
      </trkpt>
      <trkpt lat="48.45744" lon="3.7267">
        <ele>92.44</ele>
        <time>2014-09-20T13:19:25Z</time>
      </trkpt>
      <trkpt lat="48.45736" lon="3.72669">
        <ele>92.68</ele>
        <time>2014-09-20T13:19:27Z</time>
      </trkpt>
      <trkpt lat="48.45728" lon="3.72669">
        <ele>92.88</ele>
        <time>2014-09-20T13:19:29Z</time>
      </trkpt>
      <trkpt lat="48.4572" lon="3.72668">
        <ele>93.12</ele>
        <time>2014-09-20T13:19:31Z</time>
      </trkpt>
      <trkpt lat="48.45712" lon="3.7267">
        <ele>93.3</ele>
        <time>2014-09-20T13:19:33Z</time>
      </trkpt>
      <trkpt lat="48.45704" lon="3.7267">
        <ele>93.4</ele>
        <time>2014-09-20T13:19:35Z</time>
      </trkpt>
      <trkpt lat="48.45695" lon="3.72669">
        <ele>93.52</ele>
        <time>2014-09-20T13:19:37Z</time>
      </trkpt>
      <trkpt lat="48.45687" lon="3.72669">
        <ele>93.64</ele>
        <time>2014-09-20T13:19:39Z</time>
      </trkpt>
      <trkpt lat="48.45679" lon="3.72669">
        <ele>93.72</ele>
        <time>2014-09-20T13:19:41Z</time>
      </trkpt>
      <trkpt lat="48.45671" lon="3.72669">
        <ele>93.77</ele>
        <time>2014-09-20T13:19:43Z</time>
      </trkpt>
      <trkpt lat="48.45663" lon="3.72669">
        <ele>93.77</ele>
        <time>2014-09-20T13:19:45Z</time>
      </trkpt>
      <trkpt lat="48.45655" lon="3.72669">
        <ele>93.75</ele>
        <time>2014-09-20T13:19:47Z</time>
      </trkpt>
      <trkpt lat="48.45648" lon="3.72668">
        <ele>93.81</ele>
        <time>2014-09-20T13:19:49Z</time>
      </trkpt>
      <trkpt lat="48.4564" lon="3.72668">
        <ele>93.97</ele>
        <time>2014-09-20T13:19:51Z</time>
      </trkpt>
      <trkpt lat="48.45633" lon="3.72668">
        <ele>94.11</ele>
        <time>2014-09-20T13:19:53Z</time>
      </trkpt>
      <trkpt lat="48.45625" lon="3.72667">
        <ele>94.21</ele>
        <time>2014-09-20T13:19:55Z</time>
      </trkpt>
      <trkpt lat="48.45618" lon="3.72667">
        <ele>94.33</ele>
        <time>2014-09-20T13:19:57Z</time>
      </trkpt>
      <trkpt lat="48.45611" lon="3.72666">
        <ele>94.48</ele>
        <time>2014-09-20T13:19:59Z</time>
      </trkpt>
      <trkpt lat="48.45604" lon="3.72666">
        <ele>94.66</ele>
        <time>2014-09-20T13:20:01Z</time>
      </trkpt>
      <trkpt lat="48.45597" lon="3.72666">
        <ele>94.82</ele>
        <time>2014-09-20T13:20:03Z</time>
      </trkpt>
      <trkpt lat="48.4559" lon="3.72666">
        <ele>94.87</ele>
        <time>2014-09-20T13:20:05Z</time>
      </trkpt>
      <trkpt lat="48.45583" lon="3.72665">
        <ele>94.96</ele>
        <time>2014-09-20T13:20:07Z</time>
      </trkpt>
      <trkpt lat="48.45577" lon="3.72665">
        <ele>95.08</ele>
        <time>2014-09-20T13:20:09Z</time>
      </trkpt>
      <trkpt lat="48.4557" lon="3.72665">
        <ele>95.19</ele>
        <time>2014-09-20T13:20:11Z</time>
      </trkpt>
      <trkpt lat="48.45563" lon="3.72665">
        <ele>95.25</ele>
        <time>2014-09-20T13:20:13Z</time>
      </trkpt>
      <trkpt lat="48.45555" lon="3.72665">
        <ele>95.4</ele>
        <time>2014-09-20T13:20:15Z</time>
      </trkpt>
      <trkpt lat="48.45548" lon="3.72665">
        <ele>95.61</ele>
        <time>2014-09-20T13:20:17Z</time>
      </trkpt>
      <trkpt lat="48.45541" lon="3.72665">
        <ele>95.89</ele>
        <time>2014-09-20T13:20:19Z</time>
      </trkpt>
      <trkpt lat="48.45534" lon="3.72665">
        <ele>96.12</ele>
        <time>2014-09-20T13:20:21Z</time>
      </trkpt>
      <trkpt lat="48.45527" lon="3.72665">
        <ele>96.31</ele>
        <time>2014-09-20T13:20:23Z</time>
      </trkpt>
      <trkpt lat="48.45521" lon="3.72665">
        <ele>96.52</ele>
        <time>2014-09-20T13:20:25Z</time>
      </trkpt>
      <trkpt lat="48.45514" lon="3.72665">
        <ele>96.68</ele>
        <time>2014-09-20T13:20:27Z</time>
      </trkpt>
      <trkpt lat="48.45508" lon="3.72665">
        <ele>96.81</ele>
        <time>2014-09-20T13:20:29Z</time>
      </trkpt>
      <trkpt lat="48.45501" lon="3.72664">
        <ele>96.95</ele>
        <time>2014-09-20T13:20:31Z</time>
      </trkpt>
      <trkpt lat="48.45495" lon="3.72664">
        <ele>97.1</ele>
        <time>2014-09-20T13:20:33Z</time>
      </trkpt>
      <trkpt lat="48.45488" lon="3.72664">
        <ele>97.27</ele>
        <time>2014-09-20T13:20:35Z</time>
      </trkpt>
      <trkpt lat="48.45481" lon="3.72665">
        <ele>97.41</ele>
        <time>2014-09-20T13:20:37Z</time>
      </trkpt>
      <trkpt lat="48.45474" lon="3.72666">
        <ele>97.5</ele>
        <time>2014-09-20T13:20:39Z</time>
      </trkpt>
      <trkpt lat="48.45467" lon="3.72666">
        <ele>97.67</ele>
        <time>2014-09-20T13:20:41Z</time>
      </trkpt>
      <trkpt lat="48.4546" lon="3.72667">
        <ele>97.81</ele>
        <time>2014-09-20T13:20:43Z</time>
      </trkpt>
      <trkpt lat="48.45453" lon="3.72668">
        <ele>97.93</ele>
        <time>2014-09-20T13:20:45Z</time>
      </trkpt>
      <trkpt lat="48.45446" lon="3.72668">
        <ele>98.08</ele>
        <time>2014-09-20T13:20:47Z</time>
      </trkpt>
      <trkpt lat="48.4544" lon="3.72669">
        <ele>98.22</ele>
        <time>2014-09-20T13:20:49Z</time>
      </trkpt>
      <trkpt lat="48.45433" lon="3.72669">
        <ele>98.35</ele>
        <time>2014-09-20T13:20:51Z</time>
      </trkpt>
      <trkpt lat="48.45426" lon="3.7267">
        <ele>98.45</ele>
        <time>2014-09-20T13:20:53Z</time>
      </trkpt>
      <trkpt lat="48.4542" lon="3.72671">
        <ele>98.6</ele>
        <time>2014-09-20T13:20:55Z</time>
      </trkpt>
      <trkpt lat="48.45413" lon="3.72674">
        <ele>98.74</ele>
        <time>2014-09-20T13:20:57Z</time>
      </trkpt>
      <trkpt lat="48.45406" lon="3.72675">
        <ele>98.91</ele>
        <time>2014-09-20T13:20:59Z</time>
      </trkpt>
      <trkpt lat="48.454" lon="3.72677">
        <ele>99.03</ele>
        <time>2014-09-20T13:21:01Z</time>
      </trkpt>
      <trkpt lat="48.45393" lon="3.7268">
        <ele>99.23</ele>
        <time>2014-09-20T13:21:03Z</time>
      </trkpt>
      <trkpt lat="48.45386" lon="3.72682">
        <ele>99.43</ele>
        <time>2014-09-20T13:21:05Z</time>
      </trkpt>
      <trkpt lat="48.4538" lon="3.72686">
        <ele>99.67</ele>
        <time>2014-09-20T13:21:07Z</time>
      </trkpt>
      <trkpt lat="48.45373" lon="3.72689">
        <ele>99.9</ele>
        <time>2014-09-20T13:21:09Z</time>
      </trkpt>
      <trkpt lat="48.45367" lon="3.72692">
        <ele>100.11</ele>
        <time>2014-09-20T13:21:11Z</time>
      </trkpt>
      <trkpt lat="48.45361" lon="3.72696">
        <ele>100.22</ele>
        <time>2014-09-20T13:21:13Z</time>
      </trkpt>
      <trkpt lat="48.45354" lon="3.72699">
        <ele>100.31</ele>
        <time>2014-09-20T13:21:15Z</time>
      </trkpt>
      <trkpt lat="48.45347" lon="3.72702">
        <ele>100.41</ele>
        <time>2014-09-20T13:21:17Z</time>
      </trkpt>
      <trkpt lat="48.45341" lon="3.72704">
        <ele>100.58</ele>
        <time>2014-09-20T13:21:19Z</time>
      </trkpt>
      <trkpt lat="48.45334" lon="3.72706">
        <ele>100.8</ele>
        <time>2014-09-20T13:21:21Z</time>
      </trkpt>
      <trkpt lat="48.45328" lon="3.72707">
        <ele>101.08</ele>
        <time>2014-09-20T13:21:23Z</time>
      </trkpt>
      <trkpt lat="48.45323" lon="3.72709">
        <ele>101.58</ele>
        <time>2014-09-20T13:21:25Z</time>
      </trkpt>
      <trkpt lat="48.45317" lon="3.72709">
        <ele>102.18</ele>
        <time>2014-09-20T13:21:27Z</time>
      </trkpt>
      <trkpt lat="48.45311" lon="3.7271">
        <ele>102.78</ele>
        <time>2014-09-20T13:21:29Z</time>
      </trkpt>
      <trkpt lat="48.45305" lon="3.72711">
        <ele>103.36</ele>
        <time>2014-09-20T13:21:31Z</time>
      </trkpt>
      <trkpt lat="48.453" lon="3.72712">
        <ele>103.9</ele>
        <time>2014-09-20T13:21:33Z</time>
      </trkpt>
      <trkpt lat="48.45294" lon="3.72713">
        <ele>104.42</ele>
        <time>2014-09-20T13:21:35Z</time>
      </trkpt>
      <trkpt lat="48.45289" lon="3.72715">
        <ele>104.96</ele>
        <time>2014-09-20T13:21:37Z</time>
      </trkpt>
      <trkpt lat="48.45284" lon="3.72719">
        <ele>105.36</ele>
        <time>2014-09-20T13:21:39Z</time>
      </trkpt>
      <trkpt lat="48.45279" lon="3.72723">
        <ele>105.77</ele>
        <time>2014-09-20T13:21:41Z</time>
      </trkpt>
      <trkpt lat="48.45274" lon="3.72726">
        <ele>106.1</ele>
        <time>2014-09-20T13:21:43Z</time>
      </trkpt>
      <trkpt lat="48.45269" lon="3.72729">
        <ele>106.31</ele>
        <time>2014-09-20T13:21:45Z</time>
      </trkpt>
      <trkpt lat="48.45264" lon="3.72731">
        <ele>106.52</ele>
        <time>2014-09-20T13:21:47Z</time>
      </trkpt>
      <trkpt lat="48.45258" lon="3.72733">
        <ele>106.91</ele>
        <time>2014-09-20T13:21:50Z</time>
      </trkpt>
      <trkpt lat="48.45252" lon="3.72735">
        <ele>107.33</ele>
        <time>2014-09-20T13:21:53Z</time>
      </trkpt>
      <trkpt lat="48.45247" lon="3.72736">
        <ele>107.84</ele>
        <time>2014-09-20T13:21:56Z</time>
      </trkpt>
      <trkpt lat="48.45241" lon="3.72738">
        <ele>108.32</ele>
        <time>2014-09-20T13:21:59Z</time>
      </trkpt>
      <trkpt lat="48.45235" lon="3.72739">
        <ele>108.8</ele>
        <time>2014-09-20T13:22:02Z</time>
      </trkpt>
      <trkpt lat="48.4523" lon="3.7274">
        <ele>109.41</ele>
        <time>2014-09-20T13:22:05Z</time>
      </trkpt>
      <trkpt lat="48.45224" lon="3.72741">
        <ele>110.21</ele>
        <time>2014-09-20T13:22:08Z</time>
      </trkpt>
      <trkpt lat="48.45218" lon="3.72741">
        <ele>111.02</ele>
        <time>2014-09-20T13:22:11Z</time>
      </trkpt>
      <trkpt lat="48.45212" lon="3.72742">
        <ele>111.76</ele>
        <time>2014-09-20T13:22:14Z</time>
      </trkpt>
      <trkpt lat="48.45206" lon="3.72742">
        <ele>112.52</ele>
        <time>2014-09-20T13:22:17Z</time>
      </trkpt>
      <trkpt lat="48.452" lon="3.72742">
        <ele>113.16</ele>
        <time>2014-09-20T13:22:20Z</time>
      </trkpt>
      <trkpt lat="48.45194" lon="3.72743">
        <ele>113.72</ele>
        <time>2014-09-20T13:22:23Z</time>
      </trkpt>
      <trkpt lat="48.45189" lon="3.72745">
        <ele>114.41</ele>
        <time>2014-09-20T13:22:26Z</time>
      </trkpt>
      <trkpt lat="48.45183" lon="3.72748">
        <ele>115.15</ele>
        <time>2014-09-20T13:22:29Z</time>
      </trkpt>
      <trkpt lat="48.45177" lon="3.7275">
        <ele>116.14</ele>
        <time>2014-09-20T13:22:32Z</time>
      </trkpt>
      <trkpt lat="48.45171" lon="3.72751">
        <ele>117.09</ele>
        <time>2014-09-20T13:22:35Z</time>
      </trkpt>
      <trkpt lat="48.45165" lon="3.72752">
        <ele>117.93</ele>
        <time>2014-09-20T13:22:38Z</time>
      </trkpt>
      <trkpt lat="48.45159" lon="3.72754">
        <ele>118.76</ele>
        <time>2014-09-20T13:22:41Z</time>
      </trkpt>
      <trkpt lat="48.45153" lon="3.72753">
        <ele>119.56</ele>
        <time>2014-09-20T13:22:44Z</time>
      </trkpt>
      <trkpt lat="48.45151" lon="3.72747">
        <ele>119.98</ele>
        <time>2014-09-20T13:22:46Z</time>
      </trkpt>
      <trkpt lat="48.4515" lon="3.72738">
        <ele>120.18</ele>
        <time>2014-09-20T13:22:48Z</time>
      </trkpt>
      <trkpt lat="48.45149" lon="3.72728">
        <ele>120.29</ele>
        <time>2014-09-20T13:22:50Z</time>
      </trkpt>
      <trkpt lat="48.45149" lon="3.72718">
        <ele>120.37</ele>
        <time>2014-09-20T13:22:52Z</time>
      </trkpt>
      <trkpt lat="48.4515" lon="3.72708">
        <ele>120.33</ele>
        <time>2014-09-20T13:22:54Z</time>
      </trkpt>
      <trkpt lat="48.45149" lon="3.72696">
        <ele>120.38</ele>
        <time>2014-09-20T13:22:56Z</time>
      </trkpt>
      <trkpt lat="48.45145" lon="3.72688">
        <ele>120.69</ele>
        <time>2014-09-20T13:22:58Z</time>
      </trkpt>
      <trkpt lat="48.4514" lon="3.72685">
        <ele>121.18</ele>
        <time>2014-09-20T13:23:00Z</time>
      </trkpt>
      <trkpt lat="48.45135" lon="3.72683">
        <ele>121.69</ele>
        <time>2014-09-20T13:23:02Z</time>
      </trkpt>
      <trkpt lat="48.45129" lon="3.72683">
        <ele>122.37</ele>
        <time>2014-09-20T13:23:05Z</time>
      </trkpt>
      <trkpt lat="48.45124" lon="3.72684">
        <ele>122.98</ele>
        <time>2014-09-20T13:23:08Z</time>
      </trkpt>
      <trkpt lat="48.45119" lon="3.72685">
        <ele>123.57</ele>
        <time>2014-09-20T13:23:11Z</time>
      </trkpt>
      <trkpt lat="48.45113" lon="3.72684">
        <ele>124.3</ele>
        <time>2014-09-20T13:23:15Z</time>
      </trkpt>
      <trkpt lat="48.45109" lon="3.72679">
        <ele>125.18</ele>
        <time>2014-09-20T13:23:19Z</time>
      </trkpt>
      <trkpt lat="48.45107" lon="3.72671">
        <ele>125.91</ele>
        <time>2014-09-20T13:23:22Z</time>
      </trkpt>
      <trkpt lat="48.45106" lon="3.72662">
        <ele>126.27</ele>
        <time>2014-09-20T13:23:25Z</time>
      </trkpt>
      <trkpt lat="48.45104" lon="3.72652">
        <ele>126.15</ele>
        <time>2014-09-20T13:23:28Z</time>
      </trkpt>
      <trkpt lat="48.45102" lon="3.72643">
        <ele>125.88</ele>
        <time>2014-09-20T13:23:31Z</time>
      </trkpt>
      <trkpt lat="48.45102" lon="3.72635">
        <ele>125.79</ele>
        <time>2014-09-20T13:23:33Z</time>
      </trkpt>
      <trkpt lat="48.45101" lon="3.72628">
        <ele>125.9</ele>
        <time>2014-09-20T13:23:35Z</time>
      </trkpt>
      <trkpt lat="48.45101" lon="3.7262">
        <ele>126.05</ele>
        <time>2014-09-20T13:23:37Z</time>
      </trkpt>
      <trkpt lat="48.45099" lon="3.72612">
        <ele>126.26</ele>
        <time>2014-09-20T13:23:39Z</time>
      </trkpt>
      <trkpt lat="48.45098" lon="3.72604">
        <ele>126.36</ele>
        <time>2014-09-20T13:23:41Z</time>
      </trkpt>
      <trkpt lat="48.45097" lon="3.72596">
        <ele>126.48</ele>
        <time>2014-09-20T13:23:43Z</time>
      </trkpt>
      <trkpt lat="48.45097" lon="3.72588">
        <ele>126.54</ele>
        <time>2014-09-20T13:23:45Z</time>
      </trkpt>
      <trkpt lat="48.45096" lon="3.72581">
        <ele>126.7</ele>
        <time>2014-09-20T13:23:47Z</time>
      </trkpt>
      <trkpt lat="48.45097" lon="3.72572">
        <ele>126.93</ele>
        <time>2014-09-20T13:23:49Z</time>
      </trkpt>
      <trkpt lat="48.45095" lon="3.72565">
        <ele>127.02</ele>
        <time>2014-09-20T13:23:51Z</time>
      </trkpt>
      <trkpt lat="48.45093" lon="3.72558">
        <ele>127.2</ele>
        <time>2014-09-20T13:23:53Z</time>
      </trkpt>
      <trkpt lat="48.45092" lon="3.7255">
        <ele>127.46</ele>
        <time>2014-09-20T13:23:55Z</time>
      </trkpt>
      <trkpt lat="48.45091" lon="3.72542">
        <ele>127.75</ele>
        <time>2014-09-20T13:23:57Z</time>
      </trkpt>
      <trkpt lat="48.4509" lon="3.72534">
        <ele>127.96</ele>
        <time>2014-09-20T13:23:59Z</time>
      </trkpt>
      <trkpt lat="48.4509" lon="3.72525">
        <ele>128.01</ele>
        <time>2014-09-20T13:24:01Z</time>
      </trkpt>
      <trkpt lat="48.4509" lon="3.72516">
        <ele>128.07</ele>
        <time>2014-09-20T13:24:03Z</time>
      </trkpt>
      <trkpt lat="48.45089" lon="3.72507">
        <ele>128.28</ele>
        <time>2014-09-20T13:24:05Z</time>
      </trkpt>
      <trkpt lat="48.45088" lon="3.72499">
        <ele>128.61</ele>
        <time>2014-09-20T13:24:07Z</time>
      </trkpt>
      <trkpt lat="48.45088" lon="3.7249">
        <ele>128.84</ele>
        <time>2014-09-20T13:24:09Z</time>
      </trkpt>
      <trkpt lat="48.45088" lon="3.72482">
        <ele>128.91</ele>
        <time>2014-09-20T13:24:11Z</time>
      </trkpt>
      <trkpt lat="48.45088" lon="3.72475">
        <ele>128.85</ele>
        <time>2014-09-20T13:24:13Z</time>
      </trkpt>
      <trkpt lat="48.45086" lon="3.72467">
        <ele>128.94</ele>
        <time>2014-09-20T13:24:15Z</time>
      </trkpt>
      <trkpt lat="48.45085" lon="3.72459">
        <ele>129.04</ele>
        <time>2014-09-20T13:24:17Z</time>
      </trkpt>
      <trkpt lat="48.45085" lon="3.72451">
        <ele>129.21</ele>
        <time>2014-09-20T13:24:19Z</time>
      </trkpt>
      <trkpt lat="48.45085" lon="3.72444">
        <ele>129.28</ele>
        <time>2014-09-20T13:24:21Z</time>
      </trkpt>
      <trkpt lat="48.45083" lon="3.72436">
        <ele>129.35</ele>
        <time>2014-09-20T13:24:23Z</time>
      </trkpt>
      <trkpt lat="48.45081" lon="3.72429">
        <ele>129.45</ele>
        <time>2014-09-20T13:24:25Z</time>
      </trkpt>
      <trkpt lat="48.4508" lon="3.72421">
        <ele>129.56</ele>
        <time>2014-09-20T13:24:27Z</time>
      </trkpt>
      <trkpt lat="48.45079" lon="3.72414">
        <ele>129.59</ele>
        <time>2014-09-20T13:24:29Z</time>
      </trkpt>
      <trkpt lat="48.45078" lon="3.72407">
        <ele>129.63</ele>
        <time>2014-09-20T13:24:31Z</time>
      </trkpt>
      <trkpt lat="48.45077" lon="3.72399">
        <ele>129.63</ele>
        <time>2014-09-20T13:24:33Z</time>
      </trkpt>
      <trkpt lat="48.45077" lon="3.72391">
        <ele>129.58</ele>
        <time>2014-09-20T13:24:35Z</time>
      </trkpt>
      <trkpt lat="48.45077" lon="3.72384">
        <ele>129.45</ele>
        <time>2014-09-20T13:24:37Z</time>
      </trkpt>
      <trkpt lat="48.45076" lon="3.72377">
        <ele>129.24</ele>
        <time>2014-09-20T13:24:39Z</time>
      </trkpt>
      <trkpt lat="48.45076" lon="3.72369">
        <ele>129.05</ele>
        <time>2014-09-20T13:24:41Z</time>
      </trkpt>
      <trkpt lat="48.45075" lon="3.7236">
        <ele>129.02</ele>
        <time>2014-09-20T13:24:43Z</time>
      </trkpt>
      <trkpt lat="48.45074" lon="3.72353">
        <ele>129.04</ele>
        <time>2014-09-20T13:24:45Z</time>
      </trkpt>
      <trkpt lat="48.45074" lon="3.72345">
        <ele>129.06</ele>
        <time>2014-09-20T13:24:47Z</time>
      </trkpt>
      <trkpt lat="48.45073" lon="3.72337">
        <ele>129.2</ele>
        <time>2014-09-20T13:24:49Z</time>
      </trkpt>
      <trkpt lat="48.45072" lon="3.72329">
        <ele>129.26</ele>
        <time>2014-09-20T13:24:51Z</time>
      </trkpt>
      <trkpt lat="48.45071" lon="3.72322">
        <ele>129.31</ele>
        <time>2014-09-20T13:24:53Z</time>
      </trkpt>
      <trkpt lat="48.4507" lon="3.72314">
        <ele>129.53</ele>
        <time>2014-09-20T13:24:55Z</time>
      </trkpt>
      <trkpt lat="48.45069" lon="3.72306">
        <ele>129.81</ele>
        <time>2014-09-20T13:24:57Z</time>
      </trkpt>
      <trkpt lat="48.45068" lon="3.72298">
        <ele>130.11</ele>
        <time>2014-09-20T13:24:59Z</time>
      </trkpt>
      <trkpt lat="48.45069" lon="3.7229">
        <ele>130.4</ele>
        <time>2014-09-20T13:25:01Z</time>
      </trkpt>
      <trkpt lat="48.45069" lon="3.72282">
        <ele>130.67</ele>
        <time>2014-09-20T13:25:04Z</time>
      </trkpt>
      <trkpt lat="48.45067" lon="3.72275">
        <ele>130.76</ele>
        <time>2014-09-20T13:25:06Z</time>
      </trkpt>
      <trkpt lat="48.45063" lon="3.72268">
        <ele>130.8</ele>
        <time>2014-09-20T13:25:08Z</time>
      </trkpt>
      <trkpt lat="48.45062" lon="3.72261">
        <ele>130.95</ele>
        <time>2014-09-20T13:25:10Z</time>
      </trkpt>
      <trkpt lat="48.45064" lon="3.72251">
        <ele>131.09</ele>
        <time>2014-09-20T13:25:13Z</time>
      </trkpt>
      <trkpt lat="48.45065" lon="3.72242">
        <ele>131.33</ele>
        <time>2014-09-20T13:25:15Z</time>
      </trkpt>
      <trkpt lat="48.45063" lon="3.72236">
        <ele>131.64</ele>
        <time>2014-09-20T13:25:17Z</time>
      </trkpt>
      <trkpt lat="48.45058" lon="3.72232">
        <ele>131.88</ele>
        <time>2014-09-20T13:25:19Z</time>
      </trkpt>
      <trkpt lat="48.45059" lon="3.72223">
        <ele>132.18</ele>
        <time>2014-09-20T13:25:22Z</time>
      </trkpt>
      <trkpt lat="48.45058" lon="3.72216">
        <ele>132.31</ele>
        <time>2014-09-20T13:25:25Z</time>
      </trkpt>
      <trkpt lat="48.4506" lon="3.72209">
        <ele>132.43</ele>
        <time>2014-09-20T13:25:27Z</time>
      </trkpt>
      <trkpt lat="48.45058" lon="3.72202">
        <ele>132.58</ele>
        <time>2014-09-20T13:25:31Z</time>
      </trkpt>
      <trkpt lat="48.45057" lon="3.72192">
        <ele>132.55</ele>
        <time>2014-09-20T13:25:34Z</time>
      </trkpt>
      <trkpt lat="48.45056" lon="3.72181">
        <ele>132.39</ele>
        <time>2014-09-20T13:25:36Z</time>
      </trkpt>
      <trkpt lat="48.45054" lon="3.72172">
        <ele>132.34</ele>
        <time>2014-09-20T13:25:38Z</time>
      </trkpt>
      <trkpt lat="48.45052" lon="3.72165">
        <ele>132.37</ele>
        <time>2014-09-20T13:25:40Z</time>
      </trkpt>
      <trkpt lat="48.4505" lon="3.72156">
        <ele>132.49</ele>
        <time>2014-09-20T13:25:42Z</time>
      </trkpt>
      <trkpt lat="48.45049" lon="3.72147">
        <ele>132.52</ele>
        <time>2014-09-20T13:25:44Z</time>
      </trkpt>
      <trkpt lat="48.45048" lon="3.72136">
        <ele>132.64</ele>
        <time>2014-09-20T13:25:46Z</time>
      </trkpt>
      <trkpt lat="48.45047" lon="3.72126">
        <ele>132.89</ele>
        <time>2014-09-20T13:25:48Z</time>
      </trkpt>
      <trkpt lat="48.45046" lon="3.72117">
        <ele>133.12</ele>
        <time>2014-09-20T13:25:50Z</time>
      </trkpt>
      <trkpt lat="48.45045" lon="3.72107">
        <ele>133.39</ele>
        <time>2014-09-20T13:25:52Z</time>
      </trkpt>
      <trkpt lat="48.45044" lon="3.72099">
        <ele>133.67</ele>
        <time>2014-09-20T13:25:54Z</time>
      </trkpt>
      <trkpt lat="48.45045" lon="3.72092">
        <ele>133.87</ele>
        <time>2014-09-20T13:25:56Z</time>
      </trkpt>
      <trkpt lat="48.45044" lon="3.72083">
        <ele>133.92</ele>
        <time>2014-09-20T13:25:58Z</time>
      </trkpt>
      <trkpt lat="48.4504" lon="3.72076">
        <ele>133.91</ele>
        <time>2014-09-20T13:26:01Z</time>
      </trkpt>
      <trkpt lat="48.45038" lon="3.72069">
        <ele>133.7</ele>
        <time>2014-09-20T13:26:03Z</time>
      </trkpt>
      <trkpt lat="48.45036" lon="3.7206">
        <ele>133.51</ele>
        <time>2014-09-20T13:26:05Z</time>
      </trkpt>
      <trkpt lat="48.45035" lon="3.72051">
        <ele>133.23</ele>
        <time>2014-09-20T13:26:07Z</time>
      </trkpt>
      <trkpt lat="48.45032" lon="3.72044">
        <ele>132.98</ele>
        <time>2014-09-20T13:26:09Z</time>
      </trkpt>
      <trkpt lat="48.45029" lon="3.72037">
        <ele>132.99</ele>
        <time>2014-09-20T13:26:11Z</time>
      </trkpt>
      <trkpt lat="48.45028" lon="3.72028">
        <ele>133.13</ele>
        <time>2014-09-20T13:26:13Z</time>
      </trkpt>
      <trkpt lat="48.45028" lon="3.7202">
        <ele>133.21</ele>
        <time>2014-09-20T13:26:15Z</time>
      </trkpt>
      <trkpt lat="48.45024" lon="3.72015">
        <ele>133.3</ele>
        <time>2014-09-20T13:26:17Z</time>
      </trkpt>
      <trkpt lat="48.45019" lon="3.72013">
        <ele>133.1</ele>
        <time>2014-09-20T13:26:19Z</time>
      </trkpt>
      <trkpt lat="48.45012" lon="3.72012">
        <ele>132.92</ele>
        <time>2014-09-20T13:26:22Z</time>
      </trkpt>
      <trkpt lat="48.45006" lon="3.72011">
        <ele>132.74</ele>
        <time>2014-09-20T13:26:25Z</time>
      </trkpt>
      <trkpt lat="48.45" lon="3.72009">
        <ele>132.81</ele>
        <time>2014-09-20T13:26:28Z</time>
      </trkpt>
      <trkpt lat="48.44994" lon="3.72007">
        <ele>133.02</ele>
        <time>2014-09-20T13:26:31Z</time>
      </trkpt>
      <trkpt lat="48.4499" lon="3.72002">
        <ele>133.25</ele>
        <time>2014-09-20T13:26:33Z</time>
      </trkpt>
      <trkpt lat="48.44989" lon="3.71995">
        <ele>133.58</ele>
        <time>2014-09-20T13:26:35Z</time>
      </trkpt>
      <trkpt lat="48.44988" lon="3.71988">
        <ele>133.84</ele>
        <time>2014-09-20T13:26:37Z</time>
      </trkpt>
      <trkpt lat="48.44986" lon="3.71981">
        <ele>134.08</ele>
        <time>2014-09-20T13:26:39Z</time>
      </trkpt>
      <trkpt lat="48.44985" lon="3.71973">
        <ele>134.46</ele>
        <time>2014-09-20T13:26:41Z</time>
      </trkpt>
      <trkpt lat="48.44983" lon="3.71966">
        <ele>134.84</ele>
        <time>2014-09-20T13:26:43Z</time>
      </trkpt>
      <trkpt lat="48.44982" lon="3.71958">
        <ele>135.19</ele>
        <time>2014-09-20T13:26:45Z</time>
      </trkpt>
      <trkpt lat="48.4498" lon="3.7195">
        <ele>135.54</ele>
        <time>2014-09-20T13:26:47Z</time>
      </trkpt>
      <trkpt lat="48.44979" lon="3.71943">
        <ele>135.92</ele>
        <time>2014-09-20T13:26:49Z</time>
      </trkpt>
      <trkpt lat="48.44977" lon="3.71935">
        <ele>136.33</ele>
        <time>2014-09-20T13:26:51Z</time>
      </trkpt>
      <trkpt lat="48.44976" lon="3.71928">
        <ele>136.75</ele>
        <time>2014-09-20T13:26:53Z</time>
      </trkpt>
      <trkpt lat="48.44975" lon="3.71921">
        <ele>137.07</ele>
        <time>2014-09-20T13:26:55Z</time>
      </trkpt>
      <trkpt lat="48.44973" lon="3.71913">
        <ele>137.36</ele>
        <time>2014-09-20T13:26:57Z</time>
      </trkpt>
      <trkpt lat="48.44972" lon="3.71906">
        <ele>137.68</ele>
        <time>2014-09-20T13:26:59Z</time>
      </trkpt>
      <trkpt lat="48.4497" lon="3.71898">
        <ele>137.97</ele>
        <time>2014-09-20T13:27:01Z</time>
      </trkpt>
      <trkpt lat="48.44969" lon="3.71891">
        <ele>138.24</ele>
        <time>2014-09-20T13:27:03Z</time>
      </trkpt>
      <trkpt lat="48.44968" lon="3.71883">
        <ele>138.52</ele>
        <time>2014-09-20T13:27:05Z</time>
      </trkpt>
      <trkpt lat="48.44966" lon="3.71876">
        <ele>138.56</ele>
        <time>2014-09-20T13:27:07Z</time>
      </trkpt>
      <trkpt lat="48.44965" lon="3.71868">
        <ele>138.57</ele>
        <time>2014-09-20T13:27:09Z</time>
      </trkpt>
      <trkpt lat="48.44963" lon="3.7186">
        <ele>138.6</ele>
        <time>2014-09-20T13:27:11Z</time>
      </trkpt>
      <trkpt lat="48.44962" lon="3.71853">
        <ele>138.56</ele>
        <time>2014-09-20T13:27:13Z</time>
      </trkpt>
      <trkpt lat="48.44961" lon="3.71844">
        <ele>138.63</ele>
        <time>2014-09-20T13:27:15Z</time>
      </trkpt>
      <trkpt lat="48.44959" lon="3.71836">
        <ele>138.86</ele>
        <time>2014-09-20T13:27:17Z</time>
      </trkpt>
      <trkpt lat="48.44958" lon="3.71829">
        <ele>139.06</ele>
        <time>2014-09-20T13:27:19Z</time>
      </trkpt>
      <trkpt lat="48.44956" lon="3.71821">
        <ele>139.18</ele>
        <time>2014-09-20T13:27:21Z</time>
      </trkpt>
      <trkpt lat="48.44955" lon="3.71813">
        <ele>139.27</ele>
        <time>2014-09-20T13:27:23Z</time>
      </trkpt>
      <trkpt lat="48.44954" lon="3.71805">
        <ele>139.36</ele>
        <time>2014-09-20T13:27:25Z</time>
      </trkpt>
      <trkpt lat="48.44952" lon="3.71797">
        <ele>139.46</ele>
        <time>2014-09-20T13:27:27Z</time>
      </trkpt>
      <trkpt lat="48.44951" lon="3.71789">
        <ele>139.62</ele>
        <time>2014-09-20T13:27:29Z</time>
      </trkpt>
      <trkpt lat="48.4495" lon="3.71782">
        <ele>139.62</ele>
        <time>2014-09-20T13:27:31Z</time>
      </trkpt>
      <trkpt lat="48.44948" lon="3.71775">
        <ele>139.69</ele>
        <time>2014-09-20T13:27:33Z</time>
      </trkpt>
      <trkpt lat="48.44947" lon="3.71767">
        <ele>139.82</ele>
        <time>2014-09-20T13:27:35Z</time>
      </trkpt>
      <trkpt lat="48.44945" lon="3.71759">
        <ele>140.03</ele>
        <time>2014-09-20T13:27:37Z</time>
      </trkpt>
      <trkpt lat="48.44944" lon="3.7175">
        <ele>140.27</ele>
        <time>2014-09-20T13:27:39Z</time>
      </trkpt>
      <trkpt lat="48.44943" lon="3.71742">
        <ele>140.5</ele>
        <time>2014-09-20T13:27:41Z</time>
      </trkpt>
      <trkpt lat="48.44941" lon="3.71733">
        <ele>140.78</ele>
        <time>2014-09-20T13:27:43Z</time>
      </trkpt>
      <trkpt lat="48.4494" lon="3.71725">
        <ele>141.03</ele>
        <time>2014-09-20T13:27:45Z</time>
      </trkpt>
      <trkpt lat="48.44938" lon="3.71716">
        <ele>141.26</ele>
        <time>2014-09-20T13:27:47Z</time>
      </trkpt>
      <trkpt lat="48.44936" lon="3.71706">
        <ele>141.43</ele>
        <time>2014-09-20T13:27:49Z</time>
      </trkpt>
      <trkpt lat="48.44934" lon="3.71696">
        <ele>141.63</ele>
        <time>2014-09-20T13:27:51Z</time>
      </trkpt>
      <trkpt lat="48.44933" lon="3.71686">
        <ele>141.73</ele>
        <time>2014-09-20T13:27:53Z</time>
      </trkpt>
      <trkpt lat="48.44931" lon="3.71675">
        <ele>141.82</ele>
        <time>2014-09-20T13:27:55Z</time>
      </trkpt>
      <trkpt lat="48.44929" lon="3.71665">
        <ele>141.87</ele>
        <time>2014-09-20T13:27:57Z</time>
      </trkpt>
      <trkpt lat="48.44928" lon="3.71655">
        <ele>141.92</ele>
        <time>2014-09-20T13:27:59Z</time>
      </trkpt>
      <trkpt lat="48.44926" lon="3.71646">
        <ele>142.01</ele>
        <time>2014-09-20T13:28:01Z</time>
      </trkpt>
      <trkpt lat="48.44925" lon="3.71636">
        <ele>141.99</ele>
        <time>2014-09-20T13:28:03Z</time>
      </trkpt>
      <trkpt lat="48.44923" lon="3.71626">
        <ele>141.83</ele>
        <time>2014-09-20T13:28:05Z</time>
      </trkpt>
      <trkpt lat="48.44922" lon="3.71617">
        <ele>141.7</ele>
        <time>2014-09-20T13:28:07Z</time>
      </trkpt>
      <trkpt lat="48.4492" lon="3.71607">
        <ele>141.65</ele>
        <time>2014-09-20T13:28:09Z</time>
      </trkpt>
      <trkpt lat="48.44918" lon="3.71597">
        <ele>141.71</ele>
        <time>2014-09-20T13:28:11Z</time>
      </trkpt>
      <trkpt lat="48.44916" lon="3.71588">
        <ele>141.72</ele>
        <time>2014-09-20T13:28:13Z</time>
      </trkpt>
      <trkpt lat="48.44915" lon="3.71578">
        <ele>141.68</ele>
        <time>2014-09-20T13:28:15Z</time>
      </trkpt>
      <trkpt lat="48.44913" lon="3.71569">
        <ele>141.61</ele>
        <time>2014-09-20T13:28:17Z</time>
      </trkpt>
      <trkpt lat="48.44912" lon="3.71559">
        <ele>141.6</ele>
        <time>2014-09-20T13:28:19Z</time>
      </trkpt>
      <trkpt lat="48.4491" lon="3.71549">
        <ele>141.64</ele>
        <time>2014-09-20T13:28:21Z</time>
      </trkpt>
      <trkpt lat="48.44909" lon="3.7154">
        <ele>141.68</ele>
        <time>2014-09-20T13:28:23Z</time>
      </trkpt>
      <trkpt lat="48.44907" lon="3.7153">
        <ele>141.7</ele>
        <time>2014-09-20T13:28:25Z</time>
      </trkpt>
      <trkpt lat="48.44905" lon="3.7152">
        <ele>141.71</ele>
        <time>2014-09-20T13:28:27Z</time>
      </trkpt>
      <trkpt lat="48.44903" lon="3.71509">
        <ele>141.76</ele>
        <time>2014-09-20T13:28:29Z</time>
      </trkpt>
      <trkpt lat="48.44901" lon="3.71498">
        <ele>141.79</ele>
        <time>2014-09-20T13:28:31Z</time>
      </trkpt>
      <trkpt lat="48.44899" lon="3.71487">
        <ele>141.85</ele>
        <time>2014-09-20T13:28:33Z</time>
      </trkpt>
      <trkpt lat="48.44897" lon="3.71475">
        <ele>141.91</ele>
        <time>2014-09-20T13:28:35Z</time>
      </trkpt>
      <trkpt lat="48.44895" lon="3.71463">
        <ele>142.03</ele>
        <time>2014-09-20T13:28:37Z</time>
      </trkpt>
      <trkpt lat="48.44893" lon="3.71451">
        <ele>142.19</ele>
        <time>2014-09-20T13:28:39Z</time>
      </trkpt>
      <trkpt lat="48.44891" lon="3.71439">
        <ele>142.25</ele>
        <time>2014-09-20T13:28:41Z</time>
      </trkpt>
      <trkpt lat="48.44889" lon="3.71427">
        <ele>142.2</ele>
        <time>2014-09-20T13:28:43Z</time>
      </trkpt>
      <trkpt lat="48.44887" lon="3.71415">
        <ele>142.14</ele>
        <time>2014-09-20T13:28:45Z</time>
      </trkpt>
      <trkpt lat="48.44885" lon="3.71403">
        <ele>142.05</ele>
        <time>2014-09-20T13:28:47Z</time>
      </trkpt>
      <trkpt lat="48.44883" lon="3.71391">
        <ele>141.97</ele>
        <time>2014-09-20T13:28:49Z</time>
      </trkpt>
      <trkpt lat="48.44881" lon="3.71379">
        <ele>141.98</ele>
        <time>2014-09-20T13:28:51Z</time>
      </trkpt>
      <trkpt lat="48.44879" lon="3.71367">
        <ele>142.02</ele>
        <time>2014-09-20T13:28:53Z</time>
      </trkpt>
      <trkpt lat="48.44877" lon="3.71355">
        <ele>142.05</ele>
        <time>2014-09-20T13:28:55Z</time>
      </trkpt>
      <trkpt lat="48.44875" lon="3.71343">
        <ele>142.04</ele>
        <time>2014-09-20T13:28:57Z</time>
      </trkpt>
      <trkpt lat="48.44873" lon="3.71331">
        <ele>142.01</ele>
        <time>2014-09-20T13:28:59Z</time>
      </trkpt>
      <trkpt lat="48.44871" lon="3.7132">
        <ele>141.97</ele>
        <time>2014-09-20T13:29:01Z</time>
      </trkpt>
      <trkpt lat="48.44869" lon="3.71308">
        <ele>141.94</ele>
        <time>2014-09-20T13:29:03Z</time>
      </trkpt>
      <trkpt lat="48.44867" lon="3.71296">
        <ele>141.91</ele>
        <time>2014-09-20T13:29:05Z</time>
      </trkpt>
      <trkpt lat="48.44865" lon="3.71284">
        <ele>141.92</ele>
        <time>2014-09-20T13:29:07Z</time>
      </trkpt>
      <trkpt lat="48.44863" lon="3.71273">
        <ele>141.88</ele>
        <time>2014-09-20T13:29:09Z</time>
      </trkpt>
      <trkpt lat="48.4486" lon="3.71262">
        <ele>141.92</ele>
        <time>2014-09-20T13:29:11Z</time>
      </trkpt>
      <trkpt lat="48.44857" lon="3.71252">
        <ele>141.83</ele>
        <time>2014-09-20T13:29:13Z</time>
      </trkpt>
      <trkpt lat="48.4485" lon="3.71246">
        <ele>141.7</ele>
        <time>2014-09-20T13:29:15Z</time>
      </trkpt>
      <trkpt lat="48.44843" lon="3.71248">
        <ele>141.56</ele>
        <time>2014-09-20T13:29:17Z</time>
      </trkpt>
      <trkpt lat="48.44836" lon="3.71249">
        <ele>141.48</ele>
        <time>2014-09-20T13:29:19Z</time>
      </trkpt>
      <trkpt lat="48.4483" lon="3.71242">
        <ele>141.49</ele>
        <time>2014-09-20T13:29:21Z</time>
      </trkpt>
      <trkpt lat="48.44827" lon="3.71233">
        <ele>141.64</ele>
        <time>2014-09-20T13:29:23Z</time>
      </trkpt>
      <trkpt lat="48.44822" lon="3.71224">
        <ele>141.67</ele>
        <time>2014-09-20T13:29:25Z</time>
      </trkpt>
      <trkpt lat="48.44817" lon="3.71216">
        <ele>141.65</ele>
        <time>2014-09-20T13:29:27Z</time>
      </trkpt>
      <trkpt lat="48.44812" lon="3.71208">
        <ele>141.64</ele>
        <time>2014-09-20T13:29:29Z</time>
      </trkpt>
      <trkpt lat="48.44807" lon="3.71199">
        <ele>141.64</ele>
        <time>2014-09-20T13:29:31Z</time>
      </trkpt>
      <trkpt lat="48.44802" lon="3.71191">
        <ele>141.59</ele>
        <time>2014-09-20T13:29:33Z</time>
      </trkpt>
      <trkpt lat="48.44797" lon="3.71182">
        <ele>141.47</ele>
        <time>2014-09-20T13:29:35Z</time>
      </trkpt>
      <trkpt lat="48.44793" lon="3.71173">
        <ele>141.32</ele>
        <time>2014-09-20T13:29:37Z</time>
      </trkpt>
      <trkpt lat="48.44788" lon="3.71164">
        <ele>141.24</ele>
        <time>2014-09-20T13:29:39Z</time>
      </trkpt>
      <trkpt lat="48.44783" lon="3.71155">
        <ele>141.19</ele>
        <time>2014-09-20T13:29:41Z</time>
      </trkpt>
      <trkpt lat="48.44777" lon="3.71146">
        <ele>141.12</ele>
        <time>2014-09-20T13:29:43Z</time>
      </trkpt>
      <trkpt lat="48.44772" lon="3.71137">
        <ele>141.08</ele>
        <time>2014-09-20T13:29:45Z</time>
      </trkpt>
      <trkpt lat="48.44767" lon="3.71128">
        <ele>141.08</ele>
        <time>2014-09-20T13:29:47Z</time>
      </trkpt>
      <trkpt lat="48.44762" lon="3.71119">
        <ele>141.1</ele>
        <time>2014-09-20T13:29:49Z</time>
      </trkpt>
      <trkpt lat="48.44757" lon="3.7111">
        <ele>141.07</ele>
        <time>2014-09-20T13:29:51Z</time>
      </trkpt>
      <trkpt lat="48.44751" lon="3.71101">
        <ele>141.01</ele>
        <time>2014-09-20T13:29:53Z</time>
      </trkpt>
      <trkpt lat="48.44746" lon="3.71092">
        <ele>140.95</ele>
        <time>2014-09-20T13:29:55Z</time>
      </trkpt>
      <trkpt lat="48.44741" lon="3.71083">
        <ele>140.96</ele>
        <time>2014-09-20T13:29:57Z</time>
      </trkpt>
      <trkpt lat="48.44736" lon="3.71074">
        <ele>140.97</ele>
        <time>2014-09-20T13:29:59Z</time>
      </trkpt>
      <trkpt lat="48.4473" lon="3.71064">
        <ele>141.02</ele>
        <time>2014-09-20T13:30:01Z</time>
      </trkpt>
      <trkpt lat="48.44725" lon="3.71055">
        <ele>141.07</ele>
        <time>2014-09-20T13:30:03Z</time>
      </trkpt>
      <trkpt lat="48.44719" lon="3.71045">
        <ele>141.09</ele>
        <time>2014-09-20T13:30:05Z</time>
      </trkpt>
      <trkpt lat="48.44713" lon="3.71036">
        <ele>141.15</ele>
        <time>2014-09-20T13:30:07Z</time>
      </trkpt>
      <trkpt lat="48.44707" lon="3.71026">
        <ele>141.1</ele>
        <time>2014-09-20T13:30:09Z</time>
      </trkpt>
      <trkpt lat="48.44701" lon="3.71016">
        <ele>141.07</ele>
        <time>2014-09-20T13:30:11Z</time>
      </trkpt>
      <trkpt lat="48.44695" lon="3.71006">
        <ele>141.01</ele>
        <time>2014-09-20T13:30:13Z</time>
      </trkpt>
      <trkpt lat="48.44692" lon="3.71001">
        <ele>140.96</ele>
        <time>2014-09-20T13:30:14Z</time>
      </trkpt>
      <trkpt lat="48.44689" lon="3.70996">
        <ele>140.95</ele>
        <time>2014-09-20T13:30:15Z</time>
      </trkpt>
      <trkpt lat="48.44686" lon="3.70991">
        <ele>140.95</ele>
        <time>2014-09-20T13:30:16Z</time>
      </trkpt>
      <trkpt lat="48.44683" lon="3.70986">
        <ele>140.92</ele>
        <time>2014-09-20T13:30:17Z</time>
      </trkpt>
      <trkpt lat="48.4468" lon="3.70981">
        <ele>140.89</ele>
        <time>2014-09-20T13:30:18Z</time>
      </trkpt>
      <trkpt lat="48.44674" lon="3.70971">
        <ele>140.82</ele>
        <time>2014-09-20T13:30:20Z</time>
      </trkpt>
      <trkpt lat="48.44668" lon="3.70961">
        <ele>140.71</ele>
        <time>2014-09-20T13:30:22Z</time>
      </trkpt>
      <trkpt lat="48.44665" lon="3.70956">
        <ele>140.64</ele>
        <time>2014-09-20T13:30:23Z</time>
      </trkpt>
      <trkpt lat="48.44662" lon="3.70951">
        <ele>140.59</ele>
        <time>2014-09-20T13:30:24Z</time>
      </trkpt>
      <trkpt lat="48.44659" lon="3.70945">
        <ele>140.52</ele>
        <time>2014-09-20T13:30:25Z</time>
      </trkpt>
      <trkpt lat="48.44656" lon="3.7094">
        <ele>140.45</ele>
        <time>2014-09-20T13:30:26Z</time>
      </trkpt>
      <trkpt lat="48.44653" lon="3.70935">
        <ele>140.39</ele>
        <time>2014-09-20T13:30:27Z</time>
      </trkpt>
      <trkpt lat="48.4465" lon="3.7093">
        <ele>140.33</ele>
        <time>2014-09-20T13:30:28Z</time>
      </trkpt>
      <trkpt lat="48.44647" lon="3.70924">
        <ele>140.25</ele>
        <time>2014-09-20T13:30:29Z</time>
      </trkpt>
      <trkpt lat="48.44644" lon="3.70919">
        <ele>140.17</ele>
        <time>2014-09-20T13:30:30Z</time>
      </trkpt>
      <trkpt lat="48.44641" lon="3.70914">
        <ele>140.09</ele>
        <time>2014-09-20T13:30:31Z</time>
      </trkpt>
      <trkpt lat="48.44637" lon="3.70909">
        <ele>139.97</ele>
        <time>2014-09-20T13:30:32Z</time>
      </trkpt>
      <trkpt lat="48.44634" lon="3.70903">
        <ele>139.86</ele>
        <time>2014-09-20T13:30:33Z</time>
      </trkpt>
      <trkpt lat="48.44631" lon="3.70898">
        <ele>139.75</ele>
        <time>2014-09-20T13:30:34Z</time>
      </trkpt>
      <trkpt lat="48.44628" lon="3.70893">
        <ele>139.65</ele>
        <time>2014-09-20T13:30:35Z</time>
      </trkpt>
      <trkpt lat="48.44625" lon="3.70887">
        <ele>139.52</ele>
        <time>2014-09-20T13:30:36Z</time>
      </trkpt>
      <trkpt lat="48.44622" lon="3.70881">
        <ele>139.39</ele>
        <time>2014-09-20T13:30:37Z</time>
      </trkpt>
      <trkpt lat="48.44619" lon="3.70876">
        <ele>139.28</ele>
        <time>2014-09-20T13:30:38Z</time>
      </trkpt>
      <trkpt lat="48.44615" lon="3.7087">
        <ele>139.22</ele>
        <time>2014-09-20T13:30:39Z</time>
      </trkpt>
      <trkpt lat="48.44612" lon="3.70864">
        <ele>139.14</ele>
        <time>2014-09-20T13:30:40Z</time>
      </trkpt>
      <trkpt lat="48.44609" lon="3.70858">
        <ele>139.09</ele>
        <time>2014-09-20T13:30:41Z</time>
      </trkpt>
      <trkpt lat="48.44605" lon="3.70853">
        <ele>139.05</ele>
        <time>2014-09-20T13:30:42Z</time>
      </trkpt>
      <trkpt lat="48.44602" lon="3.70847">
        <ele>139.02</ele>
        <time>2014-09-20T13:30:43Z</time>
      </trkpt>
      <trkpt lat="48.44599" lon="3.70841">
        <ele>138.97</ele>
        <time>2014-09-20T13:30:44Z</time>
      </trkpt>
      <trkpt lat="48.44595" lon="3.70835">
        <ele>138.91</ele>
        <time>2014-09-20T13:30:45Z</time>
      </trkpt>
      <trkpt lat="48.44591" lon="3.70829">
        <ele>138.84</ele>
        <time>2014-09-20T13:30:46Z</time>
      </trkpt>
      <trkpt lat="48.44588" lon="3.70823">
        <ele>138.76</ele>
        <time>2014-09-20T13:30:47Z</time>
      </trkpt>
      <trkpt lat="48.44584" lon="3.70816">
        <ele>138.68</ele>
        <time>2014-09-20T13:30:48Z</time>
      </trkpt>
      <trkpt lat="48.44581" lon="3.7081">
        <ele>138.59</ele>
        <time>2014-09-20T13:30:49Z</time>
      </trkpt>
      <trkpt lat="48.44577" lon="3.70804">
        <ele>138.53</ele>
        <time>2014-09-20T13:30:50Z</time>
      </trkpt>
      <trkpt lat="48.44573" lon="3.70797">
        <ele>138.48</ele>
        <time>2014-09-20T13:30:51Z</time>
      </trkpt>
      <trkpt lat="48.4457" lon="3.70791">
        <ele>138.39</ele>
        <time>2014-09-20T13:30:52Z</time>
      </trkpt>
      <trkpt lat="48.44566" lon="3.70785">
        <ele>138.32</ele>
        <time>2014-09-20T13:30:53Z</time>
      </trkpt>
      <trkpt lat="48.44562" lon="3.70779">
        <ele>138.27</ele>
        <time>2014-09-20T13:30:54Z</time>
      </trkpt>
      <trkpt lat="48.44559" lon="3.70773">
        <ele>138.19</ele>
        <time>2014-09-20T13:30:55Z</time>
      </trkpt>
      <trkpt lat="48.44555" lon="3.70766">
        <ele>138.05</ele>
        <time>2014-09-20T13:30:56Z</time>
      </trkpt>
      <trkpt lat="48.44551" lon="3.7076">
        <ele>137.92</ele>
        <time>2014-09-20T13:30:57Z</time>
      </trkpt>
      <trkpt lat="48.44548" lon="3.70754">
        <ele>137.8</ele>
        <time>2014-09-20T13:30:58Z</time>
      </trkpt>
      <trkpt lat="48.44544" lon="3.70747">
        <ele>137.7</ele>
        <time>2014-09-20T13:30:59Z</time>
      </trkpt>
      <trkpt lat="48.4454" lon="3.70741">
        <ele>137.63</ele>
        <time>2014-09-20T13:31:00Z</time>
      </trkpt>
      <trkpt lat="48.44537" lon="3.70735">
        <ele>137.53</ele>
        <time>2014-09-20T13:31:01Z</time>
      </trkpt>
      <trkpt lat="48.44533" lon="3.70729">
        <ele>137.46</ele>
        <time>2014-09-20T13:31:02Z</time>
      </trkpt>
      <trkpt lat="48.4453" lon="3.70723">
        <ele>137.37</ele>
        <time>2014-09-20T13:31:03Z</time>
      </trkpt>
      <trkpt lat="48.44526" lon="3.70717">
        <ele>137.29</ele>
        <time>2014-09-20T13:31:04Z</time>
      </trkpt>
      <trkpt lat="48.44523" lon="3.70711">
        <ele>137.22</ele>
        <time>2014-09-20T13:31:05Z</time>
      </trkpt>
      <trkpt lat="48.4452" lon="3.70706">
        <ele>137.17</ele>
        <time>2014-09-20T13:31:06Z</time>
      </trkpt>
      <trkpt lat="48.44516" lon="3.707">
        <ele>137.11</ele>
        <time>2014-09-20T13:31:07Z</time>
      </trkpt>
      <trkpt lat="48.44513" lon="3.70694">
        <ele>137.07</ele>
        <time>2014-09-20T13:31:08Z</time>
      </trkpt>
      <trkpt lat="48.44509" lon="3.70689">
        <ele>137.03</ele>
        <time>2014-09-20T13:31:09Z</time>
      </trkpt>
      <trkpt lat="48.44506" lon="3.70683">
        <ele>136.96</ele>
        <time>2014-09-20T13:31:10Z</time>
      </trkpt>
      <trkpt lat="48.44503" lon="3.70677">
        <ele>136.87</ele>
        <time>2014-09-20T13:31:11Z</time>
      </trkpt>
      <trkpt lat="48.44499" lon="3.70672">
        <ele>136.79</ele>
        <time>2014-09-20T13:31:12Z</time>
      </trkpt>
      <trkpt lat="48.44496" lon="3.70666">
        <ele>136.7</ele>
        <time>2014-09-20T13:31:13Z</time>
      </trkpt>
      <trkpt lat="48.44493" lon="3.7066">
        <ele>136.61</ele>
        <time>2014-09-20T13:31:14Z</time>
      </trkpt>
      <trkpt lat="48.44489" lon="3.70655">
        <ele>136.54</ele>
        <time>2014-09-20T13:31:15Z</time>
      </trkpt>
      <trkpt lat="48.44486" lon="3.70649">
        <ele>136.48</ele>
        <time>2014-09-20T13:31:16Z</time>
      </trkpt>
      <trkpt lat="48.44483" lon="3.70644">
        <ele>136.44</ele>
        <time>2014-09-20T13:31:17Z</time>
      </trkpt>
      <trkpt lat="48.44479" lon="3.70638">
        <ele>136.39</ele>
        <time>2014-09-20T13:31:18Z</time>
      </trkpt>
      <trkpt lat="48.44476" lon="3.70633">
        <ele>136.35</ele>
        <time>2014-09-20T13:31:19Z</time>
      </trkpt>
      <trkpt lat="48.44473" lon="3.70627">
        <ele>136.32</ele>
        <time>2014-09-20T13:31:20Z</time>
      </trkpt>
      <trkpt lat="48.44469" lon="3.70621">
        <ele>136.32</ele>
        <time>2014-09-20T13:31:21Z</time>
      </trkpt>
      <trkpt lat="48.44466" lon="3.70616">
        <ele>136.32</ele>
        <time>2014-09-20T13:31:22Z</time>
      </trkpt>
      <trkpt lat="48.44463" lon="3.70611">
        <ele>136.27</ele>
        <time>2014-09-20T13:31:23Z</time>
      </trkpt>
      <trkpt lat="48.4446" lon="3.70606">
        <ele>136.21</ele>
        <time>2014-09-20T13:31:24Z</time>
      </trkpt>
      <trkpt lat="48.44454" lon="3.70596">
        <ele>136.02</ele>
        <time>2014-09-20T13:31:26Z</time>
      </trkpt>
      <trkpt lat="48.44454" lon="3.70584">
        <ele>135.8</ele>
        <time>2014-09-20T13:31:28Z</time>
      </trkpt>
      <trkpt lat="48.44459" lon="3.70573">
        <ele>135.6</ele>
        <time>2014-09-20T13:31:30Z</time>
      </trkpt>
      <trkpt lat="48.44465" lon="3.70566">
        <ele>135.46</ele>
        <time>2014-09-20T13:31:32Z</time>
      </trkpt>
      <trkpt lat="48.44471" lon="3.70559">
        <ele>135.4</ele>
        <time>2014-09-20T13:31:34Z</time>
      </trkpt>
      <trkpt lat="48.44477" lon="3.70552">
        <ele>135.44</ele>
        <time>2014-09-20T13:31:36Z</time>
      </trkpt>
      <trkpt lat="48.44482" lon="3.70544">
        <ele>135.43</ele>
        <time>2014-09-20T13:31:38Z</time>
      </trkpt>
      <trkpt lat="48.44489" lon="3.70535">
        <ele>135.46</ele>
        <time>2014-09-20T13:31:40Z</time>
      </trkpt>
      <trkpt lat="48.44494" lon="3.70526">
        <ele>135.6</ele>
        <time>2014-09-20T13:31:42Z</time>
      </trkpt>
      <trkpt lat="48.44499" lon="3.70518">
        <ele>135.77</ele>
        <time>2014-09-20T13:31:44Z</time>
      </trkpt>
      <trkpt lat="48.44504" lon="3.7051">
        <ele>135.95</ele>
        <time>2014-09-20T13:31:46Z</time>
      </trkpt>
      <trkpt lat="48.44508" lon="3.70502">
        <ele>136.14</ele>
        <time>2014-09-20T13:31:48Z</time>
      </trkpt>
      <trkpt lat="48.44513" lon="3.70495">
        <ele>136.31</ele>
        <time>2014-09-20T13:31:50Z</time>
      </trkpt>
      <trkpt lat="48.44518" lon="3.70488">
        <ele>136.41</ele>
        <time>2014-09-20T13:31:52Z</time>
      </trkpt>
      <trkpt lat="48.44523" lon="3.70481">
        <ele>136.5</ele>
        <time>2014-09-20T13:31:54Z</time>
      </trkpt>
      <trkpt lat="48.44528" lon="3.70473">
        <ele>136.6</ele>
        <time>2014-09-20T13:31:56Z</time>
      </trkpt>
      <trkpt lat="48.44532" lon="3.70465">
        <ele>136.7</ele>
        <time>2014-09-20T13:31:58Z</time>
      </trkpt>
      <trkpt lat="48.44537" lon="3.70458">
        <ele>136.76</ele>
        <time>2014-09-20T13:32:00Z</time>
      </trkpt>
      <trkpt lat="48.44541" lon="3.70449">
        <ele>136.83</ele>
        <time>2014-09-20T13:32:02Z</time>
      </trkpt>
      <trkpt lat="48.44545" lon="3.70442">
        <ele>136.9</ele>
        <time>2014-09-20T13:32:04Z</time>
      </trkpt>
      <trkpt lat="48.44549" lon="3.70433">
        <ele>136.91</ele>
        <time>2014-09-20T13:32:06Z</time>
      </trkpt>
      <trkpt lat="48.44549" lon="3.70423">
        <ele>136.9</ele>
        <time>2014-09-20T13:32:08Z</time>
      </trkpt>
      <trkpt lat="48.44543" lon="3.70417">
        <ele>136.89</ele>
        <time>2014-09-20T13:32:10Z</time>
      </trkpt>
      <trkpt lat="48.44538" lon="3.70411">
        <ele>136.75</ele>
        <time>2014-09-20T13:32:12Z</time>
      </trkpt>
      <trkpt lat="48.44532" lon="3.70404">
        <ele>136.54</ele>
        <time>2014-09-20T13:32:14Z</time>
      </trkpt>
      <trkpt lat="48.44527" lon="3.70397">
        <ele>136.36</ele>
        <time>2014-09-20T13:32:16Z</time>
      </trkpt>
      <trkpt lat="48.44522" lon="3.7039">
        <ele>136.21</ele>
        <time>2014-09-20T13:32:18Z</time>
      </trkpt>
      <trkpt lat="48.44517" lon="3.70383">
        <ele>136.13</ele>
        <time>2014-09-20T13:32:20Z</time>
      </trkpt>
      <trkpt lat="48.44512" lon="3.70375">
        <ele>136.11</ele>
        <time>2014-09-20T13:32:22Z</time>
      </trkpt>
      <trkpt lat="48.44507" lon="3.70368">
        <ele>136.07</ele>
        <time>2014-09-20T13:32:24Z</time>
      </trkpt>
      <trkpt lat="48.44502" lon="3.70361">
        <ele>136.05</ele>
        <time>2014-09-20T13:32:26Z</time>
      </trkpt>
      <trkpt lat="48.44497" lon="3.70354">
        <ele>136.07</ele>
        <time>2014-09-20T13:32:28Z</time>
      </trkpt>
      <trkpt lat="48.44491" lon="3.70347">
        <ele>136.09</ele>
        <time>2014-09-20T13:32:30Z</time>
      </trkpt>
      <trkpt lat="48.44486" lon="3.7034">
        <ele>136.11</ele>
        <time>2014-09-20T13:32:32Z</time>
      </trkpt>
      <trkpt lat="48.44481" lon="3.70332">
        <ele>136.16</ele>
        <time>2014-09-20T13:32:34Z</time>
      </trkpt>
      <trkpt lat="48.44476" lon="3.70325">
        <ele>136.19</ele>
        <time>2014-09-20T13:32:36Z</time>
      </trkpt>
      <trkpt lat="48.4447" lon="3.70318">
        <ele>136.18</ele>
        <time>2014-09-20T13:32:38Z</time>
      </trkpt>
      <trkpt lat="48.44465" lon="3.7031">
        <ele>136.16</ele>
        <time>2014-09-20T13:32:40Z</time>
      </trkpt>
      <trkpt lat="48.4446" lon="3.70303">
        <ele>136.13</ele>
        <time>2014-09-20T13:32:42Z</time>
      </trkpt>
      <trkpt lat="48.44455" lon="3.70296">
        <ele>136.13</ele>
        <time>2014-09-20T13:32:44Z</time>
      </trkpt>
      <trkpt lat="48.4445" lon="3.70288">
        <ele>136.2</ele>
        <time>2014-09-20T13:32:46Z</time>
      </trkpt>
      <trkpt lat="48.44444" lon="3.70281">
        <ele>136.25</ele>
        <time>2014-09-20T13:32:48Z</time>
      </trkpt>
      <trkpt lat="48.44439" lon="3.70273">
        <ele>136.29</ele>
        <time>2014-09-20T13:32:50Z</time>
      </trkpt>
      <trkpt lat="48.44434" lon="3.70266">
        <ele>136.28</ele>
        <time>2014-09-20T13:32:52Z</time>
      </trkpt>
      <trkpt lat="48.44428" lon="3.70258">
        <ele>136.3</ele>
        <time>2014-09-20T13:32:54Z</time>
      </trkpt>
      <trkpt lat="48.44423" lon="3.70251">
        <ele>136.31</ele>
        <time>2014-09-20T13:32:56Z</time>
      </trkpt>
      <trkpt lat="48.44417" lon="3.70243">
        <ele>136.32</ele>
        <time>2014-09-20T13:32:58Z</time>
      </trkpt>
      <trkpt lat="48.44412" lon="3.70236">
        <ele>136.35</ele>
        <time>2014-09-20T13:33:00Z</time>
      </trkpt>
      <trkpt lat="48.44406" lon="3.70228">
        <ele>136.38</ele>
        <time>2014-09-20T13:33:02Z</time>
      </trkpt>
      <trkpt lat="48.44401" lon="3.70221">
        <ele>136.4</ele>
        <time>2014-09-20T13:33:04Z</time>
      </trkpt>
      <trkpt lat="48.44395" lon="3.70214">
        <ele>136.41</ele>
        <time>2014-09-20T13:33:06Z</time>
      </trkpt>
      <trkpt lat="48.4439" lon="3.70206">
        <ele>136.42</ele>
        <time>2014-09-20T13:33:08Z</time>
      </trkpt>
      <trkpt lat="48.44384" lon="3.70199">
        <ele>136.42</ele>
        <time>2014-09-20T13:33:10Z</time>
      </trkpt>
      <trkpt lat="48.44379" lon="3.70192">
        <ele>136.36</ele>
        <time>2014-09-20T13:33:12Z</time>
      </trkpt>
      <trkpt lat="48.44373" lon="3.70184">
        <ele>136.3</ele>
        <time>2014-09-20T13:33:14Z</time>
      </trkpt>
      <trkpt lat="48.44368" lon="3.70176">
        <ele>136.22</ele>
        <time>2014-09-20T13:33:16Z</time>
      </trkpt>
      <trkpt lat="48.44362" lon="3.70168">
        <ele>136.16</ele>
        <time>2014-09-20T13:33:18Z</time>
      </trkpt>
      <trkpt lat="48.44356" lon="3.7016">
        <ele>136.08</ele>
        <time>2014-09-20T13:33:20Z</time>
      </trkpt>
      <trkpt lat="48.44351" lon="3.70153">
        <ele>135.99</ele>
        <time>2014-09-20T13:33:22Z</time>
      </trkpt>
      <trkpt lat="48.44345" lon="3.70145">
        <ele>135.89</ele>
        <time>2014-09-20T13:33:24Z</time>
      </trkpt>
      <trkpt lat="48.4434" lon="3.70137">
        <ele>135.86</ele>
        <time>2014-09-20T13:33:26Z</time>
      </trkpt>
      <trkpt lat="48.44334" lon="3.70129">
        <ele>135.76</ele>
        <time>2014-09-20T13:33:28Z</time>
      </trkpt>
      <trkpt lat="48.44333" lon="3.70118">
        <ele>135.72</ele>
        <time>2014-09-20T13:33:30Z</time>
      </trkpt>
      <trkpt lat="48.44335" lon="3.70108">
        <ele>135.64</ele>
        <time>2014-09-20T13:33:32Z</time>
      </trkpt>
      <trkpt lat="48.44338" lon="3.70098">
        <ele>135.59</ele>
        <time>2014-09-20T13:33:34Z</time>
      </trkpt>
      <trkpt lat="48.4434" lon="3.70088">
        <ele>135.52</ele>
        <time>2014-09-20T13:33:36Z</time>
      </trkpt>
      <trkpt lat="48.44342" lon="3.70078">
        <ele>135.44</ele>
        <time>2014-09-20T13:33:38Z</time>
      </trkpt>
      <trkpt lat="48.44345" lon="3.70067">
        <ele>135.43</ele>
        <time>2014-09-20T13:33:40Z</time>
      </trkpt>
      <trkpt lat="48.44347" lon="3.70057">
        <ele>135.46</ele>
        <time>2014-09-20T13:33:42Z</time>
      </trkpt>
      <trkpt lat="48.4435" lon="3.70047">
        <ele>135.53</ele>
        <time>2014-09-20T13:33:44Z</time>
      </trkpt>
      <trkpt lat="48.44352" lon="3.70037">
        <ele>135.5</ele>
        <time>2014-09-20T13:33:46Z</time>
      </trkpt>
      <trkpt lat="48.44355" lon="3.70027">
        <ele>135.47</ele>
        <time>2014-09-20T13:33:48Z</time>
      </trkpt>
      <trkpt lat="48.44357" lon="3.70017">
        <ele>135.47</ele>
        <time>2014-09-20T13:33:50Z</time>
      </trkpt>
      <trkpt lat="48.4436" lon="3.70006">
        <ele>135.47</ele>
        <time>2014-09-20T13:33:52Z</time>
      </trkpt>
      <trkpt lat="48.44362" lon="3.69996">
        <ele>135.41</ele>
        <time>2014-09-20T13:33:54Z</time>
      </trkpt>
      <trkpt lat="48.44365" lon="3.69985">
        <ele>135.4</ele>
        <time>2014-09-20T13:33:56Z</time>
      </trkpt>
      <trkpt lat="48.44368" lon="3.69974">
        <ele>135.39</ele>
        <time>2014-09-20T13:33:58Z</time>
      </trkpt>
      <trkpt lat="48.4437" lon="3.69963">
        <ele>135.32</ele>
        <time>2014-09-20T13:34:00Z</time>
      </trkpt>
      <trkpt lat="48.44372" lon="3.69952">
        <ele>135.25</ele>
        <time>2014-09-20T13:34:02Z</time>
      </trkpt>
      <trkpt lat="48.44375" lon="3.69941">
        <ele>135.09</ele>
        <time>2014-09-20T13:34:04Z</time>
      </trkpt>
      <trkpt lat="48.44378" lon="3.6993">
        <ele>134.97</ele>
        <time>2014-09-20T13:34:06Z</time>
      </trkpt>
      <trkpt lat="48.44381" lon="3.69918">
        <ele>134.87</ele>
        <time>2014-09-20T13:34:08Z</time>
      </trkpt>
      <trkpt lat="48.44383" lon="3.69906">
        <ele>134.78</ele>
        <time>2014-09-20T13:34:10Z</time>
      </trkpt>
      <trkpt lat="48.44386" lon="3.69894">
        <ele>134.73</ele>
        <time>2014-09-20T13:34:12Z</time>
      </trkpt>
      <trkpt lat="48.44389" lon="3.69882">
        <ele>134.73</ele>
        <time>2014-09-20T13:34:14Z</time>
      </trkpt>
      <trkpt lat="48.44392" lon="3.69869">
        <ele>134.7</ele>
        <time>2014-09-20T13:34:16Z</time>
      </trkpt>
      <trkpt lat="48.44395" lon="3.69857">
        <ele>134.67</ele>
        <time>2014-09-20T13:34:18Z</time>
      </trkpt>
      <trkpt lat="48.44398" lon="3.69844">
        <ele>134.58</ele>
        <time>2014-09-20T13:34:20Z</time>
      </trkpt>
      <trkpt lat="48.44399" lon="3.69838">
        <ele>134.47</ele>
        <time>2014-09-20T13:34:21Z</time>
      </trkpt>
      <trkpt lat="48.44402" lon="3.69825">
        <ele>134.3</ele>
        <time>2014-09-20T13:34:23Z</time>
      </trkpt>
      <trkpt lat="48.44405" lon="3.69812">
        <ele>134.13</ele>
        <time>2014-09-20T13:34:25Z</time>
      </trkpt>
      <trkpt lat="48.44408" lon="3.698">
        <ele>134.02</ele>
        <time>2014-09-20T13:34:27Z</time>
      </trkpt>
      <trkpt lat="48.44409" lon="3.69793">
        <ele>133.95</ele>
        <time>2014-09-20T13:34:28Z</time>
      </trkpt>
      <trkpt lat="48.44411" lon="3.69786">
        <ele>133.82</ele>
        <time>2014-09-20T13:34:29Z</time>
      </trkpt>
      <trkpt lat="48.44412" lon="3.6978">
        <ele>133.67</ele>
        <time>2014-09-20T13:34:30Z</time>
      </trkpt>
      <trkpt lat="48.44414" lon="3.69773">
        <ele>133.51</ele>
        <time>2014-09-20T13:34:31Z</time>
      </trkpt>
      <trkpt lat="48.44415" lon="3.69766">
        <ele>133.34</ele>
        <time>2014-09-20T13:34:32Z</time>
      </trkpt>
      <trkpt lat="48.44416" lon="3.69759">
        <ele>133.16</ele>
        <time>2014-09-20T13:34:33Z</time>
      </trkpt>
      <trkpt lat="48.44417" lon="3.69752">
        <ele>133</ele>
        <time>2014-09-20T13:34:34Z</time>
      </trkpt>
      <trkpt lat="48.44419" lon="3.69745">
        <ele>132.86</ele>
        <time>2014-09-20T13:34:35Z</time>
      </trkpt>
      <trkpt lat="48.4442" lon="3.69739">
        <ele>132.73</ele>
        <time>2014-09-20T13:34:36Z</time>
      </trkpt>
      <trkpt lat="48.44422" lon="3.69732">
        <ele>132.6</ele>
        <time>2014-09-20T13:34:37Z</time>
      </trkpt>
      <trkpt lat="48.44424" lon="3.69724">
        <ele>132.48</ele>
        <time>2014-09-20T13:34:38Z</time>
      </trkpt>
      <trkpt lat="48.44426" lon="3.69717">
        <ele>132.37</ele>
        <time>2014-09-20T13:34:39Z</time>
      </trkpt>
      <trkpt lat="48.44428" lon="3.6971">
        <ele>132.26</ele>
        <time>2014-09-20T13:34:40Z</time>
      </trkpt>
      <trkpt lat="48.44429" lon="3.69702">
        <ele>132.15</ele>
        <time>2014-09-20T13:34:41Z</time>
      </trkpt>
      <trkpt lat="48.44431" lon="3.69694">
        <ele>132.02</ele>
        <time>2014-09-20T13:34:42Z</time>
      </trkpt>
      <trkpt lat="48.44433" lon="3.69687">
        <ele>131.9</ele>
        <time>2014-09-20T13:34:43Z</time>
      </trkpt>
      <trkpt lat="48.44435" lon="3.69679">
        <ele>131.78</ele>
        <time>2014-09-20T13:34:44Z</time>
      </trkpt>
      <trkpt lat="48.44437" lon="3.69671">
        <ele>131.62</ele>
        <time>2014-09-20T13:34:45Z</time>
      </trkpt>
      <trkpt lat="48.44438" lon="3.69663">
        <ele>131.47</ele>
        <time>2014-09-20T13:34:46Z</time>
      </trkpt>
      <trkpt lat="48.4444" lon="3.69655">
        <ele>131.33</ele>
        <time>2014-09-20T13:34:47Z</time>
      </trkpt>
      <trkpt lat="48.44442" lon="3.69647">
        <ele>131.18</ele>
        <time>2014-09-20T13:34:48Z</time>
      </trkpt>
      <trkpt lat="48.44444" lon="3.69638">
        <ele>131.02</ele>
        <time>2014-09-20T13:34:49Z</time>
      </trkpt>
      <trkpt lat="48.44446" lon="3.6963">
        <ele>130.85</ele>
        <time>2014-09-20T13:34:50Z</time>
      </trkpt>
      <trkpt lat="48.44448" lon="3.69621">
        <ele>130.62</ele>
        <time>2014-09-20T13:34:51Z</time>
      </trkpt>
      <trkpt lat="48.4445" lon="3.69612">
        <ele>130.39</ele>
        <time>2014-09-20T13:34:52Z</time>
      </trkpt>
      <trkpt lat="48.44452" lon="3.69604">
        <ele>130.2</ele>
        <time>2014-09-20T13:34:53Z</time>
      </trkpt>
      <trkpt lat="48.44454" lon="3.69595">
        <ele>129.98</ele>
        <time>2014-09-20T13:34:54Z</time>
      </trkpt>
      <trkpt lat="48.44456" lon="3.69586">
        <ele>129.77</ele>
        <time>2014-09-20T13:34:55Z</time>
      </trkpt>
      <trkpt lat="48.44458" lon="3.69577">
        <ele>129.56</ele>
        <time>2014-09-20T13:34:56Z</time>
      </trkpt>
      <trkpt lat="48.4446" lon="3.69568">
        <ele>129.35</ele>
        <time>2014-09-20T13:34:57Z</time>
      </trkpt>
      <trkpt lat="48.44462" lon="3.69559">
        <ele>129.15</ele>
        <time>2014-09-20T13:34:58Z</time>
      </trkpt>
      <trkpt lat="48.44464" lon="3.6955">
        <ele>128.94</ele>
        <time>2014-09-20T13:34:59Z</time>
      </trkpt>
      <trkpt lat="48.44466" lon="3.69541">
        <ele>128.71</ele>
        <time>2014-09-20T13:35:00Z</time>
      </trkpt>
      <trkpt lat="48.44468" lon="3.69532">
        <ele>128.49</ele>
        <time>2014-09-20T13:35:01Z</time>
      </trkpt>
      <trkpt lat="48.4447" lon="3.69523">
        <ele>128.25</ele>
        <time>2014-09-20T13:35:02Z</time>
      </trkpt>
      <trkpt lat="48.44473" lon="3.69513">
        <ele>128</ele>
        <time>2014-09-20T13:35:03Z</time>
      </trkpt>
      <trkpt lat="48.44475" lon="3.69504">
        <ele>127.75</ele>
        <time>2014-09-20T13:35:04Z</time>
      </trkpt>
      <trkpt lat="48.44477" lon="3.69495">
        <ele>127.52</ele>
        <time>2014-09-20T13:35:05Z</time>
      </trkpt>
      <trkpt lat="48.44479" lon="3.69486">
        <ele>127.3</ele>
        <time>2014-09-20T13:35:06Z</time>
      </trkpt>
      <trkpt lat="48.44481" lon="3.69476">
        <ele>127.08</ele>
        <time>2014-09-20T13:35:07Z</time>
      </trkpt>
      <trkpt lat="48.44484" lon="3.69467">
        <ele>126.84</ele>
        <time>2014-09-20T13:35:08Z</time>
      </trkpt>
      <trkpt lat="48.44486" lon="3.69457">
        <ele>126.61</ele>
        <time>2014-09-20T13:35:09Z</time>
      </trkpt>
      <trkpt lat="48.44489" lon="3.69448">
        <ele>126.37</ele>
        <time>2014-09-20T13:35:10Z</time>
      </trkpt>
      <trkpt lat="48.44491" lon="3.69437">
        <ele>126.11</ele>
        <time>2014-09-20T13:35:11Z</time>
      </trkpt>
      <trkpt lat="48.44493" lon="3.69427">
        <ele>125.84</ele>
        <time>2014-09-20T13:35:12Z</time>
      </trkpt>
      <trkpt lat="48.44496" lon="3.69417">
        <ele>125.56</ele>
        <time>2014-09-20T13:35:13Z</time>
      </trkpt>
      <trkpt lat="48.44498" lon="3.69407">
        <ele>125.3</ele>
        <time>2014-09-20T13:35:14Z</time>
      </trkpt>
      <trkpt lat="48.44501" lon="3.69396">
        <ele>125.03</ele>
        <time>2014-09-20T13:35:15Z</time>
      </trkpt>
      <trkpt lat="48.44503" lon="3.69386">
        <ele>124.78</ele>
        <time>2014-09-20T13:35:16Z</time>
      </trkpt>
      <trkpt lat="48.44506" lon="3.69375">
        <ele>124.54</ele>
        <time>2014-09-20T13:35:17Z</time>
      </trkpt>
      <trkpt lat="48.44508" lon="3.69365">
        <ele>124.31</ele>
        <time>2014-09-20T13:35:18Z</time>
      </trkpt>
      <trkpt lat="48.44511" lon="3.69354">
        <ele>124.09</ele>
        <time>2014-09-20T13:35:19Z</time>
      </trkpt>
      <trkpt lat="48.44513" lon="3.69344">
        <ele>123.88</ele>
        <time>2014-09-20T13:35:20Z</time>
      </trkpt>
      <trkpt lat="48.44516" lon="3.69333">
        <ele>123.66</ele>
        <time>2014-09-20T13:35:21Z</time>
      </trkpt>
      <trkpt lat="48.44519" lon="3.69323">
        <ele>123.48</ele>
        <time>2014-09-20T13:35:22Z</time>
      </trkpt>
      <trkpt lat="48.44521" lon="3.69312">
        <ele>123.29</ele>
        <time>2014-09-20T13:35:23Z</time>
      </trkpt>
      <trkpt lat="48.44523" lon="3.69301">
        <ele>123.08</ele>
        <time>2014-09-20T13:35:24Z</time>
      </trkpt>
      <trkpt lat="48.44526" lon="3.69291">
        <ele>122.89</ele>
        <time>2014-09-20T13:35:25Z</time>
      </trkpt>
      <trkpt lat="48.44528" lon="3.69281">
        <ele>122.7</ele>
        <time>2014-09-20T13:35:26Z</time>
      </trkpt>
      <trkpt lat="48.44531" lon="3.6927">
        <ele>122.51</ele>
        <time>2014-09-20T13:35:27Z</time>
      </trkpt>
      <trkpt lat="48.44533" lon="3.6926">
        <ele>122.29</ele>
        <time>2014-09-20T13:35:28Z</time>
      </trkpt>
      <trkpt lat="48.44536" lon="3.6925">
        <ele>122.07</ele>
        <time>2014-09-20T13:35:29Z</time>
      </trkpt>
      <trkpt lat="48.44538" lon="3.69239">
        <ele>121.86</ele>
        <time>2014-09-20T13:35:30Z</time>
      </trkpt>
      <trkpt lat="48.4454" lon="3.69229">
        <ele>121.63</ele>
        <time>2014-09-20T13:35:31Z</time>
      </trkpt>
      <trkpt lat="48.44542" lon="3.69218">
        <ele>121.38</ele>
        <time>2014-09-20T13:35:32Z</time>
      </trkpt>
      <trkpt lat="48.44545" lon="3.69208">
        <ele>121.14</ele>
        <time>2014-09-20T13:35:33Z</time>
      </trkpt>
      <trkpt lat="48.44547" lon="3.69198">
        <ele>120.94</ele>
        <time>2014-09-20T13:35:34Z</time>
      </trkpt>
      <trkpt lat="48.44549" lon="3.69189">
        <ele>120.76</ele>
        <time>2014-09-20T13:35:35Z</time>
      </trkpt>
      <trkpt lat="48.44551" lon="3.69179">
        <ele>120.6</ele>
        <time>2014-09-20T13:35:36Z</time>
      </trkpt>
      <trkpt lat="48.44554" lon="3.69169">
        <ele>120.43</ele>
        <time>2014-09-20T13:35:37Z</time>
      </trkpt>
      <trkpt lat="48.44556" lon="3.6916">
        <ele>120.26</ele>
        <time>2014-09-20T13:35:38Z</time>
      </trkpt>
      <trkpt lat="48.44558" lon="3.6915">
        <ele>120.07</ele>
        <time>2014-09-20T13:35:39Z</time>
      </trkpt>
      <trkpt lat="48.4456" lon="3.6914">
        <ele>119.89</ele>
        <time>2014-09-20T13:35:40Z</time>
      </trkpt>
      <trkpt lat="48.44562" lon="3.69131">
        <ele>119.67</ele>
        <time>2014-09-20T13:35:41Z</time>
      </trkpt>
      <trkpt lat="48.44563" lon="3.69122">
        <ele>119.41</ele>
        <time>2014-09-20T13:35:42Z</time>
      </trkpt>
      <trkpt lat="48.44564" lon="3.69112">
        <ele>119.02</ele>
        <time>2014-09-20T13:35:43Z</time>
      </trkpt>
      <trkpt lat="48.44566" lon="3.69103">
        <ele>118.62</ele>
        <time>2014-09-20T13:35:44Z</time>
      </trkpt>
      <trkpt lat="48.44567" lon="3.69094">
        <ele>118.25</ele>
        <time>2014-09-20T13:35:45Z</time>
      </trkpt>
      <trkpt lat="48.44569" lon="3.69086">
        <ele>117.92</ele>
        <time>2014-09-20T13:35:46Z</time>
      </trkpt>
      <trkpt lat="48.44569" lon="3.69077">
        <ele>117.64</ele>
        <time>2014-09-20T13:35:47Z</time>
      </trkpt>
      <trkpt lat="48.44569" lon="3.69068">
        <ele>117.37</ele>
        <time>2014-09-20T13:35:48Z</time>
      </trkpt>
      <trkpt lat="48.44567" lon="3.6906">
        <ele>117.13</ele>
        <time>2014-09-20T13:35:49Z</time>
      </trkpt>
      <trkpt lat="48.44565" lon="3.69052">
        <ele>116.91</ele>
        <time>2014-09-20T13:35:50Z</time>
      </trkpt>
      <trkpt lat="48.44563" lon="3.69045">
        <ele>116.69</ele>
        <time>2014-09-20T13:35:51Z</time>
      </trkpt>
      <trkpt lat="48.44561" lon="3.69037">
        <ele>116.52</ele>
        <time>2014-09-20T13:35:52Z</time>
      </trkpt>
      <trkpt lat="48.44558" lon="3.6903">
        <ele>116.37</ele>
        <time>2014-09-20T13:35:53Z</time>
      </trkpt>
      <trkpt lat="48.44556" lon="3.69023">
        <ele>116.24</ele>
        <time>2014-09-20T13:35:54Z</time>
      </trkpt>
      <trkpt lat="48.44553" lon="3.69016">
        <ele>116.16</ele>
        <time>2014-09-20T13:35:55Z</time>
      </trkpt>
      <trkpt lat="48.44551" lon="3.69009">
        <ele>116.08</ele>
        <time>2014-09-20T13:35:56Z</time>
      </trkpt>
      <trkpt lat="48.44549" lon="3.69002">
        <ele>116.01</ele>
        <time>2014-09-20T13:35:57Z</time>
      </trkpt>
      <trkpt lat="48.44547" lon="3.68995">
        <ele>115.94</ele>
        <time>2014-09-20T13:35:58Z</time>
      </trkpt>
      <trkpt lat="48.44544" lon="3.68988">
        <ele>115.86</ele>
        <time>2014-09-20T13:35:59Z</time>
      </trkpt>
      <trkpt lat="48.44542" lon="3.68981">
        <ele>115.81</ele>
        <time>2014-09-20T13:36:00Z</time>
      </trkpt>
      <trkpt lat="48.4454" lon="3.68974">
        <ele>115.74</ele>
        <time>2014-09-20T13:36:01Z</time>
      </trkpt>
      <trkpt lat="48.44538" lon="3.68968">
        <ele>115.66</ele>
        <time>2014-09-20T13:36:02Z</time>
      </trkpt>
      <trkpt lat="48.44536" lon="3.68961">
        <ele>115.6</ele>
        <time>2014-09-20T13:36:03Z</time>
      </trkpt>
      <trkpt lat="48.44534" lon="3.68955">
        <ele>115.53</ele>
        <time>2014-09-20T13:36:04Z</time>
      </trkpt>
      <trkpt lat="48.44532" lon="3.68949">
        <ele>115.46</ele>
        <time>2014-09-20T13:36:05Z</time>
      </trkpt>
      <trkpt lat="48.4453" lon="3.68943">
        <ele>115.4</ele>
        <time>2014-09-20T13:36:06Z</time>
      </trkpt>
      <trkpt lat="48.44528" lon="3.68937">
        <ele>115.33</ele>
        <time>2014-09-20T13:36:07Z</time>
      </trkpt>
      <trkpt lat="48.44524" lon="3.68925">
        <ele>115.24</ele>
        <time>2014-09-20T13:36:09Z</time>
      </trkpt>
      <trkpt lat="48.44523" lon="3.68913">
        <ele>115.17</ele>
        <time>2014-09-20T13:36:11Z</time>
      </trkpt>
      <trkpt lat="48.44526" lon="3.68901">
        <ele>115.11</ele>
        <time>2014-09-20T13:36:13Z</time>
      </trkpt>
      <trkpt lat="48.44525" lon="3.68889">
        <ele>115.07</ele>
        <time>2014-09-20T13:36:15Z</time>
      </trkpt>
      <trkpt lat="48.44521" lon="3.68877">
        <ele>115.01</ele>
        <time>2014-09-20T13:36:17Z</time>
      </trkpt>
      <trkpt lat="48.44522" lon="3.68865">
        <ele>114.85</ele>
        <time>2014-09-20T13:36:19Z</time>
      </trkpt>
      <trkpt lat="48.44525" lon="3.68859">
        <ele>114.7</ele>
        <time>2014-09-20T13:36:20Z</time>
      </trkpt>
      <trkpt lat="48.44529" lon="3.68854">
        <ele>114.53</ele>
        <time>2014-09-20T13:36:21Z</time>
      </trkpt>
      <trkpt lat="48.44533" lon="3.68849">
        <ele>114.38</ele>
        <time>2014-09-20T13:36:22Z</time>
      </trkpt>
      <trkpt lat="48.44536" lon="3.68843">
        <ele>114.19</ele>
        <time>2014-09-20T13:36:23Z</time>
      </trkpt>
      <trkpt lat="48.44539" lon="3.68837">
        <ele>114.03</ele>
        <time>2014-09-20T13:36:24Z</time>
      </trkpt>
      <trkpt lat="48.44542" lon="3.6883">
        <ele>113.85</ele>
        <time>2014-09-20T13:36:25Z</time>
      </trkpt>
      <trkpt lat="48.44544" lon="3.68823">
        <ele>113.7</ele>
        <time>2014-09-20T13:36:26Z</time>
      </trkpt>
      <trkpt lat="48.44547" lon="3.68817">
        <ele>113.58</ele>
        <time>2014-09-20T13:36:27Z</time>
      </trkpt>
      <trkpt lat="48.44549" lon="3.6881">
        <ele>113.47</ele>
        <time>2014-09-20T13:36:28Z</time>
      </trkpt>
      <trkpt lat="48.44552" lon="3.68803">
        <ele>113.38</ele>
        <time>2014-09-20T13:36:29Z</time>
      </trkpt>
      <trkpt lat="48.44554" lon="3.68797">
        <ele>113.34</ele>
        <time>2014-09-20T13:36:30Z</time>
      </trkpt>
      <trkpt lat="48.44557" lon="3.68791">
        <ele>113.31</ele>
        <time>2014-09-20T13:36:31Z</time>
      </trkpt>
      <trkpt lat="48.4456" lon="3.68785">
        <ele>113.32</ele>
        <time>2014-09-20T13:36:32Z</time>
      </trkpt>
      <trkpt lat="48.44562" lon="3.68779">
        <ele>113.35</ele>
        <time>2014-09-20T13:36:33Z</time>
      </trkpt>
      <trkpt lat="48.44564" lon="3.68773">
        <ele>113.37</ele>
        <time>2014-09-20T13:36:34Z</time>
      </trkpt>
      <trkpt lat="48.44567" lon="3.68767">
        <ele>113.41</ele>
        <time>2014-09-20T13:36:35Z</time>
      </trkpt>
      <trkpt lat="48.4457" lon="3.68762">
        <ele>113.44</ele>
        <time>2014-09-20T13:36:36Z</time>
      </trkpt>
      <trkpt lat="48.44574" lon="3.6875">
        <ele>113.48</ele>
        <time>2014-09-20T13:36:38Z</time>
      </trkpt>
      <trkpt lat="48.44579" lon="3.68739">
        <ele>113.54</ele>
        <time>2014-09-20T13:36:40Z</time>
      </trkpt>
      <trkpt lat="48.44584" lon="3.68729">
        <ele>113.54</ele>
        <time>2014-09-20T13:36:42Z</time>
      </trkpt>
      <trkpt lat="48.44589" lon="3.68718">
        <ele>113.58</ele>
        <time>2014-09-20T13:36:44Z</time>
      </trkpt>
      <trkpt lat="48.44593" lon="3.68708">
        <ele>113.57</ele>
        <time>2014-09-20T13:36:46Z</time>
      </trkpt>
      <trkpt lat="48.44598" lon="3.68698">
        <ele>113.55</ele>
        <time>2014-09-20T13:36:48Z</time>
      </trkpt>
      <trkpt lat="48.44602" lon="3.68688">
        <ele>113.52</ele>
        <time>2014-09-20T13:36:50Z</time>
      </trkpt>
      <trkpt lat="48.44606" lon="3.68678">
        <ele>113.53</ele>
        <time>2014-09-20T13:36:52Z</time>
      </trkpt>
      <trkpt lat="48.4461" lon="3.68668">
        <ele>113.57</ele>
        <time>2014-09-20T13:36:54Z</time>
      </trkpt>
      <trkpt lat="48.44614" lon="3.68658">
        <ele>113.66</ele>
        <time>2014-09-20T13:36:56Z</time>
      </trkpt>
      <trkpt lat="48.44618" lon="3.68649">
        <ele>113.76</ele>
        <time>2014-09-20T13:36:58Z</time>
      </trkpt>
      <trkpt lat="48.44622" lon="3.68639">
        <ele>113.86</ele>
        <time>2014-09-20T13:37:00Z</time>
      </trkpt>
      <trkpt lat="48.44626" lon="3.6863">
        <ele>113.93</ele>
        <time>2014-09-20T13:37:02Z</time>
      </trkpt>
      <trkpt lat="48.4463" lon="3.6862">
        <ele>113.96</ele>
        <time>2014-09-20T13:37:04Z</time>
      </trkpt>
      <trkpt lat="48.44634" lon="3.6861">
        <ele>114.01</ele>
        <time>2014-09-20T13:37:06Z</time>
      </trkpt>
      <trkpt lat="48.44638" lon="3.686">
        <ele>114.09</ele>
        <time>2014-09-20T13:37:08Z</time>
      </trkpt>
      <trkpt lat="48.44642" lon="3.6859">
        <ele>114.17</ele>
        <time>2014-09-20T13:37:10Z</time>
      </trkpt>
      <trkpt lat="48.44647" lon="3.6858">
        <ele>114.29</ele>
        <time>2014-09-20T13:37:12Z</time>
      </trkpt>
      <trkpt lat="48.44651" lon="3.68569">
        <ele>114.35</ele>
        <time>2014-09-20T13:37:14Z</time>
      </trkpt>
      <trkpt lat="48.44655" lon="3.68559">
        <ele>114.38</ele>
        <time>2014-09-20T13:37:16Z</time>
      </trkpt>
      <trkpt lat="48.4466" lon="3.68549">
        <ele>114.4</ele>
        <time>2014-09-20T13:37:18Z</time>
      </trkpt>
      <trkpt lat="48.44664" lon="3.68539">
        <ele>114.41</ele>
        <time>2014-09-20T13:37:20Z</time>
      </trkpt>
      <trkpt lat="48.44669" lon="3.6853">
        <ele>114.38</ele>
        <time>2014-09-20T13:37:22Z</time>
      </trkpt>
      <trkpt lat="48.44673" lon="3.6852">
        <ele>114.36</ele>
        <time>2014-09-20T13:37:24Z</time>
      </trkpt>
      <trkpt lat="48.44677" lon="3.68511">
        <ele>114.41</ele>
        <time>2014-09-20T13:37:26Z</time>
      </trkpt>
      <trkpt lat="48.44682" lon="3.68501">
        <ele>114.48</ele>
        <time>2014-09-20T13:37:28Z</time>
      </trkpt>
      <trkpt lat="48.44686" lon="3.68491">
        <ele>114.59</ele>
        <time>2014-09-20T13:37:30Z</time>
      </trkpt>
      <trkpt lat="48.4469" lon="3.68481">
        <ele>114.69</ele>
        <time>2014-09-20T13:37:32Z</time>
      </trkpt>
      <trkpt lat="48.44695" lon="3.68471">
        <ele>114.73</ele>
        <time>2014-09-20T13:37:34Z</time>
      </trkpt>
      <trkpt lat="48.44699" lon="3.68461">
        <ele>114.78</ele>
        <time>2014-09-20T13:37:36Z</time>
      </trkpt>
      <trkpt lat="48.44703" lon="3.68451">
        <ele>114.84</ele>
        <time>2014-09-20T13:37:38Z</time>
      </trkpt>
      <trkpt lat="48.44707" lon="3.68442">
        <ele>114.88</ele>
        <time>2014-09-20T13:37:40Z</time>
      </trkpt>
      <trkpt lat="48.44711" lon="3.68432">
        <ele>114.97</ele>
        <time>2014-09-20T13:37:42Z</time>
      </trkpt>
      <trkpt lat="48.44715" lon="3.68423">
        <ele>115.06</ele>
        <time>2014-09-20T13:37:44Z</time>
      </trkpt>
      <trkpt lat="48.44719" lon="3.68413">
        <ele>115.18</ele>
        <time>2014-09-20T13:37:46Z</time>
      </trkpt>
      <trkpt lat="48.44723" lon="3.68403">
        <ele>115.27</ele>
        <time>2014-09-20T13:37:48Z</time>
      </trkpt>
      <trkpt lat="48.44727" lon="3.68394">
        <ele>115.34</ele>
        <time>2014-09-20T13:37:50Z</time>
      </trkpt>
      <trkpt lat="48.44732" lon="3.68384">
        <ele>115.38</ele>
        <time>2014-09-20T13:37:52Z</time>
      </trkpt>
      <trkpt lat="48.44736" lon="3.68374">
        <ele>115.42</ele>
        <time>2014-09-20T13:37:54Z</time>
      </trkpt>
      <trkpt lat="48.4474" lon="3.68364">
        <ele>115.47</ele>
        <time>2014-09-20T13:37:56Z</time>
      </trkpt>
      <trkpt lat="48.44744" lon="3.68354">
        <ele>115.5</ele>
        <time>2014-09-20T13:37:58Z</time>
      </trkpt>
      <trkpt lat="48.44749" lon="3.68344">
        <ele>115.53</ele>
        <time>2014-09-20T13:38:00Z</time>
      </trkpt>
      <trkpt lat="48.44753" lon="3.68333">
        <ele>115.58</ele>
        <time>2014-09-20T13:38:02Z</time>
      </trkpt>
      <trkpt lat="48.44758" lon="3.68322">
        <ele>115.6</ele>
        <time>2014-09-20T13:38:04Z</time>
      </trkpt>
      <trkpt lat="48.44762" lon="3.68311">
        <ele>115.61</ele>
        <time>2014-09-20T13:38:06Z</time>
      </trkpt>
      <trkpt lat="48.44767" lon="3.683">
        <ele>115.62</ele>
        <time>2014-09-20T13:38:08Z</time>
      </trkpt>
      <trkpt lat="48.44771" lon="3.68289">
        <ele>115.6</ele>
        <time>2014-09-20T13:38:10Z</time>
      </trkpt>
      <trkpt lat="48.44776" lon="3.68278">
        <ele>115.57</ele>
        <time>2014-09-20T13:38:12Z</time>
      </trkpt>
      <trkpt lat="48.4478" lon="3.68267">
        <ele>115.48</ele>
        <time>2014-09-20T13:38:14Z</time>
      </trkpt>
      <trkpt lat="48.44783" lon="3.68261">
        <ele>115.39</ele>
        <time>2014-09-20T13:38:15Z</time>
      </trkpt>
      <trkpt lat="48.44785" lon="3.68255">
        <ele>115.3</ele>
        <time>2014-09-20T13:38:16Z</time>
      </trkpt>
      <trkpt lat="48.44788" lon="3.68249">
        <ele>115.23</ele>
        <time>2014-09-20T13:38:17Z</time>
      </trkpt>
      <trkpt lat="48.4479" lon="3.68243">
        <ele>115.13</ele>
        <time>2014-09-20T13:38:18Z</time>
      </trkpt>
      <trkpt lat="48.44793" lon="3.68236">
        <ele>115.03</ele>
        <time>2014-09-20T13:38:19Z</time>
      </trkpt>
      <trkpt lat="48.44796" lon="3.6823">
        <ele>114.93</ele>
        <time>2014-09-20T13:38:20Z</time>
      </trkpt>
      <trkpt lat="48.44798" lon="3.68223">
        <ele>114.8</ele>
        <time>2014-09-20T13:38:21Z</time>
      </trkpt>
      <trkpt lat="48.44801" lon="3.68216">
        <ele>114.66</ele>
        <time>2014-09-20T13:38:22Z</time>
      </trkpt>
      <trkpt lat="48.44804" lon="3.68209">
        <ele>114.53</ele>
        <time>2014-09-20T13:38:23Z</time>
      </trkpt>
      <trkpt lat="48.44807" lon="3.68202">
        <ele>114.38</ele>
        <time>2014-09-20T13:38:24Z</time>
      </trkpt>
      <trkpt lat="48.44809" lon="3.68195">
        <ele>114.24</ele>
        <time>2014-09-20T13:38:25Z</time>
      </trkpt>
      <trkpt lat="48.44812" lon="3.68187">
        <ele>114.09</ele>
        <time>2014-09-20T13:38:26Z</time>
      </trkpt>
      <trkpt lat="48.44815" lon="3.6818">
        <ele>113.95</ele>
        <time>2014-09-20T13:38:27Z</time>
      </trkpt>
      <trkpt lat="48.44818" lon="3.68173">
        <ele>113.79</ele>
        <time>2014-09-20T13:38:28Z</time>
      </trkpt>
      <trkpt lat="48.44821" lon="3.68166">
        <ele>113.65</ele>
        <time>2014-09-20T13:38:29Z</time>
      </trkpt>
      <trkpt lat="48.44824" lon="3.68159">
        <ele>113.5</ele>
        <time>2014-09-20T13:38:30Z</time>
      </trkpt>
      <trkpt lat="48.44827" lon="3.68152">
        <ele>113.33</ele>
        <time>2014-09-20T13:38:31Z</time>
      </trkpt>
      <trkpt lat="48.44831" lon="3.68145">
        <ele>113.15</ele>
        <time>2014-09-20T13:38:32Z</time>
      </trkpt>
      <trkpt lat="48.44834" lon="3.68137">
        <ele>112.97</ele>
        <time>2014-09-20T13:38:33Z</time>
      </trkpt>
      <trkpt lat="48.44837" lon="3.6813">
        <ele>112.81</ele>
        <time>2014-09-20T13:38:34Z</time>
      </trkpt>
      <trkpt lat="48.44841" lon="3.68122">
        <ele>112.64</ele>
        <time>2014-09-20T13:38:35Z</time>
      </trkpt>
      <trkpt lat="48.44844" lon="3.68114">
        <ele>112.46</ele>
        <time>2014-09-20T13:38:36Z</time>
      </trkpt>
      <trkpt lat="48.44847" lon="3.68106">
        <ele>112.3</ele>
        <time>2014-09-20T13:38:37Z</time>
      </trkpt>
      <trkpt lat="48.44851" lon="3.68099">
        <ele>112.13</ele>
        <time>2014-09-20T13:38:38Z</time>
      </trkpt>
      <trkpt lat="48.44855" lon="3.68091">
        <ele>111.96</ele>
        <time>2014-09-20T13:38:39Z</time>
      </trkpt>
      <trkpt lat="48.44858" lon="3.68083">
        <ele>111.8</ele>
        <time>2014-09-20T13:38:40Z</time>
      </trkpt>
      <trkpt lat="48.44861" lon="3.68074">
        <ele>111.63</ele>
        <time>2014-09-20T13:38:41Z</time>
      </trkpt>
      <trkpt lat="48.44865" lon="3.68066">
        <ele>111.46</ele>
        <time>2014-09-20T13:38:42Z</time>
      </trkpt>
      <trkpt lat="48.44868" lon="3.68058">
        <ele>111.27</ele>
        <time>2014-09-20T13:38:43Z</time>
      </trkpt>
      <trkpt lat="48.44871" lon="3.6805">
        <ele>111.09</ele>
        <time>2014-09-20T13:38:44Z</time>
      </trkpt>
      <trkpt lat="48.44875" lon="3.68042">
        <ele>110.9</ele>
        <time>2014-09-20T13:38:45Z</time>
      </trkpt>
      <trkpt lat="48.44878" lon="3.68034">
        <ele>110.71</ele>
        <time>2014-09-20T13:38:46Z</time>
      </trkpt>
      <trkpt lat="48.44882" lon="3.68025">
        <ele>110.49</ele>
        <time>2014-09-20T13:38:47Z</time>
      </trkpt>
      <trkpt lat="48.44885" lon="3.68017">
        <ele>110.27</ele>
        <time>2014-09-20T13:38:48Z</time>
      </trkpt>
      <trkpt lat="48.44889" lon="3.68009">
        <ele>110.04</ele>
        <time>2014-09-20T13:38:49Z</time>
      </trkpt>
      <trkpt lat="48.44892" lon="3.68001">
        <ele>109.78</ele>
        <time>2014-09-20T13:38:50Z</time>
      </trkpt>
      <trkpt lat="48.44896" lon="3.67992">
        <ele>109.54</ele>
        <time>2014-09-20T13:38:51Z</time>
      </trkpt>
      <trkpt lat="48.44899" lon="3.67984">
        <ele>109.29</ele>
        <time>2014-09-20T13:38:52Z</time>
      </trkpt>
      <trkpt lat="48.44903" lon="3.67975">
        <ele>109.02</ele>
        <time>2014-09-20T13:38:53Z</time>
      </trkpt>
      <trkpt lat="48.44906" lon="3.67967">
        <ele>108.75</ele>
        <time>2014-09-20T13:38:54Z</time>
      </trkpt>
      <trkpt lat="48.4491" lon="3.67958">
        <ele>108.47</ele>
        <time>2014-09-20T13:38:55Z</time>
      </trkpt>
      <trkpt lat="48.44914" lon="3.67949">
        <ele>108.21</ele>
        <time>2014-09-20T13:38:56Z</time>
      </trkpt>
      <trkpt lat="48.44917" lon="3.6794">
        <ele>107.91</ele>
        <time>2014-09-20T13:38:57Z</time>
      </trkpt>
      <trkpt lat="48.44921" lon="3.67932">
        <ele>107.62</ele>
        <time>2014-09-20T13:38:58Z</time>
      </trkpt>
      <trkpt lat="48.44925" lon="3.67923">
        <ele>107.32</ele>
        <time>2014-09-20T13:38:59Z</time>
      </trkpt>
      <trkpt lat="48.44928" lon="3.67914">
        <ele>107</ele>
        <time>2014-09-20T13:39:00Z</time>
      </trkpt>
      <trkpt lat="48.44932" lon="3.67906">
        <ele>106.7</ele>
        <time>2014-09-20T13:39:01Z</time>
      </trkpt>
      <trkpt lat="48.44936" lon="3.67897">
        <ele>106.44</ele>
        <time>2014-09-20T13:39:02Z</time>
      </trkpt>
      <trkpt lat="48.44939" lon="3.67888">
        <ele>106.18</ele>
        <time>2014-09-20T13:39:03Z</time>
      </trkpt>
      <trkpt lat="48.44943" lon="3.6788">
        <ele>105.97</ele>
        <time>2014-09-20T13:39:04Z</time>
      </trkpt>
      <trkpt lat="48.44947" lon="3.67871">
        <ele>105.81</ele>
        <time>2014-09-20T13:39:05Z</time>
      </trkpt>
      <trkpt lat="48.4495" lon="3.67863">
        <ele>105.66</ele>
        <time>2014-09-20T13:39:06Z</time>
      </trkpt>
      <trkpt lat="48.44953" lon="3.67856">
        <ele>105.53</ele>
        <time>2014-09-20T13:39:07Z</time>
      </trkpt>
      <trkpt lat="48.44957" lon="3.67848">
        <ele>105.43</ele>
        <time>2014-09-20T13:39:08Z</time>
      </trkpt>
      <trkpt lat="48.4496" lon="3.6784">
        <ele>105.33</ele>
        <time>2014-09-20T13:39:09Z</time>
      </trkpt>
      <trkpt lat="48.44963" lon="3.67833">
        <ele>105.2</ele>
        <time>2014-09-20T13:39:10Z</time>
      </trkpt>
      <trkpt lat="48.44966" lon="3.67825">
        <ele>105.11</ele>
        <time>2014-09-20T13:39:11Z</time>
      </trkpt>
      <trkpt lat="48.44969" lon="3.67818">
        <ele>105.01</ele>
        <time>2014-09-20T13:39:12Z</time>
      </trkpt>
      <trkpt lat="48.44972" lon="3.67811">
        <ele>104.94</ele>
        <time>2014-09-20T13:39:13Z</time>
      </trkpt>
      <trkpt lat="48.44975" lon="3.67804">
        <ele>104.89</ele>
        <time>2014-09-20T13:39:14Z</time>
      </trkpt>
      <trkpt lat="48.44978" lon="3.67798">
        <ele>104.85</ele>
        <time>2014-09-20T13:39:15Z</time>
      </trkpt>
      <trkpt lat="48.4498" lon="3.67791">
        <ele>104.82</ele>
        <time>2014-09-20T13:39:16Z</time>
      </trkpt>
      <trkpt lat="48.44983" lon="3.67785">
        <ele>104.82</ele>
        <time>2014-09-20T13:39:17Z</time>
      </trkpt>
      <trkpt lat="48.44986" lon="3.67779">
        <ele>104.82</ele>
        <time>2014-09-20T13:39:18Z</time>
      </trkpt>
      <trkpt lat="48.44988" lon="3.67772">
        <ele>104.82</ele>
        <time>2014-09-20T13:39:19Z</time>
      </trkpt>
      <trkpt lat="48.44991" lon="3.67766">
        <ele>104.85</ele>
        <time>2014-09-20T13:39:20Z</time>
      </trkpt>
      <trkpt lat="48.44994" lon="3.67759">
        <ele>104.92</ele>
        <time>2014-09-20T13:39:21Z</time>
      </trkpt>
      <trkpt lat="48.44996" lon="3.67753">
        <ele>104.97</ele>
        <time>2014-09-20T13:39:22Z</time>
      </trkpt>
      <trkpt lat="48.44999" lon="3.67747">
        <ele>105.06</ele>
        <time>2014-09-20T13:39:23Z</time>
      </trkpt>
      <trkpt lat="48.45001" lon="3.67741">
        <ele>105.15</ele>
        <time>2014-09-20T13:39:24Z</time>
      </trkpt>
      <trkpt lat="48.45005" lon="3.6773">
        <ele>105.3</ele>
        <time>2014-09-20T13:39:26Z</time>
      </trkpt>
      <trkpt lat="48.4501" lon="3.67719">
        <ele>105.49</ele>
        <time>2014-09-20T13:39:28Z</time>
      </trkpt>
      <trkpt lat="48.45014" lon="3.6771">
        <ele>105.69</ele>
        <time>2014-09-20T13:39:30Z</time>
      </trkpt>
      <trkpt lat="48.45018" lon="3.677">
        <ele>105.9</ele>
        <time>2014-09-20T13:39:32Z</time>
      </trkpt>
      <trkpt lat="48.45022" lon="3.6769">
        <ele>106.1</ele>
        <time>2014-09-20T13:39:34Z</time>
      </trkpt>
      <trkpt lat="48.45026" lon="3.67681">
        <ele>106.31</ele>
        <time>2014-09-20T13:39:36Z</time>
      </trkpt>
      <trkpt lat="48.45029" lon="3.67671">
        <ele>106.54</ele>
        <time>2014-09-20T13:39:38Z</time>
      </trkpt>
      <trkpt lat="48.45033" lon="3.67662">
        <ele>106.78</ele>
        <time>2014-09-20T13:39:40Z</time>
      </trkpt>
      <trkpt lat="48.45037" lon="3.67654">
        <ele>107</ele>
        <time>2014-09-20T13:39:42Z</time>
      </trkpt>
      <trkpt lat="48.4504" lon="3.67646">
        <ele>107.26</ele>
        <time>2014-09-20T13:39:44Z</time>
      </trkpt>
      <trkpt lat="48.45044" lon="3.67638">
        <ele>107.49</ele>
        <time>2014-09-20T13:39:46Z</time>
      </trkpt>
      <trkpt lat="48.45048" lon="3.6763">
        <ele>107.66</ele>
        <time>2014-09-20T13:39:48Z</time>
      </trkpt>
      <trkpt lat="48.45051" lon="3.67622">
        <ele>107.85</ele>
        <time>2014-09-20T13:39:50Z</time>
      </trkpt>
      <trkpt lat="48.45054" lon="3.67614">
        <ele>108.04</ele>
        <time>2014-09-20T13:39:52Z</time>
      </trkpt>
      <trkpt lat="48.45057" lon="3.67606">
        <ele>108.28</ele>
        <time>2014-09-20T13:39:54Z</time>
      </trkpt>
      <trkpt lat="48.4506" lon="3.67598">
        <ele>108.54</ele>
        <time>2014-09-20T13:39:56Z</time>
      </trkpt>
      <trkpt lat="48.45063" lon="3.6759">
        <ele>108.78</ele>
        <time>2014-09-20T13:39:58Z</time>
      </trkpt>
      <trkpt lat="48.45066" lon="3.67582">
        <ele>109.03</ele>
        <time>2014-09-20T13:40:00Z</time>
      </trkpt>
      <trkpt lat="48.45069" lon="3.67575">
        <ele>109.27</ele>
        <time>2014-09-20T13:40:02Z</time>
      </trkpt>
      <trkpt lat="48.45072" lon="3.67567">
        <ele>109.54</ele>
        <time>2014-09-20T13:40:04Z</time>
      </trkpt>
      <trkpt lat="48.45074" lon="3.67559">
        <ele>109.82</ele>
        <time>2014-09-20T13:40:06Z</time>
      </trkpt>
      <trkpt lat="48.45077" lon="3.67551">
        <ele>110.09</ele>
        <time>2014-09-20T13:40:08Z</time>
      </trkpt>
      <trkpt lat="48.4508" lon="3.67544">
        <ele>110.38</ele>
        <time>2014-09-20T13:40:10Z</time>
      </trkpt>
      <trkpt lat="48.45083" lon="3.67537">
        <ele>110.64</ele>
        <time>2014-09-20T13:40:12Z</time>
      </trkpt>
      <trkpt lat="48.45086" lon="3.6753">
        <ele>110.88</ele>
        <time>2014-09-20T13:40:14Z</time>
      </trkpt>
      <trkpt lat="48.45089" lon="3.67523">
        <ele>111.1</ele>
        <time>2014-09-20T13:40:16Z</time>
      </trkpt>
      <trkpt lat="48.45092" lon="3.67515">
        <ele>111.31</ele>
        <time>2014-09-20T13:40:18Z</time>
      </trkpt>
      <trkpt lat="48.45096" lon="3.67509">
        <ele>111.52</ele>
        <time>2014-09-20T13:40:20Z</time>
      </trkpt>
      <trkpt lat="48.45099" lon="3.67501">
        <ele>111.72</ele>
        <time>2014-09-20T13:40:22Z</time>
      </trkpt>
      <trkpt lat="48.45102" lon="3.67494">
        <ele>111.93</ele>
        <time>2014-09-20T13:40:24Z</time>
      </trkpt>
      <trkpt lat="48.45105" lon="3.67487">
        <ele>112.15</ele>
        <time>2014-09-20T13:40:26Z</time>
      </trkpt>
      <trkpt lat="48.45108" lon="3.6748">
        <ele>112.41</ele>
        <time>2014-09-20T13:40:28Z</time>
      </trkpt>
      <trkpt lat="48.45111" lon="3.67473">
        <ele>112.66</ele>
        <time>2014-09-20T13:40:30Z</time>
      </trkpt>
      <trkpt lat="48.45114" lon="3.67466">
        <ele>112.89</ele>
        <time>2014-09-20T13:40:32Z</time>
      </trkpt>
      <trkpt lat="48.45117" lon="3.67459">
        <ele>113.15</ele>
        <time>2014-09-20T13:40:34Z</time>
      </trkpt>
      <trkpt lat="48.4512" lon="3.67452">
        <ele>113.43</ele>
        <time>2014-09-20T13:40:36Z</time>
      </trkpt>
      <trkpt lat="48.45123" lon="3.67445">
        <ele>113.67</ele>
        <time>2014-09-20T13:40:38Z</time>
      </trkpt>
      <trkpt lat="48.45125" lon="3.67438">
        <ele>113.9</ele>
        <time>2014-09-20T13:40:40Z</time>
      </trkpt>
      <trkpt lat="48.45127" lon="3.67431">
        <ele>114.15</ele>
        <time>2014-09-20T13:40:42Z</time>
      </trkpt>
      <trkpt lat="48.4513" lon="3.67424">
        <ele>114.37</ele>
        <time>2014-09-20T13:40:44Z</time>
      </trkpt>
      <trkpt lat="48.45133" lon="3.67417">
        <ele>114.55</ele>
        <time>2014-09-20T13:40:46Z</time>
      </trkpt>
      <trkpt lat="48.45136" lon="3.6741">
        <ele>114.74</ele>
        <time>2014-09-20T13:40:48Z</time>
      </trkpt>
      <trkpt lat="48.45138" lon="3.67403">
        <ele>114.89</ele>
        <time>2014-09-20T13:40:50Z</time>
      </trkpt>
      <trkpt lat="48.45141" lon="3.67395">
        <ele>115.11</ele>
        <time>2014-09-20T13:40:52Z</time>
      </trkpt>
      <trkpt lat="48.45143" lon="3.67388">
        <ele>115.39</ele>
        <time>2014-09-20T13:40:54Z</time>
      </trkpt>
      <trkpt lat="48.45145" lon="3.67381">
        <ele>115.62</ele>
        <time>2014-09-20T13:40:56Z</time>
      </trkpt>
      <trkpt lat="48.45147" lon="3.67373">
        <ele>115.87</ele>
        <time>2014-09-20T13:40:58Z</time>
      </trkpt>
      <trkpt lat="48.4515" lon="3.67365">
        <ele>116.12</ele>
        <time>2014-09-20T13:41:00Z</time>
      </trkpt>
      <trkpt lat="48.45152" lon="3.67358">
        <ele>116.3</ele>
        <time>2014-09-20T13:41:02Z</time>
      </trkpt>
      <trkpt lat="48.45154" lon="3.6735">
        <ele>116.49</ele>
        <time>2014-09-20T13:41:04Z</time>
      </trkpt>
      <trkpt lat="48.45156" lon="3.67342">
        <ele>116.68</ele>
        <time>2014-09-20T13:41:06Z</time>
      </trkpt>
      <trkpt lat="48.45158" lon="3.67334">
        <ele>116.86</ele>
        <time>2014-09-20T13:41:08Z</time>
      </trkpt>
      <trkpt lat="48.4516" lon="3.67327">
        <ele>117.06</ele>
        <time>2014-09-20T13:41:10Z</time>
      </trkpt>
      <trkpt lat="48.45162" lon="3.67319">
        <ele>117.27</ele>
        <time>2014-09-20T13:41:12Z</time>
      </trkpt>
      <trkpt lat="48.45164" lon="3.67312">
        <ele>117.47</ele>
        <time>2014-09-20T13:41:14Z</time>
      </trkpt>
      <trkpt lat="48.45165" lon="3.67305">
        <ele>117.65</ele>
        <time>2014-09-20T13:41:16Z</time>
      </trkpt>
      <trkpt lat="48.45168" lon="3.67297">
        <ele>117.91</ele>
        <time>2014-09-20T13:41:18Z</time>
      </trkpt>
      <trkpt lat="48.45169" lon="3.6729">
        <ele>118.21</ele>
        <time>2014-09-20T13:41:20Z</time>
      </trkpt>
      <trkpt lat="48.45171" lon="3.67283">
        <ele>118.5</ele>
        <time>2014-09-20T13:41:22Z</time>
      </trkpt>
      <trkpt lat="48.45173" lon="3.67276">
        <ele>118.76</ele>
        <time>2014-09-20T13:41:24Z</time>
      </trkpt>
      <trkpt lat="48.45175" lon="3.67269">
        <ele>119.01</ele>
        <time>2014-09-20T13:41:26Z</time>
      </trkpt>
      <trkpt lat="48.45177" lon="3.67262">
        <ele>119.31</ele>
        <time>2014-09-20T13:41:28Z</time>
      </trkpt>
      <trkpt lat="48.45179" lon="3.67255">
        <ele>119.56</ele>
        <time>2014-09-20T13:41:30Z</time>
      </trkpt>
      <trkpt lat="48.45181" lon="3.67248">
        <ele>119.83</ele>
        <time>2014-09-20T13:41:32Z</time>
      </trkpt>
      <trkpt lat="48.45183" lon="3.67241">
        <ele>120.1</ele>
        <time>2014-09-20T13:41:34Z</time>
      </trkpt>
      <trkpt lat="48.45186" lon="3.67234">
        <ele>120.42</ele>
        <time>2014-09-20T13:41:36Z</time>
      </trkpt>
      <trkpt lat="48.45188" lon="3.67228">
        <ele>120.71</ele>
        <time>2014-09-20T13:41:38Z</time>
      </trkpt>
      <trkpt lat="48.45191" lon="3.67222">
        <ele>121.01</ele>
        <time>2014-09-20T13:41:40Z</time>
      </trkpt>
      <trkpt lat="48.45193" lon="3.67215">
        <ele>121.33</ele>
        <time>2014-09-20T13:41:42Z</time>
      </trkpt>
      <trkpt lat="48.45195" lon="3.67208">
        <ele>121.66</ele>
        <time>2014-09-20T13:41:44Z</time>
      </trkpt>
      <trkpt lat="48.45196" lon="3.67202">
        <ele>121.81</ele>
        <time>2014-09-20T13:41:46Z</time>
      </trkpt>
      <trkpt lat="48.45198" lon="3.67194">
        <ele>121.85</ele>
        <time>2014-09-20T13:41:48Z</time>
      </trkpt>
      <trkpt lat="48.452" lon="3.67186">
        <ele>121.91</ele>
        <time>2014-09-20T13:41:50Z</time>
      </trkpt>
      <trkpt lat="48.45201" lon="3.67179">
        <ele>122.03</ele>
        <time>2014-09-20T13:41:52Z</time>
      </trkpt>
      <trkpt lat="48.45203" lon="3.67171">
        <ele>122.18</ele>
        <time>2014-09-20T13:41:54Z</time>
      </trkpt>
      <trkpt lat="48.45205" lon="3.67165">
        <ele>122.43</ele>
        <time>2014-09-20T13:41:56Z</time>
      </trkpt>
      <trkpt lat="48.45207" lon="3.67158">
        <ele>122.67</ele>
        <time>2014-09-20T13:41:58Z</time>
      </trkpt>
      <trkpt lat="48.45209" lon="3.67151">
        <ele>122.97</ele>
        <time>2014-09-20T13:42:00Z</time>
      </trkpt>
      <trkpt lat="48.45211" lon="3.67145">
        <ele>123.21</ele>
        <time>2014-09-20T13:42:02Z</time>
      </trkpt>
      <trkpt lat="48.45212" lon="3.67137">
        <ele>123.4</ele>
        <time>2014-09-20T13:42:04Z</time>
      </trkpt>
      <trkpt lat="48.4521" lon="3.67128">
        <ele>123.65</ele>
        <time>2014-09-20T13:42:07Z</time>
      </trkpt>
      <trkpt lat="48.45207" lon="3.67123">
        <ele>123.68</ele>
        <time>2014-09-20T13:42:09Z</time>
      </trkpt>
      <trkpt lat="48.45202" lon="3.6712">
        <ele>123.63</ele>
        <time>2014-09-20T13:42:11Z</time>
      </trkpt>
      <trkpt lat="48.45196" lon="3.67117">
        <ele>123.56</ele>
        <time>2014-09-20T13:42:13Z</time>
      </trkpt>
      <trkpt lat="48.45189" lon="3.67114">
        <ele>123.35</ele>
        <time>2014-09-20T13:42:15Z</time>
      </trkpt>
      <trkpt lat="48.45183" lon="3.6711">
        <ele>123.16</ele>
        <time>2014-09-20T13:42:17Z</time>
      </trkpt>
      <trkpt lat="48.45179" lon="3.67102">
        <ele>123.15</ele>
        <time>2014-09-20T13:42:19Z</time>
      </trkpt>
      <trkpt lat="48.45178" lon="3.67094">
        <ele>123.39</ele>
        <time>2014-09-20T13:42:21Z</time>
      </trkpt>
      <trkpt lat="48.4518" lon="3.67086">
        <ele>123.75</ele>
        <time>2014-09-20T13:42:23Z</time>
      </trkpt>
      <trkpt lat="48.45183" lon="3.67079">
        <ele>124.16</ele>
        <time>2014-09-20T13:42:25Z</time>
      </trkpt>
      <trkpt lat="48.45185" lon="3.67072">
        <ele>124.66</ele>
        <time>2014-09-20T13:42:27Z</time>
      </trkpt>
      <trkpt lat="48.45187" lon="3.67065">
        <ele>125.13</ele>
        <time>2014-09-20T13:42:29Z</time>
      </trkpt>
      <trkpt lat="48.4519" lon="3.67058">
        <ele>125.55</ele>
        <time>2014-09-20T13:42:31Z</time>
      </trkpt>
      <trkpt lat="48.45192" lon="3.6705">
        <ele>125.87</ele>
        <time>2014-09-20T13:42:33Z</time>
      </trkpt>
      <trkpt lat="48.45194" lon="3.67042">
        <ele>126.18</ele>
        <time>2014-09-20T13:42:35Z</time>
      </trkpt>
      <trkpt lat="48.45196" lon="3.67035">
        <ele>126.45</ele>
        <time>2014-09-20T13:42:37Z</time>
      </trkpt>
      <trkpt lat="48.45198" lon="3.67028">
        <ele>126.71</ele>
        <time>2014-09-20T13:42:39Z</time>
      </trkpt>
      <trkpt lat="48.452" lon="3.67021">
        <ele>126.96</ele>
        <time>2014-09-20T13:42:41Z</time>
      </trkpt>
      <trkpt lat="48.45202" lon="3.67014">
        <ele>127.23</ele>
        <time>2014-09-20T13:42:43Z</time>
      </trkpt>
      <trkpt lat="48.45204" lon="3.67006">
        <ele>127.47</ele>
        <time>2014-09-20T13:42:45Z</time>
      </trkpt>
      <trkpt lat="48.45206" lon="3.66999">
        <ele>127.72</ele>
        <time>2014-09-20T13:42:47Z</time>
      </trkpt>
      <trkpt lat="48.45209" lon="3.66992">
        <ele>127.94</ele>
        <time>2014-09-20T13:42:49Z</time>
      </trkpt>
      <trkpt lat="48.45211" lon="3.66985">
        <ele>128.14</ele>
        <time>2014-09-20T13:42:51Z</time>
      </trkpt>
      <trkpt lat="48.45213" lon="3.66977">
        <ele>128.29</ele>
        <time>2014-09-20T13:42:53Z</time>
      </trkpt>
      <trkpt lat="48.45214" lon="3.6697">
        <ele>128.46</ele>
        <time>2014-09-20T13:42:55Z</time>
      </trkpt>
      <trkpt lat="48.45217" lon="3.66963">
        <ele>128.72</ele>
        <time>2014-09-20T13:42:57Z</time>
      </trkpt>
      <trkpt lat="48.45219" lon="3.66957">
        <ele>128.99</ele>
        <time>2014-09-20T13:42:59Z</time>
      </trkpt>
      <trkpt lat="48.45221" lon="3.6695">
        <ele>129.32</ele>
        <time>2014-09-20T13:43:01Z</time>
      </trkpt>
      <trkpt lat="48.45223" lon="3.66943">
        <ele>129.65</ele>
        <time>2014-09-20T13:43:03Z</time>
      </trkpt>
      <trkpt lat="48.45225" lon="3.66936">
        <ele>130.02</ele>
        <time>2014-09-20T13:43:05Z</time>
      </trkpt>
      <trkpt lat="48.45227" lon="3.6693">
        <ele>130.43</ele>
        <time>2014-09-20T13:43:07Z</time>
      </trkpt>
      <trkpt lat="48.45229" lon="3.66922">
        <ele>130.76</ele>
        <time>2014-09-20T13:43:09Z</time>
      </trkpt>
      <trkpt lat="48.45231" lon="3.66915">
        <ele>131.03</ele>
        <time>2014-09-20T13:43:11Z</time>
      </trkpt>
      <trkpt lat="48.45233" lon="3.66908">
        <ele>131.25</ele>
        <time>2014-09-20T13:43:13Z</time>
      </trkpt>
      <trkpt lat="48.45235" lon="3.66901">
        <ele>131.41</ele>
        <time>2014-09-20T13:43:15Z</time>
      </trkpt>
      <trkpt lat="48.45236" lon="3.66893">
        <ele>131.55</ele>
        <time>2014-09-20T13:43:17Z</time>
      </trkpt>
      <trkpt lat="48.45238" lon="3.66885">
        <ele>131.63</ele>
        <time>2014-09-20T13:43:19Z</time>
      </trkpt>
      <trkpt lat="48.45241" lon="3.66877">
        <ele>131.72</ele>
        <time>2014-09-20T13:43:21Z</time>
      </trkpt>
      <trkpt lat="48.45242" lon="3.66869">
        <ele>131.83</ele>
        <time>2014-09-20T13:43:23Z</time>
      </trkpt>
      <trkpt lat="48.45243" lon="3.66861">
        <ele>131.92</ele>
        <time>2014-09-20T13:43:25Z</time>
      </trkpt>
      <trkpt lat="48.45245" lon="3.66852">
        <ele>131.97</ele>
        <time>2014-09-20T13:43:27Z</time>
      </trkpt>
      <trkpt lat="48.45248" lon="3.66844">
        <ele>131.99</ele>
        <time>2014-09-20T13:43:29Z</time>
      </trkpt>
      <trkpt lat="48.4525" lon="3.66836">
        <ele>132.05</ele>
        <time>2014-09-20T13:43:31Z</time>
      </trkpt>
      <trkpt lat="48.45253" lon="3.66827">
        <ele>132.09</ele>
        <time>2014-09-20T13:43:33Z</time>
      </trkpt>
      <trkpt lat="48.45255" lon="3.66818">
        <ele>132.1</ele>
        <time>2014-09-20T13:43:35Z</time>
      </trkpt>
      <trkpt lat="48.45257" lon="3.6681">
        <ele>132.09</ele>
        <time>2014-09-20T13:43:37Z</time>
      </trkpt>
      <trkpt lat="48.4526" lon="3.66801">
        <ele>132.06</ele>
        <time>2014-09-20T13:43:39Z</time>
      </trkpt>
      <trkpt lat="48.45263" lon="3.66791">
        <ele>132.05</ele>
        <time>2014-09-20T13:43:41Z</time>
      </trkpt>
      <trkpt lat="48.45265" lon="3.66782">
        <ele>132.04</ele>
        <time>2014-09-20T13:43:43Z</time>
      </trkpt>
      <trkpt lat="48.45268" lon="3.66772">
        <ele>132.03</ele>
        <time>2014-09-20T13:43:45Z</time>
      </trkpt>
      <trkpt lat="48.45271" lon="3.66762">
        <ele>132.01</ele>
        <time>2014-09-20T13:43:47Z</time>
      </trkpt>
      <trkpt lat="48.45274" lon="3.66751">
        <ele>131.97</ele>
        <time>2014-09-20T13:43:49Z</time>
      </trkpt>
      <trkpt lat="48.45277" lon="3.66741">
        <ele>131.91</ele>
        <time>2014-09-20T13:43:51Z</time>
      </trkpt>
      <trkpt lat="48.45281" lon="3.66729">
        <ele>131.8</ele>
        <time>2014-09-20T13:43:53Z</time>
      </trkpt>
      <trkpt lat="48.45284" lon="3.66718">
        <ele>131.7</ele>
        <time>2014-09-20T13:43:55Z</time>
      </trkpt>
      <trkpt lat="48.45287" lon="3.66706">
        <ele>131.56</ele>
        <time>2014-09-20T13:43:57Z</time>
      </trkpt>
      <trkpt lat="48.4529" lon="3.66694">
        <ele>131.41</ele>
        <time>2014-09-20T13:43:59Z</time>
      </trkpt>
      <trkpt lat="48.45294" lon="3.66681">
        <ele>131.29</ele>
        <time>2014-09-20T13:44:01Z</time>
      </trkpt>
      <trkpt lat="48.45297" lon="3.66669">
        <ele>131.22</ele>
        <time>2014-09-20T13:44:03Z</time>
      </trkpt>
      <trkpt lat="48.45301" lon="3.66657">
        <ele>131.15</ele>
        <time>2014-09-20T13:44:05Z</time>
      </trkpt>
      <trkpt lat="48.45304" lon="3.66645">
        <ele>131.14</ele>
        <time>2014-09-20T13:44:07Z</time>
      </trkpt>
      <trkpt lat="48.45307" lon="3.66633">
        <ele>131.16</ele>
        <time>2014-09-20T13:44:09Z</time>
      </trkpt>
      <trkpt lat="48.45311" lon="3.66622">
        <ele>131.22</ele>
        <time>2014-09-20T13:44:11Z</time>
      </trkpt>
      <trkpt lat="48.45314" lon="3.66611">
        <ele>131.26</ele>
        <time>2014-09-20T13:44:13Z</time>
      </trkpt>
      <trkpt lat="48.45317" lon="3.66601">
        <ele>131.29</ele>
        <time>2014-09-20T13:44:15Z</time>
      </trkpt>
      <trkpt lat="48.4532" lon="3.6659">
        <ele>131.38</ele>
        <time>2014-09-20T13:44:17Z</time>
      </trkpt>
      <trkpt lat="48.45323" lon="3.6658">
        <ele>131.44</ele>
        <time>2014-09-20T13:44:19Z</time>
      </trkpt>
      <trkpt lat="48.45326" lon="3.66569">
        <ele>131.52</ele>
        <time>2014-09-20T13:44:21Z</time>
      </trkpt>
      <trkpt lat="48.45329" lon="3.66558">
        <ele>131.64</ele>
        <time>2014-09-20T13:44:23Z</time>
      </trkpt>
      <trkpt lat="48.45332" lon="3.66548">
        <ele>131.75</ele>
        <time>2014-09-20T13:44:25Z</time>
      </trkpt>
      <trkpt lat="48.45335" lon="3.66537">
        <ele>131.89</ele>
        <time>2014-09-20T13:44:27Z</time>
      </trkpt>
      <trkpt lat="48.45338" lon="3.66527">
        <ele>132.07</ele>
        <time>2014-09-20T13:44:29Z</time>
      </trkpt>
      <trkpt lat="48.45341" lon="3.66516">
        <ele>132.27</ele>
        <time>2014-09-20T13:44:31Z</time>
      </trkpt>
      <trkpt lat="48.45344" lon="3.66506">
        <ele>132.5</ele>
        <time>2014-09-20T13:44:33Z</time>
      </trkpt>
      <trkpt lat="48.45346" lon="3.66497">
        <ele>132.71</ele>
        <time>2014-09-20T13:44:35Z</time>
      </trkpt>
      <trkpt lat="48.45349" lon="3.66487">
        <ele>132.92</ele>
        <time>2014-09-20T13:44:37Z</time>
      </trkpt>
      <trkpt lat="48.45352" lon="3.66477">
        <ele>133.12</ele>
        <time>2014-09-20T13:44:39Z</time>
      </trkpt>
      <trkpt lat="48.45355" lon="3.66468">
        <ele>133.35</ele>
        <time>2014-09-20T13:44:41Z</time>
      </trkpt>
      <trkpt lat="48.45357" lon="3.6646">
        <ele>133.61</ele>
        <time>2014-09-20T13:44:43Z</time>
      </trkpt>
      <trkpt lat="48.4536" lon="3.66451">
        <ele>133.82</ele>
        <time>2014-09-20T13:44:45Z</time>
      </trkpt>
      <trkpt lat="48.45362" lon="3.66442">
        <ele>134</ele>
        <time>2014-09-20T13:44:47Z</time>
      </trkpt>
      <trkpt lat="48.45365" lon="3.66432">
        <ele>134.17</ele>
        <time>2014-09-20T13:44:49Z</time>
      </trkpt>
      <trkpt lat="48.45367" lon="3.66423">
        <ele>134.35</ele>
        <time>2014-09-20T13:44:51Z</time>
      </trkpt>
      <trkpt lat="48.45368" lon="3.66414">
        <ele>134.5</ele>
        <time>2014-09-20T13:44:53Z</time>
      </trkpt>
      <trkpt lat="48.45365" lon="3.66405">
        <ele>134.57</ele>
        <time>2014-09-20T13:44:55Z</time>
      </trkpt>
      <trkpt lat="48.4536" lon="3.664">
        <ele>134.62</ele>
        <time>2014-09-20T13:44:57Z</time>
      </trkpt>
      <trkpt lat="48.45352" lon="3.66397">
        <ele>134.53</ele>
        <time>2014-09-20T13:44:59Z</time>
      </trkpt>
      <trkpt lat="48.45345" lon="3.66393">
        <ele>134.37</ele>
        <time>2014-09-20T13:45:01Z</time>
      </trkpt>
      <trkpt lat="48.45337" lon="3.66388">
        <ele>134.15</ele>
        <time>2014-09-20T13:45:03Z</time>
      </trkpt>
      <trkpt lat="48.45329" lon="3.66384">
        <ele>133.87</ele>
        <time>2014-09-20T13:45:05Z</time>
      </trkpt>
      <trkpt lat="48.45321" lon="3.66379">
        <ele>133.58</ele>
        <time>2014-09-20T13:45:07Z</time>
      </trkpt>
      <trkpt lat="48.45317" lon="3.66377">
        <ele>133.45</ele>
        <time>2014-09-20T13:45:08Z</time>
      </trkpt>
      <trkpt lat="48.45313" lon="3.66374">
        <ele>133.29</ele>
        <time>2014-09-20T13:45:09Z</time>
      </trkpt>
      <trkpt lat="48.45308" lon="3.66372">
        <ele>133.13</ele>
        <time>2014-09-20T13:45:10Z</time>
      </trkpt>
      <trkpt lat="48.45304" lon="3.66369">
        <ele>132.98</ele>
        <time>2014-09-20T13:45:11Z</time>
      </trkpt>
      <trkpt lat="48.45299" lon="3.66366">
        <ele>132.81</ele>
        <time>2014-09-20T13:45:12Z</time>
      </trkpt>
      <trkpt lat="48.45295" lon="3.66363">
        <ele>132.64</ele>
        <time>2014-09-20T13:45:13Z</time>
      </trkpt>
      <trkpt lat="48.4529" lon="3.6636">
        <ele>132.49</ele>
        <time>2014-09-20T13:45:14Z</time>
      </trkpt>
      <trkpt lat="48.45285" lon="3.66357">
        <ele>132.35</ele>
        <time>2014-09-20T13:45:15Z</time>
      </trkpt>
      <trkpt lat="48.45281" lon="3.66355">
        <ele>132.19</ele>
        <time>2014-09-20T13:45:16Z</time>
      </trkpt>
      <trkpt lat="48.45276" lon="3.66352">
        <ele>132.05</ele>
        <time>2014-09-20T13:45:17Z</time>
      </trkpt>
      <trkpt lat="48.45271" lon="3.66349">
        <ele>131.92</ele>
        <time>2014-09-20T13:45:18Z</time>
      </trkpt>
      <trkpt lat="48.45267" lon="3.66346">
        <ele>131.8</ele>
        <time>2014-09-20T13:45:19Z</time>
      </trkpt>
      <trkpt lat="48.45262" lon="3.66343">
        <ele>131.66</ele>
        <time>2014-09-20T13:45:20Z</time>
      </trkpt>
      <trkpt lat="48.45257" lon="3.66341">
        <ele>131.52</ele>
        <time>2014-09-20T13:45:21Z</time>
      </trkpt>
      <trkpt lat="48.45253" lon="3.66338">
        <ele>131.4</ele>
        <time>2014-09-20T13:45:22Z</time>
      </trkpt>
      <trkpt lat="48.45248" lon="3.66335">
        <ele>131.28</ele>
        <time>2014-09-20T13:45:23Z</time>
      </trkpt>
      <trkpt lat="48.45243" lon="3.66332">
        <ele>131.17</ele>
        <time>2014-09-20T13:45:24Z</time>
      </trkpt>
      <trkpt lat="48.45239" lon="3.66329">
        <ele>131.03</ele>
        <time>2014-09-20T13:45:25Z</time>
      </trkpt>
      <trkpt lat="48.45234" lon="3.66326">
        <ele>130.91</ele>
        <time>2014-09-20T13:45:26Z</time>
      </trkpt>
      <trkpt lat="48.4523" lon="3.66323">
        <ele>130.76</ele>
        <time>2014-09-20T13:45:27Z</time>
      </trkpt>
      <trkpt lat="48.45225" lon="3.6632">
        <ele>130.63</ele>
        <time>2014-09-20T13:45:28Z</time>
      </trkpt>
      <trkpt lat="48.4522" lon="3.66317">
        <ele>130.5</ele>
        <time>2014-09-20T13:45:29Z</time>
      </trkpt>
      <trkpt lat="48.45215" lon="3.66314">
        <ele>130.38</ele>
        <time>2014-09-20T13:45:30Z</time>
      </trkpt>
      <trkpt lat="48.45211" lon="3.66311">
        <ele>130.25</ele>
        <time>2014-09-20T13:45:31Z</time>
      </trkpt>
      <trkpt lat="48.45206" lon="3.66308">
        <ele>130.09</ele>
        <time>2014-09-20T13:45:32Z</time>
      </trkpt>
      <trkpt lat="48.45201" lon="3.66305">
        <ele>129.95</ele>
        <time>2014-09-20T13:45:33Z</time>
      </trkpt>
      <trkpt lat="48.45196" lon="3.66302">
        <ele>129.79</ele>
        <time>2014-09-20T13:45:34Z</time>
      </trkpt>
      <trkpt lat="48.45191" lon="3.66299">
        <ele>129.63</ele>
        <time>2014-09-20T13:45:35Z</time>
      </trkpt>
      <trkpt lat="48.45186" lon="3.66296">
        <ele>129.45</ele>
        <time>2014-09-20T13:45:36Z</time>
      </trkpt>
      <trkpt lat="48.45181" lon="3.66293">
        <ele>129.27</ele>
        <time>2014-09-20T13:45:37Z</time>
      </trkpt>
      <trkpt lat="48.45176" lon="3.6629">
        <ele>129.11</ele>
        <time>2014-09-20T13:45:38Z</time>
      </trkpt>
      <trkpt lat="48.45171" lon="3.66287">
        <ele>128.94</ele>
        <time>2014-09-20T13:45:39Z</time>
      </trkpt>
      <trkpt lat="48.45166" lon="3.66284">
        <ele>128.76</ele>
        <time>2014-09-20T13:45:40Z</time>
      </trkpt>
      <trkpt lat="48.45161" lon="3.66281">
        <ele>128.6</ele>
        <time>2014-09-20T13:45:41Z</time>
      </trkpt>
      <trkpt lat="48.45156" lon="3.66278">
        <ele>128.46</ele>
        <time>2014-09-20T13:45:42Z</time>
      </trkpt>
      <trkpt lat="48.45151" lon="3.66275">
        <ele>128.33</ele>
        <time>2014-09-20T13:45:43Z</time>
      </trkpt>
      <trkpt lat="48.45146" lon="3.66272">
        <ele>128.2</ele>
        <time>2014-09-20T13:45:44Z</time>
      </trkpt>
      <trkpt lat="48.45142" lon="3.66269">
        <ele>128.11</ele>
        <time>2014-09-20T13:45:45Z</time>
      </trkpt>
      <trkpt lat="48.45137" lon="3.66266">
        <ele>128.01</ele>
        <time>2014-09-20T13:45:46Z</time>
      </trkpt>
      <trkpt lat="48.45132" lon="3.66263">
        <ele>127.92</ele>
        <time>2014-09-20T13:45:47Z</time>
      </trkpt>
      <trkpt lat="48.45128" lon="3.6626">
        <ele>127.79</ele>
        <time>2014-09-20T13:45:48Z</time>
      </trkpt>
      <trkpt lat="48.45123" lon="3.66257">
        <ele>127.7</ele>
        <time>2014-09-20T13:45:49Z</time>
      </trkpt>
      <trkpt lat="48.45119" lon="3.66254">
        <ele>127.61</ele>
        <time>2014-09-20T13:45:50Z</time>
      </trkpt>
      <trkpt lat="48.45114" lon="3.66251">
        <ele>127.49</ele>
        <time>2014-09-20T13:45:51Z</time>
      </trkpt>
      <trkpt lat="48.45109" lon="3.66248">
        <ele>127.37</ele>
        <time>2014-09-20T13:45:52Z</time>
      </trkpt>
      <trkpt lat="48.45105" lon="3.66245">
        <ele>127.24</ele>
        <time>2014-09-20T13:45:53Z</time>
      </trkpt>
      <trkpt lat="48.451" lon="3.66243">
        <ele>127.11</ele>
        <time>2014-09-20T13:45:54Z</time>
      </trkpt>
      <trkpt lat="48.45095" lon="3.6624">
        <ele>126.99</ele>
        <time>2014-09-20T13:45:55Z</time>
      </trkpt>
      <trkpt lat="48.45091" lon="3.66237">
        <ele>126.87</ele>
        <time>2014-09-20T13:45:56Z</time>
      </trkpt>
      <trkpt lat="48.45086" lon="3.66234">
        <ele>126.74</ele>
        <time>2014-09-20T13:45:57Z</time>
      </trkpt>
      <trkpt lat="48.45082" lon="3.66231">
        <ele>126.59</ele>
        <time>2014-09-20T13:45:58Z</time>
      </trkpt>
      <trkpt lat="48.45077" lon="3.66228">
        <ele>126.42</ele>
        <time>2014-09-20T13:45:59Z</time>
      </trkpt>
      <trkpt lat="48.45072" lon="3.66225">
        <ele>126.25</ele>
        <time>2014-09-20T13:46:00Z</time>
      </trkpt>
      <trkpt lat="48.45067" lon="3.66222">
        <ele>126.07</ele>
        <time>2014-09-20T13:46:01Z</time>
      </trkpt>
      <trkpt lat="48.45062" lon="3.66219">
        <ele>125.88</ele>
        <time>2014-09-20T13:46:02Z</time>
      </trkpt>
      <trkpt lat="48.45057" lon="3.66216">
        <ele>125.72</ele>
        <time>2014-09-20T13:46:03Z</time>
      </trkpt>
      <trkpt lat="48.45052" lon="3.66212">
        <ele>125.57</ele>
        <time>2014-09-20T13:46:04Z</time>
      </trkpt>
      <trkpt lat="48.45047" lon="3.66209">
        <ele>125.44</ele>
        <time>2014-09-20T13:46:05Z</time>
      </trkpt>
      <trkpt lat="48.45042" lon="3.66206">
        <ele>125.31</ele>
        <time>2014-09-20T13:46:06Z</time>
      </trkpt>
      <trkpt lat="48.45036" lon="3.66204">
        <ele>125.16</ele>
        <time>2014-09-20T13:46:07Z</time>
      </trkpt>
      <trkpt lat="48.45031" lon="3.66201">
        <ele>125.03</ele>
        <time>2014-09-20T13:46:08Z</time>
      </trkpt>
      <trkpt lat="48.45026" lon="3.66198">
        <ele>124.88</ele>
        <time>2014-09-20T13:46:09Z</time>
      </trkpt>
      <trkpt lat="48.4502" lon="3.66195">
        <ele>124.72</ele>
        <time>2014-09-20T13:46:10Z</time>
      </trkpt>
      <trkpt lat="48.45015" lon="3.66191">
        <ele>124.54</ele>
        <time>2014-09-20T13:46:11Z</time>
      </trkpt>
      <trkpt lat="48.4501" lon="3.66188">
        <ele>124.39</ele>
        <time>2014-09-20T13:46:12Z</time>
      </trkpt>
      <trkpt lat="48.45005" lon="3.66185">
        <ele>124.22</ele>
        <time>2014-09-20T13:46:13Z</time>
      </trkpt>
      <trkpt lat="48.44999" lon="3.66181">
        <ele>124.05</ele>
        <time>2014-09-20T13:46:14Z</time>
      </trkpt>
      <trkpt lat="48.44994" lon="3.66178">
        <ele>123.87</ele>
        <time>2014-09-20T13:46:15Z</time>
      </trkpt>
      <trkpt lat="48.44989" lon="3.66175">
        <ele>123.71</ele>
        <time>2014-09-20T13:46:16Z</time>
      </trkpt>
      <trkpt lat="48.44984" lon="3.66172">
        <ele>123.54</ele>
        <time>2014-09-20T13:46:17Z</time>
      </trkpt>
      <trkpt lat="48.44978" lon="3.66168">
        <ele>123.39</ele>
        <time>2014-09-20T13:46:18Z</time>
      </trkpt>
      <trkpt lat="48.44973" lon="3.66165">
        <ele>123.25</ele>
        <time>2014-09-20T13:46:19Z</time>
      </trkpt>
      <trkpt lat="48.44968" lon="3.66162">
        <ele>123.09</ele>
        <time>2014-09-20T13:46:20Z</time>
      </trkpt>
      <trkpt lat="48.44962" lon="3.66159">
        <ele>122.93</ele>
        <time>2014-09-20T13:46:21Z</time>
      </trkpt>
      <trkpt lat="48.44957" lon="3.66155">
        <ele>122.75</ele>
        <time>2014-09-20T13:46:22Z</time>
      </trkpt>
      <trkpt lat="48.44952" lon="3.66152">
        <ele>122.57</ele>
        <time>2014-09-20T13:46:23Z</time>
      </trkpt>
      <trkpt lat="48.44947" lon="3.66149">
        <ele>122.41</ele>
        <time>2014-09-20T13:46:24Z</time>
      </trkpt>
      <trkpt lat="48.44942" lon="3.66145">
        <ele>122.24</ele>
        <time>2014-09-20T13:46:25Z</time>
      </trkpt>
      <trkpt lat="48.44936" lon="3.66142">
        <ele>122.04</ele>
        <time>2014-09-20T13:46:26Z</time>
      </trkpt>
      <trkpt lat="48.44931" lon="3.66139">
        <ele>121.86</ele>
        <time>2014-09-20T13:46:27Z</time>
      </trkpt>
      <trkpt lat="48.44926" lon="3.66135">
        <ele>121.65</ele>
        <time>2014-09-20T13:46:28Z</time>
      </trkpt>
      <trkpt lat="48.44921" lon="3.66132">
        <ele>121.47</ele>
        <time>2014-09-20T13:46:29Z</time>
      </trkpt>
      <trkpt lat="48.44916" lon="3.66129">
        <ele>121.29</ele>
        <time>2014-09-20T13:46:30Z</time>
      </trkpt>
      <trkpt lat="48.44911" lon="3.66125">
        <ele>121.1</ele>
        <time>2014-09-20T13:46:31Z</time>
      </trkpt>
      <trkpt lat="48.44905" lon="3.66122">
        <ele>120.9</ele>
        <time>2014-09-20T13:46:32Z</time>
      </trkpt>
      <trkpt lat="48.449" lon="3.66119">
        <ele>120.73</ele>
        <time>2014-09-20T13:46:33Z</time>
      </trkpt>
      <trkpt lat="48.44895" lon="3.66115">
        <ele>120.56</ele>
        <time>2014-09-20T13:46:34Z</time>
      </trkpt>
      <trkpt lat="48.44891" lon="3.66111">
        <ele>120.4</ele>
        <time>2014-09-20T13:46:35Z</time>
      </trkpt>
      <trkpt lat="48.44886" lon="3.66107">
        <ele>120.23</ele>
        <time>2014-09-20T13:46:36Z</time>
      </trkpt>
      <trkpt lat="48.44881" lon="3.66104">
        <ele>120.08</ele>
        <time>2014-09-20T13:46:37Z</time>
      </trkpt>
      <trkpt lat="48.44876" lon="3.66101">
        <ele>119.92</ele>
        <time>2014-09-20T13:46:38Z</time>
      </trkpt>
      <trkpt lat="48.44871" lon="3.66098">
        <ele>119.75</ele>
        <time>2014-09-20T13:46:39Z</time>
      </trkpt>
      <trkpt lat="48.44866" lon="3.66095">
        <ele>119.59</ele>
        <time>2014-09-20T13:46:40Z</time>
      </trkpt>
      <trkpt lat="48.44861" lon="3.66092">
        <ele>119.45</ele>
        <time>2014-09-20T13:46:41Z</time>
      </trkpt>
      <trkpt lat="48.44856" lon="3.66088">
        <ele>119.32</ele>
        <time>2014-09-20T13:46:42Z</time>
      </trkpt>
      <trkpt lat="48.44851" lon="3.66085">
        <ele>119.22</ele>
        <time>2014-09-20T13:46:43Z</time>
      </trkpt>
      <trkpt lat="48.44845" lon="3.66082">
        <ele>119.12</ele>
        <time>2014-09-20T13:46:44Z</time>
      </trkpt>
      <trkpt lat="48.4484" lon="3.66079">
        <ele>119.02</ele>
        <time>2014-09-20T13:46:45Z</time>
      </trkpt>
      <trkpt lat="48.44835" lon="3.66076">
        <ele>118.93</ele>
        <time>2014-09-20T13:46:46Z</time>
      </trkpt>
      <trkpt lat="48.4483" lon="3.66073">
        <ele>118.83</ele>
        <time>2014-09-20T13:46:47Z</time>
      </trkpt>
      <trkpt lat="48.44825" lon="3.6607">
        <ele>118.73</ele>
        <time>2014-09-20T13:46:48Z</time>
      </trkpt>
      <trkpt lat="48.4482" lon="3.66067">
        <ele>118.63</ele>
        <time>2014-09-20T13:46:49Z</time>
      </trkpt>
      <trkpt lat="48.44816" lon="3.66064">
        <ele>118.53</ele>
        <time>2014-09-20T13:46:50Z</time>
      </trkpt>
      <trkpt lat="48.44811" lon="3.66061">
        <ele>118.4</ele>
        <time>2014-09-20T13:46:51Z</time>
      </trkpt>
      <trkpt lat="48.44806" lon="3.66057">
        <ele>118.26</ele>
        <time>2014-09-20T13:46:52Z</time>
      </trkpt>
      <trkpt lat="48.44801" lon="3.66054">
        <ele>118.1</ele>
        <time>2014-09-20T13:46:53Z</time>
      </trkpt>
      <trkpt lat="48.44797" lon="3.66051">
        <ele>117.98</ele>
        <time>2014-09-20T13:46:54Z</time>
      </trkpt>
      <trkpt lat="48.44792" lon="3.66048">
        <ele>117.84</ele>
        <time>2014-09-20T13:46:55Z</time>
      </trkpt>
      <trkpt lat="48.44787" lon="3.66045">
        <ele>117.72</ele>
        <time>2014-09-20T13:46:56Z</time>
      </trkpt>
      <trkpt lat="48.44782" lon="3.66042">
        <ele>117.59</ele>
        <time>2014-09-20T13:46:57Z</time>
      </trkpt>
      <trkpt lat="48.44778" lon="3.66039">
        <ele>117.48</ele>
        <time>2014-09-20T13:46:58Z</time>
      </trkpt>
      <trkpt lat="48.44773" lon="3.66036">
        <ele>117.39</ele>
        <time>2014-09-20T13:46:59Z</time>
      </trkpt>
      <trkpt lat="48.44768" lon="3.66033">
        <ele>117.3</ele>
        <time>2014-09-20T13:47:00Z</time>
      </trkpt>
      <trkpt lat="48.44764" lon="3.6603">
        <ele>117.21</ele>
        <time>2014-09-20T13:47:01Z</time>
      </trkpt>
      <trkpt lat="48.44759" lon="3.66027">
        <ele>117.11</ele>
        <time>2014-09-20T13:47:02Z</time>
      </trkpt>
      <trkpt lat="48.44755" lon="3.66026">
        <ele>117.04</ele>
        <time>2014-09-20T13:47:03Z</time>
      </trkpt>
      <trkpt lat="48.4475" lon="3.66025">
        <ele>116.96</ele>
        <time>2014-09-20T13:47:04Z</time>
      </trkpt>
      <trkpt lat="48.44745" lon="3.66024">
        <ele>116.9</ele>
        <time>2014-09-20T13:47:05Z</time>
      </trkpt>
      <trkpt lat="48.4474" lon="3.66024">
        <ele>116.86</ele>
        <time>2014-09-20T13:47:06Z</time>
      </trkpt>
      <trkpt lat="48.44735" lon="3.66025">
        <ele>116.83</ele>
        <time>2014-09-20T13:47:07Z</time>
      </trkpt>
      <trkpt lat="48.44731" lon="3.66028">
        <ele>116.83</ele>
        <time>2014-09-20T13:47:08Z</time>
      </trkpt>
      <trkpt lat="48.44724" lon="3.66034">
        <ele>116.9</ele>
        <time>2014-09-20T13:47:10Z</time>
      </trkpt>
      <trkpt lat="48.4472" lon="3.66043">
        <ele>117.16</ele>
        <time>2014-09-20T13:47:12Z</time>
      </trkpt>
      <trkpt lat="48.44716" lon="3.66054">
        <ele>117.48</ele>
        <time>2014-09-20T13:47:14Z</time>
      </trkpt>
      <trkpt lat="48.44713" lon="3.66065">
        <ele>117.7</ele>
        <time>2014-09-20T13:47:16Z</time>
      </trkpt>
      <trkpt lat="48.44711" lon="3.66075">
        <ele>117.94</ele>
        <time>2014-09-20T13:47:18Z</time>
      </trkpt>
      <trkpt lat="48.44706" lon="3.66084">
        <ele>118.18</ele>
        <time>2014-09-20T13:47:20Z</time>
      </trkpt>
      <trkpt lat="48.44699" lon="3.66084">
        <ele>118.49</ele>
        <time>2014-09-20T13:47:22Z</time>
      </trkpt>
      <trkpt lat="48.44694" lon="3.66079">
        <ele>118.89</ele>
        <time>2014-09-20T13:47:24Z</time>
      </trkpt>
      <trkpt lat="48.44688" lon="3.66074">
        <ele>119.37</ele>
        <time>2014-09-20T13:47:26Z</time>
      </trkpt>
      <trkpt lat="48.44683" lon="3.66069">
        <ele>119.84</ele>
        <time>2014-09-20T13:47:28Z</time>
      </trkpt>
      <trkpt lat="48.44678" lon="3.66065">
        <ele>120.28</ele>
        <time>2014-09-20T13:47:30Z</time>
      </trkpt>
      <trkpt lat="48.44672" lon="3.66061">
        <ele>120.66</ele>
        <time>2014-09-20T13:47:32Z</time>
      </trkpt>
      <trkpt lat="48.44667" lon="3.66057">
        <ele>120.96</ele>
        <time>2014-09-20T13:47:34Z</time>
      </trkpt>
      <trkpt lat="48.44661" lon="3.66053">
        <ele>121.3</ele>
        <time>2014-09-20T13:47:36Z</time>
      </trkpt>
      <trkpt lat="48.44655" lon="3.6605">
        <ele>121.56</ele>
        <time>2014-09-20T13:47:38Z</time>
      </trkpt>
      <trkpt lat="48.44649" lon="3.66046">
        <ele>121.79</ele>
        <time>2014-09-20T13:47:40Z</time>
      </trkpt>
      <trkpt lat="48.44643" lon="3.66042">
        <ele>121.99</ele>
        <time>2014-09-20T13:47:42Z</time>
      </trkpt>
      <trkpt lat="48.44637" lon="3.66038">
        <ele>122.2</ele>
        <time>2014-09-20T13:47:44Z</time>
      </trkpt>
      <trkpt lat="48.44631" lon="3.66034">
        <ele>122.35</ele>
        <time>2014-09-20T13:47:46Z</time>
      </trkpt>
      <trkpt lat="48.44624" lon="3.6603">
        <ele>122.49</ele>
        <time>2014-09-20T13:47:48Z</time>
      </trkpt>
      <trkpt lat="48.44618" lon="3.66026">
        <ele>122.57</ele>
        <time>2014-09-20T13:47:50Z</time>
      </trkpt>
      <trkpt lat="48.44612" lon="3.66022">
        <ele>122.57</ele>
        <time>2014-09-20T13:47:52Z</time>
      </trkpt>
      <trkpt lat="48.44606" lon="3.66018">
        <ele>122.55</ele>
        <time>2014-09-20T13:47:54Z</time>
      </trkpt>
      <trkpt lat="48.446" lon="3.66014">
        <ele>122.5</ele>
        <time>2014-09-20T13:47:56Z</time>
      </trkpt>
      <trkpt lat="48.44594" lon="3.6601">
        <ele>122.42</ele>
        <time>2014-09-20T13:47:58Z</time>
      </trkpt>
      <trkpt lat="48.44588" lon="3.66006">
        <ele>122.36</ele>
        <time>2014-09-20T13:48:00Z</time>
      </trkpt>
      <trkpt lat="48.44583" lon="3.66002">
        <ele>122.28</ele>
        <time>2014-09-20T13:48:02Z</time>
      </trkpt>
      <trkpt lat="48.44577" lon="3.65999">
        <ele>122.28</ele>
        <time>2014-09-20T13:48:04Z</time>
      </trkpt>
      <trkpt lat="48.44572" lon="3.65995">
        <ele>122.35</ele>
        <time>2014-09-20T13:48:06Z</time>
      </trkpt>
      <trkpt lat="48.44566" lon="3.65991">
        <ele>122.41</ele>
        <time>2014-09-20T13:48:08Z</time>
      </trkpt>
      <trkpt lat="48.44561" lon="3.65988">
        <ele>122.46</ele>
        <time>2014-09-20T13:48:10Z</time>
      </trkpt>
      <trkpt lat="48.44556" lon="3.65984">
        <ele>122.56</ele>
        <time>2014-09-20T13:48:12Z</time>
      </trkpt>
      <trkpt lat="48.4455" lon="3.65981">
        <ele>122.63</ele>
        <time>2014-09-20T13:48:14Z</time>
      </trkpt>
      <trkpt lat="48.44545" lon="3.65977">
        <ele>122.61</ele>
        <time>2014-09-20T13:48:16Z</time>
      </trkpt>
      <trkpt lat="48.4454" lon="3.65974">
        <ele>122.55</ele>
        <time>2014-09-20T13:48:18Z</time>
      </trkpt>
      <trkpt lat="48.44535" lon="3.6597">
        <ele>122.49</ele>
        <time>2014-09-20T13:48:20Z</time>
      </trkpt>
      <trkpt lat="48.44529" lon="3.65967">
        <ele>122.45</ele>
        <time>2014-09-20T13:48:22Z</time>
      </trkpt>
      <trkpt lat="48.44524" lon="3.65964">
        <ele>122.54</ele>
        <time>2014-09-20T13:48:24Z</time>
      </trkpt>
      <trkpt lat="48.44518" lon="3.6596">
        <ele>122.64</ele>
        <time>2014-09-20T13:48:26Z</time>
      </trkpt>
      <trkpt lat="48.44512" lon="3.65956">
        <ele>122.61</ele>
        <time>2014-09-20T13:48:28Z</time>
      </trkpt>
      <trkpt lat="48.44505" lon="3.65952">
        <ele>122.62</ele>
        <time>2014-09-20T13:48:30Z</time>
      </trkpt>
      <trkpt lat="48.44498" lon="3.65948">
        <ele>122.76</ele>
        <time>2014-09-20T13:48:32Z</time>
      </trkpt>
      <trkpt lat="48.4449" lon="3.65944">
        <ele>122.95</ele>
        <time>2014-09-20T13:48:34Z</time>
      </trkpt>
      <trkpt lat="48.44486" lon="3.65941">
        <ele>123.02</ele>
        <time>2014-09-20T13:48:35Z</time>
      </trkpt>
      <trkpt lat="48.44481" lon="3.65939">
        <ele>123.07</ele>
        <time>2014-09-20T13:48:36Z</time>
      </trkpt>
      <trkpt lat="48.44477" lon="3.65936">
        <ele>123.11</ele>
        <time>2014-09-20T13:48:37Z</time>
      </trkpt>
      <trkpt lat="48.44472" lon="3.65934">
        <ele>123.16</ele>
        <time>2014-09-20T13:48:38Z</time>
      </trkpt>
      <trkpt lat="48.44467" lon="3.65931">
        <ele>123.2</ele>
        <time>2014-09-20T13:48:39Z</time>
      </trkpt>
      <trkpt lat="48.44462" lon="3.65928">
        <ele>123.21</ele>
        <time>2014-09-20T13:48:40Z</time>
      </trkpt>
      <trkpt lat="48.44457" lon="3.65925">
        <ele>123.16</ele>
        <time>2014-09-20T13:48:41Z</time>
      </trkpt>
      <trkpt lat="48.44452" lon="3.65921">
        <ele>122.98</ele>
        <time>2014-09-20T13:48:42Z</time>
      </trkpt>
      <trkpt lat="48.44447" lon="3.65917">
        <ele>122.72</ele>
        <time>2014-09-20T13:48:43Z</time>
      </trkpt>
      <trkpt lat="48.44441" lon="3.65914">
        <ele>122.4</ele>
        <time>2014-09-20T13:48:44Z</time>
      </trkpt>
      <trkpt lat="48.44435" lon="3.6591">
        <ele>122.1</ele>
        <time>2014-09-20T13:48:45Z</time>
      </trkpt>
      <trkpt lat="48.44429" lon="3.65906">
        <ele>121.81</ele>
        <time>2014-09-20T13:48:46Z</time>
      </trkpt>
      <trkpt lat="48.44423" lon="3.65902">
        <ele>121.56</ele>
        <time>2014-09-20T13:48:47Z</time>
      </trkpt>
      <trkpt lat="48.44416" lon="3.65898">
        <ele>121.28</ele>
        <time>2014-09-20T13:48:48Z</time>
      </trkpt>
      <trkpt lat="48.44409" lon="3.65894">
        <ele>120.99</ele>
        <time>2014-09-20T13:48:49Z</time>
      </trkpt>
      <trkpt lat="48.44402" lon="3.65889">
        <ele>120.65</ele>
        <time>2014-09-20T13:48:50Z</time>
      </trkpt>
      <trkpt lat="48.44394" lon="3.65885">
        <ele>120.27</ele>
        <time>2014-09-20T13:48:51Z</time>
      </trkpt>
      <trkpt lat="48.44386" lon="3.6588">
        <ele>119.83</ele>
        <time>2014-09-20T13:48:52Z</time>
      </trkpt>
      <trkpt lat="48.44378" lon="3.65875">
        <ele>119.36</ele>
        <time>2014-09-20T13:48:53Z</time>
      </trkpt>
      <trkpt lat="48.44369" lon="3.6587">
        <ele>118.88</ele>
        <time>2014-09-20T13:48:54Z</time>
      </trkpt>
      <trkpt lat="48.44361" lon="3.65865">
        <ele>118.31</ele>
        <time>2014-09-20T13:48:55Z</time>
      </trkpt>
      <trkpt lat="48.44352" lon="3.65859">
        <ele>117.64</ele>
        <time>2014-09-20T13:48:56Z</time>
      </trkpt>
      <trkpt lat="48.44343" lon="3.65853">
        <ele>116.91</ele>
        <time>2014-09-20T13:48:57Z</time>
      </trkpt>
      <trkpt lat="48.44333" lon="3.65847">
        <ele>115.97</ele>
        <time>2014-09-20T13:48:58Z</time>
      </trkpt>
      <trkpt lat="48.44324" lon="3.65841">
        <ele>115.01</ele>
        <time>2014-09-20T13:48:59Z</time>
      </trkpt>
      <trkpt lat="48.44315" lon="3.65836">
        <ele>114.09</ele>
        <time>2014-09-20T13:49:00Z</time>
      </trkpt>
      <trkpt lat="48.44307" lon="3.6583">
        <ele>113.22</ele>
        <time>2014-09-20T13:49:01Z</time>
      </trkpt>
      <trkpt lat="48.443" lon="3.65826">
        <ele>112.45</ele>
        <time>2014-09-20T13:49:02Z</time>
      </trkpt>
      <trkpt lat="48.44294" lon="3.65826">
        <ele>111.62</ele>
        <time>2014-09-20T13:49:03Z</time>
      </trkpt>
      <trkpt lat="48.44289" lon="3.65832">
        <ele>110.72</ele>
        <time>2014-09-20T13:49:04Z</time>
      </trkpt>
      <trkpt lat="48.44287" lon="3.6584">
        <ele>109.9</ele>
        <time>2014-09-20T13:49:05Z</time>
      </trkpt>
      <trkpt lat="48.44287" lon="3.65851">
        <ele>109.21</ele>
        <time>2014-09-20T13:49:06Z</time>
      </trkpt>
      <trkpt lat="48.44286" lon="3.65861">
        <ele>108.69</ele>
        <time>2014-09-20T13:49:07Z</time>
      </trkpt>
      <trkpt lat="48.44284" lon="3.6587">
        <ele>108.2</ele>
        <time>2014-09-20T13:49:08Z</time>
      </trkpt>
      <trkpt lat="48.44283" lon="3.6588">
        <ele>107.73</ele>
        <time>2014-09-20T13:49:09Z</time>
      </trkpt>
      <trkpt lat="48.44282" lon="3.65889">
        <ele>107.33</ele>
        <time>2014-09-20T13:49:10Z</time>
      </trkpt>
      <trkpt lat="48.44281" lon="3.65899">
        <ele>106.98</ele>
        <time>2014-09-20T13:49:11Z</time>
      </trkpt>
      <trkpt lat="48.4428" lon="3.65908">
        <ele>106.69</ele>
        <time>2014-09-20T13:49:12Z</time>
      </trkpt>
      <trkpt lat="48.44279" lon="3.65917">
        <ele>106.45</ele>
        <time>2014-09-20T13:49:13Z</time>
      </trkpt>
      <trkpt lat="48.44278" lon="3.65926">
        <ele>106.22</ele>
        <time>2014-09-20T13:49:14Z</time>
      </trkpt>
      <trkpt lat="48.44277" lon="3.65935">
        <ele>106</ele>
        <time>2014-09-20T13:49:15Z</time>
      </trkpt>
      <trkpt lat="48.44276" lon="3.65944">
        <ele>105.8</ele>
        <time>2014-09-20T13:49:16Z</time>
      </trkpt>
      <trkpt lat="48.44275" lon="3.65953">
        <ele>105.59</ele>
        <time>2014-09-20T13:49:17Z</time>
      </trkpt>
      <trkpt lat="48.44274" lon="3.65962">
        <ele>105.35</ele>
        <time>2014-09-20T13:49:18Z</time>
      </trkpt>
      <trkpt lat="48.44272" lon="3.65971">
        <ele>105.12</ele>
        <time>2014-09-20T13:49:19Z</time>
      </trkpt>
      <trkpt lat="48.44272" lon="3.6598">
        <ele>104.94</ele>
        <time>2014-09-20T13:49:20Z</time>
      </trkpt>
      <trkpt lat="48.44272" lon="3.65988">
        <ele>104.82</ele>
        <time>2014-09-20T13:49:21Z</time>
      </trkpt>
      <trkpt lat="48.44271" lon="3.65997">
        <ele>104.64</ele>
        <time>2014-09-20T13:49:22Z</time>
      </trkpt>
      <trkpt lat="48.44269" lon="3.66004">
        <ele>104.46</ele>
        <time>2014-09-20T13:49:23Z</time>
      </trkpt>
      <trkpt lat="48.44266" lon="3.6601">
        <ele>104.26</ele>
        <time>2014-09-20T13:49:24Z</time>
      </trkpt>
      <trkpt lat="48.44261" lon="3.66013">
        <ele>104.05</ele>
        <time>2014-09-20T13:49:25Z</time>
      </trkpt>
      <trkpt lat="48.44256" lon="3.66012">
        <ele>103.82</ele>
        <time>2014-09-20T13:49:26Z</time>
      </trkpt>
      <trkpt lat="48.44252" lon="3.66005">
        <ele>103.55</ele>
        <time>2014-09-20T13:49:27Z</time>
      </trkpt>
      <trkpt lat="48.44251" lon="3.65997">
        <ele>103.29</ele>
        <time>2014-09-20T13:49:28Z</time>
      </trkpt>
      <trkpt lat="48.44251" lon="3.65989">
        <ele>103.08</ele>
        <time>2014-09-20T13:49:29Z</time>
      </trkpt>
      <trkpt lat="48.44252" lon="3.65981">
        <ele>102.89</ele>
        <time>2014-09-20T13:49:30Z</time>
      </trkpt>
      <trkpt lat="48.44253" lon="3.65973">
        <ele>102.72</ele>
        <time>2014-09-20T13:49:31Z</time>
      </trkpt>
      <trkpt lat="48.44254" lon="3.65965">
        <ele>102.55</ele>
        <time>2014-09-20T13:49:32Z</time>
      </trkpt>
      <trkpt lat="48.44254" lon="3.65956">
        <ele>102.39</ele>
        <time>2014-09-20T13:49:33Z</time>
      </trkpt>
      <trkpt lat="48.44255" lon="3.65947">
        <ele>102.25</ele>
        <time>2014-09-20T13:49:34Z</time>
      </trkpt>
      <trkpt lat="48.44255" lon="3.65938">
        <ele>102.05</ele>
        <time>2014-09-20T13:49:35Z</time>
      </trkpt>
      <trkpt lat="48.44256" lon="3.65929">
        <ele>101.79</ele>
        <time>2014-09-20T13:49:36Z</time>
      </trkpt>
      <trkpt lat="48.44254" lon="3.6592">
        <ele>101.5</ele>
        <time>2014-09-20T13:49:37Z</time>
      </trkpt>
      <trkpt lat="48.44249" lon="3.65912">
        <ele>101.11</ele>
        <time>2014-09-20T13:49:38Z</time>
      </trkpt>
      <trkpt lat="48.44243" lon="3.65905">
        <ele>100.61</ele>
        <time>2014-09-20T13:49:39Z</time>
      </trkpt>
      <trkpt lat="48.44236" lon="3.65901">
        <ele>100.12</ele>
        <time>2014-09-20T13:49:40Z</time>
      </trkpt>
      <trkpt lat="48.44227" lon="3.65897">
        <ele>99.47</ele>
        <time>2014-09-20T13:49:41Z</time>
      </trkpt>
      <trkpt lat="48.44219" lon="3.65893">
        <ele>98.76</ele>
        <time>2014-09-20T13:49:42Z</time>
      </trkpt>
      <trkpt lat="48.44209" lon="3.6589">
        <ele>98.03</ele>
        <time>2014-09-20T13:49:43Z</time>
      </trkpt>
      <trkpt lat="48.442" lon="3.65887">
        <ele>97.3</ele>
        <time>2014-09-20T13:49:44Z</time>
      </trkpt>
      <trkpt lat="48.44191" lon="3.65883">
        <ele>96.66</ele>
        <time>2014-09-20T13:49:45Z</time>
      </trkpt>
      <trkpt lat="48.44182" lon="3.6588">
        <ele>96.05</ele>
        <time>2014-09-20T13:49:46Z</time>
      </trkpt>
      <trkpt lat="48.44173" lon="3.65876">
        <ele>95.52</ele>
        <time>2014-09-20T13:49:47Z</time>
      </trkpt>
      <trkpt lat="48.44164" lon="3.65872">
        <ele>95.07</ele>
        <time>2014-09-20T13:49:48Z</time>
      </trkpt>
      <trkpt lat="48.44156" lon="3.65868">
        <ele>94.71</ele>
        <time>2014-09-20T13:49:49Z</time>
      </trkpt>
      <trkpt lat="48.44147" lon="3.65864">
        <ele>94.47</ele>
        <time>2014-09-20T13:49:50Z</time>
      </trkpt>
      <trkpt lat="48.44138" lon="3.65861">
        <ele>94.26</ele>
        <time>2014-09-20T13:49:51Z</time>
      </trkpt>
      <trkpt lat="48.4413" lon="3.65857">
        <ele>94.07</ele>
        <time>2014-09-20T13:49:52Z</time>
      </trkpt>
      <trkpt lat="48.44122" lon="3.65854">
        <ele>93.89</ele>
        <time>2014-09-20T13:49:53Z</time>
      </trkpt>
      <trkpt lat="48.44115" lon="3.65851">
        <ele>93.72</ele>
        <time>2014-09-20T13:49:54Z</time>
      </trkpt>
      <trkpt lat="48.44107" lon="3.65847">
        <ele>93.6</ele>
        <time>2014-09-20T13:49:55Z</time>
      </trkpt>
      <trkpt lat="48.441" lon="3.65845">
        <ele>93.53</ele>
        <time>2014-09-20T13:49:56Z</time>
      </trkpt>
      <trkpt lat="48.44093" lon="3.65842">
        <ele>93.48</ele>
        <time>2014-09-20T13:49:57Z</time>
      </trkpt>
      <trkpt lat="48.44086" lon="3.6584">
        <ele>93.44</ele>
        <time>2014-09-20T13:49:58Z</time>
      </trkpt>
      <trkpt lat="48.4408" lon="3.65838">
        <ele>93.44</ele>
        <time>2014-09-20T13:49:59Z</time>
      </trkpt>
      <trkpt lat="48.44074" lon="3.65836">
        <ele>93.49</ele>
        <time>2014-09-20T13:50:00Z</time>
      </trkpt>
      <trkpt lat="48.44068" lon="3.65834">
        <ele>93.55</ele>
        <time>2014-09-20T13:50:01Z</time>
      </trkpt>
      <trkpt lat="48.44063" lon="3.65832">
        <ele>93.62</ele>
        <time>2014-09-20T13:50:02Z</time>
      </trkpt>
      <trkpt lat="48.44058" lon="3.6583">
        <ele>93.72</ele>
        <time>2014-09-20T13:50:03Z</time>
      </trkpt>
      <trkpt lat="48.44053" lon="3.65828">
        <ele>93.85</ele>
        <time>2014-09-20T13:50:04Z</time>
      </trkpt>
      <trkpt lat="48.44048" lon="3.65827">
        <ele>93.99</ele>
        <time>2014-09-20T13:50:05Z</time>
      </trkpt>
      <trkpt lat="48.44044" lon="3.65825">
        <ele>94.13</ele>
        <time>2014-09-20T13:50:06Z</time>
      </trkpt>
      <trkpt lat="48.44039" lon="3.65824">
        <ele>94.25</ele>
        <time>2014-09-20T13:50:07Z</time>
      </trkpt>
      <trkpt lat="48.44034" lon="3.65822">
        <ele>94.35</ele>
        <time>2014-09-20T13:50:08Z</time>
      </trkpt>
      <trkpt lat="48.4403" lon="3.65821">
        <ele>94.44</ele>
        <time>2014-09-20T13:50:09Z</time>
      </trkpt>
      <trkpt lat="48.44025" lon="3.65819">
        <ele>94.56</ele>
        <time>2014-09-20T13:50:10Z</time>
      </trkpt>
      <trkpt lat="48.4402" lon="3.65818">
        <ele>94.68</ele>
        <time>2014-09-20T13:50:11Z</time>
      </trkpt>
      <trkpt lat="48.44015" lon="3.65816">
        <ele>94.79</ele>
        <time>2014-09-20T13:50:12Z</time>
      </trkpt>
      <trkpt lat="48.44011" lon="3.65815">
        <ele>94.88</ele>
        <time>2014-09-20T13:50:13Z</time>
      </trkpt>
      <trkpt lat="48.44006" lon="3.65813">
        <ele>94.94</ele>
        <time>2014-09-20T13:50:14Z</time>
      </trkpt>
      <trkpt lat="48.43998" lon="3.6581">
        <ele>95.09</ele>
        <time>2014-09-20T13:50:16Z</time>
      </trkpt>
      <trkpt lat="48.43989" lon="3.65807">
        <ele>95.19</ele>
        <time>2014-09-20T13:50:18Z</time>
      </trkpt>
      <trkpt lat="48.4398" lon="3.65804">
        <ele>95.3</ele>
        <time>2014-09-20T13:50:20Z</time>
      </trkpt>
      <trkpt lat="48.43972" lon="3.65801">
        <ele>95.4</ele>
        <time>2014-09-20T13:50:22Z</time>
      </trkpt>
      <trkpt lat="48.43964" lon="3.65801">
        <ele>95.66</ele>
        <time>2014-09-20T13:50:24Z</time>
      </trkpt>
      <trkpt lat="48.43959" lon="3.65804">
        <ele>96.12</ele>
        <time>2014-09-20T13:50:26Z</time>
      </trkpt>
      <trkpt lat="48.43955" lon="3.65812">
        <ele>96.47</ele>
        <time>2014-09-20T13:50:28Z</time>
      </trkpt>
      <trkpt lat="48.43952" lon="3.65822">
        <ele>96.67</ele>
        <time>2014-09-20T13:50:30Z</time>
      </trkpt>
      <trkpt lat="48.4395" lon="3.65832">
        <ele>96.81</ele>
        <time>2014-09-20T13:50:32Z</time>
      </trkpt>
      <trkpt lat="48.43947" lon="3.65843">
        <ele>96.9</ele>
        <time>2014-09-20T13:50:34Z</time>
      </trkpt>
      <trkpt lat="48.43944" lon="3.65854">
        <ele>96.96</ele>
        <time>2014-09-20T13:50:36Z</time>
      </trkpt>
      <trkpt lat="48.43937" lon="3.6586">
        <ele>97.06</ele>
        <time>2014-09-20T13:50:38Z</time>
      </trkpt>
      <trkpt lat="48.4393" lon="3.65858">
        <ele>97.18</ele>
        <time>2014-09-20T13:50:40Z</time>
      </trkpt>
      <trkpt lat="48.43924" lon="3.65854">
        <ele>97.27</ele>
        <time>2014-09-20T13:50:42Z</time>
      </trkpt>
      <trkpt lat="48.43917" lon="3.65851">
        <ele>97.34</ele>
        <time>2014-09-20T13:50:44Z</time>
      </trkpt>
      <trkpt lat="48.4391" lon="3.65848">
        <ele>97.38</ele>
        <time>2014-09-20T13:50:46Z</time>
      </trkpt>
      <trkpt lat="48.43904" lon="3.65845">
        <ele>97.36</ele>
        <time>2014-09-20T13:50:48Z</time>
      </trkpt>
      <trkpt lat="48.43897" lon="3.65842">
        <ele>97.32</ele>
        <time>2014-09-20T13:50:50Z</time>
      </trkpt>
      <trkpt lat="48.43891" lon="3.65838">
        <ele>97.3</ele>
        <time>2014-09-20T13:50:52Z</time>
      </trkpt>
      <trkpt lat="48.43884" lon="3.65834">
        <ele>97.3</ele>
        <time>2014-09-20T13:50:54Z</time>
      </trkpt>
      <trkpt lat="48.43878" lon="3.65831">
        <ele>97.38</ele>
        <time>2014-09-20T13:50:56Z</time>
      </trkpt>
      <trkpt lat="48.43871" lon="3.65828">
        <ele>97.47</ele>
        <time>2014-09-20T13:50:58Z</time>
      </trkpt>
      <trkpt lat="48.43865" lon="3.65826">
        <ele>97.61</ele>
        <time>2014-09-20T13:51:00Z</time>
      </trkpt>
      <trkpt lat="48.43858" lon="3.65822">
        <ele>97.77</ele>
        <time>2014-09-20T13:51:02Z</time>
      </trkpt>
      <trkpt lat="48.43852" lon="3.65819">
        <ele>97.95</ele>
        <time>2014-09-20T13:51:04Z</time>
      </trkpt>
      <trkpt lat="48.43846" lon="3.65814">
        <ele>98.12</ele>
        <time>2014-09-20T13:51:06Z</time>
      </trkpt>
      <trkpt lat="48.43841" lon="3.6581">
        <ele>98.32</ele>
        <time>2014-09-20T13:51:08Z</time>
      </trkpt>
      <trkpt lat="48.43834" lon="3.65808">
        <ele>98.52</ele>
        <time>2014-09-20T13:51:10Z</time>
      </trkpt>
      <trkpt lat="48.43828" lon="3.65805">
        <ele>98.73</ele>
        <time>2014-09-20T13:51:12Z</time>
      </trkpt>
      <trkpt lat="48.43822" lon="3.65802">
        <ele>98.86</ele>
        <time>2014-09-20T13:51:14Z</time>
      </trkpt>
      <trkpt lat="48.43816" lon="3.65799">
        <ele>98.96</ele>
        <time>2014-09-20T13:51:16Z</time>
      </trkpt>
      <trkpt lat="48.4381" lon="3.65796">
        <ele>99.06</ele>
        <time>2014-09-20T13:51:18Z</time>
      </trkpt>
      <trkpt lat="48.43804" lon="3.65793">
        <ele>99.23</ele>
        <time>2014-09-20T13:51:20Z</time>
      </trkpt>
      <trkpt lat="48.43798" lon="3.6579">
        <ele>99.29</ele>
        <time>2014-09-20T13:51:22Z</time>
      </trkpt>
      <trkpt lat="48.43793" lon="3.65787">
        <ele>99.33</ele>
        <time>2014-09-20T13:51:24Z</time>
      </trkpt>
      <trkpt lat="48.43787" lon="3.65785">
        <ele>99.44</ele>
        <time>2014-09-20T13:51:26Z</time>
      </trkpt>
      <trkpt lat="48.43782" lon="3.65782">
        <ele>99.59</ele>
        <time>2014-09-20T13:51:28Z</time>
      </trkpt>
      <trkpt lat="48.43776" lon="3.6578">
        <ele>99.76</ele>
        <time>2014-09-20T13:51:30Z</time>
      </trkpt>
      <trkpt lat="48.4377" lon="3.65778">
        <ele>99.92</ele>
        <time>2014-09-20T13:51:32Z</time>
      </trkpt>
      <trkpt lat="48.43765" lon="3.65776">
        <ele>100.04</ele>
        <time>2014-09-20T13:51:34Z</time>
      </trkpt>
      <trkpt lat="48.4376" lon="3.65774">
        <ele>100.21</ele>
        <time>2014-09-20T13:51:36Z</time>
      </trkpt>
      <trkpt lat="48.43755" lon="3.65772">
        <ele>100.42</ele>
        <time>2014-09-20T13:51:38Z</time>
      </trkpt>
      <trkpt lat="48.43749" lon="3.65771">
        <ele>100.67</ele>
        <time>2014-09-20T13:51:40Z</time>
      </trkpt>
      <trkpt lat="48.43743" lon="3.65769">
        <ele>100.94</ele>
        <time>2014-09-20T13:51:42Z</time>
      </trkpt>
      <trkpt lat="48.43738" lon="3.65768">
        <ele>101.13</ele>
        <time>2014-09-20T13:51:44Z</time>
      </trkpt>
      <trkpt lat="48.43733" lon="3.65767">
        <ele>101.37</ele>
        <time>2014-09-20T13:51:46Z</time>
      </trkpt>
      <trkpt lat="48.43728" lon="3.65766">
        <ele>101.55</ele>
        <time>2014-09-20T13:51:48Z</time>
      </trkpt>
      <trkpt lat="48.43722" lon="3.65764">
        <ele>101.77</ele>
        <time>2014-09-20T13:51:50Z</time>
      </trkpt>
      <trkpt lat="48.43717" lon="3.65763">
        <ele>101.99</ele>
        <time>2014-09-20T13:51:52Z</time>
      </trkpt>
      <trkpt lat="48.43712" lon="3.65762">
        <ele>102.21</ele>
        <time>2014-09-20T13:51:54Z</time>
      </trkpt>
      <trkpt lat="48.43707" lon="3.65761">
        <ele>102.37</ele>
        <time>2014-09-20T13:51:56Z</time>
      </trkpt>
      <trkpt lat="48.43702" lon="3.6576">
        <ele>102.57</ele>
        <time>2014-09-20T13:51:58Z</time>
      </trkpt>
      <trkpt lat="48.43698" lon="3.65759">
        <ele>102.71</ele>
        <time>2014-09-20T13:52:00Z</time>
      </trkpt>
      <trkpt lat="48.43693" lon="3.65758">
        <ele>102.87</ele>
        <time>2014-09-20T13:52:02Z</time>
      </trkpt>
      <trkpt lat="48.43688" lon="3.65757">
        <ele>103.08</ele>
        <time>2014-09-20T13:52:04Z</time>
      </trkpt>
      <trkpt lat="48.43683" lon="3.65755">
        <ele>103.3</ele>
        <time>2014-09-20T13:52:06Z</time>
      </trkpt>
      <trkpt lat="48.43678" lon="3.65754">
        <ele>103.51</ele>
        <time>2014-09-20T13:52:08Z</time>
      </trkpt>
      <trkpt lat="48.43673" lon="3.65753">
        <ele>103.63</ele>
        <time>2014-09-20T13:52:10Z</time>
      </trkpt>
      <trkpt lat="48.43668" lon="3.65752">
        <ele>103.7</ele>
        <time>2014-09-20T13:52:12Z</time>
      </trkpt>
      <trkpt lat="48.43663" lon="3.65751">
        <ele>103.82</ele>
        <time>2014-09-20T13:52:14Z</time>
      </trkpt>
      <trkpt lat="48.43658" lon="3.65749">
        <ele>103.96</ele>
        <time>2014-09-20T13:52:16Z</time>
      </trkpt>
      <trkpt lat="48.43654" lon="3.65748">
        <ele>104.1</ele>
        <time>2014-09-20T13:52:18Z</time>
      </trkpt>
      <trkpt lat="48.43649" lon="3.65747">
        <ele>104.27</ele>
        <time>2014-09-20T13:52:20Z</time>
      </trkpt>
      <trkpt lat="48.43644" lon="3.65746">
        <ele>104.43</ele>
        <time>2014-09-20T13:52:22Z</time>
      </trkpt>
      <trkpt lat="48.43639" lon="3.65744">
        <ele>104.56</ele>
        <time>2014-09-20T13:52:24Z</time>
      </trkpt>
      <trkpt lat="48.43634" lon="3.65743">
        <ele>104.63</ele>
        <time>2014-09-20T13:52:26Z</time>
      </trkpt>
      <trkpt lat="48.43629" lon="3.65742">
        <ele>104.65</ele>
        <time>2014-09-20T13:52:28Z</time>
      </trkpt>
      <trkpt lat="48.43624" lon="3.6574">
        <ele>104.68</ele>
        <time>2014-09-20T13:52:30Z</time>
      </trkpt>
      <trkpt lat="48.43618" lon="3.65739">
        <ele>104.77</ele>
        <time>2014-09-20T13:52:32Z</time>
      </trkpt>
      <trkpt lat="48.43613" lon="3.65737">
        <ele>104.95</ele>
        <time>2014-09-20T13:52:34Z</time>
      </trkpt>
      <trkpt lat="48.43608" lon="3.65735">
        <ele>105.19</ele>
        <time>2014-09-20T13:52:36Z</time>
      </trkpt>
      <trkpt lat="48.43603" lon="3.65734">
        <ele>105.45</ele>
        <time>2014-09-20T13:52:38Z</time>
      </trkpt>
      <trkpt lat="48.43598" lon="3.65732">
        <ele>105.78</ele>
        <time>2014-09-20T13:52:40Z</time>
      </trkpt>
      <trkpt lat="48.43593" lon="3.65729">
        <ele>106.22</ele>
        <time>2014-09-20T13:52:42Z</time>
      </trkpt>
      <trkpt lat="48.43588" lon="3.65727">
        <ele>106.65</ele>
        <time>2014-09-20T13:52:44Z</time>
      </trkpt>
      <trkpt lat="48.43583" lon="3.65725">
        <ele>106.99</ele>
        <time>2014-09-20T13:52:46Z</time>
      </trkpt>
      <trkpt lat="48.43578" lon="3.65723">
        <ele>107.25</ele>
        <time>2014-09-20T13:52:48Z</time>
      </trkpt>
      <trkpt lat="48.43573" lon="3.65721">
        <ele>107.44</ele>
        <time>2014-09-20T13:52:50Z</time>
      </trkpt>
      <trkpt lat="48.43568" lon="3.65719">
        <ele>107.66</ele>
        <time>2014-09-20T13:52:52Z</time>
      </trkpt>
      <trkpt lat="48.43563" lon="3.65717">
        <ele>107.94</ele>
        <time>2014-09-20T13:52:54Z</time>
      </trkpt>
      <trkpt lat="48.43558" lon="3.65715">
        <ele>108.29</ele>
        <time>2014-09-20T13:52:56Z</time>
      </trkpt>
      <trkpt lat="48.43554" lon="3.65712">
        <ele>108.57</ele>
        <time>2014-09-20T13:52:58Z</time>
      </trkpt>
      <trkpt lat="48.43549" lon="3.6571">
        <ele>108.7</ele>
        <time>2014-09-20T13:53:00Z</time>
      </trkpt>
      <trkpt lat="48.43544" lon="3.65709">
        <ele>108.8</ele>
        <time>2014-09-20T13:53:02Z</time>
      </trkpt>
      <trkpt lat="48.43539" lon="3.65707">
        <ele>108.88</ele>
        <time>2014-09-20T13:53:04Z</time>
      </trkpt>
      <trkpt lat="48.43534" lon="3.65705">
        <ele>109.01</ele>
        <time>2014-09-20T13:53:06Z</time>
      </trkpt>
      <trkpt lat="48.43528" lon="3.65703">
        <ele>109.18</ele>
        <time>2014-09-20T13:53:08Z</time>
      </trkpt>
      <trkpt lat="48.43523" lon="3.65701">
        <ele>109.36</ele>
        <time>2014-09-20T13:53:10Z</time>
      </trkpt>
      <trkpt lat="48.43517" lon="3.65698">
        <ele>109.61</ele>
        <time>2014-09-20T13:53:12Z</time>
      </trkpt>
      <trkpt lat="48.43512" lon="3.65696">
        <ele>109.98</ele>
        <time>2014-09-20T13:53:14Z</time>
      </trkpt>
      <trkpt lat="48.43506" lon="3.65694">
        <ele>110.31</ele>
        <time>2014-09-20T13:53:16Z</time>
      </trkpt>
      <trkpt lat="48.43501" lon="3.65691">
        <ele>110.67</ele>
        <time>2014-09-20T13:53:18Z</time>
      </trkpt>
      <trkpt lat="48.43496" lon="3.65689">
        <ele>111.05</ele>
        <time>2014-09-20T13:53:20Z</time>
      </trkpt>
      <trkpt lat="48.43491" lon="3.65686">
        <ele>111.47</ele>
        <time>2014-09-20T13:53:22Z</time>
      </trkpt>
      <trkpt lat="48.43486" lon="3.65684">
        <ele>111.76</ele>
        <time>2014-09-20T13:53:24Z</time>
      </trkpt>
      <trkpt lat="48.43481" lon="3.65682">
        <ele>111.9</ele>
        <time>2014-09-20T13:53:26Z</time>
      </trkpt>
      <trkpt lat="48.43476" lon="3.6568">
        <ele>112.04</ele>
        <time>2014-09-20T13:53:28Z</time>
      </trkpt>
      <trkpt lat="48.43471" lon="3.65678">
        <ele>112.24</ele>
        <time>2014-09-20T13:53:30Z</time>
      </trkpt>
      <trkpt lat="48.43466" lon="3.65676">
        <ele>112.43</ele>
        <time>2014-09-20T13:53:32Z</time>
      </trkpt>
      <trkpt lat="48.43461" lon="3.65674">
        <ele>112.74</ele>
        <time>2014-09-20T13:53:34Z</time>
      </trkpt>
      <trkpt lat="48.43456" lon="3.65671">
        <ele>113</ele>
        <time>2014-09-20T13:53:36Z</time>
      </trkpt>
      <trkpt lat="48.43451" lon="3.6567">
        <ele>113.19</ele>
        <time>2014-09-20T13:53:38Z</time>
      </trkpt>
      <trkpt lat="48.43446" lon="3.65667">
        <ele>113.29</ele>
        <time>2014-09-20T13:53:40Z</time>
      </trkpt>
      <trkpt lat="48.43441" lon="3.65666">
        <ele>113.35</ele>
        <time>2014-09-20T13:53:42Z</time>
      </trkpt>
      <trkpt lat="48.43435" lon="3.65664">
        <ele>113.39</ele>
        <time>2014-09-20T13:53:44Z</time>
      </trkpt>
      <trkpt lat="48.43431" lon="3.65661">
        <ele>113.52</ele>
        <time>2014-09-20T13:53:46Z</time>
      </trkpt>
      <trkpt lat="48.43426" lon="3.65659">
        <ele>113.7</ele>
        <time>2014-09-20T13:53:48Z</time>
      </trkpt>
      <trkpt lat="48.43421" lon="3.65657">
        <ele>114.05</ele>
        <time>2014-09-20T13:53:50Z</time>
      </trkpt>
      <trkpt lat="48.43416" lon="3.65655">
        <ele>114.42</ele>
        <time>2014-09-20T13:53:52Z</time>
      </trkpt>
      <trkpt lat="48.43411" lon="3.65653">
        <ele>114.78</ele>
        <time>2014-09-20T13:53:54Z</time>
      </trkpt>
      <trkpt lat="48.43406" lon="3.6565">
        <ele>115.2</ele>
        <time>2014-09-20T13:53:56Z</time>
      </trkpt>
      <trkpt lat="48.43402" lon="3.65648">
        <ele>115.59</ele>
        <time>2014-09-20T13:53:58Z</time>
      </trkpt>
      <trkpt lat="48.43397" lon="3.65646">
        <ele>115.91</ele>
        <time>2014-09-20T13:54:00Z</time>
      </trkpt>
      <trkpt lat="48.43392" lon="3.65644">
        <ele>116.12</ele>
        <time>2014-09-20T13:54:02Z</time>
      </trkpt>
      <trkpt lat="48.43388" lon="3.65642">
        <ele>116.28</ele>
        <time>2014-09-20T13:54:04Z</time>
      </trkpt>
      <trkpt lat="48.43383" lon="3.6564">
        <ele>116.46</ele>
        <time>2014-09-20T13:54:06Z</time>
      </trkpt>
      <trkpt lat="48.43379" lon="3.65638">
        <ele>116.67</ele>
        <time>2014-09-20T13:54:08Z</time>
      </trkpt>
      <trkpt lat="48.43374" lon="3.65636">
        <ele>116.89</ele>
        <time>2014-09-20T13:54:10Z</time>
      </trkpt>
      <trkpt lat="48.43369" lon="3.65634">
        <ele>117.07</ele>
        <time>2014-09-20T13:54:12Z</time>
      </trkpt>
      <trkpt lat="48.43365" lon="3.65632">
        <ele>117.23</ele>
        <time>2014-09-20T13:54:14Z</time>
      </trkpt>
      <trkpt lat="48.4336" lon="3.6563">
        <ele>117.5</ele>
        <time>2014-09-20T13:54:16Z</time>
      </trkpt>
      <trkpt lat="48.43355" lon="3.65628">
        <ele>117.8</ele>
        <time>2014-09-20T13:54:18Z</time>
      </trkpt>
      <trkpt lat="48.43351" lon="3.65626">
        <ele>118.01</ele>
        <time>2014-09-20T13:54:20Z</time>
      </trkpt>
      <trkpt lat="48.43346" lon="3.65625">
        <ele>118.22</ele>
        <time>2014-09-20T13:54:22Z</time>
      </trkpt>
      <trkpt lat="48.43341" lon="3.65623">
        <ele>118.47</ele>
        <time>2014-09-20T13:54:24Z</time>
      </trkpt>
      <trkpt lat="48.43337" lon="3.65621">
        <ele>118.83</ele>
        <time>2014-09-20T13:54:26Z</time>
      </trkpt>
      <trkpt lat="48.43332" lon="3.65618">
        <ele>119.23</ele>
        <time>2014-09-20T13:54:28Z</time>
      </trkpt>
      <trkpt lat="48.43327" lon="3.65616">
        <ele>119.54</ele>
        <time>2014-09-20T13:54:30Z</time>
      </trkpt>
      <trkpt lat="48.43323" lon="3.65615">
        <ele>119.71</ele>
        <time>2014-09-20T13:54:32Z</time>
      </trkpt>
      <trkpt lat="48.43316" lon="3.65611">
        <ele>119.99</ele>
        <time>2014-09-20T13:54:35Z</time>
      </trkpt>
      <trkpt lat="48.43312" lon="3.65607">
        <ele>120.34</ele>
        <time>2014-09-20T13:54:37Z</time>
      </trkpt>
      <trkpt lat="48.43307" lon="3.65605">
        <ele>120.64</ele>
        <time>2014-09-20T13:54:39Z</time>
      </trkpt>
      <trkpt lat="48.43303" lon="3.65603">
        <ele>120.85</ele>
        <time>2014-09-20T13:54:41Z</time>
      </trkpt>
      <trkpt lat="48.43298" lon="3.65601">
        <ele>121.02</ele>
        <time>2014-09-20T13:54:43Z</time>
      </trkpt>
      <trkpt lat="48.43293" lon="3.65599">
        <ele>121.22</ele>
        <time>2014-09-20T13:54:45Z</time>
      </trkpt>
      <trkpt lat="48.43289" lon="3.65597">
        <ele>121.42</ele>
        <time>2014-09-20T13:54:47Z</time>
      </trkpt>
      <trkpt lat="48.43284" lon="3.65594">
        <ele>121.72</ele>
        <time>2014-09-20T13:54:49Z</time>
      </trkpt>
      <trkpt lat="48.43279" lon="3.65592">
        <ele>122.08</ele>
        <time>2014-09-20T13:54:51Z</time>
      </trkpt>
      <trkpt lat="48.43274" lon="3.6559">
        <ele>122.44</ele>
        <time>2014-09-20T13:54:53Z</time>
      </trkpt>
      <trkpt lat="48.43269" lon="3.65588">
        <ele>122.82</ele>
        <time>2014-09-20T13:54:55Z</time>
      </trkpt>
      <trkpt lat="48.43264" lon="3.65586">
        <ele>123.22</ele>
        <time>2014-09-20T13:54:57Z</time>
      </trkpt>
      <trkpt lat="48.43259" lon="3.65583">
        <ele>123.58</ele>
        <time>2014-09-20T13:54:59Z</time>
      </trkpt>
      <trkpt lat="48.43255" lon="3.65581">
        <ele>123.91</ele>
        <time>2014-09-20T13:55:01Z</time>
      </trkpt>
      <trkpt lat="48.43248" lon="3.65579">
        <ele>124.42</ele>
        <time>2014-09-20T13:55:04Z</time>
      </trkpt>
      <trkpt lat="48.43244" lon="3.65578">
        <ele>124.71</ele>
        <time>2014-09-20T13:55:06Z</time>
      </trkpt>
      <trkpt lat="48.43239" lon="3.65578">
        <ele>124.92</ele>
        <time>2014-09-20T13:55:08Z</time>
      </trkpt>
      <trkpt lat="48.43233" lon="3.65576">
        <ele>125.19</ele>
        <time>2014-09-20T13:55:11Z</time>
      </trkpt>
      <trkpt lat="48.43227" lon="3.6558">
        <ele>125.55</ele>
        <time>2014-09-20T13:55:14Z</time>
      </trkpt>
      <trkpt lat="48.43225" lon="3.65586">
        <ele>125.74</ele>
        <time>2014-09-20T13:55:16Z</time>
      </trkpt>
      <trkpt lat="48.43223" lon="3.65594">
        <ele>125.91</ele>
        <time>2014-09-20T13:55:18Z</time>
      </trkpt>
      <trkpt lat="48.43222" lon="3.65602">
        <ele>126.03</ele>
        <time>2014-09-20T13:55:20Z</time>
      </trkpt>
      <trkpt lat="48.43221" lon="3.65609">
        <ele>126.16</ele>
        <time>2014-09-20T13:55:22Z</time>
      </trkpt>
      <trkpt lat="48.43219" lon="3.65617">
        <ele>126.3</ele>
        <time>2014-09-20T13:55:24Z</time>
      </trkpt>
      <trkpt lat="48.43218" lon="3.65626">
        <ele>126.47</ele>
        <time>2014-09-20T13:55:26Z</time>
      </trkpt>
      <trkpt lat="48.43217" lon="3.65634">
        <ele>126.65</ele>
        <time>2014-09-20T13:55:28Z</time>
      </trkpt>
      <trkpt lat="48.43215" lon="3.65642">
        <ele>126.82</ele>
        <time>2014-09-20T13:55:30Z</time>
      </trkpt>
      <trkpt lat="48.43214" lon="3.65651">
        <ele>126.95</ele>
        <time>2014-09-20T13:55:32Z</time>
      </trkpt>
      <trkpt lat="48.43212" lon="3.6566">
        <ele>127.03</ele>
        <time>2014-09-20T13:55:34Z</time>
      </trkpt>
      <trkpt lat="48.4321" lon="3.65671">
        <ele>127.07</ele>
        <time>2014-09-20T13:55:36Z</time>
      </trkpt>
      <trkpt lat="48.43208" lon="3.65681">
        <ele>127.05</ele>
        <time>2014-09-20T13:55:38Z</time>
      </trkpt>
      <trkpt lat="48.43206" lon="3.65693">
        <ele>127</ele>
        <time>2014-09-20T13:55:40Z</time>
      </trkpt>
      <trkpt lat="48.43204" lon="3.65705">
        <ele>126.92</ele>
        <time>2014-09-20T13:55:42Z</time>
      </trkpt>
      <trkpt lat="48.43202" lon="3.65718">
        <ele>126.84</ele>
        <time>2014-09-20T13:55:44Z</time>
      </trkpt>
      <trkpt lat="48.43201" lon="3.65725">
        <ele>126.81</ele>
        <time>2014-09-20T13:55:45Z</time>
      </trkpt>
      <trkpt lat="48.432" lon="3.65731">
        <ele>126.76</ele>
        <time>2014-09-20T13:55:46Z</time>
      </trkpt>
      <trkpt lat="48.43198" lon="3.65738">
        <ele>126.73</ele>
        <time>2014-09-20T13:55:47Z</time>
      </trkpt>
      <trkpt lat="48.43197" lon="3.65745">
        <ele>126.71</ele>
        <time>2014-09-20T13:55:48Z</time>
      </trkpt>
      <trkpt lat="48.43196" lon="3.65752">
        <ele>126.66</ele>
        <time>2014-09-20T13:55:49Z</time>
      </trkpt>
      <trkpt lat="48.43194" lon="3.6576">
        <ele>126.63</ele>
        <time>2014-09-20T13:55:50Z</time>
      </trkpt>
      <trkpt lat="48.43193" lon="3.65767">
        <ele>126.6</ele>
        <time>2014-09-20T13:55:51Z</time>
      </trkpt>
      <trkpt lat="48.43192" lon="3.65774">
        <ele>126.56</ele>
        <time>2014-09-20T13:55:52Z</time>
      </trkpt>
      <trkpt lat="48.4319" lon="3.65781">
        <ele>126.53</ele>
        <time>2014-09-20T13:55:53Z</time>
      </trkpt>
      <trkpt lat="48.43189" lon="3.65788">
        <ele>126.5</ele>
        <time>2014-09-20T13:55:54Z</time>
      </trkpt>
      <trkpt lat="48.43188" lon="3.65796">
        <ele>126.48</ele>
        <time>2014-09-20T13:55:55Z</time>
      </trkpt>
      <trkpt lat="48.43187" lon="3.65803">
        <ele>126.49</ele>
        <time>2014-09-20T13:55:56Z</time>
      </trkpt>
      <trkpt lat="48.43185" lon="3.6581">
        <ele>126.5</ele>
        <time>2014-09-20T13:55:57Z</time>
      </trkpt>
      <trkpt lat="48.43184" lon="3.65817">
        <ele>126.51</ele>
        <time>2014-09-20T13:55:58Z</time>
      </trkpt>
      <trkpt lat="48.43183" lon="3.65824">
        <ele>126.51</ele>
        <time>2014-09-20T13:55:59Z</time>
      </trkpt>
      <trkpt lat="48.43182" lon="3.65831">
        <ele>126.52</ele>
        <time>2014-09-20T13:56:00Z</time>
      </trkpt>
      <trkpt lat="48.43181" lon="3.65838">
        <ele>126.5</ele>
        <time>2014-09-20T13:56:01Z</time>
      </trkpt>
      <trkpt lat="48.43179" lon="3.65845">
        <ele>126.48</ele>
        <time>2014-09-20T13:56:02Z</time>
      </trkpt>
      <trkpt lat="48.43178" lon="3.65852">
        <ele>126.47</ele>
        <time>2014-09-20T13:56:03Z</time>
      </trkpt>
      <trkpt lat="48.43177" lon="3.65859">
        <ele>126.46</ele>
        <time>2014-09-20T13:56:04Z</time>
      </trkpt>
      <trkpt lat="48.43176" lon="3.65865">
        <ele>126.42</ele>
        <time>2014-09-20T13:56:05Z</time>
      </trkpt>
      <trkpt lat="48.43175" lon="3.65872">
        <ele>126.4</ele>
        <time>2014-09-20T13:56:06Z</time>
      </trkpt>
      <trkpt lat="48.43173" lon="3.65879">
        <ele>126.38</ele>
        <time>2014-09-20T13:56:07Z</time>
      </trkpt>
      <trkpt lat="48.43172" lon="3.65886">
        <ele>126.39</ele>
        <time>2014-09-20T13:56:08Z</time>
      </trkpt>
      <trkpt lat="48.43171" lon="3.65893">
        <ele>126.4</ele>
        <time>2014-09-20T13:56:09Z</time>
      </trkpt>
      <trkpt lat="48.4317" lon="3.65899">
        <ele>126.41</ele>
        <time>2014-09-20T13:56:10Z</time>
      </trkpt>
      <trkpt lat="48.43169" lon="3.65906">
        <ele>126.41</ele>
        <time>2014-09-20T13:56:11Z</time>
      </trkpt>
      <trkpt lat="48.43168" lon="3.65913">
        <ele>126.44</ele>
        <time>2014-09-20T13:56:12Z</time>
      </trkpt>
      <trkpt lat="48.43165" lon="3.65925">
        <ele>126.48</ele>
        <time>2014-09-20T13:56:14Z</time>
      </trkpt>
      <trkpt lat="48.43163" lon="3.65937">
        <ele>126.54</ele>
        <time>2014-09-20T13:56:16Z</time>
      </trkpt>
      <trkpt lat="48.43158" lon="3.65945">
        <ele>126.56</ele>
        <time>2014-09-20T13:56:18Z</time>
      </trkpt>
      <trkpt lat="48.4315" lon="3.65944">
        <ele>126.41</ele>
        <time>2014-09-20T13:56:20Z</time>
      </trkpt>
      <trkpt lat="48.43146" lon="3.65942">
        <ele>126.29</ele>
        <time>2014-09-20T13:56:21Z</time>
      </trkpt>
      <trkpt lat="48.43141" lon="3.65938">
        <ele>126.17</ele>
        <time>2014-09-20T13:56:22Z</time>
      </trkpt>
      <trkpt lat="48.43137" lon="3.65935">
        <ele>126.06</ele>
        <time>2014-09-20T13:56:23Z</time>
      </trkpt>
      <trkpt lat="48.43133" lon="3.65931">
        <ele>125.95</ele>
        <time>2014-09-20T13:56:24Z</time>
      </trkpt>
      <trkpt lat="48.43128" lon="3.65928">
        <ele>125.82</ele>
        <time>2014-09-20T13:56:25Z</time>
      </trkpt>
      <trkpt lat="48.43123" lon="3.65924">
        <ele>125.7</ele>
        <time>2014-09-20T13:56:26Z</time>
      </trkpt>
      <trkpt lat="48.43119" lon="3.6592">
        <ele>125.61</ele>
        <time>2014-09-20T13:56:27Z</time>
      </trkpt>
      <trkpt lat="48.43114" lon="3.65917">
        <ele>125.51</ele>
        <time>2014-09-20T13:56:28Z</time>
      </trkpt>
      <trkpt lat="48.43109" lon="3.65913">
        <ele>125.42</ele>
        <time>2014-09-20T13:56:29Z</time>
      </trkpt>
      <trkpt lat="48.43105" lon="3.65909">
        <ele>125.32</ele>
        <time>2014-09-20T13:56:30Z</time>
      </trkpt>
      <trkpt lat="48.431" lon="3.65905">
        <ele>125.22</ele>
        <time>2014-09-20T13:56:31Z</time>
      </trkpt>
      <trkpt lat="48.43095" lon="3.65901">
        <ele>125.15</ele>
        <time>2014-09-20T13:56:32Z</time>
      </trkpt>
      <trkpt lat="48.4309" lon="3.65897">
        <ele>125.07</ele>
        <time>2014-09-20T13:56:33Z</time>
      </trkpt>
      <trkpt lat="48.43086" lon="3.65893">
        <ele>125.01</ele>
        <time>2014-09-20T13:56:34Z</time>
      </trkpt>
      <trkpt lat="48.43081" lon="3.6589">
        <ele>124.96</ele>
        <time>2014-09-20T13:56:35Z</time>
      </trkpt>
      <trkpt lat="48.43076" lon="3.65886">
        <ele>124.9</ele>
        <time>2014-09-20T13:56:36Z</time>
      </trkpt>
      <trkpt lat="48.43072" lon="3.65882">
        <ele>124.84</ele>
        <time>2014-09-20T13:56:37Z</time>
      </trkpt>
      <trkpt lat="48.43067" lon="3.65879">
        <ele>124.78</ele>
        <time>2014-09-20T13:56:38Z</time>
      </trkpt>
      <trkpt lat="48.43063" lon="3.65875">
        <ele>124.69</ele>
        <time>2014-09-20T13:56:39Z</time>
      </trkpt>
      <trkpt lat="48.43058" lon="3.65871">
        <ele>124.6</ele>
        <time>2014-09-20T13:56:40Z</time>
      </trkpt>
      <trkpt lat="48.43054" lon="3.65868">
        <ele>124.48</ele>
        <time>2014-09-20T13:56:41Z</time>
      </trkpt>
      <trkpt lat="48.43049" lon="3.65864">
        <ele>124.37</ele>
        <time>2014-09-20T13:56:42Z</time>
      </trkpt>
      <trkpt lat="48.43045" lon="3.65861">
        <ele>124.26</ele>
        <time>2014-09-20T13:56:43Z</time>
      </trkpt>
      <trkpt lat="48.4304" lon="3.65857">
        <ele>124.15</ele>
        <time>2014-09-20T13:56:44Z</time>
      </trkpt>
      <trkpt lat="48.43035" lon="3.65853">
        <ele>124.05</ele>
        <time>2014-09-20T13:56:45Z</time>
      </trkpt>
      <trkpt lat="48.43031" lon="3.6585">
        <ele>123.94</ele>
        <time>2014-09-20T13:56:46Z</time>
      </trkpt>
      <trkpt lat="48.43026" lon="3.65846">
        <ele>123.81</ele>
        <time>2014-09-20T13:56:47Z</time>
      </trkpt>
      <trkpt lat="48.43022" lon="3.65842">
        <ele>123.69</ele>
        <time>2014-09-20T13:56:48Z</time>
      </trkpt>
      <trkpt lat="48.43017" lon="3.65838">
        <ele>123.58</ele>
        <time>2014-09-20T13:56:49Z</time>
      </trkpt>
      <trkpt lat="48.43013" lon="3.65834">
        <ele>123.46</ele>
        <time>2014-09-20T13:56:50Z</time>
      </trkpt>
      <trkpt lat="48.43008" lon="3.65831">
        <ele>123.35</ele>
        <time>2014-09-20T13:56:51Z</time>
      </trkpt>
      <trkpt lat="48.43003" lon="3.65827">
        <ele>123.22</ele>
        <time>2014-09-20T13:56:52Z</time>
      </trkpt>
      <trkpt lat="48.42999" lon="3.65823">
        <ele>123.1</ele>
        <time>2014-09-20T13:56:53Z</time>
      </trkpt>
      <trkpt lat="48.42994" lon="3.65819">
        <ele>122.96</ele>
        <time>2014-09-20T13:56:54Z</time>
      </trkpt>
      <trkpt lat="48.4299" lon="3.65816">
        <ele>122.82</ele>
        <time>2014-09-20T13:56:55Z</time>
      </trkpt>
      <trkpt lat="48.42985" lon="3.65812">
        <ele>122.7</ele>
        <time>2014-09-20T13:56:56Z</time>
      </trkpt>
      <trkpt lat="48.4298" lon="3.65808">
        <ele>122.58</ele>
        <time>2014-09-20T13:56:57Z</time>
      </trkpt>
      <trkpt lat="48.42975" lon="3.65804">
        <ele>122.44</ele>
        <time>2014-09-20T13:56:58Z</time>
      </trkpt>
      <trkpt lat="48.42971" lon="3.658">
        <ele>122.31</ele>
        <time>2014-09-20T13:56:59Z</time>
      </trkpt>
      <trkpt lat="48.42966" lon="3.65796">
        <ele>122.17</ele>
        <time>2014-09-20T13:57:00Z</time>
      </trkpt>
      <trkpt lat="48.42962" lon="3.65791">
        <ele>122.03</ele>
        <time>2014-09-20T13:57:01Z</time>
      </trkpt>
      <trkpt lat="48.42958" lon="3.65786">
        <ele>121.88</ele>
        <time>2014-09-20T13:57:02Z</time>
      </trkpt>
      <trkpt lat="48.42953" lon="3.65782">
        <ele>121.72</ele>
        <time>2014-09-20T13:57:03Z</time>
      </trkpt>
      <trkpt lat="48.42948" lon="3.65778">
        <ele>121.55</ele>
        <time>2014-09-20T13:57:04Z</time>
      </trkpt>
      <trkpt lat="48.42943" lon="3.65775">
        <ele>121.34</ele>
        <time>2014-09-20T13:57:05Z</time>
      </trkpt>
      <trkpt lat="48.42938" lon="3.65771">
        <ele>121.14</ele>
        <time>2014-09-20T13:57:06Z</time>
      </trkpt>
      <trkpt lat="48.42933" lon="3.65767">
        <ele>120.91</ele>
        <time>2014-09-20T13:57:07Z</time>
      </trkpt>
      <trkpt lat="48.42928" lon="3.65763">
        <ele>120.66</ele>
        <time>2014-09-20T13:57:08Z</time>
      </trkpt>
      <trkpt lat="48.42923" lon="3.65758">
        <ele>120.38</ele>
        <time>2014-09-20T13:57:09Z</time>
      </trkpt>
      <trkpt lat="48.42918" lon="3.65754">
        <ele>120.09</ele>
        <time>2014-09-20T13:57:10Z</time>
      </trkpt>
      <trkpt lat="48.42912" lon="3.6575">
        <ele>119.8</ele>
        <time>2014-09-20T13:57:11Z</time>
      </trkpt>
      <trkpt lat="48.42906" lon="3.65746">
        <ele>119.53</ele>
        <time>2014-09-20T13:57:12Z</time>
      </trkpt>
      <trkpt lat="48.429" lon="3.65742">
        <ele>119.26</ele>
        <time>2014-09-20T13:57:13Z</time>
      </trkpt>
      <trkpt lat="48.42894" lon="3.65737">
        <ele>119.02</ele>
        <time>2014-09-20T13:57:14Z</time>
      </trkpt>
      <trkpt lat="48.42889" lon="3.65732">
        <ele>118.83</ele>
        <time>2014-09-20T13:57:15Z</time>
      </trkpt>
      <trkpt lat="48.42884" lon="3.65727">
        <ele>118.68</ele>
        <time>2014-09-20T13:57:16Z</time>
      </trkpt>
      <trkpt lat="48.42878" lon="3.65723">
        <ele>118.56</ele>
        <time>2014-09-20T13:57:17Z</time>
      </trkpt>
      <trkpt lat="48.42873" lon="3.65718">
        <ele>118.51</ele>
        <time>2014-09-20T13:57:18Z</time>
      </trkpt>
      <trkpt lat="48.42868" lon="3.65713">
        <ele>118.46</ele>
        <time>2014-09-20T13:57:19Z</time>
      </trkpt>
      <trkpt lat="48.42863" lon="3.65709">
        <ele>118.45</ele>
        <time>2014-09-20T13:57:20Z</time>
      </trkpt>
      <trkpt lat="48.42858" lon="3.65705">
        <ele>118.45</ele>
        <time>2014-09-20T13:57:21Z</time>
      </trkpt>
      <trkpt lat="48.42854" lon="3.65701">
        <ele>118.47</ele>
        <time>2014-09-20T13:57:22Z</time>
      </trkpt>
      <trkpt lat="48.42849" lon="3.65697">
        <ele>118.51</ele>
        <time>2014-09-20T13:57:23Z</time>
      </trkpt>
      <trkpt lat="48.42845" lon="3.65693">
        <ele>118.59</ele>
        <time>2014-09-20T13:57:24Z</time>
      </trkpt>
      <trkpt lat="48.4284" lon="3.6569">
        <ele>118.7</ele>
        <time>2014-09-20T13:57:25Z</time>
      </trkpt>
      <trkpt lat="48.42836" lon="3.65686">
        <ele>118.81</ele>
        <time>2014-09-20T13:57:26Z</time>
      </trkpt>
      <trkpt lat="48.42831" lon="3.65683">
        <ele>118.91</ele>
        <time>2014-09-20T13:57:27Z</time>
      </trkpt>
      <trkpt lat="48.42827" lon="3.65679">
        <ele>118.97</ele>
        <time>2014-09-20T13:57:28Z</time>
      </trkpt>
      <trkpt lat="48.42822" lon="3.65676">
        <ele>119.03</ele>
        <time>2014-09-20T13:57:29Z</time>
      </trkpt>
      <trkpt lat="48.42818" lon="3.65673">
        <ele>119.08</ele>
        <time>2014-09-20T13:57:30Z</time>
      </trkpt>
      <trkpt lat="48.42814" lon="3.65669">
        <ele>119.14</ele>
        <time>2014-09-20T13:57:31Z</time>
      </trkpt>
      <trkpt lat="48.42809" lon="3.65666">
        <ele>119.21</ele>
        <time>2014-09-20T13:57:32Z</time>
      </trkpt>
      <trkpt lat="48.42805" lon="3.65663">
        <ele>119.32</ele>
        <time>2014-09-20T13:57:33Z</time>
      </trkpt>
      <trkpt lat="48.42801" lon="3.65661">
        <ele>119.44</ele>
        <time>2014-09-20T13:57:34Z</time>
      </trkpt>
      <trkpt lat="48.42796" lon="3.65658">
        <ele>119.59</ele>
        <time>2014-09-20T13:57:35Z</time>
      </trkpt>
      <trkpt lat="48.42792" lon="3.65656">
        <ele>119.78</ele>
        <time>2014-09-20T13:57:36Z</time>
      </trkpt>
      <trkpt lat="48.42787" lon="3.65654">
        <ele>119.99</ele>
        <time>2014-09-20T13:57:37Z</time>
      </trkpt>
      <trkpt lat="48.42783" lon="3.65651">
        <ele>120.22</ele>
        <time>2014-09-20T13:57:38Z</time>
      </trkpt>
      <trkpt lat="48.42778" lon="3.65648">
        <ele>120.47</ele>
        <time>2014-09-20T13:57:39Z</time>
      </trkpt>
      <trkpt lat="48.42774" lon="3.65646">
        <ele>120.74</ele>
        <time>2014-09-20T13:57:40Z</time>
      </trkpt>
      <trkpt lat="48.4277" lon="3.65643">
        <ele>121.01</ele>
        <time>2014-09-20T13:57:41Z</time>
      </trkpt>
      <trkpt lat="48.42765" lon="3.6564">
        <ele>121.26</ele>
        <time>2014-09-20T13:57:42Z</time>
      </trkpt>
      <trkpt lat="48.42761" lon="3.65638">
        <ele>121.51</ele>
        <time>2014-09-20T13:57:43Z</time>
      </trkpt>
      <trkpt lat="48.42756" lon="3.65635">
        <ele>121.76</ele>
        <time>2014-09-20T13:57:44Z</time>
      </trkpt>
      <trkpt lat="48.42752" lon="3.65632">
        <ele>122</ele>
        <time>2014-09-20T13:57:45Z</time>
      </trkpt>
      <trkpt lat="48.42747" lon="3.6563">
        <ele>122.26</ele>
        <time>2014-09-20T13:57:46Z</time>
      </trkpt>
      <trkpt lat="48.42739" lon="3.65625">
        <ele>122.78</ele>
        <time>2014-09-20T13:57:48Z</time>
      </trkpt>
      <trkpt lat="48.42731" lon="3.6562">
        <ele>123.24</ele>
        <time>2014-09-20T13:57:50Z</time>
      </trkpt>
      <trkpt lat="48.42723" lon="3.65616">
        <ele>123.77</ele>
        <time>2014-09-20T13:57:52Z</time>
      </trkpt>
      <trkpt lat="48.42716" lon="3.65612">
        <ele>124.33</ele>
        <time>2014-09-20T13:57:54Z</time>
      </trkpt>
      <trkpt lat="48.42709" lon="3.65608">
        <ele>124.86</ele>
        <time>2014-09-20T13:57:56Z</time>
      </trkpt>
      <trkpt lat="48.42703" lon="3.65604">
        <ele>125.38</ele>
        <time>2014-09-20T13:57:58Z</time>
      </trkpt>
      <trkpt lat="48.42698" lon="3.65601">
        <ele>125.84</ele>
        <time>2014-09-20T13:58:00Z</time>
      </trkpt>
      <trkpt lat="48.42692" lon="3.65597">
        <ele>126.28</ele>
        <time>2014-09-20T13:58:02Z</time>
      </trkpt>
      <trkpt lat="48.42686" lon="3.65594">
        <ele>126.68</ele>
        <time>2014-09-20T13:58:04Z</time>
      </trkpt>
      <trkpt lat="48.42681" lon="3.65591">
        <ele>127.03</ele>
        <time>2014-09-20T13:58:06Z</time>
      </trkpt>
      <trkpt lat="48.42675" lon="3.65588">
        <ele>127.36</ele>
        <time>2014-09-20T13:58:08Z</time>
      </trkpt>
      <trkpt lat="48.42669" lon="3.65586">
        <ele>127.68</ele>
        <time>2014-09-20T13:58:10Z</time>
      </trkpt>
      <trkpt lat="48.42664" lon="3.65582">
        <ele>127.99</ele>
        <time>2014-09-20T13:58:12Z</time>
      </trkpt>
      <trkpt lat="48.42658" lon="3.65579">
        <ele>128.25</ele>
        <time>2014-09-20T13:58:14Z</time>
      </trkpt>
      <trkpt lat="48.42653" lon="3.65576">
        <ele>128.53</ele>
        <time>2014-09-20T13:58:16Z</time>
      </trkpt>
      <trkpt lat="48.42647" lon="3.65573">
        <ele>128.82</ele>
        <time>2014-09-20T13:58:18Z</time>
      </trkpt>
      <trkpt lat="48.42642" lon="3.65569">
        <ele>129.02</ele>
        <time>2014-09-20T13:58:20Z</time>
      </trkpt>
      <trkpt lat="48.42636" lon="3.65566">
        <ele>129.22</ele>
        <time>2014-09-20T13:58:22Z</time>
      </trkpt>
      <trkpt lat="48.4263" lon="3.65562">
        <ele>129.36</ele>
        <time>2014-09-20T13:58:24Z</time>
      </trkpt>
      <trkpt lat="48.42624" lon="3.65558">
        <ele>129.46</ele>
        <time>2014-09-20T13:58:26Z</time>
      </trkpt>
      <trkpt lat="48.42617" lon="3.65554">
        <ele>129.6</ele>
        <time>2014-09-20T13:58:28Z</time>
      </trkpt>
      <trkpt lat="48.42609" lon="3.6555">
        <ele>129.77</ele>
        <time>2014-09-20T13:58:30Z</time>
      </trkpt>
      <trkpt lat="48.42601" lon="3.65545">
        <ele>129.95</ele>
        <time>2014-09-20T13:58:32Z</time>
      </trkpt>
      <trkpt lat="48.42596" lon="3.65543">
        <ele>130.05</ele>
        <time>2014-09-20T13:58:33Z</time>
      </trkpt>
      <trkpt lat="48.42592" lon="3.6554">
        <ele>130.14</ele>
        <time>2014-09-20T13:58:34Z</time>
      </trkpt>
      <trkpt lat="48.42588" lon="3.65537">
        <ele>130.21</ele>
        <time>2014-09-20T13:58:35Z</time>
      </trkpt>
      <trkpt lat="48.42584" lon="3.65535">
        <ele>130.29</ele>
        <time>2014-09-20T13:58:36Z</time>
      </trkpt>
      <trkpt lat="48.42576" lon="3.65529">
        <ele>130.42</ele>
        <time>2014-09-20T13:58:38Z</time>
      </trkpt>
      <trkpt lat="48.42568" lon="3.65524">
        <ele>130.54</ele>
        <time>2014-09-20T13:58:40Z</time>
      </trkpt>
      <trkpt lat="48.42561" lon="3.65519">
        <ele>130.71</ele>
        <time>2014-09-20T13:58:42Z</time>
      </trkpt>
      <trkpt lat="48.42555" lon="3.65513">
        <ele>130.89</ele>
        <time>2014-09-20T13:58:44Z</time>
      </trkpt>
      <trkpt lat="48.42548" lon="3.65509">
        <ele>131.07</ele>
        <time>2014-09-20T13:58:46Z</time>
      </trkpt>
      <trkpt lat="48.42541" lon="3.65504">
        <ele>131.25</ele>
        <time>2014-09-20T13:58:48Z</time>
      </trkpt>
      <trkpt lat="48.42534" lon="3.65498">
        <ele>131.48</ele>
        <time>2014-09-20T13:58:50Z</time>
      </trkpt>
      <trkpt lat="48.42527" lon="3.65493">
        <ele>131.77</ele>
        <time>2014-09-20T13:58:52Z</time>
      </trkpt>
      <trkpt lat="48.42521" lon="3.65488">
        <ele>132.04</ele>
        <time>2014-09-20T13:58:54Z</time>
      </trkpt>
      <trkpt lat="48.42514" lon="3.65482">
        <ele>132.28</ele>
        <time>2014-09-20T13:58:56Z</time>
      </trkpt>
      <trkpt lat="48.42507" lon="3.65476">
        <ele>132.57</ele>
        <time>2014-09-20T13:58:58Z</time>
      </trkpt>
      <trkpt lat="48.425" lon="3.65472">
        <ele>132.84</ele>
        <time>2014-09-20T13:59:00Z</time>
      </trkpt>
      <trkpt lat="48.42493" lon="3.65468">
        <ele>133.15</ele>
        <time>2014-09-20T13:59:02Z</time>
      </trkpt>
      <trkpt lat="48.42486" lon="3.65463">
        <ele>133.47</ele>
        <time>2014-09-20T13:59:04Z</time>
      </trkpt>
      <trkpt lat="48.4248" lon="3.65459">
        <ele>133.76</ele>
        <time>2014-09-20T13:59:06Z</time>
      </trkpt>
      <trkpt lat="48.42474" lon="3.65455">
        <ele>134.1</ele>
        <time>2014-09-20T13:59:08Z</time>
      </trkpt>
      <trkpt lat="48.42468" lon="3.65451">
        <ele>134.45</ele>
        <time>2014-09-20T13:59:10Z</time>
      </trkpt>
      <trkpt lat="48.42462" lon="3.65447">
        <ele>134.81</ele>
        <time>2014-09-20T13:59:12Z</time>
      </trkpt>
      <trkpt lat="48.42456" lon="3.65442">
        <ele>135.15</ele>
        <time>2014-09-20T13:59:14Z</time>
      </trkpt>
      <trkpt lat="48.4245" lon="3.65437">
        <ele>135.32</ele>
        <time>2014-09-20T13:59:16Z</time>
      </trkpt>
      <trkpt lat="48.42443" lon="3.65433">
        <ele>135.48</ele>
        <time>2014-09-20T13:59:18Z</time>
      </trkpt>
      <trkpt lat="48.42437" lon="3.65429">
        <ele>135.66</ele>
        <time>2014-09-20T13:59:20Z</time>
      </trkpt>
      <trkpt lat="48.42431" lon="3.65425">
        <ele>135.87</ele>
        <time>2014-09-20T13:59:22Z</time>
      </trkpt>
      <trkpt lat="48.42425" lon="3.65421">
        <ele>136.12</ele>
        <time>2014-09-20T13:59:24Z</time>
      </trkpt>
      <trkpt lat="48.42418" lon="3.65415">
        <ele>136.46</ele>
        <time>2014-09-20T13:59:26Z</time>
      </trkpt>
      <trkpt lat="48.42411" lon="3.65411">
        <ele>136.8</ele>
        <time>2014-09-20T13:59:28Z</time>
      </trkpt>
      <trkpt lat="48.42405" lon="3.65407">
        <ele>137.17</ele>
        <time>2014-09-20T13:59:30Z</time>
      </trkpt>
      <trkpt lat="48.42399" lon="3.65403">
        <ele>137.62</ele>
        <time>2014-09-20T13:59:32Z</time>
      </trkpt>
      <trkpt lat="48.42393" lon="3.65398">
        <ele>138.07</ele>
        <time>2014-09-20T13:59:34Z</time>
      </trkpt>
      <trkpt lat="48.42387" lon="3.65395">
        <ele>138.49</ele>
        <time>2014-09-20T13:59:36Z</time>
      </trkpt>
      <trkpt lat="48.42381" lon="3.65391">
        <ele>138.91</ele>
        <time>2014-09-20T13:59:38Z</time>
      </trkpt>
      <trkpt lat="48.42375" lon="3.65386">
        <ele>139.32</ele>
        <time>2014-09-20T13:59:40Z</time>
      </trkpt>
      <trkpt lat="48.42369" lon="3.65381">
        <ele>139.72</ele>
        <time>2014-09-20T13:59:42Z</time>
      </trkpt>
      <trkpt lat="48.42363" lon="3.65377">
        <ele>140.1</ele>
        <time>2014-09-20T13:59:44Z</time>
      </trkpt>
      <trkpt lat="48.42357" lon="3.65372">
        <ele>140.47</ele>
        <time>2014-09-20T13:59:46Z</time>
      </trkpt>
      <trkpt lat="48.42351" lon="3.65368">
        <ele>140.85</ele>
        <time>2014-09-20T13:59:48Z</time>
      </trkpt>
      <trkpt lat="48.42345" lon="3.65363">
        <ele>141.24</ele>
        <time>2014-09-20T13:59:50Z</time>
      </trkpt>
      <trkpt lat="48.4234" lon="3.65359">
        <ele>141.72</ele>
        <time>2014-09-20T13:59:52Z</time>
      </trkpt>
      <trkpt lat="48.42334" lon="3.65355">
        <ele>142.21</ele>
        <time>2014-09-20T13:59:54Z</time>
      </trkpt>
      <trkpt lat="48.42331" lon="3.65349">
        <ele>142.66</ele>
        <time>2014-09-20T13:59:56Z</time>
      </trkpt>
      <trkpt lat="48.42333" lon="3.65341">
        <ele>142.93</ele>
        <time>2014-09-20T13:59:58Z</time>
      </trkpt>
      <trkpt lat="48.42337" lon="3.65334">
        <ele>143.06</ele>
        <time>2014-09-20T14:00:00Z</time>
      </trkpt>
      <trkpt lat="48.4234" lon="3.65326">
        <ele>142.93</ele>
        <time>2014-09-20T14:00:02Z</time>
      </trkpt>
      <trkpt lat="48.42341" lon="3.65315">
        <ele>142.55</ele>
        <time>2014-09-20T14:00:04Z</time>
      </trkpt>
      <trkpt lat="48.42343" lon="3.65305">
        <ele>142.12</ele>
        <time>2014-09-20T14:00:06Z</time>
      </trkpt>
      <trkpt lat="48.42344" lon="3.65292">
        <ele>141.91</ele>
        <time>2014-09-20T14:00:08Z</time>
      </trkpt>
      <trkpt lat="48.42345" lon="3.65285">
        <ele>141.87</ele>
        <time>2014-09-20T14:00:09Z</time>
      </trkpt>
      <trkpt lat="48.42348" lon="3.65273">
        <ele>141.87</ele>
        <time>2014-09-20T14:00:11Z</time>
      </trkpt>
      <trkpt lat="48.42351" lon="3.65261">
        <ele>142.1</ele>
        <time>2014-09-20T14:00:13Z</time>
      </trkpt>
      <trkpt lat="48.42353" lon="3.65255">
        <ele>142.23</ele>
        <time>2014-09-20T14:00:14Z</time>
      </trkpt>
      <trkpt lat="48.42354" lon="3.65247">
        <ele>142.31</ele>
        <time>2014-09-20T14:00:15Z</time>
      </trkpt>
      <trkpt lat="48.42354" lon="3.65239">
        <ele>142.29</ele>
        <time>2014-09-20T14:00:16Z</time>
      </trkpt>
      <trkpt lat="48.42353" lon="3.65226">
        <ele>142.27</ele>
        <time>2014-09-20T14:00:18Z</time>
      </trkpt>
      <trkpt lat="48.42351" lon="3.65219">
        <ele>142.46</ele>
        <time>2014-09-20T14:00:19Z</time>
      </trkpt>
      <trkpt lat="48.42349" lon="3.6521">
        <ele>142.85</ele>
        <time>2014-09-20T14:00:21Z</time>
      </trkpt>
      <trkpt lat="48.42346" lon="3.65205">
        <ele>143.32</ele>
        <time>2014-09-20T14:00:23Z</time>
      </trkpt>
      <trkpt lat="48.42344" lon="3.65199">
        <ele>143.85</ele>
        <time>2014-09-20T14:00:25Z</time>
      </trkpt>
      <trkpt lat="48.42342" lon="3.65192">
        <ele>144.47</ele>
        <time>2014-09-20T14:00:27Z</time>
      </trkpt>
      <trkpt lat="48.4234" lon="3.65186">
        <ele>145.12</ele>
        <time>2014-09-20T14:00:29Z</time>
      </trkpt>
      <trkpt lat="48.42338" lon="3.65178">
        <ele>145.55</ele>
        <time>2014-09-20T14:00:31Z</time>
      </trkpt>
      <trkpt lat="48.42336" lon="3.65172">
        <ele>145.98</ele>
        <time>2014-09-20T14:00:33Z</time>
      </trkpt>
      <trkpt lat="48.42333" lon="3.65164">
        <ele>146.31</ele>
        <time>2014-09-20T14:00:35Z</time>
      </trkpt>
      <trkpt lat="48.42329" lon="3.65157">
        <ele>146.72</ele>
        <time>2014-09-20T14:00:37Z</time>
      </trkpt>
      <trkpt lat="48.42327" lon="3.65148">
        <ele>147.12</ele>
        <time>2014-09-20T14:00:39Z</time>
      </trkpt>
      <trkpt lat="48.42325" lon="3.65139">
        <ele>147.43</ele>
        <time>2014-09-20T14:00:41Z</time>
      </trkpt>
      <trkpt lat="48.4232" lon="3.65134">
        <ele>147.77</ele>
        <time>2014-09-20T14:00:43Z</time>
      </trkpt>
      <trkpt lat="48.42316" lon="3.65128">
        <ele>147.94</ele>
        <time>2014-09-20T14:00:45Z</time>
      </trkpt>
      <trkpt lat="48.42314" lon="3.6512">
        <ele>147.87</ele>
        <time>2014-09-20T14:00:47Z</time>
      </trkpt>
      <trkpt lat="48.4231" lon="3.65115">
        <ele>147.94</ele>
        <time>2014-09-20T14:00:49Z</time>
      </trkpt>
      <trkpt lat="48.42308" lon="3.65108">
        <ele>148.11</ele>
        <time>2014-09-20T14:00:51Z</time>
      </trkpt>
      <trkpt lat="48.42305" lon="3.65102">
        <ele>148.35</ele>
        <time>2014-09-20T14:00:53Z</time>
      </trkpt>
      <trkpt lat="48.42301" lon="3.65096">
        <ele>148.92</ele>
        <time>2014-09-20T14:00:55Z</time>
      </trkpt>
      <trkpt lat="48.42298" lon="3.65088">
        <ele>149.71</ele>
        <time>2014-09-20T14:00:58Z</time>
      </trkpt>
      <trkpt lat="48.42295" lon="3.65082">
        <ele>150.11</ele>
        <time>2014-09-20T14:01:00Z</time>
      </trkpt>
      <trkpt lat="48.42291" lon="3.65075">
        <ele>150.29</ele>
        <time>2014-09-20T14:01:02Z</time>
      </trkpt>
      <trkpt lat="48.42289" lon="3.65069">
        <ele>150.43</ele>
        <time>2014-09-20T14:01:04Z</time>
      </trkpt>
      <trkpt lat="48.42283" lon="3.65063">
        <ele>150.55</ele>
        <time>2014-09-20T14:01:06Z</time>
      </trkpt>
      <trkpt lat="48.42278" lon="3.65058">
        <ele>150.32</ele>
        <time>2014-09-20T14:01:08Z</time>
      </trkpt>
      <trkpt lat="48.42273" lon="3.65052">
        <ele>150.32</ele>
        <time>2014-09-20T14:01:10Z</time>
      </trkpt>
      <trkpt lat="48.42269" lon="3.65044">
        <ele>150.39</ele>
        <time>2014-09-20T14:01:12Z</time>
      </trkpt>
      <trkpt lat="48.42264" lon="3.65036">
        <ele>150.37</ele>
        <time>2014-09-20T14:01:14Z</time>
      </trkpt>
      <trkpt lat="48.42258" lon="3.65029">
        <ele>150.11</ele>
        <time>2014-09-20T14:01:16Z</time>
      </trkpt>
      <trkpt lat="48.42259" lon="3.65017">
        <ele>149.5</ele>
        <time>2014-09-20T14:01:18Z</time>
      </trkpt>
      <trkpt lat="48.4226" lon="3.65008">
        <ele>149.07</ele>
        <time>2014-09-20T14:01:20Z</time>
      </trkpt>
      <trkpt lat="48.4226" lon="3.64999">
        <ele>148.84</ele>
        <time>2014-09-20T14:01:22Z</time>
      </trkpt>
      <trkpt lat="48.42261" lon="3.6499">
        <ele>148.82</ele>
        <time>2014-09-20T14:01:24Z</time>
      </trkpt>
      <trkpt lat="48.42262" lon="3.6498">
        <ele>148.8</ele>
        <time>2014-09-20T14:01:26Z</time>
      </trkpt>
      <trkpt lat="48.42264" lon="3.64971">
        <ele>148.59</ele>
        <time>2014-09-20T14:01:28Z</time>
      </trkpt>
      <trkpt lat="48.42265" lon="3.64962">
        <ele>148.27</ele>
        <time>2014-09-20T14:01:30Z</time>
      </trkpt>
      <trkpt lat="48.42266" lon="3.64953">
        <ele>148.18</ele>
        <time>2014-09-20T14:01:32Z</time>
      </trkpt>
      <trkpt lat="48.42267" lon="3.64944">
        <ele>148.18</ele>
        <time>2014-09-20T14:01:34Z</time>
      </trkpt>
      <trkpt lat="48.42269" lon="3.64936">
        <ele>148.19</ele>
        <time>2014-09-20T14:01:36Z</time>
      </trkpt>
      <trkpt lat="48.4227" lon="3.64929">
        <ele>148.21</ele>
        <time>2014-09-20T14:01:38Z</time>
      </trkpt>
      <trkpt lat="48.42275" lon="3.64921">
        <ele>148.29</ele>
        <time>2014-09-20T14:01:40Z</time>
      </trkpt>
      <trkpt lat="48.42276" lon="3.64913">
        <ele>148.33</ele>
        <time>2014-09-20T14:01:42Z</time>
      </trkpt>
      <trkpt lat="48.42277" lon="3.64904">
        <ele>148.44</ele>
        <time>2014-09-20T14:01:44Z</time>
      </trkpt>
      <trkpt lat="48.42278" lon="3.64895">
        <ele>148.5</ele>
        <time>2014-09-20T14:01:46Z</time>
      </trkpt>
      <trkpt lat="48.42277" lon="3.64886">
        <ele>148.67</ele>
        <time>2014-09-20T14:01:48Z</time>
      </trkpt>
      <trkpt lat="48.42276" lon="3.64876">
        <ele>148.78</ele>
        <time>2014-09-20T14:01:50Z</time>
      </trkpt>
      <trkpt lat="48.42276" lon="3.64866">
        <ele>148.84</ele>
        <time>2014-09-20T14:01:52Z</time>
      </trkpt>
      <trkpt lat="48.42276" lon="3.64855">
        <ele>148.84</ele>
        <time>2014-09-20T14:01:54Z</time>
      </trkpt>
      <trkpt lat="48.42276" lon="3.64846">
        <ele>148.81</ele>
        <time>2014-09-20T14:01:56Z</time>
      </trkpt>
      <trkpt lat="48.42277" lon="3.64838">
        <ele>148.96</ele>
        <time>2014-09-20T14:01:58Z</time>
      </trkpt>
      <trkpt lat="48.42279" lon="3.6483">
        <ele>149.19</ele>
        <time>2014-09-20T14:02:00Z</time>
      </trkpt>
      <trkpt lat="48.42281" lon="3.64823">
        <ele>149.48</ele>
        <time>2014-09-20T14:02:02Z</time>
      </trkpt>
      <trkpt lat="48.42283" lon="3.64816">
        <ele>149.98</ele>
        <time>2014-09-20T14:02:04Z</time>
      </trkpt>
      <trkpt lat="48.42284" lon="3.64805">
        <ele>150.56</ele>
        <time>2014-09-20T14:02:07Z</time>
      </trkpt>
      <trkpt lat="48.42285" lon="3.64795">
        <ele>150.91</ele>
        <time>2014-09-20T14:02:09Z</time>
      </trkpt>
      <trkpt lat="48.42285" lon="3.64785">
        <ele>151.42</ele>
        <time>2014-09-20T14:02:11Z</time>
      </trkpt>
      <trkpt lat="48.42285" lon="3.64774">
        <ele>151.8</ele>
        <time>2014-09-20T14:02:13Z</time>
      </trkpt>
      <trkpt lat="48.42284" lon="3.64764">
        <ele>152.14</ele>
        <time>2014-09-20T14:02:15Z</time>
      </trkpt>
      <trkpt lat="48.42283" lon="3.64754">
        <ele>152.47</ele>
        <time>2014-09-20T14:02:17Z</time>
      </trkpt>
      <trkpt lat="48.42279" lon="3.64747">
        <ele>152.88</ele>
        <time>2014-09-20T14:02:19Z</time>
      </trkpt>
      <trkpt lat="48.42277" lon="3.64737">
        <ele>153.32</ele>
        <time>2014-09-20T14:02:21Z</time>
      </trkpt>
      <trkpt lat="48.42277" lon="3.64729">
        <ele>153.45</ele>
        <time>2014-09-20T14:02:23Z</time>
      </trkpt>
      <trkpt lat="48.42275" lon="3.6472">
        <ele>153.55</ele>
        <time>2014-09-20T14:02:25Z</time>
      </trkpt>
      <trkpt lat="48.42272" lon="3.64712">
        <ele>153.7</ele>
        <time>2014-09-20T14:02:27Z</time>
      </trkpt>
      <trkpt lat="48.4227" lon="3.64703">
        <ele>153.89</ele>
        <time>2014-09-20T14:02:29Z</time>
      </trkpt>
      <trkpt lat="48.42269" lon="3.64694">
        <ele>154.38</ele>
        <time>2014-09-20T14:02:31Z</time>
      </trkpt>
      <trkpt lat="48.42268" lon="3.64686">
        <ele>154.96</ele>
        <time>2014-09-20T14:02:33Z</time>
      </trkpt>
      <trkpt lat="48.42268" lon="3.64676">
        <ele>155.5</ele>
        <time>2014-09-20T14:02:35Z</time>
      </trkpt>
      <trkpt lat="48.42265" lon="3.64668">
        <ele>155.85</ele>
        <time>2014-09-20T14:02:38Z</time>
      </trkpt>
      <trkpt lat="48.42264" lon="3.64661">
        <ele>156.05</ele>
        <time>2014-09-20T14:02:40Z</time>
      </trkpt>
      <trkpt lat="48.42263" lon="3.64654">
        <ele>156.28</ele>
        <time>2014-09-20T14:02:42Z</time>
      </trkpt>
      <trkpt lat="48.4226" lon="3.64645">
        <ele>156.27</ele>
        <time>2014-09-20T14:02:44Z</time>
      </trkpt>
      <trkpt lat="48.42259" lon="3.64636">
        <ele>156.3</ele>
        <time>2014-09-20T14:02:46Z</time>
      </trkpt>
      <trkpt lat="48.42258" lon="3.64627">
        <ele>156.47</ele>
        <time>2014-09-20T14:02:48Z</time>
      </trkpt>
      <trkpt lat="48.42256" lon="3.64617">
        <ele>156.57</ele>
        <time>2014-09-20T14:02:50Z</time>
      </trkpt>
      <trkpt lat="48.42254" lon="3.64611">
        <ele>156.54</ele>
        <time>2014-09-20T14:02:51Z</time>
      </trkpt>
      <trkpt lat="48.42251" lon="3.64599">
        <ele>156.36</ele>
        <time>2014-09-20T14:02:53Z</time>
      </trkpt>
      <trkpt lat="48.42249" lon="3.6459">
        <ele>156.24</ele>
        <time>2014-09-20T14:02:55Z</time>
      </trkpt>
      <trkpt lat="48.4225" lon="3.64579">
        <ele>156.02</ele>
        <time>2014-09-20T14:02:57Z</time>
      </trkpt>
      <trkpt lat="48.42252" lon="3.64568">
        <ele>155.84</ele>
        <time>2014-09-20T14:02:59Z</time>
      </trkpt>
      <trkpt lat="48.42254" lon="3.64558">
        <ele>155.91</ele>
        <time>2014-09-20T14:03:01Z</time>
      </trkpt>
      <trkpt lat="48.42257" lon="3.64547">
        <ele>156.07</ele>
        <time>2014-09-20T14:03:03Z</time>
      </trkpt>
      <trkpt lat="48.42259" lon="3.64537">
        <ele>156.19</ele>
        <time>2014-09-20T14:03:05Z</time>
      </trkpt>
      <trkpt lat="48.42262" lon="3.64528">
        <ele>156.26</ele>
        <time>2014-09-20T14:03:07Z</time>
      </trkpt>
      <trkpt lat="48.42268" lon="3.64531">
        <ele>155.72</ele>
        <time>2014-09-20T14:03:10Z</time>
      </trkpt>
      <trkpt lat="48.42273" lon="3.64535">
        <ele>154.96</ele>
        <time>2014-09-20T14:03:12Z</time>
      </trkpt>
      <trkpt lat="48.42279" lon="3.6454">
        <ele>154.12</ele>
        <time>2014-09-20T14:03:14Z</time>
      </trkpt>
      <trkpt lat="48.42287" lon="3.64547">
        <ele>153.22</ele>
        <time>2014-09-20T14:03:16Z</time>
      </trkpt>
      <trkpt lat="48.42293" lon="3.64554">
        <ele>152.36</ele>
        <time>2014-09-20T14:03:18Z</time>
      </trkpt>
      <trkpt lat="48.42299" lon="3.64562">
        <ele>151.56</ele>
        <time>2014-09-20T14:03:20Z</time>
      </trkpt>
      <trkpt lat="48.42307" lon="3.64569">
        <ele>150.57</ele>
        <time>2014-09-20T14:03:22Z</time>
      </trkpt>
      <trkpt lat="48.42315" lon="3.64576">
        <ele>150.01</ele>
        <time>2014-09-20T14:03:24Z</time>
      </trkpt>
      <trkpt lat="48.4232" lon="3.64579">
        <ele>149.89</ele>
        <time>2014-09-20T14:03:25Z</time>
      </trkpt>
      <trkpt lat="48.42326" lon="3.64583">
        <ele>149.75</ele>
        <time>2014-09-20T14:03:26Z</time>
      </trkpt>
      <trkpt lat="48.42332" lon="3.64586">
        <ele>149.57</ele>
        <time>2014-09-20T14:03:27Z</time>
      </trkpt>
      <trkpt lat="48.42339" lon="3.64589">
        <ele>149.38</ele>
        <time>2014-09-20T14:03:28Z</time>
      </trkpt>
      <trkpt lat="48.42346" lon="3.64588">
        <ele>149.12</ele>
        <time>2014-09-20T14:03:30Z</time>
      </trkpt>
      <trkpt lat="48.4235" lon="3.6458">
        <ele>148.97</ele>
        <time>2014-09-20T14:03:32Z</time>
      </trkpt>
      <trkpt lat="48.42352" lon="3.64574">
        <ele>148.86</ele>
        <time>2014-09-20T14:03:33Z</time>
      </trkpt>
      <trkpt lat="48.42353" lon="3.64565">
        <ele>148.8</ele>
        <time>2014-09-20T14:03:34Z</time>
      </trkpt>
      <trkpt lat="48.42354" lon="3.64556">
        <ele>148.78</ele>
        <time>2014-09-20T14:03:35Z</time>
      </trkpt>
      <trkpt lat="48.42356" lon="3.64549">
        <ele>148.74</ele>
        <time>2014-09-20T14:03:36Z</time>
      </trkpt>
      <trkpt lat="48.42359" lon="3.64542">
        <ele>148.74</ele>
        <time>2014-09-20T14:03:37Z</time>
      </trkpt>
      <trkpt lat="48.42362" lon="3.64535">
        <ele>148.69</ele>
        <time>2014-09-20T14:03:38Z</time>
      </trkpt>
      <trkpt lat="48.42364" lon="3.64528">
        <ele>148.62</ele>
        <time>2014-09-20T14:03:39Z</time>
      </trkpt>
      <trkpt lat="48.42366" lon="3.64521">
        <ele>148.55</ele>
        <time>2014-09-20T14:03:40Z</time>
      </trkpt>
      <trkpt lat="48.42368" lon="3.64514">
        <ele>148.52</ele>
        <time>2014-09-20T14:03:41Z</time>
      </trkpt>
      <trkpt lat="48.42371" lon="3.64502">
        <ele>148.34</ele>
        <time>2014-09-20T14:03:43Z</time>
      </trkpt>
      <trkpt lat="48.42374" lon="3.6449">
        <ele>147.95</ele>
        <time>2014-09-20T14:03:45Z</time>
      </trkpt>
      <trkpt lat="48.42378" lon="3.6448">
        <ele>147.76</ele>
        <time>2014-09-20T14:03:47Z</time>
      </trkpt>
      <trkpt lat="48.42387" lon="3.64483">
        <ele>147.54</ele>
        <time>2014-09-20T14:03:49Z</time>
      </trkpt>
      <trkpt lat="48.42397" lon="3.64483">
        <ele>147.04</ele>
        <time>2014-09-20T14:03:51Z</time>
      </trkpt>
      <trkpt lat="48.42403" lon="3.64478">
        <ele>146.48</ele>
        <time>2014-09-20T14:03:53Z</time>
      </trkpt>
      <trkpt lat="48.42409" lon="3.64481">
        <ele>146.04</ele>
        <time>2014-09-20T14:03:55Z</time>
      </trkpt>
      <trkpt lat="48.42416" lon="3.64487">
        <ele>145.41</ele>
        <time>2014-09-20T14:03:57Z</time>
      </trkpt>
      <trkpt lat="48.42423" lon="3.64494">
        <ele>144.49</ele>
        <time>2014-09-20T14:03:59Z</time>
      </trkpt>
      <trkpt lat="48.42427" lon="3.64498">
        <ele>144</ele>
        <time>2014-09-20T14:04:00Z</time>
      </trkpt>
      <trkpt lat="48.42432" lon="3.64501">
        <ele>143.51</ele>
        <time>2014-09-20T14:04:01Z</time>
      </trkpt>
      <trkpt lat="48.42438" lon="3.64505">
        <ele>143.06</ele>
        <time>2014-09-20T14:04:02Z</time>
      </trkpt>
      <trkpt lat="48.42443" lon="3.6451">
        <ele>142.7</ele>
        <time>2014-09-20T14:04:03Z</time>
      </trkpt>
      <trkpt lat="48.42449" lon="3.64514">
        <ele>142.36</ele>
        <time>2014-09-20T14:04:04Z</time>
      </trkpt>
      <trkpt lat="48.42453" lon="3.64519">
        <ele>142.1</ele>
        <time>2014-09-20T14:04:05Z</time>
      </trkpt>
      <trkpt lat="48.42458" lon="3.64525">
        <ele>141.96</ele>
        <time>2014-09-20T14:04:06Z</time>
      </trkpt>
      <trkpt lat="48.42463" lon="3.64529">
        <ele>141.85</ele>
        <time>2014-09-20T14:04:07Z</time>
      </trkpt>
      <trkpt lat="48.42467" lon="3.64533">
        <ele>141.79</ele>
        <time>2014-09-20T14:04:08Z</time>
      </trkpt>
      <trkpt lat="48.42473" lon="3.64538">
        <ele>141.75</ele>
        <time>2014-09-20T14:04:09Z</time>
      </trkpt>
      <trkpt lat="48.42479" lon="3.64543">
        <ele>141.72</ele>
        <time>2014-09-20T14:04:10Z</time>
      </trkpt>
      <trkpt lat="48.42485" lon="3.64547">
        <ele>141.85</ele>
        <time>2014-09-20T14:04:11Z</time>
      </trkpt>
      <trkpt lat="48.4249" lon="3.64552">
        <ele>141.97</ele>
        <time>2014-09-20T14:04:12Z</time>
      </trkpt>
      <trkpt lat="48.42495" lon="3.64557">
        <ele>141.98</ele>
        <time>2014-09-20T14:04:13Z</time>
      </trkpt>
      <trkpt lat="48.425" lon="3.6456">
        <ele>141.94</ele>
        <time>2014-09-20T14:04:14Z</time>
      </trkpt>
      <trkpt lat="48.42504" lon="3.64563">
        <ele>141.74</ele>
        <time>2014-09-20T14:04:15Z</time>
      </trkpt>
      <trkpt lat="48.42511" lon="3.64569">
        <ele>141.25</ele>
        <time>2014-09-20T14:04:17Z</time>
      </trkpt>
      <trkpt lat="48.42515" lon="3.64572">
        <ele>141.07</ele>
        <time>2014-09-20T14:04:18Z</time>
      </trkpt>
      <trkpt lat="48.42522" lon="3.64575">
        <ele>140.85</ele>
        <time>2014-09-20T14:04:20Z</time>
      </trkpt>
      <trkpt lat="48.42531" lon="3.64577">
        <ele>140.8</ele>
        <time>2014-09-20T14:04:22Z</time>
      </trkpt>
      <trkpt lat="48.42536" lon="3.64577">
        <ele>140.81</ele>
        <time>2014-09-20T14:04:23Z</time>
      </trkpt>
      <trkpt lat="48.42543" lon="3.64579">
        <ele>140.75</ele>
        <time>2014-09-20T14:04:25Z</time>
      </trkpt>
      <trkpt lat="48.42552" lon="3.6458">
        <ele>140.85</ele>
        <time>2014-09-20T14:04:27Z</time>
      </trkpt>
      <trkpt lat="48.42561" lon="3.6458">
        <ele>140.76</ele>
        <time>2014-09-20T14:04:29Z</time>
      </trkpt>
      <trkpt lat="48.42567" lon="3.64579">
        <ele>140.78</ele>
        <time>2014-09-20T14:04:30Z</time>
      </trkpt>
      <trkpt lat="48.42573" lon="3.64579">
        <ele>140.81</ele>
        <time>2014-09-20T14:04:31Z</time>
      </trkpt>
      <trkpt lat="48.4258" lon="3.64579">
        <ele>140.82</ele>
        <time>2014-09-20T14:04:32Z</time>
      </trkpt>
      <trkpt lat="48.42585" lon="3.64579">
        <ele>140.79</ele>
        <time>2014-09-20T14:04:33Z</time>
      </trkpt>
      <trkpt lat="48.42591" lon="3.64579">
        <ele>140.68</ele>
        <time>2014-09-20T14:04:34Z</time>
      </trkpt>
      <trkpt lat="48.42597" lon="3.64579">
        <ele>140.54</ele>
        <time>2014-09-20T14:04:35Z</time>
      </trkpt>
      <trkpt lat="48.42602" lon="3.64578">
        <ele>140.34</ele>
        <time>2014-09-20T14:04:36Z</time>
      </trkpt>
      <trkpt lat="48.42606" lon="3.64577">
        <ele>140.11</ele>
        <time>2014-09-20T14:04:37Z</time>
      </trkpt>
      <trkpt lat="48.4261" lon="3.64574">
        <ele>139.86</ele>
        <time>2014-09-20T14:04:38Z</time>
      </trkpt>
      <trkpt lat="48.42616" lon="3.6457">
        <ele>139.58</ele>
        <time>2014-09-20T14:04:39Z</time>
      </trkpt>
      <trkpt lat="48.42621" lon="3.64565">
        <ele>139.27</ele>
        <time>2014-09-20T14:04:40Z</time>
      </trkpt>
      <trkpt lat="48.42627" lon="3.64561">
        <ele>138.93</ele>
        <time>2014-09-20T14:04:41Z</time>
      </trkpt>
      <trkpt lat="48.42632" lon="3.64557">
        <ele>138.56</ele>
        <time>2014-09-20T14:04:42Z</time>
      </trkpt>
      <trkpt lat="48.4264" lon="3.64555">
        <ele>137.97</ele>
        <time>2014-09-20T14:04:43Z</time>
      </trkpt>
      <trkpt lat="48.42647" lon="3.64553">
        <ele>137.54</ele>
        <time>2014-09-20T14:04:44Z</time>
      </trkpt>
      <trkpt lat="48.42653" lon="3.64549">
        <ele>137.16</ele>
        <time>2014-09-20T14:04:45Z</time>
      </trkpt>
      <trkpt lat="48.4266" lon="3.64546">
        <ele>136.68</ele>
        <time>2014-09-20T14:04:46Z</time>
      </trkpt>
      <trkpt lat="48.42665" lon="3.64543">
        <ele>136.21</ele>
        <time>2014-09-20T14:04:47Z</time>
      </trkpt>
      <trkpt lat="48.42671" lon="3.6454">
        <ele>135.74</ele>
        <time>2014-09-20T14:04:48Z</time>
      </trkpt>
      <trkpt lat="48.42676" lon="3.64538">
        <ele>135.29</ele>
        <time>2014-09-20T14:04:49Z</time>
      </trkpt>
      <trkpt lat="48.42682" lon="3.64538">
        <ele>134.8</ele>
        <time>2014-09-20T14:04:50Z</time>
      </trkpt>
      <trkpt lat="48.42687" lon="3.64539">
        <ele>134.28</ele>
        <time>2014-09-20T14:04:51Z</time>
      </trkpt>
      <trkpt lat="48.42694" lon="3.64542">
        <ele>133.77</ele>
        <time>2014-09-20T14:04:52Z</time>
      </trkpt>
      <trkpt lat="48.42702" lon="3.64546">
        <ele>133.18</ele>
        <time>2014-09-20T14:04:53Z</time>
      </trkpt>
      <trkpt lat="48.42709" lon="3.64549">
        <ele>132.59</ele>
        <time>2014-09-20T14:04:54Z</time>
      </trkpt>
      <trkpt lat="48.42715" lon="3.6455">
        <ele>132.1</ele>
        <time>2014-09-20T14:04:55Z</time>
      </trkpt>
      <trkpt lat="48.42722" lon="3.64552">
        <ele>131.76</ele>
        <time>2014-09-20T14:04:56Z</time>
      </trkpt>
      <trkpt lat="48.42727" lon="3.64552">
        <ele>131.33</ele>
        <time>2014-09-20T14:04:57Z</time>
      </trkpt>
      <trkpt lat="48.42734" lon="3.64551">
        <ele>130.43</ele>
        <time>2014-09-20T14:04:58Z</time>
      </trkpt>
      <trkpt lat="48.42738" lon="3.64544">
        <ele>129.38</ele>
        <time>2014-09-20T14:04:59Z</time>
      </trkpt>
      <trkpt lat="48.42741" lon="3.64536">
        <ele>128.21</ele>
        <time>2014-09-20T14:05:00Z</time>
      </trkpt>
      <trkpt lat="48.42743" lon="3.64526">
        <ele>127.12</ele>
        <time>2014-09-20T14:05:01Z</time>
      </trkpt>
      <trkpt lat="48.42745" lon="3.64516">
        <ele>126.17</ele>
        <time>2014-09-20T14:05:02Z</time>
      </trkpt>
      <trkpt lat="48.42747" lon="3.64506">
        <ele>125.31</ele>
        <time>2014-09-20T14:05:03Z</time>
      </trkpt>
      <trkpt lat="48.42749" lon="3.64495">
        <ele>124.46</ele>
        <time>2014-09-20T14:05:04Z</time>
      </trkpt>
      <trkpt lat="48.42752" lon="3.64484">
        <ele>123.73</ele>
        <time>2014-09-20T14:05:05Z</time>
      </trkpt>
      <trkpt lat="48.42754" lon="3.64473">
        <ele>123.08</ele>
        <time>2014-09-20T14:05:06Z</time>
      </trkpt>
      <trkpt lat="48.42756" lon="3.64461">
        <ele>122.52</ele>
        <time>2014-09-20T14:05:07Z</time>
      </trkpt>
      <trkpt lat="48.42758" lon="3.6445">
        <ele>122.07</ele>
        <time>2014-09-20T14:05:08Z</time>
      </trkpt>
      <trkpt lat="48.4276" lon="3.64438">
        <ele>121.68</ele>
        <time>2014-09-20T14:05:09Z</time>
      </trkpt>
      <trkpt lat="48.4276" lon="3.64427">
        <ele>121.37</ele>
        <time>2014-09-20T14:05:10Z</time>
      </trkpt>
      <trkpt lat="48.42759" lon="3.64417">
        <ele>121.06</ele>
        <time>2014-09-20T14:05:11Z</time>
      </trkpt>
      <trkpt lat="48.42756" lon="3.64409">
        <ele>120.85</ele>
        <time>2014-09-20T14:05:12Z</time>
      </trkpt>
      <trkpt lat="48.42752" lon="3.64404">
        <ele>120.7</ele>
        <time>2014-09-20T14:05:13Z</time>
      </trkpt>
      <trkpt lat="48.42747" lon="3.64399">
        <ele>120.63</ele>
        <time>2014-09-20T14:05:14Z</time>
      </trkpt>
      <trkpt lat="48.42743" lon="3.64395">
        <ele>120.6</ele>
        <time>2014-09-20T14:05:15Z</time>
      </trkpt>
      <trkpt lat="48.42739" lon="3.64392">
        <ele>120.58</ele>
        <time>2014-09-20T14:05:16Z</time>
      </trkpt>
      <trkpt lat="48.42735" lon="3.64388">
        <ele>120.62</ele>
        <time>2014-09-20T14:05:17Z</time>
      </trkpt>
      <trkpt lat="48.42727" lon="3.64384">
        <ele>120.76</ele>
        <time>2014-09-20T14:05:19Z</time>
      </trkpt>
      <trkpt lat="48.42719" lon="3.64379">
        <ele>120.9</ele>
        <time>2014-09-20T14:05:21Z</time>
      </trkpt>
      <trkpt lat="48.42713" lon="3.64373">
        <ele>121</ele>
        <time>2014-09-20T14:05:23Z</time>
      </trkpt>
      <trkpt lat="48.42708" lon="3.64367">
        <ele>121.12</ele>
        <time>2014-09-20T14:05:25Z</time>
      </trkpt>
      <trkpt lat="48.42703" lon="3.6436">
        <ele>121.32</ele>
        <time>2014-09-20T14:05:27Z</time>
      </trkpt>
      <trkpt lat="48.42699" lon="3.64352">
        <ele>121.61</ele>
        <time>2014-09-20T14:05:29Z</time>
      </trkpt>
      <trkpt lat="48.42696" lon="3.64344">
        <ele>121.95</ele>
        <time>2014-09-20T14:05:31Z</time>
      </trkpt>
      <trkpt lat="48.42693" lon="3.64336">
        <ele>122.25</ele>
        <time>2014-09-20T14:05:33Z</time>
      </trkpt>
      <trkpt lat="48.42689" lon="3.64328">
        <ele>122.51</ele>
        <time>2014-09-20T14:05:35Z</time>
      </trkpt>
      <trkpt lat="48.42686" lon="3.6432">
        <ele>122.81</ele>
        <time>2014-09-20T14:05:37Z</time>
      </trkpt>
      <trkpt lat="48.42682" lon="3.64314">
        <ele>123.04</ele>
        <time>2014-09-20T14:05:39Z</time>
      </trkpt>
      <trkpt lat="48.42679" lon="3.64307">
        <ele>123.39</ele>
        <time>2014-09-20T14:05:41Z</time>
      </trkpt>
      <trkpt lat="48.42676" lon="3.64299">
        <ele>123.61</ele>
        <time>2014-09-20T14:05:43Z</time>
      </trkpt>
      <trkpt lat="48.42672" lon="3.64292">
        <ele>123.75</ele>
        <time>2014-09-20T14:05:45Z</time>
      </trkpt>
      <trkpt lat="48.42669" lon="3.64285">
        <ele>123.81</ele>
        <time>2014-09-20T14:05:47Z</time>
      </trkpt>
      <trkpt lat="48.42666" lon="3.64278">
        <ele>123.93</ele>
        <time>2014-09-20T14:05:49Z</time>
      </trkpt>
      <trkpt lat="48.42663" lon="3.64271">
        <ele>124.03</ele>
        <time>2014-09-20T14:05:51Z</time>
      </trkpt>
      <trkpt lat="48.4266" lon="3.64263">
        <ele>124.14</ele>
        <time>2014-09-20T14:05:53Z</time>
      </trkpt>
      <trkpt lat="48.42656" lon="3.64256">
        <ele>124.22</ele>
        <time>2014-09-20T14:05:55Z</time>
      </trkpt>
      <trkpt lat="48.42653" lon="3.64249">
        <ele>124.34</ele>
        <time>2014-09-20T14:05:57Z</time>
      </trkpt>
      <trkpt lat="48.42651" lon="3.64242">
        <ele>124.56</ele>
        <time>2014-09-20T14:05:59Z</time>
      </trkpt>
      <trkpt lat="48.42648" lon="3.64234">
        <ele>124.93</ele>
        <time>2014-09-20T14:06:01Z</time>
      </trkpt>
      <trkpt lat="48.42646" lon="3.64228">
        <ele>125.49</ele>
        <time>2014-09-20T14:06:03Z</time>
      </trkpt>
      <trkpt lat="48.42643" lon="3.64221">
        <ele>126.04</ele>
        <time>2014-09-20T14:06:05Z</time>
      </trkpt>
      <trkpt lat="48.42639" lon="3.64215">
        <ele>126.45</ele>
        <time>2014-09-20T14:06:07Z</time>
      </trkpt>
      <trkpt lat="48.42639" lon="3.64206">
        <ele>127.04</ele>
        <time>2014-09-20T14:06:10Z</time>
      </trkpt>
      <trkpt lat="48.42642" lon="3.64197">
        <ele>127.62</ele>
        <time>2014-09-20T14:06:13Z</time>
      </trkpt>
      <trkpt lat="48.42647" lon="3.64193">
        <ele>127.82</ele>
        <time>2014-09-20T14:06:15Z</time>
      </trkpt>
      <trkpt lat="48.42654" lon="3.64186">
        <ele>127.78</ele>
        <time>2014-09-20T14:06:17Z</time>
      </trkpt>
      <trkpt lat="48.42658" lon="3.64183">
        <ele>127.71</ele>
        <time>2014-09-20T14:06:18Z</time>
      </trkpt>
      <trkpt lat="48.42662" lon="3.64177">
        <ele>127.67</ele>
        <time>2014-09-20T14:06:19Z</time>
      </trkpt>
      <trkpt lat="48.42665" lon="3.6417">
        <ele>127.61</ele>
        <time>2014-09-20T14:06:20Z</time>
      </trkpt>
      <trkpt lat="48.42668" lon="3.64164">
        <ele>127.51</ele>
        <time>2014-09-20T14:06:21Z</time>
      </trkpt>
      <trkpt lat="48.4267" lon="3.64158">
        <ele>127.39</ele>
        <time>2014-09-20T14:06:22Z</time>
      </trkpt>
      <trkpt lat="48.42668" lon="3.64146">
        <ele>127.14</ele>
        <time>2014-09-20T14:06:24Z</time>
      </trkpt>
      <trkpt lat="48.42666" lon="3.64136">
        <ele>127.08</ele>
        <time>2014-09-20T14:06:26Z</time>
      </trkpt>
      <trkpt lat="48.42663" lon="3.64126">
        <ele>126.95</ele>
        <time>2014-09-20T14:06:28Z</time>
      </trkpt>
      <trkpt lat="48.42661" lon="3.64117">
        <ele>126.59</ele>
        <time>2014-09-20T14:06:30Z</time>
      </trkpt>
      <trkpt lat="48.42658" lon="3.64108">
        <ele>126.39</ele>
        <time>2014-09-20T14:06:32Z</time>
      </trkpt>
      <trkpt lat="48.42656" lon="3.641">
        <ele>126.3</ele>
        <time>2014-09-20T14:06:34Z</time>
      </trkpt>
      <trkpt lat="48.42653" lon="3.64092">
        <ele>126.31</ele>
        <time>2014-09-20T14:06:36Z</time>
      </trkpt>
      <trkpt lat="48.42651" lon="3.64084">
        <ele>126.32</ele>
        <time>2014-09-20T14:06:38Z</time>
      </trkpt>
      <trkpt lat="48.42649" lon="3.64076">
        <ele>126.35</ele>
        <time>2014-09-20T14:06:40Z</time>
      </trkpt>
      <trkpt lat="48.42647" lon="3.64069">
        <ele>126.38</ele>
        <time>2014-09-20T14:06:42Z</time>
      </trkpt>
      <trkpt lat="48.42645" lon="3.64061">
        <ele>126.43</ele>
        <time>2014-09-20T14:06:44Z</time>
      </trkpt>
      <trkpt lat="48.42643" lon="3.64054">
        <ele>126.57</ele>
        <time>2014-09-20T14:06:46Z</time>
      </trkpt>
      <trkpt lat="48.4264" lon="3.64047">
        <ele>126.64</ele>
        <time>2014-09-20T14:06:48Z</time>
      </trkpt>
      <trkpt lat="48.42638" lon="3.6404">
        <ele>126.72</ele>
        <time>2014-09-20T14:06:50Z</time>
      </trkpt>
      <trkpt lat="48.42635" lon="3.64034">
        <ele>126.84</ele>
        <time>2014-09-20T14:06:52Z</time>
      </trkpt>
      <trkpt lat="48.42631" lon="3.64028">
        <ele>126.96</ele>
        <time>2014-09-20T14:06:54Z</time>
      </trkpt>
      <trkpt lat="48.42628" lon="3.64022">
        <ele>127.04</ele>
        <time>2014-09-20T14:06:56Z</time>
      </trkpt>
      <trkpt lat="48.42624" lon="3.64018">
        <ele>127.19</ele>
        <time>2014-09-20T14:06:58Z</time>
      </trkpt>
      <trkpt lat="48.4262" lon="3.64014">
        <ele>127.39</ele>
        <time>2014-09-20T14:07:00Z</time>
      </trkpt>
      <trkpt lat="48.42617" lon="3.64008">
        <ele>127.65</ele>
        <time>2014-09-20T14:07:02Z</time>
      </trkpt>
      <trkpt lat="48.42614" lon="3.64003">
        <ele>128.02</ele>
        <time>2014-09-20T14:07:04Z</time>
      </trkpt>
      <trkpt lat="48.4261" lon="3.63998">
        <ele>128.45</ele>
        <time>2014-09-20T14:07:06Z</time>
      </trkpt>
      <trkpt lat="48.42606" lon="3.63991">
        <ele>129.15</ele>
        <time>2014-09-20T14:07:09Z</time>
      </trkpt>
      <trkpt lat="48.42602" lon="3.63984">
        <ele>129.68</ele>
        <time>2014-09-20T14:07:12Z</time>
      </trkpt>
      <trkpt lat="48.42599" lon="3.63979">
        <ele>130.08</ele>
        <time>2014-09-20T14:07:14Z</time>
      </trkpt>
      <trkpt lat="48.42596" lon="3.63974">
        <ele>130.48</ele>
        <time>2014-09-20T14:07:16Z</time>
      </trkpt>
      <trkpt lat="48.42592" lon="3.63969">
        <ele>130.81</ele>
        <time>2014-09-20T14:07:18Z</time>
      </trkpt>
      <trkpt lat="48.42588" lon="3.63964">
        <ele>131.06</ele>
        <time>2014-09-20T14:07:20Z</time>
      </trkpt>
      <trkpt lat="48.42584" lon="3.63957">
        <ele>131.43</ele>
        <time>2014-09-20T14:07:23Z</time>
      </trkpt>
      <trkpt lat="48.4258" lon="3.63963">
        <ele>131.49</ele>
        <time>2014-09-20T14:07:26Z</time>
      </trkpt>
      <trkpt lat="48.42576" lon="3.63968">
        <ele>131.49</ele>
        <time>2014-09-20T14:07:28Z</time>
      </trkpt>
      <trkpt lat="48.42572" lon="3.63973">
        <ele>131.49</ele>
        <time>2014-09-20T14:07:30Z</time>
      </trkpt>
      <trkpt lat="48.42566" lon="3.63979">
        <ele>131.66</ele>
        <time>2014-09-20T14:07:32Z</time>
      </trkpt>
      <trkpt lat="48.42561" lon="3.63983">
        <ele>132</ele>
        <time>2014-09-20T14:07:34Z</time>
      </trkpt>
      <trkpt lat="48.42557" lon="3.63988">
        <ele>132.39</ele>
        <time>2014-09-20T14:07:36Z</time>
      </trkpt>
      <trkpt lat="48.42552" lon="3.63993">
        <ele>133.03</ele>
        <time>2014-09-20T14:07:39Z</time>
      </trkpt>
      <trkpt lat="48.42548" lon="3.63995">
        <ele>133.7</ele>
        <time>2014-09-20T14:07:41Z</time>
      </trkpt>
      <trkpt lat="48.42544" lon="3.64">
        <ele>134.53</ele>
        <time>2014-09-20T14:07:43Z</time>
      </trkpt>
      <trkpt lat="48.4254" lon="3.64005">
        <ele>135.24</ele>
        <time>2014-09-20T14:07:45Z</time>
      </trkpt>
      <trkpt lat="48.42535" lon="3.6401">
        <ele>135.9</ele>
        <time>2014-09-20T14:07:47Z</time>
      </trkpt>
      <trkpt lat="48.42531" lon="3.64016">
        <ele>136.5</ele>
        <time>2014-09-20T14:07:49Z</time>
      </trkpt>
      <trkpt lat="48.42526" lon="3.64022">
        <ele>136.98</ele>
        <time>2014-09-20T14:07:51Z</time>
      </trkpt>
      <trkpt lat="48.42521" lon="3.64027">
        <ele>137.65</ele>
        <time>2014-09-20T14:07:53Z</time>
      </trkpt>
      <trkpt lat="48.42516" lon="3.64032">
        <ele>138.3</ele>
        <time>2014-09-20T14:07:55Z</time>
      </trkpt>
      <trkpt lat="48.42511" lon="3.64035">
        <ele>138.96</ele>
        <time>2014-09-20T14:07:57Z</time>
      </trkpt>
      <trkpt lat="48.42507" lon="3.64039">
        <ele>139.72</ele>
        <time>2014-09-20T14:07:59Z</time>
      </trkpt>
      <trkpt lat="48.42503" lon="3.64044">
        <ele>140.51</ele>
        <time>2014-09-20T14:08:01Z</time>
      </trkpt>
      <trkpt lat="48.42499" lon="3.64048">
        <ele>141.22</ele>
        <time>2014-09-20T14:08:03Z</time>
      </trkpt>
      <trkpt lat="48.42495" lon="3.64053">
        <ele>141.76</ele>
        <time>2014-09-20T14:08:05Z</time>
      </trkpt>
      <trkpt lat="48.42492" lon="3.64058">
        <ele>142.26</ele>
        <time>2014-09-20T14:08:07Z</time>
      </trkpt>
      <trkpt lat="48.42487" lon="3.64063">
        <ele>143.06</ele>
        <time>2014-09-20T14:08:10Z</time>
      </trkpt>
      <trkpt lat="48.42483" lon="3.64067">
        <ele>143.56</ele>
        <time>2014-09-20T14:08:12Z</time>
      </trkpt>
      <trkpt lat="48.42478" lon="3.64071">
        <ele>143.94</ele>
        <time>2014-09-20T14:08:14Z</time>
      </trkpt>
      <trkpt lat="48.42472" lon="3.64075">
        <ele>144.68</ele>
        <time>2014-09-20T14:08:17Z</time>
      </trkpt>
      <trkpt lat="48.42468" lon="3.64081">
        <ele>145.43</ele>
        <time>2014-09-20T14:08:20Z</time>
      </trkpt>
      <trkpt lat="48.42463" lon="3.64085">
        <ele>146.1</ele>
        <time>2014-09-20T14:08:23Z</time>
      </trkpt>
      <trkpt lat="48.42457" lon="3.64091">
        <ele>146.72</ele>
        <time>2014-09-20T14:08:26Z</time>
      </trkpt>
      <trkpt lat="48.42453" lon="3.64095">
        <ele>147.22</ele>
        <time>2014-09-20T14:08:28Z</time>
      </trkpt>
      <trkpt lat="48.42449" lon="3.64099">
        <ele>147.76</ele>
        <time>2014-09-20T14:08:30Z</time>
      </trkpt>
      <trkpt lat="48.42445" lon="3.64103">
        <ele>148.2</ele>
        <time>2014-09-20T14:08:32Z</time>
      </trkpt>
      <trkpt lat="48.4244" lon="3.64109">
        <ele>148.54</ele>
        <time>2014-09-20T14:08:35Z</time>
      </trkpt>
      <trkpt lat="48.42438" lon="3.64115">
        <ele>148.78</ele>
        <time>2014-09-20T14:08:37Z</time>
      </trkpt>
      <trkpt lat="48.42435" lon="3.64124">
        <ele>149.25</ele>
        <time>2014-09-20T14:08:40Z</time>
      </trkpt>
      <trkpt lat="48.42435" lon="3.64131">
        <ele>149.41</ele>
        <time>2014-09-20T14:08:43Z</time>
      </trkpt>
      <trkpt lat="48.42434" lon="3.64139">
        <ele>149.78</ele>
        <time>2014-09-20T14:08:46Z</time>
      </trkpt>
      <trkpt lat="48.42434" lon="3.64148">
        <ele>150.14</ele>
        <time>2014-09-20T14:08:49Z</time>
      </trkpt>
      <trkpt lat="48.42434" lon="3.64155">
        <ele>150.4</ele>
        <time>2014-09-20T14:08:51Z</time>
      </trkpt>
      <trkpt lat="48.42435" lon="3.64163">
        <ele>150.5</ele>
        <time>2014-09-20T14:08:53Z</time>
      </trkpt>
      <trkpt lat="48.42435" lon="3.64171">
        <ele>150.55</ele>
        <time>2014-09-20T14:08:55Z</time>
      </trkpt>
      <trkpt lat="48.42435" lon="3.6418">
        <ele>150.66</ele>
        <time>2014-09-20T14:08:57Z</time>
      </trkpt>
      <trkpt lat="48.42434" lon="3.6419">
        <ele>150.87</ele>
        <time>2014-09-20T14:08:59Z</time>
      </trkpt>
      <trkpt lat="48.42434" lon="3.642">
        <ele>151.11</ele>
        <time>2014-09-20T14:09:01Z</time>
      </trkpt>
      <trkpt lat="48.42433" lon="3.64208">
        <ele>151.36</ele>
        <time>2014-09-20T14:09:03Z</time>
      </trkpt>
      <trkpt lat="48.42432" lon="3.64217">
        <ele>151.55</ele>
        <time>2014-09-20T14:09:05Z</time>
      </trkpt>
      <trkpt lat="48.4243" lon="3.64228">
        <ele>151.94</ele>
        <time>2014-09-20T14:09:07Z</time>
      </trkpt>
      <trkpt lat="48.42429" lon="3.64238">
        <ele>152.35</ele>
        <time>2014-09-20T14:09:09Z</time>
      </trkpt>
      <trkpt lat="48.42426" lon="3.64246">
        <ele>152.7</ele>
        <time>2014-09-20T14:09:11Z</time>
      </trkpt>
      <trkpt lat="48.42422" lon="3.64254">
        <ele>153.13</ele>
        <time>2014-09-20T14:09:13Z</time>
      </trkpt>
      <trkpt lat="48.42417" lon="3.64261">
        <ele>153.58</ele>
        <time>2014-09-20T14:09:15Z</time>
      </trkpt>
      <trkpt lat="48.42411" lon="3.64263">
        <ele>153.91</ele>
        <time>2014-09-20T14:09:17Z</time>
      </trkpt>
      <trkpt lat="48.42405" lon="3.64259">
        <ele>154.39</ele>
        <time>2014-09-20T14:09:19Z</time>
      </trkpt>
      <trkpt lat="48.42399" lon="3.64253">
        <ele>155.03</ele>
        <time>2014-09-20T14:09:22Z</time>
      </trkpt>
      <trkpt lat="48.42394" lon="3.64249">
        <ele>155.08</ele>
        <time>2014-09-20T14:09:24Z</time>
      </trkpt>
      <trkpt lat="48.42387" lon="3.64244">
        <ele>154.93</ele>
        <time>2014-09-20T14:09:26Z</time>
      </trkpt>
      <trkpt lat="48.42381" lon="3.6424">
        <ele>154.95</ele>
        <time>2014-09-20T14:09:28Z</time>
      </trkpt>
      <trkpt lat="48.42377" lon="3.64236">
        <ele>155.08</ele>
        <time>2014-09-20T14:09:30Z</time>
      </trkpt>
      <trkpt lat="48.42361" lon="3.64217">
        <ele>155.34</ele>
        <time>2014-09-20T14:09:38Z</time>
      </trkpt>
      <trkpt lat="48.42355" lon="3.64211">
        <ele>155.8</ele>
        <time>2014-09-20T14:09:40Z</time>
      </trkpt>
      <trkpt lat="48.42351" lon="3.64205">
        <ele>156.35</ele>
        <time>2014-09-20T14:09:42Z</time>
      </trkpt>
      <trkpt lat="48.42348" lon="3.642">
        <ele>156.89</ele>
        <time>2014-09-20T14:09:44Z</time>
      </trkpt>
      <trkpt lat="48.42345" lon="3.64195">
        <ele>157.26</ele>
        <time>2014-09-20T14:09:46Z</time>
      </trkpt>
      <trkpt lat="48.42341" lon="3.64191">
        <ele>157.58</ele>
        <time>2014-09-20T14:09:48Z</time>
      </trkpt>
      <trkpt lat="48.42333" lon="3.64184">
        <ele>157.99</ele>
        <time>2014-09-20T14:09:52Z</time>
      </trkpt>
      <trkpt lat="48.42327" lon="3.64179">
        <ele>158.21</ele>
        <time>2014-09-20T14:09:54Z</time>
      </trkpt>
      <trkpt lat="48.42324" lon="3.64173">
        <ele>158.63</ele>
        <time>2014-09-20T14:09:56Z</time>
      </trkpt>
      <trkpt lat="48.4232" lon="3.64165">
        <ele>159.37</ele>
        <time>2014-09-20T14:09:58Z</time>
      </trkpt>
      <trkpt lat="48.42316" lon="3.64161">
        <ele>160.11</ele>
        <time>2014-09-20T14:10:00Z</time>
      </trkpt>
      <trkpt lat="48.42311" lon="3.64157">
        <ele>160.78</ele>
        <time>2014-09-20T14:10:02Z</time>
      </trkpt>
      <trkpt lat="48.42307" lon="3.64151">
        <ele>161.38</ele>
        <time>2014-09-20T14:10:04Z</time>
      </trkpt>
      <trkpt lat="48.42302" lon="3.64146">
        <ele>161.98</ele>
        <time>2014-09-20T14:10:06Z</time>
      </trkpt>
      <trkpt lat="48.42296" lon="3.6414">
        <ele>162.3</ele>
        <time>2014-09-20T14:10:08Z</time>
      </trkpt>
      <trkpt lat="48.4229" lon="3.64133">
        <ele>162.46</ele>
        <time>2014-09-20T14:10:10Z</time>
      </trkpt>
      <trkpt lat="48.42286" lon="3.64127">
        <ele>162.59</ele>
        <time>2014-09-20T14:10:12Z</time>
      </trkpt>
      <trkpt lat="48.42281" lon="3.64122">
        <ele>162.7</ele>
        <time>2014-09-20T14:10:14Z</time>
      </trkpt>
      <trkpt lat="48.42278" lon="3.64117">
        <ele>162.69</ele>
        <time>2014-09-20T14:10:16Z</time>
      </trkpt>
      <trkpt lat="48.42272" lon="3.64111">
        <ele>162.63</ele>
        <time>2014-09-20T14:10:19Z</time>
      </trkpt>
      <trkpt lat="48.42269" lon="3.64106">
        <ele>162.63</ele>
        <time>2014-09-20T14:10:21Z</time>
      </trkpt>
      <trkpt lat="48.42266" lon="3.64101">
        <ele>162.77</ele>
        <time>2014-09-20T14:10:23Z</time>
      </trkpt>
      <trkpt lat="48.42261" lon="3.64097">
        <ele>163.37</ele>
        <time>2014-09-20T14:10:26Z</time>
      </trkpt>
      <trkpt lat="48.42257" lon="3.64093">
        <ele>163.76</ele>
        <time>2014-09-20T14:10:28Z</time>
      </trkpt>
      <trkpt lat="48.42253" lon="3.64088">
        <ele>164.37</ele>
        <time>2014-09-20T14:10:30Z</time>
      </trkpt>
      <trkpt lat="48.42248" lon="3.64081">
        <ele>164.84</ele>
        <time>2014-09-20T14:10:33Z</time>
      </trkpt>
      <trkpt lat="48.42243" lon="3.64075">
        <ele>164.75</ele>
        <time>2014-09-20T14:10:35Z</time>
      </trkpt>
      <trkpt lat="48.42239" lon="3.64072">
        <ele>164.62</ele>
        <time>2014-09-20T14:10:36Z</time>
      </trkpt>
      <trkpt lat="48.42233" lon="3.64066">
        <ele>164.49</ele>
        <time>2014-09-20T14:10:38Z</time>
      </trkpt>
      <trkpt lat="48.4223" lon="3.64061">
        <ele>164.24</ele>
        <time>2014-09-20T14:10:40Z</time>
      </trkpt>
      <trkpt lat="48.42227" lon="3.64055">
        <ele>164.04</ele>
        <time>2014-09-20T14:10:43Z</time>
      </trkpt>
      <trkpt lat="48.42196" lon="3.64019">
        <ele>163.41</ele>
        <time>2014-09-20T14:10:59Z</time>
      </trkpt>
      <trkpt lat="48.42191" lon="3.64013">
        <ele>163.05</ele>
        <time>2014-09-20T14:11:01Z</time>
      </trkpt>
      <trkpt lat="48.42186" lon="3.64007">
        <ele>162.87</ele>
        <time>2014-09-20T14:11:03Z</time>
      </trkpt>
      <trkpt lat="48.42181" lon="3.64001">
        <ele>162.94</ele>
        <time>2014-09-20T14:11:05Z</time>
      </trkpt>
      <trkpt lat="48.42176" lon="3.63996">
        <ele>162.89</ele>
        <time>2014-09-20T14:11:07Z</time>
      </trkpt>
      <trkpt lat="48.42172" lon="3.6399">
        <ele>163</ele>
        <time>2014-09-20T14:11:09Z</time>
      </trkpt>
      <trkpt lat="48.4217" lon="3.63983">
        <ele>163.15</ele>
        <time>2014-09-20T14:11:11Z</time>
      </trkpt>
      <trkpt lat="48.4217" lon="3.63975">
        <ele>163.37</ele>
        <time>2014-09-20T14:11:13Z</time>
      </trkpt>
      <trkpt lat="48.4217" lon="3.63965">
        <ele>163.48</ele>
        <time>2014-09-20T14:11:15Z</time>
      </trkpt>
      <trkpt lat="48.42172" lon="3.63958">
        <ele>163.43</ele>
        <time>2014-09-20T14:11:17Z</time>
      </trkpt>
      <trkpt lat="48.42174" lon="3.63951">
        <ele>163.3</ele>
        <time>2014-09-20T14:11:19Z</time>
      </trkpt>
      <trkpt lat="48.42178" lon="3.63944">
        <ele>163.25</ele>
        <time>2014-09-20T14:11:21Z</time>
      </trkpt>
      <trkpt lat="48.42182" lon="3.63935">
        <ele>163.21</ele>
        <time>2014-09-20T14:11:23Z</time>
      </trkpt>
      <trkpt lat="48.42184" lon="3.63925">
        <ele>163.1</ele>
        <time>2014-09-20T14:11:25Z</time>
      </trkpt>
      <trkpt lat="48.42186" lon="3.63915">
        <ele>163.08</ele>
        <time>2014-09-20T14:11:27Z</time>
      </trkpt>
      <trkpt lat="48.4219" lon="3.63903">
        <ele>162.99</ele>
        <time>2014-09-20T14:11:29Z</time>
      </trkpt>
      <trkpt lat="48.42192" lon="3.63892">
        <ele>162.82</ele>
        <time>2014-09-20T14:11:31Z</time>
      </trkpt>
      <trkpt lat="48.42196" lon="3.6388">
        <ele>162.58</ele>
        <time>2014-09-20T14:11:33Z</time>
      </trkpt>
      <trkpt lat="48.42199" lon="3.6387">
        <ele>162.48</ele>
        <time>2014-09-20T14:11:35Z</time>
      </trkpt>
      <trkpt lat="48.422" lon="3.63862">
        <ele>162.34</ele>
        <time>2014-09-20T14:11:37Z</time>
      </trkpt>
      <trkpt lat="48.42201" lon="3.63851">
        <ele>162.07</ele>
        <time>2014-09-20T14:11:39Z</time>
      </trkpt>
      <trkpt lat="48.42204" lon="3.63845">
        <ele>161.88</ele>
        <time>2014-09-20T14:11:40Z</time>
      </trkpt>
      <trkpt lat="48.42206" lon="3.63838">
        <ele>161.77</ele>
        <time>2014-09-20T14:11:41Z</time>
      </trkpt>
      <trkpt lat="48.42207" lon="3.63831">
        <ele>161.73</ele>
        <time>2014-09-20T14:11:42Z</time>
      </trkpt>
      <trkpt lat="48.4221" lon="3.63823">
        <ele>161.76</ele>
        <time>2014-09-20T14:11:43Z</time>
      </trkpt>
      <trkpt lat="48.42213" lon="3.63818">
        <ele>161.77</ele>
        <time>2014-09-20T14:11:44Z</time>
      </trkpt>
      <trkpt lat="48.42216" lon="3.63809">
        <ele>161.7</ele>
        <time>2014-09-20T14:11:46Z</time>
      </trkpt>
      <trkpt lat="48.42216" lon="3.63798">
        <ele>161.76</ele>
        <time>2014-09-20T14:11:48Z</time>
      </trkpt>
      <trkpt lat="48.42215" lon="3.63788">
        <ele>161.91</ele>
        <time>2014-09-20T14:11:50Z</time>
      </trkpt>
      <trkpt lat="48.42211" lon="3.6378">
        <ele>162.26</ele>
        <time>2014-09-20T14:11:52Z</time>
      </trkpt>
      <trkpt lat="48.42206" lon="3.63773">
        <ele>162.55</ele>
        <time>2014-09-20T14:11:54Z</time>
      </trkpt>
      <trkpt lat="48.42203" lon="3.63762">
        <ele>162.65</ele>
        <time>2014-09-20T14:11:56Z</time>
      </trkpt>
      <trkpt lat="48.42202" lon="3.63755">
        <ele>162.62</ele>
        <time>2014-09-20T14:11:57Z</time>
      </trkpt>
      <trkpt lat="48.42202" lon="3.63747">
        <ele>162.54</ele>
        <time>2014-09-20T14:11:58Z</time>
      </trkpt>
      <trkpt lat="48.42201" lon="3.63734">
        <ele>162.61</ele>
        <time>2014-09-20T14:12:00Z</time>
      </trkpt>
      <trkpt lat="48.42203" lon="3.63722">
        <ele>162.7</ele>
        <time>2014-09-20T14:12:02Z</time>
      </trkpt>
      <trkpt lat="48.42207" lon="3.63711">
        <ele>162.65</ele>
        <time>2014-09-20T14:12:04Z</time>
      </trkpt>
      <trkpt lat="48.4221" lon="3.63704">
        <ele>162.57</ele>
        <time>2014-09-20T14:12:05Z</time>
      </trkpt>
      <trkpt lat="48.42211" lon="3.63697">
        <ele>162.48</ele>
        <time>2014-09-20T14:12:06Z</time>
      </trkpt>
      <trkpt lat="48.4221" lon="3.63687">
        <ele>162.44</ele>
        <time>2014-09-20T14:12:08Z</time>
      </trkpt>
      <trkpt lat="48.42205" lon="3.63682">
        <ele>162.46</ele>
        <time>2014-09-20T14:12:10Z</time>
      </trkpt>
      <trkpt lat="48.422" lon="3.63677">
        <ele>162.45</ele>
        <time>2014-09-20T14:12:12Z</time>
      </trkpt>
      <trkpt lat="48.42194" lon="3.63671">
        <ele>162.39</ele>
        <time>2014-09-20T14:12:14Z</time>
      </trkpt>
      <trkpt lat="48.42188" lon="3.63666">
        <ele>162.32</ele>
        <time>2014-09-20T14:12:16Z</time>
      </trkpt>
      <trkpt lat="48.42181" lon="3.6366">
        <ele>162.37</ele>
        <time>2014-09-20T14:12:18Z</time>
      </trkpt>
      <trkpt lat="48.42176" lon="3.63654">
        <ele>162.41</ele>
        <time>2014-09-20T14:12:20Z</time>
      </trkpt>
      <trkpt lat="48.4217" lon="3.63649">
        <ele>162.39</ele>
        <time>2014-09-20T14:12:22Z</time>
      </trkpt>
      <trkpt lat="48.42164" lon="3.63644">
        <ele>162.38</ele>
        <time>2014-09-20T14:12:24Z</time>
      </trkpt>
      <trkpt lat="48.42158" lon="3.63639">
        <ele>162.34</ele>
        <time>2014-09-20T14:12:26Z</time>
      </trkpt>
      <trkpt lat="48.42153" lon="3.63635">
        <ele>162.4</ele>
        <time>2014-09-20T14:12:28Z</time>
      </trkpt>
      <trkpt lat="48.42148" lon="3.6363">
        <ele>162.61</ele>
        <time>2014-09-20T14:12:30Z</time>
      </trkpt>
      <trkpt lat="48.42143" lon="3.63626">
        <ele>162.81</ele>
        <time>2014-09-20T14:12:32Z</time>
      </trkpt>
      <trkpt lat="48.42136" lon="3.63621">
        <ele>163.09</ele>
        <time>2014-09-20T14:12:34Z</time>
      </trkpt>
      <trkpt lat="48.42132" lon="3.63615">
        <ele>163.26</ele>
        <time>2014-09-20T14:12:36Z</time>
      </trkpt>
      <trkpt lat="48.42128" lon="3.6361">
        <ele>163.43</ele>
        <time>2014-09-20T14:12:38Z</time>
      </trkpt>
      <trkpt lat="48.42127" lon="3.63604">
        <ele>163.58</ele>
        <time>2014-09-20T14:12:40Z</time>
      </trkpt>
      <trkpt lat="48.42129" lon="3.63596">
        <ele>163.53</ele>
        <time>2014-09-20T14:12:42Z</time>
      </trkpt>
      <trkpt lat="48.4213" lon="3.63588">
        <ele>163.49</ele>
        <time>2014-09-20T14:12:44Z</time>
      </trkpt>
      <trkpt lat="48.42133" lon="3.6358">
        <ele>163.37</ele>
        <time>2014-09-20T14:12:46Z</time>
      </trkpt>
      <trkpt lat="48.42135" lon="3.63572">
        <ele>163.29</ele>
        <time>2014-09-20T14:12:48Z</time>
      </trkpt>
      <trkpt lat="48.42137" lon="3.63563">
        <ele>163.14</ele>
        <time>2014-09-20T14:12:50Z</time>
      </trkpt>
      <trkpt lat="48.42141" lon="3.63553">
        <ele>163.05</ele>
        <time>2014-09-20T14:12:52Z</time>
      </trkpt>
      <trkpt lat="48.42145" lon="3.63545">
        <ele>162.9</ele>
        <time>2014-09-20T14:12:54Z</time>
      </trkpt>
      <trkpt lat="48.42147" lon="3.63539">
        <ele>162.76</ele>
        <time>2014-09-20T14:12:55Z</time>
      </trkpt>
      <trkpt lat="48.42151" lon="3.63528">
        <ele>162.53</ele>
        <time>2014-09-20T14:12:57Z</time>
      </trkpt>
      <trkpt lat="48.42153" lon="3.63516">
        <ele>162.39</ele>
        <time>2014-09-20T14:12:59Z</time>
      </trkpt>
      <trkpt lat="48.42155" lon="3.63505">
        <ele>161.94</ele>
        <time>2014-09-20T14:13:01Z</time>
      </trkpt>
      <trkpt lat="48.42154" lon="3.63495">
        <ele>161.63</ele>
        <time>2014-09-20T14:13:03Z</time>
      </trkpt>
      <trkpt lat="48.42152" lon="3.63487">
        <ele>161.47</ele>
        <time>2014-09-20T14:13:05Z</time>
      </trkpt>
      <trkpt lat="48.42151" lon="3.6348">
        <ele>161.41</ele>
        <time>2014-09-20T14:13:07Z</time>
      </trkpt>
      <trkpt lat="48.42152" lon="3.63472">
        <ele>161.17</ele>
        <time>2014-09-20T14:13:09Z</time>
      </trkpt>
      <trkpt lat="48.42151" lon="3.63465">
        <ele>161.02</ele>
        <time>2014-09-20T14:13:11Z</time>
      </trkpt>
      <trkpt lat="48.4215" lon="3.63457">
        <ele>160.93</ele>
        <time>2014-09-20T14:13:13Z</time>
      </trkpt>
      <trkpt lat="48.42148" lon="3.63449">
        <ele>160.88</ele>
        <time>2014-09-20T14:13:15Z</time>
      </trkpt>
      <trkpt lat="48.42143" lon="3.63442">
        <ele>161.03</ele>
        <time>2014-09-20T14:13:17Z</time>
      </trkpt>
      <trkpt lat="48.42139" lon="3.63437">
        <ele>161.11</ele>
        <time>2014-09-20T14:13:19Z</time>
      </trkpt>
      <trkpt lat="48.42133" lon="3.63429">
        <ele>161.09</ele>
        <time>2014-09-20T14:13:21Z</time>
      </trkpt>
      <trkpt lat="48.42129" lon="3.6342">
        <ele>160.93</ele>
        <time>2014-09-20T14:13:23Z</time>
      </trkpt>
      <trkpt lat="48.42128" lon="3.63409">
        <ele>160.68</ele>
        <time>2014-09-20T14:13:25Z</time>
      </trkpt>
      <trkpt lat="48.42127" lon="3.63399">
        <ele>160.38</ele>
        <time>2014-09-20T14:13:27Z</time>
      </trkpt>
      <trkpt lat="48.42128" lon="3.63388">
        <ele>160.18</ele>
        <time>2014-09-20T14:13:29Z</time>
      </trkpt>
      <trkpt lat="48.42129" lon="3.63379">
        <ele>160.14</ele>
        <time>2014-09-20T14:13:31Z</time>
      </trkpt>
      <trkpt lat="48.4213" lon="3.63369">
        <ele>160.08</ele>
        <time>2014-09-20T14:13:33Z</time>
      </trkpt>
      <trkpt lat="48.42133" lon="3.6336">
        <ele>160.01</ele>
        <time>2014-09-20T14:13:35Z</time>
      </trkpt>
      <trkpt lat="48.42138" lon="3.63352">
        <ele>159.82</ele>
        <time>2014-09-20T14:13:37Z</time>
      </trkpt>
      <trkpt lat="48.42142" lon="3.63343">
        <ele>159.69</ele>
        <time>2014-09-20T14:13:39Z</time>
      </trkpt>
      <trkpt lat="48.42146" lon="3.63333">
        <ele>159.57</ele>
        <time>2014-09-20T14:13:41Z</time>
      </trkpt>
      <trkpt lat="48.4215" lon="3.63326">
        <ele>159.39</ele>
        <time>2014-09-20T14:13:43Z</time>
      </trkpt>
      <trkpt lat="48.42154" lon="3.6332">
        <ele>159.32</ele>
        <time>2014-09-20T14:13:45Z</time>
      </trkpt>
      <trkpt lat="48.42156" lon="3.63312">
        <ele>159.25</ele>
        <time>2014-09-20T14:13:47Z</time>
      </trkpt>
      <trkpt lat="48.42157" lon="3.63302">
        <ele>159.12</ele>
        <time>2014-09-20T14:13:49Z</time>
      </trkpt>
      <trkpt lat="48.42159" lon="3.63292">
        <ele>158.93</ele>
        <time>2014-09-20T14:13:51Z</time>
      </trkpt>
      <trkpt lat="48.42164" lon="3.63279">
        <ele>159.19</ele>
        <time>2014-09-20T14:13:53Z</time>
      </trkpt>
      <trkpt lat="48.42165" lon="3.63267">
        <ele>159.57</ele>
        <time>2014-09-20T14:13:55Z</time>
      </trkpt>
      <trkpt lat="48.42169" lon="3.63258">
        <ele>159.88</ele>
        <time>2014-09-20T14:13:57Z</time>
      </trkpt>
      <trkpt lat="48.42172" lon="3.63249">
        <ele>160.25</ele>
        <time>2014-09-20T14:13:59Z</time>
      </trkpt>
      <trkpt lat="48.42176" lon="3.6324">
        <ele>160.57</ele>
        <time>2014-09-20T14:14:01Z</time>
      </trkpt>
      <trkpt lat="48.42178" lon="3.63231">
        <ele>160.78</ele>
        <time>2014-09-20T14:14:03Z</time>
      </trkpt>
      <trkpt lat="48.4218" lon="3.63221">
        <ele>161.02</ele>
        <time>2014-09-20T14:14:05Z</time>
      </trkpt>
      <trkpt lat="48.42182" lon="3.63213">
        <ele>161.15</ele>
        <time>2014-09-20T14:14:07Z</time>
      </trkpt>
      <trkpt lat="48.42185" lon="3.63207">
        <ele>160.94</ele>
        <time>2014-09-20T14:14:09Z</time>
      </trkpt>
      <trkpt lat="48.42191" lon="3.63207">
        <ele>160.39</ele>
        <time>2014-09-20T14:14:12Z</time>
      </trkpt>
      <trkpt lat="48.42196" lon="3.63211">
        <ele>160.08</ele>
        <time>2014-09-20T14:14:14Z</time>
      </trkpt>
      <trkpt lat="48.42202" lon="3.63216">
        <ele>159.93</ele>
        <time>2014-09-20T14:14:16Z</time>
      </trkpt>
      <trkpt lat="48.42209" lon="3.63223">
        <ele>159.71</ele>
        <time>2014-09-20T14:14:18Z</time>
      </trkpt>
      <trkpt lat="48.42213" lon="3.6323">
        <ele>159.45</ele>
        <time>2014-09-20T14:14:20Z</time>
      </trkpt>
      <trkpt lat="48.42218" lon="3.63238">
        <ele>159.31</ele>
        <time>2014-09-20T14:14:22Z</time>
      </trkpt>
      <trkpt lat="48.42222" lon="3.63246">
        <ele>159.14</ele>
        <time>2014-09-20T14:14:24Z</time>
      </trkpt>
      <trkpt lat="48.42227" lon="3.63254">
        <ele>159.03</ele>
        <time>2014-09-20T14:14:26Z</time>
      </trkpt>
      <trkpt lat="48.42232" lon="3.63263">
        <ele>158.95</ele>
        <time>2014-09-20T14:14:28Z</time>
      </trkpt>
      <trkpt lat="48.42237" lon="3.6327">
        <ele>158.69</ele>
        <time>2014-09-20T14:14:30Z</time>
      </trkpt>
      <trkpt lat="48.42239" lon="3.63277">
        <ele>157.81</ele>
        <time>2014-09-20T14:14:33Z</time>
      </trkpt>
      <trkpt lat="48.42244" lon="3.63282">
        <ele>156.98</ele>
        <time>2014-09-20T14:14:35Z</time>
      </trkpt>
      <trkpt lat="48.42248" lon="3.6329">
        <ele>156.22</ele>
        <time>2014-09-20T14:14:37Z</time>
      </trkpt>
      <trkpt lat="48.42252" lon="3.63299">
        <ele>155.27</ele>
        <time>2014-09-20T14:14:39Z</time>
      </trkpt>
      <trkpt lat="48.42257" lon="3.63309">
        <ele>154.39</ele>
        <time>2014-09-20T14:14:41Z</time>
      </trkpt>
      <trkpt lat="48.42262" lon="3.6332">
        <ele>153.76</ele>
        <time>2014-09-20T14:14:43Z</time>
      </trkpt>
      <trkpt lat="48.42267" lon="3.63331">
        <ele>153.08</ele>
        <time>2014-09-20T14:14:45Z</time>
      </trkpt>
      <trkpt lat="48.42273" lon="3.63338">
        <ele>152.46</ele>
        <time>2014-09-20T14:14:47Z</time>
      </trkpt>
      <trkpt lat="48.42277" lon="3.63342">
        <ele>152.03</ele>
        <time>2014-09-20T14:14:49Z</time>
      </trkpt>
      <trkpt lat="48.42277" lon="3.63349">
        <ele>151.65</ele>
        <time>2014-09-20T14:14:51Z</time>
      </trkpt>
      <trkpt lat="48.42277" lon="3.63357">
        <ele>151.35</ele>
        <time>2014-09-20T14:14:53Z</time>
      </trkpt>
      <trkpt lat="48.42279" lon="3.63366">
        <ele>151.21</ele>
        <time>2014-09-20T14:14:55Z</time>
      </trkpt>
      <trkpt lat="48.42283" lon="3.63371">
        <ele>151.09</ele>
        <time>2014-09-20T14:14:57Z</time>
      </trkpt>
      <trkpt lat="48.42287" lon="3.63378">
        <ele>151.17</ele>
        <time>2014-09-20T14:14:59Z</time>
      </trkpt>
      <trkpt lat="48.42292" lon="3.63388">
        <ele>151.24</ele>
        <time>2014-09-20T14:15:01Z</time>
      </trkpt>
      <trkpt lat="48.42297" lon="3.63398">
        <ele>151.18</ele>
        <time>2014-09-20T14:15:03Z</time>
      </trkpt>
      <trkpt lat="48.42301" lon="3.63407">
        <ele>151.06</ele>
        <time>2014-09-20T14:15:05Z</time>
      </trkpt>
      <trkpt lat="48.42305" lon="3.63416">
        <ele>150.73</ele>
        <time>2014-09-20T14:15:07Z</time>
      </trkpt>
      <trkpt lat="48.42309" lon="3.63427">
        <ele>150.37</ele>
        <time>2014-09-20T14:15:09Z</time>
      </trkpt>
      <trkpt lat="48.42311" lon="3.63433">
        <ele>150.19</ele>
        <time>2014-09-20T14:15:10Z</time>
      </trkpt>
      <trkpt lat="48.42314" lon="3.63446">
        <ele>149.96</ele>
        <time>2014-09-20T14:15:12Z</time>
      </trkpt>
      <trkpt lat="48.42316" lon="3.63453">
        <ele>149.83</ele>
        <time>2014-09-20T14:15:13Z</time>
      </trkpt>
      <trkpt lat="48.42319" lon="3.6346">
        <ele>149.68</ele>
        <time>2014-09-20T14:15:14Z</time>
      </trkpt>
      <trkpt lat="48.42322" lon="3.63466">
        <ele>149.59</ele>
        <time>2014-09-20T14:15:15Z</time>
      </trkpt>
      <trkpt lat="48.42327" lon="3.63477">
        <ele>149.41</ele>
        <time>2014-09-20T14:15:17Z</time>
      </trkpt>
      <trkpt lat="48.42334" lon="3.63487">
        <ele>149.18</ele>
        <time>2014-09-20T14:15:19Z</time>
      </trkpt>
      <trkpt lat="48.42339" lon="3.63493">
        <ele>148.95</ele>
        <time>2014-09-20T14:15:20Z</time>
      </trkpt>
      <trkpt lat="48.42342" lon="3.63498">
        <ele>148.79</ele>
        <time>2014-09-20T14:15:21Z</time>
      </trkpt>
      <trkpt lat="48.42345" lon="3.63503">
        <ele>148.65</ele>
        <time>2014-09-20T14:15:22Z</time>
      </trkpt>
      <trkpt lat="48.42348" lon="3.63509">
        <ele>148.49</ele>
        <time>2014-09-20T14:15:23Z</time>
      </trkpt>
      <trkpt lat="48.4235" lon="3.63516">
        <ele>148.33</ele>
        <time>2014-09-20T14:15:24Z</time>
      </trkpt>
      <trkpt lat="48.42352" lon="3.63523">
        <ele>148.18</ele>
        <time>2014-09-20T14:15:25Z</time>
      </trkpt>
      <trkpt lat="48.42355" lon="3.6353">
        <ele>148.17</ele>
        <time>2014-09-20T14:15:26Z</time>
      </trkpt>
      <trkpt lat="48.42358" lon="3.63538">
        <ele>148.21</ele>
        <time>2014-09-20T14:15:27Z</time>
      </trkpt>
      <trkpt lat="48.42362" lon="3.63546">
        <ele>148.29</ele>
        <time>2014-09-20T14:15:28Z</time>
      </trkpt>
      <trkpt lat="48.42366" lon="3.63552">
        <ele>148.3</ele>
        <time>2014-09-20T14:15:29Z</time>
      </trkpt>
      <trkpt lat="48.42369" lon="3.63558">
        <ele>148.2</ele>
        <time>2014-09-20T14:15:30Z</time>
      </trkpt>
      <trkpt lat="48.42373" lon="3.63564">
        <ele>148.06</ele>
        <time>2014-09-20T14:15:31Z</time>
      </trkpt>
      <trkpt lat="48.42375" lon="3.6357">
        <ele>147.9</ele>
        <time>2014-09-20T14:15:32Z</time>
      </trkpt>
      <trkpt lat="48.4238" lon="3.63581">
        <ele>147.59</ele>
        <time>2014-09-20T14:15:34Z</time>
      </trkpt>
      <trkpt lat="48.42385" lon="3.63592">
        <ele>147.49</ele>
        <time>2014-09-20T14:15:36Z</time>
      </trkpt>
      <trkpt lat="48.42388" lon="3.63598">
        <ele>147.4</ele>
        <time>2014-09-20T14:15:37Z</time>
      </trkpt>
      <trkpt lat="48.4239" lon="3.63605">
        <ele>147.31</ele>
        <time>2014-09-20T14:15:38Z</time>
      </trkpt>
      <trkpt lat="48.42392" lon="3.63611">
        <ele>147.26</ele>
        <time>2014-09-20T14:15:39Z</time>
      </trkpt>
      <trkpt lat="48.42395" lon="3.63617">
        <ele>147.23</ele>
        <time>2014-09-20T14:15:40Z</time>
      </trkpt>
      <trkpt lat="48.42399" lon="3.63623">
        <ele>147.18</ele>
        <time>2014-09-20T14:15:41Z</time>
      </trkpt>
      <trkpt lat="48.42402" lon="3.63629">
        <ele>147.14</ele>
        <time>2014-09-20T14:15:42Z</time>
      </trkpt>
      <trkpt lat="48.42405" lon="3.63634">
        <ele>146.96</ele>
        <time>2014-09-20T14:15:43Z</time>
      </trkpt>
      <trkpt lat="48.42409" lon="3.63639">
        <ele>146.75</ele>
        <time>2014-09-20T14:15:44Z</time>
      </trkpt>
      <trkpt lat="48.42412" lon="3.63644">
        <ele>146.52</ele>
        <time>2014-09-20T14:15:45Z</time>
      </trkpt>
      <trkpt lat="48.42415" lon="3.6365">
        <ele>146.32</ele>
        <time>2014-09-20T14:15:46Z</time>
      </trkpt>
      <trkpt lat="48.42418" lon="3.63656">
        <ele>146.18</ele>
        <time>2014-09-20T14:15:47Z</time>
      </trkpt>
      <trkpt lat="48.42421" lon="3.63662">
        <ele>145.96</ele>
        <time>2014-09-20T14:15:48Z</time>
      </trkpt>
      <trkpt lat="48.42423" lon="3.63668">
        <ele>145.75</ele>
        <time>2014-09-20T14:15:49Z</time>
      </trkpt>
      <trkpt lat="48.42429" lon="3.63676">
        <ele>145.23</ele>
        <time>2014-09-20T14:15:51Z</time>
      </trkpt>
      <trkpt lat="48.42433" lon="3.63685">
        <ele>144.6</ele>
        <time>2014-09-20T14:15:53Z</time>
      </trkpt>
      <trkpt lat="48.42437" lon="3.63691">
        <ele>144.26</ele>
        <time>2014-09-20T14:15:54Z</time>
      </trkpt>
      <trkpt lat="48.4244" lon="3.63698">
        <ele>143.85</ele>
        <time>2014-09-20T14:15:55Z</time>
      </trkpt>
      <trkpt lat="48.42442" lon="3.63705">
        <ele>143.4</ele>
        <time>2014-09-20T14:15:56Z</time>
      </trkpt>
      <trkpt lat="48.42445" lon="3.63712">
        <ele>142.93</ele>
        <time>2014-09-20T14:15:57Z</time>
      </trkpt>
      <trkpt lat="48.42448" lon="3.63717">
        <ele>142.55</ele>
        <time>2014-09-20T14:15:58Z</time>
      </trkpt>
      <trkpt lat="48.42453" lon="3.63722">
        <ele>142.22</ele>
        <time>2014-09-20T14:15:59Z</time>
      </trkpt>
      <trkpt lat="48.42459" lon="3.63731">
        <ele>141.67</ele>
        <time>2014-09-20T14:16:01Z</time>
      </trkpt>
      <trkpt lat="48.42462" lon="3.63742">
        <ele>141.44</ele>
        <time>2014-09-20T14:16:03Z</time>
      </trkpt>
      <trkpt lat="48.42465" lon="3.63754">
        <ele>141.17</ele>
        <time>2014-09-20T14:16:05Z</time>
      </trkpt>
      <trkpt lat="48.42469" lon="3.63765">
        <ele>140.96</ele>
        <time>2014-09-20T14:16:07Z</time>
      </trkpt>
      <trkpt lat="48.42472" lon="3.63771">
        <ele>140.85</ele>
        <time>2014-09-20T14:16:08Z</time>
      </trkpt>
      <trkpt lat="48.42474" lon="3.63777">
        <ele>140.79</ele>
        <time>2014-09-20T14:16:09Z</time>
      </trkpt>
      <trkpt lat="48.42477" lon="3.63783">
        <ele>140.73</ele>
        <time>2014-09-20T14:16:10Z</time>
      </trkpt>
      <trkpt lat="48.42478" lon="3.6379">
        <ele>140.63</ele>
        <time>2014-09-20T14:16:11Z</time>
      </trkpt>
      <trkpt lat="48.42481" lon="3.63796">
        <ele>140.53</ele>
        <time>2014-09-20T14:16:12Z</time>
      </trkpt>
      <trkpt lat="48.42486" lon="3.63805">
        <ele>140.28</ele>
        <time>2014-09-20T14:16:14Z</time>
      </trkpt>
      <trkpt lat="48.42491" lon="3.63815">
        <ele>139.93</ele>
        <time>2014-09-20T14:16:16Z</time>
      </trkpt>
      <trkpt lat="48.42495" lon="3.63826">
        <ele>139.73</ele>
        <time>2014-09-20T14:16:18Z</time>
      </trkpt>
      <trkpt lat="48.42499" lon="3.63836">
        <ele>139.59</ele>
        <time>2014-09-20T14:16:20Z</time>
      </trkpt>
      <trkpt lat="48.42502" lon="3.63842">
        <ele>139.48</ele>
        <time>2014-09-20T14:16:21Z</time>
      </trkpt>
      <trkpt lat="48.42505" lon="3.63848">
        <ele>139.39</ele>
        <time>2014-09-20T14:16:22Z</time>
      </trkpt>
      <trkpt lat="48.42507" lon="3.63854">
        <ele>139.3</ele>
        <time>2014-09-20T14:16:23Z</time>
      </trkpt>
      <trkpt lat="48.42512" lon="3.63865">
        <ele>139.1</ele>
        <time>2014-09-20T14:16:25Z</time>
      </trkpt>
      <trkpt lat="48.42517" lon="3.63876">
        <ele>138.66</ele>
        <time>2014-09-20T14:16:27Z</time>
      </trkpt>
      <trkpt lat="48.4252" lon="3.63887">
        <ele>138.23</ele>
        <time>2014-09-20T14:16:29Z</time>
      </trkpt>
      <trkpt lat="48.42523" lon="3.63897">
        <ele>138.01</ele>
        <time>2014-09-20T14:16:31Z</time>
      </trkpt>
      <trkpt lat="48.42528" lon="3.63908">
        <ele>137.82</ele>
        <time>2014-09-20T14:16:33Z</time>
      </trkpt>
      <trkpt lat="48.42532" lon="3.63912">
        <ele>137.69</ele>
        <time>2014-09-20T14:16:34Z</time>
      </trkpt>
      <trkpt lat="48.42538" lon="3.63921">
        <ele>137.33</ele>
        <time>2014-09-20T14:16:36Z</time>
      </trkpt>
      <trkpt lat="48.42543" lon="3.63931">
        <ele>137.11</ele>
        <time>2014-09-20T14:16:38Z</time>
      </trkpt>
      <trkpt lat="48.42548" lon="3.6394">
        <ele>136.87</ele>
        <time>2014-09-20T14:16:40Z</time>
      </trkpt>
      <trkpt lat="48.42556" lon="3.63947">
        <ele>136.42</ele>
        <time>2014-09-20T14:16:42Z</time>
      </trkpt>
      <trkpt lat="48.42561" lon="3.63947">
        <ele>135.99</ele>
        <time>2014-09-20T14:16:44Z</time>
      </trkpt>
      <trkpt lat="48.42566" lon="3.63943">
        <ele>135.68</ele>
        <time>2014-09-20T14:16:46Z</time>
      </trkpt>
      <trkpt lat="48.42571" lon="3.63938">
        <ele>135.46</ele>
        <time>2014-09-20T14:16:48Z</time>
      </trkpt>
      <trkpt lat="48.42576" lon="3.63929">
        <ele>135.14</ele>
        <time>2014-09-20T14:16:50Z</time>
      </trkpt>
      <trkpt lat="48.4258" lon="3.63922">
        <ele>134.84</ele>
        <time>2014-09-20T14:16:52Z</time>
      </trkpt>
      <trkpt lat="48.42585" lon="3.63916">
        <ele>134.62</ele>
        <time>2014-09-20T14:16:54Z</time>
      </trkpt>
      <trkpt lat="48.42591" lon="3.63909">
        <ele>134.38</ele>
        <time>2014-09-20T14:16:56Z</time>
      </trkpt>
      <trkpt lat="48.42598" lon="3.63901">
        <ele>134.04</ele>
        <time>2014-09-20T14:16:58Z</time>
      </trkpt>
      <trkpt lat="48.42604" lon="3.63893">
        <ele>133.63</ele>
        <time>2014-09-20T14:17:00Z</time>
      </trkpt>
      <trkpt lat="48.42607" lon="3.63883">
        <ele>133.23</ele>
        <time>2014-09-20T14:17:02Z</time>
      </trkpt>
      <trkpt lat="48.42607" lon="3.63873">
        <ele>132.95</ele>
        <time>2014-09-20T14:17:04Z</time>
      </trkpt>
      <trkpt lat="48.42606" lon="3.63865">
        <ele>132.99</ele>
        <time>2014-09-20T14:17:06Z</time>
      </trkpt>
      <trkpt lat="48.42602" lon="3.63859">
        <ele>133.14</ele>
        <time>2014-09-20T14:17:08Z</time>
      </trkpt>
      <trkpt lat="48.42599" lon="3.63853">
        <ele>133.43</ele>
        <time>2014-09-20T14:17:10Z</time>
      </trkpt>
      <trkpt lat="48.42596" lon="3.63847">
        <ele>133.72</ele>
        <time>2014-09-20T14:17:12Z</time>
      </trkpt>
      <trkpt lat="48.42592" lon="3.63841">
        <ele>134.01</ele>
        <time>2014-09-20T14:17:14Z</time>
      </trkpt>
      <trkpt lat="48.42588" lon="3.63835">
        <ele>134.22</ele>
        <time>2014-09-20T14:17:16Z</time>
      </trkpt>
      <trkpt lat="48.42585" lon="3.63829">
        <ele>134.42</ele>
        <time>2014-09-20T14:17:18Z</time>
      </trkpt>
      <trkpt lat="48.42582" lon="3.63822">
        <ele>134.62</ele>
        <time>2014-09-20T14:17:20Z</time>
      </trkpt>
      <trkpt lat="48.42579" lon="3.63816">
        <ele>134.76</ele>
        <time>2014-09-20T14:17:22Z</time>
      </trkpt>
      <trkpt lat="48.42576" lon="3.6381">
        <ele>134.92</ele>
        <time>2014-09-20T14:17:24Z</time>
      </trkpt>
      <trkpt lat="48.42572" lon="3.63803">
        <ele>135.13</ele>
        <time>2014-09-20T14:17:26Z</time>
      </trkpt>
      <trkpt lat="48.42569" lon="3.63796">
        <ele>135.42</ele>
        <time>2014-09-20T14:17:28Z</time>
      </trkpt>
      <trkpt lat="48.42566" lon="3.6379">
        <ele>135.71</ele>
        <time>2014-09-20T14:17:30Z</time>
      </trkpt>
      <trkpt lat="48.42563" lon="3.63784">
        <ele>135.94</ele>
        <time>2014-09-20T14:17:32Z</time>
      </trkpt>
      <trkpt lat="48.42561" lon="3.63777">
        <ele>136.11</ele>
        <time>2014-09-20T14:17:34Z</time>
      </trkpt>
      <trkpt lat="48.42558" lon="3.63771">
        <ele>136.25</ele>
        <time>2014-09-20T14:17:36Z</time>
      </trkpt>
      <trkpt lat="48.42556" lon="3.63765">
        <ele>136.35</ele>
        <time>2014-09-20T14:17:38Z</time>
      </trkpt>
      <trkpt lat="48.42553" lon="3.63759">
        <ele>136.5</ele>
        <time>2014-09-20T14:17:40Z</time>
      </trkpt>
      <trkpt lat="48.4255" lon="3.63752">
        <ele>136.62</ele>
        <time>2014-09-20T14:17:42Z</time>
      </trkpt>
      <trkpt lat="48.42546" lon="3.63745">
        <ele>136.71</ele>
        <time>2014-09-20T14:17:44Z</time>
      </trkpt>
      <trkpt lat="48.42543" lon="3.63738">
        <ele>136.86</ele>
        <time>2014-09-20T14:17:46Z</time>
      </trkpt>
      <trkpt lat="48.42541" lon="3.63731">
        <ele>137.02</ele>
        <time>2014-09-20T14:17:48Z</time>
      </trkpt>
      <trkpt lat="48.42538" lon="3.63724">
        <ele>137.27</ele>
        <time>2014-09-20T14:17:50Z</time>
      </trkpt>
      <trkpt lat="48.42535" lon="3.63717">
        <ele>137.49</ele>
        <time>2014-09-20T14:17:52Z</time>
      </trkpt>
      <trkpt lat="48.42532" lon="3.63711">
        <ele>137.65</ele>
        <time>2014-09-20T14:17:54Z</time>
      </trkpt>
      <trkpt lat="48.42529" lon="3.63703">
        <ele>137.91</ele>
        <time>2014-09-20T14:17:56Z</time>
      </trkpt>
      <trkpt lat="48.42527" lon="3.63696">
        <ele>138.14</ele>
        <time>2014-09-20T14:17:58Z</time>
      </trkpt>
      <trkpt lat="48.42525" lon="3.63689">
        <ele>138.43</ele>
        <time>2014-09-20T14:18:00Z</time>
      </trkpt>
      <trkpt lat="48.42523" lon="3.63682">
        <ele>138.85</ele>
        <time>2014-09-20T14:18:02Z</time>
      </trkpt>
      <trkpt lat="48.42521" lon="3.63675">
        <ele>139.33</ele>
        <time>2014-09-20T14:18:04Z</time>
      </trkpt>
      <trkpt lat="48.4252" lon="3.63668">
        <ele>139.64</ele>
        <time>2014-09-20T14:18:06Z</time>
      </trkpt>
      <trkpt lat="48.42519" lon="3.63661">
        <ele>139.9</ele>
        <time>2014-09-20T14:18:08Z</time>
      </trkpt>
      <trkpt lat="48.42518" lon="3.63655">
        <ele>140.2</ele>
        <time>2014-09-20T14:18:10Z</time>
      </trkpt>
      <trkpt lat="48.42517" lon="3.63648">
        <ele>140.44</ele>
        <time>2014-09-20T14:18:12Z</time>
      </trkpt>
      <trkpt lat="48.42515" lon="3.63641">
        <ele>140.75</ele>
        <time>2014-09-20T14:18:14Z</time>
      </trkpt>
      <trkpt lat="48.42514" lon="3.63635">
        <ele>141.07</ele>
        <time>2014-09-20T14:18:16Z</time>
      </trkpt>
      <trkpt lat="48.42513" lon="3.63628">
        <ele>141.39</ele>
        <time>2014-09-20T14:18:18Z</time>
      </trkpt>
      <trkpt lat="48.42512" lon="3.63621">
        <ele>141.69</ele>
        <time>2014-09-20T14:18:20Z</time>
      </trkpt>
      <trkpt lat="48.42511" lon="3.63614">
        <ele>141.91</ele>
        <time>2014-09-20T14:18:22Z</time>
      </trkpt>
      <trkpt lat="48.42509" lon="3.63607">
        <ele>142.12</ele>
        <time>2014-09-20T14:18:24Z</time>
      </trkpt>
      <trkpt lat="48.42508" lon="3.636">
        <ele>142.37</ele>
        <time>2014-09-20T14:18:26Z</time>
      </trkpt>
      <trkpt lat="48.42507" lon="3.63593">
        <ele>142.66</ele>
        <time>2014-09-20T14:18:28Z</time>
      </trkpt>
      <trkpt lat="48.42506" lon="3.63586">
        <ele>143</ele>
        <time>2014-09-20T14:18:30Z</time>
      </trkpt>
      <trkpt lat="48.42504" lon="3.63579">
        <ele>143.23</ele>
        <time>2014-09-20T14:18:32Z</time>
      </trkpt>
      <trkpt lat="48.42503" lon="3.63572">
        <ele>143.58</ele>
        <time>2014-09-20T14:18:34Z</time>
      </trkpt>
      <trkpt lat="48.42502" lon="3.63565">
        <ele>143.89</ele>
        <time>2014-09-20T14:18:36Z</time>
      </trkpt>
      <trkpt lat="48.42501" lon="3.63558">
        <ele>144.17</ele>
        <time>2014-09-20T14:18:38Z</time>
      </trkpt>
      <trkpt lat="48.42499" lon="3.63551">
        <ele>144.39</ele>
        <time>2014-09-20T14:18:40Z</time>
      </trkpt>
      <trkpt lat="48.42498" lon="3.63543">
        <ele>144.63</ele>
        <time>2014-09-20T14:18:42Z</time>
      </trkpt>
      <trkpt lat="48.42497" lon="3.63536">
        <ele>144.8</ele>
        <time>2014-09-20T14:18:44Z</time>
      </trkpt>
      <trkpt lat="48.42496" lon="3.63529">
        <ele>144.97</ele>
        <time>2014-09-20T14:18:46Z</time>
      </trkpt>
      <trkpt lat="48.42494" lon="3.63521">
        <ele>145.15</ele>
        <time>2014-09-20T14:18:48Z</time>
      </trkpt>
      <trkpt lat="48.42493" lon="3.63514">
        <ele>145.37</ele>
        <time>2014-09-20T14:18:50Z</time>
      </trkpt>
      <trkpt lat="48.42492" lon="3.63506">
        <ele>145.62</ele>
        <time>2014-09-20T14:18:52Z</time>
      </trkpt>
      <trkpt lat="48.42491" lon="3.63498">
        <ele>145.89</ele>
        <time>2014-09-20T14:18:54Z</time>
      </trkpt>
      <trkpt lat="48.42489" lon="3.6349">
        <ele>146.15</ele>
        <time>2014-09-20T14:18:56Z</time>
      </trkpt>
      <trkpt lat="48.42488" lon="3.63482">
        <ele>146.38</ele>
        <time>2014-09-20T14:18:58Z</time>
      </trkpt>
      <trkpt lat="48.42487" lon="3.63474">
        <ele>146.65</ele>
        <time>2014-09-20T14:19:00Z</time>
      </trkpt>
      <trkpt lat="48.42486" lon="3.63466">
        <ele>146.81</ele>
        <time>2014-09-20T14:19:02Z</time>
      </trkpt>
      <trkpt lat="48.42485" lon="3.63458">
        <ele>146.91</ele>
        <time>2014-09-20T14:19:04Z</time>
      </trkpt>
      <trkpt lat="48.42483" lon="3.6345">
        <ele>147.05</ele>
        <time>2014-09-20T14:19:06Z</time>
      </trkpt>
      <trkpt lat="48.42482" lon="3.63443">
        <ele>147.24</ele>
        <time>2014-09-20T14:19:08Z</time>
      </trkpt>
      <trkpt lat="48.42481" lon="3.63434">
        <ele>147.39</ele>
        <time>2014-09-20T14:19:10Z</time>
      </trkpt>
      <trkpt lat="48.42479" lon="3.63426">
        <ele>147.68</ele>
        <time>2014-09-20T14:19:12Z</time>
      </trkpt>
      <trkpt lat="48.42478" lon="3.63418">
        <ele>147.94</ele>
        <time>2014-09-20T14:19:14Z</time>
      </trkpt>
      <trkpt lat="48.42477" lon="3.63409">
        <ele>148.15</ele>
        <time>2014-09-20T14:19:16Z</time>
      </trkpt>
      <trkpt lat="48.42477" lon="3.634">
        <ele>148.32</ele>
        <time>2014-09-20T14:19:18Z</time>
      </trkpt>
      <trkpt lat="48.42478" lon="3.63392">
        <ele>148.48</ele>
        <time>2014-09-20T14:19:20Z</time>
      </trkpt>
      <trkpt lat="48.42481" lon="3.63384">
        <ele>148.61</ele>
        <time>2014-09-20T14:19:22Z</time>
      </trkpt>
      <trkpt lat="48.42484" lon="3.63377">
        <ele>148.8</ele>
        <time>2014-09-20T14:19:24Z</time>
      </trkpt>
      <trkpt lat="48.42487" lon="3.63371">
        <ele>148.97</ele>
        <time>2014-09-20T14:19:26Z</time>
      </trkpt>
      <trkpt lat="48.4249" lon="3.63365">
        <ele>149.06</ele>
        <time>2014-09-20T14:19:28Z</time>
      </trkpt>
      <trkpt lat="48.42494" lon="3.6336">
        <ele>149.19</ele>
        <time>2014-09-20T14:19:30Z</time>
      </trkpt>
      <trkpt lat="48.42498" lon="3.63355">
        <ele>149.27</ele>
        <time>2014-09-20T14:19:32Z</time>
      </trkpt>
      <trkpt lat="48.42502" lon="3.6335">
        <ele>149.25</ele>
        <time>2014-09-20T14:19:34Z</time>
      </trkpt>
      <trkpt lat="48.42506" lon="3.63345">
        <ele>149.29</ele>
        <time>2014-09-20T14:19:36Z</time>
      </trkpt>
      <trkpt lat="48.4251" lon="3.63339">
        <ele>149.46</ele>
        <time>2014-09-20T14:19:38Z</time>
      </trkpt>
      <trkpt lat="48.42513" lon="3.63333">
        <ele>149.53</ele>
        <time>2014-09-20T14:19:40Z</time>
      </trkpt>
      <trkpt lat="48.42517" lon="3.63326">
        <ele>149.58</ele>
        <time>2014-09-20T14:19:42Z</time>
      </trkpt>
      <trkpt lat="48.4252" lon="3.63319">
        <ele>149.61</ele>
        <time>2014-09-20T14:19:44Z</time>
      </trkpt>
      <trkpt lat="48.42523" lon="3.63312">
        <ele>149.7</ele>
        <time>2014-09-20T14:19:46Z</time>
      </trkpt>
      <trkpt lat="48.42527" lon="3.63307">
        <ele>149.85</ele>
        <time>2014-09-20T14:19:48Z</time>
      </trkpt>
      <trkpt lat="48.4253" lon="3.63302">
        <ele>149.99</ele>
        <time>2014-09-20T14:19:50Z</time>
      </trkpt>
      <trkpt lat="48.42534" lon="3.63297">
        <ele>150.23</ele>
        <time>2014-09-20T14:19:52Z</time>
      </trkpt>
      <trkpt lat="48.42537" lon="3.63292">
        <ele>150.43</ele>
        <time>2014-09-20T14:19:54Z</time>
      </trkpt>
      <trkpt lat="48.42541" lon="3.63287">
        <ele>150.52</ele>
        <time>2014-09-20T14:19:56Z</time>
      </trkpt>
      <trkpt lat="48.42544" lon="3.63281">
        <ele>150.72</ele>
        <time>2014-09-20T14:19:58Z</time>
      </trkpt>
      <trkpt lat="48.42547" lon="3.63276">
        <ele>150.95</ele>
        <time>2014-09-20T14:20:00Z</time>
      </trkpt>
      <trkpt lat="48.42551" lon="3.6327">
        <ele>151.21</ele>
        <time>2014-09-20T14:20:02Z</time>
      </trkpt>
      <trkpt lat="48.42555" lon="3.63264">
        <ele>151.44</ele>
        <time>2014-09-20T14:20:04Z</time>
      </trkpt>
      <trkpt lat="48.42558" lon="3.63259">
        <ele>151.7</ele>
        <time>2014-09-20T14:20:06Z</time>
      </trkpt>
      <trkpt lat="48.42562" lon="3.63253">
        <ele>151.91</ele>
        <time>2014-09-20T14:20:08Z</time>
      </trkpt>
      <trkpt lat="48.42565" lon="3.63248">
        <ele>152.1</ele>
        <time>2014-09-20T14:20:10Z</time>
      </trkpt>
      <trkpt lat="48.42569" lon="3.63242">
        <ele>152.38</ele>
        <time>2014-09-20T14:20:12Z</time>
      </trkpt>
      <trkpt lat="48.42572" lon="3.63236">
        <ele>152.78</ele>
        <time>2014-09-20T14:20:14Z</time>
      </trkpt>
      <trkpt lat="48.42573" lon="3.63229">
        <ele>153.13</ele>
        <time>2014-09-20T14:20:16Z</time>
      </trkpt>
      <trkpt lat="48.42571" lon="3.63223">
        <ele>153.44</ele>
        <time>2014-09-20T14:20:18Z</time>
      </trkpt>
      <trkpt lat="48.42567" lon="3.63219">
        <ele>153.63</ele>
        <time>2014-09-20T14:20:20Z</time>
      </trkpt>
      <trkpt lat="48.42561" lon="3.63217">
        <ele>153.71</ele>
        <time>2014-09-20T14:20:22Z</time>
      </trkpt>
      <trkpt lat="48.42555" lon="3.63214">
        <ele>153.79</ele>
        <time>2014-09-20T14:20:24Z</time>
      </trkpt>
      <trkpt lat="48.42549" lon="3.63211">
        <ele>153.88</ele>
        <time>2014-09-20T14:20:26Z</time>
      </trkpt>
      <trkpt lat="48.42543" lon="3.63208">
        <ele>153.97</ele>
        <time>2014-09-20T14:20:28Z</time>
      </trkpt>
      <trkpt lat="48.42537" lon="3.63205">
        <ele>154.06</ele>
        <time>2014-09-20T14:20:30Z</time>
      </trkpt>
      <trkpt lat="48.4253" lon="3.63201">
        <ele>154.23</ele>
        <time>2014-09-20T14:20:32Z</time>
      </trkpt>
      <trkpt lat="48.42523" lon="3.63198">
        <ele>154.43</ele>
        <time>2014-09-20T14:20:34Z</time>
      </trkpt>
      <trkpt lat="48.42517" lon="3.63195">
        <ele>154.53</ele>
        <time>2014-09-20T14:20:36Z</time>
      </trkpt>
      <trkpt lat="48.4251" lon="3.63192">
        <ele>154.49</ele>
        <time>2014-09-20T14:20:38Z</time>
      </trkpt>
      <trkpt lat="48.42503" lon="3.6319">
        <ele>154.41</ele>
        <time>2014-09-20T14:20:40Z</time>
      </trkpt>
      <trkpt lat="48.42496" lon="3.63187">
        <ele>154.33</ele>
        <time>2014-09-20T14:20:42Z</time>
      </trkpt>
      <trkpt lat="48.42489" lon="3.63184">
        <ele>154.24</ele>
        <time>2014-09-20T14:20:44Z</time>
      </trkpt>
      <trkpt lat="48.42481" lon="3.63179">
        <ele>154.28</ele>
        <time>2014-09-20T14:20:46Z</time>
      </trkpt>
      <trkpt lat="48.42473" lon="3.63176">
        <ele>154.34</ele>
        <time>2014-09-20T14:20:48Z</time>
      </trkpt>
      <trkpt lat="48.42466" lon="3.63172">
        <ele>154.41</ele>
        <time>2014-09-20T14:20:50Z</time>
      </trkpt>
      <trkpt lat="48.42458" lon="3.63169">
        <ele>154.46</ele>
        <time>2014-09-20T14:20:52Z</time>
      </trkpt>
      <trkpt lat="48.42451" lon="3.63165">
        <ele>154.53</ele>
        <time>2014-09-20T14:20:54Z</time>
      </trkpt>
      <trkpt lat="48.42444" lon="3.63161">
        <ele>154.62</ele>
        <time>2014-09-20T14:20:56Z</time>
      </trkpt>
      <trkpt lat="48.42437" lon="3.63158">
        <ele>154.64</ele>
        <time>2014-09-20T14:20:58Z</time>
      </trkpt>
      <trkpt lat="48.4243" lon="3.63155">
        <ele>154.64</ele>
        <time>2014-09-20T14:21:00Z</time>
      </trkpt>
      <trkpt lat="48.42423" lon="3.63151">
        <ele>154.59</ele>
        <time>2014-09-20T14:21:02Z</time>
      </trkpt>
      <trkpt lat="48.42417" lon="3.63148">
        <ele>154.61</ele>
        <time>2014-09-20T14:21:04Z</time>
      </trkpt>
      <trkpt lat="48.4241" lon="3.63145">
        <ele>154.64</ele>
        <time>2014-09-20T14:21:06Z</time>
      </trkpt>
      <trkpt lat="48.42403" lon="3.63142">
        <ele>154.75</ele>
        <time>2014-09-20T14:21:08Z</time>
      </trkpt>
      <trkpt lat="48.42396" lon="3.63138">
        <ele>154.9</ele>
        <time>2014-09-20T14:21:10Z</time>
      </trkpt>
      <trkpt lat="48.42389" lon="3.63135">
        <ele>155.02</ele>
        <time>2014-09-20T14:21:12Z</time>
      </trkpt>
      <trkpt lat="48.42383" lon="3.63132">
        <ele>155.11</ele>
        <time>2014-09-20T14:21:14Z</time>
      </trkpt>
      <trkpt lat="48.42376" lon="3.63129">
        <ele>155.19</ele>
        <time>2014-09-20T14:21:16Z</time>
      </trkpt>
      <trkpt lat="48.4237" lon="3.63126">
        <ele>155.3</ele>
        <time>2014-09-20T14:21:18Z</time>
      </trkpt>
      <trkpt lat="48.42364" lon="3.63123">
        <ele>155.42</ele>
        <time>2014-09-20T14:21:20Z</time>
      </trkpt>
      <trkpt lat="48.42358" lon="3.63119">
        <ele>155.49</ele>
        <time>2014-09-20T14:21:22Z</time>
      </trkpt>
      <trkpt lat="48.42353" lon="3.63116">
        <ele>155.64</ele>
        <time>2014-09-20T14:21:24Z</time>
      </trkpt>
      <trkpt lat="48.42349" lon="3.63113">
        <ele>155.79</ele>
        <time>2014-09-20T14:21:26Z</time>
      </trkpt>
      <trkpt lat="48.42343" lon="3.63111">
        <ele>155.83</ele>
        <time>2014-09-20T14:21:28Z</time>
      </trkpt>
      <trkpt lat="48.42337" lon="3.63109">
        <ele>155.87</ele>
        <time>2014-09-20T14:21:30Z</time>
      </trkpt>
      <trkpt lat="48.42332" lon="3.63107">
        <ele>155.96</ele>
        <time>2014-09-20T14:21:32Z</time>
      </trkpt>
      <trkpt lat="48.42327" lon="3.63104">
        <ele>156.11</ele>
        <time>2014-09-20T14:21:34Z</time>
      </trkpt>
      <trkpt lat="48.42321" lon="3.63102">
        <ele>156.18</ele>
        <time>2014-09-20T14:21:36Z</time>
      </trkpt>
      <trkpt lat="48.42315" lon="3.63099">
        <ele>156.32</ele>
        <time>2014-09-20T14:21:38Z</time>
      </trkpt>
      <trkpt lat="48.4231" lon="3.63096">
        <ele>156.52</ele>
        <time>2014-09-20T14:21:40Z</time>
      </trkpt>
      <trkpt lat="48.42305" lon="3.63094">
        <ele>156.71</ele>
        <time>2014-09-20T14:21:42Z</time>
      </trkpt>
      <trkpt lat="48.42299" lon="3.63091">
        <ele>156.92</ele>
        <time>2014-09-20T14:21:44Z</time>
      </trkpt>
      <trkpt lat="48.42294" lon="3.63088">
        <ele>157.1</ele>
        <time>2014-09-20T14:21:46Z</time>
      </trkpt>
      <trkpt lat="48.42289" lon="3.63085">
        <ele>157.2</ele>
        <time>2014-09-20T14:21:48Z</time>
      </trkpt>
      <trkpt lat="48.42283" lon="3.63082">
        <ele>157.28</ele>
        <time>2014-09-20T14:21:50Z</time>
      </trkpt>
      <trkpt lat="48.42277" lon="3.63078">
        <ele>157.46</ele>
        <time>2014-09-20T14:21:52Z</time>
      </trkpt>
      <trkpt lat="48.42271" lon="3.63075">
        <ele>157.76</ele>
        <time>2014-09-20T14:21:54Z</time>
      </trkpt>
      <trkpt lat="48.42264" lon="3.63071">
        <ele>158.06</ele>
        <time>2014-09-20T14:21:56Z</time>
      </trkpt>
      <trkpt lat="48.42257" lon="3.63067">
        <ele>158.49</ele>
        <time>2014-09-20T14:21:58Z</time>
      </trkpt>
      <trkpt lat="48.4225" lon="3.63064">
        <ele>158.91</ele>
        <time>2014-09-20T14:22:00Z</time>
      </trkpt>
      <trkpt lat="48.42243" lon="3.6306">
        <ele>159.2</ele>
        <time>2014-09-20T14:22:02Z</time>
      </trkpt>
      <trkpt lat="48.42237" lon="3.63059">
        <ele>159.36</ele>
        <time>2014-09-20T14:22:04Z</time>
      </trkpt>
      <trkpt lat="48.42233" lon="3.63065">
        <ele>159.27</ele>
        <time>2014-09-20T14:22:06Z</time>
      </trkpt>
      <trkpt lat="48.4223" lon="3.63076">
        <ele>159.01</ele>
        <time>2014-09-20T14:22:08Z</time>
      </trkpt>
      <trkpt lat="48.42228" lon="3.63089">
        <ele>158.9</ele>
        <time>2014-09-20T14:22:10Z</time>
      </trkpt>
      <trkpt lat="48.42227" lon="3.63095">
        <ele>158.83</ele>
        <time>2014-09-20T14:22:11Z</time>
      </trkpt>
      <trkpt lat="48.42225" lon="3.63102">
        <ele>158.78</ele>
        <time>2014-09-20T14:22:12Z</time>
      </trkpt>
      <trkpt lat="48.42223" lon="3.6311">
        <ele>158.77</ele>
        <time>2014-09-20T14:22:13Z</time>
      </trkpt>
      <trkpt lat="48.42221" lon="3.63118">
        <ele>158.78</ele>
        <time>2014-09-20T14:22:14Z</time>
      </trkpt>
      <trkpt lat="48.42219" lon="3.63124">
        <ele>158.84</ele>
        <time>2014-09-20T14:22:15Z</time>
      </trkpt>
      <trkpt lat="48.42216" lon="3.63137">
        <ele>159.09</ele>
        <time>2014-09-20T14:22:17Z</time>
      </trkpt>
      <trkpt lat="48.42214" lon="3.63145">
        <ele>159.25</ele>
        <time>2014-09-20T14:22:18Z</time>
      </trkpt>
      <trkpt lat="48.42211" lon="3.63152">
        <ele>159.37</ele>
        <time>2014-09-20T14:22:19Z</time>
      </trkpt>
      <trkpt lat="48.42208" lon="3.63159">
        <ele>159.48</ele>
        <time>2014-09-20T14:22:20Z</time>
      </trkpt>
      <trkpt lat="48.42205" lon="3.63167">
        <ele>159.52</ele>
        <time>2014-09-20T14:22:21Z</time>
      </trkpt>
      <trkpt lat="48.42202" lon="3.63173">
        <ele>159.55</ele>
        <time>2014-09-20T14:22:22Z</time>
      </trkpt>
      <trkpt lat="48.422" lon="3.6318">
        <ele>159.62</ele>
        <time>2014-09-20T14:22:23Z</time>
      </trkpt>
      <trkpt lat="48.42196" lon="3.63191">
        <ele>159.88</ele>
        <time>2014-09-20T14:22:25Z</time>
      </trkpt>
      <trkpt lat="48.42193" lon="3.63201">
        <ele>160.17</ele>
        <time>2014-09-20T14:22:27Z</time>
      </trkpt>
      <trkpt lat="48.42187" lon="3.63205">
        <ele>160.43</ele>
        <time>2014-09-20T14:22:29Z</time>
      </trkpt>
      <trkpt lat="48.42183" lon="3.63201">
        <ele>160.42</ele>
        <time>2014-09-20T14:22:31Z</time>
      </trkpt>
      <trkpt lat="48.42177" lon="3.63196">
        <ele>160.28</ele>
        <time>2014-09-20T14:22:33Z</time>
      </trkpt>
      <trkpt lat="48.4217" lon="3.63191">
        <ele>159.99</ele>
        <time>2014-09-20T14:22:35Z</time>
      </trkpt>
      <trkpt lat="48.42163" lon="3.63186">
        <ele>159.7</ele>
        <time>2014-09-20T14:22:37Z</time>
      </trkpt>
      <trkpt lat="48.42159" lon="3.63181">
        <ele>159.67</ele>
        <time>2014-09-20T14:22:39Z</time>
      </trkpt>
      <trkpt lat="48.42152" lon="3.63176">
        <ele>159.86</ele>
        <time>2014-09-20T14:22:41Z</time>
      </trkpt>
      <trkpt lat="48.42146" lon="3.63174">
        <ele>159.85</ele>
        <time>2014-09-20T14:22:42Z</time>
      </trkpt>
      <trkpt lat="48.42139" lon="3.63168">
        <ele>159.91</ele>
        <time>2014-09-20T14:22:44Z</time>
      </trkpt>
      <trkpt lat="48.42132" lon="3.63164">
        <ele>160.21</ele>
        <time>2014-09-20T14:22:46Z</time>
      </trkpt>
      <trkpt lat="48.42126" lon="3.63161">
        <ele>160.6</ele>
        <time>2014-09-20T14:22:48Z</time>
      </trkpt>
      <trkpt lat="48.4212" lon="3.63157">
        <ele>161.06</ele>
        <time>2014-09-20T14:22:50Z</time>
      </trkpt>
      <trkpt lat="48.42114" lon="3.63153">
        <ele>161.35</ele>
        <time>2014-09-20T14:22:52Z</time>
      </trkpt>
      <trkpt lat="48.42109" lon="3.6315">
        <ele>161.47</ele>
        <time>2014-09-20T14:22:53Z</time>
      </trkpt>
      <trkpt lat="48.42102" lon="3.63145">
        <ele>161.53</ele>
        <time>2014-09-20T14:22:55Z</time>
      </trkpt>
      <trkpt lat="48.42095" lon="3.6314">
        <ele>161.53</ele>
        <time>2014-09-20T14:22:57Z</time>
      </trkpt>
      <trkpt lat="48.42089" lon="3.63136">
        <ele>161.55</ele>
        <time>2014-09-20T14:22:59Z</time>
      </trkpt>
      <trkpt lat="48.42084" lon="3.63132">
        <ele>161.63</ele>
        <time>2014-09-20T14:23:01Z</time>
      </trkpt>
      <trkpt lat="48.42077" lon="3.63129">
        <ele>161.77</ele>
        <time>2014-09-20T14:23:03Z</time>
      </trkpt>
      <trkpt lat="48.42073" lon="3.63118">
        <ele>161.78</ele>
        <time>2014-09-20T14:23:05Z</time>
      </trkpt>
      <trkpt lat="48.42069" lon="3.63112">
        <ele>161.72</ele>
        <time>2014-09-20T14:23:07Z</time>
      </trkpt>
      <trkpt lat="48.42064" lon="3.63105">
        <ele>161.68</ele>
        <time>2014-09-20T14:23:09Z</time>
      </trkpt>
      <trkpt lat="48.42058" lon="3.63097">
        <ele>161.72</ele>
        <time>2014-09-20T14:23:11Z</time>
      </trkpt>
      <trkpt lat="48.42052" lon="3.63088">
        <ele>161.77</ele>
        <time>2014-09-20T14:23:13Z</time>
      </trkpt>
      <trkpt lat="48.42046" lon="3.6308">
        <ele>161.79</ele>
        <time>2014-09-20T14:23:15Z</time>
      </trkpt>
      <trkpt lat="48.4204" lon="3.63071">
        <ele>161.83</ele>
        <time>2014-09-20T14:23:17Z</time>
      </trkpt>
      <trkpt lat="48.42035" lon="3.63064">
        <ele>161.85</ele>
        <time>2014-09-20T14:23:19Z</time>
      </trkpt>
      <trkpt lat="48.42029" lon="3.63056">
        <ele>161.75</ele>
        <time>2014-09-20T14:23:21Z</time>
      </trkpt>
      <trkpt lat="48.42023" lon="3.63048">
        <ele>161.56</ele>
        <time>2014-09-20T14:23:23Z</time>
      </trkpt>
      <trkpt lat="48.42017" lon="3.63042">
        <ele>161.41</ele>
        <time>2014-09-20T14:23:25Z</time>
      </trkpt>
      <trkpt lat="48.42013" lon="3.63034">
        <ele>161.35</ele>
        <time>2014-09-20T14:23:27Z</time>
      </trkpt>
      <trkpt lat="48.42008" lon="3.63027">
        <ele>161.3</ele>
        <time>2014-09-20T14:23:29Z</time>
      </trkpt>
      <trkpt lat="48.42003" lon="3.6302">
        <ele>161.27</ele>
        <time>2014-09-20T14:23:31Z</time>
      </trkpt>
      <trkpt lat="48.41998" lon="3.63014">
        <ele>161.16</ele>
        <time>2014-09-20T14:23:33Z</time>
      </trkpt>
      <trkpt lat="48.41993" lon="3.63007">
        <ele>161.13</ele>
        <time>2014-09-20T14:23:35Z</time>
      </trkpt>
      <trkpt lat="48.41987" lon="3.63">
        <ele>161.08</ele>
        <time>2014-09-20T14:23:37Z</time>
      </trkpt>
      <trkpt lat="48.41982" lon="3.62993">
        <ele>160.97</ele>
        <time>2014-09-20T14:23:39Z</time>
      </trkpt>
      <trkpt lat="48.41977" lon="3.62985">
        <ele>160.94</ele>
        <time>2014-09-20T14:23:41Z</time>
      </trkpt>
      <trkpt lat="48.41971" lon="3.62978">
        <ele>160.83</ele>
        <time>2014-09-20T14:23:43Z</time>
      </trkpt>
      <trkpt lat="48.41966" lon="3.62972">
        <ele>160.85</ele>
        <time>2014-09-20T14:23:45Z</time>
      </trkpt>
      <trkpt lat="48.4196" lon="3.62964">
        <ele>160.77</ele>
        <time>2014-09-20T14:23:47Z</time>
      </trkpt>
      <trkpt lat="48.41955" lon="3.62955">
        <ele>160.69</ele>
        <time>2014-09-20T14:23:49Z</time>
      </trkpt>
      <trkpt lat="48.41949" lon="3.62947">
        <ele>160.64</ele>
        <time>2014-09-20T14:23:51Z</time>
      </trkpt>
      <trkpt lat="48.41944" lon="3.62939">
        <ele>160.64</ele>
        <time>2014-09-20T14:23:53Z</time>
      </trkpt>
      <trkpt lat="48.41938" lon="3.62931">
        <ele>160.72</ele>
        <time>2014-09-20T14:23:55Z</time>
      </trkpt>
      <trkpt lat="48.41932" lon="3.62923">
        <ele>160.9</ele>
        <time>2014-09-20T14:23:57Z</time>
      </trkpt>
      <trkpt lat="48.41926" lon="3.62915">
        <ele>161</ele>
        <time>2014-09-20T14:23:59Z</time>
      </trkpt>
      <trkpt lat="48.4192" lon="3.62907">
        <ele>161.08</ele>
        <time>2014-09-20T14:24:01Z</time>
      </trkpt>
      <trkpt lat="48.41915" lon="3.62899">
        <ele>161.28</ele>
        <time>2014-09-20T14:24:03Z</time>
      </trkpt>
      <trkpt lat="48.4191" lon="3.62892">
        <ele>161.55</ele>
        <time>2014-09-20T14:24:05Z</time>
      </trkpt>
      <trkpt lat="48.41905" lon="3.62885">
        <ele>161.78</ele>
        <time>2014-09-20T14:24:07Z</time>
      </trkpt>
      <trkpt lat="48.419" lon="3.62877">
        <ele>162.03</ele>
        <time>2014-09-20T14:24:09Z</time>
      </trkpt>
      <trkpt lat="48.41895" lon="3.6287">
        <ele>162.25</ele>
        <time>2014-09-20T14:24:11Z</time>
      </trkpt>
      <trkpt lat="48.4189" lon="3.62863">
        <ele>162.42</ele>
        <time>2014-09-20T14:24:13Z</time>
      </trkpt>
      <trkpt lat="48.41885" lon="3.62856">
        <ele>162.62</ele>
        <time>2014-09-20T14:24:15Z</time>
      </trkpt>
      <trkpt lat="48.4188" lon="3.62849">
        <ele>162.77</ele>
        <time>2014-09-20T14:24:17Z</time>
      </trkpt>
      <trkpt lat="48.41876" lon="3.62842">
        <ele>162.96</ele>
        <time>2014-09-20T14:24:19Z</time>
      </trkpt>
      <trkpt lat="48.41871" lon="3.62836">
        <ele>163.05</ele>
        <time>2014-09-20T14:24:21Z</time>
      </trkpt>
      <trkpt lat="48.41866" lon="3.6283">
        <ele>163.09</ele>
        <time>2014-09-20T14:24:23Z</time>
      </trkpt>
      <trkpt lat="48.41862" lon="3.62824">
        <ele>163.09</ele>
        <time>2014-09-20T14:24:25Z</time>
      </trkpt>
      <trkpt lat="48.41859" lon="3.62819">
        <ele>163.15</ele>
        <time>2014-09-20T14:24:27Z</time>
      </trkpt>
      <trkpt lat="48.41856" lon="3.62814">
        <ele>163.23</ele>
        <time>2014-09-20T14:24:29Z</time>
      </trkpt>
      <trkpt lat="48.41851" lon="3.62808">
        <ele>163.13</ele>
        <time>2014-09-20T14:24:32Z</time>
      </trkpt>
      <trkpt lat="48.41847" lon="3.62803">
        <ele>163.04</ele>
        <time>2014-09-20T14:24:34Z</time>
      </trkpt>
      <trkpt lat="48.41842" lon="3.62797">
        <ele>162.99</ele>
        <time>2014-09-20T14:24:36Z</time>
      </trkpt>
      <trkpt lat="48.41838" lon="3.6279">
        <ele>163.06</ele>
        <time>2014-09-20T14:24:38Z</time>
      </trkpt>
      <trkpt lat="48.41833" lon="3.62784">
        <ele>163.21</ele>
        <time>2014-09-20T14:24:40Z</time>
      </trkpt>
      <trkpt lat="48.41829" lon="3.62777">
        <ele>163.43</ele>
        <time>2014-09-20T14:24:42Z</time>
      </trkpt>
      <trkpt lat="48.41825" lon="3.62772">
        <ele>163.4</ele>
        <time>2014-09-20T14:24:44Z</time>
      </trkpt>
      <trkpt lat="48.41821" lon="3.62766">
        <ele>163.39</ele>
        <time>2014-09-20T14:24:46Z</time>
      </trkpt>
      <trkpt lat="48.41817" lon="3.62759">
        <ele>163.45</ele>
        <time>2014-09-20T14:24:48Z</time>
      </trkpt>
      <trkpt lat="48.41812" lon="3.62754">
        <ele>163.57</ele>
        <time>2014-09-20T14:24:50Z</time>
      </trkpt>
      <trkpt lat="48.41808" lon="3.62747">
        <ele>163.8</ele>
        <time>2014-09-20T14:24:52Z</time>
      </trkpt>
      <trkpt lat="48.41804" lon="3.62742">
        <ele>164.03</ele>
        <time>2014-09-20T14:24:54Z</time>
      </trkpt>
      <trkpt lat="48.418" lon="3.62736">
        <ele>164.11</ele>
        <time>2014-09-20T14:24:56Z</time>
      </trkpt>
      <trkpt lat="48.41796" lon="3.6273">
        <ele>164.12</ele>
        <time>2014-09-20T14:24:58Z</time>
      </trkpt>
      <trkpt lat="48.41792" lon="3.62724">
        <ele>164.12</ele>
        <time>2014-09-20T14:25:00Z</time>
      </trkpt>
      <trkpt lat="48.41788" lon="3.62718">
        <ele>164.2</ele>
        <time>2014-09-20T14:25:02Z</time>
      </trkpt>
      <trkpt lat="48.41785" lon="3.62713">
        <ele>164.44</ele>
        <time>2014-09-20T14:25:04Z</time>
      </trkpt>
      <trkpt lat="48.41781" lon="3.62705">
        <ele>164.95</ele>
        <time>2014-09-20T14:25:07Z</time>
      </trkpt>
      <trkpt lat="48.41777" lon="3.62698">
        <ele>165.44</ele>
        <time>2014-09-20T14:25:10Z</time>
      </trkpt>
      <trkpt lat="48.41773" lon="3.62693">
        <ele>165.63</ele>
        <time>2014-09-20T14:25:12Z</time>
      </trkpt>
      <trkpt lat="48.41769" lon="3.62688">
        <ele>165.7</ele>
        <time>2014-09-20T14:25:14Z</time>
      </trkpt>
      <trkpt lat="48.41765" lon="3.62685">
        <ele>165.91</ele>
        <time>2014-09-20T14:25:16Z</time>
      </trkpt>
      <trkpt lat="48.41759" lon="3.62679">
        <ele>166.14</ele>
        <time>2014-09-20T14:25:18Z</time>
      </trkpt>
      <trkpt lat="48.41754" lon="3.62676">
        <ele>166.26</ele>
        <time>2014-09-20T14:25:20Z</time>
      </trkpt>
      <trkpt lat="48.41748" lon="3.62672">
        <ele>166.27</ele>
        <time>2014-09-20T14:25:22Z</time>
      </trkpt>
      <trkpt lat="48.41741" lon="3.62668">
        <ele>166.25</ele>
        <time>2014-09-20T14:25:24Z</time>
      </trkpt>
      <trkpt lat="48.41735" lon="3.62665">
        <ele>166.2</ele>
        <time>2014-09-20T14:25:26Z</time>
      </trkpt>
      <trkpt lat="48.41729" lon="3.62663">
        <ele>166.26</ele>
        <time>2014-09-20T14:25:28Z</time>
      </trkpt>
      <trkpt lat="48.41722" lon="3.6266">
        <ele>166.53</ele>
        <time>2014-09-20T14:25:30Z</time>
      </trkpt>
      <trkpt lat="48.41714" lon="3.62654">
        <ele>166.84</ele>
        <time>2014-09-20T14:25:32Z</time>
      </trkpt>
      <trkpt lat="48.4171" lon="3.62651">
        <ele>166.96</ele>
        <time>2014-09-20T14:25:33Z</time>
      </trkpt>
      <trkpt lat="48.41706" lon="3.62648">
        <ele>167.06</ele>
        <time>2014-09-20T14:25:34Z</time>
      </trkpt>
      <trkpt lat="48.41701" lon="3.62645">
        <ele>167.12</ele>
        <time>2014-09-20T14:25:35Z</time>
      </trkpt>
      <trkpt lat="48.41697" lon="3.62642">
        <ele>167.2</ele>
        <time>2014-09-20T14:25:36Z</time>
      </trkpt>
      <trkpt lat="48.41693" lon="3.62639">
        <ele>167.23</ele>
        <time>2014-09-20T14:25:37Z</time>
      </trkpt>
      <trkpt lat="48.41688" lon="3.62636">
        <ele>167.28</ele>
        <time>2014-09-20T14:25:38Z</time>
      </trkpt>
      <trkpt lat="48.41684" lon="3.62634">
        <ele>167.34</ele>
        <time>2014-09-20T14:25:39Z</time>
      </trkpt>
      <trkpt lat="48.4168" lon="3.62631">
        <ele>167.34</ele>
        <time>2014-09-20T14:25:40Z</time>
      </trkpt>
      <trkpt lat="48.41675" lon="3.62628">
        <ele>167.34</ele>
        <time>2014-09-20T14:25:41Z</time>
      </trkpt>
      <trkpt lat="48.41671" lon="3.62625">
        <ele>167.28</ele>
        <time>2014-09-20T14:25:42Z</time>
      </trkpt>
      <trkpt lat="48.41666" lon="3.62622">
        <ele>167.2</ele>
        <time>2014-09-20T14:25:43Z</time>
      </trkpt>
      <trkpt lat="48.41662" lon="3.62619">
        <ele>167.05</ele>
        <time>2014-09-20T14:25:44Z</time>
      </trkpt>
      <trkpt lat="48.41657" lon="3.62617">
        <ele>166.92</ele>
        <time>2014-09-20T14:25:45Z</time>
      </trkpt>
      <trkpt lat="48.41652" lon="3.62614">
        <ele>166.8</ele>
        <time>2014-09-20T14:25:46Z</time>
      </trkpt>
      <trkpt lat="48.41647" lon="3.62611">
        <ele>166.66</ele>
        <time>2014-09-20T14:25:47Z</time>
      </trkpt>
      <trkpt lat="48.41642" lon="3.62608">
        <ele>166.55</ele>
        <time>2014-09-20T14:25:48Z</time>
      </trkpt>
      <trkpt lat="48.41637" lon="3.62605">
        <ele>166.44</ele>
        <time>2014-09-20T14:25:49Z</time>
      </trkpt>
      <trkpt lat="48.41633" lon="3.62602">
        <ele>166.29</ele>
        <time>2014-09-20T14:25:50Z</time>
      </trkpt>
      <trkpt lat="48.41628" lon="3.62598">
        <ele>166.15</ele>
        <time>2014-09-20T14:25:51Z</time>
      </trkpt>
      <trkpt lat="48.41623" lon="3.62594">
        <ele>166.02</ele>
        <time>2014-09-20T14:25:52Z</time>
      </trkpt>
      <trkpt lat="48.41618" lon="3.62591">
        <ele>165.87</ele>
        <time>2014-09-20T14:25:53Z</time>
      </trkpt>
      <trkpt lat="48.41613" lon="3.62588">
        <ele>165.71</ele>
        <time>2014-09-20T14:25:54Z</time>
      </trkpt>
      <trkpt lat="48.41608" lon="3.62584">
        <ele>165.54</ele>
        <time>2014-09-20T14:25:55Z</time>
      </trkpt>
      <trkpt lat="48.41602" lon="3.62581">
        <ele>165.36</ele>
        <time>2014-09-20T14:25:56Z</time>
      </trkpt>
      <trkpt lat="48.41597" lon="3.62577">
        <ele>165.15</ele>
        <time>2014-09-20T14:25:57Z</time>
      </trkpt>
      <trkpt lat="48.41591" lon="3.62574">
        <ele>164.97</ele>
        <time>2014-09-20T14:25:58Z</time>
      </trkpt>
      <trkpt lat="48.41585" lon="3.62571">
        <ele>164.76</ele>
        <time>2014-09-20T14:25:59Z</time>
      </trkpt>
      <trkpt lat="48.41579" lon="3.62567">
        <ele>164.55</ele>
        <time>2014-09-20T14:26:00Z</time>
      </trkpt>
      <trkpt lat="48.41573" lon="3.62563">
        <ele>164.35</ele>
        <time>2014-09-20T14:26:01Z</time>
      </trkpt>
      <trkpt lat="48.41567" lon="3.6256">
        <ele>164.12</ele>
        <time>2014-09-20T14:26:02Z</time>
      </trkpt>
      <trkpt lat="48.41561" lon="3.62556">
        <ele>163.89</ele>
        <time>2014-09-20T14:26:03Z</time>
      </trkpt>
      <trkpt lat="48.41555" lon="3.62553">
        <ele>163.65</ele>
        <time>2014-09-20T14:26:04Z</time>
      </trkpt>
      <trkpt lat="48.41549" lon="3.62549">
        <ele>163.4</ele>
        <time>2014-09-20T14:26:05Z</time>
      </trkpt>
      <trkpt lat="48.41543" lon="3.62546">
        <ele>163.13</ele>
        <time>2014-09-20T14:26:06Z</time>
      </trkpt>
      <trkpt lat="48.41537" lon="3.62542">
        <ele>162.88</ele>
        <time>2014-09-20T14:26:07Z</time>
      </trkpt>
      <trkpt lat="48.41531" lon="3.62539">
        <ele>162.64</ele>
        <time>2014-09-20T14:26:08Z</time>
      </trkpt>
      <trkpt lat="48.41524" lon="3.62535">
        <ele>162.41</ele>
        <time>2014-09-20T14:26:09Z</time>
      </trkpt>
      <trkpt lat="48.41518" lon="3.62532">
        <ele>162.22</ele>
        <time>2014-09-20T14:26:10Z</time>
      </trkpt>
      <trkpt lat="48.41512" lon="3.62528">
        <ele>162.04</ele>
        <time>2014-09-20T14:26:11Z</time>
      </trkpt>
      <trkpt lat="48.41506" lon="3.62525">
        <ele>161.89</ele>
        <time>2014-09-20T14:26:12Z</time>
      </trkpt>
      <trkpt lat="48.415" lon="3.62522">
        <ele>161.75</ele>
        <time>2014-09-20T14:26:13Z</time>
      </trkpt>
      <trkpt lat="48.41495" lon="3.62518">
        <ele>161.62</ele>
        <time>2014-09-20T14:26:14Z</time>
      </trkpt>
      <trkpt lat="48.41489" lon="3.62515">
        <ele>161.55</ele>
        <time>2014-09-20T14:26:15Z</time>
      </trkpt>
      <trkpt lat="48.41483" lon="3.62512">
        <ele>161.52</ele>
        <time>2014-09-20T14:26:16Z</time>
      </trkpt>
      <trkpt lat="48.41477" lon="3.62509">
        <ele>161.47</ele>
        <time>2014-09-20T14:26:17Z</time>
      </trkpt>
      <trkpt lat="48.41472" lon="3.62506">
        <ele>161.43</ele>
        <time>2014-09-20T14:26:18Z</time>
      </trkpt>
      <trkpt lat="48.41466" lon="3.62503">
        <ele>161.36</ele>
        <time>2014-09-20T14:26:19Z</time>
      </trkpt>
      <trkpt lat="48.41461" lon="3.625">
        <ele>161.28</ele>
        <time>2014-09-20T14:26:20Z</time>
      </trkpt>
      <trkpt lat="48.41455" lon="3.62497">
        <ele>161.21</ele>
        <time>2014-09-20T14:26:21Z</time>
      </trkpt>
      <trkpt lat="48.4145" lon="3.62494">
        <ele>161.14</ele>
        <time>2014-09-20T14:26:22Z</time>
      </trkpt>
      <trkpt lat="48.41444" lon="3.62491">
        <ele>161.09</ele>
        <time>2014-09-20T14:26:23Z</time>
      </trkpt>
      <trkpt lat="48.41439" lon="3.62488">
        <ele>161.02</ele>
        <time>2014-09-20T14:26:24Z</time>
      </trkpt>
      <trkpt lat="48.41434" lon="3.62485">
        <ele>160.97</ele>
        <time>2014-09-20T14:26:25Z</time>
      </trkpt>
      <trkpt lat="48.41429" lon="3.62482">
        <ele>160.91</ele>
        <time>2014-09-20T14:26:26Z</time>
      </trkpt>
      <trkpt lat="48.41424" lon="3.62479">
        <ele>160.87</ele>
        <time>2014-09-20T14:26:27Z</time>
      </trkpt>
      <trkpt lat="48.41419" lon="3.62476">
        <ele>160.83</ele>
        <time>2014-09-20T14:26:28Z</time>
      </trkpt>
      <trkpt lat="48.41414" lon="3.62473">
        <ele>160.81</ele>
        <time>2014-09-20T14:26:29Z</time>
      </trkpt>
      <trkpt lat="48.41409" lon="3.6247">
        <ele>160.81</ele>
        <time>2014-09-20T14:26:30Z</time>
      </trkpt>
      <trkpt lat="48.41404" lon="3.62467">
        <ele>160.82</ele>
        <time>2014-09-20T14:26:31Z</time>
      </trkpt>
      <trkpt lat="48.41399" lon="3.62464">
        <ele>160.84</ele>
        <time>2014-09-20T14:26:32Z</time>
      </trkpt>
      <trkpt lat="48.41394" lon="3.62461">
        <ele>160.84</ele>
        <time>2014-09-20T14:26:33Z</time>
      </trkpt>
      <trkpt lat="48.41389" lon="3.62459">
        <ele>160.84</ele>
        <time>2014-09-20T14:26:34Z</time>
      </trkpt>
      <trkpt lat="48.41385" lon="3.62455">
        <ele>160.86</ele>
        <time>2014-09-20T14:26:35Z</time>
      </trkpt>
      <trkpt lat="48.4138" lon="3.62452">
        <ele>160.95</ele>
        <time>2014-09-20T14:26:36Z</time>
      </trkpt>
      <trkpt lat="48.41376" lon="3.6245">
        <ele>161</ele>
        <time>2014-09-20T14:26:37Z</time>
      </trkpt>
      <trkpt lat="48.41371" lon="3.62447">
        <ele>161.03</ele>
        <time>2014-09-20T14:26:38Z</time>
      </trkpt>
      <trkpt lat="48.41367" lon="3.62445">
        <ele>161.05</ele>
        <time>2014-09-20T14:26:39Z</time>
      </trkpt>
      <trkpt lat="48.41362" lon="3.62442">
        <ele>161.1</ele>
        <time>2014-09-20T14:26:40Z</time>
      </trkpt>
      <trkpt lat="48.41358" lon="3.6244">
        <ele>161.18</ele>
        <time>2014-09-20T14:26:41Z</time>
      </trkpt>
      <trkpt lat="48.4135" lon="3.62435">
        <ele>161.29</ele>
        <time>2014-09-20T14:26:43Z</time>
      </trkpt>
      <trkpt lat="48.41342" lon="3.62433">
        <ele>161.37</ele>
        <time>2014-09-20T14:26:45Z</time>
      </trkpt>
      <trkpt lat="48.41334" lon="3.62428">
        <ele>161.55</ele>
        <time>2014-09-20T14:26:47Z</time>
      </trkpt>
      <trkpt lat="48.41326" lon="3.62423">
        <ele>161.67</ele>
        <time>2014-09-20T14:26:49Z</time>
      </trkpt>
      <trkpt lat="48.41319" lon="3.62419">
        <ele>161.77</ele>
        <time>2014-09-20T14:26:51Z</time>
      </trkpt>
      <trkpt lat="48.41311" lon="3.62415">
        <ele>161.86</ele>
        <time>2014-09-20T14:26:53Z</time>
      </trkpt>
      <trkpt lat="48.41304" lon="3.62412">
        <ele>161.82</ele>
        <time>2014-09-20T14:26:55Z</time>
      </trkpt>
      <trkpt lat="48.41298" lon="3.62408">
        <ele>161.78</ele>
        <time>2014-09-20T14:26:57Z</time>
      </trkpt>
      <trkpt lat="48.41291" lon="3.62404">
        <ele>161.71</ele>
        <time>2014-09-20T14:26:59Z</time>
      </trkpt>
      <trkpt lat="48.41283" lon="3.62399">
        <ele>161.58</ele>
        <time>2014-09-20T14:27:01Z</time>
      </trkpt>
      <trkpt lat="48.41275" lon="3.62395">
        <ele>161.33</ele>
        <time>2014-09-20T14:27:03Z</time>
      </trkpt>
      <trkpt lat="48.41267" lon="3.62391">
        <ele>161.15</ele>
        <time>2014-09-20T14:27:05Z</time>
      </trkpt>
      <trkpt lat="48.41259" lon="3.62386">
        <ele>161.03</ele>
        <time>2014-09-20T14:27:07Z</time>
      </trkpt>
      <trkpt lat="48.4125" lon="3.62381">
        <ele>160.88</ele>
        <time>2014-09-20T14:27:09Z</time>
      </trkpt>
      <trkpt lat="48.41246" lon="3.62378">
        <ele>160.79</ele>
        <time>2014-09-20T14:27:10Z</time>
      </trkpt>
      <trkpt lat="48.41238" lon="3.62373">
        <ele>160.58</ele>
        <time>2014-09-20T14:27:12Z</time>
      </trkpt>
      <trkpt lat="48.41231" lon="3.62366">
        <ele>160.4</ele>
        <time>2014-09-20T14:27:14Z</time>
      </trkpt>
      <trkpt lat="48.41224" lon="3.62358">
        <ele>160.3</ele>
        <time>2014-09-20T14:27:16Z</time>
      </trkpt>
      <trkpt lat="48.41218" lon="3.6235">
        <ele>160.2</ele>
        <time>2014-09-20T14:27:18Z</time>
      </trkpt>
      <trkpt lat="48.41211" lon="3.62341">
        <ele>160.18</ele>
        <time>2014-09-20T14:27:20Z</time>
      </trkpt>
      <trkpt lat="48.41205" lon="3.62333">
        <ele>160.29</ele>
        <time>2014-09-20T14:27:22Z</time>
      </trkpt>
      <trkpt lat="48.41199" lon="3.62325">
        <ele>160.41</ele>
        <time>2014-09-20T14:27:24Z</time>
      </trkpt>
      <trkpt lat="48.41193" lon="3.62316">
        <ele>160.42</ele>
        <time>2014-09-20T14:27:26Z</time>
      </trkpt>
      <trkpt lat="48.41187" lon="3.62308">
        <ele>160.47</ele>
        <time>2014-09-20T14:27:28Z</time>
      </trkpt>
      <trkpt lat="48.41181" lon="3.623">
        <ele>160.52</ele>
        <time>2014-09-20T14:27:30Z</time>
      </trkpt>
      <trkpt lat="48.41175" lon="3.62292">
        <ele>160.52</ele>
        <time>2014-09-20T14:27:32Z</time>
      </trkpt>
      <trkpt lat="48.41168" lon="3.62285">
        <ele>160.59</ele>
        <time>2014-09-20T14:27:34Z</time>
      </trkpt>
      <trkpt lat="48.41162" lon="3.62277">
        <ele>160.7</ele>
        <time>2014-09-20T14:27:36Z</time>
      </trkpt>
      <trkpt lat="48.41157" lon="3.62269">
        <ele>160.8</ele>
        <time>2014-09-20T14:27:38Z</time>
      </trkpt>
      <trkpt lat="48.41153" lon="3.62261">
        <ele>160.83</ele>
        <time>2014-09-20T14:27:40Z</time>
      </trkpt>
      <trkpt lat="48.4115" lon="3.62251">
        <ele>160.81</ele>
        <time>2014-09-20T14:27:42Z</time>
      </trkpt>
      <trkpt lat="48.41147" lon="3.62242">
        <ele>160.79</ele>
        <time>2014-09-20T14:27:44Z</time>
      </trkpt>
      <trkpt lat="48.41144" lon="3.62233">
        <ele>160.83</ele>
        <time>2014-09-20T14:27:46Z</time>
      </trkpt>
      <trkpt lat="48.41142" lon="3.62224">
        <ele>160.9</ele>
        <time>2014-09-20T14:27:48Z</time>
      </trkpt>
      <trkpt lat="48.41139" lon="3.62215">
        <ele>160.98</ele>
        <time>2014-09-20T14:27:50Z</time>
      </trkpt>
      <trkpt lat="48.41137" lon="3.62206">
        <ele>161.14</ele>
        <time>2014-09-20T14:27:52Z</time>
      </trkpt>
      <trkpt lat="48.41135" lon="3.62198">
        <ele>161.36</ele>
        <time>2014-09-20T14:27:54Z</time>
      </trkpt>
      <trkpt lat="48.41133" lon="3.62189">
        <ele>161.59</ele>
        <time>2014-09-20T14:27:56Z</time>
      </trkpt>
      <trkpt lat="48.41131" lon="3.62181">
        <ele>161.81</ele>
        <time>2014-09-20T14:27:58Z</time>
      </trkpt>
      <trkpt lat="48.41128" lon="3.62172">
        <ele>162.06</ele>
        <time>2014-09-20T14:28:00Z</time>
      </trkpt>
      <trkpt lat="48.41126" lon="3.62164">
        <ele>162.29</ele>
        <time>2014-09-20T14:28:02Z</time>
      </trkpt>
      <trkpt lat="48.41124" lon="3.62156">
        <ele>162.53</ele>
        <time>2014-09-20T14:28:04Z</time>
      </trkpt>
      <trkpt lat="48.41122" lon="3.62148">
        <ele>162.77</ele>
        <time>2014-09-20T14:28:06Z</time>
      </trkpt>
      <trkpt lat="48.4112" lon="3.6214">
        <ele>162.97</ele>
        <time>2014-09-20T14:28:08Z</time>
      </trkpt>
      <trkpt lat="48.41118" lon="3.62132">
        <ele>163.15</ele>
        <time>2014-09-20T14:28:10Z</time>
      </trkpt>
      <trkpt lat="48.41116" lon="3.62123">
        <ele>163.27</ele>
        <time>2014-09-20T14:28:12Z</time>
      </trkpt>
      <trkpt lat="48.41113" lon="3.62114">
        <ele>163.32</ele>
        <time>2014-09-20T14:28:14Z</time>
      </trkpt>
      <trkpt lat="48.41111" lon="3.62104">
        <ele>163.25</ele>
        <time>2014-09-20T14:28:16Z</time>
      </trkpt>
      <trkpt lat="48.41108" lon="3.62095">
        <ele>163.15</ele>
        <time>2014-09-20T14:28:18Z</time>
      </trkpt>
      <trkpt lat="48.41106" lon="3.62086">
        <ele>163.1</ele>
        <time>2014-09-20T14:28:20Z</time>
      </trkpt>
      <trkpt lat="48.41104" lon="3.62078">
        <ele>163.07</ele>
        <time>2014-09-20T14:28:22Z</time>
      </trkpt>
      <trkpt lat="48.41101" lon="3.62071">
        <ele>163.09</ele>
        <time>2014-09-20T14:28:24Z</time>
      </trkpt>
      <trkpt lat="48.41099" lon="3.62063">
        <ele>163.22</ele>
        <time>2014-09-20T14:28:26Z</time>
      </trkpt>
      <trkpt lat="48.41098" lon="3.62056">
        <ele>163.38</ele>
        <time>2014-09-20T14:28:28Z</time>
      </trkpt>
      <trkpt lat="48.41096" lon="3.62049">
        <ele>163.6</ele>
        <time>2014-09-20T14:28:30Z</time>
      </trkpt>
      <trkpt lat="48.41094" lon="3.62042">
        <ele>163.86</ele>
        <time>2014-09-20T14:28:32Z</time>
      </trkpt>
      <trkpt lat="48.41092" lon="3.62035">
        <ele>164.09</ele>
        <time>2014-09-20T14:28:34Z</time>
      </trkpt>
      <trkpt lat="48.41091" lon="3.62028">
        <ele>164.33</ele>
        <time>2014-09-20T14:28:36Z</time>
      </trkpt>
      <trkpt lat="48.41089" lon="3.62021">
        <ele>164.64</ele>
        <time>2014-09-20T14:28:38Z</time>
      </trkpt>
      <trkpt lat="48.41087" lon="3.62015">
        <ele>165.04</ele>
        <time>2014-09-20T14:28:40Z</time>
      </trkpt>
      <trkpt lat="48.41085" lon="3.62008">
        <ele>165.46</ele>
        <time>2014-09-20T14:28:42Z</time>
      </trkpt>
      <trkpt lat="48.41082" lon="3.62002">
        <ele>165.76</ele>
        <time>2014-09-20T14:28:44Z</time>
      </trkpt>
      <trkpt lat="48.4108" lon="3.61992">
        <ele>166.35</ele>
        <time>2014-09-20T14:28:47Z</time>
      </trkpt>
      <trkpt lat="48.41078" lon="3.61984">
        <ele>166.79</ele>
        <time>2014-09-20T14:28:50Z</time>
      </trkpt>
      <trkpt lat="48.41076" lon="3.61976">
        <ele>167.15</ele>
        <time>2014-09-20T14:28:53Z</time>
      </trkpt>
      <trkpt lat="48.41073" lon="3.61966">
        <ele>167.52</ele>
        <time>2014-09-20T14:28:56Z</time>
      </trkpt>
      <trkpt lat="48.41071" lon="3.6196">
        <ele>167.65</ele>
        <time>2014-09-20T14:28:58Z</time>
      </trkpt>
      <trkpt lat="48.41069" lon="3.61951">
        <ele>167.88</ele>
        <time>2014-09-20T14:29:01Z</time>
      </trkpt>
      <trkpt lat="48.41066" lon="3.61942">
        <ele>168.09</ele>
        <time>2014-09-20T14:29:04Z</time>
      </trkpt>
      <trkpt lat="48.41064" lon="3.61936">
        <ele>168.29</ele>
        <time>2014-09-20T14:29:06Z</time>
      </trkpt>
      <trkpt lat="48.41062" lon="3.61929">
        <ele>168.53</ele>
        <time>2014-09-20T14:29:08Z</time>
      </trkpt>
      <trkpt lat="48.41061" lon="3.61922">
        <ele>168.8</ele>
        <time>2014-09-20T14:29:10Z</time>
      </trkpt>
      <trkpt lat="48.41059" lon="3.61915">
        <ele>169.08</ele>
        <time>2014-09-20T14:29:12Z</time>
      </trkpt>
      <trkpt lat="48.41057" lon="3.61909">
        <ele>169.34</ele>
        <time>2014-09-20T14:29:14Z</time>
      </trkpt>
      <trkpt lat="48.41055" lon="3.61902">
        <ele>169.56</ele>
        <time>2014-09-20T14:29:16Z</time>
      </trkpt>
      <trkpt lat="48.41053" lon="3.61895">
        <ele>169.79</ele>
        <time>2014-09-20T14:29:18Z</time>
      </trkpt>
      <trkpt lat="48.41051" lon="3.61888">
        <ele>169.94</ele>
        <time>2014-09-20T14:29:20Z</time>
      </trkpt>
      <trkpt lat="48.41049" lon="3.6188">
        <ele>170.06</ele>
        <time>2014-09-20T14:29:22Z</time>
      </trkpt>
      <trkpt lat="48.41047" lon="3.61873">
        <ele>170.23</ele>
        <time>2014-09-20T14:29:24Z</time>
      </trkpt>
      <trkpt lat="48.41045" lon="3.61865">
        <ele>170.4</ele>
        <time>2014-09-20T14:29:26Z</time>
      </trkpt>
      <trkpt lat="48.41043" lon="3.61858">
        <ele>170.52</ele>
        <time>2014-09-20T14:29:28Z</time>
      </trkpt>
      <trkpt lat="48.41041" lon="3.6185">
        <ele>170.54</ele>
        <time>2014-09-20T14:29:30Z</time>
      </trkpt>
      <trkpt lat="48.41039" lon="3.61843">
        <ele>170.47</ele>
        <time>2014-09-20T14:29:32Z</time>
      </trkpt>
      <trkpt lat="48.41037" lon="3.61834">
        <ele>170.36</ele>
        <time>2014-09-20T14:29:34Z</time>
      </trkpt>
      <trkpt lat="48.41034" lon="3.61825">
        <ele>170.26</ele>
        <time>2014-09-20T14:29:36Z</time>
      </trkpt>
      <trkpt lat="48.41032" lon="3.61815">
        <ele>170.16</ele>
        <time>2014-09-20T14:29:38Z</time>
      </trkpt>
      <trkpt lat="48.4103" lon="3.61805">
        <ele>170.1</ele>
        <time>2014-09-20T14:29:40Z</time>
      </trkpt>
      <trkpt lat="48.41029" lon="3.61795">
        <ele>170.06</ele>
        <time>2014-09-20T14:29:42Z</time>
      </trkpt>
      <trkpt lat="48.41028" lon="3.61784">
        <ele>170</ele>
        <time>2014-09-20T14:29:44Z</time>
      </trkpt>
      <trkpt lat="48.41028" lon="3.61773">
        <ele>169.93</ele>
        <time>2014-09-20T14:29:46Z</time>
      </trkpt>
      <trkpt lat="48.41029" lon="3.61761">
        <ele>169.83</ele>
        <time>2014-09-20T14:29:48Z</time>
      </trkpt>
      <trkpt lat="48.41031" lon="3.61749">
        <ele>169.72</ele>
        <time>2014-09-20T14:29:50Z</time>
      </trkpt>
      <trkpt lat="48.41032" lon="3.61738">
        <ele>169.82</ele>
        <time>2014-09-20T14:29:52Z</time>
      </trkpt>
      <trkpt lat="48.41034" lon="3.61731">
        <ele>169.9</ele>
        <time>2014-09-20T14:29:54Z</time>
      </trkpt>
      <trkpt lat="48.41037" lon="3.61722">
        <ele>169.89</ele>
        <time>2014-09-20T14:29:56Z</time>
      </trkpt>
      <trkpt lat="48.41037" lon="3.61714">
        <ele>169.82</ele>
        <time>2014-09-20T14:29:57Z</time>
      </trkpt>
      <trkpt lat="48.41038" lon="3.61708">
        <ele>169.73</ele>
        <time>2014-09-20T14:29:58Z</time>
      </trkpt>
      <trkpt lat="48.41039" lon="3.61697">
        <ele>169.57</ele>
        <time>2014-09-20T14:30:00Z</time>
      </trkpt>
      <trkpt lat="48.41041" lon="3.61685">
        <ele>169.51</ele>
        <time>2014-09-20T14:30:02Z</time>
      </trkpt>
      <trkpt lat="48.41043" lon="3.61672">
        <ele>169.45</ele>
        <time>2014-09-20T14:30:04Z</time>
      </trkpt>
      <trkpt lat="48.41043" lon="3.61664">
        <ele>169.4</ele>
        <time>2014-09-20T14:30:05Z</time>
      </trkpt>
      <trkpt lat="48.41044" lon="3.61657">
        <ele>169.28</ele>
        <time>2014-09-20T14:30:06Z</time>
      </trkpt>
      <trkpt lat="48.41044" lon="3.6165">
        <ele>169.17</ele>
        <time>2014-09-20T14:30:07Z</time>
      </trkpt>
      <trkpt lat="48.41046" lon="3.61638">
        <ele>168.99</ele>
        <time>2014-09-20T14:30:09Z</time>
      </trkpt>
      <trkpt lat="48.41049" lon="3.61626">
        <ele>168.96</ele>
        <time>2014-09-20T14:30:11Z</time>
      </trkpt>
      <trkpt lat="48.41051" lon="3.61615">
        <ele>168.97</ele>
        <time>2014-09-20T14:30:13Z</time>
      </trkpt>
      <trkpt lat="48.41052" lon="3.61604">
        <ele>168.94</ele>
        <time>2014-09-20T14:30:15Z</time>
      </trkpt>
      <trkpt lat="48.41053" lon="3.61593">
        <ele>168.71</ele>
        <time>2014-09-20T14:30:17Z</time>
      </trkpt>
      <trkpt lat="48.41055" lon="3.61583">
        <ele>168.52</ele>
        <time>2014-09-20T14:30:19Z</time>
      </trkpt>
      <trkpt lat="48.41058" lon="3.61572">
        <ele>168.41</ele>
        <time>2014-09-20T14:30:21Z</time>
      </trkpt>
      <trkpt lat="48.4106" lon="3.6156">
        <ele>168.22</ele>
        <time>2014-09-20T14:30:23Z</time>
      </trkpt>
      <trkpt lat="48.41063" lon="3.61548">
        <ele>168.1</ele>
        <time>2014-09-20T14:30:25Z</time>
      </trkpt>
      <trkpt lat="48.41065" lon="3.61534">
        <ele>168.07</ele>
        <time>2014-09-20T14:30:27Z</time>
      </trkpt>
      <trkpt lat="48.41066" lon="3.61525">
        <ele>168.18</ele>
        <time>2014-09-20T14:30:28Z</time>
      </trkpt>
      <trkpt lat="48.41066" lon="3.61517">
        <ele>168.27</ele>
        <time>2014-09-20T14:30:29Z</time>
      </trkpt>
      <trkpt lat="48.41067" lon="3.6151">
        <ele>168.28</ele>
        <time>2014-09-20T14:30:30Z</time>
      </trkpt>
      <trkpt lat="48.41068" lon="3.61502">
        <ele>168.24</ele>
        <time>2014-09-20T14:30:31Z</time>
      </trkpt>
      <trkpt lat="48.4107" lon="3.61494">
        <ele>168.19</ele>
        <time>2014-09-20T14:30:32Z</time>
      </trkpt>
      <trkpt lat="48.41073" lon="3.61486">
        <ele>168.17</ele>
        <time>2014-09-20T14:30:33Z</time>
      </trkpt>
      <trkpt lat="48.41074" lon="3.61479">
        <ele>168.31</ele>
        <time>2014-09-20T14:30:34Z</time>
      </trkpt>
      <trkpt lat="48.41075" lon="3.61471">
        <ele>168.42</ele>
        <time>2014-09-20T14:30:35Z</time>
      </trkpt>
      <trkpt lat="48.41076" lon="3.61462">
        <ele>168.52</ele>
        <time>2014-09-20T14:30:36Z</time>
      </trkpt>
      <trkpt lat="48.41077" lon="3.61454">
        <ele>168.6</ele>
        <time>2014-09-20T14:30:37Z</time>
      </trkpt>
      <trkpt lat="48.41078" lon="3.61446">
        <ele>168.6</ele>
        <time>2014-09-20T14:30:38Z</time>
      </trkpt>
      <trkpt lat="48.41078" lon="3.61438">
        <ele>168.59</ele>
        <time>2014-09-20T14:30:39Z</time>
      </trkpt>
      <trkpt lat="48.41078" lon="3.61429">
        <ele>168.52</ele>
        <time>2014-09-20T14:30:40Z</time>
      </trkpt>
      <trkpt lat="48.41079" lon="3.6142">
        <ele>168.42</ele>
        <time>2014-09-20T14:30:41Z</time>
      </trkpt>
      <trkpt lat="48.4108" lon="3.61411">
        <ele>168.3</ele>
        <time>2014-09-20T14:30:42Z</time>
      </trkpt>
      <trkpt lat="48.41081" lon="3.61403">
        <ele>168.16</ele>
        <time>2014-09-20T14:30:43Z</time>
      </trkpt>
      <trkpt lat="48.41082" lon="3.61394">
        <ele>168.05</ele>
        <time>2014-09-20T14:30:44Z</time>
      </trkpt>
      <trkpt lat="48.41084" lon="3.61385">
        <ele>168.04</ele>
        <time>2014-09-20T14:30:45Z</time>
      </trkpt>
      <trkpt lat="48.41085" lon="3.61376">
        <ele>168.01</ele>
        <time>2014-09-20T14:30:46Z</time>
      </trkpt>
      <trkpt lat="48.41087" lon="3.61367">
        <ele>167.97</ele>
        <time>2014-09-20T14:30:47Z</time>
      </trkpt>
      <trkpt lat="48.41088" lon="3.61358">
        <ele>167.81</ele>
        <time>2014-09-20T14:30:48Z</time>
      </trkpt>
      <trkpt lat="48.41089" lon="3.61348">
        <ele>167.59</ele>
        <time>2014-09-20T14:30:49Z</time>
      </trkpt>
      <trkpt lat="48.4109" lon="3.61339">
        <ele>167.27</ele>
        <time>2014-09-20T14:30:50Z</time>
      </trkpt>
      <trkpt lat="48.41092" lon="3.61329">
        <ele>166.96</ele>
        <time>2014-09-20T14:30:51Z</time>
      </trkpt>
      <trkpt lat="48.41093" lon="3.6132">
        <ele>166.68</ele>
        <time>2014-09-20T14:30:52Z</time>
      </trkpt>
      <trkpt lat="48.41095" lon="3.61311">
        <ele>166.39</ele>
        <time>2014-09-20T14:30:53Z</time>
      </trkpt>
      <trkpt lat="48.41097" lon="3.61303">
        <ele>166.1</ele>
        <time>2014-09-20T14:30:54Z</time>
      </trkpt>
      <trkpt lat="48.41099" lon="3.61295">
        <ele>165.83</ele>
        <time>2014-09-20T14:30:55Z</time>
      </trkpt>
      <trkpt lat="48.41101" lon="3.61287">
        <ele>165.58</ele>
        <time>2014-09-20T14:30:56Z</time>
      </trkpt>
      <trkpt lat="48.41103" lon="3.61279">
        <ele>165.34</ele>
        <time>2014-09-20T14:30:57Z</time>
      </trkpt>
      <trkpt lat="48.41105" lon="3.61271">
        <ele>165.11</ele>
        <time>2014-09-20T14:30:58Z</time>
      </trkpt>
      <trkpt lat="48.41107" lon="3.61264">
        <ele>164.92</ele>
        <time>2014-09-20T14:30:59Z</time>
      </trkpt>
      <trkpt lat="48.41109" lon="3.61257">
        <ele>164.72</ele>
        <time>2014-09-20T14:31:00Z</time>
      </trkpt>
      <trkpt lat="48.4111" lon="3.6125">
        <ele>164.52</ele>
        <time>2014-09-20T14:31:01Z</time>
      </trkpt>
      <trkpt lat="48.41112" lon="3.61243">
        <ele>164.35</ele>
        <time>2014-09-20T14:31:02Z</time>
      </trkpt>
      <trkpt lat="48.41114" lon="3.61236">
        <ele>164.19</ele>
        <time>2014-09-20T14:31:03Z</time>
      </trkpt>
      <trkpt lat="48.41116" lon="3.61229">
        <ele>164.05</ele>
        <time>2014-09-20T14:31:04Z</time>
      </trkpt>
      <trkpt lat="48.41118" lon="3.61222">
        <ele>163.95</ele>
        <time>2014-09-20T14:31:05Z</time>
      </trkpt>
      <trkpt lat="48.4112" lon="3.61216">
        <ele>163.84</ele>
        <time>2014-09-20T14:31:06Z</time>
      </trkpt>
      <trkpt lat="48.41123" lon="3.61209">
        <ele>163.76</ele>
        <time>2014-09-20T14:31:07Z</time>
      </trkpt>
      <trkpt lat="48.41125" lon="3.61203">
        <ele>163.68</ele>
        <time>2014-09-20T14:31:08Z</time>
      </trkpt>
      <trkpt lat="48.41127" lon="3.61197">
        <ele>163.59</ele>
        <time>2014-09-20T14:31:09Z</time>
      </trkpt>
      <trkpt lat="48.41129" lon="3.6119">
        <ele>163.53</ele>
        <time>2014-09-20T14:31:10Z</time>
      </trkpt>
      <trkpt lat="48.41131" lon="3.61184">
        <ele>163.48</ele>
        <time>2014-09-20T14:31:11Z</time>
      </trkpt>
      <trkpt lat="48.41133" lon="3.61177">
        <ele>163.44</ele>
        <time>2014-09-20T14:31:12Z</time>
      </trkpt>
      <trkpt lat="48.41136" lon="3.61171">
        <ele>163.39</ele>
        <time>2014-09-20T14:31:13Z</time>
      </trkpt>
      <trkpt lat="48.41138" lon="3.61164">
        <ele>163.35</ele>
        <time>2014-09-20T14:31:14Z</time>
      </trkpt>
      <trkpt lat="48.4114" lon="3.61158">
        <ele>163.29</ele>
        <time>2014-09-20T14:31:15Z</time>
      </trkpt>
      <trkpt lat="48.41143" lon="3.61152">
        <ele>163.25</ele>
        <time>2014-09-20T14:31:16Z</time>
      </trkpt>
      <trkpt lat="48.41145" lon="3.61146">
        <ele>163.22</ele>
        <time>2014-09-20T14:31:17Z</time>
      </trkpt>
      <trkpt lat="48.41147" lon="3.6114">
        <ele>163.2</ele>
        <time>2014-09-20T14:31:18Z</time>
      </trkpt>
      <trkpt lat="48.4115" lon="3.61134">
        <ele>163.18</ele>
        <time>2014-09-20T14:31:19Z</time>
      </trkpt>
      <trkpt lat="48.41152" lon="3.61128">
        <ele>163.17</ele>
        <time>2014-09-20T14:31:20Z</time>
      </trkpt>
      <trkpt lat="48.41155" lon="3.61122">
        <ele>163.16</ele>
        <time>2014-09-20T14:31:21Z</time>
      </trkpt>
      <trkpt lat="48.41158" lon="3.61117">
        <ele>163.15</ele>
        <time>2014-09-20T14:31:22Z</time>
      </trkpt>
      <trkpt lat="48.41161" lon="3.61111">
        <ele>163.14</ele>
        <time>2014-09-20T14:31:23Z</time>
      </trkpt>
      <trkpt lat="48.41164" lon="3.61105">
        <ele>163.14</ele>
        <time>2014-09-20T14:31:24Z</time>
      </trkpt>
      <trkpt lat="48.41167" lon="3.61099">
        <ele>163.16</ele>
        <time>2014-09-20T14:31:25Z</time>
      </trkpt>
      <trkpt lat="48.41169" lon="3.61093">
        <ele>163.18</ele>
        <time>2014-09-20T14:31:26Z</time>
      </trkpt>
      <trkpt lat="48.41172" lon="3.61088">
        <ele>163.17</ele>
        <time>2014-09-20T14:31:27Z</time>
      </trkpt>
      <trkpt lat="48.41177" lon="3.61077">
        <ele>163.11</ele>
        <time>2014-09-20T14:31:29Z</time>
      </trkpt>
      <trkpt lat="48.4118" lon="3.61066">
        <ele>163.03</ele>
        <time>2014-09-20T14:31:31Z</time>
      </trkpt>
      <trkpt lat="48.41184" lon="3.61056">
        <ele>162.98</ele>
        <time>2014-09-20T14:31:33Z</time>
      </trkpt>
      <trkpt lat="48.41189" lon="3.61046">
        <ele>162.96</ele>
        <time>2014-09-20T14:31:35Z</time>
      </trkpt>
      <trkpt lat="48.41193" lon="3.61037">
        <ele>162.92</ele>
        <time>2014-09-20T14:31:37Z</time>
      </trkpt>
      <trkpt lat="48.41197" lon="3.61027">
        <ele>162.86</ele>
        <time>2014-09-20T14:31:39Z</time>
      </trkpt>
      <trkpt lat="48.412" lon="3.61017">
        <ele>162.73</ele>
        <time>2014-09-20T14:31:41Z</time>
      </trkpt>
      <trkpt lat="48.41203" lon="3.61006">
        <ele>162.6</ele>
        <time>2014-09-20T14:31:43Z</time>
      </trkpt>
      <trkpt lat="48.41205" lon="3.60994">
        <ele>162.48</ele>
        <time>2014-09-20T14:31:45Z</time>
      </trkpt>
      <trkpt lat="48.41208" lon="3.60982">
        <ele>162.39</ele>
        <time>2014-09-20T14:31:47Z</time>
      </trkpt>
      <trkpt lat="48.4121" lon="3.60969">
        <ele>162.27</ele>
        <time>2014-09-20T14:31:49Z</time>
      </trkpt>
      <trkpt lat="48.41211" lon="3.60957">
        <ele>162.25</ele>
        <time>2014-09-20T14:31:51Z</time>
      </trkpt>
      <trkpt lat="48.41213" lon="3.60944">
        <ele>162.13</ele>
        <time>2014-09-20T14:31:53Z</time>
      </trkpt>
      <trkpt lat="48.41214" lon="3.60937">
        <ele>162.1</ele>
        <time>2014-09-20T14:31:54Z</time>
      </trkpt>
      <trkpt lat="48.41214" lon="3.6093">
        <ele>162.09</ele>
        <time>2014-09-20T14:31:55Z</time>
      </trkpt>
      <trkpt lat="48.41215" lon="3.60922">
        <ele>162.12</ele>
        <time>2014-09-20T14:31:56Z</time>
      </trkpt>
      <trkpt lat="48.41215" lon="3.60915">
        <ele>162.17</ele>
        <time>2014-09-20T14:31:57Z</time>
      </trkpt>
      <trkpt lat="48.41216" lon="3.60907">
        <ele>162.19</ele>
        <time>2014-09-20T14:31:58Z</time>
      </trkpt>
      <trkpt lat="48.41217" lon="3.60898">
        <ele>162.22</ele>
        <time>2014-09-20T14:31:59Z</time>
      </trkpt>
      <trkpt lat="48.41218" lon="3.60891">
        <ele>162.25</ele>
        <time>2014-09-20T14:32:00Z</time>
      </trkpt>
      <trkpt lat="48.4122" lon="3.60884">
        <ele>162.24</ele>
        <time>2014-09-20T14:32:01Z</time>
      </trkpt>
      <trkpt lat="48.41223" lon="3.60877">
        <ele>162.29</ele>
        <time>2014-09-20T14:32:02Z</time>
      </trkpt>
      <trkpt lat="48.41225" lon="3.60869">
        <ele>162.35</ele>
        <time>2014-09-20T14:32:03Z</time>
      </trkpt>
      <trkpt lat="48.41227" lon="3.60862">
        <ele>162.37</ele>
        <time>2014-09-20T14:32:04Z</time>
      </trkpt>
      <trkpt lat="48.41229" lon="3.60853">
        <ele>162.31</ele>
        <time>2014-09-20T14:32:05Z</time>
      </trkpt>
      <trkpt lat="48.4123" lon="3.60846">
        <ele>162.41</ele>
        <time>2014-09-20T14:32:06Z</time>
      </trkpt>
      <trkpt lat="48.41233" lon="3.60839">
        <ele>162.57</ele>
        <time>2014-09-20T14:32:07Z</time>
      </trkpt>
      <trkpt lat="48.41236" lon="3.60832">
        <ele>162.73</ele>
        <time>2014-09-20T14:32:08Z</time>
      </trkpt>
      <trkpt lat="48.4124" lon="3.60826">
        <ele>162.96</ele>
        <time>2014-09-20T14:32:09Z</time>
      </trkpt>
      <trkpt lat="48.41244" lon="3.6082">
        <ele>163.17</ele>
        <time>2014-09-20T14:32:10Z</time>
      </trkpt>
      <trkpt lat="48.41248" lon="3.60814">
        <ele>163.44</ele>
        <time>2014-09-20T14:32:11Z</time>
      </trkpt>
      <trkpt lat="48.41252" lon="3.60807">
        <ele>163.71</ele>
        <time>2014-09-20T14:32:12Z</time>
      </trkpt>
      <trkpt lat="48.41255" lon="3.60801">
        <ele>163.96</ele>
        <time>2014-09-20T14:32:13Z</time>
      </trkpt>
      <trkpt lat="48.41256" lon="3.60793">
        <ele>164.16</ele>
        <time>2014-09-20T14:32:14Z</time>
      </trkpt>
      <trkpt lat="48.41257" lon="3.60785">
        <ele>164.4</ele>
        <time>2014-09-20T14:32:15Z</time>
      </trkpt>
      <trkpt lat="48.41259" lon="3.60779">
        <ele>164.63</ele>
        <time>2014-09-20T14:32:16Z</time>
      </trkpt>
      <trkpt lat="48.41266" lon="3.60772">
        <ele>164.94</ele>
        <time>2014-09-20T14:32:18Z</time>
      </trkpt>
      <trkpt lat="48.41271" lon="3.60771">
        <ele>164.91</ele>
        <time>2014-09-20T14:32:19Z</time>
      </trkpt>
      <trkpt lat="48.41276" lon="3.60769">
        <ele>164.86</ele>
        <time>2014-09-20T14:32:20Z</time>
      </trkpt>
      <trkpt lat="48.41285" lon="3.60766">
        <ele>164.69</ele>
        <time>2014-09-20T14:32:22Z</time>
      </trkpt>
      <trkpt lat="48.41293" lon="3.60762">
        <ele>164.56</ele>
        <time>2014-09-20T14:32:24Z</time>
      </trkpt>
      <trkpt lat="48.41297" lon="3.60759">
        <ele>164.43</ele>
        <time>2014-09-20T14:32:25Z</time>
      </trkpt>
      <trkpt lat="48.41301" lon="3.60755">
        <ele>164.28</ele>
        <time>2014-09-20T14:32:26Z</time>
      </trkpt>
      <trkpt lat="48.41304" lon="3.6075">
        <ele>164.14</ele>
        <time>2014-09-20T14:32:27Z</time>
      </trkpt>
      <trkpt lat="48.41308" lon="3.60746">
        <ele>163.99</ele>
        <time>2014-09-20T14:32:28Z</time>
      </trkpt>
      <trkpt lat="48.41311" lon="3.60741">
        <ele>163.9</ele>
        <time>2014-09-20T14:32:29Z</time>
      </trkpt>
      <trkpt lat="48.41314" lon="3.60735">
        <ele>163.83</ele>
        <time>2014-09-20T14:32:30Z</time>
      </trkpt>
      <trkpt lat="48.41317" lon="3.6073">
        <ele>163.78</ele>
        <time>2014-09-20T14:32:31Z</time>
      </trkpt>
      <trkpt lat="48.41321" lon="3.60725">
        <ele>163.72</ele>
        <time>2014-09-20T14:32:32Z</time>
      </trkpt>
      <trkpt lat="48.41324" lon="3.60719">
        <ele>163.69</ele>
        <time>2014-09-20T14:32:33Z</time>
      </trkpt>
      <trkpt lat="48.41327" lon="3.60714">
        <ele>163.68</ele>
        <time>2014-09-20T14:32:34Z</time>
      </trkpt>
      <trkpt lat="48.4133" lon="3.60708">
        <ele>163.62</ele>
        <time>2014-09-20T14:32:35Z</time>
      </trkpt>
      <trkpt lat="48.41332" lon="3.60702">
        <ele>163.59</ele>
        <time>2014-09-20T14:32:36Z</time>
      </trkpt>
      <trkpt lat="48.41335" lon="3.60697">
        <ele>163.53</ele>
        <time>2014-09-20T14:32:37Z</time>
      </trkpt>
      <trkpt lat="48.41338" lon="3.60691">
        <ele>163.38</ele>
        <time>2014-09-20T14:32:38Z</time>
      </trkpt>
      <trkpt lat="48.41341" lon="3.60686">
        <ele>163.21</ele>
        <time>2014-09-20T14:32:39Z</time>
      </trkpt>
      <trkpt lat="48.41344" lon="3.6068">
        <ele>163.07</ele>
        <time>2014-09-20T14:32:40Z</time>
      </trkpt>
      <trkpt lat="48.41348" lon="3.60675">
        <ele>162.93</ele>
        <time>2014-09-20T14:32:41Z</time>
      </trkpt>
      <trkpt lat="48.41351" lon="3.60668">
        <ele>162.81</ele>
        <time>2014-09-20T14:32:42Z</time>
      </trkpt>
      <trkpt lat="48.41354" lon="3.60662">
        <ele>162.71</ele>
        <time>2014-09-20T14:32:43Z</time>
      </trkpt>
      <trkpt lat="48.41357" lon="3.60657">
        <ele>162.57</ele>
        <time>2014-09-20T14:32:44Z</time>
      </trkpt>
      <trkpt lat="48.4136" lon="3.6065">
        <ele>162.41</ele>
        <time>2014-09-20T14:32:45Z</time>
      </trkpt>
      <trkpt lat="48.41363" lon="3.60645">
        <ele>162.26</ele>
        <time>2014-09-20T14:32:46Z</time>
      </trkpt>
      <trkpt lat="48.41367" lon="3.60639">
        <ele>162.13</ele>
        <time>2014-09-20T14:32:47Z</time>
      </trkpt>
      <trkpt lat="48.4137" lon="3.60632">
        <ele>161.98</ele>
        <time>2014-09-20T14:32:48Z</time>
      </trkpt>
      <trkpt lat="48.41373" lon="3.60626">
        <ele>161.74</ele>
        <time>2014-09-20T14:32:49Z</time>
      </trkpt>
      <trkpt lat="48.41376" lon="3.6062">
        <ele>161.49</ele>
        <time>2014-09-20T14:32:50Z</time>
      </trkpt>
      <trkpt lat="48.41379" lon="3.60614">
        <ele>161.15</ele>
        <time>2014-09-20T14:32:51Z</time>
      </trkpt>
      <trkpt lat="48.41382" lon="3.60608">
        <ele>160.74</ele>
        <time>2014-09-20T14:32:52Z</time>
      </trkpt>
      <trkpt lat="48.41385" lon="3.60601">
        <ele>160.36</ele>
        <time>2014-09-20T14:32:53Z</time>
      </trkpt>
      <trkpt lat="48.41388" lon="3.60594">
        <ele>160.11</ele>
        <time>2014-09-20T14:32:54Z</time>
      </trkpt>
      <trkpt lat="48.41391" lon="3.60586">
        <ele>159.94</ele>
        <time>2014-09-20T14:32:55Z</time>
      </trkpt>
      <trkpt lat="48.41394" lon="3.60579">
        <ele>159.73</ele>
        <time>2014-09-20T14:32:56Z</time>
      </trkpt>
      <trkpt lat="48.41397" lon="3.60572">
        <ele>159.51</ele>
        <time>2014-09-20T14:32:57Z</time>
      </trkpt>
      <trkpt lat="48.414" lon="3.60564">
        <ele>159.24</ele>
        <time>2014-09-20T14:32:58Z</time>
      </trkpt>
      <trkpt lat="48.41403" lon="3.60556">
        <ele>158.94</ele>
        <time>2014-09-20T14:32:59Z</time>
      </trkpt>
      <trkpt lat="48.41407" lon="3.60549">
        <ele>158.68</ele>
        <time>2014-09-20T14:33:00Z</time>
      </trkpt>
      <trkpt lat="48.4141" lon="3.60541">
        <ele>158.42</ele>
        <time>2014-09-20T14:33:01Z</time>
      </trkpt>
      <trkpt lat="48.41413" lon="3.60533">
        <ele>158.17</ele>
        <time>2014-09-20T14:33:02Z</time>
      </trkpt>
      <trkpt lat="48.41417" lon="3.60525">
        <ele>157.99</ele>
        <time>2014-09-20T14:33:03Z</time>
      </trkpt>
      <trkpt lat="48.4142" lon="3.60518">
        <ele>157.8</ele>
        <time>2014-09-20T14:33:04Z</time>
      </trkpt>
      <trkpt lat="48.41423" lon="3.6051">
        <ele>157.6</ele>
        <time>2014-09-20T14:33:05Z</time>
      </trkpt>
      <trkpt lat="48.41428" lon="3.60503">
        <ele>157.41</ele>
        <time>2014-09-20T14:33:06Z</time>
      </trkpt>
      <trkpt lat="48.41432" lon="3.60496">
        <ele>157.21</ele>
        <time>2014-09-20T14:33:07Z</time>
      </trkpt>
      <trkpt lat="48.41436" lon="3.60488">
        <ele>157.07</ele>
        <time>2014-09-20T14:33:08Z</time>
      </trkpt>
      <trkpt lat="48.41439" lon="3.6048">
        <ele>157.01</ele>
        <time>2014-09-20T14:33:09Z</time>
      </trkpt>
      <trkpt lat="48.41442" lon="3.60471">
        <ele>156.96</ele>
        <time>2014-09-20T14:33:10Z</time>
      </trkpt>
      <trkpt lat="48.41445" lon="3.60463">
        <ele>157</ele>
        <time>2014-09-20T14:33:11Z</time>
      </trkpt>
      <trkpt lat="48.41448" lon="3.60455">
        <ele>157.06</ele>
        <time>2014-09-20T14:33:12Z</time>
      </trkpt>
      <trkpt lat="48.41451" lon="3.60448">
        <ele>157.08</ele>
        <time>2014-09-20T14:33:13Z</time>
      </trkpt>
      <trkpt lat="48.41455" lon="3.6044">
        <ele>157.06</ele>
        <time>2014-09-20T14:33:14Z</time>
      </trkpt>
      <trkpt lat="48.4146" lon="3.60432">
        <ele>156.91</ele>
        <time>2014-09-20T14:33:15Z</time>
      </trkpt>
      <trkpt lat="48.41464" lon="3.60425">
        <ele>156.69</ele>
        <time>2014-09-20T14:33:16Z</time>
      </trkpt>
      <trkpt lat="48.41468" lon="3.60417">
        <ele>156.4</ele>
        <time>2014-09-20T14:33:17Z</time>
      </trkpt>
      <trkpt lat="48.41471" lon="3.60408">
        <ele>156.05</ele>
        <time>2014-09-20T14:33:18Z</time>
      </trkpt>
      <trkpt lat="48.41476" lon="3.604">
        <ele>155.72</ele>
        <time>2014-09-20T14:33:19Z</time>
      </trkpt>
      <trkpt lat="48.4148" lon="3.60392">
        <ele>155.4</ele>
        <time>2014-09-20T14:33:20Z</time>
      </trkpt>
      <trkpt lat="48.41484" lon="3.60384">
        <ele>155.06</ele>
        <time>2014-09-20T14:33:21Z</time>
      </trkpt>
      <trkpt lat="48.41488" lon="3.60377">
        <ele>154.67</ele>
        <time>2014-09-20T14:33:22Z</time>
      </trkpt>
      <trkpt lat="48.41493" lon="3.6037">
        <ele>154.34</ele>
        <time>2014-09-20T14:33:23Z</time>
      </trkpt>
      <trkpt lat="48.41498" lon="3.60362">
        <ele>154.16</ele>
        <time>2014-09-20T14:33:24Z</time>
      </trkpt>
      <trkpt lat="48.41502" lon="3.60355">
        <ele>153.93</ele>
        <time>2014-09-20T14:33:25Z</time>
      </trkpt>
      <trkpt lat="48.41506" lon="3.60346">
        <ele>153.75</ele>
        <time>2014-09-20T14:33:26Z</time>
      </trkpt>
      <trkpt lat="48.4151" lon="3.60338">
        <ele>153.6</ele>
        <time>2014-09-20T14:33:27Z</time>
      </trkpt>
      <trkpt lat="48.41513" lon="3.60331">
        <ele>153.45</ele>
        <time>2014-09-20T14:33:28Z</time>
      </trkpt>
      <trkpt lat="48.41516" lon="3.60324">
        <ele>153.4</ele>
        <time>2014-09-20T14:33:29Z</time>
      </trkpt>
      <trkpt lat="48.41519" lon="3.60316">
        <ele>153.33</ele>
        <time>2014-09-20T14:33:30Z</time>
      </trkpt>
      <trkpt lat="48.41522" lon="3.60307">
        <ele>153.33</ele>
        <time>2014-09-20T14:33:31Z</time>
      </trkpt>
      <trkpt lat="48.41525" lon="3.60299">
        <ele>153.35</ele>
        <time>2014-09-20T14:33:32Z</time>
      </trkpt>
      <trkpt lat="48.41528" lon="3.6029">
        <ele>153.45</ele>
        <time>2014-09-20T14:33:33Z</time>
      </trkpt>
      <trkpt lat="48.41532" lon="3.60282">
        <ele>153.52</ele>
        <time>2014-09-20T14:33:34Z</time>
      </trkpt>
      <trkpt lat="48.41537" lon="3.60274">
        <ele>153.65</ele>
        <time>2014-09-20T14:33:35Z</time>
      </trkpt>
      <trkpt lat="48.4154" lon="3.60265">
        <ele>153.77</ele>
        <time>2014-09-20T14:33:36Z</time>
      </trkpt>
      <trkpt lat="48.41545" lon="3.60256">
        <ele>153.88</ele>
        <time>2014-09-20T14:33:37Z</time>
      </trkpt>
      <trkpt lat="48.41548" lon="3.60248">
        <ele>154.02</ele>
        <time>2014-09-20T14:33:38Z</time>
      </trkpt>
      <trkpt lat="48.41552" lon="3.60239">
        <ele>154.17</ele>
        <time>2014-09-20T14:33:39Z</time>
      </trkpt>
      <trkpt lat="48.41556" lon="3.6023">
        <ele>154.41</ele>
        <time>2014-09-20T14:33:40Z</time>
      </trkpt>
      <trkpt lat="48.4156" lon="3.60222">
        <ele>154.69</ele>
        <time>2014-09-20T14:33:41Z</time>
      </trkpt>
      <trkpt lat="48.41564" lon="3.60213">
        <ele>154.95</ele>
        <time>2014-09-20T14:33:42Z</time>
      </trkpt>
      <trkpt lat="48.4157" lon="3.60205">
        <ele>154.94</ele>
        <time>2014-09-20T14:33:43Z</time>
      </trkpt>
      <trkpt lat="48.41577" lon="3.60198">
        <ele>154.86</ele>
        <time>2014-09-20T14:33:44Z</time>
      </trkpt>
      <trkpt lat="48.41582" lon="3.60191">
        <ele>154.68</ele>
        <time>2014-09-20T14:33:45Z</time>
      </trkpt>
      <trkpt lat="48.41587" lon="3.60185">
        <ele>154.42</ele>
        <time>2014-09-20T14:33:46Z</time>
      </trkpt>
      <trkpt lat="48.41591" lon="3.6018">
        <ele>154</ele>
        <time>2014-09-20T14:33:47Z</time>
      </trkpt>
      <trkpt lat="48.41595" lon="3.60173">
        <ele>153.17</ele>
        <time>2014-09-20T14:33:49Z</time>
      </trkpt>
      <trkpt lat="48.41596" lon="3.60163">
        <ele>152.42</ele>
        <time>2014-09-20T14:33:51Z</time>
      </trkpt>
      <trkpt lat="48.41601" lon="3.60154">
        <ele>151.92</ele>
        <time>2014-09-20T14:33:53Z</time>
      </trkpt>
      <trkpt lat="48.41605" lon="3.6015">
        <ele>151.62</ele>
        <time>2014-09-20T14:33:54Z</time>
      </trkpt>
      <trkpt lat="48.41608" lon="3.60145">
        <ele>151.27</ele>
        <time>2014-09-20T14:33:55Z</time>
      </trkpt>
      <trkpt lat="48.41612" lon="3.60141">
        <ele>150.81</ele>
        <time>2014-09-20T14:33:56Z</time>
      </trkpt>
      <trkpt lat="48.41616" lon="3.60136">
        <ele>150.32</ele>
        <time>2014-09-20T14:33:57Z</time>
      </trkpt>
      <trkpt lat="48.4162" lon="3.60131">
        <ele>149.84</ele>
        <time>2014-09-20T14:33:58Z</time>
      </trkpt>
      <trkpt lat="48.41623" lon="3.60126">
        <ele>149.36</ele>
        <time>2014-09-20T14:33:59Z</time>
      </trkpt>
      <trkpt lat="48.41627" lon="3.6012">
        <ele>148.91</ele>
        <time>2014-09-20T14:34:00Z</time>
      </trkpt>
      <trkpt lat="48.41631" lon="3.60115">
        <ele>148.46</ele>
        <time>2014-09-20T14:34:01Z</time>
      </trkpt>
      <trkpt lat="48.41635" lon="3.6011">
        <ele>148.03</ele>
        <time>2014-09-20T14:34:02Z</time>
      </trkpt>
      <trkpt lat="48.41639" lon="3.60104">
        <ele>147.63</ele>
        <time>2014-09-20T14:34:03Z</time>
      </trkpt>
      <trkpt lat="48.41643" lon="3.60098">
        <ele>147.25</ele>
        <time>2014-09-20T14:34:04Z</time>
      </trkpt>
      <trkpt lat="48.41647" lon="3.60092">
        <ele>146.9</ele>
        <time>2014-09-20T14:34:05Z</time>
      </trkpt>
      <trkpt lat="48.41652" lon="3.60086">
        <ele>146.53</ele>
        <time>2014-09-20T14:34:06Z</time>
      </trkpt>
      <trkpt lat="48.41656" lon="3.6008">
        <ele>146.18</ele>
        <time>2014-09-20T14:34:07Z</time>
      </trkpt>
      <trkpt lat="48.4166" lon="3.60073">
        <ele>145.84</ele>
        <time>2014-09-20T14:34:08Z</time>
      </trkpt>
      <trkpt lat="48.41665" lon="3.60067">
        <ele>145.51</ele>
        <time>2014-09-20T14:34:09Z</time>
      </trkpt>
      <trkpt lat="48.41669" lon="3.6006">
        <ele>145.19</ele>
        <time>2014-09-20T14:34:10Z</time>
      </trkpt>
      <trkpt lat="48.41673" lon="3.60053">
        <ele>144.85</ele>
        <time>2014-09-20T14:34:11Z</time>
      </trkpt>
      <trkpt lat="48.41678" lon="3.60047">
        <ele>144.52</ele>
        <time>2014-09-20T14:34:12Z</time>
      </trkpt>
      <trkpt lat="48.41683" lon="3.6004">
        <ele>144.15</ele>
        <time>2014-09-20T14:34:13Z</time>
      </trkpt>
      <trkpt lat="48.41687" lon="3.60033">
        <ele>143.77</ele>
        <time>2014-09-20T14:34:14Z</time>
      </trkpt>
      <trkpt lat="48.41692" lon="3.60026">
        <ele>143.38</ele>
        <time>2014-09-20T14:34:15Z</time>
      </trkpt>
      <trkpt lat="48.41697" lon="3.60019">
        <ele>142.99</ele>
        <time>2014-09-20T14:34:16Z</time>
      </trkpt>
      <trkpt lat="48.41702" lon="3.60011">
        <ele>142.63</ele>
        <time>2014-09-20T14:34:17Z</time>
      </trkpt>
      <trkpt lat="48.41707" lon="3.60004">
        <ele>142.28</ele>
        <time>2014-09-20T14:34:18Z</time>
      </trkpt>
      <trkpt lat="48.41711" lon="3.59997">
        <ele>141.94</ele>
        <time>2014-09-20T14:34:19Z</time>
      </trkpt>
      <trkpt lat="48.41716" lon="3.5999">
        <ele>141.61</ele>
        <time>2014-09-20T14:34:20Z</time>
      </trkpt>
      <trkpt lat="48.41721" lon="3.59983">
        <ele>141.32</ele>
        <time>2014-09-20T14:34:21Z</time>
      </trkpt>
      <trkpt lat="48.41726" lon="3.59976">
        <ele>141.02</ele>
        <time>2014-09-20T14:34:22Z</time>
      </trkpt>
      <trkpt lat="48.4173" lon="3.59969">
        <ele>140.75</ele>
        <time>2014-09-20T14:34:23Z</time>
      </trkpt>
      <trkpt lat="48.41735" lon="3.59962">
        <ele>140.47</ele>
        <time>2014-09-20T14:34:24Z</time>
      </trkpt>
      <trkpt lat="48.4174" lon="3.59955">
        <ele>140.21</ele>
        <time>2014-09-20T14:34:25Z</time>
      </trkpt>
      <trkpt lat="48.41744" lon="3.59948">
        <ele>139.96</ele>
        <time>2014-09-20T14:34:26Z</time>
      </trkpt>
      <trkpt lat="48.41748" lon="3.59941">
        <ele>139.73</ele>
        <time>2014-09-20T14:34:27Z</time>
      </trkpt>
      <trkpt lat="48.41753" lon="3.59934">
        <ele>139.5</ele>
        <time>2014-09-20T14:34:28Z</time>
      </trkpt>
      <trkpt lat="48.41757" lon="3.59928">
        <ele>139.28</ele>
        <time>2014-09-20T14:34:29Z</time>
      </trkpt>
      <trkpt lat="48.41761" lon="3.59922">
        <ele>139.07</ele>
        <time>2014-09-20T14:34:30Z</time>
      </trkpt>
      <trkpt lat="48.41765" lon="3.59916">
        <ele>138.83</ele>
        <time>2014-09-20T14:34:31Z</time>
      </trkpt>
      <trkpt lat="48.4177" lon="3.59909">
        <ele>138.58</ele>
        <time>2014-09-20T14:34:32Z</time>
      </trkpt>
      <trkpt lat="48.41774" lon="3.59903">
        <ele>138.34</ele>
        <time>2014-09-20T14:34:33Z</time>
      </trkpt>
      <trkpt lat="48.41778" lon="3.59896">
        <ele>138.12</ele>
        <time>2014-09-20T14:34:34Z</time>
      </trkpt>
      <trkpt lat="48.41782" lon="3.5989">
        <ele>137.92</ele>
        <time>2014-09-20T14:34:35Z</time>
      </trkpt>
      <trkpt lat="48.41786" lon="3.59883">
        <ele>137.72</ele>
        <time>2014-09-20T14:34:36Z</time>
      </trkpt>
      <trkpt lat="48.41789" lon="3.59877">
        <ele>137.57</ele>
        <time>2014-09-20T14:34:37Z</time>
      </trkpt>
      <trkpt lat="48.41793" lon="3.59871">
        <ele>137.41</ele>
        <time>2014-09-20T14:34:38Z</time>
      </trkpt>
      <trkpt lat="48.41796" lon="3.59865">
        <ele>137.27</ele>
        <time>2014-09-20T14:34:39Z</time>
      </trkpt>
      <trkpt lat="48.418" lon="3.59859">
        <ele>137.13</ele>
        <time>2014-09-20T14:34:40Z</time>
      </trkpt>
      <trkpt lat="48.41803" lon="3.59853">
        <ele>137.01</ele>
        <time>2014-09-20T14:34:41Z</time>
      </trkpt>
      <trkpt lat="48.41806" lon="3.59848">
        <ele>136.91</ele>
        <time>2014-09-20T14:34:42Z</time>
      </trkpt>
      <trkpt lat="48.41809" lon="3.59843">
        <ele>136.82</ele>
        <time>2014-09-20T14:34:43Z</time>
      </trkpt>
      <trkpt lat="48.41812" lon="3.59837">
        <ele>136.74</ele>
        <time>2014-09-20T14:34:44Z</time>
      </trkpt>
      <trkpt lat="48.41817" lon="3.59827">
        <ele>136.62</ele>
        <time>2014-09-20T14:34:46Z</time>
      </trkpt>
      <trkpt lat="48.41822" lon="3.59817">
        <ele>136.56</ele>
        <time>2014-09-20T14:34:48Z</time>
      </trkpt>
      <trkpt lat="48.41826" lon="3.59809">
        <ele>136.55</ele>
        <time>2014-09-20T14:34:50Z</time>
      </trkpt>
      <trkpt lat="48.41829" lon="3.598">
        <ele>136.47</ele>
        <time>2014-09-20T14:34:52Z</time>
      </trkpt>
      <trkpt lat="48.41833" lon="3.59792">
        <ele>136.41</ele>
        <time>2014-09-20T14:34:54Z</time>
      </trkpt>
      <trkpt lat="48.41837" lon="3.59784">
        <ele>136.37</ele>
        <time>2014-09-20T14:34:56Z</time>
      </trkpt>
      <trkpt lat="48.4184" lon="3.59776">
        <ele>136.35</ele>
        <time>2014-09-20T14:34:58Z</time>
      </trkpt>
      <trkpt lat="48.41844" lon="3.59767">
        <ele>136.34</ele>
        <time>2014-09-20T14:35:00Z</time>
      </trkpt>
      <trkpt lat="48.41847" lon="3.59759">
        <ele>136.31</ele>
        <time>2014-09-20T14:35:02Z</time>
      </trkpt>
      <trkpt lat="48.41851" lon="3.59751">
        <ele>136.16</ele>
        <time>2014-09-20T14:35:04Z</time>
      </trkpt>
      <trkpt lat="48.41854" lon="3.59742">
        <ele>135.99</ele>
        <time>2014-09-20T14:35:06Z</time>
      </trkpt>
      <trkpt lat="48.41857" lon="3.59734">
        <ele>135.81</ele>
        <time>2014-09-20T14:35:08Z</time>
      </trkpt>
      <trkpt lat="48.4186" lon="3.59726">
        <ele>135.66</ele>
        <time>2014-09-20T14:35:10Z</time>
      </trkpt>
      <trkpt lat="48.41863" lon="3.59718">
        <ele>135.51</ele>
        <time>2014-09-20T14:35:12Z</time>
      </trkpt>
      <trkpt lat="48.41866" lon="3.5971">
        <ele>135.43</ele>
        <time>2014-09-20T14:35:14Z</time>
      </trkpt>
      <trkpt lat="48.41868" lon="3.59702">
        <ele>135.34</ele>
        <time>2014-09-20T14:35:16Z</time>
      </trkpt>
      <trkpt lat="48.41871" lon="3.59694">
        <ele>135.27</ele>
        <time>2014-09-20T14:35:18Z</time>
      </trkpt>
      <trkpt lat="48.41874" lon="3.59686">
        <ele>135.16</ele>
        <time>2014-09-20T14:35:20Z</time>
      </trkpt>
      <trkpt lat="48.41877" lon="3.59678">
        <ele>135.08</ele>
        <time>2014-09-20T14:35:22Z</time>
      </trkpt>
      <trkpt lat="48.41879" lon="3.5967">
        <ele>135.1</ele>
        <time>2014-09-20T14:35:24Z</time>
      </trkpt>
      <trkpt lat="48.41882" lon="3.59663">
        <ele>135.22</ele>
        <time>2014-09-20T14:35:26Z</time>
      </trkpt>
      <trkpt lat="48.41884" lon="3.59656">
        <ele>135.34</ele>
        <time>2014-09-20T14:35:28Z</time>
      </trkpt>
      <trkpt lat="48.41887" lon="3.5965">
        <ele>135.42</ele>
        <time>2014-09-20T14:35:30Z</time>
      </trkpt>
      <trkpt lat="48.4189" lon="3.59644">
        <ele>135.49</ele>
        <time>2014-09-20T14:35:32Z</time>
      </trkpt>
      <trkpt lat="48.41893" lon="3.59635">
        <ele>135.72</ele>
        <time>2014-09-20T14:35:35Z</time>
      </trkpt>
      <trkpt lat="48.41895" lon="3.59628">
        <ele>135.9</ele>
        <time>2014-09-20T14:35:37Z</time>
      </trkpt>
      <trkpt lat="48.41897" lon="3.5962">
        <ele>136.09</ele>
        <time>2014-09-20T14:35:40Z</time>
      </trkpt>
      <trkpt lat="48.41899" lon="3.5961">
        <ele>136.54</ele>
        <time>2014-09-20T14:35:43Z</time>
      </trkpt>
      <trkpt lat="48.41901" lon="3.59601">
        <ele>137.08</ele>
        <time>2014-09-20T14:35:46Z</time>
      </trkpt>
      <trkpt lat="48.41902" lon="3.59593">
        <ele>137.52</ele>
        <time>2014-09-20T14:35:48Z</time>
      </trkpt>
      <trkpt lat="48.41903" lon="3.59583">
        <ele>137.89</ele>
        <time>2014-09-20T14:35:50Z</time>
      </trkpt>
      <trkpt lat="48.41904" lon="3.59575">
        <ele>137.93</ele>
        <time>2014-09-20T14:35:52Z</time>
      </trkpt>
      <trkpt lat="48.41906" lon="3.59568">
        <ele>138</ele>
        <time>2014-09-20T14:35:54Z</time>
      </trkpt>
      <trkpt lat="48.41907" lon="3.59561">
        <ele>138.19</ele>
        <time>2014-09-20T14:35:56Z</time>
      </trkpt>
      <trkpt lat="48.41907" lon="3.59553">
        <ele>138.34</ele>
        <time>2014-09-20T14:35:58Z</time>
      </trkpt>
      <trkpt lat="48.41908" lon="3.59544">
        <ele>138.41</ele>
        <time>2014-09-20T14:36:01Z</time>
      </trkpt>
      <trkpt lat="48.41909" lon="3.59534">
        <ele>138.9</ele>
        <time>2014-09-20T14:36:04Z</time>
      </trkpt>
      <trkpt lat="48.41909" lon="3.59527">
        <ele>139.45</ele>
        <time>2014-09-20T14:36:06Z</time>
      </trkpt>
      <trkpt lat="48.4191" lon="3.59518">
        <ele>140.15</ele>
        <time>2014-09-20T14:36:09Z</time>
      </trkpt>
      <trkpt lat="48.41911" lon="3.59509">
        <ele>140.53</ele>
        <time>2014-09-20T14:36:11Z</time>
      </trkpt>
      <trkpt lat="48.41913" lon="3.595">
        <ele>140.61</ele>
        <time>2014-09-20T14:36:13Z</time>
      </trkpt>
      <trkpt lat="48.41915" lon="3.5949">
        <ele>140.62</ele>
        <time>2014-09-20T14:36:15Z</time>
      </trkpt>
      <trkpt lat="48.41918" lon="3.59479">
        <ele>140.78</ele>
        <time>2014-09-20T14:36:17Z</time>
      </trkpt>
      <trkpt lat="48.4192" lon="3.59469">
        <ele>141</ele>
        <time>2014-09-20T14:36:19Z</time>
      </trkpt>
      <trkpt lat="48.41921" lon="3.59459">
        <ele>141.24</ele>
        <time>2014-09-20T14:36:21Z</time>
      </trkpt>
      <trkpt lat="48.41922" lon="3.59449">
        <ele>141.47</ele>
        <time>2014-09-20T14:36:23Z</time>
      </trkpt>
      <trkpt lat="48.41923" lon="3.59437">
        <ele>141.6</ele>
        <time>2014-09-20T14:36:25Z</time>
      </trkpt>
      <trkpt lat="48.41923" lon="3.59425">
        <ele>141.64</ele>
        <time>2014-09-20T14:36:27Z</time>
      </trkpt>
      <trkpt lat="48.41925" lon="3.59413">
        <ele>141.58</ele>
        <time>2014-09-20T14:36:29Z</time>
      </trkpt>
      <trkpt lat="48.41927" lon="3.59401">
        <ele>141.35</ele>
        <time>2014-09-20T14:36:31Z</time>
      </trkpt>
      <trkpt lat="48.41929" lon="3.59389">
        <ele>140.85</ele>
        <time>2014-09-20T14:36:33Z</time>
      </trkpt>
      <trkpt lat="48.41931" lon="3.59376">
        <ele>140.39</ele>
        <time>2014-09-20T14:36:35Z</time>
      </trkpt>
      <trkpt lat="48.41933" lon="3.59363">
        <ele>139.83</ele>
        <time>2014-09-20T14:36:37Z</time>
      </trkpt>
      <trkpt lat="48.41935" lon="3.59356">
        <ele>139.58</ele>
        <time>2014-09-20T14:36:38Z</time>
      </trkpt>
      <trkpt lat="48.41936" lon="3.5935">
        <ele>139.37</ele>
        <time>2014-09-20T14:36:39Z</time>
      </trkpt>
      <trkpt lat="48.41937" lon="3.59343">
        <ele>139.18</ele>
        <time>2014-09-20T14:36:40Z</time>
      </trkpt>
      <trkpt lat="48.41939" lon="3.59336">
        <ele>139.02</ele>
        <time>2014-09-20T14:36:41Z</time>
      </trkpt>
      <trkpt lat="48.4194" lon="3.59329">
        <ele>138.87</ele>
        <time>2014-09-20T14:36:42Z</time>
      </trkpt>
      <trkpt lat="48.41942" lon="3.59323">
        <ele>138.74</ele>
        <time>2014-09-20T14:36:43Z</time>
      </trkpt>
      <trkpt lat="48.41943" lon="3.59316">
        <ele>138.63</ele>
        <time>2014-09-20T14:36:44Z</time>
      </trkpt>
      <trkpt lat="48.41946" lon="3.59304">
        <ele>138.41</ele>
        <time>2014-09-20T14:36:46Z</time>
      </trkpt>
      <trkpt lat="48.41948" lon="3.59292">
        <ele>138.2</ele>
        <time>2014-09-20T14:36:48Z</time>
      </trkpt>
      <trkpt lat="48.41951" lon="3.59281">
        <ele>138.04</ele>
        <time>2014-09-20T14:36:50Z</time>
      </trkpt>
      <trkpt lat="48.41953" lon="3.5927">
        <ele>137.79</ele>
        <time>2014-09-20T14:36:52Z</time>
      </trkpt>
      <trkpt lat="48.41956" lon="3.5926">
        <ele>137.52</ele>
        <time>2014-09-20T14:36:54Z</time>
      </trkpt>
      <trkpt lat="48.41959" lon="3.59251">
        <ele>137.32</ele>
        <time>2014-09-20T14:36:56Z</time>
      </trkpt>
      <trkpt lat="48.41962" lon="3.59242">
        <ele>137.19</ele>
        <time>2014-09-20T14:36:58Z</time>
      </trkpt>
      <trkpt lat="48.41964" lon="3.59233">
        <ele>137.08</ele>
        <time>2014-09-20T14:37:00Z</time>
      </trkpt>
      <trkpt lat="48.41966" lon="3.59225">
        <ele>137.01</ele>
        <time>2014-09-20T14:37:02Z</time>
      </trkpt>
      <trkpt lat="48.41968" lon="3.59218">
        <ele>136.99</ele>
        <time>2014-09-20T14:37:04Z</time>
      </trkpt>
      <trkpt lat="48.4197" lon="3.5921">
        <ele>136.83</ele>
        <time>2014-09-20T14:37:06Z</time>
      </trkpt>
      <trkpt lat="48.41972" lon="3.59202">
        <ele>136.65</ele>
        <time>2014-09-20T14:37:08Z</time>
      </trkpt>
      <trkpt lat="48.41974" lon="3.59196">
        <ele>136.42</ele>
        <time>2014-09-20T14:37:10Z</time>
      </trkpt>
      <trkpt lat="48.41977" lon="3.59188">
        <ele>136.22</ele>
        <time>2014-09-20T14:37:12Z</time>
      </trkpt>
      <trkpt lat="48.4198" lon="3.59179">
        <ele>136.07</ele>
        <time>2014-09-20T14:37:14Z</time>
      </trkpt>
      <trkpt lat="48.41984" lon="3.5917">
        <ele>135.89</ele>
        <time>2014-09-20T14:37:16Z</time>
      </trkpt>
      <trkpt lat="48.41987" lon="3.59161">
        <ele>135.71</ele>
        <time>2014-09-20T14:37:18Z</time>
      </trkpt>
      <trkpt lat="48.4199" lon="3.59152">
        <ele>135.43</ele>
        <time>2014-09-20T14:37:20Z</time>
      </trkpt>
      <trkpt lat="48.41994" lon="3.59142">
        <ele>135.12</ele>
        <time>2014-09-20T14:37:22Z</time>
      </trkpt>
      <trkpt lat="48.41998" lon="3.59132">
        <ele>134.68</ele>
        <time>2014-09-20T14:37:24Z</time>
      </trkpt>
      <trkpt lat="48.42001" lon="3.59122">
        <ele>134.26</ele>
        <time>2014-09-20T14:37:26Z</time>
      </trkpt>
      <trkpt lat="48.42005" lon="3.59112">
        <ele>133.91</ele>
        <time>2014-09-20T14:37:28Z</time>
      </trkpt>
      <trkpt lat="48.42008" lon="3.59102">
        <ele>133.63</ele>
        <time>2014-09-20T14:37:30Z</time>
      </trkpt>
      <trkpt lat="48.42012" lon="3.59092">
        <ele>133.39</ele>
        <time>2014-09-20T14:37:32Z</time>
      </trkpt>
      <trkpt lat="48.42016" lon="3.59081">
        <ele>133.14</ele>
        <time>2014-09-20T14:37:34Z</time>
      </trkpt>
      <trkpt lat="48.4202" lon="3.59068">
        <ele>132.89</ele>
        <time>2014-09-20T14:37:36Z</time>
      </trkpt>
      <trkpt lat="48.42022" lon="3.59062">
        <ele>132.72</ele>
        <time>2014-09-20T14:37:37Z</time>
      </trkpt>
      <trkpt lat="48.42025" lon="3.59056">
        <ele>132.55</ele>
        <time>2014-09-20T14:37:38Z</time>
      </trkpt>
      <trkpt lat="48.42027" lon="3.59049">
        <ele>132.37</ele>
        <time>2014-09-20T14:37:39Z</time>
      </trkpt>
      <trkpt lat="48.42029" lon="3.59042">
        <ele>132.18</ele>
        <time>2014-09-20T14:37:40Z</time>
      </trkpt>
      <trkpt lat="48.42031" lon="3.59036">
        <ele>131.94</ele>
        <time>2014-09-20T14:37:41Z</time>
      </trkpt>
      <trkpt lat="48.42034" lon="3.59029">
        <ele>131.69</ele>
        <time>2014-09-20T14:37:42Z</time>
      </trkpt>
      <trkpt lat="48.42036" lon="3.59022">
        <ele>131.45</ele>
        <time>2014-09-20T14:37:43Z</time>
      </trkpt>
      <trkpt lat="48.42038" lon="3.59016">
        <ele>131.22</ele>
        <time>2014-09-20T14:37:44Z</time>
      </trkpt>
      <trkpt lat="48.4204" lon="3.59009">
        <ele>131</ele>
        <time>2014-09-20T14:37:45Z</time>
      </trkpt>
      <trkpt lat="48.42045" lon="3.58998">
        <ele>130.64</ele>
        <time>2014-09-20T14:37:47Z</time>
      </trkpt>
      <trkpt lat="48.4205" lon="3.58991">
        <ele>130.41</ele>
        <time>2014-09-20T14:37:49Z</time>
      </trkpt>
      <trkpt lat="48.42057" lon="3.58994">
        <ele>130.24</ele>
        <time>2014-09-20T14:37:51Z</time>
      </trkpt>
      <trkpt lat="48.42062" lon="3.59002">
        <ele>130.17</ele>
        <time>2014-09-20T14:37:53Z</time>
      </trkpt>
      <trkpt lat="48.42067" lon="3.5901">
        <ele>130.13</ele>
        <time>2014-09-20T14:37:55Z</time>
      </trkpt>
      <trkpt lat="48.42072" lon="3.59017">
        <ele>130.02</ele>
        <time>2014-09-20T14:37:57Z</time>
      </trkpt>
      <trkpt lat="48.42076" lon="3.59024">
        <ele>129.93</ele>
        <time>2014-09-20T14:37:59Z</time>
      </trkpt>
      <trkpt lat="48.4208" lon="3.5903">
        <ele>129.93</ele>
        <time>2014-09-20T14:38:01Z</time>
      </trkpt>
      <trkpt lat="48.42084" lon="3.59035">
        <ele>129.97</ele>
        <time>2014-09-20T14:38:03Z</time>
      </trkpt>
      <trkpt lat="48.42087" lon="3.59041">
        <ele>130.11</ele>
        <time>2014-09-20T14:38:05Z</time>
      </trkpt>
      <trkpt lat="48.42091" lon="3.59047">
        <ele>130.27</ele>
        <time>2014-09-20T14:38:07Z</time>
      </trkpt>
      <trkpt lat="48.42094" lon="3.59052">
        <ele>130.5</ele>
        <time>2014-09-20T14:38:09Z</time>
      </trkpt>
      <trkpt lat="48.42097" lon="3.59058">
        <ele>130.71</ele>
        <time>2014-09-20T14:38:11Z</time>
      </trkpt>
      <trkpt lat="48.42101" lon="3.59063">
        <ele>130.89</ele>
        <time>2014-09-20T14:38:13Z</time>
      </trkpt>
      <trkpt lat="48.42104" lon="3.59069">
        <ele>131</ele>
        <time>2014-09-20T14:38:15Z</time>
      </trkpt>
      <trkpt lat="48.42108" lon="3.59074">
        <ele>131.1</ele>
        <time>2014-09-20T14:38:17Z</time>
      </trkpt>
      <trkpt lat="48.42111" lon="3.5908">
        <ele>131.18</ele>
        <time>2014-09-20T14:38:19Z</time>
      </trkpt>
      <trkpt lat="48.42115" lon="3.59086">
        <ele>131.24</ele>
        <time>2014-09-20T14:38:21Z</time>
      </trkpt>
      <trkpt lat="48.42119" lon="3.59091">
        <ele>131.31</ele>
        <time>2014-09-20T14:38:23Z</time>
      </trkpt>
      <trkpt lat="48.42122" lon="3.59096">
        <ele>131.43</ele>
        <time>2014-09-20T14:38:25Z</time>
      </trkpt>
      <trkpt lat="48.42126" lon="3.59102">
        <ele>131.54</ele>
        <time>2014-09-20T14:38:27Z</time>
      </trkpt>
      <trkpt lat="48.42129" lon="3.59107">
        <ele>131.69</ele>
        <time>2014-09-20T14:38:29Z</time>
      </trkpt>
      <trkpt lat="48.42133" lon="3.59113">
        <ele>131.84</ele>
        <time>2014-09-20T14:38:31Z</time>
      </trkpt>
      <trkpt lat="48.42137" lon="3.59119">
        <ele>131.99</ele>
        <time>2014-09-20T14:38:33Z</time>
      </trkpt>
      <trkpt lat="48.4214" lon="3.59125">
        <ele>132.16</ele>
        <time>2014-09-20T14:38:35Z</time>
      </trkpt>
      <trkpt lat="48.42143" lon="3.59131">
        <ele>132.32</ele>
        <time>2014-09-20T14:38:37Z</time>
      </trkpt>
      <trkpt lat="48.42147" lon="3.59136">
        <ele>132.48</ele>
        <time>2014-09-20T14:38:39Z</time>
      </trkpt>
      <trkpt lat="48.42151" lon="3.59142">
        <ele>132.61</ele>
        <time>2014-09-20T14:38:41Z</time>
      </trkpt>
      <trkpt lat="48.42154" lon="3.59148">
        <ele>132.73</ele>
        <time>2014-09-20T14:38:43Z</time>
      </trkpt>
      <trkpt lat="48.42158" lon="3.59153">
        <ele>132.89</ele>
        <time>2014-09-20T14:38:45Z</time>
      </trkpt>
      <trkpt lat="48.42161" lon="3.59159">
        <ele>133.06</ele>
        <time>2014-09-20T14:38:47Z</time>
      </trkpt>
      <trkpt lat="48.42165" lon="3.59165">
        <ele>133.25</ele>
        <time>2014-09-20T14:38:49Z</time>
      </trkpt>
      <trkpt lat="48.42168" lon="3.5917">
        <ele>133.41</ele>
        <time>2014-09-20T14:38:51Z</time>
      </trkpt>
      <trkpt lat="48.42172" lon="3.59176">
        <ele>133.55</ele>
        <time>2014-09-20T14:38:53Z</time>
      </trkpt>
      <trkpt lat="48.42175" lon="3.59181">
        <ele>133.7</ele>
        <time>2014-09-20T14:38:55Z</time>
      </trkpt>
      <trkpt lat="48.42179" lon="3.59187">
        <ele>133.89</ele>
        <time>2014-09-20T14:38:57Z</time>
      </trkpt>
      <trkpt lat="48.42182" lon="3.59192">
        <ele>134.06</ele>
        <time>2014-09-20T14:38:59Z</time>
      </trkpt>
      <trkpt lat="48.42185" lon="3.59197">
        <ele>134.27</ele>
        <time>2014-09-20T14:39:01Z</time>
      </trkpt>
      <trkpt lat="48.42189" lon="3.59202">
        <ele>134.45</ele>
        <time>2014-09-20T14:39:03Z</time>
      </trkpt>
      <trkpt lat="48.42193" lon="3.59207">
        <ele>134.64</ele>
        <time>2014-09-20T14:39:05Z</time>
      </trkpt>
      <trkpt lat="48.42196" lon="3.59212">
        <ele>134.83</ele>
        <time>2014-09-20T14:39:07Z</time>
      </trkpt>
      <trkpt lat="48.422" lon="3.59217">
        <ele>135.03</ele>
        <time>2014-09-20T14:39:09Z</time>
      </trkpt>
      <trkpt lat="48.42204" lon="3.59222">
        <ele>135.23</ele>
        <time>2014-09-20T14:39:11Z</time>
      </trkpt>
      <trkpt lat="48.42207" lon="3.59227">
        <ele>135.43</ele>
        <time>2014-09-20T14:39:13Z</time>
      </trkpt>
      <trkpt lat="48.42211" lon="3.59232">
        <ele>135.63</ele>
        <time>2014-09-20T14:39:15Z</time>
      </trkpt>
      <trkpt lat="48.42214" lon="3.59237">
        <ele>135.78</ele>
        <time>2014-09-20T14:39:17Z</time>
      </trkpt>
      <trkpt lat="48.42218" lon="3.59242">
        <ele>135.96</ele>
        <time>2014-09-20T14:39:19Z</time>
      </trkpt>
      <trkpt lat="48.42221" lon="3.59247">
        <ele>136.15</ele>
        <time>2014-09-20T14:39:21Z</time>
      </trkpt>
      <trkpt lat="48.42225" lon="3.59253">
        <ele>136.34</ele>
        <time>2014-09-20T14:39:23Z</time>
      </trkpt>
      <trkpt lat="48.42228" lon="3.59258">
        <ele>136.53</ele>
        <time>2014-09-20T14:39:25Z</time>
      </trkpt>
      <trkpt lat="48.42232" lon="3.59263">
        <ele>136.73</ele>
        <time>2014-09-20T14:39:27Z</time>
      </trkpt>
      <trkpt lat="48.42235" lon="3.59268">
        <ele>136.95</ele>
        <time>2014-09-20T14:39:29Z</time>
      </trkpt>
      <trkpt lat="48.42239" lon="3.59273">
        <ele>137.19</ele>
        <time>2014-09-20T14:39:31Z</time>
      </trkpt>
      <trkpt lat="48.42243" lon="3.59277">
        <ele>137.47</ele>
        <time>2014-09-20T14:39:33Z</time>
      </trkpt>
      <trkpt lat="48.42246" lon="3.59282">
        <ele>137.81</ele>
        <time>2014-09-20T14:39:35Z</time>
      </trkpt>
      <trkpt lat="48.4225" lon="3.59287">
        <ele>138.15</ele>
        <time>2014-09-20T14:39:37Z</time>
      </trkpt>
      <trkpt lat="48.42254" lon="3.59292">
        <ele>138.43</ele>
        <time>2014-09-20T14:39:39Z</time>
      </trkpt>
      <trkpt lat="48.42258" lon="3.59297">
        <ele>138.65</ele>
        <time>2014-09-20T14:39:41Z</time>
      </trkpt>
      <trkpt lat="48.42261" lon="3.59302">
        <ele>138.89</ele>
        <time>2014-09-20T14:39:43Z</time>
      </trkpt>
      <trkpt lat="48.42265" lon="3.59306">
        <ele>139.1</ele>
        <time>2014-09-20T14:39:45Z</time>
      </trkpt>
      <trkpt lat="48.42268" lon="3.59311">
        <ele>139.36</ele>
        <time>2014-09-20T14:39:47Z</time>
      </trkpt>
      <trkpt lat="48.42272" lon="3.59316">
        <ele>139.66</ele>
        <time>2014-09-20T14:39:49Z</time>
      </trkpt>
      <trkpt lat="48.42276" lon="3.59324">
        <ele>139.93</ele>
        <time>2014-09-20T14:39:52Z</time>
      </trkpt>
      <trkpt lat="48.42279" lon="3.59329">
        <ele>140.14</ele>
        <time>2014-09-20T14:39:54Z</time>
      </trkpt>
      <trkpt lat="48.42283" lon="3.59337">
        <ele>140.62</ele>
        <time>2014-09-20T14:39:57Z</time>
      </trkpt>
      <trkpt lat="48.42286" lon="3.59342">
        <ele>141.02</ele>
        <time>2014-09-20T14:39:59Z</time>
      </trkpt>
      <trkpt lat="48.42289" lon="3.59348">
        <ele>141.52</ele>
        <time>2014-09-20T14:40:01Z</time>
      </trkpt>
      <trkpt lat="48.42293" lon="3.59353">
        <ele>141.98</ele>
        <time>2014-09-20T14:40:03Z</time>
      </trkpt>
      <trkpt lat="48.42296" lon="3.59358">
        <ele>142.42</ele>
        <time>2014-09-20T14:40:05Z</time>
      </trkpt>
      <trkpt lat="48.423" lon="3.59365">
        <ele>142.83</ele>
        <time>2014-09-20T14:40:08Z</time>
      </trkpt>
      <trkpt lat="48.42305" lon="3.59372">
        <ele>142.99</ele>
        <time>2014-09-20T14:40:11Z</time>
      </trkpt>
      <trkpt lat="48.42311" lon="3.59377">
        <ele>143.14</ele>
        <time>2014-09-20T14:40:14Z</time>
      </trkpt>
      <trkpt lat="48.42314" lon="3.59381">
        <ele>143.2</ele>
        <time>2014-09-20T14:40:16Z</time>
      </trkpt>
      <trkpt lat="48.42318" lon="3.59385">
        <ele>143.23</ele>
        <time>2014-09-20T14:40:18Z</time>
      </trkpt>
      <trkpt lat="48.42322" lon="3.59389">
        <ele>143.23</ele>
        <time>2014-09-20T14:40:20Z</time>
      </trkpt>
      <trkpt lat="48.42328" lon="3.59393">
        <ele>143.37</ele>
        <time>2014-09-20T14:40:23Z</time>
      </trkpt>
      <trkpt lat="48.42332" lon="3.59397">
        <ele>143.53</ele>
        <time>2014-09-20T14:40:25Z</time>
      </trkpt>
      <trkpt lat="48.42336" lon="3.59401">
        <ele>143.69</ele>
        <time>2014-09-20T14:40:27Z</time>
      </trkpt>
      <trkpt lat="48.4234" lon="3.59405">
        <ele>143.88</ele>
        <time>2014-09-20T14:40:29Z</time>
      </trkpt>
      <trkpt lat="48.42343" lon="3.59409">
        <ele>144.08</ele>
        <time>2014-09-20T14:40:31Z</time>
      </trkpt>
      <trkpt lat="48.42349" lon="3.59415">
        <ele>144.35</ele>
        <time>2014-09-20T14:40:34Z</time>
      </trkpt>
      <trkpt lat="48.42354" lon="3.59421">
        <ele>144.5</ele>
        <time>2014-09-20T14:40:37Z</time>
      </trkpt>
      <trkpt lat="48.42358" lon="3.59425">
        <ele>144.64</ele>
        <time>2014-09-20T14:40:39Z</time>
      </trkpt>
      <trkpt lat="48.42363" lon="3.5943">
        <ele>144.85</ele>
        <time>2014-09-20T14:40:42Z</time>
      </trkpt>
      <trkpt lat="48.42367" lon="3.59435">
        <ele>144.97</ele>
        <time>2014-09-20T14:40:44Z</time>
      </trkpt>
      <trkpt lat="48.42371" lon="3.59439">
        <ele>145.02</ele>
        <time>2014-09-20T14:40:46Z</time>
      </trkpt>
      <trkpt lat="48.42376" lon="3.59444">
        <ele>145.11</ele>
        <time>2014-09-20T14:40:49Z</time>
      </trkpt>
      <trkpt lat="48.4238" lon="3.59448">
        <ele>145.2</ele>
        <time>2014-09-20T14:40:51Z</time>
      </trkpt>
      <trkpt lat="48.42384" lon="3.59451">
        <ele>145.33</ele>
        <time>2014-09-20T14:40:53Z</time>
      </trkpt>
      <trkpt lat="48.42388" lon="3.59455">
        <ele>145.53</ele>
        <time>2014-09-20T14:40:55Z</time>
      </trkpt>
      <trkpt lat="48.42392" lon="3.59458">
        <ele>145.71</ele>
        <time>2014-09-20T14:40:57Z</time>
      </trkpt>
      <trkpt lat="48.42398" lon="3.59462">
        <ele>146.08</ele>
        <time>2014-09-20T14:41:00Z</time>
      </trkpt>
      <trkpt lat="48.42404" lon="3.59466">
        <ele>146.34</ele>
        <time>2014-09-20T14:41:03Z</time>
      </trkpt>
      <trkpt lat="48.42409" lon="3.59468">
        <ele>146.65</ele>
        <time>2014-09-20T14:41:05Z</time>
      </trkpt>
      <trkpt lat="48.42414" lon="3.59473">
        <ele>146.99</ele>
        <time>2014-09-20T14:41:08Z</time>
      </trkpt>
      <trkpt lat="48.4242" lon="3.59478">
        <ele>147.31</ele>
        <time>2014-09-20T14:41:11Z</time>
      </trkpt>
      <trkpt lat="48.42426" lon="3.59481">
        <ele>147.69</ele>
        <time>2014-09-20T14:41:14Z</time>
      </trkpt>
      <trkpt lat="48.4243" lon="3.59483">
        <ele>148.18</ele>
        <time>2014-09-20T14:41:16Z</time>
      </trkpt>
      <trkpt lat="48.42435" lon="3.59485">
        <ele>148.76</ele>
        <time>2014-09-20T14:41:18Z</time>
      </trkpt>
      <trkpt lat="48.42441" lon="3.59488">
        <ele>149.55</ele>
        <time>2014-09-20T14:41:21Z</time>
      </trkpt>
      <trkpt lat="48.42447" lon="3.59491">
        <ele>150.26</ele>
        <time>2014-09-20T14:41:24Z</time>
      </trkpt>
      <trkpt lat="48.42453" lon="3.59494">
        <ele>150.89</ele>
        <time>2014-09-20T14:41:27Z</time>
      </trkpt>
      <trkpt lat="48.42459" lon="3.59497">
        <ele>151.45</ele>
        <time>2014-09-20T14:41:30Z</time>
      </trkpt>
      <trkpt lat="48.42465" lon="3.59498">
        <ele>151.93</ele>
        <time>2014-09-20T14:41:33Z</time>
      </trkpt>
      <trkpt lat="48.4247" lon="3.59499">
        <ele>152.6</ele>
        <time>2014-09-20T14:41:36Z</time>
      </trkpt>
      <trkpt lat="48.42474" lon="3.595">
        <ele>153.38</ele>
        <time>2014-09-20T14:41:39Z</time>
      </trkpt>
      <trkpt lat="48.4248" lon="3.59505">
        <ele>153.97</ele>
        <time>2014-09-20T14:41:42Z</time>
      </trkpt>
      <trkpt lat="48.42486" lon="3.5951">
        <ele>154.6</ele>
        <time>2014-09-20T14:41:45Z</time>
      </trkpt>
      <trkpt lat="48.42491" lon="3.59515">
        <ele>154.87</ele>
        <time>2014-09-20T14:41:47Z</time>
      </trkpt>
      <trkpt lat="48.42495" lon="3.5952">
        <ele>154.98</ele>
        <time>2014-09-20T14:41:49Z</time>
      </trkpt>
      <trkpt lat="48.425" lon="3.59526">
        <ele>155.12</ele>
        <time>2014-09-20T14:41:52Z</time>
      </trkpt>
      <trkpt lat="48.42506" lon="3.59531">
        <ele>155.18</ele>
        <time>2014-09-20T14:41:55Z</time>
      </trkpt>
      <trkpt lat="48.42511" lon="3.59536">
        <ele>155.38</ele>
        <time>2014-09-20T14:41:58Z</time>
      </trkpt>
      <trkpt lat="48.42517" lon="3.59541">
        <ele>155.66</ele>
        <time>2014-09-20T14:42:01Z</time>
      </trkpt>
      <trkpt lat="48.42523" lon="3.59545">
        <ele>156.01</ele>
        <time>2014-09-20T14:42:04Z</time>
      </trkpt>
      <trkpt lat="48.42529" lon="3.59549">
        <ele>156.48</ele>
        <time>2014-09-20T14:42:07Z</time>
      </trkpt>
      <trkpt lat="48.42534" lon="3.59554">
        <ele>156.8</ele>
        <time>2014-09-20T14:42:10Z</time>
      </trkpt>
      <trkpt lat="48.42539" lon="3.59559">
        <ele>157.28</ele>
        <time>2014-09-20T14:42:13Z</time>
      </trkpt>
      <trkpt lat="48.42544" lon="3.59563">
        <ele>157.77</ele>
        <time>2014-09-20T14:42:15Z</time>
      </trkpt>
      <trkpt lat="48.42549" lon="3.59568">
        <ele>158.14</ele>
        <time>2014-09-20T14:42:17Z</time>
      </trkpt>
      <trkpt lat="48.42553" lon="3.59572">
        <ele>158.42</ele>
        <time>2014-09-20T14:42:19Z</time>
      </trkpt>
      <trkpt lat="48.42557" lon="3.59576">
        <ele>158.76</ele>
        <time>2014-09-20T14:42:21Z</time>
      </trkpt>
      <trkpt lat="48.42561" lon="3.59582">
        <ele>159</ele>
        <time>2014-09-20T14:42:24Z</time>
      </trkpt>
      <trkpt lat="48.42565" lon="3.59586">
        <ele>159.28</ele>
        <time>2014-09-20T14:42:26Z</time>
      </trkpt>
      <trkpt lat="48.42571" lon="3.5959">
        <ele>159.7</ele>
        <time>2014-09-20T14:42:29Z</time>
      </trkpt>
      <trkpt lat="48.42576" lon="3.59595">
        <ele>160</ele>
        <time>2014-09-20T14:42:31Z</time>
      </trkpt>
      <trkpt lat="48.4258" lon="3.596">
        <ele>160.38</ele>
        <time>2014-09-20T14:42:34Z</time>
      </trkpt>
      <trkpt lat="48.42586" lon="3.59602">
        <ele>160.76</ele>
        <time>2014-09-20T14:42:37Z</time>
      </trkpt>
      <trkpt lat="48.42592" lon="3.59603">
        <ele>160.91</ele>
        <time>2014-09-20T14:42:40Z</time>
      </trkpt>
      <trkpt lat="48.42596" lon="3.59603">
        <ele>161.03</ele>
        <time>2014-09-20T14:42:42Z</time>
      </trkpt>
      <trkpt lat="48.42601" lon="3.59604">
        <ele>161.15</ele>
        <time>2014-09-20T14:42:44Z</time>
      </trkpt>
      <trkpt lat="48.42606" lon="3.59605">
        <ele>161.22</ele>
        <time>2014-09-20T14:42:46Z</time>
      </trkpt>
      <trkpt lat="48.42612" lon="3.59607">
        <ele>161.2</ele>
        <time>2014-09-20T14:42:49Z</time>
      </trkpt>
      <trkpt lat="48.42618" lon="3.59611">
        <ele>160.81</ele>
        <time>2014-09-20T14:42:52Z</time>
      </trkpt>
      <trkpt lat="48.42623" lon="3.59615">
        <ele>160.29</ele>
        <time>2014-09-20T14:42:55Z</time>
      </trkpt>
      <trkpt lat="48.42628" lon="3.59621">
        <ele>159.78</ele>
        <time>2014-09-20T14:42:58Z</time>
      </trkpt>
      <trkpt lat="48.42633" lon="3.59626">
        <ele>159.53</ele>
        <time>2014-09-20T14:43:01Z</time>
      </trkpt>
      <trkpt lat="48.42638" lon="3.59631">
        <ele>159.57</ele>
        <time>2014-09-20T14:43:04Z</time>
      </trkpt>
      <trkpt lat="48.42644" lon="3.59633">
        <ele>159.52</ele>
        <time>2014-09-20T14:43:07Z</time>
      </trkpt>
      <trkpt lat="48.4265" lon="3.59633">
        <ele>159.66</ele>
        <time>2014-09-20T14:43:10Z</time>
      </trkpt>
      <trkpt lat="48.42655" lon="3.59631">
        <ele>159.73</ele>
        <time>2014-09-20T14:43:13Z</time>
      </trkpt>
      <trkpt lat="48.42662" lon="3.59631">
        <ele>159.75</ele>
        <time>2014-09-20T14:43:16Z</time>
      </trkpt>
      <trkpt lat="48.42668" lon="3.5963">
        <ele>159.85</ele>
        <time>2014-09-20T14:43:19Z</time>
      </trkpt>
      <trkpt lat="48.42674" lon="3.5963">
        <ele>160.05</ele>
        <time>2014-09-20T14:43:22Z</time>
      </trkpt>
      <trkpt lat="48.42679" lon="3.59631">
        <ele>160.24</ele>
        <time>2014-09-20T14:43:24Z</time>
      </trkpt>
      <trkpt lat="48.42684" lon="3.59632">
        <ele>160.32</ele>
        <time>2014-09-20T14:43:26Z</time>
      </trkpt>
      <trkpt lat="48.42689" lon="3.59636">
        <ele>160.46</ele>
        <time>2014-09-20T14:43:28Z</time>
      </trkpt>
      <trkpt lat="48.42695" lon="3.5964">
        <ele>160.47</ele>
        <time>2014-09-20T14:43:30Z</time>
      </trkpt>
      <trkpt lat="48.42699" lon="3.59643">
        <ele>160.5</ele>
        <time>2014-09-20T14:43:32Z</time>
      </trkpt>
      <trkpt lat="48.42703" lon="3.59646">
        <ele>160.52</ele>
        <time>2014-09-20T14:43:34Z</time>
      </trkpt>
      <trkpt lat="48.42707" lon="3.5965">
        <ele>160.66</ele>
        <time>2014-09-20T14:43:36Z</time>
      </trkpt>
      <trkpt lat="48.42711" lon="3.59653">
        <ele>160.93</ele>
        <time>2014-09-20T14:43:38Z</time>
      </trkpt>
      <trkpt lat="48.42717" lon="3.59659">
        <ele>161.25</ele>
        <time>2014-09-20T14:43:41Z</time>
      </trkpt>
      <trkpt lat="48.42723" lon="3.59664">
        <ele>161.48</ele>
        <time>2014-09-20T14:43:44Z</time>
      </trkpt>
      <trkpt lat="48.42728" lon="3.59669">
        <ele>161.69</ele>
        <time>2014-09-20T14:43:47Z</time>
      </trkpt>
      <trkpt lat="48.42732" lon="3.59672">
        <ele>161.8</ele>
        <time>2014-09-20T14:43:49Z</time>
      </trkpt>
      <trkpt lat="48.42736" lon="3.59676">
        <ele>161.94</ele>
        <time>2014-09-20T14:43:51Z</time>
      </trkpt>
      <trkpt lat="48.4274" lon="3.5968">
        <ele>162.07</ele>
        <time>2014-09-20T14:43:53Z</time>
      </trkpt>
      <trkpt lat="48.42743" lon="3.59685">
        <ele>162.16</ele>
        <time>2014-09-20T14:43:55Z</time>
      </trkpt>
      <trkpt lat="48.42747" lon="3.59689">
        <ele>162.37</ele>
        <time>2014-09-20T14:43:57Z</time>
      </trkpt>
      <trkpt lat="48.42751" lon="3.59693">
        <ele>162.55</ele>
        <time>2014-09-20T14:43:59Z</time>
      </trkpt>
      <trkpt lat="48.42754" lon="3.59697">
        <ele>162.71</ele>
        <time>2014-09-20T14:44:01Z</time>
      </trkpt>
      <trkpt lat="48.42758" lon="3.59701">
        <ele>162.92</ele>
        <time>2014-09-20T14:44:03Z</time>
      </trkpt>
      <trkpt lat="48.42762" lon="3.59706">
        <ele>163.21</ele>
        <time>2014-09-20T14:44:05Z</time>
      </trkpt>
      <trkpt lat="48.42766" lon="3.5971">
        <ele>163.37</ele>
        <time>2014-09-20T14:44:07Z</time>
      </trkpt>
      <trkpt lat="48.4277" lon="3.59714">
        <ele>163.53</ele>
        <time>2014-09-20T14:44:09Z</time>
      </trkpt>
      <trkpt lat="48.42774" lon="3.59718">
        <ele>163.8</ele>
        <time>2014-09-20T14:44:11Z</time>
      </trkpt>
      <trkpt lat="48.42778" lon="3.59722">
        <ele>163.96</ele>
        <time>2014-09-20T14:44:13Z</time>
      </trkpt>
      <trkpt lat="48.42782" lon="3.59726">
        <ele>164.08</ele>
        <time>2014-09-20T14:44:15Z</time>
      </trkpt>
      <trkpt lat="48.42786" lon="3.5973">
        <ele>164.19</ele>
        <time>2014-09-20T14:44:17Z</time>
      </trkpt>
      <trkpt lat="48.4279" lon="3.59734">
        <ele>164.25</ele>
        <time>2014-09-20T14:44:19Z</time>
      </trkpt>
      <trkpt lat="48.42795" lon="3.59737">
        <ele>164.31</ele>
        <time>2014-09-20T14:44:21Z</time>
      </trkpt>
      <trkpt lat="48.42939" lon="3.59831">
        <ele>168.73</ele>
        <time>2014-09-20T14:45:24Z</time>
      </trkpt>
      <trkpt lat="48.42945" lon="3.59833">
        <ele>169.01</ele>
        <time>2014-09-20T14:45:26Z</time>
      </trkpt>
      <trkpt lat="48.42951" lon="3.59836">
        <ele>169.28</ele>
        <time>2014-09-20T14:45:29Z</time>
      </trkpt>
      <trkpt lat="48.42956" lon="3.59838">
        <ele>169.48</ele>
        <time>2014-09-20T14:45:31Z</time>
      </trkpt>
      <trkpt lat="48.42961" lon="3.5984">
        <ele>169.73</ele>
        <time>2014-09-20T14:45:33Z</time>
      </trkpt>
      <trkpt lat="48.42965" lon="3.59839">
        <ele>170.05</ele>
        <time>2014-09-20T14:45:35Z</time>
      </trkpt>
      <trkpt lat="48.42969" lon="3.59833">
        <ele>170.22</ele>
        <time>2014-09-20T14:45:37Z</time>
      </trkpt>
      <trkpt lat="48.42971" lon="3.59826">
        <ele>170.4</ele>
        <time>2014-09-20T14:45:39Z</time>
      </trkpt>
      <trkpt lat="48.42972" lon="3.59818">
        <ele>170.55</ele>
        <time>2014-09-20T14:45:41Z</time>
      </trkpt>
      <trkpt lat="48.42974" lon="3.59811">
        <ele>170.74</ele>
        <time>2014-09-20T14:45:43Z</time>
      </trkpt>
      <trkpt lat="48.42975" lon="3.59803">
        <ele>171.02</ele>
        <time>2014-09-20T14:45:45Z</time>
      </trkpt>
      <trkpt lat="48.42976" lon="3.59795">
        <ele>171.25</ele>
        <time>2014-09-20T14:45:47Z</time>
      </trkpt>
      <trkpt lat="48.42979" lon="3.59788">
        <ele>171.55</ele>
        <time>2014-09-20T14:45:49Z</time>
      </trkpt>
      <trkpt lat="48.4298" lon="3.5978">
        <ele>171.97</ele>
        <time>2014-09-20T14:45:51Z</time>
      </trkpt>
      <trkpt lat="48.42982" lon="3.59771">
        <ele>172.55</ele>
        <time>2014-09-20T14:45:53Z</time>
      </trkpt>
      <trkpt lat="48.42984" lon="3.59763">
        <ele>172.98</ele>
        <time>2014-09-20T14:45:55Z</time>
      </trkpt>
      <trkpt lat="48.42986" lon="3.59755">
        <ele>173.2</ele>
        <time>2014-09-20T14:45:57Z</time>
      </trkpt>
      <trkpt lat="48.42988" lon="3.59747">
        <ele>173.41</ele>
        <time>2014-09-20T14:45:59Z</time>
      </trkpt>
      <trkpt lat="48.42991" lon="3.59741">
        <ele>173.62</ele>
        <time>2014-09-20T14:46:01Z</time>
      </trkpt>
      <trkpt lat="48.42995" lon="3.59736">
        <ele>173.77</ele>
        <time>2014-09-20T14:46:03Z</time>
      </trkpt>
      <trkpt lat="48.43" lon="3.59734">
        <ele>173.88</ele>
        <time>2014-09-20T14:46:05Z</time>
      </trkpt>
      <trkpt lat="48.43005" lon="3.59731">
        <ele>174.04</ele>
        <time>2014-09-20T14:46:07Z</time>
      </trkpt>
      <trkpt lat="48.4301" lon="3.59728">
        <ele>174.21</ele>
        <time>2014-09-20T14:46:09Z</time>
      </trkpt>
      <trkpt lat="48.43016" lon="3.59724">
        <ele>174.44</ele>
        <time>2014-09-20T14:46:11Z</time>
      </trkpt>
      <trkpt lat="48.43021" lon="3.5972">
        <ele>174.68</ele>
        <time>2014-09-20T14:46:13Z</time>
      </trkpt>
      <trkpt lat="48.43026" lon="3.59721">
        <ele>174.86</ele>
        <time>2014-09-20T14:46:15Z</time>
      </trkpt>
      <trkpt lat="48.43029" lon="3.59727">
        <ele>174.91</ele>
        <time>2014-09-20T14:46:17Z</time>
      </trkpt>
      <trkpt lat="48.43032" lon="3.59735">
        <ele>174.82</ele>
        <time>2014-09-20T14:46:19Z</time>
      </trkpt>
      <trkpt lat="48.43034" lon="3.59744">
        <ele>174.72</ele>
        <time>2014-09-20T14:46:21Z</time>
      </trkpt>
      <trkpt lat="48.43037" lon="3.59754">
        <ele>174.68</ele>
        <time>2014-09-20T14:46:23Z</time>
      </trkpt>
      <trkpt lat="48.4304" lon="3.59764">
        <ele>174.68</ele>
        <time>2014-09-20T14:46:25Z</time>
      </trkpt>
      <trkpt lat="48.43044" lon="3.59775">
        <ele>174.7</ele>
        <time>2014-09-20T14:46:27Z</time>
      </trkpt>
      <trkpt lat="48.43047" lon="3.59786">
        <ele>174.71</ele>
        <time>2014-09-20T14:46:29Z</time>
      </trkpt>
      <trkpt lat="48.43051" lon="3.59797">
        <ele>174.72</ele>
        <time>2014-09-20T14:46:31Z</time>
      </trkpt>
      <trkpt lat="48.43054" lon="3.59809">
        <ele>174.72</ele>
        <time>2014-09-20T14:46:33Z</time>
      </trkpt>
      <trkpt lat="48.43058" lon="3.59821">
        <ele>174.73</ele>
        <time>2014-09-20T14:46:35Z</time>
      </trkpt>
      <trkpt lat="48.43062" lon="3.59833">
        <ele>174.73</ele>
        <time>2014-09-20T14:46:37Z</time>
      </trkpt>
      <trkpt lat="48.43064" lon="3.59839">
        <ele>174.73</ele>
        <time>2014-09-20T14:46:38Z</time>
      </trkpt>
      <trkpt lat="48.43066" lon="3.59846">
        <ele>174.73</ele>
        <time>2014-09-20T14:46:39Z</time>
      </trkpt>
      <trkpt lat="48.43068" lon="3.59852">
        <ele>174.73</ele>
        <time>2014-09-20T14:46:40Z</time>
      </trkpt>
      <trkpt lat="48.43069" lon="3.59858">
        <ele>174.73</ele>
        <time>2014-09-20T14:46:41Z</time>
      </trkpt>
      <trkpt lat="48.43071" lon="3.59865">
        <ele>174.75</ele>
        <time>2014-09-20T14:46:42Z</time>
      </trkpt>
      <trkpt lat="48.43073" lon="3.59871">
        <ele>174.77</ele>
        <time>2014-09-20T14:46:43Z</time>
      </trkpt>
      <trkpt lat="48.43075" lon="3.59877">
        <ele>174.81</ele>
        <time>2014-09-20T14:46:44Z</time>
      </trkpt>
      <trkpt lat="48.43079" lon="3.59889">
        <ele>174.93</ele>
        <time>2014-09-20T14:46:46Z</time>
      </trkpt>
      <trkpt lat="48.43083" lon="3.59901">
        <ele>175.09</ele>
        <time>2014-09-20T14:46:48Z</time>
      </trkpt>
      <trkpt lat="48.43087" lon="3.59913">
        <ele>175.22</ele>
        <time>2014-09-20T14:46:50Z</time>
      </trkpt>
      <trkpt lat="48.43091" lon="3.59925">
        <ele>175.33</ele>
        <time>2014-09-20T14:46:52Z</time>
      </trkpt>
      <trkpt lat="48.43094" lon="3.59937">
        <ele>175.44</ele>
        <time>2014-09-20T14:46:54Z</time>
      </trkpt>
      <trkpt lat="48.43098" lon="3.59949">
        <ele>175.57</ele>
        <time>2014-09-20T14:46:56Z</time>
      </trkpt>
      <trkpt lat="48.431" lon="3.59955">
        <ele>175.61</ele>
        <time>2014-09-20T14:46:57Z</time>
      </trkpt>
      <trkpt lat="48.43102" lon="3.59962">
        <ele>175.66</ele>
        <time>2014-09-20T14:46:58Z</time>
      </trkpt>
      <trkpt lat="48.43104" lon="3.59969">
        <ele>175.7</ele>
        <time>2014-09-20T14:46:59Z</time>
      </trkpt>
      <trkpt lat="48.43107" lon="3.59976">
        <ele>175.76</ele>
        <time>2014-09-20T14:47:00Z</time>
      </trkpt>
      <trkpt lat="48.43109" lon="3.59983">
        <ele>175.8</ele>
        <time>2014-09-20T14:47:01Z</time>
      </trkpt>
      <trkpt lat="48.43111" lon="3.5999">
        <ele>175.81</ele>
        <time>2014-09-20T14:47:02Z</time>
      </trkpt>
      <trkpt lat="48.43113" lon="3.59997">
        <ele>175.79</ele>
        <time>2014-09-20T14:47:03Z</time>
      </trkpt>
      <trkpt lat="48.43115" lon="3.60004">
        <ele>175.77</ele>
        <time>2014-09-20T14:47:04Z</time>
      </trkpt>
      <trkpt lat="48.43118" lon="3.60011">
        <ele>175.74</ele>
        <time>2014-09-20T14:47:05Z</time>
      </trkpt>
      <trkpt lat="48.4312" lon="3.60018">
        <ele>175.66</ele>
        <time>2014-09-20T14:47:06Z</time>
      </trkpt>
      <trkpt lat="48.43122" lon="3.60025">
        <ele>175.58</ele>
        <time>2014-09-20T14:47:07Z</time>
      </trkpt>
      <trkpt lat="48.43125" lon="3.60032">
        <ele>175.49</ele>
        <time>2014-09-20T14:47:08Z</time>
      </trkpt>
      <trkpt lat="48.43127" lon="3.60039">
        <ele>175.35</ele>
        <time>2014-09-20T14:47:09Z</time>
      </trkpt>
      <trkpt lat="48.43129" lon="3.60046">
        <ele>175.24</ele>
        <time>2014-09-20T14:47:10Z</time>
      </trkpt>
      <trkpt lat="48.43132" lon="3.60052">
        <ele>175.16</ele>
        <time>2014-09-20T14:47:11Z</time>
      </trkpt>
      <trkpt lat="48.43134" lon="3.60059">
        <ele>175.11</ele>
        <time>2014-09-20T14:47:12Z</time>
      </trkpt>
      <trkpt lat="48.43136" lon="3.60067">
        <ele>175.04</ele>
        <time>2014-09-20T14:47:13Z</time>
      </trkpt>
      <trkpt lat="48.43138" lon="3.60074">
        <ele>174.96</ele>
        <time>2014-09-20T14:47:14Z</time>
      </trkpt>
      <trkpt lat="48.4314" lon="3.60081">
        <ele>174.88</ele>
        <time>2014-09-20T14:47:15Z</time>
      </trkpt>
      <trkpt lat="48.43143" lon="3.60089">
        <ele>174.76</ele>
        <time>2014-09-20T14:47:16Z</time>
      </trkpt>
      <trkpt lat="48.43145" lon="3.60096">
        <ele>174.66</ele>
        <time>2014-09-20T14:47:17Z</time>
      </trkpt>
      <trkpt lat="48.43148" lon="3.60104">
        <ele>174.55</ele>
        <time>2014-09-20T14:47:18Z</time>
      </trkpt>
      <trkpt lat="48.4315" lon="3.60112">
        <ele>174.44</ele>
        <time>2014-09-20T14:47:19Z</time>
      </trkpt>
      <trkpt lat="48.43153" lon="3.6012">
        <ele>174.34</ele>
        <time>2014-09-20T14:47:20Z</time>
      </trkpt>
      <trkpt lat="48.43155" lon="3.60128">
        <ele>174.26</ele>
        <time>2014-09-20T14:47:21Z</time>
      </trkpt>
      <trkpt lat="48.43157" lon="3.60136">
        <ele>174.2</ele>
        <time>2014-09-20T14:47:22Z</time>
      </trkpt>
      <trkpt lat="48.4316" lon="3.60144">
        <ele>174.16</ele>
        <time>2014-09-20T14:47:23Z</time>
      </trkpt>
      <trkpt lat="48.43162" lon="3.60152">
        <ele>174.15</ele>
        <time>2014-09-20T14:47:24Z</time>
      </trkpt>
      <trkpt lat="48.43165" lon="3.6016">
        <ele>174.17</ele>
        <time>2014-09-20T14:47:25Z</time>
      </trkpt>
      <trkpt lat="48.43167" lon="3.60168">
        <ele>174.18</ele>
        <time>2014-09-20T14:47:26Z</time>
      </trkpt>
      <trkpt lat="48.4317" lon="3.60176">
        <ele>174.22</ele>
        <time>2014-09-20T14:47:27Z</time>
      </trkpt>
      <trkpt lat="48.43173" lon="3.60184">
        <ele>174.25</ele>
        <time>2014-09-20T14:47:28Z</time>
      </trkpt>
      <trkpt lat="48.43175" lon="3.60192">
        <ele>174.24</ele>
        <time>2014-09-20T14:47:29Z</time>
      </trkpt>
      <trkpt lat="48.43178" lon="3.602">
        <ele>174.26</ele>
        <time>2014-09-20T14:47:30Z</time>
      </trkpt>
      <trkpt lat="48.43181" lon="3.60208">
        <ele>174.28</ele>
        <time>2014-09-20T14:47:31Z</time>
      </trkpt>
      <trkpt lat="48.43183" lon="3.60216">
        <ele>174.27</ele>
        <time>2014-09-20T14:47:32Z</time>
      </trkpt>
      <trkpt lat="48.43186" lon="3.60223">
        <ele>174.31</ele>
        <time>2014-09-20T14:47:33Z</time>
      </trkpt>
      <trkpt lat="48.43188" lon="3.60232">
        <ele>174.34</ele>
        <time>2014-09-20T14:47:34Z</time>
      </trkpt>
      <trkpt lat="48.43191" lon="3.6024">
        <ele>174.34</ele>
        <time>2014-09-20T14:47:35Z</time>
      </trkpt>
      <trkpt lat="48.43193" lon="3.60248">
        <ele>174.38</ele>
        <time>2014-09-20T14:47:36Z</time>
      </trkpt>
      <trkpt lat="48.43195" lon="3.60256">
        <ele>174.39</ele>
        <time>2014-09-20T14:47:37Z</time>
      </trkpt>
      <trkpt lat="48.43198" lon="3.60263">
        <ele>174.45</ele>
        <time>2014-09-20T14:47:38Z</time>
      </trkpt>
      <trkpt lat="48.43206" lon="3.60265">
        <ele>174.62</ele>
        <time>2014-09-20T14:47:40Z</time>
      </trkpt>
      <trkpt lat="48.43211" lon="3.60263">
        <ele>174.67</ele>
        <time>2014-09-20T14:47:41Z</time>
      </trkpt>
      <trkpt lat="48.43217" lon="3.6026">
        <ele>174.7</ele>
        <time>2014-09-20T14:47:43Z</time>
      </trkpt>
      <trkpt lat="48.43221" lon="3.60257">
        <ele>174.77</ele>
        <time>2014-09-20T14:47:45Z</time>
      </trkpt>
      <trkpt lat="48.43225" lon="3.60248">
        <ele>175.03</ele>
        <time>2014-09-20T14:52:36Z</time>
      </trkpt>
      <trkpt lat="48.43228" lon="3.60241">
        <ele>175.09</ele>
        <time>2014-09-20T14:52:39Z</time>
      </trkpt>
      <trkpt lat="48.43228" lon="3.60233">
        <ele>175.1</ele>
        <time>2014-09-20T14:52:41Z</time>
      </trkpt>
      <trkpt lat="48.4323" lon="3.60224">
        <ele>175.1</ele>
        <time>2014-09-20T14:52:44Z</time>
      </trkpt>
      <trkpt lat="48.43235" lon="3.60218">
        <ele>174.96</ele>
        <time>2014-09-20T14:52:47Z</time>
      </trkpt>
      <trkpt lat="48.43238" lon="3.60213">
        <ele>174.9</ele>
        <time>2014-09-20T14:52:49Z</time>
      </trkpt>
      <trkpt lat="48.43241" lon="3.60207">
        <ele>174.99</ele>
        <time>2014-09-20T14:52:51Z</time>
      </trkpt>
      <trkpt lat="48.43246" lon="3.60201">
        <ele>175.14</ele>
        <time>2014-09-20T14:52:53Z</time>
      </trkpt>
      <trkpt lat="48.43252" lon="3.60194">
        <ele>175.24</ele>
        <time>2014-09-20T14:52:55Z</time>
      </trkpt>
      <trkpt lat="48.43259" lon="3.60187">
        <ele>175.28</ele>
        <time>2014-09-20T14:52:57Z</time>
      </trkpt>
      <trkpt lat="48.43263" lon="3.60183">
        <ele>175.44</ele>
        <time>2014-09-20T14:52:58Z</time>
      </trkpt>
      <trkpt lat="48.4327" lon="3.60175">
        <ele>175.63</ele>
        <time>2014-09-20T14:53:00Z</time>
      </trkpt>
      <trkpt lat="48.43277" lon="3.60168">
        <ele>175.75</ele>
        <time>2014-09-20T14:53:02Z</time>
      </trkpt>
      <trkpt lat="48.4328" lon="3.60163">
        <ele>175.75</ele>
        <time>2014-09-20T14:53:03Z</time>
      </trkpt>
      <trkpt lat="48.43287" lon="3.60156">
        <ele>175.83</ele>
        <time>2014-09-20T14:53:05Z</time>
      </trkpt>
      <trkpt lat="48.43294" lon="3.60149">
        <ele>176.03</ele>
        <time>2014-09-20T14:53:07Z</time>
      </trkpt>
      <trkpt lat="48.433" lon="3.60143">
        <ele>176.23</ele>
        <time>2014-09-20T14:53:09Z</time>
      </trkpt>
      <trkpt lat="48.43305" lon="3.60137">
        <ele>176.38</ele>
        <time>2014-09-20T14:53:11Z</time>
      </trkpt>
      <trkpt lat="48.4331" lon="3.60133">
        <ele>176.73</ele>
        <time>2014-09-20T14:53:13Z</time>
      </trkpt>
      <trkpt lat="48.43318" lon="3.60128">
        <ele>177.18</ele>
        <time>2014-09-20T14:53:15Z</time>
      </trkpt>
      <trkpt lat="48.43325" lon="3.60122">
        <ele>177.6</ele>
        <time>2014-09-20T14:53:17Z</time>
      </trkpt>
      <trkpt lat="48.43331" lon="3.60118">
        <ele>177.85</ele>
        <time>2014-09-20T14:53:19Z</time>
      </trkpt>
      <trkpt lat="48.43339" lon="3.60113">
        <ele>178.15</ele>
        <time>2014-09-20T14:53:21Z</time>
      </trkpt>
      <trkpt lat="48.43345" lon="3.60105">
        <ele>178.32</ele>
        <time>2014-09-20T14:53:23Z</time>
      </trkpt>
      <trkpt lat="48.43351" lon="3.60098">
        <ele>178.61</ele>
        <time>2014-09-20T14:53:25Z</time>
      </trkpt>
      <trkpt lat="48.43356" lon="3.60092">
        <ele>178.89</ele>
        <time>2014-09-20T14:53:27Z</time>
      </trkpt>
      <trkpt lat="48.43362" lon="3.60088">
        <ele>179.34</ele>
        <time>2014-09-20T14:53:29Z</time>
      </trkpt>
      <trkpt lat="48.43368" lon="3.60084">
        <ele>179.83</ele>
        <time>2014-09-20T14:53:31Z</time>
      </trkpt>
      <trkpt lat="48.43373" lon="3.60081">
        <ele>180.51</ele>
        <time>2014-09-20T14:53:33Z</time>
      </trkpt>
      <trkpt lat="48.43379" lon="3.60075">
        <ele>181.2</ele>
        <time>2014-09-20T14:53:36Z</time>
      </trkpt>
      <trkpt lat="48.43384" lon="3.60071">
        <ele>181.63</ele>
        <time>2014-09-20T14:53:39Z</time>
      </trkpt>
      <trkpt lat="48.4339" lon="3.60067">
        <ele>182.13</ele>
        <time>2014-09-20T14:53:42Z</time>
      </trkpt>
      <trkpt lat="48.43394" lon="3.60064">
        <ele>182.14</ele>
        <time>2014-09-20T14:53:44Z</time>
      </trkpt>
      <trkpt lat="48.43398" lon="3.6006">
        <ele>182.38</ele>
        <time>2014-09-20T14:53:46Z</time>
      </trkpt>
      <trkpt lat="48.43403" lon="3.60056">
        <ele>182.88</ele>
        <time>2014-09-20T14:53:48Z</time>
      </trkpt>
      <trkpt lat="48.43409" lon="3.60053">
        <ele>183.65</ele>
        <time>2014-09-20T14:53:51Z</time>
      </trkpt>
      <trkpt lat="48.43415" lon="3.6005">
        <ele>184.07</ele>
        <time>2014-09-20T14:53:54Z</time>
      </trkpt>
      <trkpt lat="48.43419" lon="3.60047">
        <ele>184.26</ele>
        <time>2014-09-20T14:53:56Z</time>
      </trkpt>
      <trkpt lat="48.43424" lon="3.60044">
        <ele>184.61</ele>
        <time>2014-09-20T14:53:58Z</time>
      </trkpt>
      <trkpt lat="48.43429" lon="3.60041">
        <ele>184.99</ele>
        <time>2014-09-20T14:54:00Z</time>
      </trkpt>
      <trkpt lat="48.43434" lon="3.60036">
        <ele>185.78</ele>
        <time>2014-09-20T14:54:03Z</time>
      </trkpt>
      <trkpt lat="48.43438" lon="3.60033">
        <ele>186.15</ele>
        <time>2014-09-20T14:54:05Z</time>
      </trkpt>
      <trkpt lat="48.43444" lon="3.60028">
        <ele>186.38</ele>
        <time>2014-09-20T14:54:08Z</time>
      </trkpt>
      <trkpt lat="48.43448" lon="3.60023">
        <ele>186.42</ele>
        <time>2014-09-20T14:54:10Z</time>
      </trkpt>
      <trkpt lat="48.43453" lon="3.60019">
        <ele>186.65</ele>
        <time>2014-09-20T14:54:12Z</time>
      </trkpt>
      <trkpt lat="48.43457" lon="3.60014">
        <ele>186.95</ele>
        <time>2014-09-20T14:54:14Z</time>
      </trkpt>
      <trkpt lat="48.43461" lon="3.6001">
        <ele>187.37</ele>
        <time>2014-09-20T14:54:16Z</time>
      </trkpt>
      <trkpt lat="48.43466" lon="3.60007">
        <ele>187.77</ele>
        <time>2014-09-20T14:54:18Z</time>
      </trkpt>
      <trkpt lat="48.4347" lon="3.60004">
        <ele>188.07</ele>
        <time>2014-09-20T14:54:20Z</time>
      </trkpt>
      <trkpt lat="48.43475" lon="3.60002">
        <ele>188.43</ele>
        <time>2014-09-20T14:54:22Z</time>
      </trkpt>
      <trkpt lat="48.43479" lon="3.59999">
        <ele>188.76</ele>
        <time>2014-09-20T14:54:24Z</time>
      </trkpt>
      <trkpt lat="48.43484" lon="3.59997">
        <ele>188.97</ele>
        <time>2014-09-20T14:54:26Z</time>
      </trkpt>
      <trkpt lat="48.43488" lon="3.59994">
        <ele>189.04</ele>
        <time>2014-09-20T14:54:28Z</time>
      </trkpt>
      <trkpt lat="48.43493" lon="3.59991">
        <ele>189.15</ele>
        <time>2014-09-20T14:54:30Z</time>
      </trkpt>
      <trkpt lat="48.43499" lon="3.59989">
        <ele>189.55</ele>
        <time>2014-09-20T14:54:33Z</time>
      </trkpt>
      <trkpt lat="48.43504" lon="3.59986">
        <ele>189.79</ele>
        <time>2014-09-20T14:54:35Z</time>
      </trkpt>
      <trkpt lat="48.43508" lon="3.59983">
        <ele>190.18</ele>
        <time>2014-09-20T14:54:37Z</time>
      </trkpt>
      <trkpt lat="48.43513" lon="3.59979">
        <ele>190.6</ele>
        <time>2014-09-20T14:54:39Z</time>
      </trkpt>
      <trkpt lat="48.43518" lon="3.59976">
        <ele>190.85</ele>
        <time>2014-09-20T14:54:41Z</time>
      </trkpt>
      <trkpt lat="48.43523" lon="3.59972">
        <ele>191</ele>
        <time>2014-09-20T14:54:43Z</time>
      </trkpt>
      <trkpt lat="48.43529" lon="3.59968">
        <ele>191.25</ele>
        <time>2014-09-20T14:54:45Z</time>
      </trkpt>
      <trkpt lat="48.43535" lon="3.59963">
        <ele>191.51</ele>
        <time>2014-09-20T14:54:47Z</time>
      </trkpt>
      <trkpt lat="48.43542" lon="3.59958">
        <ele>191.65</ele>
        <time>2014-09-20T14:54:49Z</time>
      </trkpt>
      <trkpt lat="48.43546" lon="3.59955">
        <ele>191.69</ele>
        <time>2014-09-20T14:54:50Z</time>
      </trkpt>
      <trkpt lat="48.43551" lon="3.59952">
        <ele>191.65</ele>
        <time>2014-09-20T14:54:51Z</time>
      </trkpt>
      <trkpt lat="48.43555" lon="3.59949">
        <ele>191.62</ele>
        <time>2014-09-20T14:54:52Z</time>
      </trkpt>
      <trkpt lat="48.4356" lon="3.59946">
        <ele>191.6</ele>
        <time>2014-09-20T14:54:53Z</time>
      </trkpt>
      <trkpt lat="48.43564" lon="3.59942">
        <ele>191.58</ele>
        <time>2014-09-20T14:54:54Z</time>
      </trkpt>
      <trkpt lat="48.43569" lon="3.59938">
        <ele>191.52</ele>
        <time>2014-09-20T14:54:55Z</time>
      </trkpt>
      <trkpt lat="48.43573" lon="3.59934">
        <ele>191.42</ele>
        <time>2014-09-20T14:54:56Z</time>
      </trkpt>
      <trkpt lat="48.43578" lon="3.59929">
        <ele>191.37</ele>
        <time>2014-09-20T14:54:57Z</time>
      </trkpt>
      <trkpt lat="48.43583" lon="3.59924">
        <ele>191.34</ele>
        <time>2014-09-20T14:54:58Z</time>
      </trkpt>
      <trkpt lat="48.43588" lon="3.59918">
        <ele>191.26</ele>
        <time>2014-09-20T14:54:59Z</time>
      </trkpt>
      <trkpt lat="48.43593" lon="3.59912">
        <ele>191.05</ele>
        <time>2014-09-20T14:55:00Z</time>
      </trkpt>
      <trkpt lat="48.43599" lon="3.59906">
        <ele>190.8</ele>
        <time>2014-09-20T14:55:01Z</time>
      </trkpt>
      <trkpt lat="48.43604" lon="3.599">
        <ele>190.5</ele>
        <time>2014-09-20T14:55:02Z</time>
      </trkpt>
      <trkpt lat="48.4361" lon="3.59894">
        <ele>190.26</ele>
        <time>2014-09-20T14:55:03Z</time>
      </trkpt>
      <trkpt lat="48.43616" lon="3.59889">
        <ele>190.03</ele>
        <time>2014-09-20T14:55:04Z</time>
      </trkpt>
      <trkpt lat="48.43622" lon="3.59883">
        <ele>189.88</ele>
        <time>2014-09-20T14:55:05Z</time>
      </trkpt>
      <trkpt lat="48.43629" lon="3.59878">
        <ele>189.66</ele>
        <time>2014-09-20T14:55:06Z</time>
      </trkpt>
      <trkpt lat="48.43635" lon="3.59873">
        <ele>189.43</ele>
        <time>2014-09-20T14:55:07Z</time>
      </trkpt>
      <trkpt lat="48.43641" lon="3.59868">
        <ele>189.15</ele>
        <time>2014-09-20T14:55:08Z</time>
      </trkpt>
      <trkpt lat="48.43646" lon="3.59865">
        <ele>188.97</ele>
        <time>2014-09-20T14:55:09Z</time>
      </trkpt>
      <trkpt lat="48.43656" lon="3.59866">
        <ele>188.73</ele>
        <time>2014-09-20T14:55:11Z</time>
      </trkpt>
      <trkpt lat="48.43661" lon="3.59864">
        <ele>188.48</ele>
        <time>2014-09-20T14:55:12Z</time>
      </trkpt>
      <trkpt lat="48.43666" lon="3.5986">
        <ele>188.24</ele>
        <time>2014-09-20T14:55:13Z</time>
      </trkpt>
      <trkpt lat="48.43671" lon="3.59856">
        <ele>187.99</ele>
        <time>2014-09-20T14:55:14Z</time>
      </trkpt>
      <trkpt lat="48.43676" lon="3.59852">
        <ele>187.62</ele>
        <time>2014-09-20T14:55:15Z</time>
      </trkpt>
      <trkpt lat="48.43682" lon="3.59847">
        <ele>187.27</ele>
        <time>2014-09-20T14:55:16Z</time>
      </trkpt>
      <trkpt lat="48.43687" lon="3.59842">
        <ele>186.96</ele>
        <time>2014-09-20T14:55:17Z</time>
      </trkpt>
      <trkpt lat="48.43693" lon="3.59836">
        <ele>186.63</ele>
        <time>2014-09-20T14:55:18Z</time>
      </trkpt>
      <trkpt lat="48.43698" lon="3.59831">
        <ele>186.25</ele>
        <time>2014-09-20T14:55:19Z</time>
      </trkpt>
      <trkpt lat="48.43704" lon="3.59826">
        <ele>185.87</ele>
        <time>2014-09-20T14:55:20Z</time>
      </trkpt>
      <trkpt lat="48.4371" lon="3.59821">
        <ele>185.46</ele>
        <time>2014-09-20T14:55:21Z</time>
      </trkpt>
      <trkpt lat="48.43716" lon="3.59815">
        <ele>185.03</ele>
        <time>2014-09-20T14:55:22Z</time>
      </trkpt>
      <trkpt lat="48.43722" lon="3.59808">
        <ele>184.48</ele>
        <time>2014-09-20T14:55:23Z</time>
      </trkpt>
      <trkpt lat="48.43729" lon="3.59801">
        <ele>183.84</ele>
        <time>2014-09-20T14:55:24Z</time>
      </trkpt>
      <trkpt lat="48.43735" lon="3.59793">
        <ele>183.11</ele>
        <time>2014-09-20T14:55:25Z</time>
      </trkpt>
      <trkpt lat="48.43741" lon="3.59785">
        <ele>182.39</ele>
        <time>2014-09-20T14:55:26Z</time>
      </trkpt>
      <trkpt lat="48.43747" lon="3.59777">
        <ele>181.6</ele>
        <time>2014-09-20T14:55:27Z</time>
      </trkpt>
      <trkpt lat="48.43753" lon="3.59767">
        <ele>180.93</ele>
        <time>2014-09-20T14:55:28Z</time>
      </trkpt>
      <trkpt lat="48.43759" lon="3.59759">
        <ele>180.28</ele>
        <time>2014-09-20T14:55:29Z</time>
      </trkpt>
      <trkpt lat="48.43765" lon="3.59752">
        <ele>179.74</ele>
        <time>2014-09-20T14:55:30Z</time>
      </trkpt>
      <trkpt lat="48.4377" lon="3.59743">
        <ele>179.16</ele>
        <time>2014-09-20T14:55:31Z</time>
      </trkpt>
      <trkpt lat="48.43776" lon="3.59734">
        <ele>178.63</ele>
        <time>2014-09-20T14:55:32Z</time>
      </trkpt>
      <trkpt lat="48.43782" lon="3.59725">
        <ele>178</ele>
        <time>2014-09-20T14:55:33Z</time>
      </trkpt>
      <trkpt lat="48.43788" lon="3.59718">
        <ele>177.21</ele>
        <time>2014-09-20T14:55:34Z</time>
      </trkpt>
      <trkpt lat="48.43796" lon="3.59711">
        <ele>176.36</ele>
        <time>2014-09-20T14:55:35Z</time>
      </trkpt>
      <trkpt lat="48.43803" lon="3.59703">
        <ele>175.43</ele>
        <time>2014-09-20T14:55:36Z</time>
      </trkpt>
      <trkpt lat="48.4381" lon="3.59696">
        <ele>174.55</ele>
        <time>2014-09-20T14:55:37Z</time>
      </trkpt>
      <trkpt lat="48.43817" lon="3.59689">
        <ele>173.8</ele>
        <time>2014-09-20T14:55:38Z</time>
      </trkpt>
      <trkpt lat="48.43825" lon="3.59682">
        <ele>173.13</ele>
        <time>2014-09-20T14:55:39Z</time>
      </trkpt>
      <trkpt lat="48.43831" lon="3.59674">
        <ele>172.58</ele>
        <time>2014-09-20T14:55:40Z</time>
      </trkpt>
      <trkpt lat="48.43838" lon="3.59666">
        <ele>172.09</ele>
        <time>2014-09-20T14:55:41Z</time>
      </trkpt>
      <trkpt lat="48.43844" lon="3.59657">
        <ele>171.65</ele>
        <time>2014-09-20T14:55:42Z</time>
      </trkpt>
      <trkpt lat="48.43849" lon="3.59649">
        <ele>171.25</ele>
        <time>2014-09-20T14:55:43Z</time>
      </trkpt>
      <trkpt lat="48.43856" lon="3.59642">
        <ele>170.89</ele>
        <time>2014-09-20T14:55:44Z</time>
      </trkpt>
      <trkpt lat="48.43862" lon="3.59637">
        <ele>170.4</ele>
        <time>2014-09-20T14:55:45Z</time>
      </trkpt>
      <trkpt lat="48.43868" lon="3.59631">
        <ele>169.93</ele>
        <time>2014-09-20T14:55:46Z</time>
      </trkpt>
      <trkpt lat="48.43875" lon="3.59625">
        <ele>169.56</ele>
        <time>2014-09-20T14:55:47Z</time>
      </trkpt>
      <trkpt lat="48.43881" lon="3.59619">
        <ele>169.15</ele>
        <time>2014-09-20T14:55:48Z</time>
      </trkpt>
      <trkpt lat="48.43888" lon="3.59613">
        <ele>168.74</ele>
        <time>2014-09-20T14:55:49Z</time>
      </trkpt>
      <trkpt lat="48.43894" lon="3.59607">
        <ele>168.39</ele>
        <time>2014-09-20T14:55:50Z</time>
      </trkpt>
      <trkpt lat="48.439" lon="3.59602">
        <ele>168.15</ele>
        <time>2014-09-20T14:55:51Z</time>
      </trkpt>
      <trkpt lat="48.43908" lon="3.59598">
        <ele>167.97</ele>
        <time>2014-09-20T14:55:52Z</time>
      </trkpt>
      <trkpt lat="48.43914" lon="3.59592">
        <ele>167.78</ele>
        <time>2014-09-20T14:55:53Z</time>
      </trkpt>
      <trkpt lat="48.43921" lon="3.59587">
        <ele>167.57</ele>
        <time>2014-09-20T14:55:54Z</time>
      </trkpt>
      <trkpt lat="48.43927" lon="3.59582">
        <ele>167.31</ele>
        <time>2014-09-20T14:55:55Z</time>
      </trkpt>
      <trkpt lat="48.43934" lon="3.59577">
        <ele>167.06</ele>
        <time>2014-09-20T14:55:56Z</time>
      </trkpt>
      <trkpt lat="48.4394" lon="3.59571">
        <ele>166.78</ele>
        <time>2014-09-20T14:55:57Z</time>
      </trkpt>
      <trkpt lat="48.43947" lon="3.59565">
        <ele>166.32</ele>
        <time>2014-09-20T14:55:58Z</time>
      </trkpt>
      <trkpt lat="48.43953" lon="3.59558">
        <ele>165.84</ele>
        <time>2014-09-20T14:55:59Z</time>
      </trkpt>
      <trkpt lat="48.43959" lon="3.59553">
        <ele>165.47</ele>
        <time>2014-09-20T14:56:00Z</time>
      </trkpt>
      <trkpt lat="48.43966" lon="3.59548">
        <ele>165.21</ele>
        <time>2014-09-20T14:56:01Z</time>
      </trkpt>
      <trkpt lat="48.43972" lon="3.59543">
        <ele>164.94</ele>
        <time>2014-09-20T14:56:02Z</time>
      </trkpt>
      <trkpt lat="48.43979" lon="3.59538">
        <ele>164.56</ele>
        <time>2014-09-20T14:56:03Z</time>
      </trkpt>
      <trkpt lat="48.43985" lon="3.59534">
        <ele>164.25</ele>
        <time>2014-09-20T14:56:04Z</time>
      </trkpt>
      <trkpt lat="48.43991" lon="3.5953">
        <ele>163.95</ele>
        <time>2014-09-20T14:56:05Z</time>
      </trkpt>
      <trkpt lat="48.43996" lon="3.59526">
        <ele>163.67</ele>
        <time>2014-09-20T14:56:06Z</time>
      </trkpt>
      <trkpt lat="48.44002" lon="3.59522">
        <ele>163.41</ele>
        <time>2014-09-20T14:56:07Z</time>
      </trkpt>
      <trkpt lat="48.44007" lon="3.5952">
        <ele>163.21</ele>
        <time>2014-09-20T14:56:08Z</time>
      </trkpt>
      <trkpt lat="48.44012" lon="3.59518">
        <ele>163.04</ele>
        <time>2014-09-20T14:56:09Z</time>
      </trkpt>
      <trkpt lat="48.44017" lon="3.59516">
        <ele>162.89</ele>
        <time>2014-09-20T14:56:10Z</time>
      </trkpt>
      <trkpt lat="48.44022" lon="3.59514">
        <ele>162.72</ele>
        <time>2014-09-20T14:56:11Z</time>
      </trkpt>
      <trkpt lat="48.44027" lon="3.59511">
        <ele>162.5</ele>
        <time>2014-09-20T14:56:12Z</time>
      </trkpt>
      <trkpt lat="48.44035" lon="3.59506">
        <ele>162.22</ele>
        <time>2014-09-20T14:56:14Z</time>
      </trkpt>
      <trkpt lat="48.44043" lon="3.59503">
        <ele>162.03</ele>
        <time>2014-09-20T14:56:16Z</time>
      </trkpt>
      <trkpt lat="48.44051" lon="3.59497">
        <ele>161.94</ele>
        <time>2014-09-20T14:56:18Z</time>
      </trkpt>
      <trkpt lat="48.44055" lon="3.59493">
        <ele>161.91</ele>
        <time>2014-09-20T14:56:19Z</time>
      </trkpt>
      <trkpt lat="48.44062" lon="3.59485">
        <ele>161.74</ele>
        <time>2014-09-20T14:56:21Z</time>
      </trkpt>
      <trkpt lat="48.44066" lon="3.59481">
        <ele>161.69</ele>
        <time>2014-09-20T14:56:22Z</time>
      </trkpt>
      <trkpt lat="48.44071" lon="3.59477">
        <ele>161.6</ele>
        <time>2014-09-20T14:56:23Z</time>
      </trkpt>
      <trkpt lat="48.44075" lon="3.59472">
        <ele>161.51</ele>
        <time>2014-09-20T14:56:24Z</time>
      </trkpt>
      <trkpt lat="48.4408" lon="3.59467">
        <ele>161.46</ele>
        <time>2014-09-20T14:56:25Z</time>
      </trkpt>
      <trkpt lat="48.44085" lon="3.59462">
        <ele>161.43</ele>
        <time>2014-09-20T14:56:26Z</time>
      </trkpt>
      <trkpt lat="48.4409" lon="3.59458">
        <ele>161.33</ele>
        <time>2014-09-20T14:56:27Z</time>
      </trkpt>
      <trkpt lat="48.44095" lon="3.59453">
        <ele>161.23</ele>
        <time>2014-09-20T14:56:28Z</time>
      </trkpt>
      <trkpt lat="48.441" lon="3.59448">
        <ele>161.13</ele>
        <time>2014-09-20T14:56:29Z</time>
      </trkpt>
      <trkpt lat="48.44105" lon="3.59443">
        <ele>160.98</ele>
        <time>2014-09-20T14:56:30Z</time>
      </trkpt>
      <trkpt lat="48.4411" lon="3.59438">
        <ele>160.87</ele>
        <time>2014-09-20T14:56:31Z</time>
      </trkpt>
      <trkpt lat="48.44115" lon="3.59433">
        <ele>160.76</ele>
        <time>2014-09-20T14:56:32Z</time>
      </trkpt>
      <trkpt lat="48.44121" lon="3.59427">
        <ele>160.62</ele>
        <time>2014-09-20T14:56:33Z</time>
      </trkpt>
      <trkpt lat="48.44126" lon="3.59422">
        <ele>160.5</ele>
        <time>2014-09-20T14:56:34Z</time>
      </trkpt>
      <trkpt lat="48.44131" lon="3.59416">
        <ele>160.33</ele>
        <time>2014-09-20T14:56:35Z</time>
      </trkpt>
      <trkpt lat="48.44137" lon="3.59409">
        <ele>160.13</ele>
        <time>2014-09-20T14:56:36Z</time>
      </trkpt>
      <trkpt lat="48.44141" lon="3.59402">
        <ele>159.83</ele>
        <time>2014-09-20T14:56:37Z</time>
      </trkpt>
      <trkpt lat="48.44147" lon="3.59396">
        <ele>159.5</ele>
        <time>2014-09-20T14:56:38Z</time>
      </trkpt>
      <trkpt lat="48.44152" lon="3.59389">
        <ele>159.21</ele>
        <time>2014-09-20T14:56:39Z</time>
      </trkpt>
      <trkpt lat="48.44157" lon="3.59382">
        <ele>158.99</ele>
        <time>2014-09-20T14:56:40Z</time>
      </trkpt>
      <trkpt lat="48.44162" lon="3.59375">
        <ele>158.85</ele>
        <time>2014-09-20T14:56:41Z</time>
      </trkpt>
      <trkpt lat="48.44168" lon="3.59368">
        <ele>158.77</ele>
        <time>2014-09-20T14:56:42Z</time>
      </trkpt>
      <trkpt lat="48.44173" lon="3.59362">
        <ele>158.71</ele>
        <time>2014-09-20T14:56:43Z</time>
      </trkpt>
      <trkpt lat="48.44179" lon="3.59356">
        <ele>158.71</ele>
        <time>2014-09-20T14:56:44Z</time>
      </trkpt>
      <trkpt lat="48.44185" lon="3.5935">
        <ele>158.67</ele>
        <time>2014-09-20T14:56:45Z</time>
      </trkpt>
      <trkpt lat="48.4419" lon="3.59343">
        <ele>158.66</ele>
        <time>2014-09-20T14:56:46Z</time>
      </trkpt>
      <trkpt lat="48.44196" lon="3.59335">
        <ele>158.58</ele>
        <time>2014-09-20T14:56:47Z</time>
      </trkpt>
      <trkpt lat="48.44203" lon="3.59328">
        <ele>158.41</ele>
        <time>2014-09-20T14:56:48Z</time>
      </trkpt>
      <trkpt lat="48.4421" lon="3.59321">
        <ele>158.27</ele>
        <time>2014-09-20T14:56:49Z</time>
      </trkpt>
      <trkpt lat="48.44216" lon="3.59314">
        <ele>158.06</ele>
        <time>2014-09-20T14:56:50Z</time>
      </trkpt>
      <trkpt lat="48.44222" lon="3.59306">
        <ele>157.72</ele>
        <time>2014-09-20T14:56:51Z</time>
      </trkpt>
      <trkpt lat="48.44228" lon="3.59299">
        <ele>157.38</ele>
        <time>2014-09-20T14:56:52Z</time>
      </trkpt>
      <trkpt lat="48.44235" lon="3.59291">
        <ele>157.04</ele>
        <time>2014-09-20T14:56:53Z</time>
      </trkpt>
      <trkpt lat="48.44242" lon="3.59283">
        <ele>156.61</ele>
        <time>2014-09-20T14:56:54Z</time>
      </trkpt>
      <trkpt lat="48.44248" lon="3.59275">
        <ele>156.17</ele>
        <time>2014-09-20T14:56:55Z</time>
      </trkpt>
      <trkpt lat="48.44254" lon="3.59268">
        <ele>155.68</ele>
        <time>2014-09-20T14:56:56Z</time>
      </trkpt>
      <trkpt lat="48.44262" lon="3.59262">
        <ele>155.22</ele>
        <time>2014-09-20T14:56:57Z</time>
      </trkpt>
      <trkpt lat="48.44271" lon="3.59258">
        <ele>154.7</ele>
        <time>2014-09-20T14:56:58Z</time>
      </trkpt>
      <trkpt lat="48.44279" lon="3.59254">
        <ele>154.2</ele>
        <time>2014-09-20T14:56:59Z</time>
      </trkpt>
      <trkpt lat="48.44288" lon="3.5925">
        <ele>153.63</ele>
        <time>2014-09-20T14:57:00Z</time>
      </trkpt>
      <trkpt lat="48.44297" lon="3.59246">
        <ele>153.21</ele>
        <time>2014-09-20T14:57:01Z</time>
      </trkpt>
      <trkpt lat="48.44306" lon="3.59241">
        <ele>152.86</ele>
        <time>2014-09-20T14:57:02Z</time>
      </trkpt>
      <trkpt lat="48.44314" lon="3.59234">
        <ele>152.53</ele>
        <time>2014-09-20T14:57:03Z</time>
      </trkpt>
      <trkpt lat="48.44322" lon="3.59227">
        <ele>152.2</ele>
        <time>2014-09-20T14:57:04Z</time>
      </trkpt>
      <trkpt lat="48.4433" lon="3.59221">
        <ele>151.83</ele>
        <time>2014-09-20T14:57:05Z</time>
      </trkpt>
      <trkpt lat="48.44339" lon="3.59214">
        <ele>151.41</ele>
        <time>2014-09-20T14:57:06Z</time>
      </trkpt>
      <trkpt lat="48.44347" lon="3.59208">
        <ele>151.01</ele>
        <time>2014-09-20T14:57:07Z</time>
      </trkpt>
      <trkpt lat="48.44354" lon="3.59201">
        <ele>150.64</ele>
        <time>2014-09-20T14:57:08Z</time>
      </trkpt>
      <trkpt lat="48.44362" lon="3.59194">
        <ele>150.21</ele>
        <time>2014-09-20T14:57:09Z</time>
      </trkpt>
      <trkpt lat="48.44369" lon="3.59186">
        <ele>149.72</ele>
        <time>2014-09-20T14:57:10Z</time>
      </trkpt>
      <trkpt lat="48.44376" lon="3.59178">
        <ele>149.09</ele>
        <time>2014-09-20T14:57:11Z</time>
      </trkpt>
      <trkpt lat="48.44384" lon="3.59171">
        <ele>148.55</ele>
        <time>2014-09-20T14:57:12Z</time>
      </trkpt>
      <trkpt lat="48.44392" lon="3.59163">
        <ele>147.95</ele>
        <time>2014-09-20T14:57:13Z</time>
      </trkpt>
      <trkpt lat="48.444" lon="3.59156">
        <ele>147.42</ele>
        <time>2014-09-20T14:57:14Z</time>
      </trkpt>
      <trkpt lat="48.44408" lon="3.59148">
        <ele>146.87</ele>
        <time>2014-09-20T14:57:15Z</time>
      </trkpt>
      <trkpt lat="48.44416" lon="3.59141">
        <ele>146.33</ele>
        <time>2014-09-20T14:57:16Z</time>
      </trkpt>
      <trkpt lat="48.44424" lon="3.59135">
        <ele>145.81</ele>
        <time>2014-09-20T14:57:17Z</time>
      </trkpt>
      <trkpt lat="48.44432" lon="3.59128">
        <ele>145.24</ele>
        <time>2014-09-20T14:57:18Z</time>
      </trkpt>
      <trkpt lat="48.44441" lon="3.5912">
        <ele>144.79</ele>
        <time>2014-09-20T14:57:19Z</time>
      </trkpt>
      <trkpt lat="48.44449" lon="3.59113">
        <ele>144.37</ele>
        <time>2014-09-20T14:57:20Z</time>
      </trkpt>
      <trkpt lat="48.44459" lon="3.59107">
        <ele>143.91</ele>
        <time>2014-09-20T14:57:21Z</time>
      </trkpt>
      <trkpt lat="48.44469" lon="3.59102">
        <ele>143.31</ele>
        <time>2014-09-20T14:57:22Z</time>
      </trkpt>
      <trkpt lat="48.44479" lon="3.59097">
        <ele>142.79</ele>
        <time>2014-09-20T14:57:23Z</time>
      </trkpt>
      <trkpt lat="48.4449" lon="3.59091">
        <ele>142.28</ele>
        <time>2014-09-20T14:57:24Z</time>
      </trkpt>
      <trkpt lat="48.445" lon="3.59084">
        <ele>141.89</ele>
        <time>2014-09-20T14:57:25Z</time>
      </trkpt>
      <trkpt lat="48.44509" lon="3.59077">
        <ele>141.47</ele>
        <time>2014-09-20T14:57:26Z</time>
      </trkpt>
      <trkpt lat="48.44519" lon="3.59071">
        <ele>141.01</ele>
        <time>2014-09-20T14:57:27Z</time>
      </trkpt>
      <trkpt lat="48.44528" lon="3.59066">
        <ele>140.47</ele>
        <time>2014-09-20T14:57:28Z</time>
      </trkpt>
      <trkpt lat="48.44538" lon="3.5906">
        <ele>139.88</ele>
        <time>2014-09-20T14:57:29Z</time>
      </trkpt>
      <trkpt lat="48.44547" lon="3.59054">
        <ele>139.17</ele>
        <time>2014-09-20T14:57:30Z</time>
      </trkpt>
      <trkpt lat="48.44557" lon="3.59049">
        <ele>138.46</ele>
        <time>2014-09-20T14:57:31Z</time>
      </trkpt>
      <trkpt lat="48.44566" lon="3.59043">
        <ele>137.8</ele>
        <time>2014-09-20T14:57:32Z</time>
      </trkpt>
      <trkpt lat="48.44575" lon="3.59036">
        <ele>136.98</ele>
        <time>2014-09-20T14:57:33Z</time>
      </trkpt>
      <trkpt lat="48.44584" lon="3.59029">
        <ele>136.29</ele>
        <time>2014-09-20T14:57:34Z</time>
      </trkpt>
      <trkpt lat="48.44592" lon="3.59022">
        <ele>135.73</ele>
        <time>2014-09-20T14:57:35Z</time>
      </trkpt>
      <trkpt lat="48.44601" lon="3.59015">
        <ele>135.33</ele>
        <time>2014-09-20T14:57:36Z</time>
      </trkpt>
      <trkpt lat="48.44608" lon="3.59008">
        <ele>134.95</ele>
        <time>2014-09-20T14:57:37Z</time>
      </trkpt>
      <trkpt lat="48.44616" lon="3.59001">
        <ele>134.3</ele>
        <time>2014-09-20T14:57:38Z</time>
      </trkpt>
      <trkpt lat="48.44623" lon="3.58994">
        <ele>133.83</ele>
        <time>2014-09-20T14:57:39Z</time>
      </trkpt>
      <trkpt lat="48.4463" lon="3.58988">
        <ele>133.38</ele>
        <time>2014-09-20T14:57:40Z</time>
      </trkpt>
      <trkpt lat="48.44637" lon="3.58981">
        <ele>132.97</ele>
        <time>2014-09-20T14:57:41Z</time>
      </trkpt>
      <trkpt lat="48.44644" lon="3.58973">
        <ele>132.68</ele>
        <time>2014-09-20T14:57:42Z</time>
      </trkpt>
      <trkpt lat="48.4465" lon="3.58965">
        <ele>132.44</ele>
        <time>2014-09-20T14:57:43Z</time>
      </trkpt>
      <trkpt lat="48.44655" lon="3.58957">
        <ele>132.29</ele>
        <time>2014-09-20T14:57:44Z</time>
      </trkpt>
      <trkpt lat="48.4466" lon="3.58949">
        <ele>132.12</ele>
        <time>2014-09-20T14:57:45Z</time>
      </trkpt>
      <trkpt lat="48.44664" lon="3.58941">
        <ele>132.15</ele>
        <time>2014-09-20T14:57:46Z</time>
      </trkpt>
      <trkpt lat="48.44668" lon="3.58933">
        <ele>132.24</ele>
        <time>2014-09-20T14:57:47Z</time>
      </trkpt>
      <trkpt lat="48.44672" lon="3.58926">
        <ele>132.34</ele>
        <time>2014-09-20T14:57:48Z</time>
      </trkpt>
      <trkpt lat="48.44676" lon="3.5892">
        <ele>132.39</ele>
        <time>2014-09-20T14:57:49Z</time>
      </trkpt>
      <trkpt lat="48.4468" lon="3.58914">
        <ele>132.45</ele>
        <time>2014-09-20T14:57:50Z</time>
      </trkpt>
      <trkpt lat="48.44683" lon="3.58908">
        <ele>132.47</ele>
        <time>2014-09-20T14:57:51Z</time>
      </trkpt>
      <trkpt lat="48.44685" lon="3.58902">
        <ele>132.51</ele>
        <time>2014-09-20T14:57:52Z</time>
      </trkpt>
      <trkpt lat="48.44688" lon="3.58897">
        <ele>132.46</ele>
        <time>2014-09-20T14:57:53Z</time>
      </trkpt>
      <trkpt lat="48.44694" lon="3.58887">
        <ele>132.36</ele>
        <time>2014-09-20T14:57:55Z</time>
      </trkpt>
      <trkpt lat="48.447" lon="3.5888">
        <ele>132.36</ele>
        <time>2014-09-20T14:57:57Z</time>
      </trkpt>
      <trkpt lat="48.44707" lon="3.58876">
        <ele>132.49</ele>
        <time>2014-09-20T14:57:59Z</time>
      </trkpt>
      <trkpt lat="48.44713" lon="3.58877">
        <ele>132.64</ele>
        <time>2014-09-20T14:58:01Z</time>
      </trkpt>
      <trkpt lat="48.44719" lon="3.58879">
        <ele>132.68</ele>
        <time>2014-09-20T14:58:03Z</time>
      </trkpt>
      <trkpt lat="48.44724" lon="3.58881">
        <ele>132.76</ele>
        <time>2014-09-20T14:58:05Z</time>
      </trkpt>
      <trkpt lat="48.4473" lon="3.58882">
        <ele>132.79</ele>
        <time>2014-09-20T14:58:07Z</time>
      </trkpt>
      <trkpt lat="48.44735" lon="3.58882">
        <ele>132.99</ele>
        <time>2014-09-20T14:58:09Z</time>
      </trkpt>
      <trkpt lat="48.4474" lon="3.58883">
        <ele>133.33</ele>
        <time>2014-09-20T14:58:11Z</time>
      </trkpt>
      <trkpt lat="48.44745" lon="3.58884">
        <ele>133.63</ele>
        <time>2014-09-20T14:58:13Z</time>
      </trkpt>
      <trkpt lat="48.44751" lon="3.58885">
        <ele>134.16</ele>
        <time>2014-09-20T14:58:16Z</time>
      </trkpt>
      <trkpt lat="48.44756" lon="3.58886">
        <ele>134.88</ele>
        <time>2014-09-20T14:58:19Z</time>
      </trkpt>
      <trkpt lat="48.44762" lon="3.58885">
        <ele>135.45</ele>
        <time>2014-09-20T14:58:22Z</time>
      </trkpt>
      <trkpt lat="48.44766" lon="3.58886">
        <ele>135.99</ele>
        <time>2014-09-20T14:58:24Z</time>
      </trkpt>
      <trkpt lat="48.44773" lon="3.58886">
        <ele>137.06</ele>
        <time>2014-09-20T14:58:27Z</time>
      </trkpt>
      <trkpt lat="48.44778" lon="3.58885">
        <ele>137.84</ele>
        <time>2014-09-20T14:58:29Z</time>
      </trkpt>
      <trkpt lat="48.44784" lon="3.58882">
        <ele>138.96</ele>
        <time>2014-09-20T14:58:32Z</time>
      </trkpt>
      <trkpt lat="48.4479" lon="3.5888">
        <ele>139.88</ele>
        <time>2014-09-20T14:58:34Z</time>
      </trkpt>
      <trkpt lat="48.44796" lon="3.58879">
        <ele>140.53</ele>
        <time>2014-09-20T14:58:36Z</time>
      </trkpt>
      <trkpt lat="48.44804" lon="3.58879">
        <ele>140.84</ele>
        <time>2014-09-20T14:58:38Z</time>
      </trkpt>
      <trkpt lat="48.44813" lon="3.58878">
        <ele>141.33</ele>
        <time>2014-09-20T14:58:40Z</time>
      </trkpt>
      <trkpt lat="48.44822" lon="3.58878">
        <ele>141.95</ele>
        <time>2014-09-20T14:58:42Z</time>
      </trkpt>
      <trkpt lat="48.44831" lon="3.5888">
        <ele>142.13</ele>
        <time>2014-09-20T14:58:44Z</time>
      </trkpt>
      <trkpt lat="48.44836" lon="3.58881">
        <ele>142.1</ele>
        <time>2014-09-20T14:58:45Z</time>
      </trkpt>
      <trkpt lat="48.44842" lon="3.58882">
        <ele>142.16</ele>
        <time>2014-09-20T14:58:46Z</time>
      </trkpt>
      <trkpt lat="48.44847" lon="3.58883">
        <ele>142.18</ele>
        <time>2014-09-20T14:58:47Z</time>
      </trkpt>
      <trkpt lat="48.44852" lon="3.58883">
        <ele>142.26</ele>
        <time>2014-09-20T14:58:48Z</time>
      </trkpt>
      <trkpt lat="48.44858" lon="3.58885">
        <ele>142.28</ele>
        <time>2014-09-20T14:58:49Z</time>
      </trkpt>
      <trkpt lat="48.44864" lon="3.58886">
        <ele>142.27</ele>
        <time>2014-09-20T14:58:50Z</time>
      </trkpt>
      <trkpt lat="48.4487" lon="3.58887">
        <ele>142.18</ele>
        <time>2014-09-20T14:58:51Z</time>
      </trkpt>
      <trkpt lat="48.44876" lon="3.58888">
        <ele>142.09</ele>
        <time>2014-09-20T14:58:52Z</time>
      </trkpt>
      <trkpt lat="48.44882" lon="3.58889">
        <ele>142.08</ele>
        <time>2014-09-20T14:58:53Z</time>
      </trkpt>
      <trkpt lat="48.44888" lon="3.5889">
        <ele>142.04</ele>
        <time>2014-09-20T14:58:54Z</time>
      </trkpt>
      <trkpt lat="48.44895" lon="3.58891">
        <ele>142.01</ele>
        <time>2014-09-20T14:58:55Z</time>
      </trkpt>
      <trkpt lat="48.44901" lon="3.58892">
        <ele>141.87</ele>
        <time>2014-09-20T14:58:56Z</time>
      </trkpt>
      <trkpt lat="48.44908" lon="3.58893">
        <ele>141.71</ele>
        <time>2014-09-20T14:58:57Z</time>
      </trkpt>
      <trkpt lat="48.44915" lon="3.58894">
        <ele>141.54</ele>
        <time>2014-09-20T14:58:58Z</time>
      </trkpt>
      <trkpt lat="48.44921" lon="3.58895">
        <ele>141.38</ele>
        <time>2014-09-20T14:58:59Z</time>
      </trkpt>
      <trkpt lat="48.44927" lon="3.58896">
        <ele>141.25</ele>
        <time>2014-09-20T14:59:00Z</time>
      </trkpt>
      <trkpt lat="48.44934" lon="3.58897">
        <ele>141.12</ele>
        <time>2014-09-20T14:59:01Z</time>
      </trkpt>
      <trkpt lat="48.44941" lon="3.58898">
        <ele>140.87</ele>
        <time>2014-09-20T14:59:02Z</time>
      </trkpt>
      <trkpt lat="48.44948" lon="3.58899">
        <ele>140.61</ele>
        <time>2014-09-20T14:59:03Z</time>
      </trkpt>
      <trkpt lat="48.44954" lon="3.589">
        <ele>140.29</ele>
        <time>2014-09-20T14:59:04Z</time>
      </trkpt>
      <trkpt lat="48.44961" lon="3.58901">
        <ele>139.92</ele>
        <time>2014-09-20T14:59:05Z</time>
      </trkpt>
      <trkpt lat="48.44968" lon="3.58902">
        <ele>139.57</ele>
        <time>2014-09-20T14:59:06Z</time>
      </trkpt>
      <trkpt lat="48.44974" lon="3.58902">
        <ele>139.24</ele>
        <time>2014-09-20T14:59:07Z</time>
      </trkpt>
      <trkpt lat="48.44981" lon="3.58902">
        <ele>138.91</ele>
        <time>2014-09-20T14:59:08Z</time>
      </trkpt>
      <trkpt lat="48.44988" lon="3.58903">
        <ele>138.61</ele>
        <time>2014-09-20T14:59:09Z</time>
      </trkpt>
      <trkpt lat="48.44994" lon="3.58904">
        <ele>138.32</ele>
        <time>2014-09-20T14:59:10Z</time>
      </trkpt>
      <trkpt lat="48.45002" lon="3.58905">
        <ele>137.97</ele>
        <time>2014-09-20T14:59:11Z</time>
      </trkpt>
      <trkpt lat="48.4501" lon="3.58907">
        <ele>137.63</ele>
        <time>2014-09-20T14:59:12Z</time>
      </trkpt>
      <trkpt lat="48.45018" lon="3.58908">
        <ele>137.23</ele>
        <time>2014-09-20T14:59:13Z</time>
      </trkpt>
      <trkpt lat="48.45025" lon="3.58909">
        <ele>136.78</ele>
        <time>2014-09-20T14:59:14Z</time>
      </trkpt>
      <trkpt lat="48.45033" lon="3.5891">
        <ele>136.37</ele>
        <time>2014-09-20T14:59:15Z</time>
      </trkpt>
      <trkpt lat="48.45041" lon="3.58909">
        <ele>135.93</ele>
        <time>2014-09-20T14:59:16Z</time>
      </trkpt>
      <trkpt lat="48.4505" lon="3.58909">
        <ele>135.51</ele>
        <time>2014-09-20T14:59:17Z</time>
      </trkpt>
      <trkpt lat="48.45059" lon="3.58909">
        <ele>135.09</ele>
        <time>2014-09-20T14:59:18Z</time>
      </trkpt>
      <trkpt lat="48.45067" lon="3.5891">
        <ele>134.72</ele>
        <time>2014-09-20T14:59:19Z</time>
      </trkpt>
      <trkpt lat="48.45075" lon="3.58911">
        <ele>134.37</ele>
        <time>2014-09-20T14:59:20Z</time>
      </trkpt>
      <trkpt lat="48.45083" lon="3.58911">
        <ele>134.11</ele>
        <time>2014-09-20T14:59:21Z</time>
      </trkpt>
      <trkpt lat="48.45091" lon="3.58912">
        <ele>133.79</ele>
        <time>2014-09-20T14:59:22Z</time>
      </trkpt>
      <trkpt lat="48.45098" lon="3.58912">
        <ele>133.43</ele>
        <time>2014-09-20T14:59:23Z</time>
      </trkpt>
      <trkpt lat="48.45105" lon="3.58913">
        <ele>133.03</ele>
        <time>2014-09-20T14:59:24Z</time>
      </trkpt>
      <trkpt lat="48.45112" lon="3.58914">
        <ele>132.7</ele>
        <time>2014-09-20T14:59:25Z</time>
      </trkpt>
      <trkpt lat="48.45119" lon="3.58916">
        <ele>132.26</ele>
        <time>2014-09-20T14:59:26Z</time>
      </trkpt>
      <trkpt lat="48.45126" lon="3.58919">
        <ele>131.85</ele>
        <time>2014-09-20T14:59:27Z</time>
      </trkpt>
      <trkpt lat="48.45132" lon="3.58922">
        <ele>131.39</ele>
        <time>2014-09-20T14:59:28Z</time>
      </trkpt>
      <trkpt lat="48.45139" lon="3.58925">
        <ele>131</ele>
        <time>2014-09-20T14:59:29Z</time>
      </trkpt>
      <trkpt lat="48.45146" lon="3.58927">
        <ele>130.63</ele>
        <time>2014-09-20T14:59:30Z</time>
      </trkpt>
      <trkpt lat="48.45151" lon="3.58929">
        <ele>130.26</ele>
        <time>2014-09-20T14:59:31Z</time>
      </trkpt>
      <trkpt lat="48.45157" lon="3.5893">
        <ele>129.95</ele>
        <time>2014-09-20T14:59:32Z</time>
      </trkpt>
      <trkpt lat="48.45163" lon="3.5893">
        <ele>129.69</ele>
        <time>2014-09-20T14:59:33Z</time>
      </trkpt>
      <trkpt lat="48.4517" lon="3.58931">
        <ele>129.5</ele>
        <time>2014-09-20T14:59:34Z</time>
      </trkpt>
      <trkpt lat="48.45176" lon="3.58936">
        <ele>129.33</ele>
        <time>2014-09-20T14:59:35Z</time>
      </trkpt>
      <trkpt lat="48.45183" lon="3.58941">
        <ele>129.16</ele>
        <time>2014-09-20T14:59:36Z</time>
      </trkpt>
      <trkpt lat="48.45189" lon="3.58946">
        <ele>128.93</ele>
        <time>2014-09-20T14:59:37Z</time>
      </trkpt>
      <trkpt lat="48.45194" lon="3.58953">
        <ele>128.65</ele>
        <time>2014-09-20T14:59:38Z</time>
      </trkpt>
      <trkpt lat="48.452" lon="3.5896">
        <ele>128.35</ele>
        <time>2014-09-20T14:59:39Z</time>
      </trkpt>
      <trkpt lat="48.45206" lon="3.58966">
        <ele>128.02</ele>
        <time>2014-09-20T14:59:40Z</time>
      </trkpt>
      <trkpt lat="48.45212" lon="3.58973">
        <ele>127.67</ele>
        <time>2014-09-20T14:59:41Z</time>
      </trkpt>
      <trkpt lat="48.45217" lon="3.5898">
        <ele>127.28</ele>
        <time>2014-09-20T14:59:42Z</time>
      </trkpt>
      <trkpt lat="48.45223" lon="3.58987">
        <ele>126.94</ele>
        <time>2014-09-20T14:59:43Z</time>
      </trkpt>
      <trkpt lat="48.45229" lon="3.58994">
        <ele>126.59</ele>
        <time>2014-09-20T14:59:44Z</time>
      </trkpt>
      <trkpt lat="48.45235" lon="3.59001">
        <ele>126.3</ele>
        <time>2014-09-20T14:59:45Z</time>
      </trkpt>
      <trkpt lat="48.45241" lon="3.59009">
        <ele>125.98</ele>
        <time>2014-09-20T14:59:46Z</time>
      </trkpt>
      <trkpt lat="48.45247" lon="3.59016">
        <ele>125.67</ele>
        <time>2014-09-20T14:59:47Z</time>
      </trkpt>
      <trkpt lat="48.45253" lon="3.59023">
        <ele>125.36</ele>
        <time>2014-09-20T14:59:48Z</time>
      </trkpt>
      <trkpt lat="48.45259" lon="3.5903">
        <ele>125.03</ele>
        <time>2014-09-20T14:59:49Z</time>
      </trkpt>
      <trkpt lat="48.45265" lon="3.59038">
        <ele>124.68</ele>
        <time>2014-09-20T14:59:50Z</time>
      </trkpt>
      <trkpt lat="48.45271" lon="3.59045">
        <ele>124.39</ele>
        <time>2014-09-20T14:59:51Z</time>
      </trkpt>
      <trkpt lat="48.45277" lon="3.59053">
        <ele>124.1</ele>
        <time>2014-09-20T14:59:52Z</time>
      </trkpt>
      <trkpt lat="48.45284" lon="3.59061">
        <ele>123.83</ele>
        <time>2014-09-20T14:59:53Z</time>
      </trkpt>
      <trkpt lat="48.4529" lon="3.59069">
        <ele>123.51</ele>
        <time>2014-09-20T14:59:54Z</time>
      </trkpt>
      <trkpt lat="48.45296" lon="3.59078">
        <ele>123.16</ele>
        <time>2014-09-20T14:59:55Z</time>
      </trkpt>
      <trkpt lat="48.45302" lon="3.59087">
        <ele>122.8</ele>
        <time>2014-09-20T14:59:56Z</time>
      </trkpt>
      <trkpt lat="48.45308" lon="3.59096">
        <ele>122.48</ele>
        <time>2014-09-20T14:59:57Z</time>
      </trkpt>
      <trkpt lat="48.45314" lon="3.59105">
        <ele>122.15</ele>
        <time>2014-09-20T14:59:58Z</time>
      </trkpt>
      <trkpt lat="48.4532" lon="3.59114">
        <ele>121.77</ele>
        <time>2014-09-20T14:59:59Z</time>
      </trkpt>
      <trkpt lat="48.45327" lon="3.59124">
        <ele>121.41</ele>
        <time>2014-09-20T15:00:00Z</time>
      </trkpt>
      <trkpt lat="48.45334" lon="3.59134">
        <ele>120.99</ele>
        <time>2014-09-20T15:00:01Z</time>
      </trkpt>
      <trkpt lat="48.45341" lon="3.59144">
        <ele>120.57</ele>
        <time>2014-09-20T15:00:02Z</time>
      </trkpt>
      <trkpt lat="48.45348" lon="3.59154">
        <ele>120.14</ele>
        <time>2014-09-20T15:00:03Z</time>
      </trkpt>
      <trkpt lat="48.45354" lon="3.59164">
        <ele>119.71</ele>
        <time>2014-09-20T15:00:04Z</time>
      </trkpt>
      <trkpt lat="48.45361" lon="3.59174">
        <ele>119.26</ele>
        <time>2014-09-20T15:00:05Z</time>
      </trkpt>
      <trkpt lat="48.45368" lon="3.59185">
        <ele>118.85</ele>
        <time>2014-09-20T15:00:06Z</time>
      </trkpt>
      <trkpt lat="48.45375" lon="3.59195">
        <ele>118.52</ele>
        <time>2014-09-20T15:00:07Z</time>
      </trkpt>
      <trkpt lat="48.45382" lon="3.59204">
        <ele>118.22</ele>
        <time>2014-09-20T15:00:08Z</time>
      </trkpt>
      <trkpt lat="48.45388" lon="3.59212">
        <ele>117.93</ele>
        <time>2014-09-20T15:00:09Z</time>
      </trkpt>
      <trkpt lat="48.45395" lon="3.59215">
        <ele>117.7</ele>
        <time>2014-09-20T15:00:10Z</time>
      </trkpt>
      <trkpt lat="48.45402" lon="3.59212">
        <ele>117.53</ele>
        <time>2014-09-20T15:00:11Z</time>
      </trkpt>
      <trkpt lat="48.45406" lon="3.59205">
        <ele>117.31</ele>
        <time>2014-09-20T15:00:12Z</time>
      </trkpt>
      <trkpt lat="48.45407" lon="3.59196">
        <ele>116.99</ele>
        <time>2014-09-20T15:00:13Z</time>
      </trkpt>
      <trkpt lat="48.45407" lon="3.59187">
        <ele>116.65</ele>
        <time>2014-09-20T15:00:14Z</time>
      </trkpt>
      <trkpt lat="48.45406" lon="3.5918">
        <ele>116.37</ele>
        <time>2014-09-20T15:00:15Z</time>
      </trkpt>
      <trkpt lat="48.45406" lon="3.59172">
        <ele>116.13</ele>
        <time>2014-09-20T15:00:16Z</time>
      </trkpt>
      <trkpt lat="48.45405" lon="3.59165">
        <ele>115.96</ele>
        <time>2014-09-20T15:00:17Z</time>
      </trkpt>
      <trkpt lat="48.45405" lon="3.59158">
        <ele>115.85</ele>
        <time>2014-09-20T15:00:18Z</time>
      </trkpt>
      <trkpt lat="48.45404" lon="3.59151">
        <ele>115.79</ele>
        <time>2014-09-20T15:00:19Z</time>
      </trkpt>
      <trkpt lat="48.45403" lon="3.59138">
        <ele>115.77</ele>
        <time>2014-09-20T15:00:21Z</time>
      </trkpt>
      <trkpt lat="48.45402" lon="3.59126">
        <ele>115.82</ele>
        <time>2014-09-20T15:00:23Z</time>
      </trkpt>
      <trkpt lat="48.45401" lon="3.59113">
        <ele>115.95</ele>
        <time>2014-09-20T15:00:25Z</time>
      </trkpt>
      <trkpt lat="48.454" lon="3.59101">
        <ele>116.14</ele>
        <time>2014-09-20T15:00:27Z</time>
      </trkpt>
      <trkpt lat="48.45399" lon="3.59091">
        <ele>116.38</ele>
        <time>2014-09-20T15:00:29Z</time>
      </trkpt>
      <trkpt lat="48.45398" lon="3.59082">
        <ele>116.6</ele>
        <time>2014-09-20T15:00:31Z</time>
      </trkpt>
      <trkpt lat="48.45397" lon="3.59071">
        <ele>116.86</ele>
        <time>2014-09-20T15:00:33Z</time>
      </trkpt>
      <trkpt lat="48.45397" lon="3.59059">
        <ele>117.09</ele>
        <time>2014-09-20T15:00:35Z</time>
      </trkpt>
      <trkpt lat="48.45397" lon="3.59049">
        <ele>117.31</ele>
        <time>2014-09-20T15:00:37Z</time>
      </trkpt>
      <trkpt lat="48.45397" lon="3.5904">
        <ele>117.52</ele>
        <time>2014-09-20T15:00:39Z</time>
      </trkpt>
      <trkpt lat="48.45398" lon="3.5903">
        <ele>117.68</ele>
        <time>2014-09-20T15:00:41Z</time>
      </trkpt>
      <trkpt lat="48.45399" lon="3.59021">
        <ele>117.81</ele>
        <time>2014-09-20T15:00:43Z</time>
      </trkpt>
      <trkpt lat="48.454" lon="3.59012">
        <ele>117.93</ele>
        <time>2014-09-20T15:00:45Z</time>
      </trkpt>
      <trkpt lat="48.45401" lon="3.59002">
        <ele>118.04</ele>
        <time>2014-09-20T15:00:47Z</time>
      </trkpt>
      <trkpt lat="48.45402" lon="3.58993">
        <ele>118.08</ele>
        <time>2014-09-20T15:00:49Z</time>
      </trkpt>
      <trkpt lat="48.45403" lon="3.58983">
        <ele>118.14</ele>
        <time>2014-09-20T15:00:51Z</time>
      </trkpt>
      <trkpt lat="48.45404" lon="3.58974">
        <ele>118.25</ele>
        <time>2014-09-20T15:00:53Z</time>
      </trkpt>
      <trkpt lat="48.45405" lon="3.58965">
        <ele>118.35</ele>
        <time>2014-09-20T15:00:55Z</time>
      </trkpt>
      <trkpt lat="48.45405" lon="3.58956">
        <ele>118.47</ele>
        <time>2014-09-20T15:00:57Z</time>
      </trkpt>
      <trkpt lat="48.45407" lon="3.58948">
        <ele>118.54</ele>
        <time>2014-09-20T15:00:59Z</time>
      </trkpt>
      <trkpt lat="48.4541" lon="3.58941">
        <ele>118.6</ele>
        <time>2014-09-20T15:01:01Z</time>
      </trkpt>
      <trkpt lat="48.45417" lon="3.58938">
        <ele>118.31</ele>
        <time>2014-09-20T15:01:03Z</time>
      </trkpt>
      <trkpt lat="48.45422" lon="3.58939">
        <ele>118.09</ele>
        <time>2014-09-20T15:01:04Z</time>
      </trkpt>
      <trkpt lat="48.45427" lon="3.58943">
        <ele>117.85</ele>
        <time>2014-09-20T15:01:05Z</time>
      </trkpt>
      <trkpt lat="48.45432" lon="3.58946">
        <ele>117.59</ele>
        <time>2014-09-20T15:01:06Z</time>
      </trkpt>
      <trkpt lat="48.45438" lon="3.5895">
        <ele>117.3</ele>
        <time>2014-09-20T15:01:07Z</time>
      </trkpt>
      <trkpt lat="48.45444" lon="3.58953">
        <ele>116.98</ele>
        <time>2014-09-20T15:01:08Z</time>
      </trkpt>
      <trkpt lat="48.4545" lon="3.58957">
        <ele>116.65</ele>
        <time>2014-09-20T15:01:09Z</time>
      </trkpt>
      <trkpt lat="48.45456" lon="3.58961">
        <ele>116.29</ele>
        <time>2014-09-20T15:01:10Z</time>
      </trkpt>
      <trkpt lat="48.45463" lon="3.58965">
        <ele>115.93</ele>
        <time>2014-09-20T15:01:11Z</time>
      </trkpt>
      <trkpt lat="48.4547" lon="3.58969">
        <ele>115.53</ele>
        <time>2014-09-20T15:01:12Z</time>
      </trkpt>
      <trkpt lat="48.45477" lon="3.58973">
        <ele>115.13</ele>
        <time>2014-09-20T15:01:13Z</time>
      </trkpt>
      <trkpt lat="48.45485" lon="3.58977">
        <ele>114.7</ele>
        <time>2014-09-20T15:01:14Z</time>
      </trkpt>
      <trkpt lat="48.45493" lon="3.58982">
        <ele>114.26</ele>
        <time>2014-09-20T15:01:15Z</time>
      </trkpt>
      <trkpt lat="48.45501" lon="3.58986">
        <ele>113.8</ele>
        <time>2014-09-20T15:01:16Z</time>
      </trkpt>
      <trkpt lat="48.45509" lon="3.58991">
        <ele>113.33</ele>
        <time>2014-09-20T15:01:17Z</time>
      </trkpt>
      <trkpt lat="48.45517" lon="3.58996">
        <ele>112.83</ele>
        <time>2014-09-20T15:01:18Z</time>
      </trkpt>
      <trkpt lat="48.45526" lon="3.59">
        <ele>112.31</ele>
        <time>2014-09-20T15:01:19Z</time>
      </trkpt>
      <trkpt lat="48.45534" lon="3.59005">
        <ele>111.79</ele>
        <time>2014-09-20T15:01:20Z</time>
      </trkpt>
      <trkpt lat="48.45543" lon="3.59011">
        <ele>111.25</ele>
        <time>2014-09-20T15:01:21Z</time>
      </trkpt>
      <trkpt lat="48.45553" lon="3.59016">
        <ele>110.67</ele>
        <time>2014-09-20T15:01:22Z</time>
      </trkpt>
      <trkpt lat="48.45562" lon="3.59021">
        <ele>110.11</ele>
        <time>2014-09-20T15:01:23Z</time>
      </trkpt>
      <trkpt lat="48.45571" lon="3.59027">
        <ele>109.54</ele>
        <time>2014-09-20T15:01:24Z</time>
      </trkpt>
      <trkpt lat="48.45581" lon="3.59032">
        <ele>108.96</ele>
        <time>2014-09-20T15:01:25Z</time>
      </trkpt>
      <trkpt lat="48.4559" lon="3.59037">
        <ele>108.4</ele>
        <time>2014-09-20T15:01:26Z</time>
      </trkpt>
      <trkpt lat="48.456" lon="3.59042">
        <ele>107.86</ele>
        <time>2014-09-20T15:01:27Z</time>
      </trkpt>
      <trkpt lat="48.4561" lon="3.59048">
        <ele>107.33</ele>
        <time>2014-09-20T15:01:28Z</time>
      </trkpt>
      <trkpt lat="48.45619" lon="3.59053">
        <ele>106.8</ele>
        <time>2014-09-20T15:01:29Z</time>
      </trkpt>
      <trkpt lat="48.45629" lon="3.59059">
        <ele>106.28</ele>
        <time>2014-09-20T15:01:30Z</time>
      </trkpt>
      <trkpt lat="48.45639" lon="3.59064">
        <ele>105.79</ele>
        <time>2014-09-20T15:01:31Z</time>
      </trkpt>
      <trkpt lat="48.45649" lon="3.5907">
        <ele>105.3</ele>
        <time>2014-09-20T15:01:32Z</time>
      </trkpt>
      <trkpt lat="48.45658" lon="3.59075">
        <ele>104.78</ele>
        <time>2014-09-20T15:01:33Z</time>
      </trkpt>
      <trkpt lat="48.45668" lon="3.59081">
        <ele>104.3</ele>
        <time>2014-09-20T15:01:34Z</time>
      </trkpt>
      <trkpt lat="48.45678" lon="3.59087">
        <ele>103.8</ele>
        <time>2014-09-20T15:01:35Z</time>
      </trkpt>
      <trkpt lat="48.45687" lon="3.59092">
        <ele>103.31</ele>
        <time>2014-09-20T15:01:36Z</time>
      </trkpt>
      <trkpt lat="48.45697" lon="3.59098">
        <ele>102.81</ele>
        <time>2014-09-20T15:01:37Z</time>
      </trkpt>
      <trkpt lat="48.45706" lon="3.59103">
        <ele>102.32</ele>
        <time>2014-09-20T15:01:38Z</time>
      </trkpt>
      <trkpt lat="48.45716" lon="3.59108">
        <ele>101.85</ele>
        <time>2014-09-20T15:01:39Z</time>
      </trkpt>
      <trkpt lat="48.45725" lon="3.59113">
        <ele>101.39</ele>
        <time>2014-09-20T15:01:40Z</time>
      </trkpt>
      <trkpt lat="48.45734" lon="3.59119">
        <ele>100.93</ele>
        <time>2014-09-20T15:01:41Z</time>
      </trkpt>
      <trkpt lat="48.45743" lon="3.59124">
        <ele>100.48</ele>
        <time>2014-09-20T15:01:42Z</time>
      </trkpt>
      <trkpt lat="48.45751" lon="3.5913">
        <ele>100.04</ele>
        <time>2014-09-20T15:01:43Z</time>
      </trkpt>
      <trkpt lat="48.4576" lon="3.59135">
        <ele>99.61</ele>
        <time>2014-09-20T15:01:44Z</time>
      </trkpt>
      <trkpt lat="48.45768" lon="3.59139">
        <ele>99.17</ele>
        <time>2014-09-20T15:01:45Z</time>
      </trkpt>
      <trkpt lat="48.45777" lon="3.59144">
        <ele>98.76</ele>
        <time>2014-09-20T15:01:46Z</time>
      </trkpt>
      <trkpt lat="48.45785" lon="3.59148">
        <ele>98.37</ele>
        <time>2014-09-20T15:01:47Z</time>
      </trkpt>
      <trkpt lat="48.45794" lon="3.59152">
        <ele>98.01</ele>
        <time>2014-09-20T15:01:48Z</time>
      </trkpt>
      <trkpt lat="48.45802" lon="3.59156">
        <ele>97.69</ele>
        <time>2014-09-20T15:01:49Z</time>
      </trkpt>
      <trkpt lat="48.4581" lon="3.59161">
        <ele>97.38</ele>
        <time>2014-09-20T15:01:50Z</time>
      </trkpt>
      <trkpt lat="48.45819" lon="3.59165">
        <ele>97.06</ele>
        <time>2014-09-20T15:01:51Z</time>
      </trkpt>
      <trkpt lat="48.45827" lon="3.59169">
        <ele>96.8</ele>
        <time>2014-09-20T15:01:52Z</time>
      </trkpt>
      <trkpt lat="48.45835" lon="3.59173">
        <ele>96.59</ele>
        <time>2014-09-20T15:01:53Z</time>
      </trkpt>
      <trkpt lat="48.45843" lon="3.59177">
        <ele>96.37</ele>
        <time>2014-09-20T15:01:54Z</time>
      </trkpt>
      <trkpt lat="48.45851" lon="3.59181">
        <ele>96.16</ele>
        <time>2014-09-20T15:01:55Z</time>
      </trkpt>
      <trkpt lat="48.45858" lon="3.59185">
        <ele>95.95</ele>
        <time>2014-09-20T15:01:56Z</time>
      </trkpt>
      <trkpt lat="48.45865" lon="3.59189">
        <ele>95.75</ele>
        <time>2014-09-20T15:01:57Z</time>
      </trkpt>
      <trkpt lat="48.45873" lon="3.59193">
        <ele>95.54</ele>
        <time>2014-09-20T15:01:58Z</time>
      </trkpt>
      <trkpt lat="48.4588" lon="3.59196">
        <ele>95.36</ele>
        <time>2014-09-20T15:01:59Z</time>
      </trkpt>
      <trkpt lat="48.45887" lon="3.592">
        <ele>95.23</ele>
        <time>2014-09-20T15:02:00Z</time>
      </trkpt>
      <trkpt lat="48.45894" lon="3.59204">
        <ele>95.1</ele>
        <time>2014-09-20T15:02:01Z</time>
      </trkpt>
      <trkpt lat="48.459" lon="3.59208">
        <ele>94.99</ele>
        <time>2014-09-20T15:02:02Z</time>
      </trkpt>
      <trkpt lat="48.45907" lon="3.59211">
        <ele>94.85</ele>
        <time>2014-09-20T15:02:03Z</time>
      </trkpt>
      <trkpt lat="48.45914" lon="3.59215">
        <ele>94.72</ele>
        <time>2014-09-20T15:02:04Z</time>
      </trkpt>
      <trkpt lat="48.45921" lon="3.59219">
        <ele>94.57</ele>
        <time>2014-09-20T15:02:05Z</time>
      </trkpt>
      <trkpt lat="48.45928" lon="3.59223">
        <ele>94.43</ele>
        <time>2014-09-20T15:02:06Z</time>
      </trkpt>
      <trkpt lat="48.45935" lon="3.59226">
        <ele>94.31</ele>
        <time>2014-09-20T15:02:07Z</time>
      </trkpt>
      <trkpt lat="48.45941" lon="3.5923">
        <ele>94.19</ele>
        <time>2014-09-20T15:02:08Z</time>
      </trkpt>
      <trkpt lat="48.45948" lon="3.59234">
        <ele>94.1</ele>
        <time>2014-09-20T15:02:09Z</time>
      </trkpt>
      <trkpt lat="48.45954" lon="3.59237">
        <ele>94.03</ele>
        <time>2014-09-20T15:02:10Z</time>
      </trkpt>
      <trkpt lat="48.4596" lon="3.59241">
        <ele>93.95</ele>
        <time>2014-09-20T15:02:11Z</time>
      </trkpt>
      <trkpt lat="48.45967" lon="3.59244">
        <ele>93.87</ele>
        <time>2014-09-20T15:02:12Z</time>
      </trkpt>
      <trkpt lat="48.45973" lon="3.59248">
        <ele>93.76</ele>
        <time>2014-09-20T15:02:13Z</time>
      </trkpt>
      <trkpt lat="48.45979" lon="3.59251">
        <ele>93.63</ele>
        <time>2014-09-20T15:02:14Z</time>
      </trkpt>
      <trkpt lat="48.45986" lon="3.59255">
        <ele>93.48</ele>
        <time>2014-09-20T15:02:15Z</time>
      </trkpt>
      <trkpt lat="48.45992" lon="3.59259">
        <ele>93.29</ele>
        <time>2014-09-20T15:02:16Z</time>
      </trkpt>
      <trkpt lat="48.45999" lon="3.59263">
        <ele>93.1</ele>
        <time>2014-09-20T15:02:17Z</time>
      </trkpt>
      <trkpt lat="48.46005" lon="3.59267">
        <ele>92.88</ele>
        <time>2014-09-20T15:02:18Z</time>
      </trkpt>
      <trkpt lat="48.46012" lon="3.59271">
        <ele>92.62</ele>
        <time>2014-09-20T15:02:19Z</time>
      </trkpt>
      <trkpt lat="48.46019" lon="3.59275">
        <ele>92.35</ele>
        <time>2014-09-20T15:02:20Z</time>
      </trkpt>
      <trkpt lat="48.46026" lon="3.59279">
        <ele>92.07</ele>
        <time>2014-09-20T15:02:21Z</time>
      </trkpt>
      <trkpt lat="48.46033" lon="3.59283">
        <ele>91.78</ele>
        <time>2014-09-20T15:02:22Z</time>
      </trkpt>
      <trkpt lat="48.4604" lon="3.59288">
        <ele>91.54</ele>
        <time>2014-09-20T15:02:23Z</time>
      </trkpt>
      <trkpt lat="48.46047" lon="3.59293">
        <ele>91.29</ele>
        <time>2014-09-20T15:02:24Z</time>
      </trkpt>
      <trkpt lat="48.46054" lon="3.59298">
        <ele>91.02</ele>
        <time>2014-09-20T15:02:25Z</time>
      </trkpt>
      <trkpt lat="48.4606" lon="3.59303">
        <ele>90.73</ele>
        <time>2014-09-20T15:02:26Z</time>
      </trkpt>
      <trkpt lat="48.46068" lon="3.59309">
        <ele>90.43</ele>
        <time>2014-09-20T15:02:27Z</time>
      </trkpt>
      <trkpt lat="48.46075" lon="3.59315">
        <ele>90.03</ele>
        <time>2014-09-20T15:02:28Z</time>
      </trkpt>
      <trkpt lat="48.46083" lon="3.59321">
        <ele>89.58</ele>
        <time>2014-09-20T15:02:29Z</time>
      </trkpt>
      <trkpt lat="48.46091" lon="3.59326">
        <ele>89.09</ele>
        <time>2014-09-20T15:02:30Z</time>
      </trkpt>
      <trkpt lat="48.46099" lon="3.59333">
        <ele>88.55</ele>
        <time>2014-09-20T15:02:31Z</time>
      </trkpt>
      <trkpt lat="48.46108" lon="3.59339">
        <ele>87.99</ele>
        <time>2014-09-20T15:02:32Z</time>
      </trkpt>
      <trkpt lat="48.46117" lon="3.59346">
        <ele>87.43</ele>
        <time>2014-09-20T15:02:33Z</time>
      </trkpt>
      <trkpt lat="48.46126" lon="3.59353">
        <ele>86.85</ele>
        <time>2014-09-20T15:02:34Z</time>
      </trkpt>
      <trkpt lat="48.46135" lon="3.59361">
        <ele>86.3</ele>
        <time>2014-09-20T15:02:35Z</time>
      </trkpt>
      <trkpt lat="48.46145" lon="3.59368">
        <ele>85.73</ele>
        <time>2014-09-20T15:02:36Z</time>
      </trkpt>
      <trkpt lat="48.46154" lon="3.59377">
        <ele>85.18</ele>
        <time>2014-09-20T15:02:37Z</time>
      </trkpt>
      <trkpt lat="48.46164" lon="3.59385">
        <ele>84.67</ele>
        <time>2014-09-20T15:02:38Z</time>
      </trkpt>
      <trkpt lat="48.46174" lon="3.59393">
        <ele>84.16</ele>
        <time>2014-09-20T15:02:39Z</time>
      </trkpt>
      <trkpt lat="48.46183" lon="3.59401">
        <ele>83.67</ele>
        <time>2014-09-20T15:02:40Z</time>
      </trkpt>
      <trkpt lat="48.46193" lon="3.5941">
        <ele>83.21</ele>
        <time>2014-09-20T15:02:41Z</time>
      </trkpt>
      <trkpt lat="48.46203" lon="3.59418">
        <ele>82.77</ele>
        <time>2014-09-20T15:02:42Z</time>
      </trkpt>
      <trkpt lat="48.46212" lon="3.59426">
        <ele>82.36</ele>
        <time>2014-09-20T15:02:43Z</time>
      </trkpt>
      <trkpt lat="48.46222" lon="3.59434">
        <ele>81.97</ele>
        <time>2014-09-20T15:02:44Z</time>
      </trkpt>
      <trkpt lat="48.46231" lon="3.59443">
        <ele>81.61</ele>
        <time>2014-09-20T15:02:45Z</time>
      </trkpt>
      <trkpt lat="48.4624" lon="3.59451">
        <ele>81.29</ele>
        <time>2014-09-20T15:02:46Z</time>
      </trkpt>
      <trkpt lat="48.46249" lon="3.59459">
        <ele>81</ele>
        <time>2014-09-20T15:02:47Z</time>
      </trkpt>
      <trkpt lat="48.46258" lon="3.59467">
        <ele>80.76</ele>
        <time>2014-09-20T15:02:48Z</time>
      </trkpt>
      <trkpt lat="48.46267" lon="3.59474">
        <ele>80.55</ele>
        <time>2014-09-20T15:02:49Z</time>
      </trkpt>
      <trkpt lat="48.46275" lon="3.59481">
        <ele>80.39</ele>
        <time>2014-09-20T15:02:50Z</time>
      </trkpt>
      <trkpt lat="48.46284" lon="3.59486">
        <ele>80.23</ele>
        <time>2014-09-20T15:02:51Z</time>
      </trkpt>
      <trkpt lat="48.46292" lon="3.59491">
        <ele>80.08</ele>
        <time>2014-09-20T15:02:52Z</time>
      </trkpt>
      <trkpt lat="48.463" lon="3.59496">
        <ele>79.94</ele>
        <time>2014-09-20T15:02:53Z</time>
      </trkpt>
      <trkpt lat="48.46307" lon="3.59503">
        <ele>79.79</ele>
        <time>2014-09-20T15:02:54Z</time>
      </trkpt>
      <trkpt lat="48.46315" lon="3.59508">
        <ele>79.65</ele>
        <time>2014-09-20T15:02:55Z</time>
      </trkpt>
      <trkpt lat="48.46322" lon="3.59514">
        <ele>79.54</ele>
        <time>2014-09-20T15:02:56Z</time>
      </trkpt>
      <trkpt lat="48.4633" lon="3.59519">
        <ele>79.46</ele>
        <time>2014-09-20T15:02:57Z</time>
      </trkpt>
      <trkpt lat="48.46337" lon="3.59524">
        <ele>79.35</ele>
        <time>2014-09-20T15:02:58Z</time>
      </trkpt>
      <trkpt lat="48.46344" lon="3.59529">
        <ele>79.27</ele>
        <time>2014-09-20T15:02:59Z</time>
      </trkpt>
      <trkpt lat="48.4635" lon="3.59534">
        <ele>79.19</ele>
        <time>2014-09-20T15:03:00Z</time>
      </trkpt>
      <trkpt lat="48.46355" lon="3.59542">
        <ele>79.05</ele>
        <time>2014-09-20T15:03:01Z</time>
      </trkpt>
      <trkpt lat="48.46358" lon="3.59552">
        <ele>78.89</ele>
        <time>2014-09-20T15:03:02Z</time>
      </trkpt>
      <trkpt lat="48.46359" lon="3.59562">
        <ele>78.83</ele>
        <time>2014-09-20T15:03:03Z</time>
      </trkpt>
      <trkpt lat="48.46357" lon="3.59572">
        <ele>78.73</ele>
        <time>2014-09-20T15:03:04Z</time>
      </trkpt>
      <trkpt lat="48.46354" lon="3.59581">
        <ele>78.65</ele>
        <time>2014-09-20T15:03:05Z</time>
      </trkpt>
      <trkpt lat="48.46352" lon="3.5959">
        <ele>78.55</ele>
        <time>2014-09-20T15:03:06Z</time>
      </trkpt>
      <trkpt lat="48.46349" lon="3.59599">
        <ele>78.44</ele>
        <time>2014-09-20T15:03:07Z</time>
      </trkpt>
      <trkpt lat="48.46346" lon="3.59607">
        <ele>78.31</ele>
        <time>2014-09-20T15:03:08Z</time>
      </trkpt>
      <trkpt lat="48.46344" lon="3.59616">
        <ele>78.19</ele>
        <time>2014-09-20T15:03:09Z</time>
      </trkpt>
      <trkpt lat="48.46342" lon="3.59625">
        <ele>78.08</ele>
        <time>2014-09-20T15:03:10Z</time>
      </trkpt>
      <trkpt lat="48.4634" lon="3.59633">
        <ele>77.99</ele>
        <time>2014-09-20T15:03:11Z</time>
      </trkpt>
      <trkpt lat="48.46339" lon="3.59642">
        <ele>77.92</ele>
        <time>2014-09-20T15:03:12Z</time>
      </trkpt>
      <trkpt lat="48.46338" lon="3.59651">
        <ele>77.87</ele>
        <time>2014-09-20T15:03:13Z</time>
      </trkpt>
      <trkpt lat="48.46336" lon="3.59659">
        <ele>77.79</ele>
        <time>2014-09-20T15:03:14Z</time>
      </trkpt>
      <trkpt lat="48.46336" lon="3.59668">
        <ele>77.75</ele>
        <time>2014-09-20T15:03:15Z</time>
      </trkpt>
      <trkpt lat="48.46335" lon="3.59677">
        <ele>77.72</ele>
        <time>2014-09-20T15:03:16Z</time>
      </trkpt>
      <trkpt lat="48.46335" lon="3.59686">
        <ele>77.67</ele>
        <time>2014-09-20T15:03:17Z</time>
      </trkpt>
      <trkpt lat="48.46334" lon="3.59695">
        <ele>77.58</ele>
        <time>2014-09-20T15:03:18Z</time>
      </trkpt>
      <trkpt lat="48.46334" lon="3.59704">
        <ele>77.5</ele>
        <time>2014-09-20T15:03:19Z</time>
      </trkpt>
      <trkpt lat="48.46333" lon="3.59713">
        <ele>77.4</ele>
        <time>2014-09-20T15:03:20Z</time>
      </trkpt>
      <trkpt lat="48.46332" lon="3.59721">
        <ele>77.31</ele>
        <time>2014-09-20T15:03:21Z</time>
      </trkpt>
      <trkpt lat="48.46331" lon="3.5973">
        <ele>77.16</ele>
        <time>2014-09-20T15:03:22Z</time>
      </trkpt>
      <trkpt lat="48.46329" lon="3.59738">
        <ele>77.03</ele>
        <time>2014-09-20T15:03:23Z</time>
      </trkpt>
      <trkpt lat="48.46327" lon="3.59746">
        <ele>76.9</ele>
        <time>2014-09-20T15:03:24Z</time>
      </trkpt>
      <trkpt lat="48.46325" lon="3.59754">
        <ele>76.81</ele>
        <time>2014-09-20T15:03:25Z</time>
      </trkpt>
      <trkpt lat="48.46322" lon="3.59761">
        <ele>76.76</ele>
        <time>2014-09-20T15:03:26Z</time>
      </trkpt>
      <trkpt lat="48.4632" lon="3.59769">
        <ele>76.73</ele>
        <time>2014-09-20T15:03:27Z</time>
      </trkpt>
      <trkpt lat="48.46318" lon="3.59776">
        <ele>76.71</ele>
        <time>2014-09-20T15:03:28Z</time>
      </trkpt>
      <trkpt lat="48.46316" lon="3.59784">
        <ele>76.69</ele>
        <time>2014-09-20T15:03:29Z</time>
      </trkpt>
      <trkpt lat="48.46316" lon="3.59792">
        <ele>76.72</ele>
        <time>2014-09-20T15:03:30Z</time>
      </trkpt>
      <trkpt lat="48.46316" lon="3.59799">
        <ele>76.75</ele>
        <time>2014-09-20T15:03:31Z</time>
      </trkpt>
      <trkpt lat="48.46318" lon="3.59807">
        <ele>76.79</ele>
        <time>2014-09-20T15:03:32Z</time>
      </trkpt>
      <trkpt lat="48.4632" lon="3.59814">
        <ele>76.83</ele>
        <time>2014-09-20T15:03:33Z</time>
      </trkpt>
      <trkpt lat="48.46322" lon="3.5982">
        <ele>76.85</ele>
        <time>2014-09-20T15:03:34Z</time>
      </trkpt>
      <trkpt lat="48.46325" lon="3.59826">
        <ele>76.87</ele>
        <time>2014-09-20T15:03:35Z</time>
      </trkpt>
      <trkpt lat="48.46328" lon="3.59832">
        <ele>76.91</ele>
        <time>2014-09-20T15:03:36Z</time>
      </trkpt>
      <trkpt lat="48.46332" lon="3.59838">
        <ele>76.94</ele>
        <time>2014-09-20T15:03:37Z</time>
      </trkpt>
      <trkpt lat="48.46337" lon="3.59843">
        <ele>77.01</ele>
        <time>2014-09-20T15:03:38Z</time>
      </trkpt>
      <trkpt lat="48.46341" lon="3.59849">
        <ele>77.14</ele>
        <time>2014-09-20T15:03:39Z</time>
      </trkpt>
      <trkpt lat="48.46345" lon="3.59854">
        <ele>77.31</ele>
        <time>2014-09-20T15:03:40Z</time>
      </trkpt>
      <trkpt lat="48.4635" lon="3.59858">
        <ele>77.54</ele>
        <time>2014-09-20T15:03:41Z</time>
      </trkpt>
      <trkpt lat="48.46354" lon="3.59862">
        <ele>77.76</ele>
        <time>2014-09-20T15:03:42Z</time>
      </trkpt>
      <trkpt lat="48.46358" lon="3.59866">
        <ele>78.05</ele>
        <time>2014-09-20T15:03:43Z</time>
      </trkpt>
      <trkpt lat="48.46366" lon="3.59873">
        <ele>78.46</ele>
        <time>2014-09-20T15:03:45Z</time>
      </trkpt>
      <trkpt lat="48.46371" lon="3.59877">
        <ele>78.6</ele>
        <time>2014-09-20T15:03:46Z</time>
      </trkpt>
      <trkpt lat="48.46376" lon="3.5988">
        <ele>78.81</ele>
        <time>2014-09-20T15:03:47Z</time>
      </trkpt>
      <trkpt lat="48.46381" lon="3.59882">
        <ele>78.96</ele>
        <time>2014-09-20T15:03:48Z</time>
      </trkpt>
      <trkpt lat="48.46386" lon="3.59884">
        <ele>79.15</ele>
        <time>2014-09-20T15:03:49Z</time>
      </trkpt>
      <trkpt lat="48.46391" lon="3.59885">
        <ele>79.37</ele>
        <time>2014-09-20T15:03:50Z</time>
      </trkpt>
      <trkpt lat="48.46395" lon="3.59887">
        <ele>79.61</ele>
        <time>2014-09-20T15:03:51Z</time>
      </trkpt>
      <trkpt lat="48.464" lon="3.59888">
        <ele>79.89</ele>
        <time>2014-09-20T15:03:52Z</time>
      </trkpt>
      <trkpt lat="48.46409" lon="3.5989">
        <ele>80.44</ele>
        <time>2014-09-20T15:03:54Z</time>
      </trkpt>
      <trkpt lat="48.46416" lon="3.59892">
        <ele>80.86</ele>
        <time>2014-09-20T15:03:56Z</time>
      </trkpt>
      <trkpt lat="48.46423" lon="3.59894">
        <ele>81.18</ele>
        <time>2014-09-20T15:03:58Z</time>
      </trkpt>
      <trkpt lat="48.4643" lon="3.59896">
        <ele>81.37</ele>
        <time>2014-09-20T15:04:00Z</time>
      </trkpt>
      <trkpt lat="48.46437" lon="3.59899">
        <ele>81.54</ele>
        <time>2014-09-20T15:04:02Z</time>
      </trkpt>
      <trkpt lat="48.46445" lon="3.59901">
        <ele>81.62</ele>
        <time>2014-09-20T15:04:04Z</time>
      </trkpt>
      <trkpt lat="48.46453" lon="3.59903">
        <ele>81.85</ele>
        <time>2014-09-20T15:04:06Z</time>
      </trkpt>
      <trkpt lat="48.46459" lon="3.59902">
        <ele>82.27</ele>
        <time>2014-09-20T15:04:08Z</time>
      </trkpt>
      <trkpt lat="48.46466" lon="3.59898">
        <ele>82.53</ele>
        <time>2014-09-20T15:04:10Z</time>
      </trkpt>
      <trkpt lat="48.4647" lon="3.59891">
        <ele>82.73</ele>
        <time>2014-09-20T15:04:12Z</time>
      </trkpt>
      <trkpt lat="48.46474" lon="3.59885">
        <ele>82.84</ele>
        <time>2014-09-20T15:04:14Z</time>
      </trkpt>
      <trkpt lat="48.46478" lon="3.59878">
        <ele>82.88</ele>
        <time>2014-09-20T15:04:16Z</time>
      </trkpt>
      <trkpt lat="48.46482" lon="3.59869">
        <ele>82.88</ele>
        <time>2014-09-20T15:04:18Z</time>
      </trkpt>
      <trkpt lat="48.46486" lon="3.59862">
        <ele>82.88</ele>
        <time>2014-09-20T15:04:20Z</time>
      </trkpt>
      <trkpt lat="48.4649" lon="3.59854">
        <ele>82.95</ele>
        <time>2014-09-20T15:04:22Z</time>
      </trkpt>
      <trkpt lat="48.46494" lon="3.59847">
        <ele>83.01</ele>
        <time>2014-09-20T15:04:24Z</time>
      </trkpt>
      <trkpt lat="48.46499" lon="3.5984">
        <ele>83.19</ele>
        <time>2014-09-20T15:04:26Z</time>
      </trkpt>
      <trkpt lat="48.46503" lon="3.59832">
        <ele>83.34</ele>
        <time>2014-09-20T15:04:28Z</time>
      </trkpt>
      <trkpt lat="48.46508" lon="3.59824">
        <ele>83.4</ele>
        <time>2014-09-20T15:04:30Z</time>
      </trkpt>
      <trkpt lat="48.46514" lon="3.59816">
        <ele>83.51</ele>
        <time>2014-09-20T15:04:32Z</time>
      </trkpt>
      <trkpt lat="48.46519" lon="3.59808">
        <ele>83.67</ele>
        <time>2014-09-20T15:04:34Z</time>
      </trkpt>
      <trkpt lat="48.46524" lon="3.59801">
        <ele>83.83</ele>
        <time>2014-09-20T15:04:36Z</time>
      </trkpt>
      <trkpt lat="48.4653" lon="3.59793">
        <ele>84.05</ele>
        <time>2014-09-20T15:04:38Z</time>
      </trkpt>
      <trkpt lat="48.46535" lon="3.59784">
        <ele>84.27</ele>
        <time>2014-09-20T15:04:40Z</time>
      </trkpt>
      <trkpt lat="48.4654" lon="3.59775">
        <ele>84.47</ele>
        <time>2014-09-20T15:04:42Z</time>
      </trkpt>
      <trkpt lat="48.46546" lon="3.59766">
        <ele>84.56</ele>
        <time>2014-09-20T15:04:44Z</time>
      </trkpt>
      <trkpt lat="48.46551" lon="3.59755">
        <ele>84.64</ele>
        <time>2014-09-20T15:04:46Z</time>
      </trkpt>
      <trkpt lat="48.46555" lon="3.59743">
        <ele>84.63</ele>
        <time>2014-09-20T15:04:48Z</time>
      </trkpt>
      <trkpt lat="48.46557" lon="3.59737">
        <ele>84.61</ele>
        <time>2014-09-20T15:04:49Z</time>
      </trkpt>
      <trkpt lat="48.46559" lon="3.59731">
        <ele>84.59</ele>
        <time>2014-09-20T15:04:50Z</time>
      </trkpt>
      <trkpt lat="48.46562" lon="3.59724">
        <ele>84.6</ele>
        <time>2014-09-20T15:04:51Z</time>
      </trkpt>
      <trkpt lat="48.46564" lon="3.59718">
        <ele>84.6</ele>
        <time>2014-09-20T15:04:52Z</time>
      </trkpt>
      <trkpt lat="48.46567" lon="3.59711">
        <ele>84.61</ele>
        <time>2014-09-20T15:04:53Z</time>
      </trkpt>
      <trkpt lat="48.46569" lon="3.59705">
        <ele>84.61</ele>
        <time>2014-09-20T15:04:54Z</time>
      </trkpt>
      <trkpt lat="48.46572" lon="3.59698">
        <ele>84.62</ele>
        <time>2014-09-20T15:04:55Z</time>
      </trkpt>
      <trkpt lat="48.46574" lon="3.59692">
        <ele>84.57</ele>
        <time>2014-09-20T15:04:56Z</time>
      </trkpt>
      <trkpt lat="48.46577" lon="3.59684">
        <ele>84.53</ele>
        <time>2014-09-20T15:04:57Z</time>
      </trkpt>
      <trkpt lat="48.46579" lon="3.59678">
        <ele>84.43</ele>
        <time>2014-09-20T15:04:58Z</time>
      </trkpt>
      <trkpt lat="48.46582" lon="3.59672">
        <ele>84.36</ele>
        <time>2014-09-20T15:04:59Z</time>
      </trkpt>
      <trkpt lat="48.46585" lon="3.59666">
        <ele>84.32</ele>
        <time>2014-09-20T15:05:00Z</time>
      </trkpt>
      <trkpt lat="48.46593" lon="3.59665">
        <ele>84.36</ele>
        <time>2014-09-20T15:05:02Z</time>
      </trkpt>
      <trkpt lat="48.46597" lon="3.59675">
        <ele>84.41</ele>
        <time>2014-09-20T15:05:04Z</time>
      </trkpt>
      <trkpt lat="48.46599" lon="3.59686">
        <ele>84.43</ele>
        <time>2014-09-20T15:05:06Z</time>
      </trkpt>
      <trkpt lat="48.46601" lon="3.59697">
        <ele>84.43</ele>
        <time>2014-09-20T15:05:08Z</time>
      </trkpt>
      <trkpt lat="48.46604" lon="3.59708">
        <ele>84.5</ele>
        <time>2014-09-20T15:05:10Z</time>
      </trkpt>
      <trkpt lat="48.46606" lon="3.59719">
        <ele>84.67</ele>
        <time>2014-09-20T15:05:12Z</time>
      </trkpt>
      <trkpt lat="48.46609" lon="3.5973">
        <ele>84.8</ele>
        <time>2014-09-20T15:05:14Z</time>
      </trkpt>
      <trkpt lat="48.46611" lon="3.59741">
        <ele>84.93</ele>
        <time>2014-09-20T15:05:16Z</time>
      </trkpt>
      <trkpt lat="48.46614" lon="3.59751">
        <ele>85.13</ele>
        <time>2014-09-20T15:05:18Z</time>
      </trkpt>
      <trkpt lat="48.46617" lon="3.59761">
        <ele>85.35</ele>
        <time>2014-09-20T15:05:20Z</time>
      </trkpt>
      <trkpt lat="48.46619" lon="3.5977">
        <ele>85.65</ele>
        <time>2014-09-20T15:05:22Z</time>
      </trkpt>
      <trkpt lat="48.46621" lon="3.59779">
        <ele>86</ele>
        <time>2014-09-20T15:05:24Z</time>
      </trkpt>
      <trkpt lat="48.46623" lon="3.59786">
        <ele>86.39</ele>
        <time>2014-09-20T15:05:26Z</time>
      </trkpt>
      <trkpt lat="48.46625" lon="3.59794">
        <ele>86.76</ele>
        <time>2014-09-20T15:05:28Z</time>
      </trkpt>
      <trkpt lat="48.46627" lon="3.59801">
        <ele>87.1</ele>
        <time>2014-09-20T15:05:30Z</time>
      </trkpt>
      <trkpt lat="48.4663" lon="3.59808">
        <ele>87.45</ele>
        <time>2014-09-20T15:05:32Z</time>
      </trkpt>
      <trkpt lat="48.46632" lon="3.59815">
        <ele>87.77</ele>
        <time>2014-09-20T15:05:34Z</time>
      </trkpt>
      <trkpt lat="48.46635" lon="3.59823">
        <ele>88.08</ele>
        <time>2014-09-20T15:05:36Z</time>
      </trkpt>
      <trkpt lat="48.46638" lon="3.59829">
        <ele>88.39</ele>
        <time>2014-09-20T15:05:38Z</time>
      </trkpt>
      <trkpt lat="48.46642" lon="3.59835">
        <ele>88.69</ele>
        <time>2014-09-20T15:05:40Z</time>
      </trkpt>
      <trkpt lat="48.46646" lon="3.59841">
        <ele>89.05</ele>
        <time>2014-09-20T15:05:42Z</time>
      </trkpt>
      <trkpt lat="48.4665" lon="3.59846">
        <ele>89.39</ele>
        <time>2014-09-20T15:05:44Z</time>
      </trkpt>
      <trkpt lat="48.46655" lon="3.59851">
        <ele>89.74</ele>
        <time>2014-09-20T15:05:46Z</time>
      </trkpt>
      <trkpt lat="48.4666" lon="3.59856">
        <ele>90.02</ele>
        <time>2014-09-20T15:05:48Z</time>
      </trkpt>
      <trkpt lat="48.46665" lon="3.5986">
        <ele>90.24</ele>
        <time>2014-09-20T15:05:50Z</time>
      </trkpt>
      <trkpt lat="48.46671" lon="3.59864">
        <ele>90.51</ele>
        <time>2014-09-20T15:05:52Z</time>
      </trkpt>
      <trkpt lat="48.46676" lon="3.59868">
        <ele>90.8</ele>
        <time>2014-09-20T15:05:54Z</time>
      </trkpt>
      <trkpt lat="48.46682" lon="3.59872">
        <ele>91.1</ele>
        <time>2014-09-20T15:05:56Z</time>
      </trkpt>
      <trkpt lat="48.46688" lon="3.59875">
        <ele>91.36</ele>
        <time>2014-09-20T15:05:58Z</time>
      </trkpt>
      <trkpt lat="48.46694" lon="3.59878">
        <ele>91.54</ele>
        <time>2014-09-20T15:06:00Z</time>
      </trkpt>
      <trkpt lat="48.467" lon="3.59882">
        <ele>91.67</ele>
        <time>2014-09-20T15:06:02Z</time>
      </trkpt>
      <trkpt lat="48.46707" lon="3.59885">
        <ele>91.74</ele>
        <time>2014-09-20T15:06:04Z</time>
      </trkpt>
      <trkpt lat="48.46715" lon="3.59887">
        <ele>91.78</ele>
        <time>2014-09-20T15:06:06Z</time>
      </trkpt>
      <trkpt lat="48.46723" lon="3.5989">
        <ele>91.8</ele>
        <time>2014-09-20T15:06:08Z</time>
      </trkpt>
      <trkpt lat="48.46731" lon="3.59893">
        <ele>91.86</ele>
        <time>2014-09-20T15:06:10Z</time>
      </trkpt>
      <trkpt lat="48.46739" lon="3.59897">
        <ele>91.93</ele>
        <time>2014-09-20T15:06:12Z</time>
      </trkpt>
      <trkpt lat="48.46748" lon="3.59902">
        <ele>91.99</ele>
        <time>2014-09-20T15:06:14Z</time>
      </trkpt>
      <trkpt lat="48.46756" lon="3.59906">
        <ele>92.01</ele>
        <time>2014-09-20T15:06:16Z</time>
      </trkpt>
      <trkpt lat="48.46761" lon="3.59908">
        <ele>92.01</ele>
        <time>2014-09-20T15:06:17Z</time>
      </trkpt>
      <trkpt lat="48.46765" lon="3.5991">
        <ele>91.99</ele>
        <time>2014-09-20T15:06:18Z</time>
      </trkpt>
      <trkpt lat="48.4677" lon="3.59913">
        <ele>92</ele>
        <time>2014-09-20T15:06:19Z</time>
      </trkpt>
      <trkpt lat="48.46774" lon="3.59915">
        <ele>91.98</ele>
        <time>2014-09-20T15:06:20Z</time>
      </trkpt>
      <trkpt lat="48.46779" lon="3.59918">
        <ele>91.97</ele>
        <time>2014-09-20T15:06:21Z</time>
      </trkpt>
      <trkpt lat="48.46784" lon="3.59921">
        <ele>91.96</ele>
        <time>2014-09-20T15:06:22Z</time>
      </trkpt>
      <trkpt lat="48.46789" lon="3.59924">
        <ele>91.93</ele>
        <time>2014-09-20T15:06:23Z</time>
      </trkpt>
      <trkpt lat="48.46794" lon="3.59926">
        <ele>91.9</ele>
        <time>2014-09-20T15:06:24Z</time>
      </trkpt>
      <trkpt lat="48.46799" lon="3.59929">
        <ele>91.88</ele>
        <time>2014-09-20T15:06:25Z</time>
      </trkpt>
      <trkpt lat="48.46804" lon="3.59932">
        <ele>91.87</ele>
        <time>2014-09-20T15:06:26Z</time>
      </trkpt>
      <trkpt lat="48.46809" lon="3.59935">
        <ele>91.86</ele>
        <time>2014-09-20T15:06:27Z</time>
      </trkpt>
      <trkpt lat="48.46814" lon="3.59937">
        <ele>91.83</ele>
        <time>2014-09-20T15:06:28Z</time>
      </trkpt>
      <trkpt lat="48.4682" lon="3.5994">
        <ele>91.83</ele>
        <time>2014-09-20T15:06:29Z</time>
      </trkpt>
      <trkpt lat="48.46825" lon="3.59944">
        <ele>91.83</ele>
        <time>2014-09-20T15:06:30Z</time>
      </trkpt>
      <trkpt lat="48.46831" lon="3.59947">
        <ele>91.85</ele>
        <time>2014-09-20T15:06:31Z</time>
      </trkpt>
      <trkpt lat="48.46836" lon="3.5995">
        <ele>91.87</ele>
        <time>2014-09-20T15:06:32Z</time>
      </trkpt>
      <trkpt lat="48.46841" lon="3.59954">
        <ele>91.89</ele>
        <time>2014-09-20T15:06:33Z</time>
      </trkpt>
      <trkpt lat="48.46847" lon="3.59957">
        <ele>91.9</ele>
        <time>2014-09-20T15:06:34Z</time>
      </trkpt>
      <trkpt lat="48.46852" lon="3.5996">
        <ele>91.9</ele>
        <time>2014-09-20T15:06:35Z</time>
      </trkpt>
      <trkpt lat="48.46858" lon="3.59963">
        <ele>91.94</ele>
        <time>2014-09-20T15:06:36Z</time>
      </trkpt>
      <trkpt lat="48.46863" lon="3.59966">
        <ele>91.93</ele>
        <time>2014-09-20T15:06:37Z</time>
      </trkpt>
      <trkpt lat="48.46869" lon="3.59968">
        <ele>91.96</ele>
        <time>2014-09-20T15:06:38Z</time>
      </trkpt>
      <trkpt lat="48.46874" lon="3.5997">
        <ele>91.97</ele>
        <time>2014-09-20T15:06:39Z</time>
      </trkpt>
      <trkpt lat="48.46879" lon="3.59974">
        <ele>91.96</ele>
        <time>2014-09-20T15:06:40Z</time>
      </trkpt>
      <trkpt lat="48.46881" lon="3.59981">
        <ele>91.9</ele>
        <time>2014-09-20T15:06:41Z</time>
      </trkpt>
      <trkpt lat="48.46881" lon="3.59989">
        <ele>91.89</ele>
        <time>2014-09-20T15:06:42Z</time>
      </trkpt>
      <trkpt lat="48.4688" lon="3.59995">
        <ele>91.9</ele>
        <time>2014-09-20T15:06:43Z</time>
      </trkpt>
      <trkpt lat="48.46878" lon="3.60001">
        <ele>91.95</ele>
        <time>2014-09-20T15:06:44Z</time>
      </trkpt>
      <trkpt lat="48.46876" lon="3.60008">
        <ele>92.05</ele>
        <time>2014-09-20T15:06:45Z</time>
      </trkpt>
      <trkpt lat="48.46873" lon="3.60014">
        <ele>92.17</ele>
        <time>2014-09-20T15:06:46Z</time>
      </trkpt>
      <trkpt lat="48.46871" lon="3.6002">
        <ele>92.31</ele>
        <time>2014-09-20T15:06:47Z</time>
      </trkpt>
      <trkpt lat="48.46868" lon="3.60025">
        <ele>92.44</ele>
        <time>2014-09-20T15:06:48Z</time>
      </trkpt>
      <trkpt lat="48.46865" lon="3.60031">
        <ele>92.59</ele>
        <time>2014-09-20T15:06:49Z</time>
      </trkpt>
      <trkpt lat="48.46862" lon="3.60036">
        <ele>92.7</ele>
        <time>2014-09-20T15:06:50Z</time>
      </trkpt>
      <trkpt lat="48.46859" lon="3.60042">
        <ele>92.78</ele>
        <time>2014-09-20T15:06:51Z</time>
      </trkpt>
      <trkpt lat="48.46857" lon="3.60047">
        <ele>92.84</ele>
        <time>2014-09-20T15:06:52Z</time>
      </trkpt>
      <trkpt lat="48.46852" lon="3.60058">
        <ele>92.92</ele>
        <time>2014-09-20T15:06:54Z</time>
      </trkpt>
      <trkpt lat="48.46846" lon="3.60067">
        <ele>93.04</ele>
        <time>2014-09-20T15:06:56Z</time>
      </trkpt>
      <trkpt lat="48.46841" lon="3.60077">
        <ele>93.28</ele>
        <time>2014-09-20T15:06:58Z</time>
      </trkpt>
      <trkpt lat="48.46836" lon="3.60088">
        <ele>93.61</ele>
        <time>2014-09-20T15:07:00Z</time>
      </trkpt>
      <trkpt lat="48.46831" lon="3.60099">
        <ele>93.98</ele>
        <time>2014-09-20T15:07:02Z</time>
      </trkpt>
      <trkpt lat="48.46826" lon="3.60108">
        <ele>94.4</ele>
        <time>2014-09-20T15:07:04Z</time>
      </trkpt>
      <trkpt lat="48.46822" lon="3.60117">
        <ele>94.76</ele>
        <time>2014-09-20T15:07:06Z</time>
      </trkpt>
      <trkpt lat="48.46818" lon="3.60125">
        <ele>95.07</ele>
        <time>2014-09-20T15:07:08Z</time>
      </trkpt>
      <trkpt lat="48.46815" lon="3.60134">
        <ele>95.41</ele>
        <time>2014-09-20T15:07:10Z</time>
      </trkpt>
      <trkpt lat="48.46811" lon="3.60142">
        <ele>95.75</ele>
        <time>2014-09-20T15:07:12Z</time>
      </trkpt>
      <trkpt lat="48.46809" lon="3.60151">
        <ele>96.14</ele>
        <time>2014-09-20T15:07:14Z</time>
      </trkpt>
      <trkpt lat="48.46807" lon="3.6016">
        <ele>96.51</ele>
        <time>2014-09-20T15:07:16Z</time>
      </trkpt>
      <trkpt lat="48.46806" lon="3.60168">
        <ele>96.87</ele>
        <time>2014-09-20T15:07:18Z</time>
      </trkpt>
      <trkpt lat="48.46805" lon="3.60177">
        <ele>97.28</ele>
        <time>2014-09-20T15:07:20Z</time>
      </trkpt>
      <trkpt lat="48.46804" lon="3.60185">
        <ele>97.77</ele>
        <time>2014-09-20T15:07:22Z</time>
      </trkpt>
      <trkpt lat="48.46804" lon="3.60194">
        <ele>98.21</ele>
        <time>2014-09-20T15:07:24Z</time>
      </trkpt>
      <trkpt lat="48.46803" lon="3.60202">
        <ele>98.64</ele>
        <time>2014-09-20T15:07:26Z</time>
      </trkpt>
      <trkpt lat="48.46802" lon="3.6021">
        <ele>98.97</ele>
        <time>2014-09-20T15:07:28Z</time>
      </trkpt>
      <trkpt lat="48.46802" lon="3.60219">
        <ele>99.26</ele>
        <time>2014-09-20T15:07:30Z</time>
      </trkpt>
      <trkpt lat="48.46801" lon="3.60228">
        <ele>99.49</ele>
        <time>2014-09-20T15:07:32Z</time>
      </trkpt>
      <trkpt lat="48.46801" lon="3.60236">
        <ele>99.64</ele>
        <time>2014-09-20T15:07:34Z</time>
      </trkpt>
      <trkpt lat="48.468" lon="3.60244">
        <ele>99.79</ele>
        <time>2014-09-20T15:07:36Z</time>
      </trkpt>
      <trkpt lat="48.468" lon="3.60253">
        <ele>99.94</ele>
        <time>2014-09-20T15:07:38Z</time>
      </trkpt>
      <trkpt lat="48.468" lon="3.60262">
        <ele>100.11</ele>
        <time>2014-09-20T15:07:40Z</time>
      </trkpt>
      <trkpt lat="48.468" lon="3.60271">
        <ele>100.21</ele>
        <time>2014-09-20T15:07:42Z</time>
      </trkpt>
      <trkpt lat="48.46801" lon="3.6028">
        <ele>100.28</ele>
        <time>2014-09-20T15:07:44Z</time>
      </trkpt>
      <trkpt lat="48.46804" lon="3.60287">
        <ele>100.3</ele>
        <time>2014-09-20T15:07:46Z</time>
      </trkpt>
      <trkpt lat="48.46808" lon="3.60293">
        <ele>100.38</ele>
        <time>2014-09-20T15:07:48Z</time>
      </trkpt>
      <trkpt lat="48.46812" lon="3.60298">
        <ele>100.63</ele>
        <time>2014-09-20T15:07:50Z</time>
      </trkpt>
      <trkpt lat="48.46815" lon="3.60302">
        <ele>100.96</ele>
        <time>2014-09-20T15:07:52Z</time>
      </trkpt>
      <trkpt lat="48.46819" lon="3.60306">
        <ele>101.3</ele>
        <time>2014-09-20T15:07:54Z</time>
      </trkpt>
      <trkpt lat="48.46824" lon="3.60308">
        <ele>101.64</ele>
        <time>2014-09-20T15:07:56Z</time>
      </trkpt>
      <trkpt lat="48.46828" lon="3.60311">
        <ele>101.81</ele>
        <time>2014-09-20T15:07:58Z</time>
      </trkpt>
      <trkpt lat="48.46832" lon="3.60313">
        <ele>101.9</ele>
        <time>2014-09-20T15:08:00Z</time>
      </trkpt>
      <trkpt lat="48.46837" lon="3.60316">
        <ele>102.03</ele>
        <time>2014-09-20T15:08:02Z</time>
      </trkpt>
      <trkpt lat="48.46841" lon="3.60319">
        <ele>102.18</ele>
        <time>2014-09-20T15:08:04Z</time>
      </trkpt>
      <trkpt lat="48.46845" lon="3.60321">
        <ele>102.34</ele>
        <time>2014-09-20T15:08:06Z</time>
      </trkpt>
      <trkpt lat="48.4685" lon="3.60324">
        <ele>102.62</ele>
        <time>2014-09-20T15:08:08Z</time>
      </trkpt>
      <trkpt lat="48.46854" lon="3.60327">
        <ele>102.87</ele>
        <time>2014-09-20T15:08:10Z</time>
      </trkpt>
      <trkpt lat="48.46858" lon="3.60329">
        <ele>102.98</ele>
        <time>2014-09-20T15:08:12Z</time>
      </trkpt>
      <trkpt lat="48.46862" lon="3.60332">
        <ele>103.05</ele>
        <time>2014-09-20T15:08:14Z</time>
      </trkpt>
      <trkpt lat="48.46866" lon="3.60335">
        <ele>103.11</ele>
        <time>2014-09-20T15:08:16Z</time>
      </trkpt>
      <trkpt lat="48.46871" lon="3.60341">
        <ele>103.2</ele>
        <time>2014-09-20T15:08:19Z</time>
      </trkpt>
      <trkpt lat="48.46876" lon="3.60347">
        <ele>103.29</ele>
        <time>2014-09-20T15:08:22Z</time>
      </trkpt>
      <trkpt lat="48.46883" lon="3.60345">
        <ele>103.58</ele>
        <time>2014-09-20T15:08:25Z</time>
      </trkpt>
      <trkpt lat="48.46888" lon="3.60342">
        <ele>103.97</ele>
        <time>2014-09-20T15:08:27Z</time>
      </trkpt>
      <trkpt lat="48.46892" lon="3.60339">
        <ele>104.35</ele>
        <time>2014-09-20T15:08:29Z</time>
      </trkpt>
      <trkpt lat="48.46896" lon="3.60335">
        <ele>104.67</ele>
        <time>2014-09-20T15:08:31Z</time>
      </trkpt>
      <trkpt lat="48.46901" lon="3.60333">
        <ele>104.96</ele>
        <time>2014-09-20T15:08:33Z</time>
      </trkpt>
      <trkpt lat="48.46907" lon="3.60335">
        <ele>105.47</ele>
        <time>2014-09-20T15:08:35Z</time>
      </trkpt>
      <trkpt lat="48.46911" lon="3.60338">
        <ele>106.12</ele>
        <time>2014-09-20T15:08:37Z</time>
      </trkpt>
      <trkpt lat="48.46917" lon="3.60343">
        <ele>107.06</ele>
        <time>2014-09-20T15:08:40Z</time>
      </trkpt>
      <trkpt lat="48.46923" lon="3.60344">
        <ele>107.53</ele>
        <time>2014-09-20T15:08:42Z</time>
      </trkpt>
      <trkpt lat="48.46928" lon="3.60341">
        <ele>107.84</ele>
        <time>2014-09-20T15:08:44Z</time>
      </trkpt>
      <trkpt lat="48.46933" lon="3.60337">
        <ele>108.05</ele>
        <time>2014-09-20T15:08:46Z</time>
      </trkpt>
      <trkpt lat="48.46939" lon="3.60331">
        <ele>108.45</ele>
        <time>2014-09-20T15:08:48Z</time>
      </trkpt>
      <trkpt lat="48.46946" lon="3.60329">
        <ele>109.08</ele>
        <time>2014-09-20T15:08:50Z</time>
      </trkpt>
      <trkpt lat="48.46952" lon="3.60331">
        <ele>109.81</ele>
        <time>2014-09-20T15:08:52Z</time>
      </trkpt>
      <trkpt lat="48.46958" lon="3.60335">
        <ele>110.38</ele>
        <time>2014-09-20T15:08:54Z</time>
      </trkpt>
      <trkpt lat="48.46964" lon="3.60342">
        <ele>111.17</ele>
        <time>2014-09-20T15:08:56Z</time>
      </trkpt>
      <trkpt lat="48.46968" lon="3.60346">
        <ele>111.9</ele>
        <time>2014-09-20T15:08:58Z</time>
      </trkpt>
      <trkpt lat="48.46973" lon="3.6035">
        <ele>112.46</ele>
        <time>2014-09-20T15:09:00Z</time>
      </trkpt>
      <trkpt lat="48.46977" lon="3.60355">
        <ele>112.87</ele>
        <time>2014-09-20T15:09:02Z</time>
      </trkpt>
      <trkpt lat="48.46982" lon="3.60359">
        <ele>113.43</ele>
        <time>2014-09-20T15:09:05Z</time>
      </trkpt>
      <trkpt lat="48.46986" lon="3.60361">
        <ele>113.96</ele>
        <time>2014-09-20T15:09:07Z</time>
      </trkpt>
      <trkpt lat="48.46991" lon="3.60366">
        <ele>114.2</ele>
        <time>2014-09-20T15:09:10Z</time>
      </trkpt>
      <trkpt lat="48.46996" lon="3.60372">
        <ele>114.68</ele>
        <time>2014-09-20T15:09:13Z</time>
      </trkpt>
      <trkpt lat="48.47001" lon="3.60375">
        <ele>114.95</ele>
        <time>2014-09-20T15:09:15Z</time>
      </trkpt>
      <trkpt lat="48.47005" lon="3.60379">
        <ele>115.25</ele>
        <time>2014-09-20T15:09:17Z</time>
      </trkpt>
      <trkpt lat="48.4702" lon="3.6039">
        <ele>116.07</ele>
        <time>2014-09-20T15:09:25Z</time>
      </trkpt>
      <trkpt lat="48.47025" lon="3.60393">
        <ele>116.66</ele>
        <time>2014-09-20T15:09:27Z</time>
      </trkpt>
      <trkpt lat="48.47044" lon="3.60406">
        <ele>117.19</ele>
        <time>2014-09-20T15:09:35Z</time>
      </trkpt>
      <trkpt lat="48.4705" lon="3.6041">
        <ele>117.28</ele>
        <time>2014-09-20T15:09:37Z</time>
      </trkpt>
      <trkpt lat="48.47054" lon="3.60415">
        <ele>117.83</ele>
        <time>2014-09-20T15:09:39Z</time>
      </trkpt>
      <trkpt lat="48.47059" lon="3.60418">
        <ele>118.56</ele>
        <time>2014-09-20T15:09:41Z</time>
      </trkpt>
      <trkpt lat="48.47091" lon="3.60451">
        <ele>119.87</ele>
        <time>2014-09-20T15:10:00Z</time>
      </trkpt>
      <trkpt lat="48.47096" lon="3.60453">
        <ele>120.14</ele>
        <time>2014-09-20T15:10:03Z</time>
      </trkpt>
      <trkpt lat="48.4711" lon="3.60465">
        <ele>120.33</ele>
        <time>2014-09-20T15:10:11Z</time>
      </trkpt>
      <trkpt lat="48.47114" lon="3.60468">
        <ele>120.51</ele>
        <time>2014-09-20T15:10:13Z</time>
      </trkpt>
      <trkpt lat="48.47118" lon="3.60471">
        <ele>120.72</ele>
        <time>2014-09-20T15:10:15Z</time>
      </trkpt>
      <trkpt lat="48.47123" lon="3.60476">
        <ele>120.85</ele>
        <time>2014-09-20T15:10:18Z</time>
      </trkpt>
      <trkpt lat="48.47128" lon="3.6048">
        <ele>121.19</ele>
        <time>2014-09-20T15:10:21Z</time>
      </trkpt>
      <trkpt lat="48.47135" lon="3.60483">
        <ele>121.55</ele>
        <time>2014-09-20T15:10:24Z</time>
      </trkpt>
      <trkpt lat="48.4714" lon="3.60481">
        <ele>121.4</ele>
        <time>2014-09-20T15:10:26Z</time>
      </trkpt>
      <trkpt lat="48.47143" lon="3.60475">
        <ele>121.44</ele>
        <time>2014-09-20T15:10:28Z</time>
      </trkpt>
      <trkpt lat="48.47147" lon="3.60469">
        <ele>121.7</ele>
        <time>2014-09-20T15:10:30Z</time>
      </trkpt>
      <trkpt lat="48.47151" lon="3.60462">
        <ele>121.93</ele>
        <time>2014-09-20T15:10:32Z</time>
      </trkpt>
      <trkpt lat="48.47156" lon="3.60454">
        <ele>121.72</ele>
        <time>2014-09-20T15:10:34Z</time>
      </trkpt>
      <trkpt lat="48.4716" lon="3.60445">
        <ele>121.41</ele>
        <time>2014-09-20T15:10:36Z</time>
      </trkpt>
      <trkpt lat="48.47164" lon="3.60434">
        <ele>121.12</ele>
        <time>2014-09-20T15:10:38Z</time>
      </trkpt>
      <trkpt lat="48.47167" lon="3.60428">
        <ele>120.92</ele>
        <time>2014-09-20T15:10:39Z</time>
      </trkpt>
      <trkpt lat="48.4717" lon="3.60422">
        <ele>120.75</ele>
        <time>2014-09-20T15:10:40Z</time>
      </trkpt>
      <trkpt lat="48.47176" lon="3.60414">
        <ele>120.33</ele>
        <time>2014-09-20T15:10:42Z</time>
      </trkpt>
      <trkpt lat="48.4718" lon="3.60408">
        <ele>119.98</ele>
        <time>2014-09-20T15:10:43Z</time>
      </trkpt>
      <trkpt lat="48.47183" lon="3.60402">
        <ele>119.71</ele>
        <time>2014-09-20T15:10:44Z</time>
      </trkpt>
      <trkpt lat="48.47186" lon="3.60394">
        <ele>119.42</ele>
        <time>2014-09-20T15:10:45Z</time>
      </trkpt>
      <trkpt lat="48.47189" lon="3.60385">
        <ele>119.12</ele>
        <time>2014-09-20T15:10:46Z</time>
      </trkpt>
      <trkpt lat="48.47191" lon="3.60376">
        <ele>118.8</ele>
        <time>2014-09-20T15:10:47Z</time>
      </trkpt>
      <trkpt lat="48.47193" lon="3.60369">
        <ele>118.45</ele>
        <time>2014-09-20T15:10:48Z</time>
      </trkpt>
      <trkpt lat="48.47195" lon="3.60362">
        <ele>118.2</ele>
        <time>2014-09-20T15:10:49Z</time>
      </trkpt>
      <trkpt lat="48.47203" lon="3.6036">
        <ele>118.01</ele>
        <time>2014-09-20T15:10:51Z</time>
      </trkpt>
      <trkpt lat="48.47208" lon="3.60364">
        <ele>117.89</ele>
        <time>2014-09-20T15:10:52Z</time>
      </trkpt>
      <trkpt lat="48.47213" lon="3.60367">
        <ele>117.8</ele>
        <time>2014-09-20T15:10:53Z</time>
      </trkpt>
      <trkpt lat="48.47218" lon="3.6037">
        <ele>117.71</ele>
        <time>2014-09-20T15:10:54Z</time>
      </trkpt>
      <trkpt lat="48.47225" lon="3.60372">
        <ele>117.53</ele>
        <time>2014-09-20T15:10:56Z</time>
      </trkpt>
      <trkpt lat="48.47232" lon="3.60375">
        <ele>117.31</ele>
        <time>2014-09-20T15:10:58Z</time>
      </trkpt>
      <trkpt lat="48.47239" lon="3.60378">
        <ele>116.96</ele>
        <time>2014-09-20T15:11:00Z</time>
      </trkpt>
      <trkpt lat="48.47246" lon="3.6038">
        <ele>116.53</ele>
        <time>2014-09-20T15:11:02Z</time>
      </trkpt>
      <trkpt lat="48.47251" lon="3.60382">
        <ele>116.4</ele>
        <time>2014-09-20T15:11:03Z</time>
      </trkpt>
      <trkpt lat="48.47257" lon="3.60384">
        <ele>116.14</ele>
        <time>2014-09-20T15:11:05Z</time>
      </trkpt>
      <trkpt lat="48.47264" lon="3.60386">
        <ele>116.01</ele>
        <time>2014-09-20T15:11:07Z</time>
      </trkpt>
      <trkpt lat="48.47268" lon="3.60389">
        <ele>115.94</ele>
        <time>2014-09-20T15:11:08Z</time>
      </trkpt>
      <trkpt lat="48.47275" lon="3.60394">
        <ele>115.56</ele>
        <time>2014-09-20T15:11:10Z</time>
      </trkpt>
      <trkpt lat="48.47281" lon="3.604">
        <ele>115.35</ele>
        <time>2014-09-20T15:11:12Z</time>
      </trkpt>
      <trkpt lat="48.47288" lon="3.60407">
        <ele>115.37</ele>
        <time>2014-09-20T15:11:14Z</time>
      </trkpt>
      <trkpt lat="48.47292" lon="3.60412">
        <ele>115.28</ele>
        <time>2014-09-20T15:11:16Z</time>
      </trkpt>
      <trkpt lat="48.47297" lon="3.60419">
        <ele>115.03</ele>
        <time>2014-09-20T15:11:19Z</time>
      </trkpt>
      <trkpt lat="48.47301" lon="3.60425">
        <ele>114.9</ele>
        <time>2014-09-20T15:11:21Z</time>
      </trkpt>
      <trkpt lat="48.47306" lon="3.60432">
        <ele>114.81</ele>
        <time>2014-09-20T15:11:23Z</time>
      </trkpt>
      <trkpt lat="48.47311" lon="3.60439">
        <ele>114.39</ele>
        <time>2014-09-20T15:11:25Z</time>
      </trkpt>
      <trkpt lat="48.47317" lon="3.60444">
        <ele>114.03</ele>
        <time>2014-09-20T15:11:27Z</time>
      </trkpt>
      <trkpt lat="48.47323" lon="3.60448">
        <ele>113.78</ele>
        <time>2014-09-20T15:11:29Z</time>
      </trkpt>
      <trkpt lat="48.4733" lon="3.60452">
        <ele>113.69</ele>
        <time>2014-09-20T15:11:31Z</time>
      </trkpt>
      <trkpt lat="48.47337" lon="3.60456">
        <ele>113.56</ele>
        <time>2014-09-20T15:11:33Z</time>
      </trkpt>
      <trkpt lat="48.47344" lon="3.6046">
        <ele>113.21</ele>
        <time>2014-09-20T15:11:35Z</time>
      </trkpt>
      <trkpt lat="48.47349" lon="3.60463">
        <ele>112.96</ele>
        <time>2014-09-20T15:11:37Z</time>
      </trkpt>
      <trkpt lat="48.47355" lon="3.60466">
        <ele>113.02</ele>
        <time>2014-09-20T15:11:39Z</time>
      </trkpt>
      <trkpt lat="48.47361" lon="3.60471">
        <ele>113.22</ele>
        <time>2014-09-20T15:11:41Z</time>
      </trkpt>
      <trkpt lat="48.47366" lon="3.60475">
        <ele>113.33</ele>
        <time>2014-09-20T15:11:43Z</time>
      </trkpt>
      <trkpt lat="48.47371" lon="3.60479">
        <ele>113.59</ele>
        <time>2014-09-20T15:11:45Z</time>
      </trkpt>
      <trkpt lat="48.47378" lon="3.60484">
        <ele>114.09</ele>
        <time>2014-09-20T15:11:47Z</time>
      </trkpt>
      <trkpt lat="48.47384" lon="3.60487">
        <ele>114.34</ele>
        <time>2014-09-20T15:11:49Z</time>
      </trkpt>
      <trkpt lat="48.47388" lon="3.60487">
        <ele>114.45</ele>
        <time>2014-09-20T15:11:51Z</time>
      </trkpt>
      <trkpt lat="48.47393" lon="3.60495">
        <ele>114.55</ele>
        <time>2014-09-20T15:11:53Z</time>
      </trkpt>
      <trkpt lat="48.47394" lon="3.60503">
        <ele>114.63</ele>
        <time>2014-09-20T15:11:55Z</time>
      </trkpt>
      <trkpt lat="48.47391" lon="3.60512">
        <ele>114.75</ele>
        <time>2014-09-20T15:11:58Z</time>
      </trkpt>
      <trkpt lat="48.47388" lon="3.6052">
        <ele>114.83</ele>
        <time>2014-09-20T15:12:01Z</time>
      </trkpt>
      <trkpt lat="48.47387" lon="3.60527">
        <ele>114.85</ele>
        <time>2014-09-20T15:12:03Z</time>
      </trkpt>
      <trkpt lat="48.47384" lon="3.60536">
        <ele>114.94</ele>
        <time>2014-09-20T15:12:06Z</time>
      </trkpt>
      <trkpt lat="48.47381" lon="3.60543">
        <ele>115</ele>
        <time>2014-09-20T15:12:09Z</time>
      </trkpt>
      <trkpt lat="48.47379" lon="3.6055">
        <ele>114.89</ele>
        <time>2014-09-20T15:12:12Z</time>
      </trkpt>
      <trkpt lat="48.47376" lon="3.60557">
        <ele>114.72</ele>
        <time>2014-09-20T15:12:15Z</time>
      </trkpt>
      <trkpt lat="48.47373" lon="3.60564">
        <ele>114.79</ele>
        <time>2014-09-20T15:12:18Z</time>
      </trkpt>
      <trkpt lat="48.4737" lon="3.6057">
        <ele>114.53</ele>
        <time>2014-09-20T15:12:21Z</time>
      </trkpt>
      <trkpt lat="48.47366" lon="3.60576">
        <ele>114.56</ele>
        <time>2014-09-20T15:12:24Z</time>
      </trkpt>
      <trkpt lat="48.47363" lon="3.60583">
        <ele>114.72</ele>
        <time>2014-09-20T15:12:28Z</time>
      </trkpt>
      <trkpt lat="48.4736" lon="3.60588">
        <ele>114.84</ele>
        <time>2014-09-20T15:12:31Z</time>
      </trkpt>
      <trkpt lat="48.47358" lon="3.60594">
        <ele>115.02</ele>
        <time>2014-09-20T15:12:34Z</time>
      </trkpt>
      <trkpt lat="48.47356" lon="3.606">
        <ele>115.45</ele>
        <time>2014-09-20T15:12:37Z</time>
      </trkpt>
      <trkpt lat="48.47353" lon="3.60608">
        <ele>115.97</ele>
        <time>2014-09-20T15:12:41Z</time>
      </trkpt>
      <trkpt lat="48.47349" lon="3.60615">
        <ele>116.64</ele>
        <time>2014-09-20T15:12:45Z</time>
      </trkpt>
      <trkpt lat="48.47346" lon="3.60621">
        <ele>117.25</ele>
        <time>2014-09-20T15:12:48Z</time>
      </trkpt>
      <trkpt lat="48.47343" lon="3.60626">
        <ele>117.83</ele>
        <time>2014-09-20T15:12:51Z</time>
      </trkpt>
      <trkpt lat="48.4734" lon="3.60632">
        <ele>118.12</ele>
        <time>2014-09-20T15:12:55Z</time>
      </trkpt>
      <trkpt lat="48.47337" lon="3.60638">
        <ele>118.29</ele>
        <time>2014-09-20T15:12:58Z</time>
      </trkpt>
      <trkpt lat="48.47334" lon="3.60646">
        <ele>118.42</ele>
        <time>2014-09-20T15:13:02Z</time>
      </trkpt>
      <trkpt lat="48.47331" lon="3.60653">
        <ele>118.66</ele>
        <time>2014-09-20T15:13:06Z</time>
      </trkpt>
      <trkpt lat="48.47328" lon="3.60658">
        <ele>118.89</ele>
        <time>2014-09-20T15:13:09Z</time>
      </trkpt>
      <trkpt lat="48.47325" lon="3.60664">
        <ele>119.41</ele>
        <time>2014-09-20T15:13:12Z</time>
      </trkpt>
      <trkpt lat="48.47323" lon="3.60671">
        <ele>119.86</ele>
        <time>2014-09-20T15:13:15Z</time>
      </trkpt>
      <trkpt lat="48.4732" lon="3.60677">
        <ele>120.27</ele>
        <time>2014-09-20T15:13:18Z</time>
      </trkpt>
      <trkpt lat="48.47318" lon="3.60683">
        <ele>120.78</ele>
        <time>2014-09-20T15:13:21Z</time>
      </trkpt>
      <trkpt lat="48.47316" lon="3.60689">
        <ele>121.47</ele>
        <time>2014-09-20T15:13:24Z</time>
      </trkpt>
      <trkpt lat="48.47312" lon="3.60696">
        <ele>122.71</ele>
        <time>2014-09-20T15:13:28Z</time>
      </trkpt>
      <trkpt lat="48.47309" lon="3.60703">
        <ele>123.25</ele>
        <time>2014-09-20T15:13:32Z</time>
      </trkpt>
      <trkpt lat="48.47306" lon="3.60709">
        <ele>123.57</ele>
        <time>2014-09-20T15:13:35Z</time>
      </trkpt>
      <trkpt lat="48.47303" lon="3.60716">
        <ele>123.94</ele>
        <time>2014-09-20T15:13:39Z</time>
      </trkpt>
      <trkpt lat="48.47297" lon="3.6073">
        <ele>124.64</ele>
        <time>2014-09-20T15:13:49Z</time>
      </trkpt>
      <trkpt lat="48.47295" lon="3.60736">
        <ele>124.97</ele>
        <time>2014-09-20T15:13:52Z</time>
      </trkpt>
      <trkpt lat="48.47292" lon="3.60742">
        <ele>125.64</ele>
        <time>2014-09-20T15:13:55Z</time>
      </trkpt>
      <trkpt lat="48.47288" lon="3.60747">
        <ele>126.29</ele>
        <time>2014-09-20T15:13:58Z</time>
      </trkpt>
      <trkpt lat="48.47285" lon="3.60754">
        <ele>127.24</ele>
        <time>2014-09-20T15:14:02Z</time>
      </trkpt>
      <trkpt lat="48.47282" lon="3.60759">
        <ele>127.95</ele>
        <time>2014-09-20T15:14:05Z</time>
      </trkpt>
      <trkpt lat="48.47279" lon="3.60766">
        <ele>128.98</ele>
        <time>2014-09-20T15:14:08Z</time>
      </trkpt>
      <trkpt lat="48.47276" lon="3.60773">
        <ele>130.14</ele>
        <time>2014-09-20T15:14:11Z</time>
      </trkpt>
      <trkpt lat="48.47273" lon="3.6078">
        <ele>130.92</ele>
        <time>2014-09-20T15:14:14Z</time>
      </trkpt>
      <trkpt lat="48.47268" lon="3.6079">
        <ele>131.05</ele>
        <time>2014-09-20T15:14:19Z</time>
      </trkpt>
      <trkpt lat="48.47265" lon="3.60798">
        <ele>131.46</ele>
        <time>2014-09-20T15:14:22Z</time>
      </trkpt>
      <trkpt lat="48.47253" lon="3.6082">
        <ele>133.61</ele>
        <time>2014-09-20T15:14:33Z</time>
      </trkpt>
      <trkpt lat="48.47249" lon="3.60828">
        <ele>135.08</ele>
        <time>2014-09-20T15:14:36Z</time>
      </trkpt>
      <trkpt lat="48.47247" lon="3.60836">
        <ele>136.39</ele>
        <time>2014-09-20T15:14:39Z</time>
      </trkpt>
      <trkpt lat="48.47238" lon="3.60854">
        <ele>138.65</ele>
        <time>2014-09-20T15:14:47Z</time>
      </trkpt>
      <trkpt lat="48.47236" lon="3.6086">
        <ele>139.01</ele>
        <time>2014-09-20T15:14:49Z</time>
      </trkpt>
      <trkpt lat="48.47233" lon="3.60867">
        <ele>139.12</ele>
        <time>2014-09-20T15:14:52Z</time>
      </trkpt>
      <trkpt lat="48.47229" lon="3.60875">
        <ele>139.22</ele>
        <time>2014-09-20T15:14:56Z</time>
      </trkpt>
      <trkpt lat="48.47226" lon="3.60883">
        <ele>139.15</ele>
        <time>2014-09-20T15:14:59Z</time>
      </trkpt>
      <trkpt lat="48.47223" lon="3.60889">
        <ele>138.95</ele>
        <time>2014-09-20T15:15:02Z</time>
      </trkpt>
      <trkpt lat="48.47219" lon="3.60896">
        <ele>138.61</ele>
        <time>2014-09-20T15:15:05Z</time>
      </trkpt>
      <trkpt lat="48.47217" lon="3.60903">
        <ele>138.35</ele>
        <time>2014-09-20T15:15:07Z</time>
      </trkpt>
      <trkpt lat="48.47217" lon="3.60911">
        <ele>138</ele>
        <time>2014-09-20T15:15:09Z</time>
      </trkpt>
      <trkpt lat="48.4722" lon="3.60917">
        <ele>137.84</ele>
        <time>2014-09-20T15:15:11Z</time>
      </trkpt>
      <trkpt lat="48.47226" lon="3.60921">
        <ele>137.73</ele>
        <time>2014-09-20T15:15:14Z</time>
      </trkpt>
      <trkpt lat="48.4723" lon="3.60924">
        <ele>137.91</ele>
        <time>2014-09-20T15:15:16Z</time>
      </trkpt>
      <trkpt lat="48.47235" lon="3.60926">
        <ele>138.14</ele>
        <time>2014-09-20T15:15:18Z</time>
      </trkpt>
      <trkpt lat="48.4724" lon="3.60928">
        <ele>138.23</ele>
        <time>2014-09-20T15:15:21Z</time>
      </trkpt>
      <trkpt lat="48.47245" lon="3.60932">
        <ele>138.08</ele>
        <time>2014-09-20T15:15:24Z</time>
      </trkpt>
      <trkpt lat="48.47251" lon="3.60938">
        <ele>137.96</ele>
        <time>2014-09-20T15:15:27Z</time>
      </trkpt>
      <trkpt lat="48.47254" lon="3.60943">
        <ele>137.68</ele>
        <time>2014-09-20T15:15:29Z</time>
      </trkpt>
      <trkpt lat="48.47258" lon="3.60948">
        <ele>137.64</ele>
        <time>2014-09-20T15:15:31Z</time>
      </trkpt>
      <trkpt lat="48.47262" lon="3.60956">
        <ele>137.56</ele>
        <time>2014-09-20T15:15:34Z</time>
      </trkpt>
      <trkpt lat="48.47266" lon="3.60961">
        <ele>137.53</ele>
        <time>2014-09-20T15:15:36Z</time>
      </trkpt>
      <trkpt lat="48.47269" lon="3.60968">
        <ele>137.62</ele>
        <time>2014-09-20T15:15:38Z</time>
      </trkpt>
      <trkpt lat="48.47273" lon="3.60975">
        <ele>137.99</ele>
        <time>2014-09-20T15:15:40Z</time>
      </trkpt>
      <trkpt lat="48.47277" lon="3.60982">
        <ele>138.38</ele>
        <time>2014-09-20T15:15:42Z</time>
      </trkpt>
      <trkpt lat="48.47279" lon="3.60989">
        <ele>138.76</ele>
        <time>2014-09-20T15:15:44Z</time>
      </trkpt>
      <trkpt lat="48.47283" lon="3.60996">
        <ele>139.22</ele>
        <time>2014-09-20T15:15:46Z</time>
      </trkpt>
      <trkpt lat="48.47286" lon="3.61003">
        <ele>139.77</ele>
        <time>2014-09-20T15:15:48Z</time>
      </trkpt>
      <trkpt lat="48.4729" lon="3.61008">
        <ele>139.98</ele>
        <time>2014-09-20T15:15:50Z</time>
      </trkpt>
      <trkpt lat="48.47292" lon="3.61014">
        <ele>139.87</ele>
        <time>2014-09-20T15:15:52Z</time>
      </trkpt>
      <trkpt lat="48.47296" lon="3.6102">
        <ele>139.86</ele>
        <time>2014-09-20T15:15:54Z</time>
      </trkpt>
      <trkpt lat="48.47299" lon="3.61025">
        <ele>140.02</ele>
        <time>2014-09-20T15:15:56Z</time>
      </trkpt>
      <trkpt lat="48.47303" lon="3.61033">
        <ele>140.17</ele>
        <time>2014-09-20T15:15:59Z</time>
      </trkpt>
      <trkpt lat="48.47309" lon="3.61039">
        <ele>140.13</ele>
        <time>2014-09-20T15:16:01Z</time>
      </trkpt>
      <trkpt lat="48.47313" lon="3.61045">
        <ele>139.99</ele>
        <time>2014-09-20T15:16:03Z</time>
      </trkpt>
      <trkpt lat="48.47318" lon="3.6105">
        <ele>139.81</ele>
        <time>2014-09-20T15:16:05Z</time>
      </trkpt>
      <trkpt lat="48.47323" lon="3.61054">
        <ele>139.89</ele>
        <time>2014-09-20T15:16:07Z</time>
      </trkpt>
      <trkpt lat="48.47328" lon="3.6106">
        <ele>139.96</ele>
        <time>2014-09-20T15:16:09Z</time>
      </trkpt>
      <trkpt lat="48.47332" lon="3.61067">
        <ele>140.1</ele>
        <time>2014-09-20T15:16:11Z</time>
      </trkpt>
      <trkpt lat="48.47336" lon="3.61073">
        <ele>140.16</ele>
        <time>2014-09-20T15:16:13Z</time>
      </trkpt>
      <trkpt lat="48.4734" lon="3.6108">
        <ele>140.45</ele>
        <time>2014-09-20T15:16:15Z</time>
      </trkpt>
      <trkpt lat="48.47345" lon="3.61086">
        <ele>140.77</ele>
        <time>2014-09-20T15:16:17Z</time>
      </trkpt>
      <trkpt lat="48.4735" lon="3.61091">
        <ele>140.9</ele>
        <time>2014-09-20T15:16:19Z</time>
      </trkpt>
      <trkpt lat="48.47355" lon="3.61094">
        <ele>140.95</ele>
        <time>2014-09-20T15:16:21Z</time>
      </trkpt>
      <trkpt lat="48.47361" lon="3.61099">
        <ele>140.48</ele>
        <time>2014-09-20T15:16:23Z</time>
      </trkpt>
      <trkpt lat="48.47366" lon="3.61103">
        <ele>139.95</ele>
        <time>2014-09-20T15:16:25Z</time>
      </trkpt>
      <trkpt lat="48.47366" lon="3.61109">
        <ele>139.62</ele>
        <time>2014-09-20T15:16:28Z</time>
      </trkpt>
      <trkpt lat="48.47375" lon="3.6113">
        <ele>139.07</ele>
        <time>2014-09-20T15:16:38Z</time>
      </trkpt>
      <trkpt lat="48.47379" lon="3.61137">
        <ele>139.05</ele>
        <time>2014-09-20T15:16:40Z</time>
      </trkpt>
      <trkpt lat="48.47382" lon="3.61143">
        <ele>138.85</ele>
        <time>2014-09-20T15:16:43Z</time>
      </trkpt>
      <trkpt lat="48.47386" lon="3.61151">
        <ele>138.75</ele>
        <time>2014-09-20T15:16:46Z</time>
      </trkpt>
      <trkpt lat="48.47391" lon="3.61155">
        <ele>138.6</ele>
        <time>2014-09-20T15:16:48Z</time>
      </trkpt>
      <trkpt lat="48.47395" lon="3.61161">
        <ele>138.23</ele>
        <time>2014-09-20T15:16:51Z</time>
      </trkpt>
      <trkpt lat="48.474" lon="3.61167">
        <ele>137.96</ele>
        <time>2014-09-20T15:16:55Z</time>
      </trkpt>
      <trkpt lat="48.47386" lon="3.61193">
        <ele>137.88</ele>
        <time>2014-09-20T15:18:01Z</time>
      </trkpt>
      <trkpt lat="48.47389" lon="3.61199">
        <ele>137.92</ele>
        <time>2014-09-20T15:18:04Z</time>
      </trkpt>
      <trkpt lat="48.47396" lon="3.61219">
        <ele>137.88</ele>
        <time>2014-09-20T15:18:13Z</time>
      </trkpt>
      <trkpt lat="48.47396" lon="3.61227">
        <ele>137.93</ele>
        <time>2014-09-20T15:18:16Z</time>
      </trkpt>
      <trkpt lat="48.47397" lon="3.61236">
        <ele>138.41</ele>
        <time>2014-09-20T15:18:19Z</time>
      </trkpt>
      <trkpt lat="48.47398" lon="3.61244">
        <ele>138.9</ele>
        <time>2014-09-20T15:18:22Z</time>
      </trkpt>
      <trkpt lat="48.47399" lon="3.61252">
        <ele>139.23</ele>
        <time>2014-09-20T15:18:25Z</time>
      </trkpt>
      <trkpt lat="48.474" lon="3.61259">
        <ele>139.13</ele>
        <time>2014-09-20T15:18:28Z</time>
      </trkpt>
      <trkpt lat="48.47401" lon="3.61267">
        <ele>139.32</ele>
        <time>2014-09-20T15:18:31Z</time>
      </trkpt>
      <trkpt lat="48.47403" lon="3.61274">
        <ele>139.55</ele>
        <time>2014-09-20T15:18:33Z</time>
      </trkpt>
      <trkpt lat="48.47407" lon="3.61319">
        <ele>140.67</ele>
        <time>2014-09-20T15:18:50Z</time>
      </trkpt>
      <trkpt lat="48.47409" lon="3.61326">
        <ele>141.23</ele>
        <time>2014-09-20T15:18:52Z</time>
      </trkpt>
      <trkpt lat="48.47408" lon="3.61334">
        <ele>141.43</ele>
        <time>2014-09-20T15:18:54Z</time>
      </trkpt>
      <trkpt lat="48.47408" lon="3.61343">
        <ele>141.78</ele>
        <time>2014-09-20T15:18:57Z</time>
      </trkpt>
      <trkpt lat="48.47409" lon="3.61352">
        <ele>142.27</ele>
        <time>2014-09-20T15:19:00Z</time>
      </trkpt>
      <trkpt lat="48.47411" lon="3.61361">
        <ele>142.96</ele>
        <time>2014-09-20T15:19:03Z</time>
      </trkpt>
      <trkpt lat="48.47413" lon="3.61369">
        <ele>143.52</ele>
        <time>2014-09-20T15:19:06Z</time>
      </trkpt>
      <trkpt lat="48.47417" lon="3.61375">
        <ele>143.82</ele>
        <time>2014-09-20T15:19:09Z</time>
      </trkpt>
      <trkpt lat="48.47419" lon="3.61382">
        <ele>143.73</ele>
        <time>2014-09-20T15:19:12Z</time>
      </trkpt>
      <trkpt lat="48.47423" lon="3.61389">
        <ele>143.79</ele>
        <time>2014-09-20T15:19:15Z</time>
      </trkpt>
      <trkpt lat="48.47426" lon="3.61396">
        <ele>144.02</ele>
        <time>2014-09-20T15:19:18Z</time>
      </trkpt>
      <trkpt lat="48.47429" lon="3.61404">
        <ele>144.26</ele>
        <time>2014-09-20T15:19:20Z</time>
      </trkpt>
      <trkpt lat="48.4743" lon="3.61413">
        <ele>144.76</ele>
        <time>2014-09-20T15:19:23Z</time>
      </trkpt>
      <trkpt lat="48.47431" lon="3.6142">
        <ele>145.02</ele>
        <time>2014-09-20T15:19:25Z</time>
      </trkpt>
      <trkpt lat="48.47432" lon="3.61427">
        <ele>145.29</ele>
        <time>2014-09-20T15:19:27Z</time>
      </trkpt>
      <trkpt lat="48.47433" lon="3.61434">
        <ele>145.25</ele>
        <time>2014-09-20T15:19:29Z</time>
      </trkpt>
      <trkpt lat="48.47434" lon="3.61442">
        <ele>145.04</ele>
        <time>2014-09-20T15:19:31Z</time>
      </trkpt>
      <trkpt lat="48.47434" lon="3.61449">
        <ele>145.04</ele>
        <time>2014-09-20T15:19:33Z</time>
      </trkpt>
      <trkpt lat="48.47436" lon="3.61458">
        <ele>144.82</ele>
        <time>2014-09-20T15:19:36Z</time>
      </trkpt>
      <trkpt lat="48.47439" lon="3.61466">
        <ele>144.47</ele>
        <time>2014-09-20T15:19:39Z</time>
      </trkpt>
      <trkpt lat="48.4744" lon="3.61473">
        <ele>144.61</ele>
        <time>2014-09-20T15:19:41Z</time>
      </trkpt>
      <trkpt lat="48.47441" lon="3.61481">
        <ele>144.84</ele>
        <time>2014-09-20T15:19:43Z</time>
      </trkpt>
      <trkpt lat="48.47444" lon="3.61487">
        <ele>144.93</ele>
        <time>2014-09-20T15:19:45Z</time>
      </trkpt>
      <trkpt lat="48.47445" lon="3.61494">
        <ele>145.16</ele>
        <time>2014-09-20T15:19:47Z</time>
      </trkpt>
      <trkpt lat="48.47449" lon="3.61502">
        <ele>145.34</ele>
        <time>2014-09-20T15:19:50Z</time>
      </trkpt>
      <trkpt lat="48.47452" lon="3.61508">
        <ele>145.46</ele>
        <time>2014-09-20T15:19:52Z</time>
      </trkpt>
      <trkpt lat="48.47456" lon="3.61513">
        <ele>145.48</ele>
        <time>2014-09-20T15:19:54Z</time>
      </trkpt>
      <trkpt lat="48.47459" lon="3.61519">
        <ele>145.62</ele>
        <time>2014-09-20T15:19:56Z</time>
      </trkpt>
      <trkpt lat="48.47463" lon="3.61527">
        <ele>145.75</ele>
        <time>2014-09-20T15:19:58Z</time>
      </trkpt>
      <trkpt lat="48.47467" lon="3.61536">
        <ele>145.69</ele>
        <time>2014-09-20T15:20:00Z</time>
      </trkpt>
      <trkpt lat="48.47471" lon="3.61545">
        <ele>145.49</ele>
        <time>2014-09-20T15:20:02Z</time>
      </trkpt>
      <trkpt lat="48.47474" lon="3.61554">
        <ele>145.22</ele>
        <time>2014-09-20T15:20:04Z</time>
      </trkpt>
      <trkpt lat="48.47477" lon="3.61563">
        <ele>145.11</ele>
        <time>2014-09-20T15:20:06Z</time>
      </trkpt>
      <trkpt lat="48.47479" lon="3.61571">
        <ele>144.92</ele>
        <time>2014-09-20T15:20:08Z</time>
      </trkpt>
      <trkpt lat="48.4748" lon="3.61578">
        <ele>144.79</ele>
        <time>2014-09-20T15:20:10Z</time>
      </trkpt>
      <trkpt lat="48.47483" lon="3.61589">
        <ele>144.48</ele>
        <time>2014-09-20T15:20:13Z</time>
      </trkpt>
      <trkpt lat="48.47486" lon="3.61595">
        <ele>144.24</ele>
        <time>2014-09-20T15:20:14Z</time>
      </trkpt>
      <trkpt lat="48.47491" lon="3.61604">
        <ele>143.98</ele>
        <time>2014-09-20T15:20:16Z</time>
      </trkpt>
      <trkpt lat="48.47494" lon="3.61612">
        <ele>144.03</ele>
        <time>2014-09-20T15:20:18Z</time>
      </trkpt>
      <trkpt lat="48.47496" lon="3.61618">
        <ele>144.12</ele>
        <time>2014-09-20T15:20:20Z</time>
      </trkpt>
      <trkpt lat="48.47499" lon="3.61626">
        <ele>144.13</ele>
        <time>2014-09-20T15:20:23Z</time>
      </trkpt>
      <trkpt lat="48.47503" lon="3.61632">
        <ele>144.1</ele>
        <time>2014-09-20T15:20:24Z</time>
      </trkpt>
      <trkpt lat="48.47505" lon="3.61642">
        <ele>143.96</ele>
        <time>2014-09-20T15:20:26Z</time>
      </trkpt>
      <trkpt lat="48.47508" lon="3.61651">
        <ele>143.85</ele>
        <time>2014-09-20T15:20:28Z</time>
      </trkpt>
      <trkpt lat="48.47511" lon="3.6166">
        <ele>143.74</ele>
        <time>2014-09-20T15:20:30Z</time>
      </trkpt>
      <trkpt lat="48.47515" lon="3.61668">
        <ele>143.82</ele>
        <time>2014-09-20T15:20:32Z</time>
      </trkpt>
      <trkpt lat="48.47518" lon="3.61676">
        <ele>143.91</ele>
        <time>2014-09-20T15:20:34Z</time>
      </trkpt>
      <trkpt lat="48.47521" lon="3.61683">
        <ele>143.99</ele>
        <time>2014-09-20T15:20:36Z</time>
      </trkpt>
      <trkpt lat="48.47524" lon="3.6169">
        <ele>144.2</ele>
        <time>2014-09-20T15:20:38Z</time>
      </trkpt>
      <trkpt lat="48.47525" lon="3.61698">
        <ele>144.42</ele>
        <time>2014-09-20T15:20:40Z</time>
      </trkpt>
      <trkpt lat="48.47527" lon="3.61706">
        <ele>144.71</ele>
        <time>2014-09-20T15:20:43Z</time>
      </trkpt>
      <trkpt lat="48.4753" lon="3.61711">
        <ele>144.54</ele>
        <time>2014-09-20T15:20:45Z</time>
      </trkpt>
      <trkpt lat="48.47536" lon="3.61712">
        <ele>144.78</ele>
        <time>2014-09-20T15:20:48Z</time>
      </trkpt>
      <trkpt lat="48.47542" lon="3.61709">
        <ele>145.22</ele>
        <time>2014-09-20T15:20:50Z</time>
      </trkpt>
      <trkpt lat="48.4755" lon="3.61706">
        <ele>145.37</ele>
        <time>2014-09-20T15:20:52Z</time>
      </trkpt>
      <trkpt lat="48.47557" lon="3.61702">
        <ele>145.3</ele>
        <time>2014-09-20T15:20:54Z</time>
      </trkpt>
      <trkpt lat="48.47565" lon="3.61699">
        <ele>145.27</ele>
        <time>2014-09-20T15:20:56Z</time>
      </trkpt>
      <trkpt lat="48.47572" lon="3.61695">
        <ele>145.32</ele>
        <time>2014-09-20T15:20:58Z</time>
      </trkpt>
      <trkpt lat="48.47578" lon="3.61691">
        <ele>145.3</ele>
        <time>2014-09-20T15:21:00Z</time>
      </trkpt>
      <trkpt lat="48.47585" lon="3.61686">
        <ele>145.27</ele>
        <time>2014-09-20T15:21:02Z</time>
      </trkpt>
      <trkpt lat="48.47592" lon="3.6168">
        <ele>145.07</ele>
        <time>2014-09-20T15:21:04Z</time>
      </trkpt>
      <trkpt lat="48.476" lon="3.61675">
        <ele>144.78</ele>
        <time>2014-09-20T15:21:06Z</time>
      </trkpt>
      <trkpt lat="48.47607" lon="3.6167">
        <ele>144.47</ele>
        <time>2014-09-20T15:21:08Z</time>
      </trkpt>
      <trkpt lat="48.47613" lon="3.61666">
        <ele>144.09</ele>
        <time>2014-09-20T15:21:10Z</time>
      </trkpt>
      <trkpt lat="48.4762" lon="3.61664">
        <ele>143.78</ele>
        <time>2014-09-20T15:21:12Z</time>
      </trkpt>
      <trkpt lat="48.47626" lon="3.61662">
        <ele>143.56</ele>
        <time>2014-09-20T15:21:14Z</time>
      </trkpt>
      <trkpt lat="48.47632" lon="3.6166">
        <ele>143.39</ele>
        <time>2014-09-20T15:21:16Z</time>
      </trkpt>
      <trkpt lat="48.47639" lon="3.61659">
        <ele>143.32</ele>
        <time>2014-09-20T15:21:18Z</time>
      </trkpt>
      <trkpt lat="48.47646" lon="3.61656">
        <ele>143.35</ele>
        <time>2014-09-20T15:21:20Z</time>
      </trkpt>
      <trkpt lat="48.47652" lon="3.61655">
        <ele>143.45</ele>
        <time>2014-09-20T15:21:22Z</time>
      </trkpt>
      <trkpt lat="48.47658" lon="3.61653">
        <ele>143.55</ele>
        <time>2014-09-20T15:21:24Z</time>
      </trkpt>
      <trkpt lat="48.47664" lon="3.61651">
        <ele>143.65</ele>
        <time>2014-09-20T15:21:26Z</time>
      </trkpt>
      <trkpt lat="48.4767" lon="3.6165">
        <ele>143.77</ele>
        <time>2014-09-20T15:21:28Z</time>
      </trkpt>
      <trkpt lat="48.47675" lon="3.61648">
        <ele>143.91</ele>
        <time>2014-09-20T15:21:30Z</time>
      </trkpt>
      <trkpt lat="48.4768" lon="3.61646">
        <ele>144.03</ele>
        <time>2014-09-20T15:21:32Z</time>
      </trkpt>
      <trkpt lat="48.47685" lon="3.61645">
        <ele>144.12</ele>
        <time>2014-09-20T15:21:34Z</time>
      </trkpt>
      <trkpt lat="48.4769" lon="3.61643">
        <ele>144.23</ele>
        <time>2014-09-20T15:21:36Z</time>
      </trkpt>
      <trkpt lat="48.47696" lon="3.61642">
        <ele>144.36</ele>
        <time>2014-09-20T15:21:38Z</time>
      </trkpt>
      <trkpt lat="48.47701" lon="3.6164">
        <ele>144.5</ele>
        <time>2014-09-20T15:21:40Z</time>
      </trkpt>
      <trkpt lat="48.47705" lon="3.61639">
        <ele>144.67</ele>
        <time>2014-09-20T15:21:42Z</time>
      </trkpt>
      <trkpt lat="48.4771" lon="3.61638">
        <ele>144.83</ele>
        <time>2014-09-20T15:21:44Z</time>
      </trkpt>
      <trkpt lat="48.47715" lon="3.61636">
        <ele>144.98</ele>
        <time>2014-09-20T15:21:46Z</time>
      </trkpt>
      <trkpt lat="48.4772" lon="3.61634">
        <ele>145.16</ele>
        <time>2014-09-20T15:21:48Z</time>
      </trkpt>
      <trkpt lat="48.47724" lon="3.61633">
        <ele>145.35</ele>
        <time>2014-09-20T15:21:50Z</time>
      </trkpt>
      <trkpt lat="48.47729" lon="3.61632">
        <ele>145.49</ele>
        <time>2014-09-20T15:21:52Z</time>
      </trkpt>
      <trkpt lat="48.47734" lon="3.6163">
        <ele>145.62</ele>
        <time>2014-09-20T15:21:54Z</time>
      </trkpt>
      <trkpt lat="48.47739" lon="3.61629">
        <ele>145.74</ele>
        <time>2014-09-20T15:21:56Z</time>
      </trkpt>
      <trkpt lat="48.47744" lon="3.61627">
        <ele>145.85</ele>
        <time>2014-09-20T15:21:58Z</time>
      </trkpt>
      <trkpt lat="48.47749" lon="3.61625">
        <ele>145.97</ele>
        <time>2014-09-20T15:22:00Z</time>
      </trkpt>
      <trkpt lat="48.47754" lon="3.61624">
        <ele>146.08</ele>
        <time>2014-09-20T15:22:02Z</time>
      </trkpt>
      <trkpt lat="48.47759" lon="3.61622">
        <ele>146.17</ele>
        <time>2014-09-20T15:22:04Z</time>
      </trkpt>
      <trkpt lat="48.47764" lon="3.61621">
        <ele>146.31</ele>
        <time>2014-09-20T15:22:06Z</time>
      </trkpt>
      <trkpt lat="48.47769" lon="3.61619">
        <ele>146.47</ele>
        <time>2014-09-20T15:22:08Z</time>
      </trkpt>
      <trkpt lat="48.47774" lon="3.61618">
        <ele>146.61</ele>
        <time>2014-09-20T15:22:10Z</time>
      </trkpt>
      <trkpt lat="48.47779" lon="3.61616">
        <ele>146.75</ele>
        <time>2014-09-20T15:22:12Z</time>
      </trkpt>
      <trkpt lat="48.47784" lon="3.61614">
        <ele>146.83</ele>
        <time>2014-09-20T15:22:14Z</time>
      </trkpt>
      <trkpt lat="48.47789" lon="3.61613">
        <ele>146.94</ele>
        <time>2014-09-20T15:22:16Z</time>
      </trkpt>
      <trkpt lat="48.47794" lon="3.61611">
        <ele>147.05</ele>
        <time>2014-09-20T15:22:18Z</time>
      </trkpt>
      <trkpt lat="48.47799" lon="3.6161">
        <ele>147.2</ele>
        <time>2014-09-20T15:22:20Z</time>
      </trkpt>
      <trkpt lat="48.47804" lon="3.61608">
        <ele>147.39</ele>
        <time>2014-09-20T15:22:22Z</time>
      </trkpt>
      <trkpt lat="48.47809" lon="3.61607">
        <ele>147.58</ele>
        <time>2014-09-20T15:22:24Z</time>
      </trkpt>
      <trkpt lat="48.47814" lon="3.61605">
        <ele>147.76</ele>
        <time>2014-09-20T15:22:26Z</time>
      </trkpt>
      <trkpt lat="48.47819" lon="3.61604">
        <ele>147.92</ele>
        <time>2014-09-20T15:22:28Z</time>
      </trkpt>
      <trkpt lat="48.47824" lon="3.61602">
        <ele>147.99</ele>
        <time>2014-09-20T15:22:30Z</time>
      </trkpt>
      <trkpt lat="48.47829" lon="3.616">
        <ele>148.08</ele>
        <time>2014-09-20T15:22:32Z</time>
      </trkpt>
      <trkpt lat="48.47834" lon="3.61599">
        <ele>148.17</ele>
        <time>2014-09-20T15:22:34Z</time>
      </trkpt>
      <trkpt lat="48.4784" lon="3.61597">
        <ele>148.31</ele>
        <time>2014-09-20T15:22:36Z</time>
      </trkpt>
      <trkpt lat="48.47845" lon="3.61596">
        <ele>148.45</ele>
        <time>2014-09-20T15:22:38Z</time>
      </trkpt>
      <trkpt lat="48.4785" lon="3.61594">
        <ele>148.6</ele>
        <time>2014-09-20T15:22:40Z</time>
      </trkpt>
      <trkpt lat="48.47856" lon="3.61592">
        <ele>148.72</ele>
        <time>2014-09-20T15:22:42Z</time>
      </trkpt>
      <trkpt lat="48.47861" lon="3.61591">
        <ele>148.81</ele>
        <time>2014-09-20T15:22:44Z</time>
      </trkpt>
      <trkpt lat="48.47867" lon="3.61589">
        <ele>148.88</ele>
        <time>2014-09-20T15:22:46Z</time>
      </trkpt>
      <trkpt lat="48.47874" lon="3.61587">
        <ele>148.85</ele>
        <time>2014-09-20T15:22:48Z</time>
      </trkpt>
      <trkpt lat="48.47881" lon="3.61585">
        <ele>148.7</ele>
        <time>2014-09-20T15:22:50Z</time>
      </trkpt>
      <trkpt lat="48.4789" lon="3.61582">
        <ele>148.42</ele>
        <time>2014-09-20T15:22:52Z</time>
      </trkpt>
      <trkpt lat="48.47895" lon="3.61581">
        <ele>148.17</ele>
        <time>2014-09-20T15:22:53Z</time>
      </trkpt>
      <trkpt lat="48.479" lon="3.61579">
        <ele>147.84</ele>
        <time>2014-09-20T15:22:54Z</time>
      </trkpt>
      <trkpt lat="48.47906" lon="3.61577">
        <ele>147.46</ele>
        <time>2014-09-20T15:22:55Z</time>
      </trkpt>
      <trkpt lat="48.47911" lon="3.61575">
        <ele>147.08</ele>
        <time>2014-09-20T15:22:56Z</time>
      </trkpt>
      <trkpt lat="48.47918" lon="3.61573">
        <ele>146.69</ele>
        <time>2014-09-20T15:22:57Z</time>
      </trkpt>
      <trkpt lat="48.47924" lon="3.61571">
        <ele>146.35</ele>
        <time>2014-09-20T15:22:58Z</time>
      </trkpt>
      <trkpt lat="48.47931" lon="3.61569">
        <ele>146.04</ele>
        <time>2014-09-20T15:22:59Z</time>
      </trkpt>
      <trkpt lat="48.47937" lon="3.61567">
        <ele>145.76</ele>
        <time>2014-09-20T15:23:00Z</time>
      </trkpt>
      <trkpt lat="48.47944" lon="3.61564">
        <ele>145.48</ele>
        <time>2014-09-20T15:23:01Z</time>
      </trkpt>
      <trkpt lat="48.47951" lon="3.61562">
        <ele>145.17</ele>
        <time>2014-09-20T15:23:02Z</time>
      </trkpt>
      <trkpt lat="48.47958" lon="3.61559">
        <ele>144.88</ele>
        <time>2014-09-20T15:23:03Z</time>
      </trkpt>
      <trkpt lat="48.47964" lon="3.61556">
        <ele>144.59</ele>
        <time>2014-09-20T15:23:04Z</time>
      </trkpt>
      <trkpt lat="48.47971" lon="3.61553">
        <ele>144.28</ele>
        <time>2014-09-20T15:23:05Z</time>
      </trkpt>
      <trkpt lat="48.47978" lon="3.61551">
        <ele>143.97</ele>
        <time>2014-09-20T15:23:06Z</time>
      </trkpt>
      <trkpt lat="48.47985" lon="3.61549">
        <ele>143.61</ele>
        <time>2014-09-20T15:23:07Z</time>
      </trkpt>
      <trkpt lat="48.47992" lon="3.61546">
        <ele>143.24</ele>
        <time>2014-09-20T15:23:08Z</time>
      </trkpt>
      <trkpt lat="48.48" lon="3.61544">
        <ele>142.83</ele>
        <time>2014-09-20T15:23:09Z</time>
      </trkpt>
      <trkpt lat="48.48007" lon="3.61542">
        <ele>142.41</ele>
        <time>2014-09-20T15:23:10Z</time>
      </trkpt>
      <trkpt lat="48.48015" lon="3.61539">
        <ele>141.96</ele>
        <time>2014-09-20T15:23:11Z</time>
      </trkpt>
      <trkpt lat="48.48023" lon="3.61536">
        <ele>141.48</ele>
        <time>2014-09-20T15:23:12Z</time>
      </trkpt>
      <trkpt lat="48.48032" lon="3.61533">
        <ele>141.02</ele>
        <time>2014-09-20T15:23:13Z</time>
      </trkpt>
      <trkpt lat="48.4804" lon="3.61531">
        <ele>140.54</ele>
        <time>2014-09-20T15:23:14Z</time>
      </trkpt>
      <trkpt lat="48.48049" lon="3.61527">
        <ele>140.04</ele>
        <time>2014-09-20T15:23:15Z</time>
      </trkpt>
      <trkpt lat="48.48057" lon="3.61524">
        <ele>139.56</ele>
        <time>2014-09-20T15:23:16Z</time>
      </trkpt>
      <trkpt lat="48.48065" lon="3.61521">
        <ele>139.13</ele>
        <time>2014-09-20T15:23:17Z</time>
      </trkpt>
      <trkpt lat="48.48072" lon="3.61521">
        <ele>138.68</ele>
        <time>2014-09-20T15:23:18Z</time>
      </trkpt>
      <trkpt lat="48.48078" lon="3.61524">
        <ele>138.22</ele>
        <time>2014-09-20T15:23:19Z</time>
      </trkpt>
      <trkpt lat="48.48082" lon="3.6153">
        <ele>137.79</ele>
        <time>2014-09-20T15:23:20Z</time>
      </trkpt>
      <trkpt lat="48.48085" lon="3.61538">
        <ele>137.5</ele>
        <time>2014-09-20T15:23:21Z</time>
      </trkpt>
      <trkpt lat="48.48086" lon="3.61547">
        <ele>137.28</ele>
        <time>2014-09-20T15:23:22Z</time>
      </trkpt>
      <trkpt lat="48.48088" lon="3.61555">
        <ele>137.12</ele>
        <time>2014-09-20T15:23:23Z</time>
      </trkpt>
      <trkpt lat="48.48089" lon="3.61564">
        <ele>137.02</ele>
        <time>2014-09-20T15:23:24Z</time>
      </trkpt>
      <trkpt lat="48.48091" lon="3.61572">
        <ele>136.97</ele>
        <time>2014-09-20T15:23:25Z</time>
      </trkpt>
      <trkpt lat="48.48092" lon="3.6158">
        <ele>136.94</ele>
        <time>2014-09-20T15:23:26Z</time>
      </trkpt>
      <trkpt lat="48.48094" lon="3.61588">
        <ele>136.93</ele>
        <time>2014-09-20T15:23:27Z</time>
      </trkpt>
      <trkpt lat="48.48095" lon="3.61596">
        <ele>136.96</ele>
        <time>2014-09-20T15:23:28Z</time>
      </trkpt>
      <trkpt lat="48.48097" lon="3.61604">
        <ele>136.98</ele>
        <time>2014-09-20T15:23:29Z</time>
      </trkpt>
      <trkpt lat="48.48098" lon="3.61613">
        <ele>137.01</ele>
        <time>2014-09-20T15:23:30Z</time>
      </trkpt>
      <trkpt lat="48.481" lon="3.61621">
        <ele>137.07</ele>
        <time>2014-09-20T15:23:31Z</time>
      </trkpt>
      <trkpt lat="48.48101" lon="3.61629">
        <ele>137.11</ele>
        <time>2014-09-20T15:23:32Z</time>
      </trkpt>
      <trkpt lat="48.48103" lon="3.61637">
        <ele>137.16</ele>
        <time>2014-09-20T15:23:33Z</time>
      </trkpt>
      <trkpt lat="48.48105" lon="3.61646">
        <ele>137.23</ele>
        <time>2014-09-20T15:23:34Z</time>
      </trkpt>
      <trkpt lat="48.48106" lon="3.61654">
        <ele>137.3</ele>
        <time>2014-09-20T15:23:35Z</time>
      </trkpt>
      <trkpt lat="48.48108" lon="3.61662">
        <ele>137.36</ele>
        <time>2014-09-20T15:23:36Z</time>
      </trkpt>
      <trkpt lat="48.4811" lon="3.6167">
        <ele>137.43</ele>
        <time>2014-09-20T15:23:37Z</time>
      </trkpt>
      <trkpt lat="48.48112" lon="3.61677">
        <ele>137.5</ele>
        <time>2014-09-20T15:23:38Z</time>
      </trkpt>
      <trkpt lat="48.48114" lon="3.61685">
        <ele>137.56</ele>
        <time>2014-09-20T15:23:39Z</time>
      </trkpt>
      <trkpt lat="48.48115" lon="3.61693">
        <ele>137.6</ele>
        <time>2014-09-20T15:23:40Z</time>
      </trkpt>
      <trkpt lat="48.48116" lon="3.61701">
        <ele>137.61</ele>
        <time>2014-09-20T15:23:41Z</time>
      </trkpt>
      <trkpt lat="48.48118" lon="3.61709">
        <ele>137.56</ele>
        <time>2014-09-20T15:23:42Z</time>
      </trkpt>
      <trkpt lat="48.48119" lon="3.61717">
        <ele>137.5</ele>
        <time>2014-09-20T15:23:43Z</time>
      </trkpt>
      <trkpt lat="48.48121" lon="3.61725">
        <ele>137.49</ele>
        <time>2014-09-20T15:23:44Z</time>
      </trkpt>
      <trkpt lat="48.48122" lon="3.61732">
        <ele>137.4</ele>
        <time>2014-09-20T15:23:45Z</time>
      </trkpt>
      <trkpt lat="48.48124" lon="3.6174">
        <ele>137.3</ele>
        <time>2014-09-20T15:23:46Z</time>
      </trkpt>
      <trkpt lat="48.48125" lon="3.61747">
        <ele>137.23</ele>
        <time>2014-09-20T15:23:47Z</time>
      </trkpt>
      <trkpt lat="48.48127" lon="3.61755">
        <ele>137.18</ele>
        <time>2014-09-20T15:23:48Z</time>
      </trkpt>
      <trkpt lat="48.48129" lon="3.61762">
        <ele>137.14</ele>
        <time>2014-09-20T15:23:49Z</time>
      </trkpt>
      <trkpt lat="48.4813" lon="3.6177">
        <ele>137.12</ele>
        <time>2014-09-20T15:23:50Z</time>
      </trkpt>
      <trkpt lat="48.48132" lon="3.61778">
        <ele>137.09</ele>
        <time>2014-09-20T15:23:51Z</time>
      </trkpt>
      <trkpt lat="48.48133" lon="3.61785">
        <ele>137.05</ele>
        <time>2014-09-20T15:23:52Z</time>
      </trkpt>
      <trkpt lat="48.48135" lon="3.61793">
        <ele>137.02</ele>
        <time>2014-09-20T15:23:53Z</time>
      </trkpt>
      <trkpt lat="48.48136" lon="3.61801">
        <ele>137</ele>
        <time>2014-09-20T15:23:54Z</time>
      </trkpt>
      <trkpt lat="48.48138" lon="3.61808">
        <ele>136.98</ele>
        <time>2014-09-20T15:23:55Z</time>
      </trkpt>
      <trkpt lat="48.48139" lon="3.61816">
        <ele>136.99</ele>
        <time>2014-09-20T15:23:56Z</time>
      </trkpt>
      <trkpt lat="48.48141" lon="3.61823">
        <ele>137.03</ele>
        <time>2014-09-20T15:23:57Z</time>
      </trkpt>
      <trkpt lat="48.48143" lon="3.61831">
        <ele>137.05</ele>
        <time>2014-09-20T15:23:58Z</time>
      </trkpt>
      <trkpt lat="48.48144" lon="3.61838">
        <ele>137.1</ele>
        <time>2014-09-20T15:23:59Z</time>
      </trkpt>
      <trkpt lat="48.48146" lon="3.61846">
        <ele>137.15</ele>
        <time>2014-09-20T15:24:00Z</time>
      </trkpt>
      <trkpt lat="48.48147" lon="3.61853">
        <ele>137.22</ele>
        <time>2014-09-20T15:24:01Z</time>
      </trkpt>
      <trkpt lat="48.48149" lon="3.61861">
        <ele>137.3</ele>
        <time>2014-09-20T15:24:02Z</time>
      </trkpt>
      <trkpt lat="48.4815" lon="3.61868">
        <ele>137.36</ele>
        <time>2014-09-20T15:24:03Z</time>
      </trkpt>
      <trkpt lat="48.48152" lon="3.61876">
        <ele>137.42</ele>
        <time>2014-09-20T15:24:04Z</time>
      </trkpt>
      <trkpt lat="48.48153" lon="3.61883">
        <ele>137.53</ele>
        <time>2014-09-20T15:24:05Z</time>
      </trkpt>
      <trkpt lat="48.48155" lon="3.6189">
        <ele>137.65</ele>
        <time>2014-09-20T15:24:06Z</time>
      </trkpt>
      <trkpt lat="48.48156" lon="3.61897">
        <ele>137.72</ele>
        <time>2014-09-20T15:24:07Z</time>
      </trkpt>
      <trkpt lat="48.48158" lon="3.61905">
        <ele>137.75</ele>
        <time>2014-09-20T15:24:08Z</time>
      </trkpt>
      <trkpt lat="48.48159" lon="3.61912">
        <ele>137.77</ele>
        <time>2014-09-20T15:24:09Z</time>
      </trkpt>
      <trkpt lat="48.48161" lon="3.61919">
        <ele>137.83</ele>
        <time>2014-09-20T15:24:10Z</time>
      </trkpt>
      <trkpt lat="48.48163" lon="3.61926">
        <ele>137.88</ele>
        <time>2014-09-20T15:24:11Z</time>
      </trkpt>
      <trkpt lat="48.48165" lon="3.61932">
        <ele>137.94</ele>
        <time>2014-09-20T15:24:12Z</time>
      </trkpt>
      <trkpt lat="48.48166" lon="3.61939">
        <ele>137.96</ele>
        <time>2014-09-20T15:24:13Z</time>
      </trkpt>
      <trkpt lat="48.48166" lon="3.61946">
        <ele>138.01</ele>
        <time>2014-09-20T15:24:14Z</time>
      </trkpt>
      <trkpt lat="48.4816" lon="3.61956">
        <ele>138.13</ele>
        <time>2014-09-20T15:24:16Z</time>
      </trkpt>
      <trkpt lat="48.48152" lon="3.61961">
        <ele>138.31</ele>
        <time>2014-09-20T15:24:18Z</time>
      </trkpt>
      <trkpt lat="48.48144" lon="3.61967">
        <ele>138.47</ele>
        <time>2014-09-20T15:24:20Z</time>
      </trkpt>
      <trkpt lat="48.48137" lon="3.61974">
        <ele>138.63</ele>
        <time>2014-09-20T15:24:22Z</time>
      </trkpt>
      <trkpt lat="48.48131" lon="3.61983">
        <ele>138.86</ele>
        <time>2014-09-20T15:24:24Z</time>
      </trkpt>
      <trkpt lat="48.48131" lon="3.61996">
        <ele>139.13</ele>
        <time>2014-09-20T15:24:26Z</time>
      </trkpt>
      <trkpt lat="48.48135" lon="3.62007">
        <ele>139.35</ele>
        <time>2014-09-20T15:24:28Z</time>
      </trkpt>
      <trkpt lat="48.48138" lon="3.62012">
        <ele>139.44</ele>
        <time>2014-09-20T15:24:29Z</time>
      </trkpt>
      <trkpt lat="48.48141" lon="3.62017">
        <ele>139.54</ele>
        <time>2014-09-20T15:24:30Z</time>
      </trkpt>
      <trkpt lat="48.48144" lon="3.62023">
        <ele>139.61</ele>
        <time>2014-09-20T15:24:31Z</time>
      </trkpt>
      <trkpt lat="48.48147" lon="3.62029">
        <ele>139.67</ele>
        <time>2014-09-20T15:24:32Z</time>
      </trkpt>
      <trkpt lat="48.4815" lon="3.62034">
        <ele>139.68</ele>
        <time>2014-09-20T15:24:33Z</time>
      </trkpt>
      <trkpt lat="48.48153" lon="3.6204">
        <ele>139.69</ele>
        <time>2014-09-20T15:24:34Z</time>
      </trkpt>
      <trkpt lat="48.48156" lon="3.62046">
        <ele>139.7</ele>
        <time>2014-09-20T15:24:35Z</time>
      </trkpt>
      <trkpt lat="48.48158" lon="3.62051">
        <ele>139.71</ele>
        <time>2014-09-20T15:24:36Z</time>
      </trkpt>
      <trkpt lat="48.48161" lon="3.62057">
        <ele>139.74</ele>
        <time>2014-09-20T15:24:37Z</time>
      </trkpt>
      <trkpt lat="48.48164" lon="3.62063">
        <ele>139.76</ele>
        <time>2014-09-20T15:24:38Z</time>
      </trkpt>
      <trkpt lat="48.48167" lon="3.62068">
        <ele>139.8</ele>
        <time>2014-09-20T15:24:39Z</time>
      </trkpt>
      <trkpt lat="48.4817" lon="3.62073">
        <ele>139.88</ele>
        <time>2014-09-20T15:24:40Z</time>
      </trkpt>
      <trkpt lat="48.48173" lon="3.62079">
        <ele>139.97</ele>
        <time>2014-09-20T15:24:41Z</time>
      </trkpt>
      <trkpt lat="48.48175" lon="3.62084">
        <ele>140.06</ele>
        <time>2014-09-20T15:24:42Z</time>
      </trkpt>
      <trkpt lat="48.48181" lon="3.62095">
        <ele>140.25</ele>
        <time>2014-09-20T15:24:44Z</time>
      </trkpt>
      <trkpt lat="48.48186" lon="3.62106">
        <ele>140.46</ele>
        <time>2014-09-20T15:24:46Z</time>
      </trkpt>
      <trkpt lat="48.48192" lon="3.62115">
        <ele>140.72</ele>
        <time>2014-09-20T15:24:48Z</time>
      </trkpt>
      <trkpt lat="48.48197" lon="3.62125">
        <ele>141.03</ele>
        <time>2014-09-20T15:24:50Z</time>
      </trkpt>
      <trkpt lat="48.48202" lon="3.62135">
        <ele>141.34</ele>
        <time>2014-09-20T15:24:52Z</time>
      </trkpt>
      <trkpt lat="48.48207" lon="3.62145">
        <ele>141.67</ele>
        <time>2014-09-20T15:24:54Z</time>
      </trkpt>
      <trkpt lat="48.48211" lon="3.62155">
        <ele>141.94</ele>
        <time>2014-09-20T15:24:56Z</time>
      </trkpt>
      <trkpt lat="48.48216" lon="3.62164">
        <ele>142.15</ele>
        <time>2014-09-20T15:24:58Z</time>
      </trkpt>
      <trkpt lat="48.4822" lon="3.62174">
        <ele>142.32</ele>
        <time>2014-09-20T15:25:00Z</time>
      </trkpt>
      <trkpt lat="48.48225" lon="3.62183">
        <ele>142.55</ele>
        <time>2014-09-20T15:25:02Z</time>
      </trkpt>
      <trkpt lat="48.48229" lon="3.62192">
        <ele>142.83</ele>
        <time>2014-09-20T15:25:04Z</time>
      </trkpt>
      <trkpt lat="48.48234" lon="3.62201">
        <ele>143.12</ele>
        <time>2014-09-20T15:25:06Z</time>
      </trkpt>
      <trkpt lat="48.48239" lon="3.6221">
        <ele>143.41</ele>
        <time>2014-09-20T15:25:08Z</time>
      </trkpt>
      <trkpt lat="48.48243" lon="3.62219">
        <ele>143.62</ele>
        <time>2014-09-20T15:25:10Z</time>
      </trkpt>
      <trkpt lat="48.48247" lon="3.62227">
        <ele>143.8</ele>
        <time>2014-09-20T15:25:12Z</time>
      </trkpt>
      <trkpt lat="48.48251" lon="3.62235">
        <ele>143.94</ele>
        <time>2014-09-20T15:25:14Z</time>
      </trkpt>
      <trkpt lat="48.48255" lon="3.62245">
        <ele>144</ele>
        <time>2014-09-20T15:25:16Z</time>
      </trkpt>
      <trkpt lat="48.4826" lon="3.62254">
        <ele>144.08</ele>
        <time>2014-09-20T15:25:18Z</time>
      </trkpt>
      <trkpt lat="48.48264" lon="3.62263">
        <ele>144.21</ele>
        <time>2014-09-20T15:25:20Z</time>
      </trkpt>
      <trkpt lat="48.48269" lon="3.62272">
        <ele>144.36</ele>
        <time>2014-09-20T15:25:22Z</time>
      </trkpt>
      <trkpt lat="48.48274" lon="3.62281">
        <ele>144.54</ele>
        <time>2014-09-20T15:25:24Z</time>
      </trkpt>
      <trkpt lat="48.48279" lon="3.62289">
        <ele>144.69</ele>
        <time>2014-09-20T15:25:26Z</time>
      </trkpt>
      <trkpt lat="48.48284" lon="3.62298">
        <ele>144.86</ele>
        <time>2014-09-20T15:25:28Z</time>
      </trkpt>
      <trkpt lat="48.4829" lon="3.62306">
        <ele>145.05</ele>
        <time>2014-09-20T15:25:30Z</time>
      </trkpt>
      <trkpt lat="48.48296" lon="3.62315">
        <ele>145.2</ele>
        <time>2014-09-20T15:25:32Z</time>
      </trkpt>
      <trkpt lat="48.48301" lon="3.62325">
        <ele>145.3</ele>
        <time>2014-09-20T15:25:34Z</time>
      </trkpt>
      <trkpt lat="48.48308" lon="3.62334">
        <ele>145.35</ele>
        <time>2014-09-20T15:25:36Z</time>
      </trkpt>
      <trkpt lat="48.48314" lon="3.62344">
        <ele>145.39</ele>
        <time>2014-09-20T15:25:38Z</time>
      </trkpt>
      <trkpt lat="48.48317" lon="3.62349">
        <ele>145.4</ele>
        <time>2014-09-20T15:25:39Z</time>
      </trkpt>
      <trkpt lat="48.4832" lon="3.62354">
        <ele>145.38</ele>
        <time>2014-09-20T15:25:40Z</time>
      </trkpt>
      <trkpt lat="48.48323" lon="3.62359">
        <ele>145.39</ele>
        <time>2014-09-20T15:25:41Z</time>
      </trkpt>
      <trkpt lat="48.48327" lon="3.62365">
        <ele>145.4</ele>
        <time>2014-09-20T15:25:42Z</time>
      </trkpt>
      <trkpt lat="48.4833" lon="3.6237">
        <ele>145.41</ele>
        <time>2014-09-20T15:25:43Z</time>
      </trkpt>
      <trkpt lat="48.48333" lon="3.62376">
        <ele>145.44</ele>
        <time>2014-09-20T15:25:44Z</time>
      </trkpt>
      <trkpt lat="48.48336" lon="3.62381">
        <ele>145.46</ele>
        <time>2014-09-20T15:25:45Z</time>
      </trkpt>
      <trkpt lat="48.48339" lon="3.62387">
        <ele>145.5</ele>
        <time>2014-09-20T15:25:46Z</time>
      </trkpt>
      <trkpt lat="48.48342" lon="3.62392">
        <ele>145.53</ele>
        <time>2014-09-20T15:25:47Z</time>
      </trkpt>
      <trkpt lat="48.48346" lon="3.62398">
        <ele>145.58</ele>
        <time>2014-09-20T15:25:48Z</time>
      </trkpt>
      <trkpt lat="48.48349" lon="3.62404">
        <ele>145.62</ele>
        <time>2014-09-20T15:25:49Z</time>
      </trkpt>
      <trkpt lat="48.48352" lon="3.62409">
        <ele>145.67</ele>
        <time>2014-09-20T15:25:50Z</time>
      </trkpt>
      <trkpt lat="48.48355" lon="3.62415">
        <ele>145.71</ele>
        <time>2014-09-20T15:25:51Z</time>
      </trkpt>
      <trkpt lat="48.48358" lon="3.62421">
        <ele>145.76</ele>
        <time>2014-09-20T15:25:52Z</time>
      </trkpt>
      <trkpt lat="48.48361" lon="3.62427">
        <ele>145.81</ele>
        <time>2014-09-20T15:25:53Z</time>
      </trkpt>
      <trkpt lat="48.48365" lon="3.62432">
        <ele>145.84</ele>
        <time>2014-09-20T15:25:54Z</time>
      </trkpt>
      <trkpt lat="48.48368" lon="3.62438">
        <ele>145.88</ele>
        <time>2014-09-20T15:25:55Z</time>
      </trkpt>
      <trkpt lat="48.48371" lon="3.62444">
        <ele>145.9</ele>
        <time>2014-09-20T15:25:56Z</time>
      </trkpt>
      <trkpt lat="48.48375" lon="3.62451">
        <ele>145.88</ele>
        <time>2014-09-20T15:25:57Z</time>
      </trkpt>
      <trkpt lat="48.48378" lon="3.62457">
        <ele>145.89</ele>
        <time>2014-09-20T15:25:58Z</time>
      </trkpt>
      <trkpt lat="48.48382" lon="3.62464">
        <ele>145.9</ele>
        <time>2014-09-20T15:25:59Z</time>
      </trkpt>
      <trkpt lat="48.48385" lon="3.6247">
        <ele>145.91</ele>
        <time>2014-09-20T15:26:00Z</time>
      </trkpt>
      <trkpt lat="48.48388" lon="3.62477">
        <ele>145.91</ele>
        <time>2014-09-20T15:26:01Z</time>
      </trkpt>
      <trkpt lat="48.48392" lon="3.62484">
        <ele>145.92</ele>
        <time>2014-09-20T15:26:02Z</time>
      </trkpt>
      <trkpt lat="48.48396" lon="3.62491">
        <ele>145.89</ele>
        <time>2014-09-20T15:26:03Z</time>
      </trkpt>
      <trkpt lat="48.48399" lon="3.62498">
        <ele>145.9</ele>
        <time>2014-09-20T15:26:04Z</time>
      </trkpt>
      <trkpt lat="48.48403" lon="3.62505">
        <ele>145.91</ele>
        <time>2014-09-20T15:26:05Z</time>
      </trkpt>
      <trkpt lat="48.48406" lon="3.62512">
        <ele>145.89</ele>
        <time>2014-09-20T15:26:06Z</time>
      </trkpt>
      <trkpt lat="48.4841" lon="3.6252">
        <ele>145.87</ele>
        <time>2014-09-20T15:26:07Z</time>
      </trkpt>
      <trkpt lat="48.48414" lon="3.62527">
        <ele>145.86</ele>
        <time>2014-09-20T15:26:08Z</time>
      </trkpt>
      <trkpt lat="48.48418" lon="3.62534">
        <ele>145.85</ele>
        <time>2014-09-20T15:26:09Z</time>
      </trkpt>
      <trkpt lat="48.48421" lon="3.62542">
        <ele>145.85</ele>
        <time>2014-09-20T15:26:10Z</time>
      </trkpt>
      <trkpt lat="48.48425" lon="3.62549">
        <ele>145.87</ele>
        <time>2014-09-20T15:26:11Z</time>
      </trkpt>
      <trkpt lat="48.48428" lon="3.62557">
        <ele>145.88</ele>
        <time>2014-09-20T15:26:12Z</time>
      </trkpt>
      <trkpt lat="48.48432" lon="3.62564">
        <ele>145.89</ele>
        <time>2014-09-20T15:26:13Z</time>
      </trkpt>
      <trkpt lat="48.48436" lon="3.62571">
        <ele>145.9</ele>
        <time>2014-09-20T15:26:14Z</time>
      </trkpt>
      <trkpt lat="48.4844" lon="3.62578">
        <ele>145.93</ele>
        <time>2014-09-20T15:26:15Z</time>
      </trkpt>
      <trkpt lat="48.48444" lon="3.62585">
        <ele>145.98</ele>
        <time>2014-09-20T15:26:16Z</time>
      </trkpt>
      <trkpt lat="48.48447" lon="3.62592">
        <ele>146.04</ele>
        <time>2014-09-20T15:26:17Z</time>
      </trkpt>
      <trkpt lat="48.48451" lon="3.62599">
        <ele>146.11</ele>
        <time>2014-09-20T15:26:18Z</time>
      </trkpt>
      <trkpt lat="48.48455" lon="3.62605">
        <ele>146.22</ele>
        <time>2014-09-20T15:26:19Z</time>
      </trkpt>
      <trkpt lat="48.48458" lon="3.62612">
        <ele>146.32</ele>
        <time>2014-09-20T15:26:20Z</time>
      </trkpt>
      <trkpt lat="48.48462" lon="3.62618">
        <ele>146.4</ele>
        <time>2014-09-20T15:26:21Z</time>
      </trkpt>
      <trkpt lat="48.48465" lon="3.62624">
        <ele>146.46</ele>
        <time>2014-09-20T15:26:22Z</time>
      </trkpt>
      <trkpt lat="48.48469" lon="3.6263">
        <ele>146.5</ele>
        <time>2014-09-20T15:26:23Z</time>
      </trkpt>
      <trkpt lat="48.48473" lon="3.62636">
        <ele>146.56</ele>
        <time>2014-09-20T15:26:24Z</time>
      </trkpt>
      <trkpt lat="48.48477" lon="3.62642">
        <ele>146.6</ele>
        <time>2014-09-20T15:26:25Z</time>
      </trkpt>
      <trkpt lat="48.48481" lon="3.62647">
        <ele>146.63</ele>
        <time>2014-09-20T15:26:26Z</time>
      </trkpt>
      <trkpt lat="48.48485" lon="3.62653">
        <ele>146.66</ele>
        <time>2014-09-20T15:26:27Z</time>
      </trkpt>
      <trkpt lat="48.48489" lon="3.62658">
        <ele>146.67</ele>
        <time>2014-09-20T15:26:28Z</time>
      </trkpt>
      <trkpt lat="48.48493" lon="3.62664">
        <ele>146.69</ele>
        <time>2014-09-20T15:26:29Z</time>
      </trkpt>
      <trkpt lat="48.48497" lon="3.6267">
        <ele>146.7</ele>
        <time>2014-09-20T15:26:30Z</time>
      </trkpt>
      <trkpt lat="48.48501" lon="3.62675">
        <ele>146.7</ele>
        <time>2014-09-20T15:26:31Z</time>
      </trkpt>
      <trkpt lat="48.48505" lon="3.62681">
        <ele>146.71</ele>
        <time>2014-09-20T15:26:32Z</time>
      </trkpt>
      <trkpt lat="48.48508" lon="3.62688">
        <ele>146.74</ele>
        <time>2014-09-20T15:26:33Z</time>
      </trkpt>
      <trkpt lat="48.48512" lon="3.62694">
        <ele>146.74</ele>
        <time>2014-09-20T15:26:34Z</time>
      </trkpt>
      <trkpt lat="48.48516" lon="3.627">
        <ele>146.73</ele>
        <time>2014-09-20T15:26:35Z</time>
      </trkpt>
      <trkpt lat="48.4852" lon="3.62705">
        <ele>146.71</ele>
        <time>2014-09-20T15:26:36Z</time>
      </trkpt>
      <trkpt lat="48.48523" lon="3.62711">
        <ele>146.69</ele>
        <time>2014-09-20T15:26:37Z</time>
      </trkpt>
      <trkpt lat="48.48527" lon="3.62716">
        <ele>146.67</ele>
        <time>2014-09-20T15:26:38Z</time>
      </trkpt>
      <trkpt lat="48.48531" lon="3.62722">
        <ele>146.64</ele>
        <time>2014-09-20T15:26:39Z</time>
      </trkpt>
      <trkpt lat="48.48535" lon="3.62727">
        <ele>146.58</ele>
        <time>2014-09-20T15:26:40Z</time>
      </trkpt>
      <trkpt lat="48.48539" lon="3.62733">
        <ele>146.52</ele>
        <time>2014-09-20T15:26:41Z</time>
      </trkpt>
      <trkpt lat="48.48543" lon="3.62738">
        <ele>146.45</ele>
        <time>2014-09-20T15:26:42Z</time>
      </trkpt>
      <trkpt lat="48.48547" lon="3.62744">
        <ele>146.37</ele>
        <time>2014-09-20T15:26:43Z</time>
      </trkpt>
      <trkpt lat="48.48551" lon="3.6275">
        <ele>146.31</ele>
        <time>2014-09-20T15:26:44Z</time>
      </trkpt>
      <trkpt lat="48.48554" lon="3.62756">
        <ele>146.21</ele>
        <time>2014-09-20T15:26:45Z</time>
      </trkpt>
      <trkpt lat="48.48558" lon="3.62762">
        <ele>146.12</ele>
        <time>2014-09-20T15:26:46Z</time>
      </trkpt>
      <trkpt lat="48.48562" lon="3.62768">
        <ele>145.99</ele>
        <time>2014-09-20T15:26:47Z</time>
      </trkpt>
      <trkpt lat="48.48566" lon="3.62774">
        <ele>145.88</ele>
        <time>2014-09-20T15:26:48Z</time>
      </trkpt>
      <trkpt lat="48.4857" lon="3.62779">
        <ele>145.77</ele>
        <time>2014-09-20T15:26:49Z</time>
      </trkpt>
      <trkpt lat="48.48574" lon="3.62785">
        <ele>145.66</ele>
        <time>2014-09-20T15:26:50Z</time>
      </trkpt>
      <trkpt lat="48.48578" lon="3.6279">
        <ele>145.55</ele>
        <time>2014-09-20T15:26:51Z</time>
      </trkpt>
      <trkpt lat="48.48582" lon="3.62796">
        <ele>145.44</ele>
        <time>2014-09-20T15:26:52Z</time>
      </trkpt>
      <trkpt lat="48.48586" lon="3.62802">
        <ele>145.34</ele>
        <time>2014-09-20T15:26:53Z</time>
      </trkpt>
      <trkpt lat="48.4859" lon="3.62807">
        <ele>145.24</ele>
        <time>2014-09-20T15:26:54Z</time>
      </trkpt>
      <trkpt lat="48.48594" lon="3.62812">
        <ele>145.16</ele>
        <time>2014-09-20T15:26:55Z</time>
      </trkpt>
      <trkpt lat="48.48599" lon="3.62816">
        <ele>145.05</ele>
        <time>2014-09-20T15:26:56Z</time>
      </trkpt>
      <trkpt lat="48.48603" lon="3.6282">
        <ele>144.95</ele>
        <time>2014-09-20T15:26:57Z</time>
      </trkpt>
      <trkpt lat="48.48607" lon="3.62826">
        <ele>144.82</ele>
        <time>2014-09-20T15:26:58Z</time>
      </trkpt>
      <trkpt lat="48.48612" lon="3.62831">
        <ele>144.69</ele>
        <time>2014-09-20T15:26:59Z</time>
      </trkpt>
      <trkpt lat="48.48615" lon="3.62836">
        <ele>144.55</ele>
        <time>2014-09-20T15:27:00Z</time>
      </trkpt>
      <trkpt lat="48.48619" lon="3.62843">
        <ele>144.42</ele>
        <time>2014-09-20T15:27:01Z</time>
      </trkpt>
      <trkpt lat="48.48622" lon="3.6285">
        <ele>144.32</ele>
        <time>2014-09-20T15:27:02Z</time>
      </trkpt>
      <trkpt lat="48.48626" lon="3.62856">
        <ele>144.25</ele>
        <time>2014-09-20T15:27:03Z</time>
      </trkpt>
      <trkpt lat="48.4863" lon="3.62861">
        <ele>144.17</ele>
        <time>2014-09-20T15:27:04Z</time>
      </trkpt>
      <trkpt lat="48.48635" lon="3.62866">
        <ele>144.08</ele>
        <time>2014-09-20T15:27:05Z</time>
      </trkpt>
      <trkpt lat="48.48639" lon="3.62872">
        <ele>143.97</ele>
        <time>2014-09-20T15:27:06Z</time>
      </trkpt>
      <trkpt lat="48.48644" lon="3.62877">
        <ele>143.83</ele>
        <time>2014-09-20T15:27:07Z</time>
      </trkpt>
      <trkpt lat="48.48649" lon="3.62883">
        <ele>143.66</ele>
        <time>2014-09-20T15:27:08Z</time>
      </trkpt>
      <trkpt lat="48.48653" lon="3.62889">
        <ele>143.5</ele>
        <time>2014-09-20T15:27:09Z</time>
      </trkpt>
      <trkpt lat="48.48658" lon="3.62894">
        <ele>143.33</ele>
        <time>2014-09-20T15:27:10Z</time>
      </trkpt>
      <trkpt lat="48.48664" lon="3.629">
        <ele>143.13</ele>
        <time>2014-09-20T15:27:11Z</time>
      </trkpt>
      <trkpt lat="48.48669" lon="3.62906">
        <ele>142.91</ele>
        <time>2014-09-20T15:27:12Z</time>
      </trkpt>
      <trkpt lat="48.48674" lon="3.62913">
        <ele>142.69</ele>
        <time>2014-09-20T15:27:13Z</time>
      </trkpt>
      <trkpt lat="48.48679" lon="3.62921">
        <ele>142.45</ele>
        <time>2014-09-20T15:27:14Z</time>
      </trkpt>
      <trkpt lat="48.48684" lon="3.62928">
        <ele>142.22</ele>
        <time>2014-09-20T15:27:15Z</time>
      </trkpt>
      <trkpt lat="48.4869" lon="3.62936">
        <ele>141.94</ele>
        <time>2014-09-20T15:27:16Z</time>
      </trkpt>
      <trkpt lat="48.48696" lon="3.62943">
        <ele>141.64</ele>
        <time>2014-09-20T15:27:17Z</time>
      </trkpt>
      <trkpt lat="48.48702" lon="3.62951">
        <ele>141.29</ele>
        <time>2014-09-20T15:27:18Z</time>
      </trkpt>
      <trkpt lat="48.48708" lon="3.62958">
        <ele>140.92</ele>
        <time>2014-09-20T15:27:19Z</time>
      </trkpt>
      <trkpt lat="48.48714" lon="3.62966">
        <ele>140.57</ele>
        <time>2014-09-20T15:27:20Z</time>
      </trkpt>
      <trkpt lat="48.4872" lon="3.62974">
        <ele>140.21</ele>
        <time>2014-09-20T15:27:21Z</time>
      </trkpt>
      <trkpt lat="48.48726" lon="3.62982">
        <ele>139.87</ele>
        <time>2014-09-20T15:27:22Z</time>
      </trkpt>
      <trkpt lat="48.48732" lon="3.6299">
        <ele>139.51</ele>
        <time>2014-09-20T15:27:23Z</time>
      </trkpt>
      <trkpt lat="48.48738" lon="3.62998">
        <ele>139.14</ele>
        <time>2014-09-20T15:27:24Z</time>
      </trkpt>
      <trkpt lat="48.48744" lon="3.63007">
        <ele>138.76</ele>
        <time>2014-09-20T15:27:25Z</time>
      </trkpt>
      <trkpt lat="48.4875" lon="3.63016">
        <ele>138.35</ele>
        <time>2014-09-20T15:27:26Z</time>
      </trkpt>
      <trkpt lat="48.48756" lon="3.63025">
        <ele>137.97</ele>
        <time>2014-09-20T15:27:27Z</time>
      </trkpt>
      <trkpt lat="48.48761" lon="3.63035">
        <ele>137.59</ele>
        <time>2014-09-20T15:27:28Z</time>
      </trkpt>
      <trkpt lat="48.48767" lon="3.63044">
        <ele>137.2</ele>
        <time>2014-09-20T15:27:29Z</time>
      </trkpt>
      <trkpt lat="48.48772" lon="3.63054">
        <ele>136.83</ele>
        <time>2014-09-20T15:27:30Z</time>
      </trkpt>
      <trkpt lat="48.48777" lon="3.63064">
        <ele>136.5</ele>
        <time>2014-09-20T15:27:31Z</time>
      </trkpt>
      <trkpt lat="48.48782" lon="3.63075">
        <ele>136.21</ele>
        <time>2014-09-20T15:27:32Z</time>
      </trkpt>
      <trkpt lat="48.48787" lon="3.63085">
        <ele>135.94</ele>
        <time>2014-09-20T15:27:33Z</time>
      </trkpt>
      <trkpt lat="48.4879" lon="3.63096">
        <ele>135.66</ele>
        <time>2014-09-20T15:27:34Z</time>
      </trkpt>
      <trkpt lat="48.48794" lon="3.63108">
        <ele>135.43</ele>
        <time>2014-09-20T15:27:35Z</time>
      </trkpt>
      <trkpt lat="48.48796" lon="3.63119">
        <ele>135.23</ele>
        <time>2014-09-20T15:27:36Z</time>
      </trkpt>
      <trkpt lat="48.48798" lon="3.6313">
        <ele>135.08</ele>
        <time>2014-09-20T15:27:37Z</time>
      </trkpt>
      <trkpt lat="48.488" lon="3.63142">
        <ele>134.97</ele>
        <time>2014-09-20T15:27:38Z</time>
      </trkpt>
      <trkpt lat="48.48801" lon="3.63153">
        <ele>134.88</ele>
        <time>2014-09-20T15:27:39Z</time>
      </trkpt>
      <trkpt lat="48.48803" lon="3.63163">
        <ele>134.82</ele>
        <time>2014-09-20T15:27:40Z</time>
      </trkpt>
      <trkpt lat="48.48805" lon="3.63173">
        <ele>134.8</ele>
        <time>2014-09-20T15:27:41Z</time>
      </trkpt>
      <trkpt lat="48.48807" lon="3.63183">
        <ele>134.8</ele>
        <time>2014-09-20T15:27:42Z</time>
      </trkpt>
      <trkpt lat="48.48809" lon="3.63192">
        <ele>134.81</ele>
        <time>2014-09-20T15:27:43Z</time>
      </trkpt>
      <trkpt lat="48.48812" lon="3.632">
        <ele>134.81</ele>
        <time>2014-09-20T15:27:44Z</time>
      </trkpt>
      <trkpt lat="48.48814" lon="3.63209">
        <ele>134.79</ele>
        <time>2014-09-20T15:27:45Z</time>
      </trkpt>
      <trkpt lat="48.48817" lon="3.63216">
        <ele>134.75</ele>
        <time>2014-09-20T15:27:46Z</time>
      </trkpt>
      <trkpt lat="48.4882" lon="3.63224">
        <ele>134.72</ele>
        <time>2014-09-20T15:27:47Z</time>
      </trkpt>
      <trkpt lat="48.48823" lon="3.63231">
        <ele>134.65</ele>
        <time>2014-09-20T15:27:48Z</time>
      </trkpt>
      <trkpt lat="48.48826" lon="3.63239">
        <ele>134.59</ele>
        <time>2014-09-20T15:27:49Z</time>
      </trkpt>
      <trkpt lat="48.48829" lon="3.63246">
        <ele>134.58</ele>
        <time>2014-09-20T15:27:50Z</time>
      </trkpt>
      <trkpt lat="48.48832" lon="3.63254">
        <ele>134.56</ele>
        <time>2014-09-20T15:27:51Z</time>
      </trkpt>
      <trkpt lat="48.48834" lon="3.63261">
        <ele>134.58</ele>
        <time>2014-09-20T15:27:52Z</time>
      </trkpt>
      <trkpt lat="48.48836" lon="3.63269">
        <ele>134.62</ele>
        <time>2014-09-20T15:27:53Z</time>
      </trkpt>
      <trkpt lat="48.48838" lon="3.63276">
        <ele>134.67</ele>
        <time>2014-09-20T15:27:54Z</time>
      </trkpt>
      <trkpt lat="48.48839" lon="3.63283">
        <ele>134.68</ele>
        <time>2014-09-20T15:27:55Z</time>
      </trkpt>
      <trkpt lat="48.48841" lon="3.6329">
        <ele>134.67</ele>
        <time>2014-09-20T15:27:56Z</time>
      </trkpt>
      <trkpt lat="48.48842" lon="3.63297">
        <ele>134.63</ele>
        <time>2014-09-20T15:27:57Z</time>
      </trkpt>
      <trkpt lat="48.48843" lon="3.63305">
        <ele>134.58</ele>
        <time>2014-09-20T15:27:58Z</time>
      </trkpt>
      <trkpt lat="48.48844" lon="3.63312">
        <ele>134.54</ele>
        <time>2014-09-20T15:27:59Z</time>
      </trkpt>
      <trkpt lat="48.48845" lon="3.6332">
        <ele>134.54</ele>
        <time>2014-09-20T15:28:00Z</time>
      </trkpt>
      <trkpt lat="48.48846" lon="3.63327">
        <ele>134.51</ele>
        <time>2014-09-20T15:28:01Z</time>
      </trkpt>
      <trkpt lat="48.48847" lon="3.63335">
        <ele>134.47</ele>
        <time>2014-09-20T15:28:02Z</time>
      </trkpt>
      <trkpt lat="48.48848" lon="3.63342">
        <ele>134.43</ele>
        <time>2014-09-20T15:28:03Z</time>
      </trkpt>
      <trkpt lat="48.48849" lon="3.63349">
        <ele>134.41</ele>
        <time>2014-09-20T15:28:04Z</time>
      </trkpt>
      <trkpt lat="48.4885" lon="3.63357">
        <ele>134.36</ele>
        <time>2014-09-20T15:28:05Z</time>
      </trkpt>
      <trkpt lat="48.48851" lon="3.63364">
        <ele>134.3</ele>
        <time>2014-09-20T15:28:06Z</time>
      </trkpt>
      <trkpt lat="48.48852" lon="3.63372">
        <ele>134.26</ele>
        <time>2014-09-20T15:28:07Z</time>
      </trkpt>
      <trkpt lat="48.48853" lon="3.6338">
        <ele>134.2</ele>
        <time>2014-09-20T15:28:08Z</time>
      </trkpt>
      <trkpt lat="48.48854" lon="3.63388">
        <ele>134.13</ele>
        <time>2014-09-20T15:28:09Z</time>
      </trkpt>
      <trkpt lat="48.48855" lon="3.63396">
        <ele>134.06</ele>
        <time>2014-09-20T15:28:10Z</time>
      </trkpt>
      <trkpt lat="48.48856" lon="3.63404">
        <ele>134</ele>
        <time>2014-09-20T15:28:11Z</time>
      </trkpt>
      <trkpt lat="48.48857" lon="3.63413">
        <ele>133.91</ele>
        <time>2014-09-20T15:28:12Z</time>
      </trkpt>
      <trkpt lat="48.48858" lon="3.63421">
        <ele>133.81</ele>
        <time>2014-09-20T15:28:13Z</time>
      </trkpt>
      <trkpt lat="48.48859" lon="3.63429">
        <ele>133.77</ele>
        <time>2014-09-20T15:28:14Z</time>
      </trkpt>
      <trkpt lat="48.4886" lon="3.63438">
        <ele>133.73</ele>
        <time>2014-09-20T15:28:15Z</time>
      </trkpt>
      <trkpt lat="48.48861" lon="3.63446">
        <ele>133.71</ele>
        <time>2014-09-20T15:28:16Z</time>
      </trkpt>
      <trkpt lat="48.48862" lon="3.63454">
        <ele>133.69</ele>
        <time>2014-09-20T15:28:17Z</time>
      </trkpt>
      <trkpt lat="48.48864" lon="3.63462">
        <ele>133.67</ele>
        <time>2014-09-20T15:28:18Z</time>
      </trkpt>
      <trkpt lat="48.48865" lon="3.63471">
        <ele>133.61</ele>
        <time>2014-09-20T15:28:19Z</time>
      </trkpt>
      <trkpt lat="48.48867" lon="3.63479">
        <ele>133.57</ele>
        <time>2014-09-20T15:28:20Z</time>
      </trkpt>
      <trkpt lat="48.48869" lon="3.63486">
        <ele>133.51</ele>
        <time>2014-09-20T15:28:21Z</time>
      </trkpt>
      <trkpt lat="48.48871" lon="3.63494">
        <ele>133.44</ele>
        <time>2014-09-20T15:28:22Z</time>
      </trkpt>
      <trkpt lat="48.48872" lon="3.63502">
        <ele>133.38</ele>
        <time>2014-09-20T15:28:23Z</time>
      </trkpt>
      <trkpt lat="48.48873" lon="3.6351">
        <ele>133.32</ele>
        <time>2014-09-20T15:28:24Z</time>
      </trkpt>
      <trkpt lat="48.48874" lon="3.63519">
        <ele>133.27</ele>
        <time>2014-09-20T15:28:25Z</time>
      </trkpt>
      <trkpt lat="48.48876" lon="3.63527">
        <ele>133.21</ele>
        <time>2014-09-20T15:28:26Z</time>
      </trkpt>
      <trkpt lat="48.48877" lon="3.63535">
        <ele>133.17</ele>
        <time>2014-09-20T15:28:27Z</time>
      </trkpt>
      <trkpt lat="48.48878" lon="3.63543">
        <ele>133.16</ele>
        <time>2014-09-20T15:28:28Z</time>
      </trkpt>
      <trkpt lat="48.48879" lon="3.63551">
        <ele>133.17</ele>
        <time>2014-09-20T15:28:29Z</time>
      </trkpt>
      <trkpt lat="48.48881" lon="3.63559">
        <ele>133.19</ele>
        <time>2014-09-20T15:28:30Z</time>
      </trkpt>
      <trkpt lat="48.48882" lon="3.63566">
        <ele>133.2</ele>
        <time>2014-09-20T15:28:31Z</time>
      </trkpt>
      <trkpt lat="48.48883" lon="3.63574">
        <ele>133.21</ele>
        <time>2014-09-20T15:28:32Z</time>
      </trkpt>
      <trkpt lat="48.48884" lon="3.63582">
        <ele>133.21</ele>
        <time>2014-09-20T15:28:33Z</time>
      </trkpt>
      <trkpt lat="48.48885" lon="3.63589">
        <ele>133.19</ele>
        <time>2014-09-20T15:28:34Z</time>
      </trkpt>
      <trkpt lat="48.48887" lon="3.63597">
        <ele>133.17</ele>
        <time>2014-09-20T15:28:35Z</time>
      </trkpt>
      <trkpt lat="48.48888" lon="3.63604">
        <ele>133.14</ele>
        <time>2014-09-20T15:28:36Z</time>
      </trkpt>
      <trkpt lat="48.48889" lon="3.63612">
        <ele>133.06</ele>
        <time>2014-09-20T15:28:37Z</time>
      </trkpt>
      <trkpt lat="48.4889" lon="3.6362">
        <ele>132.98</ele>
        <time>2014-09-20T15:28:38Z</time>
      </trkpt>
      <trkpt lat="48.48891" lon="3.63627">
        <ele>132.89</ele>
        <time>2014-09-20T15:28:39Z</time>
      </trkpt>
      <trkpt lat="48.48892" lon="3.63635">
        <ele>132.77</ele>
        <time>2014-09-20T15:28:40Z</time>
      </trkpt>
      <trkpt lat="48.48893" lon="3.63643">
        <ele>132.66</ele>
        <time>2014-09-20T15:28:41Z</time>
      </trkpt>
      <trkpt lat="48.48894" lon="3.63651">
        <ele>132.55</ele>
        <time>2014-09-20T15:28:42Z</time>
      </trkpt>
      <trkpt lat="48.48895" lon="3.63659">
        <ele>132.45</ele>
        <time>2014-09-20T15:28:43Z</time>
      </trkpt>
      <trkpt lat="48.48895" lon="3.63667">
        <ele>132.37</ele>
        <time>2014-09-20T15:28:44Z</time>
      </trkpt>
      <trkpt lat="48.48897" lon="3.63675">
        <ele>132.28</ele>
        <time>2014-09-20T15:28:45Z</time>
      </trkpt>
      <trkpt lat="48.48898" lon="3.63683">
        <ele>132.24</ele>
        <time>2014-09-20T15:28:46Z</time>
      </trkpt>
      <trkpt lat="48.48899" lon="3.6369">
        <ele>132.24</ele>
        <time>2014-09-20T15:28:47Z</time>
      </trkpt>
      <trkpt lat="48.48901" lon="3.63697">
        <ele>132.24</ele>
        <time>2014-09-20T15:28:48Z</time>
      </trkpt>
      <trkpt lat="48.48903" lon="3.63703">
        <ele>132.23</ele>
        <time>2014-09-20T15:28:49Z</time>
      </trkpt>
      <trkpt lat="48.48904" lon="3.6371">
        <ele>132.23</ele>
        <time>2014-09-20T15:28:50Z</time>
      </trkpt>
      <trkpt lat="48.48905" lon="3.63717">
        <ele>132.23</ele>
        <time>2014-09-20T15:28:51Z</time>
      </trkpt>
      <trkpt lat="48.48906" lon="3.63723">
        <ele>132.23</ele>
        <time>2014-09-20T15:28:52Z</time>
      </trkpt>
      <trkpt lat="48.4891" lon="3.63735">
        <ele>132.23</ele>
        <time>2014-09-20T15:28:54Z</time>
      </trkpt>
      <trkpt lat="48.48916" lon="3.63743">
        <ele>132.32</ele>
        <time>2014-09-20T15:28:56Z</time>
      </trkpt>
      <trkpt lat="48.48924" lon="3.6375">
        <ele>132.46</ele>
        <time>2014-09-20T15:28:58Z</time>
      </trkpt>
      <trkpt lat="48.48928" lon="3.63753">
        <ele>132.5</ele>
        <time>2014-09-20T15:28:59Z</time>
      </trkpt>
      <trkpt lat="48.48932" lon="3.63757">
        <ele>132.56</ele>
        <time>2014-09-20T15:29:00Z</time>
      </trkpt>
      <trkpt lat="48.48936" lon="3.63761">
        <ele>132.6</ele>
        <time>2014-09-20T15:29:01Z</time>
      </trkpt>
      <trkpt lat="48.4894" lon="3.63764">
        <ele>132.61</ele>
        <time>2014-09-20T15:29:02Z</time>
      </trkpt>
      <trkpt lat="48.48945" lon="3.63768">
        <ele>132.61</ele>
        <time>2014-09-20T15:29:03Z</time>
      </trkpt>
      <trkpt lat="48.48949" lon="3.63772">
        <ele>132.62</ele>
        <time>2014-09-20T15:29:04Z</time>
      </trkpt>
      <trkpt lat="48.48953" lon="3.63775">
        <ele>132.59</ele>
        <time>2014-09-20T15:29:05Z</time>
      </trkpt>
      <trkpt lat="48.48957" lon="3.63779">
        <ele>132.58</ele>
        <time>2014-09-20T15:29:06Z</time>
      </trkpt>
      <trkpt lat="48.48961" lon="3.63783">
        <ele>132.57</ele>
        <time>2014-09-20T15:29:07Z</time>
      </trkpt>
      <trkpt lat="48.48965" lon="3.63787">
        <ele>132.53</ele>
        <time>2014-09-20T15:29:08Z</time>
      </trkpt>
      <trkpt lat="48.48969" lon="3.6379">
        <ele>132.48</ele>
        <time>2014-09-20T15:29:09Z</time>
      </trkpt>
      <trkpt lat="48.48973" lon="3.63794">
        <ele>132.42</ele>
        <time>2014-09-20T15:29:10Z</time>
      </trkpt>
      <trkpt lat="48.48977" lon="3.63798">
        <ele>132.34</ele>
        <time>2014-09-20T15:29:11Z</time>
      </trkpt>
      <trkpt lat="48.48981" lon="3.63801">
        <ele>132.27</ele>
        <time>2014-09-20T15:29:12Z</time>
      </trkpt>
      <trkpt lat="48.48985" lon="3.63805">
        <ele>132.21</ele>
        <time>2014-09-20T15:29:13Z</time>
      </trkpt>
      <trkpt lat="48.48989" lon="3.63808">
        <ele>132.14</ele>
        <time>2014-09-20T15:29:14Z</time>
      </trkpt>
      <trkpt lat="48.48993" lon="3.63811">
        <ele>132.08</ele>
        <time>2014-09-20T15:29:15Z</time>
      </trkpt>
      <trkpt lat="48.48997" lon="3.63815">
        <ele>132.02</ele>
        <time>2014-09-20T15:29:16Z</time>
      </trkpt>
      <trkpt lat="48.49001" lon="3.63819">
        <ele>131.97</ele>
        <time>2014-09-20T15:29:17Z</time>
      </trkpt>
      <trkpt lat="48.49005" lon="3.63822">
        <ele>131.89</ele>
        <time>2014-09-20T15:29:18Z</time>
      </trkpt>
      <trkpt lat="48.49009" lon="3.63826">
        <ele>131.8</ele>
        <time>2014-09-20T15:29:19Z</time>
      </trkpt>
      <trkpt lat="48.49013" lon="3.63829">
        <ele>131.7</ele>
        <time>2014-09-20T15:29:20Z</time>
      </trkpt>
      <trkpt lat="48.49017" lon="3.63833">
        <ele>131.64</ele>
        <time>2014-09-20T15:29:21Z</time>
      </trkpt>
      <trkpt lat="48.49025" lon="3.63839">
        <ele>131.52</ele>
        <time>2014-09-20T15:29:23Z</time>
      </trkpt>
      <trkpt lat="48.49032" lon="3.63846">
        <ele>131.32</ele>
        <time>2014-09-20T15:29:25Z</time>
      </trkpt>
      <trkpt lat="48.49039" lon="3.63853">
        <ele>131.06</ele>
        <time>2014-09-20T15:29:27Z</time>
      </trkpt>
      <trkpt lat="48.49047" lon="3.6386">
        <ele>130.71</ele>
        <time>2014-09-20T15:29:29Z</time>
      </trkpt>
      <trkpt lat="48.49052" lon="3.63863">
        <ele>130.49</ele>
        <time>2014-09-20T15:29:30Z</time>
      </trkpt>
      <trkpt lat="48.49056" lon="3.63867">
        <ele>130.27</ele>
        <time>2014-09-20T15:29:31Z</time>
      </trkpt>
      <trkpt lat="48.4906" lon="3.63871">
        <ele>130.04</ele>
        <time>2014-09-20T15:29:32Z</time>
      </trkpt>
      <trkpt lat="48.49065" lon="3.63876">
        <ele>129.78</ele>
        <time>2014-09-20T15:29:33Z</time>
      </trkpt>
      <trkpt lat="48.4907" lon="3.6388">
        <ele>129.55</ele>
        <time>2014-09-20T15:29:34Z</time>
      </trkpt>
      <trkpt lat="48.49075" lon="3.63884">
        <ele>129.29</ele>
        <time>2014-09-20T15:29:35Z</time>
      </trkpt>
      <trkpt lat="48.49079" lon="3.63888">
        <ele>129.05</ele>
        <time>2014-09-20T15:29:36Z</time>
      </trkpt>
      <trkpt lat="48.49084" lon="3.63892">
        <ele>128.82</ele>
        <time>2014-09-20T15:29:37Z</time>
      </trkpt>
      <trkpt lat="48.49089" lon="3.63897">
        <ele>128.6</ele>
        <time>2014-09-20T15:29:38Z</time>
      </trkpt>
      <trkpt lat="48.49094" lon="3.63901">
        <ele>128.4</ele>
        <time>2014-09-20T15:29:39Z</time>
      </trkpt>
      <trkpt lat="48.49099" lon="3.63905">
        <ele>128.21</ele>
        <time>2014-09-20T15:29:40Z</time>
      </trkpt>
      <trkpt lat="48.49104" lon="3.63909">
        <ele>128.04</ele>
        <time>2014-09-20T15:29:41Z</time>
      </trkpt>
      <trkpt lat="48.49108" lon="3.63914">
        <ele>127.89</ele>
        <time>2014-09-20T15:29:42Z</time>
      </trkpt>
      <trkpt lat="48.49113" lon="3.63918">
        <ele>127.75</ele>
        <time>2014-09-20T15:29:43Z</time>
      </trkpt>
      <trkpt lat="48.49118" lon="3.63923">
        <ele>127.62</ele>
        <time>2014-09-20T15:29:44Z</time>
      </trkpt>
      <trkpt lat="48.49122" lon="3.63927">
        <ele>127.52</ele>
        <time>2014-09-20T15:29:45Z</time>
      </trkpt>
      <trkpt lat="48.49127" lon="3.63931">
        <ele>127.45</ele>
        <time>2014-09-20T15:29:46Z</time>
      </trkpt>
      <trkpt lat="48.49131" lon="3.63936">
        <ele>127.39</ele>
        <time>2014-09-20T15:29:47Z</time>
      </trkpt>
      <trkpt lat="48.49136" lon="3.6394">
        <ele>127.33</ele>
        <time>2014-09-20T15:29:48Z</time>
      </trkpt>
      <trkpt lat="48.4914" lon="3.63944">
        <ele>127.23</ele>
        <time>2014-09-20T15:29:49Z</time>
      </trkpt>
      <trkpt lat="48.49145" lon="3.63948">
        <ele>127.08</ele>
        <time>2014-09-20T15:29:50Z</time>
      </trkpt>
      <trkpt lat="48.49149" lon="3.63952">
        <ele>126.96</ele>
        <time>2014-09-20T15:29:51Z</time>
      </trkpt>
      <trkpt lat="48.49153" lon="3.63956">
        <ele>126.86</ele>
        <time>2014-09-20T15:29:52Z</time>
      </trkpt>
      <trkpt lat="48.49158" lon="3.63961">
        <ele>126.75</ele>
        <time>2014-09-20T15:29:53Z</time>
      </trkpt>
      <trkpt lat="48.49162" lon="3.63965">
        <ele>126.64</ele>
        <time>2014-09-20T15:29:54Z</time>
      </trkpt>
      <trkpt lat="48.49167" lon="3.63969">
        <ele>126.51</ele>
        <time>2014-09-20T15:29:55Z</time>
      </trkpt>
      <trkpt lat="48.49171" lon="3.63972">
        <ele>126.39</ele>
        <time>2014-09-20T15:29:56Z</time>
      </trkpt>
      <trkpt lat="48.49176" lon="3.63976">
        <ele>126.25</ele>
        <time>2014-09-20T15:29:57Z</time>
      </trkpt>
      <trkpt lat="48.4918" lon="3.6398">
        <ele>126.1</ele>
        <time>2014-09-20T15:29:58Z</time>
      </trkpt>
      <trkpt lat="48.49185" lon="3.63985">
        <ele>125.95</ele>
        <time>2014-09-20T15:29:59Z</time>
      </trkpt>
      <trkpt lat="48.49189" lon="3.63989">
        <ele>125.85</ele>
        <time>2014-09-20T15:30:00Z</time>
      </trkpt>
      <trkpt lat="48.49194" lon="3.63993">
        <ele>125.77</ele>
        <time>2014-09-20T15:30:01Z</time>
      </trkpt>
      <trkpt lat="48.49198" lon="3.63997">
        <ele>125.68</ele>
        <time>2014-09-20T15:30:02Z</time>
      </trkpt>
      <trkpt lat="48.49203" lon="3.64001">
        <ele>125.62</ele>
        <time>2014-09-20T15:30:03Z</time>
      </trkpt>
      <trkpt lat="48.49207" lon="3.64006">
        <ele>125.55</ele>
        <time>2014-09-20T15:30:04Z</time>
      </trkpt>
      <trkpt lat="48.49212" lon="3.6401">
        <ele>125.47</ele>
        <time>2014-09-20T15:30:05Z</time>
      </trkpt>
      <trkpt lat="48.49216" lon="3.64014">
        <ele>125.38</ele>
        <time>2014-09-20T15:30:06Z</time>
      </trkpt>
      <trkpt lat="48.49221" lon="3.64018">
        <ele>125.29</ele>
        <time>2014-09-20T15:30:07Z</time>
      </trkpt>
      <trkpt lat="48.49226" lon="3.64022">
        <ele>125.18</ele>
        <time>2014-09-20T15:30:08Z</time>
      </trkpt>
      <trkpt lat="48.49231" lon="3.64026">
        <ele>125.06</ele>
        <time>2014-09-20T15:30:09Z</time>
      </trkpt>
      <trkpt lat="48.49236" lon="3.6403">
        <ele>124.96</ele>
        <time>2014-09-20T15:30:10Z</time>
      </trkpt>
      <trkpt lat="48.4924" lon="3.64034">
        <ele>124.82</ele>
        <time>2014-09-20T15:30:11Z</time>
      </trkpt>
      <trkpt lat="48.49245" lon="3.64039">
        <ele>124.72</ele>
        <time>2014-09-20T15:30:12Z</time>
      </trkpt>
      <trkpt lat="48.4925" lon="3.64043">
        <ele>124.63</ele>
        <time>2014-09-20T15:30:13Z</time>
      </trkpt>
      <trkpt lat="48.49254" lon="3.64047">
        <ele>124.53</ele>
        <time>2014-09-20T15:30:14Z</time>
      </trkpt>
      <trkpt lat="48.49259" lon="3.64051">
        <ele>124.4</ele>
        <time>2014-09-20T15:30:15Z</time>
      </trkpt>
      <trkpt lat="48.49263" lon="3.64055">
        <ele>124.28</ele>
        <time>2014-09-20T15:30:16Z</time>
      </trkpt>
      <trkpt lat="48.49268" lon="3.64059">
        <ele>124.17</ele>
        <time>2014-09-20T15:30:17Z</time>
      </trkpt>
      <trkpt lat="48.49273" lon="3.64063">
        <ele>124.06</ele>
        <time>2014-09-20T15:30:18Z</time>
      </trkpt>
      <trkpt lat="48.49277" lon="3.64067">
        <ele>123.93</ele>
        <time>2014-09-20T15:30:19Z</time>
      </trkpt>
      <trkpt lat="48.49281" lon="3.64072">
        <ele>123.83</ele>
        <time>2014-09-20T15:30:20Z</time>
      </trkpt>
      <trkpt lat="48.49286" lon="3.64076">
        <ele>123.7</ele>
        <time>2014-09-20T15:30:21Z</time>
      </trkpt>
      <trkpt lat="48.4929" lon="3.6408">
        <ele>123.58</ele>
        <time>2014-09-20T15:30:22Z</time>
      </trkpt>
      <trkpt lat="48.49295" lon="3.64084">
        <ele>123.47</ele>
        <time>2014-09-20T15:30:23Z</time>
      </trkpt>
      <trkpt lat="48.49299" lon="3.64088">
        <ele>123.38</ele>
        <time>2014-09-20T15:30:24Z</time>
      </trkpt>
      <trkpt lat="48.49304" lon="3.64092">
        <ele>123.27</ele>
        <time>2014-09-20T15:30:25Z</time>
      </trkpt>
      <trkpt lat="48.49308" lon="3.64096">
        <ele>123.18</ele>
        <time>2014-09-20T15:30:26Z</time>
      </trkpt>
      <trkpt lat="48.49313" lon="3.64101">
        <ele>123.1</ele>
        <time>2014-09-20T15:30:27Z</time>
      </trkpt>
      <trkpt lat="48.49317" lon="3.64105">
        <ele>123</ele>
        <time>2014-09-20T15:30:28Z</time>
      </trkpt>
      <trkpt lat="48.49322" lon="3.6411">
        <ele>122.88</ele>
        <time>2014-09-20T15:30:29Z</time>
      </trkpt>
      <trkpt lat="48.49327" lon="3.64114">
        <ele>122.77</ele>
        <time>2014-09-20T15:30:30Z</time>
      </trkpt>
      <trkpt lat="48.49332" lon="3.64118">
        <ele>122.63</ele>
        <time>2014-09-20T15:30:31Z</time>
      </trkpt>
      <trkpt lat="48.49336" lon="3.64123">
        <ele>122.53</ele>
        <time>2014-09-20T15:30:32Z</time>
      </trkpt>
      <trkpt lat="48.49341" lon="3.64128">
        <ele>122.41</ele>
        <time>2014-09-20T15:30:33Z</time>
      </trkpt>
      <trkpt lat="48.49346" lon="3.64132">
        <ele>122.31</ele>
        <time>2014-09-20T15:30:34Z</time>
      </trkpt>
      <trkpt lat="48.49351" lon="3.64137">
        <ele>122.22</ele>
        <time>2014-09-20T15:30:35Z</time>
      </trkpt>
      <trkpt lat="48.49355" lon="3.64141">
        <ele>122.12</ele>
        <time>2014-09-20T15:30:36Z</time>
      </trkpt>
      <trkpt lat="48.4936" lon="3.64146">
        <ele>122.02</ele>
        <time>2014-09-20T15:30:37Z</time>
      </trkpt>
      <trkpt lat="48.49365" lon="3.6415">
        <ele>121.92</ele>
        <time>2014-09-20T15:30:38Z</time>
      </trkpt>
      <trkpt lat="48.4937" lon="3.64155">
        <ele>121.77</ele>
        <time>2014-09-20T15:30:39Z</time>
      </trkpt>
      <trkpt lat="48.49375" lon="3.64159">
        <ele>121.66</ele>
        <time>2014-09-20T15:30:40Z</time>
      </trkpt>
      <trkpt lat="48.4938" lon="3.64164">
        <ele>121.55</ele>
        <time>2014-09-20T15:30:41Z</time>
      </trkpt>
      <trkpt lat="48.49384" lon="3.64169">
        <ele>121.42</ele>
        <time>2014-09-20T15:30:42Z</time>
      </trkpt>
      <trkpt lat="48.49389" lon="3.64173">
        <ele>121.27</ele>
        <time>2014-09-20T15:30:43Z</time>
      </trkpt>
      <trkpt lat="48.49394" lon="3.64177">
        <ele>121.16</ele>
        <time>2014-09-20T15:30:44Z</time>
      </trkpt>
      <trkpt lat="48.49399" lon="3.64182">
        <ele>121.05</ele>
        <time>2014-09-20T15:30:45Z</time>
      </trkpt>
      <trkpt lat="48.49404" lon="3.64186">
        <ele>120.95</ele>
        <time>2014-09-20T15:30:46Z</time>
      </trkpt>
      <trkpt lat="48.49409" lon="3.64191">
        <ele>120.89</ele>
        <time>2014-09-20T15:30:47Z</time>
      </trkpt>
      <trkpt lat="48.49414" lon="3.64196">
        <ele>120.8</ele>
        <time>2014-09-20T15:30:48Z</time>
      </trkpt>
      <trkpt lat="48.4942" lon="3.64201">
        <ele>120.73</ele>
        <time>2014-09-20T15:30:49Z</time>
      </trkpt>
      <trkpt lat="48.49425" lon="3.64206">
        <ele>120.63</ele>
        <time>2014-09-20T15:30:50Z</time>
      </trkpt>
      <trkpt lat="48.49431" lon="3.64211">
        <ele>120.51</ele>
        <time>2014-09-20T15:30:51Z</time>
      </trkpt>
      <trkpt lat="48.49436" lon="3.64216">
        <ele>120.34</ele>
        <time>2014-09-20T15:30:52Z</time>
      </trkpt>
      <trkpt lat="48.49441" lon="3.64221">
        <ele>120.13</ele>
        <time>2014-09-20T15:30:53Z</time>
      </trkpt>
      <trkpt lat="48.49447" lon="3.64226">
        <ele>119.93</ele>
        <time>2014-09-20T15:30:54Z</time>
      </trkpt>
      <trkpt lat="48.49452" lon="3.64232">
        <ele>119.71</ele>
        <time>2014-09-20T15:30:55Z</time>
      </trkpt>
      <trkpt lat="48.49457" lon="3.64236">
        <ele>119.49</ele>
        <time>2014-09-20T15:30:56Z</time>
      </trkpt>
      <trkpt lat="48.49463" lon="3.64241">
        <ele>119.3</ele>
        <time>2014-09-20T15:30:57Z</time>
      </trkpt>
      <trkpt lat="48.49468" lon="3.64246">
        <ele>119.13</ele>
        <time>2014-09-20T15:30:58Z</time>
      </trkpt>
      <trkpt lat="48.49473" lon="3.64251">
        <ele>118.95</ele>
        <time>2014-09-20T15:30:59Z</time>
      </trkpt>
      <trkpt lat="48.49479" lon="3.64255">
        <ele>118.8</ele>
        <time>2014-09-20T15:31:00Z</time>
      </trkpt>
      <trkpt lat="48.49484" lon="3.6426">
        <ele>118.66</ele>
        <time>2014-09-20T15:31:01Z</time>
      </trkpt>
      <trkpt lat="48.49489" lon="3.64264">
        <ele>118.55</ele>
        <time>2014-09-20T15:31:02Z</time>
      </trkpt>
      <trkpt lat="48.49493" lon="3.64269">
        <ele>118.47</ele>
        <time>2014-09-20T15:31:03Z</time>
      </trkpt>
      <trkpt lat="48.49496" lon="3.64275">
        <ele>118.38</ele>
        <time>2014-09-20T15:31:04Z</time>
      </trkpt>
      <trkpt lat="48.49497" lon="3.64282">
        <ele>118.32</ele>
        <time>2014-09-20T15:31:05Z</time>
      </trkpt>
      <trkpt lat="48.49495" lon="3.64295">
        <ele>118.21</ele>
        <time>2014-09-20T15:31:07Z</time>
      </trkpt>
      <trkpt lat="48.4949" lon="3.64306">
        <ele>118.06</ele>
        <time>2014-09-20T15:31:09Z</time>
      </trkpt>
      <trkpt lat="48.49484" lon="3.64315">
        <ele>117.89</ele>
        <time>2014-09-20T15:31:11Z</time>
      </trkpt>
      <trkpt lat="48.49479" lon="3.64326">
        <ele>117.8</ele>
        <time>2014-09-20T15:31:13Z</time>
      </trkpt>
      <trkpt lat="48.49475" lon="3.64336">
        <ele>117.91</ele>
        <time>2014-09-20T15:31:15Z</time>
      </trkpt>
      <trkpt lat="48.49471" lon="3.64346">
        <ele>118.16</ele>
        <time>2014-09-20T15:31:17Z</time>
      </trkpt>
      <trkpt lat="48.49468" lon="3.64355">
        <ele>118.43</ele>
        <time>2014-09-20T15:31:19Z</time>
      </trkpt>
      <trkpt lat="48.49465" lon="3.64363">
        <ele>118.74</ele>
        <time>2014-09-20T15:31:21Z</time>
      </trkpt>
      <trkpt lat="48.49462" lon="3.64371">
        <ele>119.09</ele>
        <time>2014-09-20T15:31:23Z</time>
      </trkpt>
      <trkpt lat="48.49459" lon="3.64379">
        <ele>119.55</ele>
        <time>2014-09-20T15:31:25Z</time>
      </trkpt>
      <trkpt lat="48.49456" lon="3.64387">
        <ele>120.05</ele>
        <time>2014-09-20T15:31:27Z</time>
      </trkpt>
      <trkpt lat="48.49453" lon="3.64394">
        <ele>120.49</ele>
        <time>2014-09-20T15:31:29Z</time>
      </trkpt>
      <trkpt lat="48.4945" lon="3.64402">
        <ele>120.93</ele>
        <time>2014-09-20T15:31:31Z</time>
      </trkpt>
      <trkpt lat="48.49448" lon="3.6441">
        <ele>121.33</ele>
        <time>2014-09-20T15:31:33Z</time>
      </trkpt>
      <trkpt lat="48.49445" lon="3.64417">
        <ele>121.66</ele>
        <time>2014-09-20T15:31:35Z</time>
      </trkpt>
      <trkpt lat="48.49442" lon="3.64424">
        <ele>121.93</ele>
        <time>2014-09-20T15:31:37Z</time>
      </trkpt>
      <trkpt lat="48.49439" lon="3.64431">
        <ele>122.13</ele>
        <time>2014-09-20T15:31:39Z</time>
      </trkpt>
      <trkpt lat="48.49436" lon="3.64438">
        <ele>122.3</ele>
        <time>2014-09-20T15:31:41Z</time>
      </trkpt>
      <trkpt lat="48.49433" lon="3.64445">
        <ele>122.5</ele>
        <time>2014-09-20T15:31:43Z</time>
      </trkpt>
      <trkpt lat="48.49431" lon="3.64453">
        <ele>122.69</ele>
        <time>2014-09-20T15:31:45Z</time>
      </trkpt>
      <trkpt lat="48.49428" lon="3.6446">
        <ele>122.91</ele>
        <time>2014-09-20T15:31:47Z</time>
      </trkpt>
      <trkpt lat="48.49425" lon="3.64467">
        <ele>123.16</ele>
        <time>2014-09-20T15:31:49Z</time>
      </trkpt>
      <trkpt lat="48.49422" lon="3.64474">
        <ele>123.43</ele>
        <time>2014-09-20T15:31:51Z</time>
      </trkpt>
      <trkpt lat="48.49419" lon="3.64482">
        <ele>123.66</ele>
        <time>2014-09-20T15:31:53Z</time>
      </trkpt>
      <trkpt lat="48.49417" lon="3.64489">
        <ele>123.84</ele>
        <time>2014-09-20T15:31:55Z</time>
      </trkpt>
      <trkpt lat="48.49414" lon="3.64497">
        <ele>124.04</ele>
        <time>2014-09-20T15:31:57Z</time>
      </trkpt>
      <trkpt lat="48.49411" lon="3.64505">
        <ele>124.28</ele>
        <time>2014-09-20T15:31:59Z</time>
      </trkpt>
      <trkpt lat="48.49408" lon="3.64513">
        <ele>124.48</ele>
        <time>2014-09-20T15:32:01Z</time>
      </trkpt>
      <trkpt lat="48.49405" lon="3.6452">
        <ele>124.61</ele>
        <time>2014-09-20T15:32:03Z</time>
      </trkpt>
      <trkpt lat="48.49402" lon="3.64528">
        <ele>124.75</ele>
        <time>2014-09-20T15:32:05Z</time>
      </trkpt>
      <trkpt lat="48.49399" lon="3.64535">
        <ele>124.83</ele>
        <time>2014-09-20T15:32:07Z</time>
      </trkpt>
      <trkpt lat="48.49397" lon="3.64542">
        <ele>124.94</ele>
        <time>2014-09-20T15:32:09Z</time>
      </trkpt>
      <trkpt lat="48.49394" lon="3.6455">
        <ele>125.09</ele>
        <time>2014-09-20T15:32:11Z</time>
      </trkpt>
      <trkpt lat="48.49391" lon="3.64557">
        <ele>125.24</ele>
        <time>2014-09-20T15:32:13Z</time>
      </trkpt>
      <trkpt lat="48.49389" lon="3.64565">
        <ele>125.39</ele>
        <time>2014-09-20T15:32:15Z</time>
      </trkpt>
      <trkpt lat="48.49386" lon="3.64573">
        <ele>125.52</ele>
        <time>2014-09-20T15:32:17Z</time>
      </trkpt>
      <trkpt lat="48.49383" lon="3.6458">
        <ele>125.68</ele>
        <time>2014-09-20T15:32:19Z</time>
      </trkpt>
      <trkpt lat="48.4938" lon="3.64588">
        <ele>125.81</ele>
        <time>2014-09-20T15:32:21Z</time>
      </trkpt>
      <trkpt lat="48.49378" lon="3.64596">
        <ele>125.93</ele>
        <time>2014-09-20T15:32:23Z</time>
      </trkpt>
      <trkpt lat="48.49375" lon="3.64603">
        <ele>126.04</ele>
        <time>2014-09-20T15:32:25Z</time>
      </trkpt>
      <trkpt lat="48.49372" lon="3.64611">
        <ele>126.17</ele>
        <time>2014-09-20T15:32:27Z</time>
      </trkpt>
      <trkpt lat="48.49369" lon="3.6462">
        <ele>126.31</ele>
        <time>2014-09-20T15:32:29Z</time>
      </trkpt>
      <trkpt lat="48.49366" lon="3.64628">
        <ele>126.45</ele>
        <time>2014-09-20T15:32:31Z</time>
      </trkpt>
      <trkpt lat="48.49364" lon="3.64637">
        <ele>126.6</ele>
        <time>2014-09-20T15:32:33Z</time>
      </trkpt>
      <trkpt lat="48.49361" lon="3.64645">
        <ele>126.7</ele>
        <time>2014-09-20T15:32:35Z</time>
      </trkpt>
      <trkpt lat="48.49358" lon="3.64654">
        <ele>126.82</ele>
        <time>2014-09-20T15:32:37Z</time>
      </trkpt>
      <trkpt lat="48.49356" lon="3.64662">
        <ele>126.91</ele>
        <time>2014-09-20T15:32:39Z</time>
      </trkpt>
      <trkpt lat="48.49353" lon="3.64671">
        <ele>126.96</ele>
        <time>2014-09-20T15:32:41Z</time>
      </trkpt>
      <trkpt lat="48.49351" lon="3.64679">
        <ele>127.06</ele>
        <time>2014-09-20T15:32:43Z</time>
      </trkpt>
      <trkpt lat="48.49349" lon="3.64688">
        <ele>127.16</ele>
        <time>2014-09-20T15:32:45Z</time>
      </trkpt>
      <trkpt lat="48.49347" lon="3.64698">
        <ele>127.23</ele>
        <time>2014-09-20T15:32:47Z</time>
      </trkpt>
      <trkpt lat="48.49345" lon="3.64707">
        <ele>127.27</ele>
        <time>2014-09-20T15:32:49Z</time>
      </trkpt>
      <trkpt lat="48.49343" lon="3.64716">
        <ele>127.34</ele>
        <time>2014-09-20T15:32:51Z</time>
      </trkpt>
      <trkpt lat="48.49341" lon="3.64727">
        <ele>127.31</ele>
        <time>2014-09-20T15:32:53Z</time>
      </trkpt>
      <trkpt lat="48.49339" lon="3.64739">
        <ele>127.25</ele>
        <time>2014-09-20T15:32:55Z</time>
      </trkpt>
      <trkpt lat="48.49336" lon="3.64751">
        <ele>127.2</ele>
        <time>2014-09-20T15:32:57Z</time>
      </trkpt>
      <trkpt lat="48.49335" lon="3.64758">
        <ele>127.2</ele>
        <time>2014-09-20T15:32:58Z</time>
      </trkpt>
      <trkpt lat="48.49334" lon="3.64765">
        <ele>127.19</ele>
        <time>2014-09-20T15:32:59Z</time>
      </trkpt>
      <trkpt lat="48.49332" lon="3.64771">
        <ele>127.2</ele>
        <time>2014-09-20T15:33:00Z</time>
      </trkpt>
      <trkpt lat="48.49331" lon="3.64779">
        <ele>127.2</ele>
        <time>2014-09-20T15:33:01Z</time>
      </trkpt>
      <trkpt lat="48.49329" lon="3.64786">
        <ele>127.21</ele>
        <time>2014-09-20T15:33:02Z</time>
      </trkpt>
      <trkpt lat="48.49327" lon="3.64793">
        <ele>127.19</ele>
        <time>2014-09-20T15:33:03Z</time>
      </trkpt>
      <trkpt lat="48.49326" lon="3.64801">
        <ele>127.17</ele>
        <time>2014-09-20T15:33:04Z</time>
      </trkpt>
      <trkpt lat="48.49324" lon="3.64808">
        <ele>127.16</ele>
        <time>2014-09-20T15:33:05Z</time>
      </trkpt>
      <trkpt lat="48.49322" lon="3.64816">
        <ele>127.13</ele>
        <time>2014-09-20T15:33:06Z</time>
      </trkpt>
      <trkpt lat="48.4932" lon="3.64824">
        <ele>127.08</ele>
        <time>2014-09-20T15:33:07Z</time>
      </trkpt>
      <trkpt lat="48.49318" lon="3.64833">
        <ele>127.02</ele>
        <time>2014-09-20T15:33:08Z</time>
      </trkpt>
      <trkpt lat="48.49316" lon="3.64842">
        <ele>126.92</ele>
        <time>2014-09-20T15:33:09Z</time>
      </trkpt>
      <trkpt lat="48.49314" lon="3.6485">
        <ele>126.8</ele>
        <time>2014-09-20T15:33:10Z</time>
      </trkpt>
      <trkpt lat="48.49312" lon="3.64859">
        <ele>126.7</ele>
        <time>2014-09-20T15:33:11Z</time>
      </trkpt>
      <trkpt lat="48.4931" lon="3.64868">
        <ele>126.59</ele>
        <time>2014-09-20T15:33:12Z</time>
      </trkpt>
      <trkpt lat="48.49308" lon="3.64878">
        <ele>126.47</ele>
        <time>2014-09-20T15:33:13Z</time>
      </trkpt>
      <trkpt lat="48.49306" lon="3.64887">
        <ele>126.36</ele>
        <time>2014-09-20T15:33:14Z</time>
      </trkpt>
      <trkpt lat="48.49304" lon="3.64896">
        <ele>126.25</ele>
        <time>2014-09-20T15:33:15Z</time>
      </trkpt>
      <trkpt lat="48.49301" lon="3.64906">
        <ele>126.12</ele>
        <time>2014-09-20T15:33:16Z</time>
      </trkpt>
      <trkpt lat="48.49299" lon="3.64915">
        <ele>126</ele>
        <time>2014-09-20T15:33:17Z</time>
      </trkpt>
      <trkpt lat="48.49296" lon="3.64924">
        <ele>125.91</ele>
        <time>2014-09-20T15:33:18Z</time>
      </trkpt>
      <trkpt lat="48.49294" lon="3.64934">
        <ele>125.79</ele>
        <time>2014-09-20T15:33:19Z</time>
      </trkpt>
      <trkpt lat="48.49291" lon="3.64943">
        <ele>125.65</ele>
        <time>2014-09-20T15:33:20Z</time>
      </trkpt>
      <trkpt lat="48.49289" lon="3.64953">
        <ele>125.49</ele>
        <time>2014-09-20T15:33:21Z</time>
      </trkpt>
      <trkpt lat="48.49286" lon="3.64962">
        <ele>125.3</ele>
        <time>2014-09-20T15:33:22Z</time>
      </trkpt>
      <trkpt lat="48.49283" lon="3.64971">
        <ele>125.11</ele>
        <time>2014-09-20T15:33:23Z</time>
      </trkpt>
      <trkpt lat="48.4928" lon="3.64981">
        <ele>124.94</ele>
        <time>2014-09-20T15:33:24Z</time>
      </trkpt>
      <trkpt lat="48.49277" lon="3.6499">
        <ele>124.76</ele>
        <time>2014-09-20T15:33:25Z</time>
      </trkpt>
      <trkpt lat="48.49273" lon="3.65">
        <ele>124.58</ele>
        <time>2014-09-20T15:33:26Z</time>
      </trkpt>
      <trkpt lat="48.4927" lon="3.65009">
        <ele>124.36</ele>
        <time>2014-09-20T15:33:27Z</time>
      </trkpt>
      <trkpt lat="48.49266" lon="3.65019">
        <ele>124.13</ele>
        <time>2014-09-20T15:33:28Z</time>
      </trkpt>
      <trkpt lat="48.49263" lon="3.65029">
        <ele>123.88</ele>
        <time>2014-09-20T15:33:29Z</time>
      </trkpt>
      <trkpt lat="48.49259" lon="3.6504">
        <ele>123.62</ele>
        <time>2014-09-20T15:33:30Z</time>
      </trkpt>
      <trkpt lat="48.49255" lon="3.65051">
        <ele>123.32</ele>
        <time>2014-09-20T15:33:31Z</time>
      </trkpt>
      <trkpt lat="48.49252" lon="3.65061">
        <ele>123</ele>
        <time>2014-09-20T15:33:32Z</time>
      </trkpt>
      <trkpt lat="48.49248" lon="3.65072">
        <ele>122.65</ele>
        <time>2014-09-20T15:33:33Z</time>
      </trkpt>
      <trkpt lat="48.49244" lon="3.65083">
        <ele>122.32</ele>
        <time>2014-09-20T15:33:34Z</time>
      </trkpt>
      <trkpt lat="48.4924" lon="3.65094">
        <ele>122</ele>
        <time>2014-09-20T15:33:35Z</time>
      </trkpt>
      <trkpt lat="48.49236" lon="3.65105">
        <ele>121.66</ele>
        <time>2014-09-20T15:33:36Z</time>
      </trkpt>
      <trkpt lat="48.49232" lon="3.65116">
        <ele>121.3</ele>
        <time>2014-09-20T15:33:37Z</time>
      </trkpt>
      <trkpt lat="48.49228" lon="3.65127">
        <ele>120.96</ele>
        <time>2014-09-20T15:33:38Z</time>
      </trkpt>
      <trkpt lat="48.49224" lon="3.65139">
        <ele>120.6</ele>
        <time>2014-09-20T15:33:39Z</time>
      </trkpt>
      <trkpt lat="48.4922" lon="3.6515">
        <ele>120.26</ele>
        <time>2014-09-20T15:33:40Z</time>
      </trkpt>
      <trkpt lat="48.49217" lon="3.65161">
        <ele>119.92</ele>
        <time>2014-09-20T15:33:41Z</time>
      </trkpt>
      <trkpt lat="48.49213" lon="3.65173">
        <ele>119.6</ele>
        <time>2014-09-20T15:33:42Z</time>
      </trkpt>
      <trkpt lat="48.49209" lon="3.65184">
        <ele>119.28</ele>
        <time>2014-09-20T15:33:43Z</time>
      </trkpt>
      <trkpt lat="48.49205" lon="3.65195">
        <ele>118.97</ele>
        <time>2014-09-20T15:33:44Z</time>
      </trkpt>
      <trkpt lat="48.49202" lon="3.65207">
        <ele>118.66</ele>
        <time>2014-09-20T15:33:45Z</time>
      </trkpt>
      <trkpt lat="48.49198" lon="3.65218">
        <ele>118.35</ele>
        <time>2014-09-20T15:33:46Z</time>
      </trkpt>
      <trkpt lat="48.49194" lon="3.6523">
        <ele>118.07</ele>
        <time>2014-09-20T15:33:47Z</time>
      </trkpt>
      <trkpt lat="48.4919" lon="3.65241">
        <ele>117.78</ele>
        <time>2014-09-20T15:33:48Z</time>
      </trkpt>
      <trkpt lat="48.49186" lon="3.65253">
        <ele>117.5</ele>
        <time>2014-09-20T15:33:49Z</time>
      </trkpt>
      <trkpt lat="48.49183" lon="3.65264">
        <ele>117.2</ele>
        <time>2014-09-20T15:33:50Z</time>
      </trkpt>
      <trkpt lat="48.49179" lon="3.65275">
        <ele>116.91</ele>
        <time>2014-09-20T15:33:51Z</time>
      </trkpt>
      <trkpt lat="48.49175" lon="3.65287">
        <ele>116.61</ele>
        <time>2014-09-20T15:33:52Z</time>
      </trkpt>
      <trkpt lat="48.49171" lon="3.65297">
        <ele>116.34</ele>
        <time>2014-09-20T15:33:53Z</time>
      </trkpt>
      <trkpt lat="48.49167" lon="3.65308">
        <ele>116.09</ele>
        <time>2014-09-20T15:33:54Z</time>
      </trkpt>
      <trkpt lat="48.49163" lon="3.65319">
        <ele>115.85</ele>
        <time>2014-09-20T15:33:55Z</time>
      </trkpt>
      <trkpt lat="48.4916" lon="3.65329">
        <ele>115.64</ele>
        <time>2014-09-20T15:33:56Z</time>
      </trkpt>
      <trkpt lat="48.49156" lon="3.6534">
        <ele>115.46</ele>
        <time>2014-09-20T15:33:57Z</time>
      </trkpt>
      <trkpt lat="48.49152" lon="3.6535">
        <ele>115.28</ele>
        <time>2014-09-20T15:33:58Z</time>
      </trkpt>
      <trkpt lat="48.49149" lon="3.6536">
        <ele>115.12</ele>
        <time>2014-09-20T15:33:59Z</time>
      </trkpt>
      <trkpt lat="48.49145" lon="3.6537">
        <ele>114.95</ele>
        <time>2014-09-20T15:34:00Z</time>
      </trkpt>
      <trkpt lat="48.49142" lon="3.6538">
        <ele>114.79</ele>
        <time>2014-09-20T15:34:01Z</time>
      </trkpt>
      <trkpt lat="48.49139" lon="3.6539">
        <ele>114.65</ele>
        <time>2014-09-20T15:34:02Z</time>
      </trkpt>
      <trkpt lat="48.49135" lon="3.65399">
        <ele>114.52</ele>
        <time>2014-09-20T15:34:03Z</time>
      </trkpt>
      <trkpt lat="48.49132" lon="3.65409">
        <ele>114.4</ele>
        <time>2014-09-20T15:34:04Z</time>
      </trkpt>
      <trkpt lat="48.49129" lon="3.65418">
        <ele>114.25</ele>
        <time>2014-09-20T15:34:05Z</time>
      </trkpt>
      <trkpt lat="48.49126" lon="3.65427">
        <ele>114.1</ele>
        <time>2014-09-20T15:34:06Z</time>
      </trkpt>
      <trkpt lat="48.49123" lon="3.65436">
        <ele>113.93</ele>
        <time>2014-09-20T15:34:07Z</time>
      </trkpt>
      <trkpt lat="48.49119" lon="3.65445">
        <ele>113.78</ele>
        <time>2014-09-20T15:34:08Z</time>
      </trkpt>
      <trkpt lat="48.49116" lon="3.65455">
        <ele>113.69</ele>
        <time>2014-09-20T15:34:09Z</time>
      </trkpt>
      <trkpt lat="48.49114" lon="3.65463">
        <ele>113.58</ele>
        <time>2014-09-20T15:34:10Z</time>
      </trkpt>
      <trkpt lat="48.4911" lon="3.65472">
        <ele>113.51</ele>
        <time>2014-09-20T15:34:11Z</time>
      </trkpt>
      <trkpt lat="48.49108" lon="3.65481">
        <ele>113.44</ele>
        <time>2014-09-20T15:34:12Z</time>
      </trkpt>
      <trkpt lat="48.49105" lon="3.6549">
        <ele>113.36</ele>
        <time>2014-09-20T15:34:13Z</time>
      </trkpt>
      <trkpt lat="48.49102" lon="3.65498">
        <ele>113.28</ele>
        <time>2014-09-20T15:34:14Z</time>
      </trkpt>
      <trkpt lat="48.49099" lon="3.65506">
        <ele>113.22</ele>
        <time>2014-09-20T15:34:15Z</time>
      </trkpt>
      <trkpt lat="48.49096" lon="3.65515">
        <ele>113.19</ele>
        <time>2014-09-20T15:34:16Z</time>
      </trkpt>
      <trkpt lat="48.49093" lon="3.65523">
        <ele>113.15</ele>
        <time>2014-09-20T15:34:17Z</time>
      </trkpt>
      <trkpt lat="48.49091" lon="3.6553">
        <ele>113.12</ele>
        <time>2014-09-20T15:34:18Z</time>
      </trkpt>
      <trkpt lat="48.49088" lon="3.65538">
        <ele>113.07</ele>
        <time>2014-09-20T15:34:19Z</time>
      </trkpt>
      <trkpt lat="48.49085" lon="3.65546">
        <ele>113.01</ele>
        <time>2014-09-20T15:34:20Z</time>
      </trkpt>
      <trkpt lat="48.49083" lon="3.65553">
        <ele>112.92</ele>
        <time>2014-09-20T15:34:21Z</time>
      </trkpt>
      <trkpt lat="48.4908" lon="3.65561">
        <ele>112.79</ele>
        <time>2014-09-20T15:34:22Z</time>
      </trkpt>
      <trkpt lat="48.49078" lon="3.65568">
        <ele>112.68</ele>
        <time>2014-09-20T15:34:23Z</time>
      </trkpt>
      <trkpt lat="48.49075" lon="3.65575">
        <ele>112.57</ele>
        <time>2014-09-20T15:34:24Z</time>
      </trkpt>
      <trkpt lat="48.49072" lon="3.65583">
        <ele>112.48</ele>
        <time>2014-09-20T15:34:25Z</time>
      </trkpt>
      <trkpt lat="48.4907" lon="3.6559">
        <ele>112.42</ele>
        <time>2014-09-20T15:34:26Z</time>
      </trkpt>
      <trkpt lat="48.49066" lon="3.65602">
        <ele>112.35</ele>
        <time>2014-09-20T15:34:28Z</time>
      </trkpt>
      <trkpt lat="48.49064" lon="3.65609">
        <ele>112.32</ele>
        <time>2014-09-20T15:34:29Z</time>
      </trkpt>
      <trkpt lat="48.49062" lon="3.65615">
        <ele>112.27</ele>
        <time>2014-09-20T15:34:30Z</time>
      </trkpt>
      <trkpt lat="48.4906" lon="3.65622">
        <ele>112.21</ele>
        <time>2014-09-20T15:34:31Z</time>
      </trkpt>
      <trkpt lat="48.49057" lon="3.65628">
        <ele>112.17</ele>
        <time>2014-09-20T15:34:32Z</time>
      </trkpt>
      <trkpt lat="48.49054" lon="3.65635">
        <ele>112.13</ele>
        <time>2014-09-20T15:34:33Z</time>
      </trkpt>
      <trkpt lat="48.49052" lon="3.65642">
        <ele>112.11</ele>
        <time>2014-09-20T15:34:34Z</time>
      </trkpt>
      <trkpt lat="48.49049" lon="3.65648">
        <ele>112.09</ele>
        <time>2014-09-20T15:34:35Z</time>
      </trkpt>
      <trkpt lat="48.49045" lon="3.65654">
        <ele>112.05</ele>
        <time>2014-09-20T15:34:36Z</time>
      </trkpt>
      <trkpt lat="48.49042" lon="3.65661">
        <ele>112.04</ele>
        <time>2014-09-20T15:34:37Z</time>
      </trkpt>
      <trkpt lat="48.49039" lon="3.65667">
        <ele>111.99</ele>
        <time>2014-09-20T15:34:38Z</time>
      </trkpt>
      <trkpt lat="48.49035" lon="3.65673">
        <ele>111.97</ele>
        <time>2014-09-20T15:34:39Z</time>
      </trkpt>
      <trkpt lat="48.49032" lon="3.6568">
        <ele>111.96</ele>
        <time>2014-09-20T15:34:40Z</time>
      </trkpt>
      <trkpt lat="48.49029" lon="3.65686">
        <ele>111.9</ele>
        <time>2014-09-20T15:34:41Z</time>
      </trkpt>
      <trkpt lat="48.49026" lon="3.65693">
        <ele>111.86</ele>
        <time>2014-09-20T15:34:42Z</time>
      </trkpt>
      <trkpt lat="48.49023" lon="3.65701">
        <ele>111.85</ele>
        <time>2014-09-20T15:34:43Z</time>
      </trkpt>
      <trkpt lat="48.4902" lon="3.65708">
        <ele>111.85</ele>
        <time>2014-09-20T15:34:44Z</time>
      </trkpt>
      <trkpt lat="48.49017" lon="3.65715">
        <ele>111.77</ele>
        <time>2014-09-20T15:34:45Z</time>
      </trkpt>
      <trkpt lat="48.49013" lon="3.65722">
        <ele>111.73</ele>
        <time>2014-09-20T15:34:46Z</time>
      </trkpt>
      <trkpt lat="48.4901" lon="3.65728">
        <ele>111.73</ele>
        <time>2014-09-20T15:34:47Z</time>
      </trkpt>
      <trkpt lat="48.49006" lon="3.65735">
        <ele>111.73</ele>
        <time>2014-09-20T15:34:48Z</time>
      </trkpt>
      <trkpt lat="48.49003" lon="3.65743">
        <ele>111.7</ele>
        <time>2014-09-20T15:34:49Z</time>
      </trkpt>
      <trkpt lat="48.49" lon="3.6575">
        <ele>111.71</ele>
        <time>2014-09-20T15:34:50Z</time>
      </trkpt>
      <trkpt lat="48.48997" lon="3.65757">
        <ele>111.74</ele>
        <time>2014-09-20T15:34:51Z</time>
      </trkpt>
      <trkpt lat="48.48994" lon="3.65764">
        <ele>111.79</ele>
        <time>2014-09-20T15:34:52Z</time>
      </trkpt>
      <trkpt lat="48.48991" lon="3.65771">
        <ele>111.85</ele>
        <time>2014-09-20T15:34:53Z</time>
      </trkpt>
      <trkpt lat="48.48988" lon="3.65778">
        <ele>111.92</ele>
        <time>2014-09-20T15:34:54Z</time>
      </trkpt>
      <trkpt lat="48.48985" lon="3.65786">
        <ele>112.02</ele>
        <time>2014-09-20T15:34:55Z</time>
      </trkpt>
      <trkpt lat="48.48982" lon="3.65793">
        <ele>112.1</ele>
        <time>2014-09-20T15:34:56Z</time>
      </trkpt>
      <trkpt lat="48.48979" lon="3.658">
        <ele>112.2</ele>
        <time>2014-09-20T15:34:57Z</time>
      </trkpt>
      <trkpt lat="48.48976" lon="3.65808">
        <ele>112.29</ele>
        <time>2014-09-20T15:34:58Z</time>
      </trkpt>
      <trkpt lat="48.48974" lon="3.65815">
        <ele>112.35</ele>
        <time>2014-09-20T15:34:59Z</time>
      </trkpt>
      <trkpt lat="48.48971" lon="3.65822">
        <ele>112.42</ele>
        <time>2014-09-20T15:35:00Z</time>
      </trkpt>
      <trkpt lat="48.48969" lon="3.6583">
        <ele>112.49</ele>
        <time>2014-09-20T15:35:01Z</time>
      </trkpt>
      <trkpt lat="48.48966" lon="3.65837">
        <ele>112.55</ele>
        <time>2014-09-20T15:35:02Z</time>
      </trkpt>
      <trkpt lat="48.48964" lon="3.65844">
        <ele>112.62</ele>
        <time>2014-09-20T15:35:03Z</time>
      </trkpt>
      <trkpt lat="48.48962" lon="3.65851">
        <ele>112.67</ele>
        <time>2014-09-20T15:35:04Z</time>
      </trkpt>
      <trkpt lat="48.48959" lon="3.65857">
        <ele>112.69</ele>
        <time>2014-09-20T15:35:05Z</time>
      </trkpt>
      <trkpt lat="48.48957" lon="3.65864">
        <ele>112.7</ele>
        <time>2014-09-20T15:35:06Z</time>
      </trkpt>
      <trkpt lat="48.48954" lon="3.6587">
        <ele>112.73</ele>
        <time>2014-09-20T15:35:07Z</time>
      </trkpt>
      <trkpt lat="48.4895" lon="3.65875">
        <ele>112.73</ele>
        <time>2014-09-20T15:35:08Z</time>
      </trkpt>
      <trkpt lat="48.48946" lon="3.65881">
        <ele>112.68</ele>
        <time>2014-09-20T15:35:09Z</time>
      </trkpt>
      <trkpt lat="48.48942" lon="3.65886">
        <ele>112.62</ele>
        <time>2014-09-20T15:35:10Z</time>
      </trkpt>
      <trkpt lat="48.48938" lon="3.65892">
        <ele>112.49</ele>
        <time>2014-09-20T15:35:11Z</time>
      </trkpt>
      <trkpt lat="48.48933" lon="3.65897">
        <ele>112.3</ele>
        <time>2014-09-20T15:35:12Z</time>
      </trkpt>
      <trkpt lat="48.48928" lon="3.65903">
        <ele>112.03</ele>
        <time>2014-09-20T15:35:13Z</time>
      </trkpt>
      <trkpt lat="48.48922" lon="3.65909">
        <ele>111.71</ele>
        <time>2014-09-20T15:35:14Z</time>
      </trkpt>
      <trkpt lat="48.48917" lon="3.65916">
        <ele>111.34</ele>
        <time>2014-09-20T15:35:15Z</time>
      </trkpt>
      <trkpt lat="48.48912" lon="3.65924">
        <ele>110.91</ele>
        <time>2014-09-20T15:35:16Z</time>
      </trkpt>
      <trkpt lat="48.48907" lon="3.65933">
        <ele>110.46</ele>
        <time>2014-09-20T15:35:17Z</time>
      </trkpt>
      <trkpt lat="48.48903" lon="3.65944">
        <ele>109.98</ele>
        <time>2014-09-20T15:35:18Z</time>
      </trkpt>
      <trkpt lat="48.48899" lon="3.65955">
        <ele>109.49</ele>
        <time>2014-09-20T15:35:19Z</time>
      </trkpt>
      <trkpt lat="48.48896" lon="3.65967">
        <ele>109.03</ele>
        <time>2014-09-20T15:35:20Z</time>
      </trkpt>
      <trkpt lat="48.48892" lon="3.6598">
        <ele>108.53</ele>
        <time>2014-09-20T15:35:21Z</time>
      </trkpt>
      <trkpt lat="48.48889" lon="3.65993">
        <ele>107.95</ele>
        <time>2014-09-20T15:35:22Z</time>
      </trkpt>
      <trkpt lat="48.48886" lon="3.66007">
        <ele>107.37</ele>
        <time>2014-09-20T15:35:23Z</time>
      </trkpt>
      <trkpt lat="48.48882" lon="3.6602">
        <ele>106.76</ele>
        <time>2014-09-20T15:35:24Z</time>
      </trkpt>
      <trkpt lat="48.48877" lon="3.66034">
        <ele>106.13</ele>
        <time>2014-09-20T15:35:25Z</time>
      </trkpt>
      <trkpt lat="48.48873" lon="3.66049">
        <ele>105.48</ele>
        <time>2014-09-20T15:35:26Z</time>
      </trkpt>
      <trkpt lat="48.48869" lon="3.66064">
        <ele>104.72</ele>
        <time>2014-09-20T15:35:27Z</time>
      </trkpt>
      <trkpt lat="48.48865" lon="3.66079">
        <ele>103.89</ele>
        <time>2014-09-20T15:35:28Z</time>
      </trkpt>
      <trkpt lat="48.4886" lon="3.66094">
        <ele>103.03</ele>
        <time>2014-09-20T15:35:29Z</time>
      </trkpt>
      <trkpt lat="48.48856" lon="3.6611">
        <ele>102.13</ele>
        <time>2014-09-20T15:35:30Z</time>
      </trkpt>
      <trkpt lat="48.48851" lon="3.66125">
        <ele>101.23</ele>
        <time>2014-09-20T15:35:31Z</time>
      </trkpt>
      <trkpt lat="48.48846" lon="3.66141">
        <ele>100.3</ele>
        <time>2014-09-20T15:35:32Z</time>
      </trkpt>
      <trkpt lat="48.48841" lon="3.66157">
        <ele>99.38</ele>
        <time>2014-09-20T15:35:33Z</time>
      </trkpt>
      <trkpt lat="48.48836" lon="3.66172">
        <ele>98.49</ele>
        <time>2014-09-20T15:35:34Z</time>
      </trkpt>
      <trkpt lat="48.48832" lon="3.66188">
        <ele>97.65</ele>
        <time>2014-09-20T15:35:35Z</time>
      </trkpt>
      <trkpt lat="48.48827" lon="3.66203">
        <ele>96.85</ele>
        <time>2014-09-20T15:35:36Z</time>
      </trkpt>
      <trkpt lat="48.48822" lon="3.66219">
        <ele>96.07</ele>
        <time>2014-09-20T15:35:37Z</time>
      </trkpt>
      <trkpt lat="48.48818" lon="3.66234">
        <ele>95.33</ele>
        <time>2014-09-20T15:35:38Z</time>
      </trkpt>
      <trkpt lat="48.48813" lon="3.6625">
        <ele>94.63</ele>
        <time>2014-09-20T15:35:39Z</time>
      </trkpt>
      <trkpt lat="48.48809" lon="3.66265">
        <ele>93.98</ele>
        <time>2014-09-20T15:35:40Z</time>
      </trkpt>
      <trkpt lat="48.48805" lon="3.66279">
        <ele>93.32</ele>
        <time>2014-09-20T15:35:41Z</time>
      </trkpt>
      <trkpt lat="48.48801" lon="3.66294">
        <ele>92.75</ele>
        <time>2014-09-20T15:35:42Z</time>
      </trkpt>
      <trkpt lat="48.48797" lon="3.66308">
        <ele>92.27</ele>
        <time>2014-09-20T15:35:43Z</time>
      </trkpt>
      <trkpt lat="48.48794" lon="3.66322">
        <ele>91.83</ele>
        <time>2014-09-20T15:35:44Z</time>
      </trkpt>
      <trkpt lat="48.48794" lon="3.66336">
        <ele>91.46</ele>
        <time>2014-09-20T15:35:45Z</time>
      </trkpt>
      <trkpt lat="48.48796" lon="3.66348">
        <ele>91.12</ele>
        <time>2014-09-20T15:35:46Z</time>
      </trkpt>
      <trkpt lat="48.48802" lon="3.66356">
        <ele>90.85</ele>
        <time>2014-09-20T15:35:47Z</time>
      </trkpt>
      <trkpt lat="48.48809" lon="3.66363">
        <ele>90.67</ele>
        <time>2014-09-20T15:35:48Z</time>
      </trkpt>
      <trkpt lat="48.48816" lon="3.66367">
        <ele>90.68</ele>
        <time>2014-09-20T15:35:49Z</time>
      </trkpt>
      <trkpt lat="48.48821" lon="3.66372">
        <ele>90.82</ele>
        <time>2014-09-20T15:35:50Z</time>
      </trkpt>
      <trkpt lat="48.48826" lon="3.66376">
        <ele>91</ele>
        <time>2014-09-20T15:35:51Z</time>
      </trkpt>
      <trkpt lat="48.48831" lon="3.66381">
        <ele>91.13</ele>
        <time>2014-09-20T15:35:52Z</time>
      </trkpt>
      <trkpt lat="48.48836" lon="3.66385">
        <ele>91.18</ele>
        <time>2014-09-20T15:35:53Z</time>
      </trkpt>
      <trkpt lat="48.4884" lon="3.66389">
        <ele>91.22</ele>
        <time>2014-09-20T15:35:54Z</time>
      </trkpt>
      <trkpt lat="48.48844" lon="3.66393">
        <ele>91.29</ele>
        <time>2014-09-20T15:35:55Z</time>
      </trkpt>
      <trkpt lat="48.48849" lon="3.66396">
        <ele>91.4</ele>
        <time>2014-09-20T15:35:56Z</time>
      </trkpt>
      <trkpt lat="48.48853" lon="3.66399">
        <ele>91.53</ele>
        <time>2014-09-20T15:35:57Z</time>
      </trkpt>
      <trkpt lat="48.48857" lon="3.66402">
        <ele>91.76</ele>
        <time>2014-09-20T15:35:58Z</time>
      </trkpt>
      <trkpt lat="48.48861" lon="3.66406">
        <ele>91.95</ele>
        <time>2014-09-20T15:35:59Z</time>
      </trkpt>
      <trkpt lat="48.48865" lon="3.66409">
        <ele>92.09</ele>
        <time>2014-09-20T15:36:00Z</time>
      </trkpt>
      <trkpt lat="48.48869" lon="3.66413">
        <ele>92.28</ele>
        <time>2014-09-20T15:36:01Z</time>
      </trkpt>
      <trkpt lat="48.48873" lon="3.66416">
        <ele>92.52</ele>
        <time>2014-09-20T15:36:02Z</time>
      </trkpt>
      <trkpt lat="48.48878" lon="3.66418">
        <ele>92.77</ele>
        <time>2014-09-20T15:36:03Z</time>
      </trkpt>
      <trkpt lat="48.48885" lon="3.66422">
        <ele>93.4</ele>
        <time>2014-09-20T15:36:05Z</time>
      </trkpt>
      <trkpt lat="48.48891" lon="3.66428">
        <ele>93.92</ele>
        <time>2014-09-20T15:36:07Z</time>
      </trkpt>
      <trkpt lat="48.48898" lon="3.66434">
        <ele>94.42</ele>
        <time>2014-09-20T15:36:09Z</time>
      </trkpt>
      <trkpt lat="48.48903" lon="3.66441">
        <ele>94.97</ele>
        <time>2014-09-20T15:36:11Z</time>
      </trkpt>
      <trkpt lat="48.48909" lon="3.66447">
        <ele>95.44</ele>
        <time>2014-09-20T15:36:13Z</time>
      </trkpt>
      <trkpt lat="48.48915" lon="3.66453">
        <ele>95.83</ele>
        <time>2014-09-20T15:36:15Z</time>
      </trkpt>
      <trkpt lat="48.48921" lon="3.66458">
        <ele>96.19</ele>
        <time>2014-09-20T15:36:17Z</time>
      </trkpt>
      <trkpt lat="48.48927" lon="3.66463">
        <ele>96.49</ele>
        <time>2014-09-20T15:36:19Z</time>
      </trkpt>
      <trkpt lat="48.48933" lon="3.66469">
        <ele>96.77</ele>
        <time>2014-09-20T15:36:21Z</time>
      </trkpt>
      <trkpt lat="48.48939" lon="3.66474">
        <ele>96.97</ele>
        <time>2014-09-20T15:36:23Z</time>
      </trkpt>
      <trkpt lat="48.48945" lon="3.6648">
        <ele>97.15</ele>
        <time>2014-09-20T15:36:25Z</time>
      </trkpt>
      <trkpt lat="48.48952" lon="3.66486">
        <ele>97.3</ele>
        <time>2014-09-20T15:36:27Z</time>
      </trkpt>
      <trkpt lat="48.48958" lon="3.66493">
        <ele>97.4</ele>
        <time>2014-09-20T15:36:29Z</time>
      </trkpt>
      <trkpt lat="48.48965" lon="3.665">
        <ele>97.46</ele>
        <time>2014-09-20T15:36:31Z</time>
      </trkpt>
      <trkpt lat="48.48972" lon="3.66507">
        <ele>97.53</ele>
        <time>2014-09-20T15:36:33Z</time>
      </trkpt>
      <trkpt lat="48.4898" lon="3.66513">
        <ele>97.64</ele>
        <time>2014-09-20T15:36:35Z</time>
      </trkpt>
      <trkpt lat="48.48987" lon="3.6652">
        <ele>97.68</ele>
        <time>2014-09-20T15:36:37Z</time>
      </trkpt>
      <trkpt lat="48.48995" lon="3.66528">
        <ele>97.74</ele>
        <time>2014-09-20T15:36:39Z</time>
      </trkpt>
      <trkpt lat="48.49002" lon="3.66535">
        <ele>97.74</ele>
        <time>2014-09-20T15:36:41Z</time>
      </trkpt>
      <trkpt lat="48.49009" lon="3.66542">
        <ele>97.69</ele>
        <time>2014-09-20T15:36:43Z</time>
      </trkpt>
      <trkpt lat="48.49017" lon="3.66549">
        <ele>97.64</ele>
        <time>2014-09-20T15:36:45Z</time>
      </trkpt>
      <trkpt lat="48.49024" lon="3.66557">
        <ele>97.52</ele>
        <time>2014-09-20T15:36:47Z</time>
      </trkpt>
      <trkpt lat="48.49028" lon="3.66561">
        <ele>97.47</ele>
        <time>2014-09-20T15:36:48Z</time>
      </trkpt>
      <trkpt lat="48.49032" lon="3.66564">
        <ele>97.41</ele>
        <time>2014-09-20T15:36:49Z</time>
      </trkpt>
      <trkpt lat="48.49036" lon="3.66568">
        <ele>97.34</ele>
        <time>2014-09-20T15:36:50Z</time>
      </trkpt>
      <trkpt lat="48.49039" lon="3.66572">
        <ele>97.29</ele>
        <time>2014-09-20T15:36:51Z</time>
      </trkpt>
      <trkpt lat="48.49043" lon="3.66576">
        <ele>97.22</ele>
        <time>2014-09-20T15:36:52Z</time>
      </trkpt>
      <trkpt lat="48.49047" lon="3.66579">
        <ele>97.17</ele>
        <time>2014-09-20T15:36:53Z</time>
      </trkpt>
      <trkpt lat="48.49054" lon="3.66587">
        <ele>97.11</ele>
        <time>2014-09-20T15:36:55Z</time>
      </trkpt>
      <trkpt lat="48.49053" lon="3.66599">
        <ele>97.03</ele>
        <time>2014-09-20T15:36:57Z</time>
      </trkpt>
      <trkpt lat="48.49049" lon="3.6661">
        <ele>97.03</ele>
        <time>2014-09-20T15:36:59Z</time>
      </trkpt>
      <trkpt lat="48.49045" lon="3.6662">
        <ele>97.03</ele>
        <time>2014-09-20T15:37:01Z</time>
      </trkpt>
      <trkpt lat="48.4904" lon="3.66627">
        <ele>97.07</ele>
        <time>2014-09-20T15:37:03Z</time>
      </trkpt>
      <trkpt lat="48.49036" lon="3.66628">
        <ele>97.08</ele>
        <time>2014-09-20T15:37:05Z</time>
      </trkpt>
      <trkpt lat="48.4903" lon="3.66631">
        <ele>97.05</ele>
        <time>2014-09-20T15:37:07Z</time>
      </trkpt>
      <trkpt lat="48.49024" lon="3.66637">
        <ele>96.95</ele>
        <time>2014-09-20T15:37:09Z</time>
      </trkpt>
      <trkpt lat="48.49018" lon="3.66645">
        <ele>96.83</ele>
        <time>2014-09-20T15:37:11Z</time>
      </trkpt>
      <trkpt lat="48.49012" lon="3.66652">
        <ele>96.65</ele>
        <time>2014-09-20T15:37:13Z</time>
      </trkpt>
      <trkpt lat="48.49005" lon="3.66659">
        <ele>96.39</ele>
        <time>2014-09-20T15:37:15Z</time>
      </trkpt>
      <trkpt lat="48.48999" lon="3.66667">
        <ele>96.17</ele>
        <time>2014-09-20T15:37:17Z</time>
      </trkpt>
      <trkpt lat="48.48992" lon="3.66675">
        <ele>95.95</ele>
        <time>2014-09-20T15:37:19Z</time>
      </trkpt>
      <trkpt lat="48.48985" lon="3.66684">
        <ele>95.67</ele>
        <time>2014-09-20T15:37:21Z</time>
      </trkpt>
      <trkpt lat="48.48982" lon="3.66688">
        <ele>95.49</ele>
        <time>2014-09-20T15:37:22Z</time>
      </trkpt>
      <trkpt lat="48.48978" lon="3.66692">
        <ele>95.3</ele>
        <time>2014-09-20T15:37:23Z</time>
      </trkpt>
      <trkpt lat="48.48974" lon="3.66696">
        <ele>95.08</ele>
        <time>2014-09-20T15:37:24Z</time>
      </trkpt>
      <trkpt lat="48.4897" lon="3.66701">
        <ele>94.84</ele>
        <time>2014-09-20T15:37:25Z</time>
      </trkpt>
      <trkpt lat="48.48966" lon="3.66706">
        <ele>94.61</ele>
        <time>2014-09-20T15:37:26Z</time>
      </trkpt>
      <trkpt lat="48.48963" lon="3.66711">
        <ele>94.34</ele>
        <time>2014-09-20T15:37:27Z</time>
      </trkpt>
      <trkpt lat="48.48959" lon="3.66717">
        <ele>94.01</ele>
        <time>2014-09-20T15:37:28Z</time>
      </trkpt>
      <trkpt lat="48.48955" lon="3.66723">
        <ele>93.64</ele>
        <time>2014-09-20T15:37:29Z</time>
      </trkpt>
      <trkpt lat="48.48951" lon="3.6673">
        <ele>93.24</ele>
        <time>2014-09-20T15:37:30Z</time>
      </trkpt>
      <trkpt lat="48.48946" lon="3.66738">
        <ele>92.79</ele>
        <time>2014-09-20T15:37:31Z</time>
      </trkpt>
      <trkpt lat="48.48942" lon="3.66746">
        <ele>92.3</ele>
        <time>2014-09-20T15:37:32Z</time>
      </trkpt>
      <trkpt lat="48.48937" lon="3.66754">
        <ele>91.8</ele>
        <time>2014-09-20T15:37:33Z</time>
      </trkpt>
      <trkpt lat="48.48933" lon="3.66762">
        <ele>91.31</ele>
        <time>2014-09-20T15:37:34Z</time>
      </trkpt>
      <trkpt lat="48.48928" lon="3.6677">
        <ele>90.84</ele>
        <time>2014-09-20T15:37:35Z</time>
      </trkpt>
      <trkpt lat="48.48924" lon="3.66779">
        <ele>90.36</ele>
        <time>2014-09-20T15:37:36Z</time>
      </trkpt>
      <trkpt lat="48.48919" lon="3.66788">
        <ele>89.88</ele>
        <time>2014-09-20T15:37:37Z</time>
      </trkpt>
      <trkpt lat="48.48914" lon="3.66796">
        <ele>89.42</ele>
        <time>2014-09-20T15:37:38Z</time>
      </trkpt>
      <trkpt lat="48.48909" lon="3.66805">
        <ele>88.97</ele>
        <time>2014-09-20T15:37:39Z</time>
      </trkpt>
      <trkpt lat="48.48904" lon="3.66814">
        <ele>88.51</ele>
        <time>2014-09-20T15:37:40Z</time>
      </trkpt>
      <trkpt lat="48.489" lon="3.66822">
        <ele>88.06</ele>
        <time>2014-09-20T15:37:41Z</time>
      </trkpt>
      <trkpt lat="48.48896" lon="3.66828">
        <ele>87.63</ele>
        <time>2014-09-20T15:37:42Z</time>
      </trkpt>
      <trkpt lat="48.48891" lon="3.66835">
        <ele>86.97</ele>
        <time>2014-09-20T15:37:44Z</time>
      </trkpt>
      <trkpt lat="48.48886" lon="3.66837">
        <ele>86.49</ele>
        <time>2014-09-20T15:37:46Z</time>
      </trkpt>
      <trkpt lat="48.48879" lon="3.66838">
        <ele>86.13</ele>
        <time>2014-09-20T15:37:48Z</time>
      </trkpt>
      <trkpt lat="48.48872" lon="3.66841">
        <ele>85.84</ele>
        <time>2014-09-20T15:37:50Z</time>
      </trkpt>
      <trkpt lat="48.48868" lon="3.66848">
        <ele>85.57</ele>
        <time>2014-09-20T15:37:52Z</time>
      </trkpt>
      <trkpt lat="48.4887" lon="3.66855">
        <ele>85.35</ele>
        <time>2014-09-20T15:37:54Z</time>
      </trkpt>
      <trkpt lat="48.48876" lon="3.66862">
        <ele>85.12</ele>
        <time>2014-09-20T15:37:56Z</time>
      </trkpt>
      <trkpt lat="48.48876" lon="3.66873">
        <ele>84.92</ele>
        <time>2014-09-20T15:37:58Z</time>
      </trkpt>
      <trkpt lat="48.48873" lon="3.66887">
        <ele>84.61</ele>
        <time>2014-09-20T15:38:00Z</time>
      </trkpt>
      <trkpt lat="48.48872" lon="3.66894">
        <ele>84.47</ele>
        <time>2014-09-20T15:38:01Z</time>
      </trkpt>
      <trkpt lat="48.4887" lon="3.66902">
        <ele>84.31</ele>
        <time>2014-09-20T15:38:02Z</time>
      </trkpt>
      <trkpt lat="48.48868" lon="3.6691">
        <ele>84.19</ele>
        <time>2014-09-20T15:38:03Z</time>
      </trkpt>
      <trkpt lat="48.48866" lon="3.66919">
        <ele>84.05</ele>
        <time>2014-09-20T15:38:04Z</time>
      </trkpt>
      <trkpt lat="48.48864" lon="3.66927">
        <ele>83.89</ele>
        <time>2014-09-20T15:38:05Z</time>
      </trkpt>
      <trkpt lat="48.48863" lon="3.66936">
        <ele>83.7</ele>
        <time>2014-09-20T15:38:06Z</time>
      </trkpt>
      <trkpt lat="48.48861" lon="3.66945">
        <ele>83.48</ele>
        <time>2014-09-20T15:38:07Z</time>
      </trkpt>
      <trkpt lat="48.48859" lon="3.66955">
        <ele>83.27</ele>
        <time>2014-09-20T15:38:08Z</time>
      </trkpt>
      <trkpt lat="48.48857" lon="3.66964">
        <ele>83.03</ele>
        <time>2014-09-20T15:38:09Z</time>
      </trkpt>
      <trkpt lat="48.48855" lon="3.66974">
        <ele>82.78</ele>
        <time>2014-09-20T15:38:10Z</time>
      </trkpt>
      <trkpt lat="48.48852" lon="3.66984">
        <ele>82.54</ele>
        <time>2014-09-20T15:38:11Z</time>
      </trkpt>
      <trkpt lat="48.4885" lon="3.66993">
        <ele>82.29</ele>
        <time>2014-09-20T15:38:12Z</time>
      </trkpt>
      <trkpt lat="48.48848" lon="3.67004">
        <ele>82.02</ele>
        <time>2014-09-20T15:38:13Z</time>
      </trkpt>
      <trkpt lat="48.48846" lon="3.67014">
        <ele>81.78</ele>
        <time>2014-09-20T15:38:14Z</time>
      </trkpt>
      <trkpt lat="48.48843" lon="3.67024">
        <ele>81.54</ele>
        <time>2014-09-20T15:38:15Z</time>
      </trkpt>
      <trkpt lat="48.48841" lon="3.67035">
        <ele>81.29</ele>
        <time>2014-09-20T15:38:16Z</time>
      </trkpt>
      <trkpt lat="48.48839" lon="3.67046">
        <ele>81.05</ele>
        <time>2014-09-20T15:38:17Z</time>
      </trkpt>
      <trkpt lat="48.48836" lon="3.67056">
        <ele>80.79</ele>
        <time>2014-09-20T15:38:18Z</time>
      </trkpt>
      <trkpt lat="48.48834" lon="3.67067">
        <ele>80.55</ele>
        <time>2014-09-20T15:38:19Z</time>
      </trkpt>
      <trkpt lat="48.48832" lon="3.67078">
        <ele>80.35</ele>
        <time>2014-09-20T15:38:20Z</time>
      </trkpt>
      <trkpt lat="48.4883" lon="3.67089">
        <ele>80.17</ele>
        <time>2014-09-20T15:38:21Z</time>
      </trkpt>
      <trkpt lat="48.48827" lon="3.67101">
        <ele>80.06</ele>
        <time>2014-09-20T15:38:22Z</time>
      </trkpt>
      <trkpt lat="48.48825" lon="3.67112">
        <ele>79.97</ele>
        <time>2014-09-20T15:38:23Z</time>
      </trkpt>
      <trkpt lat="48.48822" lon="3.67123">
        <ele>79.86</ele>
        <time>2014-09-20T15:38:24Z</time>
      </trkpt>
      <trkpt lat="48.4882" lon="3.67135">
        <ele>79.75</ele>
        <time>2014-09-20T15:38:25Z</time>
      </trkpt>
      <trkpt lat="48.48818" lon="3.67146">
        <ele>79.62</ele>
        <time>2014-09-20T15:38:26Z</time>
      </trkpt>
      <trkpt lat="48.48815" lon="3.67158">
        <ele>79.45</ele>
        <time>2014-09-20T15:38:27Z</time>
      </trkpt>
      <trkpt lat="48.48812" lon="3.67169">
        <ele>79.27</ele>
        <time>2014-09-20T15:38:28Z</time>
      </trkpt>
      <trkpt lat="48.4881" lon="3.6718">
        <ele>79.08</ele>
        <time>2014-09-20T15:38:29Z</time>
      </trkpt>
      <trkpt lat="48.48807" lon="3.67192">
        <ele>78.89</ele>
        <time>2014-09-20T15:38:30Z</time>
      </trkpt>
      <trkpt lat="48.48805" lon="3.67203">
        <ele>78.68</ele>
        <time>2014-09-20T15:38:31Z</time>
      </trkpt>
      <trkpt lat="48.48802" lon="3.67214">
        <ele>78.44</ele>
        <time>2014-09-20T15:38:32Z</time>
      </trkpt>
      <trkpt lat="48.488" lon="3.67225">
        <ele>78.19</ele>
        <time>2014-09-20T15:38:33Z</time>
      </trkpt>
      <trkpt lat="48.48797" lon="3.67237">
        <ele>77.92</ele>
        <time>2014-09-20T15:38:34Z</time>
      </trkpt>
      <trkpt lat="48.48795" lon="3.67248">
        <ele>77.7</ele>
        <time>2014-09-20T15:38:35Z</time>
      </trkpt>
      <trkpt lat="48.48792" lon="3.67259">
        <ele>77.53</ele>
        <time>2014-09-20T15:38:36Z</time>
      </trkpt>
      <trkpt lat="48.48789" lon="3.67269">
        <ele>77.36</ele>
        <time>2014-09-20T15:38:37Z</time>
      </trkpt>
      <trkpt lat="48.48787" lon="3.67279">
        <ele>77.2</ele>
        <time>2014-09-20T15:38:38Z</time>
      </trkpt>
      <trkpt lat="48.48785" lon="3.6729">
        <ele>77.13</ele>
        <time>2014-09-20T15:38:39Z</time>
      </trkpt>
      <trkpt lat="48.48782" lon="3.67299">
        <ele>77.06</ele>
        <time>2014-09-20T15:38:40Z</time>
      </trkpt>
      <trkpt lat="48.4878" lon="3.67309">
        <ele>76.95</ele>
        <time>2014-09-20T15:38:41Z</time>
      </trkpt>
      <trkpt lat="48.48777" lon="3.67318">
        <ele>76.82</ele>
        <time>2014-09-20T15:38:42Z</time>
      </trkpt>
      <trkpt lat="48.48775" lon="3.67327">
        <ele>76.7</ele>
        <time>2014-09-20T15:38:43Z</time>
      </trkpt>
      <trkpt lat="48.48772" lon="3.67335">
        <ele>76.55</ele>
        <time>2014-09-20T15:38:44Z</time>
      </trkpt>
      <trkpt lat="48.4877" lon="3.67344">
        <ele>76.47</ele>
        <time>2014-09-20T15:38:45Z</time>
      </trkpt>
      <trkpt lat="48.48768" lon="3.67352">
        <ele>76.41</ele>
        <time>2014-09-20T15:38:46Z</time>
      </trkpt>
      <trkpt lat="48.48766" lon="3.67359">
        <ele>76.42</ele>
        <time>2014-09-20T15:38:47Z</time>
      </trkpt>
      <trkpt lat="48.48763" lon="3.67368">
        <ele>76.62</ele>
        <time>2014-09-20T15:38:49Z</time>
      </trkpt>
      <trkpt lat="48.48761" lon="3.67377">
        <ele>76.66</ele>
        <time>2014-09-20T15:38:51Z</time>
      </trkpt>
      <trkpt lat="48.48757" lon="3.67389">
        <ele>76.6</ele>
        <time>2014-09-20T15:38:53Z</time>
      </trkpt>
      <trkpt lat="48.48755" lon="3.67395">
        <ele>76.53</ele>
        <time>2014-09-20T15:38:54Z</time>
      </trkpt>
      <trkpt lat="48.48753" lon="3.67403">
        <ele>76.43</ele>
        <time>2014-09-20T15:38:55Z</time>
      </trkpt>
      <trkpt lat="48.48751" lon="3.6741">
        <ele>76.31</ele>
        <time>2014-09-20T15:38:56Z</time>
      </trkpt>
      <trkpt lat="48.48749" lon="3.67419">
        <ele>76.19</ele>
        <time>2014-09-20T15:38:57Z</time>
      </trkpt>
      <trkpt lat="48.48747" lon="3.67428">
        <ele>76.2</ele>
        <time>2014-09-20T15:38:58Z</time>
      </trkpt>
      <trkpt lat="48.48744" lon="3.67436">
        <ele>76.25</ele>
        <time>2014-09-20T15:38:59Z</time>
      </trkpt>
      <trkpt lat="48.48742" lon="3.67444">
        <ele>76.35</ele>
        <time>2014-09-20T15:39:00Z</time>
      </trkpt>
      <trkpt lat="48.4874" lon="3.67452">
        <ele>76.42</ele>
        <time>2014-09-20T15:39:01Z</time>
      </trkpt>
      <trkpt lat="48.48737" lon="3.67461">
        <ele>76.45</ele>
        <time>2014-09-20T15:39:02Z</time>
      </trkpt>
      <trkpt lat="48.48734" lon="3.67469">
        <ele>76.47</ele>
        <time>2014-09-20T15:39:03Z</time>
      </trkpt>
      <trkpt lat="48.48732" lon="3.67477">
        <ele>76.46</ele>
        <time>2014-09-20T15:39:04Z</time>
      </trkpt>
      <trkpt lat="48.48729" lon="3.67485">
        <ele>76.4</ele>
        <time>2014-09-20T15:39:05Z</time>
      </trkpt>
      <trkpt lat="48.48727" lon="3.67493">
        <ele>76.33</ele>
        <time>2014-09-20T15:39:06Z</time>
      </trkpt>
      <trkpt lat="48.48725" lon="3.67502">
        <ele>76.28</ele>
        <time>2014-09-20T15:39:07Z</time>
      </trkpt>
      <trkpt lat="48.48722" lon="3.6751">
        <ele>76.27</ele>
        <time>2014-09-20T15:39:08Z</time>
      </trkpt>
      <trkpt lat="48.48719" lon="3.67519">
        <ele>76.33</ele>
        <time>2014-09-20T15:39:09Z</time>
      </trkpt>
      <trkpt lat="48.48717" lon="3.67527">
        <ele>76.43</ele>
        <time>2014-09-20T15:39:10Z</time>
      </trkpt>
      <trkpt lat="48.48714" lon="3.67535">
        <ele>76.53</ele>
        <time>2014-09-20T15:39:11Z</time>
      </trkpt>
      <trkpt lat="48.48712" lon="3.67544">
        <ele>76.6</ele>
        <time>2014-09-20T15:39:12Z</time>
      </trkpt>
      <trkpt lat="48.4871" lon="3.67552">
        <ele>76.61</ele>
        <time>2014-09-20T15:39:13Z</time>
      </trkpt>
      <trkpt lat="48.48707" lon="3.6756">
        <ele>76.57</ele>
        <time>2014-09-20T15:39:14Z</time>
      </trkpt>
      <trkpt lat="48.48705" lon="3.67568">
        <ele>76.46</ele>
        <time>2014-09-20T15:39:15Z</time>
      </trkpt>
      <trkpt lat="48.48702" lon="3.67576">
        <ele>76.37</ele>
        <time>2014-09-20T15:39:16Z</time>
      </trkpt>
      <trkpt lat="48.487" lon="3.67585">
        <ele>76.34</ele>
        <time>2014-09-20T15:39:17Z</time>
      </trkpt>
      <trkpt lat="48.48696" lon="3.67592">
        <ele>76.26</ele>
        <time>2014-09-20T15:39:18Z</time>
      </trkpt>
      <trkpt lat="48.48693" lon="3.676">
        <ele>76.15</ele>
        <time>2014-09-20T15:39:19Z</time>
      </trkpt>
      <trkpt lat="48.4869" lon="3.67608">
        <ele>76.07</ele>
        <time>2014-09-20T15:39:20Z</time>
      </trkpt>
      <trkpt lat="48.48688" lon="3.67616">
        <ele>76.01</ele>
        <time>2014-09-20T15:39:21Z</time>
      </trkpt>
      <trkpt lat="48.48687" lon="3.67624">
        <ele>75.99</ele>
        <time>2014-09-20T15:39:22Z</time>
      </trkpt>
      <trkpt lat="48.48687" lon="3.67632">
        <ele>75.97</ele>
        <time>2014-09-20T15:39:23Z</time>
      </trkpt>
      <trkpt lat="48.48689" lon="3.67639">
        <ele>75.91</ele>
        <time>2014-09-20T15:39:24Z</time>
      </trkpt>
      <trkpt lat="48.48693" lon="3.67644">
        <ele>75.79</ele>
        <time>2014-09-20T15:39:25Z</time>
      </trkpt>
      <trkpt lat="48.48698" lon="3.67647">
        <ele>75.7</ele>
        <time>2014-09-20T15:39:26Z</time>
      </trkpt>
      <trkpt lat="48.48703" lon="3.67649">
        <ele>75.66</ele>
        <time>2014-09-20T15:39:27Z</time>
      </trkpt>
      <trkpt lat="48.48708" lon="3.6765">
        <ele>75.58</ele>
        <time>2014-09-20T15:39:28Z</time>
      </trkpt>
      <trkpt lat="48.48917" lon="3.67965">
        <ele>72.17</ele>
        <time>2014-09-20T15:40:30Z</time>
      </trkpt>
      <trkpt lat="48.48919" lon="3.67972">
        <ele>72.14</ele>
        <time>2014-09-20T15:40:31Z</time>
      </trkpt>
      <trkpt lat="48.4892" lon="3.67979">
        <ele>72.11</ele>
        <time>2014-09-20T15:40:32Z</time>
      </trkpt>
      <trkpt lat="48.48921" lon="3.67986">
        <ele>72.09</ele>
        <time>2014-09-20T15:40:33Z</time>
      </trkpt>
      <trkpt lat="48.48922" lon="3.67994">
        <ele>72.07</ele>
        <time>2014-09-20T15:40:34Z</time>
      </trkpt>
      <trkpt lat="48.48923" lon="3.68001">
        <ele>72.06</ele>
        <time>2014-09-20T15:40:35Z</time>
      </trkpt>
      <trkpt lat="48.48924" lon="3.68008">
        <ele>72.05</ele>
        <time>2014-09-20T15:40:36Z</time>
      </trkpt>
      <trkpt lat="48.48924" lon="3.68015">
        <ele>72.05</ele>
        <time>2014-09-20T15:40:37Z</time>
      </trkpt>
      <trkpt lat="48.48925" lon="3.68022">
        <ele>72.04</ele>
        <time>2014-09-20T15:40:38Z</time>
      </trkpt>
      <trkpt lat="48.48926" lon="3.6803">
        <ele>72.04</ele>
        <time>2014-09-20T15:40:39Z</time>
      </trkpt>
      <trkpt lat="48.48927" lon="3.68037">
        <ele>72.04</ele>
        <time>2014-09-20T15:40:40Z</time>
      </trkpt>
      <trkpt lat="48.48928" lon="3.68044">
        <ele>72.03</ele>
        <time>2014-09-20T15:40:41Z</time>
      </trkpt>
      <trkpt lat="48.48929" lon="3.68052">
        <ele>72.03</ele>
        <time>2014-09-20T15:40:42Z</time>
      </trkpt>
      <trkpt lat="48.4893" lon="3.68059">
        <ele>72.01</ele>
        <time>2014-09-20T15:40:43Z</time>
      </trkpt>
      <trkpt lat="48.48932" lon="3.68066">
        <ele>71.99</ele>
        <time>2014-09-20T15:40:44Z</time>
      </trkpt>
      <trkpt lat="48.48933" lon="3.68073">
        <ele>72</ele>
        <time>2014-09-20T15:40:45Z</time>
      </trkpt>
      <trkpt lat="48.48934" lon="3.6808">
        <ele>72</ele>
        <time>2014-09-20T15:40:46Z</time>
      </trkpt>
      <trkpt lat="48.48936" lon="3.68087">
        <ele>72.01</ele>
        <time>2014-09-20T15:40:47Z</time>
      </trkpt>
      <trkpt lat="48.48937" lon="3.68094">
        <ele>72.01</ele>
        <time>2014-09-20T15:40:48Z</time>
      </trkpt>
      <trkpt lat="48.48939" lon="3.681">
        <ele>72.04</ele>
        <time>2014-09-20T15:40:49Z</time>
      </trkpt>
      <trkpt lat="48.48941" lon="3.68107">
        <ele>72.06</ele>
        <time>2014-09-20T15:40:50Z</time>
      </trkpt>
      <trkpt lat="48.48944" lon="3.68113">
        <ele>72.08</ele>
        <time>2014-09-20T15:40:51Z</time>
      </trkpt>
      <trkpt lat="48.48946" lon="3.68119">
        <ele>72.07</ele>
        <time>2014-09-20T15:40:52Z</time>
      </trkpt>
      <trkpt lat="48.48948" lon="3.68126">
        <ele>72.06</ele>
        <time>2014-09-20T15:40:53Z</time>
      </trkpt>
      <trkpt lat="48.48951" lon="3.68132">
        <ele>72.03</ele>
        <time>2014-09-20T15:40:54Z</time>
      </trkpt>
      <trkpt lat="48.48954" lon="3.68138">
        <ele>72</ele>
        <time>2014-09-20T15:40:55Z</time>
      </trkpt>
      <trkpt lat="48.48956" lon="3.68145">
        <ele>71.96</ele>
        <time>2014-09-20T15:40:56Z</time>
      </trkpt>
      <trkpt lat="48.48959" lon="3.68151">
        <ele>71.93</ele>
        <time>2014-09-20T15:40:57Z</time>
      </trkpt>
      <trkpt lat="48.48961" lon="3.68157">
        <ele>71.9</ele>
        <time>2014-09-20T15:40:58Z</time>
      </trkpt>
      <trkpt lat="48.48964" lon="3.68163">
        <ele>71.88</ele>
        <time>2014-09-20T15:40:59Z</time>
      </trkpt>
      <trkpt lat="48.48967" lon="3.68169">
        <ele>71.84</ele>
        <time>2014-09-20T15:41:00Z</time>
      </trkpt>
      <trkpt lat="48.48969" lon="3.68176">
        <ele>71.84</ele>
        <time>2014-09-20T15:41:01Z</time>
      </trkpt>
      <trkpt lat="48.48972" lon="3.68182">
        <ele>71.84</ele>
        <time>2014-09-20T15:41:02Z</time>
      </trkpt>
      <trkpt lat="48.48975" lon="3.68188">
        <ele>71.83</ele>
        <time>2014-09-20T15:41:03Z</time>
      </trkpt>
      <trkpt lat="48.48977" lon="3.68194">
        <ele>71.81</ele>
        <time>2014-09-20T15:41:04Z</time>
      </trkpt>
      <trkpt lat="48.4898" lon="3.682">
        <ele>71.76</ele>
        <time>2014-09-20T15:41:05Z</time>
      </trkpt>
      <trkpt lat="48.48982" lon="3.68206">
        <ele>71.73</ele>
        <time>2014-09-20T15:41:06Z</time>
      </trkpt>
      <trkpt lat="48.48985" lon="3.68212">
        <ele>71.68</ele>
        <time>2014-09-20T15:41:07Z</time>
      </trkpt>
      <trkpt lat="48.48988" lon="3.68218">
        <ele>71.67</ele>
        <time>2014-09-20T15:41:08Z</time>
      </trkpt>
      <trkpt lat="48.4899" lon="3.68225">
        <ele>71.66</ele>
        <time>2014-09-20T15:41:09Z</time>
      </trkpt>
      <trkpt lat="48.48993" lon="3.68231">
        <ele>71.65</ele>
        <time>2014-09-20T15:41:10Z</time>
      </trkpt>
      <trkpt lat="48.48995" lon="3.68237">
        <ele>71.64</ele>
        <time>2014-09-20T15:41:11Z</time>
      </trkpt>
      <trkpt lat="48.48998" lon="3.68243">
        <ele>71.64</ele>
        <time>2014-09-20T15:41:12Z</time>
      </trkpt>
      <trkpt lat="48.49" lon="3.6825">
        <ele>71.64</ele>
        <time>2014-09-20T15:41:13Z</time>
      </trkpt>
      <trkpt lat="48.49003" lon="3.68256">
        <ele>71.66</ele>
        <time>2014-09-20T15:41:14Z</time>
      </trkpt>
      <trkpt lat="48.49005" lon="3.68262">
        <ele>71.68</ele>
        <time>2014-09-20T15:41:15Z</time>
      </trkpt>
      <trkpt lat="48.49008" lon="3.68269">
        <ele>71.71</ele>
        <time>2014-09-20T15:41:16Z</time>
      </trkpt>
      <trkpt lat="48.4901" lon="3.68275">
        <ele>71.74</ele>
        <time>2014-09-20T15:41:17Z</time>
      </trkpt>
      <trkpt lat="48.49012" lon="3.68281">
        <ele>71.76</ele>
        <time>2014-09-20T15:41:18Z</time>
      </trkpt>
      <trkpt lat="48.49015" lon="3.68287">
        <ele>71.81</ele>
        <time>2014-09-20T15:41:19Z</time>
      </trkpt>
      <trkpt lat="48.49017" lon="3.68294">
        <ele>71.86</ele>
        <time>2014-09-20T15:41:20Z</time>
      </trkpt>
      <trkpt lat="48.49019" lon="3.683">
        <ele>71.93</ele>
        <time>2014-09-20T15:41:21Z</time>
      </trkpt>
      <trkpt lat="48.49021" lon="3.68306">
        <ele>71.98</ele>
        <time>2014-09-20T15:41:22Z</time>
      </trkpt>
      <trkpt lat="48.49024" lon="3.68312">
        <ele>71.99</ele>
        <time>2014-09-20T15:41:23Z</time>
      </trkpt>
      <trkpt lat="48.49026" lon="3.68319">
        <ele>72</ele>
        <time>2014-09-20T15:41:24Z</time>
      </trkpt>
      <trkpt lat="48.49028" lon="3.68325">
        <ele>72.03</ele>
        <time>2014-09-20T15:41:25Z</time>
      </trkpt>
      <trkpt lat="48.4903" lon="3.68331">
        <ele>72.03</ele>
        <time>2014-09-20T15:41:26Z</time>
      </trkpt>
      <trkpt lat="48.49033" lon="3.68337">
        <ele>72.03</ele>
        <time>2014-09-20T15:41:27Z</time>
      </trkpt>
      <trkpt lat="48.49036" lon="3.68343">
        <ele>72.05</ele>
        <time>2014-09-20T15:41:28Z</time>
      </trkpt>
      <trkpt lat="48.49039" lon="3.68349">
        <ele>72.07</ele>
        <time>2014-09-20T15:41:29Z</time>
      </trkpt>
      <trkpt lat="48.49043" lon="3.68353">
        <ele>72.06</ele>
        <time>2014-09-20T15:41:30Z</time>
      </trkpt>
      <trkpt lat="48.49047" lon="3.68358">
        <ele>72.08</ele>
        <time>2014-09-20T15:41:31Z</time>
      </trkpt>
      <trkpt lat="48.49051" lon="3.68362">
        <ele>72.09</ele>
        <time>2014-09-20T15:41:32Z</time>
      </trkpt>
      <trkpt lat="48.49055" lon="3.68366">
        <ele>72.13</ele>
        <time>2014-09-20T15:41:33Z</time>
      </trkpt>
      <trkpt lat="48.49059" lon="3.6837">
        <ele>72.15</ele>
        <time>2014-09-20T15:41:34Z</time>
      </trkpt>
      <trkpt lat="48.49062" lon="3.68374">
        <ele>72.2</ele>
        <time>2014-09-20T15:41:35Z</time>
      </trkpt>
      <trkpt lat="48.49066" lon="3.68379">
        <ele>72.23</ele>
        <time>2014-09-20T15:41:36Z</time>
      </trkpt>
      <trkpt lat="48.4907" lon="3.68383">
        <ele>72.28</ele>
        <time>2014-09-20T15:41:37Z</time>
      </trkpt>
      <trkpt lat="48.49074" lon="3.68387">
        <ele>72.32</ele>
        <time>2014-09-20T15:41:38Z</time>
      </trkpt>
      <trkpt lat="48.49078" lon="3.68391">
        <ele>72.34</ele>
        <time>2014-09-20T15:41:39Z</time>
      </trkpt>
      <trkpt lat="48.49082" lon="3.68395">
        <ele>72.36</ele>
        <time>2014-09-20T15:41:40Z</time>
      </trkpt>
      <trkpt lat="48.49086" lon="3.68399">
        <ele>72.41</ele>
        <time>2014-09-20T15:41:41Z</time>
      </trkpt>
      <trkpt lat="48.49089" lon="3.68403">
        <ele>72.44</ele>
        <time>2014-09-20T15:41:42Z</time>
      </trkpt>
      <trkpt lat="48.49093" lon="3.68407">
        <ele>72.48</ele>
        <time>2014-09-20T15:41:43Z</time>
      </trkpt>
      <trkpt lat="48.49097" lon="3.68411">
        <ele>72.52</ele>
        <time>2014-09-20T15:41:44Z</time>
      </trkpt>
      <trkpt lat="48.49101" lon="3.68415">
        <ele>72.55</ele>
        <time>2014-09-20T15:41:45Z</time>
      </trkpt>
      <trkpt lat="48.49105" lon="3.68419">
        <ele>72.59</ele>
        <time>2014-09-20T15:41:46Z</time>
      </trkpt>
      <trkpt lat="48.49109" lon="3.68423">
        <ele>72.65</ele>
        <time>2014-09-20T15:41:47Z</time>
      </trkpt>
      <trkpt lat="48.49112" lon="3.68427">
        <ele>72.7</ele>
        <time>2014-09-20T15:41:48Z</time>
      </trkpt>
      <trkpt lat="48.49116" lon="3.68431">
        <ele>72.75</ele>
        <time>2014-09-20T15:41:49Z</time>
      </trkpt>
      <trkpt lat="48.4912" lon="3.68436">
        <ele>72.8</ele>
        <time>2014-09-20T15:41:50Z</time>
      </trkpt>
      <trkpt lat="48.49123" lon="3.6844">
        <ele>72.83</ele>
        <time>2014-09-20T15:41:51Z</time>
      </trkpt>
      <trkpt lat="48.49127" lon="3.68444">
        <ele>72.83</ele>
        <time>2014-09-20T15:41:52Z</time>
      </trkpt>
      <trkpt lat="48.4913" lon="3.68448">
        <ele>72.8</ele>
        <time>2014-09-20T15:41:53Z</time>
      </trkpt>
      <trkpt lat="48.49134" lon="3.68453">
        <ele>72.79</ele>
        <time>2014-09-20T15:41:54Z</time>
      </trkpt>
      <trkpt lat="48.49137" lon="3.68458">
        <ele>72.75</ele>
        <time>2014-09-20T15:41:55Z</time>
      </trkpt>
      <trkpt lat="48.4914" lon="3.68463">
        <ele>72.69</ele>
        <time>2014-09-20T15:41:56Z</time>
      </trkpt>
      <trkpt lat="48.49144" lon="3.68467">
        <ele>72.63</ele>
        <time>2014-09-20T15:41:57Z</time>
      </trkpt>
      <trkpt lat="48.49147" lon="3.68472">
        <ele>72.55</ele>
        <time>2014-09-20T15:41:58Z</time>
      </trkpt>
      <trkpt lat="48.49154" lon="3.68481">
        <ele>72.47</ele>
        <time>2014-09-20T15:42:00Z</time>
      </trkpt>
      <trkpt lat="48.4916" lon="3.68488">
        <ele>72.37</ele>
        <time>2014-09-20T15:42:02Z</time>
      </trkpt>
      <trkpt lat="48.49167" lon="3.68497">
        <ele>72.32</ele>
        <time>2014-09-20T15:42:04Z</time>
      </trkpt>
      <trkpt lat="48.49173" lon="3.68506">
        <ele>72.31</ele>
        <time>2014-09-20T15:42:06Z</time>
      </trkpt>
      <trkpt lat="48.49174" lon="3.68517">
        <ele>72.36</ele>
        <time>2014-09-20T15:42:08Z</time>
      </trkpt>
      <trkpt lat="48.4917" lon="3.68527">
        <ele>72.39</ele>
        <time>2014-09-20T15:42:10Z</time>
      </trkpt>
      <trkpt lat="48.49167" lon="3.68536">
        <ele>72.36</ele>
        <time>2014-09-20T15:42:12Z</time>
      </trkpt>
      <trkpt lat="48.49163" lon="3.68546">
        <ele>72.35</ele>
        <time>2014-09-20T15:42:14Z</time>
      </trkpt>
      <trkpt lat="48.49161" lon="3.68554">
        <ele>72.23</ele>
        <time>2014-09-20T15:42:16Z</time>
      </trkpt>
      <trkpt lat="48.49159" lon="3.68562">
        <ele>72.14</ele>
        <time>2014-09-20T15:42:18Z</time>
      </trkpt>
      <trkpt lat="48.49157" lon="3.6857">
        <ele>71.95</ele>
        <time>2014-09-20T15:42:21Z</time>
      </trkpt>
      <trkpt lat="48.49154" lon="3.68577">
        <ele>71.87</ele>
        <time>2014-09-20T15:42:24Z</time>
      </trkpt>
      <trkpt lat="48.49151" lon="3.68586">
        <ele>72.05</ele>
        <time>2014-09-20T15:43:00Z</time>
      </trkpt>
      <trkpt lat="48.49148" lon="3.68594">
        <ele>72.05</ele>
        <time>2014-09-20T15:43:03Z</time>
      </trkpt>
      <trkpt lat="48.49146" lon="3.68602">
        <ele>72.19</ele>
        <time>2014-09-20T15:43:06Z</time>
      </trkpt>
      <trkpt lat="48.49143" lon="3.6861">
        <ele>72.45</ele>
        <time>2014-09-20T15:43:09Z</time>
      </trkpt>
      <trkpt lat="48.49141" lon="3.68617">
        <ele>72.62</ele>
        <time>2014-09-20T15:43:11Z</time>
      </trkpt>
      <trkpt lat="48.49139" lon="3.68625">
        <ele>72.8</ele>
        <time>2014-09-20T15:43:13Z</time>
      </trkpt>
      <trkpt lat="48.49137" lon="3.68632">
        <ele>72.94</ele>
        <time>2014-09-20T15:43:15Z</time>
      </trkpt>
      <trkpt lat="48.49135" lon="3.6864">
        <ele>73.07</ele>
        <time>2014-09-20T15:43:17Z</time>
      </trkpt>
      <trkpt lat="48.49132" lon="3.68648">
        <ele>73.21</ele>
        <time>2014-09-20T15:43:19Z</time>
      </trkpt>
      <trkpt lat="48.4913" lon="3.68657">
        <ele>73.37</ele>
        <time>2014-09-20T15:43:21Z</time>
      </trkpt>
      <trkpt lat="48.49128" lon="3.68665">
        <ele>73.6</ele>
        <time>2014-09-20T15:43:23Z</time>
      </trkpt>
      <trkpt lat="48.49125" lon="3.68673">
        <ele>73.81</ele>
        <time>2014-09-20T15:43:25Z</time>
      </trkpt>
      <trkpt lat="48.49123" lon="3.68682">
        <ele>74.07</ele>
        <time>2014-09-20T15:43:27Z</time>
      </trkpt>
      <trkpt lat="48.4912" lon="3.68691">
        <ele>74.31</ele>
        <time>2014-09-20T15:43:29Z</time>
      </trkpt>
      <trkpt lat="48.49118" lon="3.68699">
        <ele>74.43</ele>
        <time>2014-09-20T15:43:31Z</time>
      </trkpt>
      <trkpt lat="48.49115" lon="3.68708">
        <ele>74.59</ele>
        <time>2014-09-20T15:43:33Z</time>
      </trkpt>
      <trkpt lat="48.49114" lon="3.68717">
        <ele>74.8</ele>
        <time>2014-09-20T15:43:35Z</time>
      </trkpt>
      <trkpt lat="48.49112" lon="3.68727">
        <ele>74.99</ele>
        <time>2014-09-20T15:43:37Z</time>
      </trkpt>
      <trkpt lat="48.49109" lon="3.68736">
        <ele>75.21</ele>
        <time>2014-09-20T15:43:39Z</time>
      </trkpt>
      <trkpt lat="48.49106" lon="3.68747">
        <ele>75.37</ele>
        <time>2014-09-20T15:43:41Z</time>
      </trkpt>
      <trkpt lat="48.49103" lon="3.68758">
        <ele>75.55</ele>
        <time>2014-09-20T15:43:43Z</time>
      </trkpt>
      <trkpt lat="48.491" lon="3.68769">
        <ele>75.72</ele>
        <time>2014-09-20T15:43:45Z</time>
      </trkpt>
      <trkpt lat="48.49097" lon="3.6878">
        <ele>75.85</ele>
        <time>2014-09-20T15:43:47Z</time>
      </trkpt>
      <trkpt lat="48.49093" lon="3.68791">
        <ele>75.95</ele>
        <time>2014-09-20T15:43:49Z</time>
      </trkpt>
      <trkpt lat="48.4909" lon="3.68803">
        <ele>76.03</ele>
        <time>2014-09-20T15:43:51Z</time>
      </trkpt>
      <trkpt lat="48.49086" lon="3.68816">
        <ele>76.09</ele>
        <time>2014-09-20T15:43:53Z</time>
      </trkpt>
      <trkpt lat="48.49084" lon="3.68822">
        <ele>76.1</ele>
        <time>2014-09-20T15:43:54Z</time>
      </trkpt>
      <trkpt lat="48.49082" lon="3.68829">
        <ele>76.13</ele>
        <time>2014-09-20T15:43:55Z</time>
      </trkpt>
      <trkpt lat="48.49081" lon="3.68836">
        <ele>76.16</ele>
        <time>2014-09-20T15:43:56Z</time>
      </trkpt>
      <trkpt lat="48.49079" lon="3.68842">
        <ele>76.1</ele>
        <time>2014-09-20T15:43:57Z</time>
      </trkpt>
      <trkpt lat="48.49077" lon="3.68849">
        <ele>75.96</ele>
        <time>2014-09-20T15:43:58Z</time>
      </trkpt>
      <trkpt lat="48.49075" lon="3.68856">
        <ele>75.82</ele>
        <time>2014-09-20T15:43:59Z</time>
      </trkpt>
      <trkpt lat="48.49073" lon="3.68863">
        <ele>75.7</ele>
        <time>2014-09-20T15:44:00Z</time>
      </trkpt>
      <trkpt lat="48.49071" lon="3.68871">
        <ele>75.58</ele>
        <time>2014-09-20T15:44:01Z</time>
      </trkpt>
      <trkpt lat="48.49069" lon="3.68878">
        <ele>75.47</ele>
        <time>2014-09-20T15:44:02Z</time>
      </trkpt>
      <trkpt lat="48.49066" lon="3.68887">
        <ele>75.38</ele>
        <time>2014-09-20T15:44:03Z</time>
      </trkpt>
      <trkpt lat="48.49064" lon="3.68895">
        <ele>75.27</ele>
        <time>2014-09-20T15:44:04Z</time>
      </trkpt>
      <trkpt lat="48.49062" lon="3.68903">
        <ele>75.16</ele>
        <time>2014-09-20T15:44:05Z</time>
      </trkpt>
      <trkpt lat="48.49059" lon="3.68911">
        <ele>75.03</ele>
        <time>2014-09-20T15:44:06Z</time>
      </trkpt>
      <trkpt lat="48.49057" lon="3.6892">
        <ele>74.9</ele>
        <time>2014-09-20T15:44:07Z</time>
      </trkpt>
      <trkpt lat="48.49055" lon="3.68928">
        <ele>74.78</ele>
        <time>2014-09-20T15:44:08Z</time>
      </trkpt>
      <trkpt lat="48.49052" lon="3.68936">
        <ele>74.67</ele>
        <time>2014-09-20T15:44:09Z</time>
      </trkpt>
      <trkpt lat="48.4905" lon="3.68944">
        <ele>74.56</ele>
        <time>2014-09-20T15:44:10Z</time>
      </trkpt>
      <trkpt lat="48.49048" lon="3.68952">
        <ele>74.43</ele>
        <time>2014-09-20T15:44:11Z</time>
      </trkpt>
      <trkpt lat="48.49045" lon="3.6896">
        <ele>74.33</ele>
        <time>2014-09-20T15:44:12Z</time>
      </trkpt>
      <trkpt lat="48.49043" lon="3.68968">
        <ele>74.25</ele>
        <time>2014-09-20T15:44:13Z</time>
      </trkpt>
      <trkpt lat="48.49041" lon="3.68976">
        <ele>74.2</ele>
        <time>2014-09-20T15:44:14Z</time>
      </trkpt>
      <trkpt lat="48.49038" lon="3.68985">
        <ele>74.15</ele>
        <time>2014-09-20T15:44:15Z</time>
      </trkpt>
      <trkpt lat="48.49036" lon="3.68993">
        <ele>74.12</ele>
        <time>2014-09-20T15:44:16Z</time>
      </trkpt>
      <trkpt lat="48.49034" lon="3.69001">
        <ele>74.07</ele>
        <time>2014-09-20T15:44:17Z</time>
      </trkpt>
      <trkpt lat="48.49031" lon="3.69009">
        <ele>74.01</ele>
        <time>2014-09-20T15:44:18Z</time>
      </trkpt>
      <trkpt lat="48.49029" lon="3.69018">
        <ele>73.97</ele>
        <time>2014-09-20T15:44:19Z</time>
      </trkpt>
      <trkpt lat="48.49027" lon="3.69026">
        <ele>73.93</ele>
        <time>2014-09-20T15:44:20Z</time>
      </trkpt>
      <trkpt lat="48.49024" lon="3.69034">
        <ele>73.91</ele>
        <time>2014-09-20T15:44:21Z</time>
      </trkpt>
      <trkpt lat="48.49022" lon="3.69042">
        <ele>73.91</ele>
        <time>2014-09-20T15:44:22Z</time>
      </trkpt>
      <trkpt lat="48.4902" lon="3.6905">
        <ele>73.89</ele>
        <time>2014-09-20T15:44:23Z</time>
      </trkpt>
      <trkpt lat="48.49017" lon="3.69058">
        <ele>73.82</ele>
        <time>2014-09-20T15:44:24Z</time>
      </trkpt>
      <trkpt lat="48.49015" lon="3.69066">
        <ele>73.75</ele>
        <time>2014-09-20T15:44:25Z</time>
      </trkpt>
      <trkpt lat="48.49013" lon="3.69074">
        <ele>73.7</ele>
        <time>2014-09-20T15:44:26Z</time>
      </trkpt>
      <trkpt lat="48.4901" lon="3.69081">
        <ele>73.63</ele>
        <time>2014-09-20T15:44:27Z</time>
      </trkpt>
      <trkpt lat="48.49008" lon="3.69089">
        <ele>73.55</ele>
        <time>2014-09-20T15:44:28Z</time>
      </trkpt>
      <trkpt lat="48.49006" lon="3.69096">
        <ele>73.5</ele>
        <time>2014-09-20T15:44:29Z</time>
      </trkpt>
      <trkpt lat="48.49003" lon="3.69104">
        <ele>73.4</ele>
        <time>2014-09-20T15:44:30Z</time>
      </trkpt>
      <trkpt lat="48.49001" lon="3.69111">
        <ele>73.34</ele>
        <time>2014-09-20T15:44:31Z</time>
      </trkpt>
      <trkpt lat="48.48999" lon="3.69118">
        <ele>73.28</ele>
        <time>2014-09-20T15:44:32Z</time>
      </trkpt>
      <trkpt lat="48.48997" lon="3.69126">
        <ele>73.24</ele>
        <time>2014-09-20T15:44:33Z</time>
      </trkpt>
      <trkpt lat="48.48995" lon="3.69133">
        <ele>73.19</ele>
        <time>2014-09-20T15:44:34Z</time>
      </trkpt>
      <trkpt lat="48.48992" lon="3.6914">
        <ele>73.1</ele>
        <time>2014-09-20T15:44:35Z</time>
      </trkpt>
      <trkpt lat="48.4899" lon="3.69147">
        <ele>73.01</ele>
        <time>2014-09-20T15:44:36Z</time>
      </trkpt>
      <trkpt lat="48.48988" lon="3.69155">
        <ele>72.94</ele>
        <time>2014-09-20T15:44:37Z</time>
      </trkpt>
      <trkpt lat="48.48986" lon="3.69162">
        <ele>72.88</ele>
        <time>2014-09-20T15:44:38Z</time>
      </trkpt>
      <trkpt lat="48.48984" lon="3.69169">
        <ele>72.85</ele>
        <time>2014-09-20T15:44:39Z</time>
      </trkpt>
      <trkpt lat="48.48982" lon="3.69176">
        <ele>72.79</ele>
        <time>2014-09-20T15:44:40Z</time>
      </trkpt>
      <trkpt lat="48.48979" lon="3.69184">
        <ele>72.75</ele>
        <time>2014-09-20T15:44:41Z</time>
      </trkpt>
      <trkpt lat="48.48977" lon="3.69191">
        <ele>72.72</ele>
        <time>2014-09-20T15:44:42Z</time>
      </trkpt>
      <trkpt lat="48.48975" lon="3.69198">
        <ele>72.7</ele>
        <time>2014-09-20T15:44:43Z</time>
      </trkpt>
      <trkpt lat="48.48973" lon="3.69205">
        <ele>72.68</ele>
        <time>2014-09-20T15:44:44Z</time>
      </trkpt>
      <trkpt lat="48.4897" lon="3.69212">
        <ele>72.64</ele>
        <time>2014-09-20T15:44:45Z</time>
      </trkpt>
      <trkpt lat="48.48968" lon="3.6922">
        <ele>72.64</ele>
        <time>2014-09-20T15:44:46Z</time>
      </trkpt>
      <trkpt lat="48.48966" lon="3.69227">
        <ele>72.64</ele>
        <time>2014-09-20T15:44:47Z</time>
      </trkpt>
      <trkpt lat="48.48964" lon="3.69234">
        <ele>72.63</ele>
        <time>2014-09-20T15:44:48Z</time>
      </trkpt>
      <trkpt lat="48.48962" lon="3.69241">
        <ele>72.63</ele>
        <time>2014-09-20T15:44:49Z</time>
      </trkpt>
      <trkpt lat="48.4896" lon="3.69248">
        <ele>72.63</ele>
        <time>2014-09-20T15:44:50Z</time>
      </trkpt>
      <trkpt lat="48.48958" lon="3.69255">
        <ele>72.61</ele>
        <time>2014-09-20T15:44:51Z</time>
      </trkpt>
      <trkpt lat="48.48956" lon="3.69262">
        <ele>72.59</ele>
        <time>2014-09-20T15:44:52Z</time>
      </trkpt>
      <trkpt lat="48.48954" lon="3.69269">
        <ele>72.57</ele>
        <time>2014-09-20T15:44:53Z</time>
      </trkpt>
      <trkpt lat="48.48952" lon="3.69276">
        <ele>72.59</ele>
        <time>2014-09-20T15:44:54Z</time>
      </trkpt>
      <trkpt lat="48.4895" lon="3.69283">
        <ele>72.62</ele>
        <time>2014-09-20T15:44:55Z</time>
      </trkpt>
      <trkpt lat="48.48948" lon="3.6929">
        <ele>72.65</ele>
        <time>2014-09-20T15:44:56Z</time>
      </trkpt>
      <trkpt lat="48.48946" lon="3.69297">
        <ele>72.69</ele>
        <time>2014-09-20T15:44:57Z</time>
      </trkpt>
      <trkpt lat="48.48944" lon="3.69305">
        <ele>72.75</ele>
        <time>2014-09-20T15:44:58Z</time>
      </trkpt>
      <trkpt lat="48.48942" lon="3.69312">
        <ele>72.82</ele>
        <time>2014-09-20T15:44:59Z</time>
      </trkpt>
      <trkpt lat="48.4894" lon="3.69319">
        <ele>72.9</ele>
        <time>2014-09-20T15:45:00Z</time>
      </trkpt>
      <trkpt lat="48.48938" lon="3.69327">
        <ele>72.96</ele>
        <time>2014-09-20T15:45:01Z</time>
      </trkpt>
      <trkpt lat="48.48936" lon="3.69334">
        <ele>73.05</ele>
        <time>2014-09-20T15:45:02Z</time>
      </trkpt>
      <trkpt lat="48.48934" lon="3.69341">
        <ele>73.12</ele>
        <time>2014-09-20T15:45:03Z</time>
      </trkpt>
      <trkpt lat="48.48932" lon="3.69348">
        <ele>73.2</ele>
        <time>2014-09-20T15:45:04Z</time>
      </trkpt>
      <trkpt lat="48.4893" lon="3.69356">
        <ele>73.28</ele>
        <time>2014-09-20T15:45:05Z</time>
      </trkpt>
      <trkpt lat="48.48928" lon="3.69363">
        <ele>73.34</ele>
        <time>2014-09-20T15:45:06Z</time>
      </trkpt>
      <trkpt lat="48.48926" lon="3.6937">
        <ele>73.44</ele>
        <time>2014-09-20T15:45:07Z</time>
      </trkpt>
      <trkpt lat="48.48924" lon="3.69377">
        <ele>73.56</ele>
        <time>2014-09-20T15:45:08Z</time>
      </trkpt>
      <trkpt lat="48.48922" lon="3.69383">
        <ele>73.68</ele>
        <time>2014-09-20T15:45:09Z</time>
      </trkpt>
      <trkpt lat="48.4892" lon="3.6939">
        <ele>73.81</ele>
        <time>2014-09-20T15:45:10Z</time>
      </trkpt>
      <trkpt lat="48.48918" lon="3.69396">
        <ele>73.94</ele>
        <time>2014-09-20T15:45:11Z</time>
      </trkpt>
      <trkpt lat="48.48916" lon="3.69403">
        <ele>74.01</ele>
        <time>2014-09-20T15:45:12Z</time>
      </trkpt>
      <trkpt lat="48.48914" lon="3.6941">
        <ele>74.07</ele>
        <time>2014-09-20T15:45:13Z</time>
      </trkpt>
      <trkpt lat="48.48912" lon="3.69417">
        <ele>74.11</ele>
        <time>2014-09-20T15:45:14Z</time>
      </trkpt>
      <trkpt lat="48.48911" lon="3.69424">
        <ele>74.16</ele>
        <time>2014-09-20T15:45:15Z</time>
      </trkpt>
      <trkpt lat="48.4891" lon="3.6943">
        <ele>74.2</ele>
        <time>2014-09-20T15:45:16Z</time>
      </trkpt>
      <trkpt lat="48.48908" lon="3.69437">
        <ele>74.26</ele>
        <time>2014-09-20T15:45:17Z</time>
      </trkpt>
      <trkpt lat="48.48906" lon="3.69444">
        <ele>74.33</ele>
        <time>2014-09-20T15:45:18Z</time>
      </trkpt>
      <trkpt lat="48.48904" lon="3.6945">
        <ele>74.43</ele>
        <time>2014-09-20T15:45:19Z</time>
      </trkpt>
      <trkpt lat="48.48902" lon="3.69457">
        <ele>74.53</ele>
        <time>2014-09-20T15:45:20Z</time>
      </trkpt>
      <trkpt lat="48.489" lon="3.69464">
        <ele>74.63</ele>
        <time>2014-09-20T15:45:21Z</time>
      </trkpt>
      <trkpt lat="48.48898" lon="3.6947">
        <ele>74.75</ele>
        <time>2014-09-20T15:45:22Z</time>
      </trkpt>
      <trkpt lat="48.48896" lon="3.69477">
        <ele>74.87</ele>
        <time>2014-09-20T15:45:23Z</time>
      </trkpt>
      <trkpt lat="48.48894" lon="3.69484">
        <ele>74.99</ele>
        <time>2014-09-20T15:45:24Z</time>
      </trkpt>
      <trkpt lat="48.48892" lon="3.6949">
        <ele>75.1</ele>
        <time>2014-09-20T15:45:25Z</time>
      </trkpt>
      <trkpt lat="48.48891" lon="3.69497">
        <ele>75.2</ele>
        <time>2014-09-20T15:45:26Z</time>
      </trkpt>
      <trkpt lat="48.48889" lon="3.69503">
        <ele>75.31</ele>
        <time>2014-09-20T15:45:27Z</time>
      </trkpt>
      <trkpt lat="48.48887" lon="3.6951">
        <ele>75.46</ele>
        <time>2014-09-20T15:45:28Z</time>
      </trkpt>
      <trkpt lat="48.48885" lon="3.69516">
        <ele>75.61</ele>
        <time>2014-09-20T15:45:29Z</time>
      </trkpt>
      <trkpt lat="48.48882" lon="3.69522">
        <ele>75.74</ele>
        <time>2014-09-20T15:45:30Z</time>
      </trkpt>
      <trkpt lat="48.4888" lon="3.69529">
        <ele>75.88</ele>
        <time>2014-09-20T15:45:31Z</time>
      </trkpt>
      <trkpt lat="48.48879" lon="3.69535">
        <ele>76.02</ele>
        <time>2014-09-20T15:45:32Z</time>
      </trkpt>
      <trkpt lat="48.48877" lon="3.69541">
        <ele>76.15</ele>
        <time>2014-09-20T15:45:33Z</time>
      </trkpt>
      <trkpt lat="48.48875" lon="3.69548">
        <ele>76.29</ele>
        <time>2014-09-20T15:45:34Z</time>
      </trkpt>
      <trkpt lat="48.48873" lon="3.69554">
        <ele>76.43</ele>
        <time>2014-09-20T15:45:35Z</time>
      </trkpt>
      <trkpt lat="48.48871" lon="3.69561">
        <ele>76.58</ele>
        <time>2014-09-20T15:45:36Z</time>
      </trkpt>
      <trkpt lat="48.48869" lon="3.69567">
        <ele>76.71</ele>
        <time>2014-09-20T15:45:37Z</time>
      </trkpt>
      <trkpt lat="48.48867" lon="3.69573">
        <ele>76.84</ele>
        <time>2014-09-20T15:45:38Z</time>
      </trkpt>
      <trkpt lat="48.48866" lon="3.6958">
        <ele>76.96</ele>
        <time>2014-09-20T15:45:39Z</time>
      </trkpt>
      <trkpt lat="48.48864" lon="3.69586">
        <ele>77.08</ele>
        <time>2014-09-20T15:45:40Z</time>
      </trkpt>
      <trkpt lat="48.48862" lon="3.69592">
        <ele>77.19</ele>
        <time>2014-09-20T15:45:41Z</time>
      </trkpt>
      <trkpt lat="48.4886" lon="3.69599">
        <ele>77.3</ele>
        <time>2014-09-20T15:45:42Z</time>
      </trkpt>
      <trkpt lat="48.48858" lon="3.69605">
        <ele>77.41</ele>
        <time>2014-09-20T15:45:43Z</time>
      </trkpt>
      <trkpt lat="48.48855" lon="3.69617">
        <ele>77.57</ele>
        <time>2014-09-20T15:45:45Z</time>
      </trkpt>
      <trkpt lat="48.48851" lon="3.6963">
        <ele>77.75</ele>
        <time>2014-09-20T15:45:47Z</time>
      </trkpt>
      <trkpt lat="48.48849" lon="3.69636">
        <ele>77.85</ele>
        <time>2014-09-20T15:45:48Z</time>
      </trkpt>
      <trkpt lat="48.48848" lon="3.69642">
        <ele>77.94</ele>
        <time>2014-09-20T15:45:49Z</time>
      </trkpt>
      <trkpt lat="48.48844" lon="3.69655">
        <ele>78.09</ele>
        <time>2014-09-20T15:45:51Z</time>
      </trkpt>
      <trkpt lat="48.4884" lon="3.69667">
        <ele>78.26</ele>
        <time>2014-09-20T15:45:53Z</time>
      </trkpt>
      <trkpt lat="48.48837" lon="3.69679">
        <ele>78.4</ele>
        <time>2014-09-20T15:45:55Z</time>
      </trkpt>
      <trkpt lat="48.48833" lon="3.69691">
        <ele>78.53</ele>
        <time>2014-09-20T15:45:57Z</time>
      </trkpt>
      <trkpt lat="48.48831" lon="3.69697">
        <ele>78.6</ele>
        <time>2014-09-20T15:45:58Z</time>
      </trkpt>
      <trkpt lat="48.48829" lon="3.69704">
        <ele>78.68</ele>
        <time>2014-09-20T15:45:59Z</time>
      </trkpt>
      <trkpt lat="48.48827" lon="3.6971">
        <ele>78.77</ele>
        <time>2014-09-20T15:46:00Z</time>
      </trkpt>
      <trkpt lat="48.48825" lon="3.69717">
        <ele>78.86</ele>
        <time>2014-09-20T15:46:01Z</time>
      </trkpt>
      <trkpt lat="48.48823" lon="3.69723">
        <ele>78.93</ele>
        <time>2014-09-20T15:46:02Z</time>
      </trkpt>
      <trkpt lat="48.48821" lon="3.6973">
        <ele>79</ele>
        <time>2014-09-20T15:46:03Z</time>
      </trkpt>
      <trkpt lat="48.48819" lon="3.69736">
        <ele>79.08</ele>
        <time>2014-09-20T15:46:04Z</time>
      </trkpt>
      <trkpt lat="48.48818" lon="3.69742">
        <ele>79.17</ele>
        <time>2014-09-20T15:46:05Z</time>
      </trkpt>
      <trkpt lat="48.48816" lon="3.69749">
        <ele>79.28</ele>
        <time>2014-09-20T15:46:06Z</time>
      </trkpt>
      <trkpt lat="48.48813" lon="3.69761">
        <ele>79.5</ele>
        <time>2014-09-20T15:46:08Z</time>
      </trkpt>
      <trkpt lat="48.48809" lon="3.69774">
        <ele>79.67</ele>
        <time>2014-09-20T15:46:10Z</time>
      </trkpt>
      <trkpt lat="48.48808" lon="3.6978">
        <ele>79.78</ele>
        <time>2014-09-20T15:46:11Z</time>
      </trkpt>
      <trkpt lat="48.48806" lon="3.69786">
        <ele>79.87</ele>
        <time>2014-09-20T15:46:12Z</time>
      </trkpt>
      <trkpt lat="48.48802" lon="3.69799">
        <ele>80.05</ele>
        <time>2014-09-20T15:46:14Z</time>
      </trkpt>
      <trkpt lat="48.488" lon="3.69805">
        <ele>80.15</ele>
        <time>2014-09-20T15:46:15Z</time>
      </trkpt>
      <trkpt lat="48.48797" lon="3.69817">
        <ele>80.27</ele>
        <time>2014-09-20T15:46:17Z</time>
      </trkpt>
      <trkpt lat="48.48795" lon="3.69824">
        <ele>80.33</ele>
        <time>2014-09-20T15:46:18Z</time>
      </trkpt>
      <trkpt lat="48.48793" lon="3.6983">
        <ele>80.38</ele>
        <time>2014-09-20T15:46:19Z</time>
      </trkpt>
      <trkpt lat="48.48791" lon="3.69836">
        <ele>80.42</ele>
        <time>2014-09-20T15:46:20Z</time>
      </trkpt>
      <trkpt lat="48.48789" lon="3.69843">
        <ele>80.47</ele>
        <time>2014-09-20T15:46:21Z</time>
      </trkpt>
      <trkpt lat="48.48788" lon="3.69849">
        <ele>80.51</ele>
        <time>2014-09-20T15:46:22Z</time>
      </trkpt>
      <trkpt lat="48.48786" lon="3.69855">
        <ele>80.56</ele>
        <time>2014-09-20T15:46:23Z</time>
      </trkpt>
      <trkpt lat="48.48784" lon="3.69862">
        <ele>80.63</ele>
        <time>2014-09-20T15:46:24Z</time>
      </trkpt>
      <trkpt lat="48.48782" lon="3.69868">
        <ele>80.7</ele>
        <time>2014-09-20T15:46:25Z</time>
      </trkpt>
      <trkpt lat="48.48781" lon="3.69875">
        <ele>80.76</ele>
        <time>2014-09-20T15:46:26Z</time>
      </trkpt>
      <trkpt lat="48.48777" lon="3.69887">
        <ele>80.88</ele>
        <time>2014-09-20T15:46:28Z</time>
      </trkpt>
      <trkpt lat="48.48774" lon="3.69899">
        <ele>80.94</ele>
        <time>2014-09-20T15:46:30Z</time>
      </trkpt>
      <trkpt lat="48.4877" lon="3.69911">
        <ele>81.02</ele>
        <time>2014-09-20T15:46:32Z</time>
      </trkpt>
      <trkpt lat="48.48767" lon="3.69923">
        <ele>81.18</ele>
        <time>2014-09-20T15:46:34Z</time>
      </trkpt>
      <trkpt lat="48.48764" lon="3.69935">
        <ele>81.36</ele>
        <time>2014-09-20T15:46:36Z</time>
      </trkpt>
      <trkpt lat="48.4876" lon="3.69947">
        <ele>81.55</ele>
        <time>2014-09-20T15:46:38Z</time>
      </trkpt>
      <trkpt lat="48.48757" lon="3.69959">
        <ele>81.69</ele>
        <time>2014-09-20T15:46:40Z</time>
      </trkpt>
      <trkpt lat="48.48753" lon="3.69971">
        <ele>81.82</ele>
        <time>2014-09-20T15:46:42Z</time>
      </trkpt>
      <trkpt lat="48.4875" lon="3.69983">
        <ele>81.98</ele>
        <time>2014-09-20T15:46:44Z</time>
      </trkpt>
      <trkpt lat="48.48747" lon="3.69995">
        <ele>82.16</ele>
        <time>2014-09-20T15:46:46Z</time>
      </trkpt>
      <trkpt lat="48.48747" lon="3.70006">
        <ele>82.37</ele>
        <time>2014-09-20T15:46:48Z</time>
      </trkpt>
      <trkpt lat="48.48753" lon="3.70013">
        <ele>82.6</ele>
        <time>2014-09-20T15:46:50Z</time>
      </trkpt>
      <trkpt lat="48.4876" lon="3.70017">
        <ele>82.85</ele>
        <time>2014-09-20T15:46:52Z</time>
      </trkpt>
      <trkpt lat="48.48769" lon="3.7002">
        <ele>83.09</ele>
        <time>2014-09-20T15:46:54Z</time>
      </trkpt>
      <trkpt lat="48.48773" lon="3.70022">
        <ele>83.2</ele>
        <time>2014-09-20T15:46:55Z</time>
      </trkpt>
      <trkpt lat="48.48778" lon="3.70023">
        <ele>83.28</ele>
        <time>2014-09-20T15:46:56Z</time>
      </trkpt>
      <trkpt lat="48.48782" lon="3.70025">
        <ele>83.32</ele>
        <time>2014-09-20T15:46:57Z</time>
      </trkpt>
      <trkpt lat="48.48787" lon="3.70027">
        <ele>83.34</ele>
        <time>2014-09-20T15:46:58Z</time>
      </trkpt>
      <trkpt lat="48.48792" lon="3.70028">
        <ele>83.37</ele>
        <time>2014-09-20T15:46:59Z</time>
      </trkpt>
      <trkpt lat="48.48797" lon="3.7003">
        <ele>83.36</ele>
        <time>2014-09-20T15:47:00Z</time>
      </trkpt>
      <trkpt lat="48.48802" lon="3.70033">
        <ele>83.35</ele>
        <time>2014-09-20T15:47:01Z</time>
      </trkpt>
      <trkpt lat="48.48807" lon="3.70035">
        <ele>83.32</ele>
        <time>2014-09-20T15:47:02Z</time>
      </trkpt>
      <trkpt lat="48.48812" lon="3.70037">
        <ele>83.32</ele>
        <time>2014-09-20T15:47:03Z</time>
      </trkpt>
      <trkpt lat="48.48817" lon="3.70039">
        <ele>83.3</ele>
        <time>2014-09-20T15:47:04Z</time>
      </trkpt>
      <trkpt lat="48.48822" lon="3.70041">
        <ele>83.28</ele>
        <time>2014-09-20T15:47:05Z</time>
      </trkpt>
      <trkpt lat="48.48828" lon="3.70043">
        <ele>83.24</ele>
        <time>2014-09-20T15:47:06Z</time>
      </trkpt>
      <trkpt lat="48.48833" lon="3.70045">
        <ele>83.19</ele>
        <time>2014-09-20T15:47:07Z</time>
      </trkpt>
      <trkpt lat="48.48839" lon="3.70047">
        <ele>83.15</ele>
        <time>2014-09-20T15:47:08Z</time>
      </trkpt>
      <trkpt lat="48.48845" lon="3.7005">
        <ele>83.12</ele>
        <time>2014-09-20T15:47:09Z</time>
      </trkpt>
      <trkpt lat="48.48851" lon="3.70052">
        <ele>83.07</ele>
        <time>2014-09-20T15:47:10Z</time>
      </trkpt>
      <trkpt lat="48.48857" lon="3.70054">
        <ele>83.04</ele>
        <time>2014-09-20T15:47:11Z</time>
      </trkpt>
      <trkpt lat="48.48863" lon="3.70057">
        <ele>82.98</ele>
        <time>2014-09-20T15:47:12Z</time>
      </trkpt>
      <trkpt lat="48.48869" lon="3.7006">
        <ele>82.94</ele>
        <time>2014-09-20T15:47:13Z</time>
      </trkpt>
      <trkpt lat="48.48875" lon="3.70062">
        <ele>82.92</ele>
        <time>2014-09-20T15:47:14Z</time>
      </trkpt>
      <trkpt lat="48.48881" lon="3.70065">
        <ele>82.89</ele>
        <time>2014-09-20T15:47:15Z</time>
      </trkpt>
      <trkpt lat="48.48887" lon="3.70067">
        <ele>82.85</ele>
        <time>2014-09-20T15:47:16Z</time>
      </trkpt>
      <trkpt lat="48.48894" lon="3.7007">
        <ele>82.82</ele>
        <time>2014-09-20T15:47:17Z</time>
      </trkpt>
      <trkpt lat="48.489" lon="3.70073">
        <ele>82.77</ele>
        <time>2014-09-20T15:47:18Z</time>
      </trkpt>
      <trkpt lat="48.48906" lon="3.70075">
        <ele>82.74</ele>
        <time>2014-09-20T15:47:19Z</time>
      </trkpt>
      <trkpt lat="48.48913" lon="3.70078">
        <ele>82.68</ele>
        <time>2014-09-20T15:47:20Z</time>
      </trkpt>
      <trkpt lat="48.48919" lon="3.7008">
        <ele>82.62</ele>
        <time>2014-09-20T15:47:21Z</time>
      </trkpt>
      <trkpt lat="48.48925" lon="3.70083">
        <ele>82.57</ele>
        <time>2014-09-20T15:47:22Z</time>
      </trkpt>
      <trkpt lat="48.48932" lon="3.70086">
        <ele>82.51</ele>
        <time>2014-09-20T15:47:23Z</time>
      </trkpt>
      <trkpt lat="48.48938" lon="3.70088">
        <ele>82.47</ele>
        <time>2014-09-20T15:47:24Z</time>
      </trkpt>
      <trkpt lat="48.48944" lon="3.70091">
        <ele>82.46</ele>
        <time>2014-09-20T15:47:25Z</time>
      </trkpt>
      <trkpt lat="48.4895" lon="3.70094">
        <ele>82.42</ele>
        <time>2014-09-20T15:47:26Z</time>
      </trkpt>
      <trkpt lat="48.48956" lon="3.70096">
        <ele>82.4</ele>
        <time>2014-09-20T15:47:27Z</time>
      </trkpt>
      <trkpt lat="48.48963" lon="3.70099">
        <ele>82.38</ele>
        <time>2014-09-20T15:47:28Z</time>
      </trkpt>
      <trkpt lat="48.48969" lon="3.70102">
        <ele>82.37</ele>
        <time>2014-09-20T15:47:29Z</time>
      </trkpt>
      <trkpt lat="48.48975" lon="3.70104">
        <ele>82.33</ele>
        <time>2014-09-20T15:47:30Z</time>
      </trkpt>
      <trkpt lat="48.48981" lon="3.70107">
        <ele>82.31</ele>
        <time>2014-09-20T15:47:31Z</time>
      </trkpt>
      <trkpt lat="48.48987" lon="3.70109">
        <ele>82.29</ele>
        <time>2014-09-20T15:47:32Z</time>
      </trkpt>
      <trkpt lat="48.48993" lon="3.70112">
        <ele>82.27</ele>
        <time>2014-09-20T15:47:33Z</time>
      </trkpt>
      <trkpt lat="48.48999" lon="3.70114">
        <ele>82.24</ele>
        <time>2014-09-20T15:47:34Z</time>
      </trkpt>
      <trkpt lat="48.49005" lon="3.70117">
        <ele>82.21</ele>
        <time>2014-09-20T15:47:35Z</time>
      </trkpt>
      <trkpt lat="48.49011" lon="3.70119">
        <ele>82.16</ele>
        <time>2014-09-20T15:47:36Z</time>
      </trkpt>
      <trkpt lat="48.49017" lon="3.70122">
        <ele>82.13</ele>
        <time>2014-09-20T15:47:37Z</time>
      </trkpt>
      <trkpt lat="48.49022" lon="3.70124">
        <ele>82.08</ele>
        <time>2014-09-20T15:47:38Z</time>
      </trkpt>
      <trkpt lat="48.49028" lon="3.70127">
        <ele>82.04</ele>
        <time>2014-09-20T15:47:39Z</time>
      </trkpt>
      <trkpt lat="48.49034" lon="3.70129">
        <ele>81.99</ele>
        <time>2014-09-20T15:47:40Z</time>
      </trkpt>
      <trkpt lat="48.4904" lon="3.70132">
        <ele>81.95</ele>
        <time>2014-09-20T15:47:41Z</time>
      </trkpt>
      <trkpt lat="48.49046" lon="3.70135">
        <ele>81.92</ele>
        <time>2014-09-20T15:47:42Z</time>
      </trkpt>
      <trkpt lat="48.49052" lon="3.70137">
        <ele>81.87</ele>
        <time>2014-09-20T15:47:43Z</time>
      </trkpt>
      <trkpt lat="48.49058" lon="3.7014">
        <ele>81.83</ele>
        <time>2014-09-20T15:47:44Z</time>
      </trkpt>
      <trkpt lat="48.49064" lon="3.70142">
        <ele>81.81</ele>
        <time>2014-09-20T15:47:45Z</time>
      </trkpt>
      <trkpt lat="48.4907" lon="3.70145">
        <ele>81.79</ele>
        <time>2014-09-20T15:47:46Z</time>
      </trkpt>
      <trkpt lat="48.49076" lon="3.70148">
        <ele>81.77</ele>
        <time>2014-09-20T15:47:47Z</time>
      </trkpt>
      <trkpt lat="48.49082" lon="3.7015">
        <ele>81.74</ele>
        <time>2014-09-20T15:47:48Z</time>
      </trkpt>
      <trkpt lat="48.49088" lon="3.70152">
        <ele>81.71</ele>
        <time>2014-09-20T15:47:49Z</time>
      </trkpt>
      <trkpt lat="48.49094" lon="3.70155">
        <ele>81.71</ele>
        <time>2014-09-20T15:47:50Z</time>
      </trkpt>
      <trkpt lat="48.491" lon="3.70157">
        <ele>81.72</ele>
        <time>2014-09-20T15:47:51Z</time>
      </trkpt>
      <trkpt lat="48.49106" lon="3.7016">
        <ele>81.72</ele>
        <time>2014-09-20T15:47:52Z</time>
      </trkpt>
      <trkpt lat="48.49112" lon="3.70162">
        <ele>81.72</ele>
        <time>2014-09-20T15:47:53Z</time>
      </trkpt>
      <trkpt lat="48.49118" lon="3.70165">
        <ele>81.72</ele>
        <time>2014-09-20T15:47:54Z</time>
      </trkpt>
      <trkpt lat="48.49124" lon="3.70167">
        <ele>81.75</ele>
        <time>2014-09-20T15:47:55Z</time>
      </trkpt>
      <trkpt lat="48.4913" lon="3.70169">
        <ele>81.77</ele>
        <time>2014-09-20T15:47:56Z</time>
      </trkpt>
      <trkpt lat="48.49136" lon="3.70172">
        <ele>81.78</ele>
        <time>2014-09-20T15:47:57Z</time>
      </trkpt>
      <trkpt lat="48.49142" lon="3.70174">
        <ele>81.79</ele>
        <time>2014-09-20T15:47:58Z</time>
      </trkpt>
      <trkpt lat="48.49147" lon="3.70177">
        <ele>81.8</ele>
        <time>2014-09-20T15:47:59Z</time>
      </trkpt>
      <trkpt lat="48.49153" lon="3.70178">
        <ele>81.81</ele>
        <time>2014-09-20T15:48:00Z</time>
      </trkpt>
      <trkpt lat="48.49159" lon="3.7018">
        <ele>81.81</ele>
        <time>2014-09-20T15:48:01Z</time>
      </trkpt>
      <trkpt lat="48.49165" lon="3.70182">
        <ele>81.82</ele>
        <time>2014-09-20T15:48:02Z</time>
      </trkpt>
      <trkpt lat="48.49171" lon="3.70185">
        <ele>81.82</ele>
        <time>2014-09-20T15:48:03Z</time>
      </trkpt>
      <trkpt lat="48.49177" lon="3.70187">
        <ele>81.8</ele>
        <time>2014-09-20T15:48:04Z</time>
      </trkpt>
      <trkpt lat="48.49183" lon="3.7019">
        <ele>81.78</ele>
        <time>2014-09-20T15:48:05Z</time>
      </trkpt>
      <trkpt lat="48.49188" lon="3.70192">
        <ele>81.77</ele>
        <time>2014-09-20T15:48:06Z</time>
      </trkpt>
      <trkpt lat="48.49193" lon="3.70196">
        <ele>81.76</ele>
        <time>2014-09-20T15:48:07Z</time>
      </trkpt>
      <trkpt lat="48.49197" lon="3.70203">
        <ele>81.77</ele>
        <time>2014-09-20T15:48:08Z</time>
      </trkpt>
      <trkpt lat="48.492" lon="3.7021">
        <ele>81.79</ele>
        <time>2014-09-20T15:48:09Z</time>
      </trkpt>
      <trkpt lat="48.492" lon="3.70219">
        <ele>81.8</ele>
        <time>2014-09-20T15:48:10Z</time>
      </trkpt>
      <trkpt lat="48.49198" lon="3.70227">
        <ele>81.76</ele>
        <time>2014-09-20T15:48:11Z</time>
      </trkpt>
      <trkpt lat="48.49196" lon="3.70235">
        <ele>81.72</ele>
        <time>2014-09-20T15:48:12Z</time>
      </trkpt>
      <trkpt lat="48.49194" lon="3.70243">
        <ele>81.72</ele>
        <time>2014-09-20T15:48:13Z</time>
      </trkpt>
      <trkpt lat="48.49191" lon="3.70251">
        <ele>81.73</ele>
        <time>2014-09-20T15:48:14Z</time>
      </trkpt>
      <trkpt lat="48.49189" lon="3.7026">
        <ele>81.7</ele>
        <time>2014-09-20T15:48:15Z</time>
      </trkpt>
      <trkpt lat="48.49188" lon="3.70268">
        <ele>81.71</ele>
        <time>2014-09-20T15:48:16Z</time>
      </trkpt>
      <trkpt lat="48.49186" lon="3.70276">
        <ele>81.74</ele>
        <time>2014-09-20T15:48:17Z</time>
      </trkpt>
      <trkpt lat="48.49184" lon="3.70284">
        <ele>81.76</ele>
        <time>2014-09-20T15:48:18Z</time>
      </trkpt>
      <trkpt lat="48.49182" lon="3.70292">
        <ele>81.73</ele>
        <time>2014-09-20T15:48:19Z</time>
      </trkpt>
      <trkpt lat="48.4918" lon="3.703">
        <ele>81.65</ele>
        <time>2014-09-20T15:48:20Z</time>
      </trkpt>
      <trkpt lat="48.49179" lon="3.70308">
        <ele>81.6</ele>
        <time>2014-09-20T15:48:21Z</time>
      </trkpt>
      <trkpt lat="48.49177" lon="3.70317">
        <ele>81.55</ele>
        <time>2014-09-20T15:48:22Z</time>
      </trkpt>
      <trkpt lat="48.49176" lon="3.70325">
        <ele>81.52</ele>
        <time>2014-09-20T15:48:23Z</time>
      </trkpt>
      <trkpt lat="48.49174" lon="3.70334">
        <ele>81.52</ele>
        <time>2014-09-20T15:48:24Z</time>
      </trkpt>
      <trkpt lat="48.49172" lon="3.70342">
        <ele>81.53</ele>
        <time>2014-09-20T15:48:25Z</time>
      </trkpt>
      <trkpt lat="48.49171" lon="3.70351">
        <ele>81.55</ele>
        <time>2014-09-20T15:48:26Z</time>
      </trkpt>
      <trkpt lat="48.49169" lon="3.7036">
        <ele>81.57</ele>
        <time>2014-09-20T15:48:27Z</time>
      </trkpt>
      <trkpt lat="48.49167" lon="3.70369">
        <ele>81.61</ele>
        <time>2014-09-20T15:48:28Z</time>
      </trkpt>
      <trkpt lat="48.49166" lon="3.70377">
        <ele>81.61</ele>
        <time>2014-09-20T15:48:29Z</time>
      </trkpt>
      <trkpt lat="48.49164" lon="3.70386">
        <ele>81.64</ele>
        <time>2014-09-20T15:48:30Z</time>
      </trkpt>
      <trkpt lat="48.49163" lon="3.70395">
        <ele>81.66</ele>
        <time>2014-09-20T15:48:31Z</time>
      </trkpt>
      <trkpt lat="48.49161" lon="3.70404">
        <ele>81.7</ele>
        <time>2014-09-20T15:48:32Z</time>
      </trkpt>
      <trkpt lat="48.4916" lon="3.70413">
        <ele>81.74</ele>
        <time>2014-09-20T15:48:33Z</time>
      </trkpt>
      <trkpt lat="48.49158" lon="3.70421">
        <ele>81.73</ele>
        <time>2014-09-20T15:48:34Z</time>
      </trkpt>
      <trkpt lat="48.49157" lon="3.7043">
        <ele>81.73</ele>
        <time>2014-09-20T15:48:35Z</time>
      </trkpt>
      <trkpt lat="48.49155" lon="3.70439">
        <ele>81.71</ele>
        <time>2014-09-20T15:48:36Z</time>
      </trkpt>
      <trkpt lat="48.49154" lon="3.70448">
        <ele>81.71</ele>
        <time>2014-09-20T15:48:37Z</time>
      </trkpt>
      <trkpt lat="48.49152" lon="3.70457">
        <ele>81.69</ele>
        <time>2014-09-20T15:48:38Z</time>
      </trkpt>
      <trkpt lat="48.4915" lon="3.70465">
        <ele>81.68</ele>
        <time>2014-09-20T15:48:39Z</time>
      </trkpt>
      <trkpt lat="48.49149" lon="3.70474">
        <ele>81.69</ele>
        <time>2014-09-20T15:48:40Z</time>
      </trkpt>
      <trkpt lat="48.49147" lon="3.70483">
        <ele>81.7</ele>
        <time>2014-09-20T15:48:41Z</time>
      </trkpt>
      <trkpt lat="48.49145" lon="3.70491">
        <ele>81.68</ele>
        <time>2014-09-20T15:48:42Z</time>
      </trkpt>
      <trkpt lat="48.49144" lon="3.705">
        <ele>81.64</ele>
        <time>2014-09-20T15:48:43Z</time>
      </trkpt>
      <trkpt lat="48.49142" lon="3.70509">
        <ele>81.61</ele>
        <time>2014-09-20T15:48:44Z</time>
      </trkpt>
      <trkpt lat="48.4914" lon="3.70517">
        <ele>81.59</ele>
        <time>2014-09-20T15:48:45Z</time>
      </trkpt>
      <trkpt lat="48.49138" lon="3.70525">
        <ele>81.55</ele>
        <time>2014-09-20T15:48:46Z</time>
      </trkpt>
      <trkpt lat="48.49136" lon="3.70534">
        <ele>81.5</ele>
        <time>2014-09-20T15:48:47Z</time>
      </trkpt>
      <trkpt lat="48.49135" lon="3.70542">
        <ele>81.45</ele>
        <time>2014-09-20T15:48:48Z</time>
      </trkpt>
      <trkpt lat="48.49133" lon="3.7055">
        <ele>81.42</ele>
        <time>2014-09-20T15:48:49Z</time>
      </trkpt>
      <trkpt lat="48.49133" lon="3.70558">
        <ele>81.37</ele>
        <time>2014-09-20T15:48:50Z</time>
      </trkpt>
      <trkpt lat="48.49134" lon="3.70566">
        <ele>81.36</ele>
        <time>2014-09-20T15:48:51Z</time>
      </trkpt>
      <trkpt lat="48.49137" lon="3.70572">
        <ele>81.38</ele>
        <time>2014-09-20T15:48:52Z</time>
      </trkpt>
      <trkpt lat="48.49142" lon="3.70576">
        <ele>81.39</ele>
        <time>2014-09-20T15:48:53Z</time>
      </trkpt>
      <trkpt lat="48.49147" lon="3.7058">
        <ele>81.38</ele>
        <time>2014-09-20T15:48:54Z</time>
      </trkpt>
      <trkpt lat="48.49153" lon="3.70582">
        <ele>81.36</ele>
        <time>2014-09-20T15:48:55Z</time>
      </trkpt>
      <trkpt lat="48.49158" lon="3.70584">
        <ele>81.35</ele>
        <time>2014-09-20T15:48:56Z</time>
      </trkpt>
      <trkpt lat="48.49164" lon="3.70586">
        <ele>81.37</ele>
        <time>2014-09-20T15:48:57Z</time>
      </trkpt>
      <trkpt lat="48.4917" lon="3.70587">
        <ele>81.39</ele>
        <time>2014-09-20T15:48:58Z</time>
      </trkpt>
      <trkpt lat="48.49175" lon="3.70588">
        <ele>81.37</ele>
        <time>2014-09-20T15:48:59Z</time>
      </trkpt>
      <trkpt lat="48.4918" lon="3.7059">
        <ele>81.36</ele>
        <time>2014-09-20T15:49:00Z</time>
      </trkpt>
      <trkpt lat="48.49186" lon="3.70592">
        <ele>81.33</ele>
        <time>2014-09-20T15:49:01Z</time>
      </trkpt>
      <trkpt lat="48.49191" lon="3.70594">
        <ele>81.3</ele>
        <time>2014-09-20T15:49:02Z</time>
      </trkpt>
      <trkpt lat="48.49196" lon="3.70596">
        <ele>81.26</ele>
        <time>2014-09-20T15:49:03Z</time>
      </trkpt>
      <trkpt lat="48.49201" lon="3.70598">
        <ele>81.2</ele>
        <time>2014-09-20T15:49:04Z</time>
      </trkpt>
      <trkpt lat="48.49206" lon="3.706">
        <ele>81.16</ele>
        <time>2014-09-20T15:49:05Z</time>
      </trkpt>
      <trkpt lat="48.49211" lon="3.70602">
        <ele>81.1</ele>
        <time>2014-09-20T15:49:06Z</time>
      </trkpt>
      <trkpt lat="48.49216" lon="3.70604">
        <ele>81.06</ele>
        <time>2014-09-20T15:49:07Z</time>
      </trkpt>
      <trkpt lat="48.49221" lon="3.70606">
        <ele>81.03</ele>
        <time>2014-09-20T15:49:08Z</time>
      </trkpt>
      <trkpt lat="48.49225" lon="3.70608">
        <ele>80.98</ele>
        <time>2014-09-20T15:49:09Z</time>
      </trkpt>
      <trkpt lat="48.4923" lon="3.7061">
        <ele>80.94</ele>
        <time>2014-09-20T15:49:10Z</time>
      </trkpt>
      <trkpt lat="48.49235" lon="3.70612">
        <ele>80.91</ele>
        <time>2014-09-20T15:49:11Z</time>
      </trkpt>
      <trkpt lat="48.4924" lon="3.70614">
        <ele>80.87</ele>
        <time>2014-09-20T15:49:12Z</time>
      </trkpt>
      <trkpt lat="48.49245" lon="3.70616">
        <ele>80.83</ele>
        <time>2014-09-20T15:49:13Z</time>
      </trkpt>
      <trkpt lat="48.4925" lon="3.70618">
        <ele>80.81</ele>
        <time>2014-09-20T15:49:14Z</time>
      </trkpt>
      <trkpt lat="48.49254" lon="3.7062">
        <ele>80.79</ele>
        <time>2014-09-20T15:49:15Z</time>
      </trkpt>
      <trkpt lat="48.49259" lon="3.70622">
        <ele>80.77</ele>
        <time>2014-09-20T15:49:16Z</time>
      </trkpt>
      <trkpt lat="48.49264" lon="3.70624">
        <ele>80.74</ele>
        <time>2014-09-20T15:49:17Z</time>
      </trkpt>
      <trkpt lat="48.49268" lon="3.70626">
        <ele>80.68</ele>
        <time>2014-09-20T15:49:18Z</time>
      </trkpt>
      <trkpt lat="48.49273" lon="3.70628">
        <ele>80.62</ele>
        <time>2014-09-20T15:49:19Z</time>
      </trkpt>
      <trkpt lat="48.49278" lon="3.7063">
        <ele>80.57</ele>
        <time>2014-09-20T15:49:20Z</time>
      </trkpt>
      <trkpt lat="48.49283" lon="3.70632">
        <ele>80.51</ele>
        <time>2014-09-20T15:49:21Z</time>
      </trkpt>
      <trkpt lat="48.49288" lon="3.70634">
        <ele>80.44</ele>
        <time>2014-09-20T15:49:22Z</time>
      </trkpt>
      <trkpt lat="48.49293" lon="3.70636">
        <ele>80.39</ele>
        <time>2014-09-20T15:49:23Z</time>
      </trkpt>
      <trkpt lat="48.49298" lon="3.70638">
        <ele>80.32</ele>
        <time>2014-09-20T15:49:24Z</time>
      </trkpt>
      <trkpt lat="48.49303" lon="3.7064">
        <ele>80.27</ele>
        <time>2014-09-20T15:49:25Z</time>
      </trkpt>
      <trkpt lat="48.49308" lon="3.70642">
        <ele>80.21</ele>
        <time>2014-09-20T15:49:26Z</time>
      </trkpt>
      <trkpt lat="48.49313" lon="3.70645">
        <ele>80.14</ele>
        <time>2014-09-20T15:49:27Z</time>
      </trkpt>
      <trkpt lat="48.49318" lon="3.70647">
        <ele>80.09</ele>
        <time>2014-09-20T15:49:28Z</time>
      </trkpt>
      <trkpt lat="48.49323" lon="3.70649">
        <ele>80.02</ele>
        <time>2014-09-20T15:49:29Z</time>
      </trkpt>
      <trkpt lat="48.49328" lon="3.70651">
        <ele>79.95</ele>
        <time>2014-09-20T15:49:30Z</time>
      </trkpt>
      <trkpt lat="48.49333" lon="3.70653">
        <ele>79.89</ele>
        <time>2014-09-20T15:49:31Z</time>
      </trkpt>
      <trkpt lat="48.49338" lon="3.70655">
        <ele>79.83</ele>
        <time>2014-09-20T15:49:32Z</time>
      </trkpt>
      <trkpt lat="48.49343" lon="3.70657">
        <ele>79.78</ele>
        <time>2014-09-20T15:49:33Z</time>
      </trkpt>
      <trkpt lat="48.49348" lon="3.70659">
        <ele>79.72</ele>
        <time>2014-09-20T15:49:34Z</time>
      </trkpt>
      <trkpt lat="48.49353" lon="3.70661">
        <ele>79.64</ele>
        <time>2014-09-20T15:49:35Z</time>
      </trkpt>
      <trkpt lat="48.49358" lon="3.70664">
        <ele>79.56</ele>
        <time>2014-09-20T15:49:36Z</time>
      </trkpt>
      <trkpt lat="48.49364" lon="3.70666">
        <ele>79.48</ele>
        <time>2014-09-20T15:49:37Z</time>
      </trkpt>
      <trkpt lat="48.49369" lon="3.70668">
        <ele>79.39</ele>
        <time>2014-09-20T15:49:38Z</time>
      </trkpt>
      <trkpt lat="48.49374" lon="3.7067">
        <ele>79.3</ele>
        <time>2014-09-20T15:49:39Z</time>
      </trkpt>
      <trkpt lat="48.4938" lon="3.70672">
        <ele>79.23</ele>
        <time>2014-09-20T15:49:40Z</time>
      </trkpt>
      <trkpt lat="48.49385" lon="3.70675">
        <ele>79.16</ele>
        <time>2014-09-20T15:49:41Z</time>
      </trkpt>
      <trkpt lat="48.4939" lon="3.70677">
        <ele>79.1</ele>
        <time>2014-09-20T15:49:42Z</time>
      </trkpt>
      <trkpt lat="48.49395" lon="3.70679">
        <ele>79.03</ele>
        <time>2014-09-20T15:49:43Z</time>
      </trkpt>
      <trkpt lat="48.494" lon="3.70681">
        <ele>78.96</ele>
        <time>2014-09-20T15:49:44Z</time>
      </trkpt>
      <trkpt lat="48.49405" lon="3.70683">
        <ele>78.92</ele>
        <time>2014-09-20T15:49:45Z</time>
      </trkpt>
      <trkpt lat="48.4941" lon="3.70685">
        <ele>78.92</ele>
        <time>2014-09-20T15:49:46Z</time>
      </trkpt>
      <trkpt lat="48.49415" lon="3.70687">
        <ele>78.93</ele>
        <time>2014-09-20T15:49:47Z</time>
      </trkpt>
      <trkpt lat="48.49423" lon="3.70691">
        <ele>78.81</ele>
        <time>2014-09-20T15:49:49Z</time>
      </trkpt>
      <trkpt lat="48.49428" lon="3.70694">
        <ele>78.69</ele>
        <time>2014-09-20T15:49:50Z</time>
      </trkpt>
      <trkpt lat="48.49433" lon="3.70696">
        <ele>78.6</ele>
        <time>2014-09-20T15:49:51Z</time>
      </trkpt>
      <trkpt lat="48.49438" lon="3.70698">
        <ele>78.51</ele>
        <time>2014-09-20T15:49:52Z</time>
      </trkpt>
      <trkpt lat="48.49442" lon="3.707">
        <ele>78.44</ele>
        <time>2014-09-20T15:49:53Z</time>
      </trkpt>
      <trkpt lat="48.49447" lon="3.70702">
        <ele>78.36</ele>
        <time>2014-09-20T15:49:54Z</time>
      </trkpt>
      <trkpt lat="48.49452" lon="3.70704">
        <ele>78.28</ele>
        <time>2014-09-20T15:49:55Z</time>
      </trkpt>
      <trkpt lat="48.49457" lon="3.70706">
        <ele>78.19</ele>
        <time>2014-09-20T15:49:56Z</time>
      </trkpt>
      <trkpt lat="48.49462" lon="3.70707">
        <ele>78.1</ele>
        <time>2014-09-20T15:49:57Z</time>
      </trkpt>
      <trkpt lat="48.49467" lon="3.70709">
        <ele>78.01</ele>
        <time>2014-09-20T15:49:58Z</time>
      </trkpt>
      <trkpt lat="48.49471" lon="3.70711">
        <ele>77.94</ele>
        <time>2014-09-20T15:49:59Z</time>
      </trkpt>
      <trkpt lat="48.49476" lon="3.70713">
        <ele>77.86</ele>
        <time>2014-09-20T15:50:00Z</time>
      </trkpt>
      <trkpt lat="48.49481" lon="3.70715">
        <ele>77.78</ele>
        <time>2014-09-20T15:50:01Z</time>
      </trkpt>
      <trkpt lat="48.49485" lon="3.70717">
        <ele>77.71</ele>
        <time>2014-09-20T15:50:02Z</time>
      </trkpt>
      <trkpt lat="48.4949" lon="3.70719">
        <ele>77.64</ele>
        <time>2014-09-20T15:50:03Z</time>
      </trkpt>
      <trkpt lat="48.49495" lon="3.70721">
        <ele>77.59</ele>
        <time>2014-09-20T15:50:04Z</time>
      </trkpt>
      <trkpt lat="48.495" lon="3.70723">
        <ele>77.52</ele>
        <time>2014-09-20T15:50:05Z</time>
      </trkpt>
      <trkpt lat="48.49504" lon="3.70725">
        <ele>77.47</ele>
        <time>2014-09-20T15:50:06Z</time>
      </trkpt>
      <trkpt lat="48.49509" lon="3.70727">
        <ele>77.41</ele>
        <time>2014-09-20T15:50:07Z</time>
      </trkpt>
      <trkpt lat="48.49513" lon="3.70729">
        <ele>77.34</ele>
        <time>2014-09-20T15:50:08Z</time>
      </trkpt>
      <trkpt lat="48.49518" lon="3.70731">
        <ele>77.29</ele>
        <time>2014-09-20T15:50:09Z</time>
      </trkpt>
      <trkpt lat="48.49523" lon="3.70732">
        <ele>77.22</ele>
        <time>2014-09-20T15:50:10Z</time>
      </trkpt>
      <trkpt lat="48.49527" lon="3.70734">
        <ele>77.17</ele>
        <time>2014-09-20T15:50:11Z</time>
      </trkpt>
      <trkpt lat="48.49532" lon="3.70736">
        <ele>77.11</ele>
        <time>2014-09-20T15:50:12Z</time>
      </trkpt>
      <trkpt lat="48.49537" lon="3.70738">
        <ele>77.07</ele>
        <time>2014-09-20T15:50:13Z</time>
      </trkpt>
      <trkpt lat="48.49541" lon="3.7074">
        <ele>77.03</ele>
        <time>2014-09-20T15:50:14Z</time>
      </trkpt>
      <trkpt lat="48.49546" lon="3.70742">
        <ele>77.01</ele>
        <time>2014-09-20T15:50:15Z</time>
      </trkpt>
      <trkpt lat="48.4955" lon="3.70744">
        <ele>76.99</ele>
        <time>2014-09-20T15:50:16Z</time>
      </trkpt>
      <trkpt lat="48.49555" lon="3.70746">
        <ele>76.97</ele>
        <time>2014-09-20T15:50:17Z</time>
      </trkpt>
      <trkpt lat="48.49559" lon="3.70748">
        <ele>76.94</ele>
        <time>2014-09-20T15:50:18Z</time>
      </trkpt>
      <trkpt lat="48.49564" lon="3.7075">
        <ele>76.88</ele>
        <time>2014-09-20T15:50:19Z</time>
      </trkpt>
      <trkpt lat="48.49568" lon="3.70752">
        <ele>76.82</ele>
        <time>2014-09-20T15:50:20Z</time>
      </trkpt>
      <trkpt lat="48.49573" lon="3.70754">
        <ele>76.75</ele>
        <time>2014-09-20T15:50:21Z</time>
      </trkpt>
      <trkpt lat="48.49578" lon="3.70756">
        <ele>76.69</ele>
        <time>2014-09-20T15:50:22Z</time>
      </trkpt>
      <trkpt lat="48.49582" lon="3.70758">
        <ele>76.63</ele>
        <time>2014-09-20T15:50:23Z</time>
      </trkpt>
      <trkpt lat="48.49587" lon="3.7076">
        <ele>76.55</ele>
        <time>2014-09-20T15:50:24Z</time>
      </trkpt>
      <trkpt lat="48.49592" lon="3.70762">
        <ele>76.47</ele>
        <time>2014-09-20T15:50:25Z</time>
      </trkpt>
      <trkpt lat="48.49597" lon="3.70764">
        <ele>76.39</ele>
        <time>2014-09-20T15:50:26Z</time>
      </trkpt>
      <trkpt lat="48.49601" lon="3.70766">
        <ele>76.3</ele>
        <time>2014-09-20T15:50:27Z</time>
      </trkpt>
      <trkpt lat="48.49606" lon="3.70768">
        <ele>76.2</ele>
        <time>2014-09-20T15:50:28Z</time>
      </trkpt>
      <trkpt lat="48.49611" lon="3.7077">
        <ele>76.08</ele>
        <time>2014-09-20T15:50:29Z</time>
      </trkpt>
      <trkpt lat="48.49616" lon="3.70772">
        <ele>76</ele>
        <time>2014-09-20T15:50:30Z</time>
      </trkpt>
      <trkpt lat="48.49621" lon="3.70773">
        <ele>75.9</ele>
        <time>2014-09-20T15:50:31Z</time>
      </trkpt>
      <trkpt lat="48.49625" lon="3.70776">
        <ele>75.81</ele>
        <time>2014-09-20T15:50:32Z</time>
      </trkpt>
      <trkpt lat="48.4963" lon="3.70778">
        <ele>75.71</ele>
        <time>2014-09-20T15:50:33Z</time>
      </trkpt>
      <trkpt lat="48.49635" lon="3.7078">
        <ele>75.59</ele>
        <time>2014-09-20T15:50:34Z</time>
      </trkpt>
      <trkpt lat="48.4964" lon="3.70782">
        <ele>75.45</ele>
        <time>2014-09-20T15:50:35Z</time>
      </trkpt>
      <trkpt lat="48.49645" lon="3.70784">
        <ele>75.32</ele>
        <time>2014-09-20T15:50:36Z</time>
      </trkpt>
      <trkpt lat="48.4965" lon="3.70786">
        <ele>75.22</ele>
        <time>2014-09-20T15:50:37Z</time>
      </trkpt>
      <trkpt lat="48.49656" lon="3.70789">
        <ele>75.12</ele>
        <time>2014-09-20T15:50:38Z</time>
      </trkpt>
      <trkpt lat="48.49661" lon="3.70791">
        <ele>75.02</ele>
        <time>2014-09-20T15:50:39Z</time>
      </trkpt>
      <trkpt lat="48.49665" lon="3.70793">
        <ele>74.95</ele>
        <time>2014-09-20T15:50:40Z</time>
      </trkpt>
      <trkpt lat="48.4967" lon="3.70795">
        <ele>74.89</ele>
        <time>2014-09-20T15:50:41Z</time>
      </trkpt>
      <trkpt lat="48.49675" lon="3.70797">
        <ele>74.85</ele>
        <time>2014-09-20T15:50:42Z</time>
      </trkpt>
      <trkpt lat="48.49679" lon="3.70798">
        <ele>74.82</ele>
        <time>2014-09-20T15:50:43Z</time>
      </trkpt>
      <trkpt lat="48.49684" lon="3.708">
        <ele>74.8</ele>
        <time>2014-09-20T15:50:44Z</time>
      </trkpt>
      <trkpt lat="48.49688" lon="3.70802">
        <ele>74.76</ele>
        <time>2014-09-20T15:50:45Z</time>
      </trkpt>
      <trkpt lat="48.49697" lon="3.70805">
        <ele>74.67</ele>
        <time>2014-09-20T15:50:47Z</time>
      </trkpt>
      <trkpt lat="48.49705" lon="3.70809">
        <ele>74.61</ele>
        <time>2014-09-20T15:50:49Z</time>
      </trkpt>
      <trkpt lat="48.49713" lon="3.70812">
        <ele>74.55</ele>
        <time>2014-09-20T15:50:51Z</time>
      </trkpt>
      <trkpt lat="48.49721" lon="3.70816">
        <ele>74.5</ele>
        <time>2014-09-20T15:50:53Z</time>
      </trkpt>
      <trkpt lat="48.49729" lon="3.70819">
        <ele>74.51</ele>
        <time>2014-09-20T15:50:55Z</time>
      </trkpt>
      <trkpt lat="48.49737" lon="3.70822">
        <ele>74.56</ele>
        <time>2014-09-20T15:50:57Z</time>
      </trkpt>
      <trkpt lat="48.49744" lon="3.70825">
        <ele>74.63</ele>
        <time>2014-09-20T15:50:59Z</time>
      </trkpt>
      <trkpt lat="48.49751" lon="3.70828">
        <ele>74.68</ele>
        <time>2014-09-20T15:51:01Z</time>
      </trkpt>
      <trkpt lat="48.49758" lon="3.70831">
        <ele>74.7</ele>
        <time>2014-09-20T15:51:03Z</time>
      </trkpt>
      <trkpt lat="48.49765" lon="3.70834">
        <ele>74.71</ele>
        <time>2014-09-20T15:51:05Z</time>
      </trkpt>
      <trkpt lat="48.49773" lon="3.70837">
        <ele>74.69</ele>
        <time>2014-09-20T15:51:07Z</time>
      </trkpt>
      <trkpt lat="48.4978" lon="3.7084">
        <ele>74.66</ele>
        <time>2014-09-20T15:51:09Z</time>
      </trkpt>
      <trkpt lat="48.49788" lon="3.70844">
        <ele>74.65</ele>
        <time>2014-09-20T15:51:11Z</time>
      </trkpt>
      <trkpt lat="48.49795" lon="3.70847">
        <ele>74.55</ele>
        <time>2014-09-20T15:51:13Z</time>
      </trkpt>
      <trkpt lat="48.49804" lon="3.7085">
        <ele>74.41</ele>
        <time>2014-09-20T15:51:15Z</time>
      </trkpt>
      <trkpt lat="48.49812" lon="3.70854">
        <ele>74.3</ele>
        <time>2014-09-20T15:51:17Z</time>
      </trkpt>
      <trkpt lat="48.4982" lon="3.70857">
        <ele>74.16</ele>
        <time>2014-09-20T15:51:19Z</time>
      </trkpt>
      <trkpt lat="48.49828" lon="3.70861">
        <ele>73.99</ele>
        <time>2014-09-20T15:51:21Z</time>
      </trkpt>
      <trkpt lat="48.49836" lon="3.70864">
        <ele>73.81</ele>
        <time>2014-09-20T15:51:23Z</time>
      </trkpt>
      <trkpt lat="48.49844" lon="3.70868">
        <ele>73.64</ele>
        <time>2014-09-20T15:51:25Z</time>
      </trkpt>
      <trkpt lat="48.49852" lon="3.70871">
        <ele>73.55</ele>
        <time>2014-09-20T15:51:27Z</time>
      </trkpt>
      <trkpt lat="48.4986" lon="3.70874">
        <ele>73.5</ele>
        <time>2014-09-20T15:51:29Z</time>
      </trkpt>
      <trkpt lat="48.49868" lon="3.70877">
        <ele>73.47</ele>
        <time>2014-09-20T15:51:31Z</time>
      </trkpt>
      <trkpt lat="48.49875" lon="3.70881">
        <ele>73.45</ele>
        <time>2014-09-20T15:51:33Z</time>
      </trkpt>
      <trkpt lat="48.49882" lon="3.70883">
        <ele>73.44</ele>
        <time>2014-09-20T15:51:35Z</time>
      </trkpt>
      <trkpt lat="48.49889" lon="3.70886">
        <ele>73.39</ele>
        <time>2014-09-20T15:51:37Z</time>
      </trkpt>
      <trkpt lat="48.49897" lon="3.7089">
        <ele>73.38</ele>
        <time>2014-09-20T15:51:39Z</time>
      </trkpt>
      <trkpt lat="48.49906" lon="3.70893">
        <ele>73.38</ele>
        <time>2014-09-20T15:51:41Z</time>
      </trkpt>
      <trkpt lat="48.49914" lon="3.70897">
        <ele>73.36</ele>
        <time>2014-09-20T15:51:43Z</time>
      </trkpt>
      <trkpt lat="48.49922" lon="3.709">
        <ele>73.34</ele>
        <time>2014-09-20T15:51:45Z</time>
      </trkpt>
      <trkpt lat="48.49929" lon="3.70903">
        <ele>73.41</ele>
        <time>2014-09-20T15:51:47Z</time>
      </trkpt>
      <trkpt lat="48.49935" lon="3.70906">
        <ele>73.48</ele>
        <time>2014-09-20T15:51:49Z</time>
      </trkpt>
      <trkpt lat="48.49942" lon="3.70909">
        <ele>73.59</ele>
        <time>2014-09-20T15:51:51Z</time>
      </trkpt>
      <trkpt lat="48.49948" lon="3.70912">
        <ele>73.63</ele>
        <time>2014-09-20T15:51:53Z</time>
      </trkpt>
      <trkpt lat="48.49955" lon="3.70914">
        <ele>73.63</ele>
        <time>2014-09-20T15:51:55Z</time>
      </trkpt>
      <trkpt lat="48.49961" lon="3.70917">
        <ele>73.6</ele>
        <time>2014-09-20T15:51:57Z</time>
      </trkpt>
      <trkpt lat="48.49968" lon="3.7092">
        <ele>73.5</ele>
        <time>2014-09-20T15:51:59Z</time>
      </trkpt>
      <trkpt lat="48.49975" lon="3.70923">
        <ele>73.38</ele>
        <time>2014-09-20T15:52:01Z</time>
      </trkpt>
      <trkpt lat="48.49982" lon="3.70926">
        <ele>73.2</ele>
        <time>2014-09-20T15:52:03Z</time>
      </trkpt>
      <trkpt lat="48.49989" lon="3.70929">
        <ele>73.13</ele>
        <time>2014-09-20T15:52:05Z</time>
      </trkpt>
      <trkpt lat="48.49996" lon="3.70931">
        <ele>73.06</ele>
        <time>2014-09-20T15:52:07Z</time>
      </trkpt>
      <trkpt lat="48.50003" lon="3.70934">
        <ele>72.98</ele>
        <time>2014-09-20T15:52:09Z</time>
      </trkpt>
      <trkpt lat="48.50009" lon="3.70937">
        <ele>72.91</ele>
        <time>2014-09-20T15:52:11Z</time>
      </trkpt>
      <trkpt lat="48.50016" lon="3.7094">
        <ele>72.81</ele>
        <time>2014-09-20T15:52:13Z</time>
      </trkpt>
      <trkpt lat="48.50023" lon="3.70944">
        <ele>72.73</ele>
        <time>2014-09-20T15:52:15Z</time>
      </trkpt>
      <trkpt lat="48.50027" lon="3.70951">
        <ele>72.71</ele>
        <time>2014-09-20T15:52:17Z</time>
      </trkpt>
      <trkpt lat="48.50026" lon="3.70961">
        <ele>72.65</ele>
        <time>2014-09-20T15:52:19Z</time>
      </trkpt>
      <trkpt lat="48.50023" lon="3.7097">
        <ele>72.53</ele>
        <time>2014-09-20T15:52:21Z</time>
      </trkpt>
      <trkpt lat="48.5002" lon="3.70979">
        <ele>72.42</ele>
        <time>2014-09-20T15:52:23Z</time>
      </trkpt>
      <trkpt lat="48.50016" lon="3.70988">
        <ele>72.31</ele>
        <time>2014-09-20T15:52:25Z</time>
      </trkpt>
      <trkpt lat="48.50012" lon="3.70998">
        <ele>72.16</ele>
        <time>2014-09-20T15:52:27Z</time>
      </trkpt>
      <trkpt lat="48.50008" lon="3.71007">
        <ele>71.99</ele>
        <time>2014-09-20T15:52:29Z</time>
      </trkpt>
      <trkpt lat="48.50004" lon="3.71018">
        <ele>71.88</ele>
        <time>2014-09-20T15:52:31Z</time>
      </trkpt>
      <trkpt lat="48.5" lon="3.71027">
        <ele>71.81</ele>
        <time>2014-09-20T15:52:33Z</time>
      </trkpt>
      <trkpt lat="48.49997" lon="3.71037">
        <ele>71.82</ele>
        <time>2014-09-20T15:52:35Z</time>
      </trkpt>
      <trkpt lat="48.49993" lon="3.71046">
        <ele>71.85</ele>
        <time>2014-09-20T15:52:37Z</time>
      </trkpt>
      <trkpt lat="48.49989" lon="3.71056">
        <ele>71.91</ele>
        <time>2014-09-20T15:52:39Z</time>
      </trkpt>
      <trkpt lat="48.49986" lon="3.71065">
        <ele>71.96</ele>
        <time>2014-09-20T15:52:41Z</time>
      </trkpt>
      <trkpt lat="48.49982" lon="3.71074">
        <ele>71.95</ele>
        <time>2014-09-20T15:52:43Z</time>
      </trkpt>
      <trkpt lat="48.49978" lon="3.71083">
        <ele>71.94</ele>
        <time>2014-09-20T15:52:45Z</time>
      </trkpt>
      <trkpt lat="48.49974" lon="3.71093">
        <ele>71.96</ele>
        <time>2014-09-20T15:52:47Z</time>
      </trkpt>
      <trkpt lat="48.4997" lon="3.71102">
        <ele>71.97</ele>
        <time>2014-09-20T15:52:49Z</time>
      </trkpt>
      <trkpt lat="48.49967" lon="3.71112">
        <ele>71.99</ele>
        <time>2014-09-20T15:52:51Z</time>
      </trkpt>
      <trkpt lat="48.49963" lon="3.71122">
        <ele>72.03</ele>
        <time>2014-09-20T15:52:53Z</time>
      </trkpt>
      <trkpt lat="48.49959" lon="3.71131">
        <ele>72.1</ele>
        <time>2014-09-20T15:52:55Z</time>
      </trkpt>
      <trkpt lat="48.49955" lon="3.71141">
        <ele>72.11</ele>
        <time>2014-09-20T15:52:57Z</time>
      </trkpt>
      <trkpt lat="48.49951" lon="3.71151">
        <ele>72.12</ele>
        <time>2014-09-20T15:52:59Z</time>
      </trkpt>
      <trkpt lat="48.49948" lon="3.71161">
        <ele>72.15</ele>
        <time>2014-09-20T15:53:01Z</time>
      </trkpt>
      <trkpt lat="48.49944" lon="3.71171">
        <ele>72.16</ele>
        <time>2014-09-20T15:53:03Z</time>
      </trkpt>
      <trkpt lat="48.49939" lon="3.71181">
        <ele>72.17</ele>
        <time>2014-09-20T15:53:05Z</time>
      </trkpt>
      <trkpt lat="48.49935" lon="3.7119">
        <ele>72.13</ele>
        <time>2014-09-20T15:53:07Z</time>
      </trkpt>
      <trkpt lat="48.4993" lon="3.712">
        <ele>72.05</ele>
        <time>2014-09-20T15:53:09Z</time>
      </trkpt>
      <trkpt lat="48.49926" lon="3.71211">
        <ele>72.06</ele>
        <time>2014-09-20T15:53:11Z</time>
      </trkpt>
      <trkpt lat="48.49922" lon="3.71221">
        <ele>72.07</ele>
        <time>2014-09-20T15:53:13Z</time>
      </trkpt>
      <trkpt lat="48.49918" lon="3.7123">
        <ele>72.16</ele>
        <time>2014-09-20T15:53:15Z</time>
      </trkpt>
      <trkpt lat="48.49915" lon="3.7124">
        <ele>72.23</ele>
        <time>2014-09-20T15:53:17Z</time>
      </trkpt>
      <trkpt lat="48.49912" lon="3.71249">
        <ele>72.27</ele>
        <time>2014-09-20T15:53:19Z</time>
      </trkpt>
      <trkpt lat="48.49909" lon="3.71259">
        <ele>72.41</ele>
        <time>2014-09-20T15:53:21Z</time>
      </trkpt>
      <trkpt lat="48.49905" lon="3.71269">
        <ele>72.44</ele>
        <time>2014-09-20T15:53:23Z</time>
      </trkpt>
      <trkpt lat="48.49902" lon="3.7128">
        <ele>72.37</ele>
        <time>2014-09-20T15:53:25Z</time>
      </trkpt>
      <trkpt lat="48.49898" lon="3.7129">
        <ele>72.35</ele>
        <time>2014-09-20T15:53:27Z</time>
      </trkpt>
      <trkpt lat="48.49895" lon="3.71299">
        <ele>72.32</ele>
        <time>2014-09-20T15:53:29Z</time>
      </trkpt>
      <trkpt lat="48.49891" lon="3.71308">
        <ele>72.34</ele>
        <time>2014-09-20T15:53:31Z</time>
      </trkpt>
      <trkpt lat="48.49887" lon="3.71318">
        <ele>72.34</ele>
        <time>2014-09-20T15:53:33Z</time>
      </trkpt>
      <trkpt lat="48.49884" lon="3.71327">
        <ele>72.33</ele>
        <time>2014-09-20T15:53:35Z</time>
      </trkpt>
      <trkpt lat="48.4988" lon="3.71336">
        <ele>72.35</ele>
        <time>2014-09-20T15:53:37Z</time>
      </trkpt>
      <trkpt lat="48.49877" lon="3.71346">
        <ele>72.34</ele>
        <time>2014-09-20T15:53:39Z</time>
      </trkpt>
      <trkpt lat="48.49873" lon="3.71355">
        <ele>72.31</ele>
        <time>2014-09-20T15:53:41Z</time>
      </trkpt>
      <trkpt lat="48.49869" lon="3.71365">
        <ele>72.27</ele>
        <time>2014-09-20T15:53:43Z</time>
      </trkpt>
      <trkpt lat="48.49865" lon="3.71375">
        <ele>72.19</ele>
        <time>2014-09-20T15:53:45Z</time>
      </trkpt>
      <trkpt lat="48.49861" lon="3.71386">
        <ele>72.14</ele>
        <time>2014-09-20T15:53:47Z</time>
      </trkpt>
      <trkpt lat="48.49857" lon="3.71398">
        <ele>72.07</ele>
        <time>2014-09-20T15:53:49Z</time>
      </trkpt>
      <trkpt lat="48.49852" lon="3.71409">
        <ele>72.07</ele>
        <time>2014-09-20T15:53:51Z</time>
      </trkpt>
      <trkpt lat="48.49848" lon="3.7142">
        <ele>71.98</ele>
        <time>2014-09-20T15:53:53Z</time>
      </trkpt>
      <trkpt lat="48.49844" lon="3.71431">
        <ele>71.85</ele>
        <time>2014-09-20T15:53:55Z</time>
      </trkpt>
      <trkpt lat="48.4984" lon="3.71442">
        <ele>71.71</ele>
        <time>2014-09-20T15:53:57Z</time>
      </trkpt>
      <trkpt lat="48.49835" lon="3.71453">
        <ele>71.65</ele>
        <time>2014-09-20T15:53:59Z</time>
      </trkpt>
      <trkpt lat="48.49831" lon="3.71464">
        <ele>71.69</ele>
        <time>2014-09-20T15:54:01Z</time>
      </trkpt>
      <trkpt lat="48.49827" lon="3.71475">
        <ele>71.8</ele>
        <time>2014-09-20T15:54:03Z</time>
      </trkpt>
      <trkpt lat="48.49822" lon="3.71485">
        <ele>71.86</ele>
        <time>2014-09-20T15:54:05Z</time>
      </trkpt>
      <trkpt lat="48.49818" lon="3.71496">
        <ele>71.82</ele>
        <time>2014-09-20T15:54:07Z</time>
      </trkpt>
      <trkpt lat="48.49814" lon="3.71507">
        <ele>71.67</ele>
        <time>2014-09-20T15:54:09Z</time>
      </trkpt>
      <trkpt lat="48.4981" lon="3.71519">
        <ele>71.56</ele>
        <time>2014-09-20T15:54:11Z</time>
      </trkpt>
      <trkpt lat="48.49805" lon="3.7153">
        <ele>71.5</ele>
        <time>2014-09-20T15:54:13Z</time>
      </trkpt>
      <trkpt lat="48.49801" lon="3.71541">
        <ele>71.47</ele>
        <time>2014-09-20T15:54:15Z</time>
      </trkpt>
      <trkpt lat="48.49797" lon="3.71552">
        <ele>71.55</ele>
        <time>2014-09-20T15:54:17Z</time>
      </trkpt>
      <trkpt lat="48.49793" lon="3.71563">
        <ele>71.58</ele>
        <time>2014-09-20T15:54:19Z</time>
      </trkpt>
      <trkpt lat="48.49788" lon="3.71573">
        <ele>71.65</ele>
        <time>2014-09-20T15:54:21Z</time>
      </trkpt>
      <trkpt lat="48.49784" lon="3.71584">
        <ele>71.73</ele>
        <time>2014-09-20T15:54:23Z</time>
      </trkpt>
      <trkpt lat="48.49781" lon="3.71594">
        <ele>71.73</ele>
        <time>2014-09-20T15:54:25Z</time>
      </trkpt>
      <trkpt lat="48.49777" lon="3.71604">
        <ele>71.73</ele>
        <time>2014-09-20T15:54:27Z</time>
      </trkpt>
      <trkpt lat="48.49773" lon="3.71615">
        <ele>71.8</ele>
        <time>2014-09-20T15:54:29Z</time>
      </trkpt>
      <trkpt lat="48.49768" lon="3.71626">
        <ele>71.85</ele>
        <time>2014-09-20T15:54:31Z</time>
      </trkpt>
      <trkpt lat="48.49764" lon="3.71638">
        <ele>71.91</ele>
        <time>2014-09-20T15:54:33Z</time>
      </trkpt>
      <trkpt lat="48.49761" lon="3.71644">
        <ele>71.97</ele>
        <time>2014-09-20T15:54:34Z</time>
      </trkpt>
      <trkpt lat="48.49757" lon="3.71656">
        <ele>72.04</ele>
        <time>2014-09-20T15:54:36Z</time>
      </trkpt>
      <trkpt lat="48.49753" lon="3.71667">
        <ele>72.15</ele>
        <time>2014-09-20T15:54:38Z</time>
      </trkpt>
      <trkpt lat="48.49748" lon="3.71678">
        <ele>72.32</ele>
        <time>2014-09-20T15:54:40Z</time>
      </trkpt>
      <trkpt lat="48.49744" lon="3.7169">
        <ele>72.41</ele>
        <time>2014-09-20T15:54:42Z</time>
      </trkpt>
      <trkpt lat="48.4974" lon="3.717">
        <ele>72.44</ele>
        <time>2014-09-20T15:54:44Z</time>
      </trkpt>
      <trkpt lat="48.49735" lon="3.71712">
        <ele>72.55</ele>
        <time>2014-09-20T15:54:46Z</time>
      </trkpt>
      <trkpt lat="48.4973" lon="3.71723">
        <ele>72.72</ele>
        <time>2014-09-20T15:54:48Z</time>
      </trkpt>
      <trkpt lat="48.49726" lon="3.71734">
        <ele>72.83</ele>
        <time>2014-09-20T15:54:50Z</time>
      </trkpt>
      <trkpt lat="48.49721" lon="3.71745">
        <ele>72.87</ele>
        <time>2014-09-20T15:54:52Z</time>
      </trkpt>
      <trkpt lat="48.49717" lon="3.71757">
        <ele>72.83</ele>
        <time>2014-09-20T15:54:54Z</time>
      </trkpt>
      <trkpt lat="48.49713" lon="3.71767">
        <ele>72.83</ele>
        <time>2014-09-20T15:54:56Z</time>
      </trkpt>
      <trkpt lat="48.49709" lon="3.71778">
        <ele>72.87</ele>
        <time>2014-09-20T15:54:58Z</time>
      </trkpt>
      <trkpt lat="48.49704" lon="3.71789">
        <ele>73.01</ele>
        <time>2014-09-20T15:55:00Z</time>
      </trkpt>
      <trkpt lat="48.497" lon="3.718">
        <ele>73.15</ele>
        <time>2014-09-20T15:55:02Z</time>
      </trkpt>
      <trkpt lat="48.49695" lon="3.7181">
        <ele>73.16</ele>
        <time>2014-09-20T15:55:04Z</time>
      </trkpt>
      <trkpt lat="48.49691" lon="3.71822">
        <ele>73.21</ele>
        <time>2014-09-20T15:55:06Z</time>
      </trkpt>
      <trkpt lat="48.49687" lon="3.71832">
        <ele>73.24</ele>
        <time>2014-09-20T15:55:08Z</time>
      </trkpt>
      <trkpt lat="48.49683" lon="3.71843">
        <ele>73.28</ele>
        <time>2014-09-20T15:55:10Z</time>
      </trkpt>
      <trkpt lat="48.49679" lon="3.71854">
        <ele>73.42</ele>
        <time>2014-09-20T15:55:12Z</time>
      </trkpt>
      <trkpt lat="48.49675" lon="3.71864">
        <ele>73.58</ele>
        <time>2014-09-20T15:55:14Z</time>
      </trkpt>
      <trkpt lat="48.49671" lon="3.71874">
        <ele>73.69</ele>
        <time>2014-09-20T15:55:16Z</time>
      </trkpt>
      <trkpt lat="48.49666" lon="3.71882">
        <ele>73.65</ele>
        <time>2014-09-20T15:55:18Z</time>
      </trkpt>
      <trkpt lat="48.49662" lon="3.71893">
        <ele>73.57</ele>
        <time>2014-09-20T15:55:20Z</time>
      </trkpt>
      <trkpt lat="48.49658" lon="3.71903">
        <ele>73.51</ele>
        <time>2014-09-20T15:55:22Z</time>
      </trkpt>
      <trkpt lat="48.49656" lon="3.7191">
        <ele>73.54</ele>
        <time>2014-09-20T15:55:23Z</time>
      </trkpt>
      <trkpt lat="48.49651" lon="3.71921">
        <ele>73.67</ele>
        <time>2014-09-20T15:55:25Z</time>
      </trkpt>
      <trkpt lat="48.49647" lon="3.71932">
        <ele>73.87</ele>
        <time>2014-09-20T15:55:27Z</time>
      </trkpt>
      <trkpt lat="48.49642" lon="3.71944">
        <ele>73.96</ele>
        <time>2014-09-20T15:55:29Z</time>
      </trkpt>
      <trkpt lat="48.4964" lon="3.7195">
        <ele>73.97</ele>
        <time>2014-09-20T15:55:30Z</time>
      </trkpt>
      <trkpt lat="48.49637" lon="3.71956">
        <ele>73.94</ele>
        <time>2014-09-20T15:55:31Z</time>
      </trkpt>
      <trkpt lat="48.49635" lon="3.71963">
        <ele>73.91</ele>
        <time>2014-09-20T15:55:32Z</time>
      </trkpt>
      <trkpt lat="48.49633" lon="3.7197">
        <ele>73.86</ele>
        <time>2014-09-20T15:55:33Z</time>
      </trkpt>
      <trkpt lat="48.4963" lon="3.71977">
        <ele>73.83</ele>
        <time>2014-09-20T15:55:34Z</time>
      </trkpt>
      <trkpt lat="48.49627" lon="3.71984">
        <ele>73.83</ele>
        <time>2014-09-20T15:55:35Z</time>
      </trkpt>
      <trkpt lat="48.49625" lon="3.71991">
        <ele>73.8</ele>
        <time>2014-09-20T15:55:36Z</time>
      </trkpt>
      <trkpt lat="48.49622" lon="3.71998">
        <ele>73.79</ele>
        <time>2014-09-20T15:55:37Z</time>
      </trkpt>
      <trkpt lat="48.4962" lon="3.72005">
        <ele>73.8</ele>
        <time>2014-09-20T15:55:38Z</time>
      </trkpt>
      <trkpt lat="48.49617" lon="3.72012">
        <ele>73.73</ele>
        <time>2014-09-20T15:55:39Z</time>
      </trkpt>
      <trkpt lat="48.49615" lon="3.72018">
        <ele>73.68</ele>
        <time>2014-09-20T15:55:40Z</time>
      </trkpt>
      <trkpt lat="48.49612" lon="3.72025">
        <ele>73.62</ele>
        <time>2014-09-20T15:55:41Z</time>
      </trkpt>
      <trkpt lat="48.4961" lon="3.72032">
        <ele>73.52</ele>
        <time>2014-09-20T15:55:42Z</time>
      </trkpt>
      <trkpt lat="48.49608" lon="3.72039">
        <ele>73.4</ele>
        <time>2014-09-20T15:55:43Z</time>
      </trkpt>
      <trkpt lat="48.49605" lon="3.72046">
        <ele>73.3</ele>
        <time>2014-09-20T15:55:44Z</time>
      </trkpt>
      <trkpt lat="48.49602" lon="3.72052">
        <ele>73.26</ele>
        <time>2014-09-20T15:55:45Z</time>
      </trkpt>
      <trkpt lat="48.49599" lon="3.72058">
        <ele>73.2</ele>
        <time>2014-09-20T15:55:46Z</time>
      </trkpt>
      <trkpt lat="48.49596" lon="3.72063">
        <ele>73.13</ele>
        <time>2014-09-20T15:55:47Z</time>
      </trkpt>
      <trkpt lat="48.49593" lon="3.72069">
        <ele>73.01</ele>
        <time>2014-09-20T15:55:48Z</time>
      </trkpt>
      <trkpt lat="48.4959" lon="3.72075">
        <ele>72.84</ele>
        <time>2014-09-20T15:55:49Z</time>
      </trkpt>
      <trkpt lat="48.49586" lon="3.72082">
        <ele>72.71</ele>
        <time>2014-09-20T15:55:50Z</time>
      </trkpt>
      <trkpt lat="48.49582" lon="3.72088">
        <ele>72.56</ele>
        <time>2014-09-20T15:55:51Z</time>
      </trkpt>
      <trkpt lat="48.49578" lon="3.72094">
        <ele>72.46</ele>
        <time>2014-09-20T15:55:52Z</time>
      </trkpt>
      <trkpt lat="48.49573" lon="3.72097">
        <ele>72.35</ele>
        <time>2014-09-20T15:55:53Z</time>
      </trkpt>
      <trkpt lat="48.49567" lon="3.72098">
        <ele>72.32</ele>
        <time>2014-09-20T15:55:54Z</time>
      </trkpt>
      <trkpt lat="48.49562" lon="3.72096">
        <ele>72.32</ele>
        <time>2014-09-20T15:55:55Z</time>
      </trkpt>
      <trkpt lat="48.49557" lon="3.72094">
        <ele>72.35</ele>
        <time>2014-09-20T15:55:56Z</time>
      </trkpt>
      <trkpt lat="48.49552" lon="3.72091">
        <ele>72.39</ele>
        <time>2014-09-20T15:55:57Z</time>
      </trkpt>
      <trkpt lat="48.49547" lon="3.72089">
        <ele>72.45</ele>
        <time>2014-09-20T15:55:58Z</time>
      </trkpt>
      <trkpt lat="48.49542" lon="3.72087">
        <ele>72.52</ele>
        <time>2014-09-20T15:55:59Z</time>
      </trkpt>
      <trkpt lat="48.49538" lon="3.72084">
        <ele>72.55</ele>
        <time>2014-09-20T15:56:00Z</time>
      </trkpt>
      <trkpt lat="48.49533" lon="3.72081">
        <ele>72.57</ele>
        <time>2014-09-20T15:56:01Z</time>
      </trkpt>
      <trkpt lat="48.49529" lon="3.72079">
        <ele>72.61</ele>
        <time>2014-09-20T15:56:02Z</time>
      </trkpt>
      <trkpt lat="48.49524" lon="3.72077">
        <ele>72.64</ele>
        <time>2014-09-20T15:56:03Z</time>
      </trkpt>
      <trkpt lat="48.4952" lon="3.72076">
        <ele>72.69</ele>
        <time>2014-09-20T15:56:04Z</time>
      </trkpt>
      <trkpt lat="48.49511" lon="3.72073">
        <ele>72.77</ele>
        <time>2014-09-20T15:56:06Z</time>
      </trkpt>
      <trkpt lat="48.49503" lon="3.72069">
        <ele>72.8</ele>
        <time>2014-09-20T15:56:08Z</time>
      </trkpt>
      <trkpt lat="48.49495" lon="3.72065">
        <ele>72.85</ele>
        <time>2014-09-20T15:56:10Z</time>
      </trkpt>
      <trkpt lat="48.49486" lon="3.72061">
        <ele>72.96</ele>
        <time>2014-09-20T15:56:12Z</time>
      </trkpt>
      <trkpt lat="48.49478" lon="3.72058">
        <ele>73.06</ele>
        <time>2014-09-20T15:56:14Z</time>
      </trkpt>
      <trkpt lat="48.4947" lon="3.72055">
        <ele>73.2</ele>
        <time>2014-09-20T15:56:16Z</time>
      </trkpt>
      <trkpt lat="48.49463" lon="3.72052">
        <ele>73.32</ele>
        <time>2014-09-20T15:56:18Z</time>
      </trkpt>
      <trkpt lat="48.49456" lon="3.72048">
        <ele>73.48</ele>
        <time>2014-09-20T15:56:20Z</time>
      </trkpt>
      <trkpt lat="48.49448" lon="3.72045">
        <ele>73.59</ele>
        <time>2014-09-20T15:56:22Z</time>
      </trkpt>
      <trkpt lat="48.4944" lon="3.72041">
        <ele>73.69</ele>
        <time>2014-09-20T15:56:24Z</time>
      </trkpt>
      <trkpt lat="48.49433" lon="3.72038">
        <ele>73.82</ele>
        <time>2014-09-20T15:56:26Z</time>
      </trkpt>
      <trkpt lat="48.49426" lon="3.72035">
        <ele>73.96</ele>
        <time>2014-09-20T15:56:28Z</time>
      </trkpt>
      <trkpt lat="48.49418" lon="3.72032">
        <ele>74.06</ele>
        <time>2014-09-20T15:56:30Z</time>
      </trkpt>
      <trkpt lat="48.49411" lon="3.72029">
        <ele>74.13</ele>
        <time>2014-09-20T15:56:32Z</time>
      </trkpt>
      <trkpt lat="48.49403" lon="3.72026">
        <ele>74.24</ele>
        <time>2014-09-20T15:56:34Z</time>
      </trkpt>
      <trkpt lat="48.49396" lon="3.72023">
        <ele>74.35</ele>
        <time>2014-09-20T15:56:36Z</time>
      </trkpt>
      <trkpt lat="48.49388" lon="3.7202">
        <ele>74.47</ele>
        <time>2014-09-20T15:56:38Z</time>
      </trkpt>
      <trkpt lat="48.49381" lon="3.72017">
        <ele>74.54</ele>
        <time>2014-09-20T15:56:40Z</time>
      </trkpt>
      <trkpt lat="48.49373" lon="3.72013">
        <ele>74.58</ele>
        <time>2014-09-20T15:56:42Z</time>
      </trkpt>
      <trkpt lat="48.49366" lon="3.7201">
        <ele>74.6</ele>
        <time>2014-09-20T15:56:44Z</time>
      </trkpt>
      <trkpt lat="48.49359" lon="3.72007">
        <ele>74.61</ele>
        <time>2014-09-20T15:56:46Z</time>
      </trkpt>
      <trkpt lat="48.49351" lon="3.72003">
        <ele>74.64</ele>
        <time>2014-09-20T15:56:48Z</time>
      </trkpt>
      <trkpt lat="48.49344" lon="3.72">
        <ele>74.68</ele>
        <time>2014-09-20T15:56:50Z</time>
      </trkpt>
      <trkpt lat="48.49336" lon="3.71997">
        <ele>74.75</ele>
        <time>2014-09-20T15:56:52Z</time>
      </trkpt>
      <trkpt lat="48.49329" lon="3.71994">
        <ele>74.83</ele>
        <time>2014-09-20T15:56:54Z</time>
      </trkpt>
      <trkpt lat="48.49322" lon="3.71992">
        <ele>74.87</ele>
        <time>2014-09-20T15:56:56Z</time>
      </trkpt>
      <trkpt lat="48.49315" lon="3.71989">
        <ele>74.9</ele>
        <time>2014-09-20T15:56:58Z</time>
      </trkpt>
      <trkpt lat="48.49307" lon="3.71986">
        <ele>74.91</ele>
        <time>2014-09-20T15:57:00Z</time>
      </trkpt>
      <trkpt lat="48.49301" lon="3.71983">
        <ele>74.92</ele>
        <time>2014-09-20T15:57:02Z</time>
      </trkpt>
      <trkpt lat="48.49294" lon="3.7198">
        <ele>74.9</ele>
        <time>2014-09-20T15:57:04Z</time>
      </trkpt>
      <trkpt lat="48.49287" lon="3.71977">
        <ele>74.94</ele>
        <time>2014-09-20T15:57:06Z</time>
      </trkpt>
      <trkpt lat="48.4928" lon="3.71974">
        <ele>74.95</ele>
        <time>2014-09-20T15:57:08Z</time>
      </trkpt>
      <trkpt lat="48.49273" lon="3.71971">
        <ele>74.92</ele>
        <time>2014-09-20T15:57:10Z</time>
      </trkpt>
      <trkpt lat="48.49265" lon="3.71967">
        <ele>74.81</ele>
        <time>2014-09-20T15:57:12Z</time>
      </trkpt>
      <trkpt lat="48.49256" lon="3.71963">
        <ele>74.66</ele>
        <time>2014-09-20T15:57:14Z</time>
      </trkpt>
      <trkpt lat="48.49252" lon="3.71961">
        <ele>74.55</ele>
        <time>2014-09-20T15:57:15Z</time>
      </trkpt>
      <trkpt lat="48.49247" lon="3.7196">
        <ele>74.45</ele>
        <time>2014-09-20T15:57:16Z</time>
      </trkpt>
      <trkpt lat="48.49242" lon="3.71958">
        <ele>74.32</ele>
        <time>2014-09-20T15:57:17Z</time>
      </trkpt>
      <trkpt lat="48.49237" lon="3.71956">
        <ele>74.19</ele>
        <time>2014-09-20T15:57:18Z</time>
      </trkpt>
      <trkpt lat="48.49233" lon="3.71954">
        <ele>74.05</ele>
        <time>2014-09-20T15:57:19Z</time>
      </trkpt>
      <trkpt lat="48.49228" lon="3.71952">
        <ele>73.92</ele>
        <time>2014-09-20T15:57:20Z</time>
      </trkpt>
      <trkpt lat="48.49223" lon="3.71949">
        <ele>73.8</ele>
        <time>2014-09-20T15:57:21Z</time>
      </trkpt>
      <trkpt lat="48.49218" lon="3.71947">
        <ele>73.68</ele>
        <time>2014-09-20T15:57:22Z</time>
      </trkpt>
      <trkpt lat="48.49213" lon="3.71945">
        <ele>73.57</ele>
        <time>2014-09-20T15:57:23Z</time>
      </trkpt>
      <trkpt lat="48.49208" lon="3.71943">
        <ele>73.51</ele>
        <time>2014-09-20T15:57:24Z</time>
      </trkpt>
      <trkpt lat="48.49203" lon="3.71941">
        <ele>73.46</ele>
        <time>2014-09-20T15:57:25Z</time>
      </trkpt>
      <trkpt lat="48.49198" lon="3.71939">
        <ele>73.43</ele>
        <time>2014-09-20T15:57:26Z</time>
      </trkpt>
      <trkpt lat="48.49194" lon="3.71937">
        <ele>73.43</ele>
        <time>2014-09-20T15:57:27Z</time>
      </trkpt>
      <trkpt lat="48.49189" lon="3.71935">
        <ele>73.43</ele>
        <time>2014-09-20T15:57:28Z</time>
      </trkpt>
      <trkpt lat="48.49184" lon="3.71933">
        <ele>73.43</ele>
        <time>2014-09-20T15:57:29Z</time>
      </trkpt>
      <trkpt lat="48.4918" lon="3.71931">
        <ele>73.43</ele>
        <time>2014-09-20T15:57:30Z</time>
      </trkpt>
      <trkpt lat="48.49175" lon="3.71929">
        <ele>73.43</ele>
        <time>2014-09-20T15:57:31Z</time>
      </trkpt>
      <trkpt lat="48.49171" lon="3.71927">
        <ele>73.43</ele>
        <time>2014-09-20T15:57:32Z</time>
      </trkpt>
      <trkpt lat="48.49166" lon="3.71925">
        <ele>73.43</ele>
        <time>2014-09-20T15:57:33Z</time>
      </trkpt>
      <trkpt lat="48.49162" lon="3.71924">
        <ele>73.43</ele>
        <time>2014-09-20T15:57:34Z</time>
      </trkpt>
      <trkpt lat="48.49154" lon="3.7192">
        <ele>73.47</ele>
        <time>2014-09-20T15:57:36Z</time>
      </trkpt>
      <trkpt lat="48.49145" lon="3.71917">
        <ele>73.57</ele>
        <time>2014-09-20T15:57:38Z</time>
      </trkpt>
      <trkpt lat="48.49137" lon="3.71913">
        <ele>73.66</ele>
        <time>2014-09-20T15:57:40Z</time>
      </trkpt>
      <trkpt lat="48.49129" lon="3.71909">
        <ele>73.73</ele>
        <time>2014-09-20T15:57:42Z</time>
      </trkpt>
      <trkpt lat="48.49124" lon="3.71907">
        <ele>73.78</ele>
        <time>2014-09-20T15:57:43Z</time>
      </trkpt>
      <trkpt lat="48.4912" lon="3.71905">
        <ele>73.84</ele>
        <time>2014-09-20T15:57:44Z</time>
      </trkpt>
      <trkpt lat="48.49111" lon="3.71902">
        <ele>73.9</ele>
        <time>2014-09-20T15:57:46Z</time>
      </trkpt>
      <trkpt lat="48.49103" lon="3.71898">
        <ele>73.91</ele>
        <time>2014-09-20T15:57:48Z</time>
      </trkpt>
      <trkpt lat="48.49096" lon="3.71894">
        <ele>73.88</ele>
        <time>2014-09-20T15:57:50Z</time>
      </trkpt>
      <trkpt lat="48.49088" lon="3.71893">
        <ele>73.94</ele>
        <time>2014-09-20T15:57:52Z</time>
      </trkpt>
      <trkpt lat="48.49081" lon="3.71898">
        <ele>73.98</ele>
        <time>2014-09-20T15:57:54Z</time>
      </trkpt>
      <trkpt lat="48.49078" lon="3.71909">
        <ele>74.03</ele>
        <time>2014-09-20T15:57:56Z</time>
      </trkpt>
      <trkpt lat="48.49074" lon="3.71921">
        <ele>74.07</ele>
        <time>2014-09-20T15:57:58Z</time>
      </trkpt>
      <trkpt lat="48.49072" lon="3.71933">
        <ele>74.19</ele>
        <time>2014-09-20T15:58:00Z</time>
      </trkpt>
      <trkpt lat="48.4907" lon="3.71946">
        <ele>74.34</ele>
        <time>2014-09-20T15:58:02Z</time>
      </trkpt>
      <trkpt lat="48.49069" lon="3.71953">
        <ele>74.39</ele>
        <time>2014-09-20T15:58:03Z</time>
      </trkpt>
      <trkpt lat="48.49068" lon="3.7196">
        <ele>74.45</ele>
        <time>2014-09-20T15:58:04Z</time>
      </trkpt>
      <trkpt lat="48.49066" lon="3.71967">
        <ele>74.47</ele>
        <time>2014-09-20T15:58:05Z</time>
      </trkpt>
      <trkpt lat="48.49065" lon="3.71974">
        <ele>74.48</ele>
        <time>2014-09-20T15:58:06Z</time>
      </trkpt>
      <trkpt lat="48.49064" lon="3.71981">
        <ele>74.49</ele>
        <time>2014-09-20T15:58:07Z</time>
      </trkpt>
      <trkpt lat="48.49063" lon="3.71988">
        <ele>74.5</ele>
        <time>2014-09-20T15:58:08Z</time>
      </trkpt>
      <trkpt lat="48.49061" lon="3.71996">
        <ele>74.48</ele>
        <time>2014-09-20T15:58:09Z</time>
      </trkpt>
      <trkpt lat="48.4906" lon="3.72004">
        <ele>74.42</ele>
        <time>2014-09-20T15:58:10Z</time>
      </trkpt>
      <trkpt lat="48.49058" lon="3.72012">
        <ele>74.32</ele>
        <time>2014-09-20T15:58:11Z</time>
      </trkpt>
      <trkpt lat="48.49057" lon="3.72022">
        <ele>74.22</ele>
        <time>2014-09-20T15:58:12Z</time>
      </trkpt>
      <trkpt lat="48.49056" lon="3.72031">
        <ele>74.12</ele>
        <time>2014-09-20T15:58:13Z</time>
      </trkpt>
      <trkpt lat="48.49054" lon="3.7204">
        <ele>74.08</ele>
        <time>2014-09-20T15:58:14Z</time>
      </trkpt>
      <trkpt lat="48.49053" lon="3.72049">
        <ele>74.06</ele>
        <time>2014-09-20T15:58:15Z</time>
      </trkpt>
      <trkpt lat="48.49051" lon="3.72058">
        <ele>74.05</ele>
        <time>2014-09-20T15:58:16Z</time>
      </trkpt>
      <trkpt lat="48.49049" lon="3.72067">
        <ele>74.05</ele>
        <time>2014-09-20T15:58:17Z</time>
      </trkpt>
      <trkpt lat="48.49048" lon="3.72076">
        <ele>74.04</ele>
        <time>2014-09-20T15:58:18Z</time>
      </trkpt>
      <trkpt lat="48.49046" lon="3.72085">
        <ele>74.04</ele>
        <time>2014-09-20T15:58:19Z</time>
      </trkpt>
      <trkpt lat="48.49045" lon="3.72094">
        <ele>74.04</ele>
        <time>2014-09-20T15:58:20Z</time>
      </trkpt>
      <trkpt lat="48.49044" lon="3.72103">
        <ele>74.03</ele>
        <time>2014-09-20T15:58:21Z</time>
      </trkpt>
      <trkpt lat="48.49043" lon="3.72111">
        <ele>74.06</ele>
        <time>2014-09-20T15:58:22Z</time>
      </trkpt>
      <trkpt lat="48.49042" lon="3.7212">
        <ele>74.1</ele>
        <time>2014-09-20T15:58:23Z</time>
      </trkpt>
      <trkpt lat="48.49041" lon="3.72129">
        <ele>74.11</ele>
        <time>2014-09-20T15:58:24Z</time>
      </trkpt>
      <trkpt lat="48.49041" lon="3.72138">
        <ele>74.14</ele>
        <time>2014-09-20T15:58:25Z</time>
      </trkpt>
      <trkpt lat="48.4904" lon="3.72147">
        <ele>74.19</ele>
        <time>2014-09-20T15:58:26Z</time>
      </trkpt>
      <trkpt lat="48.4904" lon="3.72155">
        <ele>74.22</ele>
        <time>2014-09-20T15:58:27Z</time>
      </trkpt>
      <trkpt lat="48.49041" lon="3.72164">
        <ele>74.25</ele>
        <time>2014-09-20T15:58:28Z</time>
      </trkpt>
      <trkpt lat="48.49041" lon="3.72173">
        <ele>74.27</ele>
        <time>2014-09-20T15:58:29Z</time>
      </trkpt>
      <trkpt lat="48.49041" lon="3.72181">
        <ele>74.31</ele>
        <time>2014-09-20T15:58:30Z</time>
      </trkpt>
      <trkpt lat="48.49041" lon="3.7219">
        <ele>74.36</ele>
        <time>2014-09-20T15:58:31Z</time>
      </trkpt>
      <trkpt lat="48.49042" lon="3.72199">
        <ele>74.4</ele>
        <time>2014-09-20T15:58:32Z</time>
      </trkpt>
      <trkpt lat="48.49042" lon="3.72208">
        <ele>74.44</ele>
        <time>2014-09-20T15:58:33Z</time>
      </trkpt>
      <trkpt lat="48.49043" lon="3.72216">
        <ele>74.46</ele>
        <time>2014-09-20T15:58:34Z</time>
      </trkpt>
      <trkpt lat="48.49043" lon="3.72225">
        <ele>74.48</ele>
        <time>2014-09-20T15:58:35Z</time>
      </trkpt>
      <trkpt lat="48.49043" lon="3.72234">
        <ele>74.54</ele>
        <time>2014-09-20T15:58:36Z</time>
      </trkpt>
      <trkpt lat="48.49043" lon="3.72243">
        <ele>74.59</ele>
        <time>2014-09-20T15:58:37Z</time>
      </trkpt>
      <trkpt lat="48.49044" lon="3.72251">
        <ele>74.65</ele>
        <time>2014-09-20T15:58:38Z</time>
      </trkpt>
      <trkpt lat="48.49044" lon="3.7226">
        <ele>74.72</ele>
        <time>2014-09-20T15:58:39Z</time>
      </trkpt>
      <trkpt lat="48.49044" lon="3.72268">
        <ele>74.79</ele>
        <time>2014-09-20T15:58:40Z</time>
      </trkpt>
      <trkpt lat="48.49044" lon="3.72277">
        <ele>74.85</ele>
        <time>2014-09-20T15:58:41Z</time>
      </trkpt>
      <trkpt lat="48.49045" lon="3.72285">
        <ele>74.92</ele>
        <time>2014-09-20T15:58:42Z</time>
      </trkpt>
      <trkpt lat="48.49045" lon="3.72293">
        <ele>74.97</ele>
        <time>2014-09-20T15:58:43Z</time>
      </trkpt>
      <trkpt lat="48.49045" lon="3.72301">
        <ele>75.04</ele>
        <time>2014-09-20T15:58:44Z</time>
      </trkpt>
      <trkpt lat="48.49045" lon="3.72309">
        <ele>75.08</ele>
        <time>2014-09-20T15:58:45Z</time>
      </trkpt>
      <trkpt lat="48.49045" lon="3.72317">
        <ele>75.15</ele>
        <time>2014-09-20T15:58:46Z</time>
      </trkpt>
      <trkpt lat="48.49045" lon="3.72325">
        <ele>75.22</ele>
        <time>2014-09-20T15:58:47Z</time>
      </trkpt>
      <trkpt lat="48.49045" lon="3.72333">
        <ele>75.27</ele>
        <time>2014-09-20T15:58:48Z</time>
      </trkpt>
      <trkpt lat="48.49046" lon="3.72341">
        <ele>75.33</ele>
        <time>2014-09-20T15:58:49Z</time>
      </trkpt>
      <trkpt lat="48.49046" lon="3.72349">
        <ele>75.38</ele>
        <time>2014-09-20T15:58:50Z</time>
      </trkpt>
      <trkpt lat="48.49046" lon="3.72357">
        <ele>75.42</ele>
        <time>2014-09-20T15:58:51Z</time>
      </trkpt>
      <trkpt lat="48.49046" lon="3.72365">
        <ele>75.47</ele>
        <time>2014-09-20T15:58:52Z</time>
      </trkpt>
      <trkpt lat="48.49046" lon="3.72373">
        <ele>75.51</ele>
        <time>2014-09-20T15:58:53Z</time>
      </trkpt>
      <trkpt lat="48.49047" lon="3.72381">
        <ele>75.54</ele>
        <time>2014-09-20T15:58:54Z</time>
      </trkpt>
      <trkpt lat="48.49047" lon="3.72389">
        <ele>75.56</ele>
        <time>2014-09-20T15:58:55Z</time>
      </trkpt>
      <trkpt lat="48.49046" lon="3.72397">
        <ele>75.58</ele>
        <time>2014-09-20T15:58:56Z</time>
      </trkpt>
      <trkpt lat="48.49046" lon="3.72406">
        <ele>75.54</ele>
        <time>2014-09-20T15:58:57Z</time>
      </trkpt>
      <trkpt lat="48.49046" lon="3.72415">
        <ele>75.49</ele>
        <time>2014-09-20T15:58:58Z</time>
      </trkpt>
      <trkpt lat="48.49047" lon="3.72423">
        <ele>75.45</ele>
        <time>2014-09-20T15:58:59Z</time>
      </trkpt>
      <trkpt lat="48.49047" lon="3.72432">
        <ele>75.39</ele>
        <time>2014-09-20T15:59:00Z</time>
      </trkpt>
      <trkpt lat="48.49047" lon="3.72441">
        <ele>75.35</ele>
        <time>2014-09-20T15:59:01Z</time>
      </trkpt>
      <trkpt lat="48.49047" lon="3.72449">
        <ele>75.32</ele>
        <time>2014-09-20T15:59:02Z</time>
      </trkpt>
      <trkpt lat="48.49047" lon="3.72458">
        <ele>75.3</ele>
        <time>2014-09-20T15:59:03Z</time>
      </trkpt>
      <trkpt lat="48.49047" lon="3.72467">
        <ele>75.31</ele>
        <time>2014-09-20T15:59:04Z</time>
      </trkpt>
      <trkpt lat="48.49047" lon="3.72475">
        <ele>75.31</ele>
        <time>2014-09-20T15:59:05Z</time>
      </trkpt>
      <trkpt lat="48.49047" lon="3.72484">
        <ele>75.32</ele>
        <time>2014-09-20T15:59:06Z</time>
      </trkpt>
      <trkpt lat="48.49048" lon="3.72492">
        <ele>75.29</ele>
        <time>2014-09-20T15:59:07Z</time>
      </trkpt>
      <trkpt lat="48.49048" lon="3.725">
        <ele>75.3</ele>
        <time>2014-09-20T15:59:08Z</time>
      </trkpt>
      <trkpt lat="48.49048" lon="3.72508">
        <ele>75.33</ele>
        <time>2014-09-20T15:59:09Z</time>
      </trkpt>
      <trkpt lat="48.49048" lon="3.72516">
        <ele>75.36</ele>
        <time>2014-09-20T15:59:10Z</time>
      </trkpt>
      <trkpt lat="48.49048" lon="3.72524">
        <ele>75.4</ele>
        <time>2014-09-20T15:59:11Z</time>
      </trkpt>
      <trkpt lat="48.49048" lon="3.72532">
        <ele>75.43</ele>
        <time>2014-09-20T15:59:12Z</time>
      </trkpt>
      <trkpt lat="48.49049" lon="3.7254">
        <ele>75.48</ele>
        <time>2014-09-20T15:59:13Z</time>
      </trkpt>
      <trkpt lat="48.4905" lon="3.72547">
        <ele>75.54</ele>
        <time>2014-09-20T15:59:14Z</time>
      </trkpt>
      <trkpt lat="48.4905" lon="3.72555">
        <ele>75.61</ele>
        <time>2014-09-20T15:59:15Z</time>
      </trkpt>
      <trkpt lat="48.4905" lon="3.72562">
        <ele>75.67</ele>
        <time>2014-09-20T15:59:16Z</time>
      </trkpt>
      <trkpt lat="48.49051" lon="3.72569">
        <ele>75.73</ele>
        <time>2014-09-20T15:59:17Z</time>
      </trkpt>
      <trkpt lat="48.49051" lon="3.72577">
        <ele>75.78</ele>
        <time>2014-09-20T15:59:18Z</time>
      </trkpt>
      <trkpt lat="48.49051" lon="3.72584">
        <ele>75.82</ele>
        <time>2014-09-20T15:59:19Z</time>
      </trkpt>
      <trkpt lat="48.49052" lon="3.72591">
        <ele>75.87</ele>
        <time>2014-09-20T15:59:20Z</time>
      </trkpt>
      <trkpt lat="48.49052" lon="3.72597">
        <ele>75.93</ele>
        <time>2014-09-20T15:59:21Z</time>
      </trkpt>
      <trkpt lat="48.49054" lon="3.7261">
        <ele>76.09</ele>
        <time>2014-09-20T15:59:23Z</time>
      </trkpt>
      <trkpt lat="48.49054" lon="3.72623">
        <ele>76.26</ele>
        <time>2014-09-20T15:59:25Z</time>
      </trkpt>
      <trkpt lat="48.49054" lon="3.72635">
        <ele>76.45</ele>
        <time>2014-09-20T15:59:27Z</time>
      </trkpt>
      <trkpt lat="48.49056" lon="3.72646">
        <ele>76.64</ele>
        <time>2014-09-20T15:59:29Z</time>
      </trkpt>
      <trkpt lat="48.49057" lon="3.72657">
        <ele>76.86</ele>
        <time>2014-09-20T15:59:31Z</time>
      </trkpt>
      <trkpt lat="48.49058" lon="3.72669">
        <ele>77.09</ele>
        <time>2014-09-20T15:59:33Z</time>
      </trkpt>
      <trkpt lat="48.49059" lon="3.72682">
        <ele>77.32</ele>
        <time>2014-09-20T15:59:35Z</time>
      </trkpt>
      <trkpt lat="48.4906" lon="3.72693">
        <ele>77.53</ele>
        <time>2014-09-20T15:59:37Z</time>
      </trkpt>
      <trkpt lat="48.4906" lon="3.72704">
        <ele>77.73</ele>
        <time>2014-09-20T15:59:39Z</time>
      </trkpt>
      <trkpt lat="48.4906" lon="3.72716">
        <ele>77.79</ele>
        <time>2014-09-20T15:59:41Z</time>
      </trkpt>
      <trkpt lat="48.4906" lon="3.72729">
        <ele>77.69</ele>
        <time>2014-09-20T15:59:43Z</time>
      </trkpt>
      <trkpt lat="48.4906" lon="3.72736">
        <ele>77.65</ele>
        <time>2014-09-20T15:59:44Z</time>
      </trkpt>
      <trkpt lat="48.4906" lon="3.72743">
        <ele>77.6</ele>
        <time>2014-09-20T15:59:45Z</time>
      </trkpt>
      <trkpt lat="48.49059" lon="3.7275">
        <ele>77.53</ele>
        <time>2014-09-20T15:59:46Z</time>
      </trkpt>
      <trkpt lat="48.49059" lon="3.72758">
        <ele>77.45</ele>
        <time>2014-09-20T15:59:47Z</time>
      </trkpt>
      <trkpt lat="48.49059" lon="3.72765">
        <ele>77.4</ele>
        <time>2014-09-20T15:59:48Z</time>
      </trkpt>
      <trkpt lat="48.49059" lon="3.72773">
        <ele>77.31</ele>
        <time>2014-09-20T15:59:49Z</time>
      </trkpt>
      <trkpt lat="48.49059" lon="3.72781">
        <ele>77.21</ele>
        <time>2014-09-20T15:59:50Z</time>
      </trkpt>
      <trkpt lat="48.49059" lon="3.72789">
        <ele>77.12</ele>
        <time>2014-09-20T15:59:51Z</time>
      </trkpt>
      <trkpt lat="48.49059" lon="3.72797">
        <ele>77.02</ele>
        <time>2014-09-20T15:59:52Z</time>
      </trkpt>
      <trkpt lat="48.49059" lon="3.72806">
        <ele>76.92</ele>
        <time>2014-09-20T15:59:53Z</time>
      </trkpt>
      <trkpt lat="48.49059" lon="3.72814">
        <ele>76.85</ele>
        <time>2014-09-20T15:59:54Z</time>
      </trkpt>
      <trkpt lat="48.49059" lon="3.72822">
        <ele>76.79</ele>
        <time>2014-09-20T15:59:55Z</time>
      </trkpt>
      <trkpt lat="48.49059" lon="3.7283">
        <ele>76.75</ele>
        <time>2014-09-20T15:59:56Z</time>
      </trkpt>
      <trkpt lat="48.49059" lon="3.72837">
        <ele>76.72</ele>
        <time>2014-09-20T15:59:57Z</time>
      </trkpt>
      <trkpt lat="48.4906" lon="3.72845">
        <ele>76.7</ele>
        <time>2014-09-20T15:59:58Z</time>
      </trkpt>
      <trkpt lat="48.4906" lon="3.72852">
        <ele>76.68</ele>
        <time>2014-09-20T15:59:59Z</time>
      </trkpt>
      <trkpt lat="48.4906" lon="3.72859">
        <ele>76.62</ele>
        <time>2014-09-20T16:00:00Z</time>
      </trkpt>
      <trkpt lat="48.4906" lon="3.72866">
        <ele>76.54</ele>
        <time>2014-09-20T16:00:01Z</time>
      </trkpt>
      <trkpt lat="48.4906" lon="3.72873">
        <ele>76.47</ele>
        <time>2014-09-20T16:00:02Z</time>
      </trkpt>
      <trkpt lat="48.4906" lon="3.7288">
        <ele>76.41</ele>
        <time>2014-09-20T16:00:03Z</time>
      </trkpt>
      <trkpt lat="48.4906" lon="3.72887">
        <ele>76.34</ele>
        <time>2014-09-20T16:00:04Z</time>
      </trkpt>
      <trkpt lat="48.49058" lon="3.72893">
        <ele>76.21</ele>
        <time>2014-09-20T16:00:05Z</time>
      </trkpt>
      <trkpt lat="48.49056" lon="3.72899">
        <ele>76.11</ele>
        <time>2014-09-20T16:00:06Z</time>
      </trkpt>
      <trkpt lat="48.49052" lon="3.72903">
        <ele>75.94</ele>
        <time>2014-09-20T16:00:07Z</time>
      </trkpt>
      <trkpt lat="48.49048" lon="3.72905">
        <ele>75.74</ele>
        <time>2014-09-20T16:00:08Z</time>
      </trkpt>
      <trkpt lat="48.49042" lon="3.72915">
        <ele>75.43</ele>
        <time>2014-09-20T16:00:10Z</time>
      </trkpt>
      <trkpt lat="48.49041" lon="3.72928">
        <ele>75.28</ele>
        <time>2014-09-20T16:00:12Z</time>
      </trkpt>
      <trkpt lat="48.4904" lon="3.72941">
        <ele>75.24</ele>
        <time>2014-09-20T16:00:14Z</time>
      </trkpt>
      <trkpt lat="48.49038" lon="3.72954">
        <ele>75.25</ele>
        <time>2014-09-20T16:00:16Z</time>
      </trkpt>
      <trkpt lat="48.49038" lon="3.72961">
        <ele>75.25</ele>
        <time>2014-09-20T16:00:17Z</time>
      </trkpt>
      <trkpt lat="48.49037" lon="3.72968">
        <ele>75.22</ele>
        <time>2014-09-20T16:00:18Z</time>
      </trkpt>
      <trkpt lat="48.49036" lon="3.72975">
        <ele>75.22</ele>
        <time>2014-09-20T16:00:19Z</time>
      </trkpt>
      <trkpt lat="48.49036" lon="3.72983">
        <ele>75.25</ele>
        <time>2014-09-20T16:00:20Z</time>
      </trkpt>
      <trkpt lat="48.49035" lon="3.7299">
        <ele>75.22</ele>
        <time>2014-09-20T16:00:21Z</time>
      </trkpt>
      <trkpt lat="48.49035" lon="3.72998">
        <ele>75.19</ele>
        <time>2014-09-20T16:00:22Z</time>
      </trkpt>
      <trkpt lat="48.49034" lon="3.73005">
        <ele>75.18</ele>
        <time>2014-09-20T16:00:23Z</time>
      </trkpt>
      <trkpt lat="48.49034" lon="3.73013">
        <ele>75.14</ele>
        <time>2014-09-20T16:00:24Z</time>
      </trkpt>
      <trkpt lat="48.49034" lon="3.7302">
        <ele>75.09</ele>
        <time>2014-09-20T16:00:25Z</time>
      </trkpt>
      <trkpt lat="48.49033" lon="3.73028">
        <ele>75.02</ele>
        <time>2014-09-20T16:00:26Z</time>
      </trkpt>
      <trkpt lat="48.49033" lon="3.73035">
        <ele>74.97</ele>
        <time>2014-09-20T16:00:27Z</time>
      </trkpt>
      <trkpt lat="48.49034" lon="3.73042">
        <ele>74.94</ele>
        <time>2014-09-20T16:00:28Z</time>
      </trkpt>
      <trkpt lat="48.49037" lon="3.73048">
        <ele>74.89</ele>
        <time>2014-09-20T16:00:29Z</time>
      </trkpt>
      <trkpt lat="48.49046" lon="3.73052">
        <ele>74.91</ele>
        <time>2014-09-20T16:00:31Z</time>
      </trkpt>
      <trkpt lat="48.4905" lon="3.73053">
        <ele>74.96</ele>
        <time>2014-09-20T16:00:32Z</time>
      </trkpt>
      <trkpt lat="48.49055" lon="3.73054">
        <ele>75.01</ele>
        <time>2014-09-20T16:00:33Z</time>
      </trkpt>
      <trkpt lat="48.4906" lon="3.73055">
        <ele>75.04</ele>
        <time>2014-09-20T16:00:34Z</time>
      </trkpt>
      <trkpt lat="48.49065" lon="3.73055">
        <ele>75.08</ele>
        <time>2014-09-20T16:00:35Z</time>
      </trkpt>
      <trkpt lat="48.4907" lon="3.73056">
        <ele>75.12</ele>
        <time>2014-09-20T16:00:36Z</time>
      </trkpt>
      <trkpt lat="48.49075" lon="3.73056">
        <ele>75.15</ele>
        <time>2014-09-20T16:00:37Z</time>
      </trkpt>
      <trkpt lat="48.4908" lon="3.73056">
        <ele>75.17</ele>
        <time>2014-09-20T16:00:38Z</time>
      </trkpt>
      <trkpt lat="48.49086" lon="3.73056">
        <ele>75.16</ele>
        <time>2014-09-20T16:00:39Z</time>
      </trkpt>
      <trkpt lat="48.49091" lon="3.73058">
        <ele>75.2</ele>
        <time>2014-09-20T16:00:40Z</time>
      </trkpt>
      <trkpt lat="48.49096" lon="3.73059">
        <ele>75.23</ele>
        <time>2014-09-20T16:00:41Z</time>
      </trkpt>
      <trkpt lat="48.49101" lon="3.73061">
        <ele>75.26</ele>
        <time>2014-09-20T16:00:42Z</time>
      </trkpt>
      <trkpt lat="48.49106" lon="3.73065">
        <ele>75.27</ele>
        <time>2014-09-20T16:00:43Z</time>
      </trkpt>
      <trkpt lat="48.4911" lon="3.7307">
        <ele>75.24</ele>
        <time>2014-09-20T16:00:44Z</time>
      </trkpt>
      <trkpt lat="48.49113" lon="3.73076">
        <ele>75.29</ele>
        <time>2014-09-20T16:00:45Z</time>
      </trkpt>
      <trkpt lat="48.49115" lon="3.73082">
        <ele>75.35</ele>
        <time>2014-09-20T16:00:46Z</time>
      </trkpt>
      <trkpt lat="48.49117" lon="3.73089">
        <ele>75.39</ele>
        <time>2014-09-20T16:00:47Z</time>
      </trkpt>
      <trkpt lat="48.49119" lon="3.73096">
        <ele>75.45</ele>
        <time>2014-09-20T16:00:48Z</time>
      </trkpt>
      <trkpt lat="48.4912" lon="3.73103">
        <ele>75.52</ele>
        <time>2014-09-20T16:00:49Z</time>
      </trkpt>
      <trkpt lat="48.49121" lon="3.7311">
        <ele>75.62</ele>
        <time>2014-09-20T16:00:50Z</time>
      </trkpt>
      <trkpt lat="48.49123" lon="3.73117">
        <ele>75.72</ele>
        <time>2014-09-20T16:00:51Z</time>
      </trkpt>
      <trkpt lat="48.49124" lon="3.73124">
        <ele>75.82</ele>
        <time>2014-09-20T16:00:52Z</time>
      </trkpt>
      <trkpt lat="48.49125" lon="3.73131">
        <ele>75.93</ele>
        <time>2014-09-20T16:00:53Z</time>
      </trkpt>
      <trkpt lat="48.49126" lon="3.73138">
        <ele>76</ele>
        <time>2014-09-20T16:00:54Z</time>
      </trkpt>
      <trkpt lat="48.49127" lon="3.73145">
        <ele>76.08</ele>
        <time>2014-09-20T16:00:55Z</time>
      </trkpt>
      <trkpt lat="48.49127" lon="3.73152">
        <ele>76.14</ele>
        <time>2014-09-20T16:00:56Z</time>
      </trkpt>
      <trkpt lat="48.49128" lon="3.73159">
        <ele>76.19</ele>
        <time>2014-09-20T16:00:57Z</time>
      </trkpt>
      <trkpt lat="48.49128" lon="3.73172">
        <ele>76.21</ele>
        <time>2014-09-20T16:00:59Z</time>
      </trkpt>
      <trkpt lat="48.49129" lon="3.73185">
        <ele>76.28</ele>
        <time>2014-09-20T16:01:01Z</time>
      </trkpt>
      <trkpt lat="48.4913" lon="3.73196">
        <ele>76.39</ele>
        <time>2014-09-20T16:01:03Z</time>
      </trkpt>
      <trkpt lat="48.4913" lon="3.73208">
        <ele>76.45</ele>
        <time>2014-09-20T16:01:05Z</time>
      </trkpt>
      <trkpt lat="48.4913" lon="3.73218">
        <ele>76.42</ele>
        <time>2014-09-20T16:01:07Z</time>
      </trkpt>
      <trkpt lat="48.49131" lon="3.73227">
        <ele>76.4</ele>
        <time>2014-09-20T16:01:09Z</time>
      </trkpt>
      <trkpt lat="48.49135" lon="3.73232">
        <ele>76.21</ele>
        <time>2014-09-20T16:01:11Z</time>
      </trkpt>
      <trkpt lat="48.49141" lon="3.73234">
        <ele>75.88</ele>
        <time>2014-09-20T16:01:13Z</time>
      </trkpt>
      <trkpt lat="48.49148" lon="3.73237">
        <ele>75.59</ele>
        <time>2014-09-20T16:01:15Z</time>
      </trkpt>
      <trkpt lat="48.49157" lon="3.73241">
        <ele>75.39</ele>
        <time>2014-09-20T16:01:17Z</time>
      </trkpt>
      <trkpt lat="48.49161" lon="3.73242">
        <ele>75.3</ele>
        <time>2014-09-20T16:01:18Z</time>
      </trkpt>
      <trkpt lat="48.49166" lon="3.73243">
        <ele>75.21</ele>
        <time>2014-09-20T16:01:19Z</time>
      </trkpt>
      <trkpt lat="48.49172" lon="3.73244">
        <ele>75.11</ele>
        <time>2014-09-20T16:01:20Z</time>
      </trkpt>
      <trkpt lat="48.49177" lon="3.73244">
        <ele>75.02</ele>
        <time>2014-09-20T16:01:21Z</time>
      </trkpt>
      <trkpt lat="48.49183" lon="3.73245">
        <ele>74.94</ele>
        <time>2014-09-20T16:01:22Z</time>
      </trkpt>
      <trkpt lat="48.49188" lon="3.73245">
        <ele>74.87</ele>
        <time>2014-09-20T16:01:23Z</time>
      </trkpt>
      <trkpt lat="48.49194" lon="3.73246">
        <ele>74.78</ele>
        <time>2014-09-20T16:01:24Z</time>
      </trkpt>
      <trkpt lat="48.49199" lon="3.73246">
        <ele>74.72</ele>
        <time>2014-09-20T16:01:25Z</time>
      </trkpt>
      <trkpt lat="48.49204" lon="3.73247">
        <ele>74.67</ele>
        <time>2014-09-20T16:01:26Z</time>
      </trkpt>
      <trkpt lat="48.4921" lon="3.73247">
        <ele>74.63</ele>
        <time>2014-09-20T16:01:27Z</time>
      </trkpt>
      <trkpt lat="48.49215" lon="3.73248">
        <ele>74.63</ele>
        <time>2014-09-20T16:01:28Z</time>
      </trkpt>
      <trkpt lat="48.4922" lon="3.73248">
        <ele>74.66</ele>
        <time>2014-09-20T16:01:29Z</time>
      </trkpt>
      <trkpt lat="48.49226" lon="3.73249">
        <ele>74.67</ele>
        <time>2014-09-20T16:01:30Z</time>
      </trkpt>
      <trkpt lat="48.49231" lon="3.73249">
        <ele>74.66</ele>
        <time>2014-09-20T16:01:31Z</time>
      </trkpt>
      <trkpt lat="48.49236" lon="3.7325">
        <ele>74.68</ele>
        <time>2014-09-20T16:01:32Z</time>
      </trkpt>
      <trkpt lat="48.49241" lon="3.73251">
        <ele>74.69</ele>
        <time>2014-09-20T16:01:33Z</time>
      </trkpt>
      <trkpt lat="48.49246" lon="3.73251">
        <ele>74.7</ele>
        <time>2014-09-20T16:01:34Z</time>
      </trkpt>
      <trkpt lat="48.49251" lon="3.73251">
        <ele>74.68</ele>
        <time>2014-09-20T16:01:35Z</time>
      </trkpt>
      <trkpt lat="48.49256" lon="3.73251">
        <ele>74.69</ele>
        <time>2014-09-20T16:01:36Z</time>
      </trkpt>
      <trkpt lat="48.49262" lon="3.73251">
        <ele>74.7</ele>
        <time>2014-09-20T16:01:37Z</time>
      </trkpt>
      <trkpt lat="48.49267" lon="3.73251">
        <ele>74.73</ele>
        <time>2014-09-20T16:01:38Z</time>
      </trkpt>
      <trkpt lat="48.49272" lon="3.7325">
        <ele>74.76</ele>
        <time>2014-09-20T16:01:39Z</time>
      </trkpt>
      <trkpt lat="48.49277" lon="3.7325">
        <ele>74.77</ele>
        <time>2014-09-20T16:01:40Z</time>
      </trkpt>
      <trkpt lat="48.49282" lon="3.73249">
        <ele>74.79</ele>
        <time>2014-09-20T16:01:41Z</time>
      </trkpt>
      <trkpt lat="48.49287" lon="3.73247">
        <ele>74.82</ele>
        <time>2014-09-20T16:01:42Z</time>
      </trkpt>
      <trkpt lat="48.49292" lon="3.73246">
        <ele>74.82</ele>
        <time>2014-09-20T16:01:43Z</time>
      </trkpt>
      <trkpt lat="48.49297" lon="3.73245">
        <ele>74.83</ele>
        <time>2014-09-20T16:01:44Z</time>
      </trkpt>
      <trkpt lat="48.49301" lon="3.73243">
        <ele>74.83</ele>
        <time>2014-09-20T16:01:45Z</time>
      </trkpt>
      <trkpt lat="48.49306" lon="3.73242">
        <ele>74.8</ele>
        <time>2014-09-20T16:01:46Z</time>
      </trkpt>
      <trkpt lat="48.4931" lon="3.7324">
        <ele>74.78</ele>
        <time>2014-09-20T16:01:47Z</time>
      </trkpt>
      <trkpt lat="48.49315" lon="3.73239">
        <ele>74.77</ele>
        <time>2014-09-20T16:01:48Z</time>
      </trkpt>
      <trkpt lat="48.4932" lon="3.73237">
        <ele>74.73</ele>
        <time>2014-09-20T16:01:49Z</time>
      </trkpt>
      <trkpt lat="48.49324" lon="3.73235">
        <ele>74.73</ele>
        <time>2014-09-20T16:01:50Z</time>
      </trkpt>
      <trkpt lat="48.49328" lon="3.73234">
        <ele>74.76</ele>
        <time>2014-09-20T16:01:51Z</time>
      </trkpt>
      <trkpt lat="48.49333" lon="3.73232">
        <ele>74.77</ele>
        <time>2014-09-20T16:01:52Z</time>
      </trkpt>
      <trkpt lat="48.49337" lon="3.73231">
        <ele>74.79</ele>
        <time>2014-09-20T16:01:53Z</time>
      </trkpt>
      <trkpt lat="48.49342" lon="3.7323">
        <ele>74.82</ele>
        <time>2014-09-20T16:01:54Z</time>
      </trkpt>
      <trkpt lat="48.49346" lon="3.73228">
        <ele>74.87</ele>
        <time>2014-09-20T16:01:55Z</time>
      </trkpt>
      <trkpt lat="48.49351" lon="3.73226">
        <ele>74.91</ele>
        <time>2014-09-20T16:01:56Z</time>
      </trkpt>
      <trkpt lat="48.49355" lon="3.73225">
        <ele>74.94</ele>
        <time>2014-09-20T16:01:57Z</time>
      </trkpt>
      <trkpt lat="48.49359" lon="3.73223">
        <ele>74.99</ele>
        <time>2014-09-20T16:01:58Z</time>
      </trkpt>
      <trkpt lat="48.49364" lon="3.73222">
        <ele>75.05</ele>
        <time>2014-09-20T16:01:59Z</time>
      </trkpt>
      <trkpt lat="48.49372" lon="3.73219">
        <ele>75.26</ele>
        <time>2014-09-20T16:02:01Z</time>
      </trkpt>
      <trkpt lat="48.49381" lon="3.73216">
        <ele>75.47</ele>
        <time>2014-09-20T16:02:03Z</time>
      </trkpt>
      <trkpt lat="48.49386" lon="3.73214">
        <ele>75.53</ele>
        <time>2014-09-20T16:02:04Z</time>
      </trkpt>
      <trkpt lat="48.4939" lon="3.73213">
        <ele>75.58</ele>
        <time>2014-09-20T16:02:05Z</time>
      </trkpt>
      <trkpt lat="48.49394" lon="3.73211">
        <ele>75.64</ele>
        <time>2014-09-20T16:02:06Z</time>
      </trkpt>
      <trkpt lat="48.49403" lon="3.73208">
        <ele>75.77</ele>
        <time>2014-09-20T16:02:08Z</time>
      </trkpt>
      <trkpt lat="48.49412" lon="3.73205">
        <ele>75.81</ele>
        <time>2014-09-20T16:02:10Z</time>
      </trkpt>
      <trkpt lat="48.4942" lon="3.73202">
        <ele>75.86</ele>
        <time>2014-09-20T16:02:12Z</time>
      </trkpt>
      <trkpt lat="48.49429" lon="3.73198">
        <ele>75.92</ele>
        <time>2014-09-20T16:02:14Z</time>
      </trkpt>
      <trkpt lat="48.49437" lon="3.73195">
        <ele>76.03</ele>
        <time>2014-09-20T16:02:16Z</time>
      </trkpt>
      <trkpt lat="48.49446" lon="3.73192">
        <ele>76.05</ele>
        <time>2014-09-20T16:02:18Z</time>
      </trkpt>
      <trkpt lat="48.4945" lon="3.7319">
        <ele>76.09</ele>
        <time>2014-09-20T16:02:19Z</time>
      </trkpt>
      <trkpt lat="48.49454" lon="3.73188">
        <ele>76.13</ele>
        <time>2014-09-20T16:02:20Z</time>
      </trkpt>
      <trkpt lat="48.49459" lon="3.73186">
        <ele>76.13</ele>
        <time>2014-09-20T16:02:21Z</time>
      </trkpt>
      <trkpt lat="48.49463" lon="3.73184">
        <ele>76.13</ele>
        <time>2014-09-20T16:02:22Z</time>
      </trkpt>
      <trkpt lat="48.49468" lon="3.73183">
        <ele>76.13</ele>
        <time>2014-09-20T16:02:23Z</time>
      </trkpt>
      <trkpt lat="48.49473" lon="3.73181">
        <ele>76.15</ele>
        <time>2014-09-20T16:02:24Z</time>
      </trkpt>
      <trkpt lat="48.49477" lon="3.73179">
        <ele>76.15</ele>
        <time>2014-09-20T16:02:25Z</time>
      </trkpt>
      <trkpt lat="48.49482" lon="3.73177">
        <ele>76.14</ele>
        <time>2014-09-20T16:02:26Z</time>
      </trkpt>
      <trkpt lat="48.49486" lon="3.73175">
        <ele>76.11</ele>
        <time>2014-09-20T16:02:27Z</time>
      </trkpt>
      <trkpt lat="48.49491" lon="3.73173">
        <ele>76.07</ele>
        <time>2014-09-20T16:02:28Z</time>
      </trkpt>
      <trkpt lat="48.49496" lon="3.73171">
        <ele>76.03</ele>
        <time>2014-09-20T16:02:29Z</time>
      </trkpt>
      <trkpt lat="48.495" lon="3.7317">
        <ele>75.98</ele>
        <time>2014-09-20T16:02:30Z</time>
      </trkpt>
      <trkpt lat="48.49505" lon="3.73168">
        <ele>75.92</ele>
        <time>2014-09-20T16:02:31Z</time>
      </trkpt>
      <trkpt lat="48.4951" lon="3.73166">
        <ele>75.87</ele>
        <time>2014-09-20T16:02:32Z</time>
      </trkpt>
      <trkpt lat="48.49515" lon="3.73164">
        <ele>75.81</ele>
        <time>2014-09-20T16:02:33Z</time>
      </trkpt>
      <trkpt lat="48.49519" lon="3.73162">
        <ele>75.76</ele>
        <time>2014-09-20T16:02:34Z</time>
      </trkpt>
      <trkpt lat="48.49524" lon="3.7316">
        <ele>75.71</ele>
        <time>2014-09-20T16:02:35Z</time>
      </trkpt>
      <trkpt lat="48.49529" lon="3.73158">
        <ele>75.64</ele>
        <time>2014-09-20T16:02:36Z</time>
      </trkpt>
      <trkpt lat="48.49534" lon="3.73157">
        <ele>75.61</ele>
        <time>2014-09-20T16:02:37Z</time>
      </trkpt>
      <trkpt lat="48.49539" lon="3.73155">
        <ele>75.59</ele>
        <time>2014-09-20T16:02:38Z</time>
      </trkpt>
      <trkpt lat="48.49543" lon="3.73152">
        <ele>75.57</ele>
        <time>2014-09-20T16:02:39Z</time>
      </trkpt>
      <trkpt lat="48.49548" lon="3.73151">
        <ele>75.56</ele>
        <time>2014-09-20T16:02:40Z</time>
      </trkpt>
      <trkpt lat="48.49553" lon="3.73149">
        <ele>75.58</ele>
        <time>2014-09-20T16:02:41Z</time>
      </trkpt>
      <trkpt lat="48.49558" lon="3.73147">
        <ele>75.59</ele>
        <time>2014-09-20T16:02:42Z</time>
      </trkpt>
      <trkpt lat="48.49563" lon="3.73145">
        <ele>75.58</ele>
        <time>2014-09-20T16:02:43Z</time>
      </trkpt>
      <trkpt lat="48.49567" lon="3.73142">
        <ele>75.56</ele>
        <time>2014-09-20T16:02:44Z</time>
      </trkpt>
      <trkpt lat="48.49572" lon="3.7314">
        <ele>75.55</ele>
        <time>2014-09-20T16:02:45Z</time>
      </trkpt>
      <trkpt lat="48.49577" lon="3.73138">
        <ele>75.55</ele>
        <time>2014-09-20T16:02:46Z</time>
      </trkpt>
      <trkpt lat="48.49582" lon="3.73135">
        <ele>75.54</ele>
        <time>2014-09-20T16:02:47Z</time>
      </trkpt>
      <trkpt lat="48.49587" lon="3.73133">
        <ele>75.54</ele>
        <time>2014-09-20T16:02:48Z</time>
      </trkpt>
      <trkpt lat="48.49591" lon="3.7313">
        <ele>75.54</ele>
        <time>2014-09-20T16:02:49Z</time>
      </trkpt>
      <trkpt lat="48.49596" lon="3.73128">
        <ele>75.53</ele>
        <time>2014-09-20T16:02:50Z</time>
      </trkpt>
      <trkpt lat="48.49601" lon="3.73125">
        <ele>75.53</ele>
        <time>2014-09-20T16:02:51Z</time>
      </trkpt>
      <trkpt lat="48.49606" lon="3.73123">
        <ele>75.53</ele>
        <time>2014-09-20T16:02:52Z</time>
      </trkpt>
      <trkpt lat="48.49611" lon="3.7312">
        <ele>75.56</ele>
        <time>2014-09-20T16:02:53Z</time>
      </trkpt>
      <trkpt lat="48.49615" lon="3.73117">
        <ele>75.57</ele>
        <time>2014-09-20T16:02:54Z</time>
      </trkpt>
      <trkpt lat="48.4962" lon="3.73114">
        <ele>75.61</ele>
        <time>2014-09-20T16:02:55Z</time>
      </trkpt>
      <trkpt lat="48.49625" lon="3.73111">
        <ele>75.64</ele>
        <time>2014-09-20T16:02:56Z</time>
      </trkpt>
      <trkpt lat="48.49629" lon="3.73108">
        <ele>75.69</ele>
        <time>2014-09-20T16:02:57Z</time>
      </trkpt>
      <trkpt lat="48.49634" lon="3.73105">
        <ele>75.77</ele>
        <time>2014-09-20T16:02:58Z</time>
      </trkpt>
      <trkpt lat="48.49638" lon="3.73103">
        <ele>75.86</ele>
        <time>2014-09-20T16:02:59Z</time>
      </trkpt>
      <trkpt lat="48.49643" lon="3.731">
        <ele>75.93</ele>
        <time>2014-09-20T16:03:00Z</time>
      </trkpt>
      <trkpt lat="48.49647" lon="3.73097">
        <ele>76</ele>
        <time>2014-09-20T16:03:01Z</time>
      </trkpt>
      <trkpt lat="48.49652" lon="3.73095">
        <ele>76.08</ele>
        <time>2014-09-20T16:03:02Z</time>
      </trkpt>
      <trkpt lat="48.49656" lon="3.73092">
        <ele>76.17</ele>
        <time>2014-09-20T16:03:03Z</time>
      </trkpt>
      <trkpt lat="48.4966" lon="3.73089">
        <ele>76.23</ele>
        <time>2014-09-20T16:03:04Z</time>
      </trkpt>
      <trkpt lat="48.49665" lon="3.73086">
        <ele>76.31</ele>
        <time>2014-09-20T16:03:05Z</time>
      </trkpt>
      <trkpt lat="48.49669" lon="3.73084">
        <ele>76.36</ele>
        <time>2014-09-20T16:03:06Z</time>
      </trkpt>
      <trkpt lat="48.49673" lon="3.73081">
        <ele>76.4</ele>
        <time>2014-09-20T16:03:07Z</time>
      </trkpt>
      <trkpt lat="48.49677" lon="3.73079">
        <ele>76.44</ele>
        <time>2014-09-20T16:03:08Z</time>
      </trkpt>
      <trkpt lat="48.49682" lon="3.73077">
        <ele>76.46</ele>
        <time>2014-09-20T16:03:09Z</time>
      </trkpt>
      <trkpt lat="48.49686" lon="3.73074">
        <ele>76.5</ele>
        <time>2014-09-20T16:03:10Z</time>
      </trkpt>
      <trkpt lat="48.49691" lon="3.73072">
        <ele>76.53</ele>
        <time>2014-09-20T16:03:11Z</time>
      </trkpt>
      <trkpt lat="48.49695" lon="3.73069">
        <ele>76.58</ele>
        <time>2014-09-20T16:03:12Z</time>
      </trkpt>
      <trkpt lat="48.49699" lon="3.73066">
        <ele>76.64</ele>
        <time>2014-09-20T16:03:13Z</time>
      </trkpt>
      <trkpt lat="48.49704" lon="3.73063">
        <ele>76.69</ele>
        <time>2014-09-20T16:03:14Z</time>
      </trkpt>
      <trkpt lat="48.49708" lon="3.73061">
        <ele>76.75</ele>
        <time>2014-09-20T16:03:15Z</time>
      </trkpt>
      <trkpt lat="48.49712" lon="3.73058">
        <ele>76.79</ele>
        <time>2014-09-20T16:03:16Z</time>
      </trkpt>
      <trkpt lat="48.49717" lon="3.73056">
        <ele>76.83</ele>
        <time>2014-09-20T16:03:17Z</time>
      </trkpt>
      <trkpt lat="48.49721" lon="3.73053">
        <ele>76.88</ele>
        <time>2014-09-20T16:03:18Z</time>
      </trkpt>
      <trkpt lat="48.49725" lon="3.73051">
        <ele>76.94</ele>
        <time>2014-09-20T16:03:19Z</time>
      </trkpt>
      <trkpt lat="48.49729" lon="3.73048">
        <ele>76.99</ele>
        <time>2014-09-20T16:03:20Z</time>
      </trkpt>
      <trkpt lat="48.49737" lon="3.73043">
        <ele>77.14</ele>
        <time>2014-09-20T16:03:22Z</time>
      </trkpt>
      <trkpt lat="48.49745" lon="3.73038">
        <ele>77.34</ele>
        <time>2014-09-20T16:03:24Z</time>
      </trkpt>
      <trkpt lat="48.49753" lon="3.73032">
        <ele>77.51</ele>
        <time>2014-09-20T16:03:26Z</time>
      </trkpt>
      <trkpt lat="48.49761" lon="3.73026">
        <ele>77.63</ele>
        <time>2014-09-20T16:03:28Z</time>
      </trkpt>
      <trkpt lat="48.4977" lon="3.73021">
        <ele>77.72</ele>
        <time>2014-09-20T16:03:30Z</time>
      </trkpt>
      <trkpt lat="48.49774" lon="3.73019">
        <ele>77.74</ele>
        <time>2014-09-20T16:03:31Z</time>
      </trkpt>
      <trkpt lat="48.49778" lon="3.73016">
        <ele>77.77</ele>
        <time>2014-09-20T16:03:32Z</time>
      </trkpt>
      <trkpt lat="48.49782" lon="3.73013">
        <ele>77.78</ele>
        <time>2014-09-20T16:03:33Z</time>
      </trkpt>
      <trkpt lat="48.4979" lon="3.73008">
        <ele>77.83</ele>
        <time>2014-09-20T16:03:35Z</time>
      </trkpt>
      <trkpt lat="48.49798" lon="3.73002">
        <ele>77.87</ele>
        <time>2014-09-20T16:03:37Z</time>
      </trkpt>
      <trkpt lat="48.49806" lon="3.72995">
        <ele>77.92</ele>
        <time>2014-09-20T16:03:39Z</time>
      </trkpt>
      <trkpt lat="48.4981" lon="3.72992">
        <ele>77.97</ele>
        <time>2014-09-20T16:03:40Z</time>
      </trkpt>
      <trkpt lat="48.49814" lon="3.72988">
        <ele>78.04</ele>
        <time>2014-09-20T16:03:41Z</time>
      </trkpt>
      <trkpt lat="48.49818" lon="3.72984">
        <ele>78.08</ele>
        <time>2014-09-20T16:03:42Z</time>
      </trkpt>
      <trkpt lat="48.49822" lon="3.72981">
        <ele>78.12</ele>
        <time>2014-09-20T16:03:43Z</time>
      </trkpt>
      <trkpt lat="48.49826" lon="3.72977">
        <ele>78.12</ele>
        <time>2014-09-20T16:03:44Z</time>
      </trkpt>
      <trkpt lat="48.4983" lon="3.72974">
        <ele>78.15</ele>
        <time>2014-09-20T16:03:45Z</time>
      </trkpt>
      <trkpt lat="48.49834" lon="3.7297">
        <ele>78.17</ele>
        <time>2014-09-20T16:03:46Z</time>
      </trkpt>
      <trkpt lat="48.49838" lon="3.72966">
        <ele>78.18</ele>
        <time>2014-09-20T16:03:47Z</time>
      </trkpt>
      <trkpt lat="48.49841" lon="3.72962">
        <ele>78.19</ele>
        <time>2014-09-20T16:03:48Z</time>
      </trkpt>
      <trkpt lat="48.49846" lon="3.72959">
        <ele>78.18</ele>
        <time>2014-09-20T16:03:49Z</time>
      </trkpt>
      <trkpt lat="48.4985" lon="3.72956">
        <ele>78.19</ele>
        <time>2014-09-20T16:03:50Z</time>
      </trkpt>
      <trkpt lat="48.49854" lon="3.72953">
        <ele>78.2</ele>
        <time>2014-09-20T16:03:51Z</time>
      </trkpt>
      <trkpt lat="48.49858" lon="3.7295">
        <ele>78.21</ele>
        <time>2014-09-20T16:03:52Z</time>
      </trkpt>
      <trkpt lat="48.49862" lon="3.72947">
        <ele>78.24</ele>
        <time>2014-09-20T16:03:53Z</time>
      </trkpt>
      <trkpt lat="48.49867" lon="3.72945">
        <ele>78.26</ele>
        <time>2014-09-20T16:03:54Z</time>
      </trkpt>
      <trkpt lat="48.49871" lon="3.72942">
        <ele>78.28</ele>
        <time>2014-09-20T16:03:55Z</time>
      </trkpt>
      <trkpt lat="48.49875" lon="3.7294">
        <ele>78.29</ele>
        <time>2014-09-20T16:03:56Z</time>
      </trkpt>
      <trkpt lat="48.4988" lon="3.72938">
        <ele>78.3</ele>
        <time>2014-09-20T16:03:57Z</time>
      </trkpt>
      <trkpt lat="48.49884" lon="3.72936">
        <ele>78.28</ele>
        <time>2014-09-20T16:03:58Z</time>
      </trkpt>
      <trkpt lat="48.49889" lon="3.72934">
        <ele>78.27</ele>
        <time>2014-09-20T16:03:59Z</time>
      </trkpt>
      <trkpt lat="48.49893" lon="3.72933">
        <ele>78.23</ele>
        <time>2014-09-20T16:04:00Z</time>
      </trkpt>
      <trkpt lat="48.49898" lon="3.72931">
        <ele>78.18</ele>
        <time>2014-09-20T16:04:01Z</time>
      </trkpt>
      <trkpt lat="48.49902" lon="3.7293">
        <ele>78.14</ele>
        <time>2014-09-20T16:04:02Z</time>
      </trkpt>
      <trkpt lat="48.49907" lon="3.72928">
        <ele>78.14</ele>
        <time>2014-09-20T16:04:03Z</time>
      </trkpt>
      <trkpt lat="48.49912" lon="3.72927">
        <ele>78.14</ele>
        <time>2014-09-20T16:04:04Z</time>
      </trkpt>
      <trkpt lat="48.49917" lon="3.72927">
        <ele>78.11</ele>
        <time>2014-09-20T16:04:05Z</time>
      </trkpt>
      <trkpt lat="48.49922" lon="3.72926">
        <ele>78.09</ele>
        <time>2014-09-20T16:04:06Z</time>
      </trkpt>
      <trkpt lat="48.49927" lon="3.72926">
        <ele>78.05</ele>
        <time>2014-09-20T16:04:07Z</time>
      </trkpt>
      <trkpt lat="48.49931" lon="3.72925">
        <ele>78.02</ele>
        <time>2014-09-20T16:04:08Z</time>
      </trkpt>
      <trkpt lat="48.49936" lon="3.72924">
        <ele>77.97</ele>
        <time>2014-09-20T16:04:09Z</time>
      </trkpt>
      <trkpt lat="48.49941" lon="3.72924">
        <ele>77.94</ele>
        <time>2014-09-20T16:04:10Z</time>
      </trkpt>
      <trkpt lat="48.49946" lon="3.72923">
        <ele>77.93</ele>
        <time>2014-09-20T16:04:11Z</time>
      </trkpt>
      <trkpt lat="48.49951" lon="3.72923">
        <ele>77.96</ele>
        <time>2014-09-20T16:04:12Z</time>
      </trkpt>
      <trkpt lat="48.49956" lon="3.72922">
        <ele>77.97</ele>
        <time>2014-09-20T16:04:13Z</time>
      </trkpt>
      <trkpt lat="48.49961" lon="3.72922">
        <ele>77.96</ele>
        <time>2014-09-20T16:04:14Z</time>
      </trkpt>
      <trkpt lat="48.49966" lon="3.72922">
        <ele>77.98</ele>
        <time>2014-09-20T16:04:15Z</time>
      </trkpt>
      <trkpt lat="48.49971" lon="3.72922">
        <ele>77.99</ele>
        <time>2014-09-20T16:04:16Z</time>
      </trkpt>
      <trkpt lat="48.49975" lon="3.72921">
        <ele>78.03</ele>
        <time>2014-09-20T16:04:17Z</time>
      </trkpt>
      <trkpt lat="48.4998" lon="3.7292">
        <ele>78.08</ele>
        <time>2014-09-20T16:04:18Z</time>
      </trkpt>
      <trkpt lat="48.49985" lon="3.72919">
        <ele>78.14</ele>
        <time>2014-09-20T16:04:19Z</time>
      </trkpt>
      <trkpt lat="48.4999" lon="3.72918">
        <ele>78.19</ele>
        <time>2014-09-20T16:04:20Z</time>
      </trkpt>
      <trkpt lat="48.49995" lon="3.72917">
        <ele>78.27</ele>
        <time>2014-09-20T16:04:21Z</time>
      </trkpt>
      <trkpt lat="48.49999" lon="3.72916">
        <ele>78.34</ele>
        <time>2014-09-20T16:04:22Z</time>
      </trkpt>
      <trkpt lat="48.50004" lon="3.72915">
        <ele>78.36</ele>
        <time>2014-09-20T16:04:23Z</time>
      </trkpt>
      <trkpt lat="48.50009" lon="3.72914">
        <ele>78.38</ele>
        <time>2014-09-20T16:04:24Z</time>
      </trkpt>
      <trkpt lat="48.50013" lon="3.72912">
        <ele>78.44</ele>
        <time>2014-09-20T16:04:25Z</time>
      </trkpt>
      <trkpt lat="48.50018" lon="3.72911">
        <ele>78.49</ele>
        <time>2014-09-20T16:04:26Z</time>
      </trkpt>
      <trkpt lat="48.50023" lon="3.72909">
        <ele>78.52</ele>
        <time>2014-09-20T16:04:27Z</time>
      </trkpt>
    </trkseg>
  </trk>
</gpx>